<?xml version='1.0' encoding='UTF-8'?><gpx version="1.1" creator="JPX - https://github.com/jenetics/jpx" xmlns="http://www.topografix.com/GPX/1/1"><trk><trkseg><trkpt lat="45.57046144856134" lon="10.809647162718266"><ele>192.0</ele><time>2026-04-01T07:00:48.998Z</time></trkpt><trkpt lat="45.570436567778245" lon="10.80973935416352"><ele>192.0</ele><time>2026-04-01T07:00:51.998Z</time></trkpt><trkpt lat="45.57039846251556" lon="10.809832996263541"><ele>192.0</ele><time>2026-04-01T07:00:56.998Z</time></trkpt><trkpt lat="45.57037106499105" lon="10.80997140835808"><ele>192.0</ele><time>2026-04-01T07:00:58.998Z</time></trkpt><trkpt lat="45.570445391893806" lon="10.81008058903607"><ele>192.0</ele><time>2026-04-01T07:01:00.998Z</time></trkpt><trkpt lat="45.57048611284926" lon="10.810215785989158"><ele>192.2</ele><time>2026-04-01T07:01:02.998Z</time></trkpt><trkpt lat="45.5703898226007" lon="10.810374243556417"><ele>192.39999999999998</ele><time>2026-04-01T07:01:04.998Z</time></trkpt><trkpt lat="45.5703017201178" lon="10.810416595046748"><ele>192.60000000000002</ele><time>2026-04-01T07:01:05.998Z</time></trkpt><trkpt lat="45.57022416903761" lon="10.810513099863966"><ele>192.8</ele><time>2026-04-01T07:01:06.998Z</time></trkpt><trkpt lat="45.5701653335973" lon="10.810586102270056"><ele>193.0</ele><time>2026-04-01T07:01:07.998Z</time></trkpt><trkpt lat="45.5701234563436" lon="10.810661585779625"><ele>192.66666666666666</ele><time>2026-04-01T07:01:08.998Z</time></trkpt><trkpt lat="45.570022165490556" lon="10.810722189357014"><ele>192.33333333333331</ele><time>2026-04-01T07:01:10.998Z</time></trkpt><trkpt lat="45.569938534217194" lon="10.810741421744712"><ele>192.0</ele><time>2026-04-01T07:01:11.998Z</time></trkpt><trkpt lat="45.56985033803682" lon="10.810731793663347"><ele>191.66666666666666</ele><time>2026-04-01T07:01:12.998Z</time></trkpt><trkpt lat="45.56977368590981" lon="10.810751809162293"><ele>191.33333333333331</ele><time>2026-04-01T07:01:13.999Z</time></trkpt><trkpt lat="45.569704279603826" lon="10.81074983799469"><ele>191.0</ele><time>2026-04-01T07:01:14.999Z</time></trkpt><trkpt lat="45.5696213132044" lon="10.810744259163998"><ele>191.0</ele><time>2026-04-01T07:01:17Z</time></trkpt><trkpt lat="45.56961847542285" lon="10.811083178447134"><ele>191.0</ele><time>2026-04-01T07:01:19Z</time></trkpt><trkpt lat="45.56963659992544" lon="10.811221273733803"><ele>191.0</ele><time>2026-04-01T07:01:20Z</time></trkpt><trkpt lat="45.56964973397559" lon="10.81134511180719"><ele>191.0</ele><time>2026-04-01T07:01:21Z</time></trkpt><trkpt lat="45.56965239185677" lon="10.81146686476616"><ele>191.0</ele><time>2026-04-01T07:01:22Z</time></trkpt><trkpt lat="45.56965492252553" lon="10.811611208939073"><ele>191.0</ele><time>2026-04-01T07:01:23Z</time></trkpt><trkpt lat="45.56966742957448" lon="10.81178768291138"><ele>191.0</ele><time>2026-04-01T07:01:24Z</time></trkpt><trkpt lat="45.56967338197646" lon="10.811943668365414"><ele>191.0</ele><time>2026-04-01T07:01:25Z</time></trkpt><trkpt lat="45.56968093335525" lon="10.812074301364662"><ele>191.0</ele><time>2026-04-01T07:01:26Z</time></trkpt><trkpt lat="45.569687157693956" lon="10.812187312183895"><ele>190.20000000000002</ele><time>2026-04-01T07:01:27Z</time></trkpt><trkpt lat="45.56969368293879" lon="10.812321336042343"><ele>189.4</ele><time>2026-04-01T07:01:29Z</time></trkpt><trkpt lat="45.56972584205251" lon="10.812417460974213"><ele>188.6</ele><time>2026-04-01T07:01:32Z</time></trkpt><trkpt lat="45.56984367417082" lon="10.81244358288218"><ele>187.8</ele><time>2026-04-01T07:01:34Z</time></trkpt><trkpt lat="45.56993397956373" lon="10.812429312459965"><ele>187.0</ele><time>2026-04-01T07:01:35Z</time></trkpt><trkpt lat="45.57001748966142" lon="10.812408065542998"><ele>187.0</ele><time>2026-04-01T07:01:36Z</time></trkpt><trkpt lat="45.57009044672761" lon="10.812391838115364"><ele>187.0</ele><time>2026-04-01T07:01:37Z</time></trkpt><trkpt lat="45.57019302592607" lon="10.812379779742205"><ele>187.0</ele><time>2026-04-01T07:01:39Z</time></trkpt><trkpt lat="45.570262005594046" lon="10.812369603701862"><ele>187.0</ele><time>2026-04-01T07:01:40Z</time></trkpt><trkpt lat="45.57035243847214" lon="10.81235041141019"><ele>187.0</ele><time>2026-04-01T07:01:42Z</time></trkpt><trkpt lat="45.57041696933285" lon="10.81236209448617"><ele>187.0</ele><time>2026-04-01T07:01:45Z</time></trkpt><trkpt lat="45.570439036152" lon="10.81249203611117"><ele>188.0</ele><time>2026-04-01T07:01:50Z</time></trkpt><trkpt lat="45.57041154940096" lon="10.812338979946468"><ele>189.0</ele><time>2026-04-01T07:02:00Z</time></trkpt><trkpt lat="45.57043158152545" lon="10.812479252999049"><ele>190.0</ele><time>2026-04-01T07:02:16.999Z</time></trkpt><trkpt lat="45.57052807116912" lon="10.812492797004362"><ele>191.0</ele><time>2026-04-01T07:16:43Z</time></trkpt><trkpt lat="45.57055274911907" lon="10.812384938217004"><ele>192.0</ele><time>2026-04-01T07:16:46.999Z</time></trkpt><trkpt lat="45.57062712785203" lon="10.8123498147283"><ele>192.0</ele><time>2026-04-01T07:16:48.999Z</time></trkpt><trkpt lat="45.570713282642295" lon="10.812304623343799"><ele>192.0</ele><time>2026-04-01T07:16:51.999Z</time></trkpt><trkpt lat="45.570747404208795" lon="10.812201037695534"><ele>192.0</ele><time>2026-04-01T07:16:54.999Z</time></trkpt><trkpt lat="45.570815323660504" lon="10.812123695734696"><ele>192.0</ele><time>2026-04-01T07:16:57.999Z</time></trkpt><trkpt lat="45.57090669129321" lon="10.812077310573203"><ele>192.0</ele><time>2026-04-01T07:16:59.999Z</time></trkpt><trkpt lat="45.57099297743505" lon="10.812045368655966"><ele>192.0</ele><time>2026-04-01T07:17:01.999Z</time></trkpt><trkpt lat="45.57108792917373" lon="10.812036034839968"><ele>190.25</ele><time>2026-04-01T07:17:03.999Z</time></trkpt><trkpt lat="45.57120890652098" lon="10.812007623557363"><ele>188.5</ele><time>2026-04-01T07:17:05.999Z</time></trkpt><trkpt lat="45.57132871943337" lon="10.811999592890574"><ele>186.75</ele><time>2026-04-01T07:17:07.999Z</time></trkpt><trkpt lat="45.57143966139702" lon="10.81198260190826"><ele>185.0</ele><time>2026-04-01T07:17:09.999Z</time></trkpt><trkpt lat="45.57156373286134" lon="10.811977085050934"><ele>185.0</ele><time>2026-04-01T07:17:11.999Z</time></trkpt><trkpt lat="45.57166530021138" lon="10.811955337624546"><ele>185.0</ele><time>2026-04-01T07:17:12.999Z</time></trkpt><trkpt lat="45.57176693550327" lon="10.811943473493766"><ele>185.0</ele><time>2026-04-01T07:17:13.999Z</time></trkpt><trkpt lat="45.57186939338744" lon="10.811942153542574"><ele>185.0</ele><time>2026-04-01T07:17:14.999Z</time></trkpt><trkpt lat="45.571976828141025" lon="10.811948421120114"><ele>185.0</ele><time>2026-04-01T07:17:15.999Z</time></trkpt><trkpt lat="45.57208541597898" lon="10.811965333081437"><ele>185.4</ele><time>2026-04-01T07:17:16.999Z</time></trkpt><trkpt lat="45.57218680355767" lon="10.81198168804114"><ele>185.8</ele><time>2026-04-01T07:17:17.999Z</time></trkpt><trkpt lat="45.57227930213877" lon="10.812000667753411"><ele>186.2</ele><time>2026-04-01T07:17:18.999Z</time></trkpt><trkpt lat="45.57238522751708" lon="10.812072478459113"><ele>186.6</ele><time>2026-04-01T07:17:19.999Z</time></trkpt><trkpt lat="45.572487511376266" lon="10.81212686422872"><ele>187.0</ele><time>2026-04-01T07:17:20.999Z</time></trkpt><trkpt lat="45.572566996373446" lon="10.812170134171113"><ele>187.0</ele><time>2026-04-01T07:17:21.999Z</time></trkpt><trkpt lat="45.57267491911446" lon="10.812073628165093"><ele>187.0</ele><time>2026-04-01T07:17:22.999Z</time></trkpt><trkpt lat="45.57275475570714" lon="10.812082380397714"><ele>187.0</ele><time>2026-04-01T07:17:23.999Z</time></trkpt><trkpt lat="45.572837954137476" lon="10.812085552032013"><ele>187.0</ele><time>2026-04-01T07:17:24.999Z</time></trkpt><trkpt lat="45.57292347648178" lon="10.812079362178132"><ele>187.0</ele><time>2026-04-01T07:17:25.999Z</time></trkpt><trkpt lat="45.57303355904762" lon="10.812085652776867"><ele>188.0</ele><time>2026-04-01T07:17:26.999Z</time></trkpt><trkpt lat="45.57313586165046" lon="10.812079455072421"><ele>189.0</ele><time>2026-04-01T07:17:27.999Z</time></trkpt><trkpt lat="45.57323603048225" lon="10.812071824759256"><ele>190.0</ele><time>2026-04-01T07:17:28.999Z</time></trkpt><trkpt lat="45.573351905763715" lon="10.812045374565091"><ele>191.0</ele><time>2026-04-01T07:17:29.999Z</time></trkpt><trkpt lat="45.573456858196906" lon="10.812034022246623"><ele>192.0</ele><time>2026-04-01T07:17:30.999Z</time></trkpt><trkpt lat="45.57355108401536" lon="10.812016704528736"><ele>192.0</ele><time>2026-04-01T07:17:31.999Z</time></trkpt><trkpt lat="45.57364081239033" lon="10.811980834605443"><ele>192.0</ele><time>2026-04-01T07:17:32.999Z</time></trkpt><trkpt lat="45.57373377442768" lon="10.811924897237677"><ele>192.0</ele><time>2026-04-01T07:17:33.999Z</time></trkpt><trkpt lat="45.57382377940452" lon="10.811864007168387"><ele>192.0</ele><time>2026-04-01T07:17:34.999Z</time></trkpt><trkpt lat="45.57391103530804" lon="10.81180335820612"><ele>192.0</ele><time>2026-04-01T07:17:35.999Z</time></trkpt><trkpt lat="45.57399605486175" lon="10.81174050438788"><ele>192.0</ele><time>2026-04-01T07:17:36.999Z</time></trkpt><trkpt lat="45.574094642168085" lon="10.811655146010978"><ele>192.0</ele><time>2026-04-01T07:17:37.999Z</time></trkpt><trkpt lat="45.574188433793424" lon="10.811564362566578"><ele>192.0</ele><time>2026-04-01T07:17:38.999Z</time></trkpt><trkpt lat="45.574281813847705" lon="10.811471840541929"><ele>192.0</ele><time>2026-04-01T07:17:39.999Z</time></trkpt><trkpt lat="45.574367424247065" lon="10.811390203739759"><ele>192.0</ele><time>2026-04-01T07:17:40.999Z</time></trkpt><trkpt lat="45.57444466025424" lon="10.811281985408774"><ele>190.75</ele><time>2026-04-01T07:17:41.999Z</time></trkpt><trkpt lat="45.574529363003954" lon="10.811157089972658"><ele>189.5</ele><time>2026-04-01T07:17:42.999Z</time></trkpt><trkpt lat="45.57461507816196" lon="10.81102394847393"><ele>188.25</ele><time>2026-04-01T07:17:43.999Z</time></trkpt><trkpt lat="45.574691908863784" lon="10.810892036193788"><ele>187.0</ele><time>2026-04-01T07:17:44.999Z</time></trkpt><trkpt lat="45.57476931579631" lon="10.810772372990934"><ele>187.0</ele><time>2026-04-01T07:17:45.999Z</time></trkpt><trkpt lat="45.57483976137714" lon="10.810675508790473"><ele>187.0</ele><time>2026-04-01T07:17:46.999Z</time></trkpt><trkpt lat="45.574892353554866" lon="10.810581832914192"><ele>187.0</ele><time>2026-04-01T07:17:47.999Z</time></trkpt><trkpt lat="45.57494599726399" lon="10.810476669346293"><ele>187.0</ele><time>2026-04-01T07:17:48.999Z</time></trkpt><trkpt lat="45.57500461032349" lon="10.810378718287842"><ele>187.0</ele><time>2026-04-01T07:17:49.999Z</time></trkpt><trkpt lat="45.575079323409575" lon="10.810262558105245"><ele>187.0</ele><time>2026-04-01T07:17:50.999Z</time></trkpt><trkpt lat="45.575166087677786" lon="10.810171093182971"><ele>187.0</ele><time>2026-04-01T07:17:51.999Z</time></trkpt><trkpt lat="45.575271240730224" lon="10.810106316843575"><ele>187.0</ele><time>2026-04-01T07:17:52.999Z</time></trkpt><trkpt lat="45.575392282530515" lon="10.810070908127495"><ele>187.0</ele><time>2026-04-01T07:17:53.999Z</time></trkpt><trkpt lat="45.57551644442721" lon="10.81005767881691"><ele>186.5</ele><time>2026-04-01T07:17:54.999Z</time></trkpt><trkpt lat="45.57563891337733" lon="10.810080231431654"><ele>186.0</ele><time>2026-04-01T07:17:55.999Z</time></trkpt><trkpt lat="45.57575545017348" lon="10.810100454299421"><ele>185.5</ele><time>2026-04-01T07:17:56.999Z</time></trkpt><trkpt lat="45.57588132343035" lon="10.81011363125329"><ele>185.0</ele><time>2026-04-01T07:17:57.999Z</time></trkpt><trkpt lat="45.57600573556352" lon="10.810114137260227"><ele>185.0</ele><time>2026-04-01T07:17:58.999Z</time></trkpt><trkpt lat="45.57612302870308" lon="10.810109654945869"><ele>185.0</ele><time>2026-04-01T07:17:59.998Z</time></trkpt><trkpt lat="45.576237963063356" lon="10.81010405016606"><ele>185.0</ele><time>2026-04-01T07:18:00.998Z</time></trkpt><trkpt lat="45.576357883966494" lon="10.810113330361686"><ele>185.0</ele><time>2026-04-01T07:18:02Z</time></trkpt><trkpt lat="45.57647880328447" lon="10.810120257640296"><ele>184.8</ele><time>2026-04-01T07:18:03Z</time></trkpt><trkpt lat="45.5765986339201" lon="10.810123668868828"><ele>184.6</ele><time>2026-04-01T07:18:04Z</time></trkpt><trkpt lat="45.57670984537453" lon="10.810124012692883"><ele>184.39999999999998</ele><time>2026-04-01T07:18:05Z</time></trkpt><trkpt lat="45.57681800669734" lon="10.810126730842406"><ele>184.2</ele><time>2026-04-01T07:18:06Z</time></trkpt><trkpt lat="45.57692475025783" lon="10.810125350354628"><ele>184.0</ele><time>2026-04-01T07:18:07Z</time></trkpt><trkpt lat="45.57701859532676" lon="10.810130119079155"><ele>184.0</ele><time>2026-04-01T07:18:08Z</time></trkpt><trkpt lat="45.57710247947787" lon="10.810142900648836"><ele>184.0</ele><time>2026-04-01T07:18:09Z</time></trkpt><trkpt lat="45.57717192790862" lon="10.810148193642757"><ele>184.0</ele><time>2026-04-01T07:18:10Z</time></trkpt><trkpt lat="45.577236757911756" lon="10.810152675013844"><ele>184.0</ele><time>2026-04-01T07:18:11Z</time></trkpt><trkpt lat="45.577300307627745" lon="10.810152708553892"><ele>184.0</ele><time>2026-04-01T07:18:13Z</time></trkpt><trkpt lat="45.57736510362237" lon="10.810143173762292"><ele>184.0</ele><time>2026-04-01T07:18:17Z</time></trkpt><trkpt lat="45.57747507506851" lon="10.810228239718532"><ele>184.0</ele><time>2026-04-01T07:18:19Z</time></trkpt><trkpt lat="45.57754198964726" lon="10.810283856378433"><ele>184.0</ele><time>2026-04-01T07:18:20Z</time></trkpt><trkpt lat="45.57761072668879" lon="10.810330879868912"><ele>184.0</ele><time>2026-04-01T07:18:21Z</time></trkpt><trkpt lat="45.577691125368894" lon="10.810396336573788"><ele>184.0</ele><time>2026-04-01T07:18:22Z</time></trkpt><trkpt lat="45.577776053917205" lon="10.810485292970865"><ele>184.0</ele><time>2026-04-01T07:18:23Z</time></trkpt><trkpt lat="45.57786979869978" lon="10.810596729259657"><ele>183.25</ele><time>2026-04-01T07:18:24Z</time></trkpt><trkpt lat="45.57797290093023" lon="10.810724745062627"><ele>182.5</ele><time>2026-04-01T07:18:25Z</time></trkpt><trkpt lat="45.57806643422042" lon="10.810851166919662"><ele>181.75</ele><time>2026-04-01T07:18:26Z</time></trkpt><trkpt lat="45.578155430906286" lon="10.810961403882386"><ele>181.0</ele><time>2026-04-01T07:18:27Z</time></trkpt><trkpt lat="45.57823375313289" lon="10.811070366631375"><ele>181.0</ele><time>2026-04-01T07:18:28Z</time></trkpt><trkpt lat="45.57831314950828" lon="10.811194779625376"><ele>181.0</ele><time>2026-04-01T07:18:29Z</time></trkpt><trkpt lat="45.57836835621685" lon="10.811346353534631"><ele>181.0</ele><time>2026-04-01T07:18:30Z</time></trkpt><trkpt lat="45.578426887661635" lon="10.811476882618372"><ele>181.0</ele><time>2026-04-01T07:18:31Z</time></trkpt><trkpt lat="45.57847798634578" lon="10.811602726652435"><ele>181.0</ele><time>2026-04-01T07:18:32Z</time></trkpt><trkpt lat="45.57850824390968" lon="10.811723217754782"><ele>180.60000000000002</ele><time>2026-04-01T07:18:33Z</time></trkpt><trkpt lat="45.57849904842471" lon="10.811881311272163"><ele>180.2</ele><time>2026-04-01T07:18:34Z</time></trkpt><trkpt lat="45.57854486408043" lon="10.811991974899275"><ele>179.8</ele><time>2026-04-01T07:18:35Z</time></trkpt><trkpt lat="45.57859119240767" lon="10.812120953981232"><ele>179.39999999999998</ele><time>2026-04-01T07:18:36Z</time></trkpt><trkpt lat="45.57861189813324" lon="10.812224820048803"><ele>179.0</ele><time>2026-04-01T07:18:37Z</time></trkpt><trkpt lat="45.57861706691431" lon="10.812397740214927"><ele>179.0</ele><time>2026-04-01T07:18:39Z</time></trkpt><trkpt lat="45.57862800467122" lon="10.812497018804317"><ele>179.0</ele><time>2026-04-01T07:18:40Z</time></trkpt><trkpt lat="45.57864311091262" lon="10.812634133427995"><ele>179.0</ele><time>2026-04-01T07:18:41Z</time></trkpt><trkpt lat="45.57893368158158" lon="10.8127307970368"><ele>175.6</ele><time>2026-04-01T07:18:42Z</time></trkpt><trkpt lat="45.578960787425224" lon="10.812876521710919"><ele>172.2</ele><time>2026-04-01T07:18:43Z</time></trkpt><trkpt lat="45.578981495054144" lon="10.813006636309296"><ele>168.79999999999998</ele><time>2026-04-01T07:18:44Z</time></trkpt><trkpt lat="45.579018965622296" lon="10.81314832638641"><ele>165.39999999999998</ele><time>2026-04-01T07:18:45Z</time></trkpt><trkpt lat="45.579060347395675" lon="10.813273391497042"><ele>162.0</ele><time>2026-04-01T07:18:46Z</time></trkpt><trkpt lat="45.579090542491215" lon="10.81336942758128"><ele>162.0</ele><time>2026-04-01T07:18:47Z</time></trkpt><trkpt lat="45.57913776650168" lon="10.813452783697102"><ele>162.0</ele><time>2026-04-01T07:18:48Z</time></trkpt><trkpt lat="45.57920138874242" lon="10.813552026148127"><ele>162.0</ele><time>2026-04-01T07:18:50Z</time></trkpt><trkpt lat="45.579271095669746" lon="10.813707235294173"><ele>162.0</ele><time>2026-04-01T07:18:52Z</time></trkpt><trkpt lat="45.579293535153305" lon="10.8138018720654"><ele>162.0</ele><time>2026-04-01T07:18:53Z</time></trkpt><trkpt lat="45.579307954714025" lon="10.813904543533443"><ele>162.0</ele><time>2026-04-01T07:18:53.999Z</time></trkpt><trkpt lat="45.57931781107263" lon="10.81399611046484"><ele>161.0</ele><time>2026-04-01T07:18:54.999Z</time></trkpt><trkpt lat="45.57931607087466" lon="10.814168278660233"><ele>160.0</ele><time>2026-04-01T07:18:56.999Z</time></trkpt><trkpt lat="45.5793028083983" lon="10.814323816956929"><ele>159.0</ele><time>2026-04-01T07:18:58.999Z</time></trkpt><trkpt lat="45.579263326418875" lon="10.814443766338474"><ele>158.0</ele><time>2026-04-01T07:19:00.999Z</time></trkpt><trkpt lat="45.57922756270515" lon="10.81453112190656"><ele>157.0</ele><time>2026-04-01T07:19:03.999Z</time></trkpt><trkpt lat="45.57923959070958" lon="10.814651802107278"><ele>156.2</ele><time>2026-04-01T07:19:05.999Z</time></trkpt><trkpt lat="45.5792738599925" lon="10.814803253936542"><ele>155.39999999999998</ele><time>2026-04-01T07:19:07.999Z</time></trkpt><trkpt lat="45.5793131405928" lon="10.81497066616551"><ele>154.60000000000002</ele><time>2026-04-01T07:19:09.999Z</time></trkpt><trkpt lat="45.57932170014213" lon="10.815109656511948"><ele>153.8</ele><time>2026-04-01T07:19:11.999Z</time></trkpt><trkpt lat="45.579303461458856" lon="10.815202898757448"><ele>153.0</ele><time>2026-04-01T07:19:15.999Z</time></trkpt><trkpt lat="45.57927063081735" lon="10.815313998532966"><ele>151.6</ele><time>2026-04-01T07:19:18.999Z</time></trkpt><trkpt lat="45.57924710172729" lon="10.815463895342651"><ele>150.20000000000002</ele><time>2026-04-01T07:19:21.999Z</time></trkpt><trkpt lat="45.579212262355064" lon="10.815617512437292"><ele>148.8</ele><time>2026-04-01T07:19:24.999Z</time></trkpt><trkpt lat="45.57922317973038" lon="10.81574812429654"><ele>147.4</ele><time>2026-04-01T07:19:26.999Z</time></trkpt><trkpt lat="45.57926648104175" lon="10.815892158563523"><ele>146.0</ele><time>2026-04-01T07:19:28.999Z</time></trkpt><trkpt lat="45.57930908725316" lon="10.81599852991234"><ele>144.33333333333331</ele><time>2026-04-01T07:19:29.999Z</time></trkpt><trkpt lat="45.57934588574573" lon="10.816084498826386"><ele>142.66666666666666</ele><time>2026-04-01T07:19:30.999Z</time></trkpt><trkpt lat="45.57940227883337" lon="10.816172031479532"><ele>141.0</ele><time>2026-04-01T07:19:32.999Z</time></trkpt><trkpt lat="45.579357754604665" lon="10.816241239357108"><ele>139.33333333333334</ele><time>2026-04-01T07:19:37.999Z</time></trkpt><trkpt lat="45.579312683955436" lon="10.81614192920251"><ele>137.66666666666669</ele><time>2026-04-01T07:19:40.999Z</time></trkpt><trkpt lat="45.579244146026596" lon="10.816155674187824"><ele>136.0</ele><time>2026-04-01T07:19:43.999Z</time></trkpt><trkpt lat="45.57919543346656" lon="10.81632651879856"><ele>136.0</ele><time>2026-04-01T07:19:45.999Z</time></trkpt><trkpt lat="45.57917389670085" lon="10.816452874082286"><ele>136.0</ele><time>2026-04-01T07:19:47.999Z</time></trkpt><trkpt lat="45.57918729490452" lon="10.81655179420503"><ele>136.0</ele><time>2026-04-01T07:19:49.999Z</time></trkpt><trkpt lat="45.579079512616055" lon="10.816665369857487"><ele>136.0</ele><time>2026-04-01T07:19:51.999Z</time></trkpt><trkpt lat="45.57898359407598" lon="10.816674785066152"><ele>136.0</ele><time>2026-04-01T07:19:52.999Z</time></trkpt><trkpt lat="45.57889280767364" lon="10.816687378810474"><ele>136.0</ele><time>2026-04-01T07:19:53.999Z</time></trkpt><trkpt lat="45.57881347855341" lon="10.816707633947868"><ele>136.0</ele><time>2026-04-01T07:19:54.999Z</time></trkpt><trkpt lat="45.57873973610664" lon="10.816733969193645"><ele>136.0</ele><time>2026-04-01T07:19:55.999Z</time></trkpt><trkpt lat="45.57865207044876" lon="10.816755746018915"><ele>136.0</ele><time>2026-04-01T07:19:56.999Z</time></trkpt><trkpt lat="45.57856214636475" lon="10.81674280576256"><ele>136.0</ele><time>2026-04-01T07:19:57.999Z</time></trkpt><trkpt lat="45.57850455148198" lon="10.816696454638207"><ele>136.0</ele><time>2026-04-01T07:19:58.999Z</time></trkpt><trkpt lat="45.57839486278838" lon="10.816669718113669"><ele>135.2</ele><time>2026-04-01T07:20:00.999Z</time></trkpt><trkpt lat="45.57834036688466" lon="10.81674247778945"><ele>134.39999999999998</ele><time>2026-04-01T07:20:01.999Z</time></trkpt><trkpt lat="45.578273028753834" lon="10.816805396331295"><ele>133.6</ele><time>2026-04-01T07:20:02.999Z</time></trkpt><trkpt lat="45.57817719882044" lon="10.816873211001987"><ele>132.79999999999998</ele><time>2026-04-01T07:20:04.999Z</time></trkpt><trkpt lat="45.57816497733582" lon="10.817040209968578"><ele>132.0</ele><time>2026-04-01T07:20:06.999Z</time></trkpt><trkpt lat="45.578136258045845" lon="10.817165373078035"><ele>132.0</ele><time>2026-04-01T07:20:08Z</time></trkpt><trkpt lat="45.57807268932644" lon="10.81730235536654"><ele>132.0</ele><time>2026-04-01T07:20:09Z</time></trkpt><trkpt lat="45.578003421084865" lon="10.817409892200493"><ele>132.0</ele><time>2026-04-01T07:20:10Z</time></trkpt><trkpt lat="45.57796687311714" lon="10.817514213743632"><ele>132.0</ele><time>2026-04-01T07:20:11Z</time></trkpt><trkpt lat="45.57797560728087" lon="10.817609730861344"><ele>132.0</ele><time>2026-04-01T07:20:12Z</time></trkpt><trkpt lat="45.578093907843645" lon="10.817678400648003"><ele>132.0</ele><time>2026-04-01T07:20:14Z</time></trkpt><trkpt lat="45.57818247184841" lon="10.817648633161182"><ele>132.0</ele><time>2026-04-01T07:20:15Z</time></trkpt><trkpt lat="45.57825911563601" lon="10.817604509275384"><ele>132.0</ele><time>2026-04-01T07:20:16Z</time></trkpt><trkpt lat="45.57833048591738" lon="10.817572275297684"><ele>132.0</ele><time>2026-04-01T07:20:17Z</time></trkpt><trkpt lat="45.57841841731148" lon="10.81755177926185"><ele>132.0</ele><time>2026-04-01T07:20:18Z</time></trkpt><trkpt lat="45.578516620265866" lon="10.817524712396454"><ele>132.0</ele><time>2026-04-01T07:20:19Z</time></trkpt><trkpt lat="45.57858997400715" lon="10.817529183718653"><ele>132.0</ele><time>2026-04-01T07:20:20Z</time></trkpt><trkpt lat="45.57866422117911" lon="10.81759419355368"><ele>132.0</ele><time>2026-04-01T07:20:22Z</time></trkpt><trkpt lat="45.578706395711976" lon="10.817664009242286"><ele>132.0</ele><time>2026-04-01T07:20:27Z</time></trkpt><trkpt lat="45.57875383095981" lon="10.817562270924146"><ele>132.0</ele><time>2026-04-01T07:20:30Z</time></trkpt><trkpt lat="45.578783592423484" lon="10.817474480423371"><ele>132.0</ele><time>2026-04-01T07:20:32Z</time></trkpt><trkpt lat="45.578850272863704" lon="10.817366560867017"><ele>132.0</ele><time>2026-04-01T07:20:34Z</time></trkpt><trkpt lat="45.57884412960908" lon="10.817274274047586"><ele>132.4</ele><time>2026-04-01T07:20:35Z</time></trkpt><trkpt lat="45.57883974048114" lon="10.817172625668043"><ele>132.79999999999998</ele><time>2026-04-01T07:20:36Z</time></trkpt><trkpt lat="45.578823438475425" lon="10.817056163687633"><ele>133.2</ele><time>2026-04-01T07:20:38Z</time></trkpt><trkpt lat="45.57889916482968" lon="10.817056420164771"><ele>133.6</ele><time>2026-04-01T07:20:40Z</time></trkpt><trkpt lat="45.57904545121748" lon="10.817046862266263"><ele>134.0</ele><time>2026-04-01T07:20:42Z</time></trkpt><trkpt lat="45.57915581614974" lon="10.817010093072378"><ele>134.0</ele><time>2026-04-01T07:20:43Z</time></trkpt><trkpt lat="45.57925609119085" lon="10.816993461789213"><ele>134.0</ele><time>2026-04-01T07:20:44Z</time></trkpt><trkpt lat="45.5793428282629" lon="10.816980882504074"><ele>134.0</ele><time>2026-04-01T07:20:45Z</time></trkpt><trkpt lat="45.57942004469237" lon="10.816995498401642"><ele>134.0</ele><time>2026-04-01T07:20:46Z</time></trkpt><trkpt lat="45.57948488238719" lon="10.817011140295818"><ele>134.0</ele><time>2026-04-01T07:20:47Z</time></trkpt><trkpt lat="45.57960320802935" lon="10.817046116495643"><ele>133.71428571428572</ele><time>2026-04-01T07:20:49Z</time></trkpt><trkpt lat="45.57966791279149" lon="10.817069832432777"><ele>133.42857142857142</ele><time>2026-04-01T07:20:50Z</time></trkpt><trkpt lat="45.57973050053722" lon="10.817091686367657"><ele>133.14285714285714</ele><time>2026-04-01T07:20:51Z</time></trkpt><trkpt lat="45.57979849811506" lon="10.817125674598502"><ele>132.85714285714286</ele><time>2026-04-01T07:20:52Z</time></trkpt><trkpt lat="45.57986263909373" lon="10.817165264271884"><ele>132.57142857142858</ele><time>2026-04-01T07:20:53Z</time></trkpt><trkpt lat="45.57993002543591" lon="10.817196378590445"><ele>132.28571428571428</ele><time>2026-04-01T07:20:54Z</time></trkpt><trkpt lat="45.58000259840959" lon="10.817240415168017"><ele>132.0</ele><time>2026-04-01T07:20:55Z</time></trkpt><trkpt lat="45.58009104884155" lon="10.817287352648378"><ele>132.0</ele><time>2026-04-01T07:20:56Z</time></trkpt><trkpt lat="45.580186961992815" lon="10.817340313253267"><ele>132.0</ele><time>2026-04-01T07:20:57Z</time></trkpt><trkpt lat="45.580283860350185" lon="10.817405168417771"><ele>132.0</ele><time>2026-04-01T07:20:58Z</time></trkpt><trkpt lat="45.58037252774446" lon="10.817468053048142"><ele>132.0</ele><time>2026-04-01T07:20:58.999Z</time></trkpt><trkpt lat="45.580455911918925" lon="10.817518654516073"><ele>132.0</ele><time>2026-04-01T07:20:59.999Z</time></trkpt><trkpt lat="45.58054436082251" lon="10.817570232613573"><ele>131.83333333333334</ele><time>2026-04-01T07:21:00.999Z</time></trkpt><trkpt lat="45.58063066554665" lon="10.81761956234583"><ele>131.66666666666666</ele><time>2026-04-01T07:21:01.999Z</time></trkpt><trkpt lat="45.58071469208548" lon="10.81766977777505"><ele>131.5</ele><time>2026-04-01T07:21:02.999Z</time></trkpt><trkpt lat="45.580786179357126" lon="10.817712135278548"><ele>131.33333333333331</ele><time>2026-04-01T07:21:03.999Z</time></trkpt><trkpt lat="45.580853311386385" lon="10.817752994771638"><ele>131.16666666666666</ele><time>2026-04-01T07:21:04.999Z</time></trkpt><trkpt lat="45.58092179189178" lon="10.817795314214985"><ele>131.0</ele><time>2026-04-01T07:21:05.999Z</time></trkpt><trkpt lat="45.58098500457316" lon="10.817829004065638"><ele>130.5</ele><time>2026-04-01T07:21:06.999Z</time></trkpt><trkpt lat="45.58109074523464" lon="10.817884657290882"><ele>130.0</ele><time>2026-04-01T07:21:08.999Z</time></trkpt><trkpt lat="45.581228817871086" lon="10.817959304823283"><ele>129.5</ele><time>2026-04-01T07:21:10.999Z</time></trkpt><trkpt lat="45.58129664911668" lon="10.81799864304717"><ele>129.0</ele><time>2026-04-01T07:21:11.999Z</time></trkpt><trkpt lat="45.58142000984881" lon="10.81805718559099"><ele>129.0</ele><time>2026-04-01T07:21:13.999Z</time></trkpt><trkpt lat="45.58148828753718" lon="10.81812596774548"><ele>129.0</ele><time>2026-04-01T07:21:14.999Z</time></trkpt><trkpt lat="45.581562680614944" lon="10.818187722849808"><ele>129.0</ele><time>2026-04-01T07:21:15.999Z</time></trkpt><trkpt lat="45.581638224421866" lon="10.818255039020565"><ele>129.0</ele><time>2026-04-01T07:21:16.999Z</time></trkpt><trkpt lat="45.581712009673886" lon="10.818294930012165"><ele>129.0</ele><time>2026-04-01T07:21:17.999Z</time></trkpt><trkpt lat="45.58176644165141" lon="10.818377910916206"><ele>129.0</ele><time>2026-04-01T07:21:18.999Z</time></trkpt><trkpt lat="45.581819924171356" lon="10.81843676277983"><ele>128.16666666666666</ele><time>2026-04-01T07:21:19.999Z</time></trkpt><trkpt lat="45.58188626904324" lon="10.818502861857457"><ele>127.33333333333334</ele><time>2026-04-01T07:21:21.999Z</time></trkpt><trkpt lat="45.5819075300656" lon="10.81862238469706"><ele>126.5</ele><time>2026-04-01T07:21:24.999Z</time></trkpt><trkpt lat="45.58196616923407" lon="10.818674116872046"><ele>125.66666666666667</ele><time>2026-04-01T07:21:26.999Z</time></trkpt><trkpt lat="45.5820080972724" lon="10.818784624700184"><ele>124.83333333333334</ele><time>2026-04-01T07:21:28.999Z</time></trkpt><trkpt lat="45.58206250948903" lon="10.818855547371081"><ele>124.0</ele><time>2026-04-01T07:21:30.999Z</time></trkpt><trkpt lat="45.58210188627634" lon="10.818936153814626"><ele>125.33333333333334</ele><time>2026-04-01T07:21:32.999Z</time></trkpt><trkpt lat="45.58216446093002" lon="10.818981791805552"><ele>126.66666666666667</ele><time>2026-04-01T07:22:08.999Z</time></trkpt><trkpt lat="45.58217680107929" lon="10.819089286399882"><ele>128.0</ele><time>2026-04-01T07:22:09.999Z</time></trkpt><trkpt lat="45.582191642819694" lon="10.819227398979821"><ele>129.33333333333334</ele><time>2026-04-01T07:22:10.999Z</time></trkpt><trkpt lat="45.58220633589389" lon="10.819362028504445"><ele>130.66666666666666</ele><time>2026-04-01T07:22:11.999Z</time></trkpt><trkpt lat="45.58221360337501" lon="10.819487694176232"><ele>132.0</ele><time>2026-04-01T07:22:12.999Z</time></trkpt><trkpt lat="45.58222072974361" lon="10.819616367545217"><ele>132.0</ele><time>2026-04-01T07:22:14Z</time></trkpt><trkpt lat="45.582223818589895" lon="10.819727555331902"><ele>132.0</ele><time>2026-04-01T07:22:15Z</time></trkpt><trkpt lat="45.58224246452486" lon="10.819830716296623"><ele>132.0</ele><time>2026-04-01T07:22:16Z</time></trkpt><trkpt lat="45.582310692311644" lon="10.819926362489722"><ele>132.0</ele><time>2026-04-01T07:22:18Z</time></trkpt><trkpt lat="45.58243263175081" lon="10.819935211454295"><ele>132.0</ele><time>2026-04-01T07:22:20Z</time></trkpt><trkpt lat="45.58249715402679" lon="10.819897131682714"><ele>132.0</ele><time>2026-04-01T07:22:21Z</time></trkpt><trkpt lat="45.58256144391282" lon="10.819901740326282"><ele>132.0</ele><time>2026-04-01T07:22:22Z</time></trkpt><trkpt lat="45.58270231728442" lon="10.819886708377252"><ele>132.0</ele><time>2026-04-01T07:22:24Z</time></trkpt><trkpt lat="45.58274844568795" lon="10.820018989877827"><ele>132.0</ele><time>2026-04-01T07:22:26Z</time></trkpt><trkpt lat="45.58274154036782" lon="10.820121375014335"><ele>132.0</ele><time>2026-04-01T07:22:27Z</time></trkpt><trkpt lat="45.5826731114679" lon="10.820186833530308"><ele>132.0</ele><time>2026-04-01T07:22:28Z</time></trkpt><trkpt lat="45.5826969595034" lon="10.82029035880147"><ele>131.79999999999998</ele><time>2026-04-01T07:22:29Z</time></trkpt><trkpt lat="45.582723314188534" lon="10.820391869635515"><ele>131.6</ele><time>2026-04-01T07:22:30Z</time></trkpt><trkpt lat="45.58276392651386" lon="10.820533100770543"><ele>131.39999999999998</ele><time>2026-04-01T07:22:31Z</time></trkpt><trkpt lat="45.58279710264332" lon="10.820633353907203"><ele>131.2</ele><time>2026-04-01T07:22:32Z</time></trkpt><trkpt lat="45.58283445835475" lon="10.820735757251459"><ele>131.0</ele><time>2026-04-01T07:22:34Z</time></trkpt><trkpt lat="45.58285148889491" lon="10.820536476505735"><ele>131.8</ele><time>2026-04-01T07:22:35Z</time></trkpt><trkpt lat="45.58296454890913" lon="10.820615370738313"><ele>132.6</ele><time>2026-04-01T07:22:40Z</time></trkpt><trkpt lat="45.58291263108721" lon="10.820530749802991"><ele>133.4</ele><time>2026-04-01T07:22:42Z</time></trkpt><trkpt lat="45.58290791751827" lon="10.820398061798837"><ele>134.2</ele><time>2026-04-01T07:22:44Z</time></trkpt><trkpt lat="45.58295133407711" lon="10.820249933513196"><ele>135.0</ele><time>2026-04-01T07:22:46Z</time></trkpt><trkpt lat="45.58299005628597" lon="10.820178888646744"><ele>136.0</ele><time>2026-04-01T07:22:47Z</time></trkpt><trkpt lat="45.583059882015256" lon="10.820100310050513"><ele>137.0</ele><time>2026-04-01T07:22:48Z</time></trkpt><trkpt lat="45.58313861830625" lon="10.819985435380996"><ele>138.0</ele><time>2026-04-01T07:22:49Z</time></trkpt><trkpt lat="45.58321502654808" lon="10.819844082264765"><ele>139.0</ele><time>2026-04-01T07:22:50Z</time></trkpt><trkpt lat="45.58328123209159" lon="10.819690007879174"><ele>139.0</ele><time>2026-04-01T07:22:51Z</time></trkpt><trkpt lat="45.58331286236573" lon="10.819528382322337"><ele>139.0</ele><time>2026-04-01T07:22:52Z</time></trkpt><trkpt lat="45.583331004363956" lon="10.819345041133346"><ele>139.0</ele><time>2026-04-01T07:22:53Z</time></trkpt><trkpt lat="45.58332269858243" lon="10.819161930912669"><ele>139.0</ele><time>2026-04-01T07:22:54Z</time></trkpt><trkpt lat="45.58329875044188" lon="10.818990965968254"><ele>140.16666666666669</ele><time>2026-04-01T07:22:55Z</time></trkpt><trkpt lat="45.58327195687537" lon="10.818849997425676"><ele>141.33333333333334</ele><time>2026-04-01T07:22:56Z</time></trkpt><trkpt lat="45.5832593529323" lon="10.818723049024369"><ele>142.5</ele><time>2026-04-01T07:22:57Z</time></trkpt><trkpt lat="45.58328226370994" lon="10.818620604422136"><ele>143.66666666666666</ele><time>2026-04-01T07:22:58Z</time></trkpt><trkpt lat="45.58333625393004" lon="10.818549330259524"><ele>144.83333333333331</ele><time>2026-04-01T07:22:59Z</time></trkpt><trkpt lat="45.583416236245284" lon="10.81853090090601"><ele>146.0</ele><time>2026-04-01T07:23:00Z</time></trkpt><trkpt lat="45.58350440432324" lon="10.818574959226622"><ele>146.0</ele><time>2026-04-01T07:23:01Z</time></trkpt><trkpt lat="45.583567718928165" lon="10.818672335828182"><ele>146.0</ele><time>2026-04-01T07:23:01.999Z</time></trkpt><trkpt lat="45.5835918779558" lon="10.818807128410384"><ele>146.0</ele><time>2026-04-01T07:23:02.999Z</time></trkpt><trkpt lat="45.58360980463775" lon="10.818950011735422"><ele>146.0</ele><time>2026-04-01T07:23:03.999Z</time></trkpt><trkpt lat="45.58362666951221" lon="10.819094255524835"><ele>146.0</ele><time>2026-04-01T07:23:04.999Z</time></trkpt><trkpt lat="45.583642116429026" lon="10.819232105585986"><ele>144.6</ele><time>2026-04-01T07:23:05.999Z</time></trkpt><trkpt lat="45.58365813885008" lon="10.819362968692603"><ele>143.2</ele><time>2026-04-01T07:23:06.999Z</time></trkpt><trkpt lat="45.583681722214365" lon="10.819494304494224"><ele>141.8</ele><time>2026-04-01T07:23:07.999Z</time></trkpt><trkpt lat="45.583712633319365" lon="10.81963143485369"><ele>140.4</ele><time>2026-04-01T07:23:08.999Z</time></trkpt><trkpt lat="45.58375388140216" lon="10.819765999911104"><ele>139.0</ele><time>2026-04-01T07:23:09.999Z</time></trkpt><trkpt lat="45.58381602046101" lon="10.819903559084324"><ele>140.66666666666669</ele><time>2026-04-01T07:23:10.999Z</time></trkpt><trkpt lat="45.583875456517546" lon="10.82001260733567"><ele>142.33333333333334</ele><time>2026-04-01T07:23:11.999Z</time></trkpt><trkpt lat="45.58392874430188" lon="10.820114869329007"><ele>144.0</ele><time>2026-04-01T07:23:12.999Z</time></trkpt><trkpt lat="45.58397074029369" lon="10.820207348537716"><ele>145.66666666666666</ele><time>2026-04-01T07:23:13.999Z</time></trkpt><trkpt lat="45.58401042912448" lon="10.820277569436238"><ele>147.33333333333331</ele><time>2026-04-01T07:23:14.999Z</time></trkpt><trkpt lat="45.584063664427816" lon="10.82033914848287"><ele>149.0</ele><time>2026-04-01T07:23:15.999Z</time></trkpt><trkpt lat="45.58415152295863" lon="10.820422656817144"><ele>149.0</ele><time>2026-04-01T07:23:17.999Z</time></trkpt><trkpt lat="45.58422188499046" lon="10.82046147561237"><ele>149.0</ele><time>2026-04-01T07:23:26.999Z</time></trkpt><trkpt lat="45.58427631453531" lon="10.82076864783185"><ele>149.0</ele><time>2026-04-01T07:23:30.999Z</time></trkpt><trkpt lat="45.58434590595571" lon="10.820945462149778"><ele>149.0</ele><time>2026-04-01T07:23:38.999Z</time></trkpt><trkpt lat="45.58439670176959" lon="10.821025054940712"><ele>146.8</ele><time>2026-04-01T07:23:39.999Z</time></trkpt><trkpt lat="45.58449966609078" lon="10.821110601428568"><ele>144.60000000000002</ele><time>2026-04-01T07:23:41.999Z</time></trkpt><trkpt lat="45.58462566708446" lon="10.821114547340782"><ele>142.4</ele><time>2026-04-01T07:23:43.999Z</time></trkpt><trkpt lat="45.58471590485941" lon="10.821090990651955"><ele>140.20000000000002</ele><time>2026-04-01T07:23:44.999Z</time></trkpt><trkpt lat="45.58480186994587" lon="10.821084468170628"><ele>138.0</ele><time>2026-04-01T07:23:45.999Z</time></trkpt><trkpt lat="45.58488084951124" lon="10.821103914022778"><ele>142.0</ele><time>2026-04-01T07:23:46.999Z</time></trkpt><trkpt lat="45.584946768208084" lon="10.821112750616816"><ele>146.0</ele><time>2026-04-01T07:23:47.999Z</time></trkpt><trkpt lat="45.58502293178376" lon="10.821104189580318"><ele>150.0</ele><time>2026-04-01T07:23:49.999Z</time></trkpt><trkpt lat="45.58507339559293" lon="10.821045581566159"><ele>154.0</ele><time>2026-04-01T07:23:51.999Z</time></trkpt><trkpt lat="45.585127805077" lon="10.820957827372949"><ele>158.0</ele><time>2026-04-01T07:23:53.999Z</time></trkpt><trkpt lat="45.585185142925276" lon="10.82090620348587"><ele>162.0</ele><time>2026-04-01T07:23:55.999Z</time></trkpt><trkpt lat="45.58532739932875" lon="10.820808046033674"><ele>165.5</ele><time>2026-04-01T07:24:27Z</time></trkpt><trkpt lat="45.58542040754649" lon="10.820735795987652"><ele>169.0</ele><time>2026-04-01T07:24:29Z</time></trkpt><trkpt lat="45.58548499897448" lon="10.820696636088034"><ele>172.5</ele><time>2026-04-01T07:24:37Z</time></trkpt><trkpt lat="45.58557320668692" lon="10.820676359401906"><ele>176.0</ele><time>2026-04-01T07:24:40Z</time></trkpt><trkpt lat="45.58562614597137" lon="10.820730415419998"><ele>179.5</ele><time>2026-04-01T07:24:47Z</time></trkpt><trkpt lat="45.58569012618401" lon="10.820715243138519"><ele>183.0</ele><time>2026-04-01T07:24:50Z</time></trkpt><trkpt lat="45.585759514105206" lon="10.820717276582101"><ele>183.0</ele><time>2026-04-01T07:24:55Z</time></trkpt><trkpt lat="45.58583759798698" lon="10.820837795880248"><ele>183.0</ele><time>2026-04-01T07:24:57Z</time></trkpt><trkpt lat="45.58589956791634" lon="10.820925035000409"><ele>183.0</ele><time>2026-04-01T07:24:59Z</time></trkpt><trkpt lat="45.585944214301776" lon="10.821023538900834"><ele>183.0</ele><time>2026-04-01T07:25:03Z</time></trkpt><trkpt lat="45.58597932019056" lon="10.821122569183487"><ele>183.0</ele><time>2026-04-01T07:25:08.999Z</time></trkpt><trkpt lat="45.586031147492115" lon="10.821175604703386"><ele>183.0</ele><time>2026-04-01T07:25:13.999Z</time></trkpt><trkpt lat="45.58609888392607" lon="10.82113306345393"><ele>184.33333333333334</ele><time>2026-04-01T07:25:17.999Z</time></trkpt><trkpt lat="45.58615867783616" lon="10.821065657579028"><ele>185.66666666666666</ele><time>2026-04-01T07:25:20.999Z</time></trkpt><trkpt lat="45.586222483612325" lon="10.820991423461628"><ele>187.0</ele><time>2026-04-01T07:25:22.999Z</time></trkpt><trkpt lat="45.58628896122974" lon="10.820905374037068"><ele>188.33333333333331</ele><time>2026-04-01T07:25:24.999Z</time></trkpt><trkpt lat="45.586348863848414" lon="10.820951432165671"><ele>189.66666666666666</ele><time>2026-04-01T07:28:53Z</time></trkpt><trkpt lat="45.58632465130917" lon="10.821073215956087"><ele>191.0</ele><time>2026-04-01T07:28:55Z</time></trkpt><trkpt lat="45.58633583334246" lon="10.821166330294561"><ele>193.57142857142858</ele><time>2026-04-01T07:28:57Z</time></trkpt><trkpt lat="45.58627900417904" lon="10.821235378158308"><ele>196.14285714285714</ele><time>2026-04-01T07:29:10Z</time></trkpt><trkpt lat="45.58624331483916" lon="10.8213516141495"><ele>198.71428571428572</ele><time>2026-04-01T07:29:13Z</time></trkpt><trkpt lat="45.58623771896643" lon="10.821446230214441"><ele>201.28571428571428</ele><time>2026-04-01T07:29:15Z</time></trkpt><trkpt lat="45.5863045262975" lon="10.821460425076015"><ele>203.85714285714283</ele><time>2026-04-01T07:29:24Z</time></trkpt><trkpt lat="45.58634291562432" lon="10.821388992289132"><ele>206.42857142857142</ele><time>2026-04-01T07:29:27.999Z</time></trkpt><trkpt lat="45.586357697315414" lon="10.821301203751041"><ele>209.0</ele><time>2026-04-01T07:29:32.999Z</time></trkpt><trkpt lat="45.58642068743987" lon="10.821328526660572"><ele>209.00000000000003</ele><time>2026-04-01T07:29:39.999Z</time></trkpt><trkpt lat="45.5864847568979" lon="10.821288383276324"><ele>209.0</ele><time>2026-04-01T07:29:45.999Z</time></trkpt><trkpt lat="45.586564628507645" lon="10.821327914635559"><ele>209.0</ele><time>2026-04-01T07:29:49.999Z</time></trkpt><trkpt lat="45.586617609367885" lon="10.82138628272461"><ele>209.0</ele><time>2026-04-01T07:29:52.999Z</time></trkpt><trkpt lat="45.58665098924563" lon="10.821475466815366"><ele>209.00000000000003</ele><time>2026-04-01T07:29:54.999Z</time></trkpt><trkpt lat="45.5866016880378" lon="10.821570006782414"><ele>209.0</ele><time>2026-04-01T07:29:56.999Z</time></trkpt><trkpt lat="45.586586673092484" lon="10.821744080262189"><ele>209.00000000000003</ele><time>2026-04-01T07:29:59.999Z</time></trkpt><trkpt lat="45.58651620371304" lon="10.82174098905829"><ele>209.0</ele><time>2026-04-01T07:30:01.999Z</time></trkpt><trkpt lat="45.58642305077467" lon="10.821770691304268"><ele>209.0</ele><time>2026-04-01T07:30:03.999Z</time></trkpt><trkpt lat="45.586353629864256" lon="10.821801738944021"><ele>209.0</ele><time>2026-04-01T07:30:04.999Z</time></trkpt><trkpt lat="45.58628056466135" lon="10.821926474883508"><ele>209.00000000000003</ele><time>2026-04-01T07:30:06.999Z</time></trkpt><trkpt lat="45.586299323917345" lon="10.822055700128498"><ele>209.0</ele><time>2026-04-01T07:30:09.999Z</time></trkpt><trkpt lat="45.58636827812073" lon="10.822078195119774"><ele>212.33333333333334</ele><time>2026-04-01T07:30:10.999Z</time></trkpt><trkpt lat="45.58645196200178" lon="10.822051293346707"><ele>215.66666666666669</ele><time>2026-04-01T07:30:12.999Z</time></trkpt><trkpt lat="45.586513808537866" lon="10.822011689590362"><ele>219.0</ele><time>2026-04-01T07:30:14.999Z</time></trkpt><trkpt lat="45.586573352906946" lon="10.822072283718718"><ele>222.33333333333331</ele><time>2026-04-01T07:30:16.999Z</time></trkpt><trkpt lat="45.58663877020263" lon="10.822107049733166"><ele>225.66666666666666</ele><time>2026-04-01T07:30:18.999Z</time></trkpt><trkpt lat="45.586579168244036" lon="10.822225913921887"><ele>229.0</ele><time>2026-04-01T07:30:21.999Z</time></trkpt><trkpt lat="45.586509697033264" lon="10.822224062114056"><ele>228.99999999999997</ele><time>2026-04-01T07:30:22.999Z</time></trkpt><trkpt lat="45.586491116633" lon="10.822341984143728"><ele>229.0</ele><time>2026-04-01T07:30:25.999Z</time></trkpt><trkpt lat="45.58647539190221" lon="10.82243159508223"><ele>229.0</ele><time>2026-04-01T07:30:27.999Z</time></trkpt><trkpt lat="45.586556804486804" lon="10.822530674857646"><ele>229.0</ele><time>2026-04-01T07:30:30.999Z</time></trkpt><trkpt lat="45.586637084857074" lon="10.822597316051857"><ele>228.99999999999997</ele><time>2026-04-01T07:30:32.999Z</time></trkpt><trkpt lat="45.586719728875934" lon="10.82267286240011"><ele>229.0</ele><time>2026-04-01T07:30:34.999Z</time></trkpt><trkpt lat="45.58680843923424" lon="10.822745052156177"><ele>233.16666666666666</ele><time>2026-04-01T07:30:36.999Z</time></trkpt><trkpt lat="45.5869203753307" lon="10.822814787195098"><ele>237.33333333333331</ele><time>2026-04-01T07:30:39Z</time></trkpt><trkpt lat="45.58700476143669" lon="10.822774921667213"><ele>241.5</ele><time>2026-04-01T07:30:41Z</time></trkpt><trkpt lat="45.587044752060194" lon="10.822849687589917"><ele>245.66666666666669</ele><time>2026-04-01T07:30:43Z</time></trkpt><trkpt lat="45.58696865030006" lon="10.82291296030505"><ele>249.83333333333334</ele><time>2026-04-01T07:30:45Z</time></trkpt><trkpt lat="45.58690208325537" lon="10.822905936103117"><ele>254.0</ele><time>2026-04-01T07:30:46Z</time></trkpt><trkpt lat="45.586820544054" lon="10.822890216224371"><ele>254.00000000000003</ele><time>2026-04-01T07:30:47Z</time></trkpt><trkpt lat="45.586730221330875" lon="10.822876409769115"><ele>254.0</ele><time>2026-04-01T07:30:48Z</time></trkpt><trkpt lat="45.5866294297531" lon="10.82287114193576"><ele>254.0</ele><time>2026-04-01T07:30:49Z</time></trkpt><trkpt lat="45.58656287624349" lon="10.822866116461077"><ele>254.0</ele><time>2026-04-01T07:30:50Z</time></trkpt><trkpt lat="45.58649825346084" lon="10.822850329393908"><ele>254.00000000000003</ele><time>2026-04-01T07:30:52Z</time></trkpt><trkpt lat="45.58642871111092" lon="10.822863443569638"><ele>254.0</ele><time>2026-04-01T07:30:55Z</time></trkpt><trkpt lat="45.58636903584524" lon="10.822933812247408"><ele>254.00000000000003</ele><time>2026-04-01T07:31:03Z</time></trkpt><trkpt lat="45.58636175533166" lon="10.82306472165998"><ele>254.0</ele><time>2026-04-01T07:31:05Z</time></trkpt><trkpt lat="45.586368437738756" lon="10.823157337658802"><ele>254.0</ele><time>2026-04-01T07:31:07Z</time></trkpt><trkpt lat="45.58639664548614" lon="10.823243474446532"><ele>254.0</ele><time>2026-04-01T07:31:09Z</time></trkpt><trkpt lat="45.58640537698626" lon="10.823339311680598"><ele>254.00000000000003</ele><time>2026-04-01T07:31:15Z</time></trkpt><trkpt lat="45.58634862124978" lon="10.823410328226919"><ele>254.0</ele><time>2026-04-01T07:31:18Z</time></trkpt><trkpt lat="45.58636794404419" lon="10.823528177456847"><ele>256.8571428571429</ele><time>2026-04-01T07:31:21Z</time></trkpt><trkpt lat="45.586392674658526" lon="10.823623075818395"><ele>259.7142857142857</ele><time>2026-04-01T07:31:26.999Z</time></trkpt><trkpt lat="45.58634389459133" lon="10.823696145568437"><ele>262.57142857142856</ele><time>2026-04-01T07:31:31.999Z</time></trkpt><trkpt lat="45.58633751227868" lon="10.8238025036793"><ele>265.42857142857144</ele><time>2026-04-01T07:31:34.999Z</time></trkpt><trkpt lat="45.5863259287788" lon="10.823902218011"><ele>268.2857142857143</ele><time>2026-04-01T07:31:36.999Z</time></trkpt><trkpt lat="45.58634392901531" lon="10.82400048854542"><ele>271.14285714285717</ele><time>2026-04-01T07:31:39.999Z</time></trkpt><trkpt lat="45.586385750527036" lon="10.824071053071945"><ele>274.0</ele><time>2026-04-01T07:31:41.999Z</time></trkpt><trkpt lat="45.58645871191157" lon="10.82411263762566"><ele>274.0</ele><time>2026-04-01T07:31:44.999Z</time></trkpt><trkpt lat="45.58652219407155" lon="10.824135678159866"><ele>274.0</ele><time>2026-04-01T07:31:46.999Z</time></trkpt><trkpt lat="45.586608811509095" lon="10.824166262781093"><ele>274.0</ele><time>2026-04-01T07:31:48.999Z</time></trkpt><trkpt lat="45.586684997269614" lon="10.824149152029777"><ele>274.0</ele><time>2026-04-01T07:31:50.999Z</time></trkpt><trkpt lat="45.586792864351864" lon="10.824126805095055"><ele>274.0</ele><time>2026-04-01T07:31:52.999Z</time></trkpt><trkpt lat="45.58687706565017" lon="10.824132265568254"><ele>274.0</ele><time>2026-04-01T07:31:54.999Z</time></trkpt><trkpt lat="45.58688755615564" lon="10.824251484595026"><ele>277.2</ele><time>2026-04-01T07:32:04.999Z</time></trkpt><trkpt lat="45.58680855900538" lon="10.824381275630444"><ele>280.4</ele><time>2026-04-01T07:32:06.999Z</time></trkpt><trkpt lat="45.58673975091621" lon="10.824435255145476"><ele>283.6</ele><time>2026-04-01T07:32:07.999Z</time></trkpt><trkpt lat="45.58667661332779" lon="10.824458579553"><ele>286.8</ele><time>2026-04-01T07:32:08.999Z</time></trkpt><trkpt lat="45.5865549257762" lon="10.824416766077931"><ele>290.0</ele><time>2026-04-01T07:32:10.999Z</time></trkpt><trkpt lat="45.58647724266871" lon="10.82450245712923"><ele>290.0</ele><time>2026-04-01T07:32:12.999Z</time></trkpt><trkpt lat="45.58646199850443" lon="10.824617428261393"><ele>290.0</ele><time>2026-04-01T07:32:14.999Z</time></trkpt><trkpt lat="45.5865323296637" lon="10.824708877261996"><ele>290.0</ele><time>2026-04-01T07:32:17.999Z</time></trkpt><trkpt lat="45.586632084609654" lon="10.824753808887841"><ele>290.0</ele><time>2026-04-01T07:32:19.999Z</time></trkpt><trkpt lat="45.58672336648671" lon="10.824715674677382"><ele>290.0</ele><time>2026-04-01T07:32:21.999Z</time></trkpt><trkpt lat="45.586806592224214" lon="10.824597908380165"><ele>290.0</ele><time>2026-04-01T07:32:23.999Z</time></trkpt><trkpt lat="45.58686641872797" lon="10.82453239605077"><ele>290.0</ele><time>2026-04-01T07:32:24.999Z</time></trkpt><trkpt lat="45.586918018865624" lon="10.824468784474512"><ele>290.0</ele><time>2026-04-01T07:32:25.999Z</time></trkpt><trkpt lat="45.58696280976702" lon="10.824373731371157"><ele>290.0</ele><time>2026-04-01T07:32:26.999Z</time></trkpt><trkpt lat="45.587003044021" lon="10.824280158382763"><ele>290.0</ele><time>2026-04-01T07:32:27.999Z</time></trkpt><trkpt lat="45.58705423765448" lon="10.824192313734454"><ele>290.0</ele><time>2026-04-01T07:32:28.999Z</time></trkpt><trkpt lat="45.58711438398713" lon="10.824127189492359"><ele>292.0</ele><time>2026-04-01T07:32:29.999Z</time></trkpt><trkpt lat="45.58716239637135" lon="10.824060289186818"><ele>294.0</ele><time>2026-04-01T07:32:30.999Z</time></trkpt><trkpt lat="45.587268334067794" lon="10.824008318820793"><ele>296.0</ele><time>2026-04-01T07:32:32.999Z</time></trkpt><trkpt lat="45.5873473025786" lon="10.823979455295929"><ele>298.0</ele><time>2026-04-01T07:32:33.999Z</time></trkpt><trkpt lat="45.58742173986848" lon="10.823943441660358"><ele>300.0</ele><time>2026-04-01T07:32:34.999Z</time></trkpt><trkpt lat="45.58750241980393" lon="10.823897524798088"><ele>302.0</ele><time>2026-04-01T07:32:35.999Z</time></trkpt><trkpt lat="45.5875901502853" lon="10.823866949298223"><ele>302.0</ele><time>2026-04-01T07:32:36.999Z</time></trkpt><trkpt lat="45.58765836668551" lon="10.823860095300189"><ele>302.0</ele><time>2026-04-01T07:32:37.999Z</time></trkpt><trkpt lat="45.58772703863956" lon="10.823844075802766"><ele>302.0</ele><time>2026-04-01T07:32:38.998Z</time></trkpt><trkpt lat="45.5878065009422" lon="10.823815385690468"><ele>302.0</ele><time>2026-04-01T07:32:39.998Z</time></trkpt><trkpt lat="45.58787030028101" lon="10.823845272810418"><ele>302.0</ele><time>2026-04-01T07:32:41.998Z</time></trkpt><trkpt lat="45.587827986352266" lon="10.823914811743446"><ele>302.0</ele><time>2026-04-01T07:32:44Z</time></trkpt><trkpt lat="45.5877242821317" lon="10.823943439361676"><ele>302.0</ele><time>2026-04-01T07:32:46Z</time></trkpt><trkpt lat="45.58763500129189" lon="10.824047742782707"><ele>302.0</ele><time>2026-04-01T07:32:53Z</time></trkpt><trkpt lat="45.587557335762575" lon="10.824105298178095"><ele>302.0</ele><time>2026-04-01T07:32:55Z</time></trkpt><trkpt lat="45.58747750041026" lon="10.824138349132461"><ele>302.0</ele><time>2026-04-01T07:32:57Z</time></trkpt><trkpt lat="45.587421110745474" lon="10.824190977866996"><ele>302.0</ele><time>2026-04-01T07:33:00Z</time></trkpt><trkpt lat="45.58738188884017" lon="10.824285262912369"><ele>302.0</ele><time>2026-04-01T07:33:02Z</time></trkpt><trkpt lat="45.58734840796872" lon="10.824393087975245"><ele>305.00000000000006</ele><time>2026-04-01T07:33:07Z</time></trkpt><trkpt lat="45.587366739881574" lon="10.824505111451646"><ele>308.0</ele><time>2026-04-01T07:33:11Z</time></trkpt><trkpt lat="45.587362279169824" lon="10.824600917570763"><ele>311.0</ele><time>2026-04-01T07:33:13Z</time></trkpt><trkpt lat="45.587370076159644" lon="10.824712879790969"><ele>314.0</ele><time>2026-04-01T07:33:16Z</time></trkpt><trkpt lat="45.587357608372535" lon="10.824810441126331"><ele>317.0</ele><time>2026-04-01T07:33:20Z</time></trkpt><trkpt lat="45.58741614765031" lon="10.82487374752721"><ele>320.00000000000006</ele><time>2026-04-01T07:33:25Z</time></trkpt><trkpt lat="45.58739333890487" lon="10.824958433374183"><ele>323.0</ele><time>2026-04-01T07:33:29Z</time></trkpt><trkpt lat="45.58733495626392" lon="10.825046346235109"><ele>323.0</ele><time>2026-04-01T07:33:31Z</time></trkpt><trkpt lat="45.587284139968986" lon="10.825166664782781"><ele>323.0</ele><time>2026-04-01T07:33:32.999Z</time></trkpt><trkpt lat="45.58726641669082" lon="10.8252902940734"><ele>323.0</ele><time>2026-04-01T07:33:34.999Z</time></trkpt><trkpt lat="45.587350170831165" lon="10.825262111809375"><ele>323.0</ele><time>2026-04-01T07:33:37.999Z</time></trkpt><trkpt lat="45.587403741532846" lon="10.825136700518293"><ele>323.0</ele><time>2026-04-01T07:33:39.999Z</time></trkpt><trkpt lat="45.587462921795876" lon="10.825092067818924"><ele>323.0</ele><time>2026-04-01T07:33:41.999Z</time></trkpt><trkpt lat="45.58753105527397" lon="10.825095722487113"><ele>323.0</ele><time>2026-04-01T07:33:45.999Z</time></trkpt><trkpt lat="45.58765241633609" lon="10.825069887796051"><ele>323.0</ele><time>2026-04-01T07:34:24.999Z</time></trkpt><trkpt lat="45.58771953034864" lon="10.825069411339186"><ele>323.0</ele><time>2026-04-01T07:34:25.999Z</time></trkpt><trkpt lat="45.58779973652847" lon="10.825102751288153"><ele>323.0</ele><time>2026-04-01T07:34:26.999Z</time></trkpt><trkpt lat="45.58787591467977" lon="10.825137671853303"><ele>323.0</ele><time>2026-04-01T07:34:27.999Z</time></trkpt><trkpt lat="45.58795093287463" lon="10.825188962695629"><ele>323.0</ele><time>2026-04-01T07:34:28.999Z</time></trkpt><trkpt lat="45.58803453190339" lon="10.8252411699955"><ele>327.59999999999997</ele><time>2026-04-01T07:34:29.999Z</time></trkpt><trkpt lat="45.58813879189595" lon="10.825300166552015"><ele>332.2</ele><time>2026-04-01T07:34:30.999Z</time></trkpt><trkpt lat="45.58823103586395" lon="10.825354222141"><ele>336.8</ele><time>2026-04-01T07:34:31.999Z</time></trkpt><trkpt lat="45.588305065782436" lon="10.82539603310347"><ele>341.4</ele><time>2026-04-01T07:34:32.999Z</time></trkpt><trkpt lat="45.58838141793307" lon="10.82544499444079"><ele>346.0</ele><time>2026-04-01T07:34:34.999Z</time></trkpt><trkpt lat="45.58833793555219" lon="10.825534929720583"><ele>346.0</ele><time>2026-04-01T07:34:36.999Z</time></trkpt><trkpt lat="45.58827462350417" lon="10.825549647956755"><ele>346.0</ele><time>2026-04-01T07:34:37.999Z</time></trkpt><trkpt lat="45.58816252924158" lon="10.825501826037012"><ele>346.0</ele><time>2026-04-01T07:34:39.999Z</time></trkpt><trkpt lat="45.58821358398851" lon="10.825639067070304"><ele>346.0</ele><time>2026-04-01T07:34:44.998Z</time></trkpt><trkpt lat="45.58828964754527" lon="10.825658746924946"><ele>346.0</ele><time>2026-04-01T07:34:45.998Z</time></trkpt><trkpt lat="45.588357187245066" lon="10.825668818390135"><ele>346.0</ele><time>2026-04-01T07:34:46.998Z</time></trkpt><trkpt lat="45.588422210830636" lon="10.825687113001376"><ele>346.0</ele><time>2026-04-01T07:34:48.998Z</time></trkpt><trkpt lat="45.58837133978439" lon="10.825782774933973"><ele>346.0</ele><time>2026-04-01T07:34:51Z</time></trkpt><trkpt lat="45.58825694193317" lon="10.82576875985749"><ele>346.0</ele><time>2026-04-01T07:34:53Z</time></trkpt><trkpt lat="45.58818538608186" lon="10.825750486831641"><ele>346.0</ele><time>2026-04-01T07:34:54Z</time></trkpt><trkpt lat="45.58812260611252" lon="10.825727925102681"><ele>346.0</ele><time>2026-04-01T07:34:55Z</time></trkpt><trkpt lat="45.58814854899173" lon="10.825841034209487"><ele>346.0</ele><time>2026-04-01T07:34:59Z</time></trkpt><trkpt lat="45.58825576222893" lon="10.825881248186498"><ele>346.0</ele><time>2026-04-01T07:35:01Z</time></trkpt><trkpt lat="45.58834579163423" lon="10.825910611330219"><ele>346.0</ele><time>2026-04-01T07:35:03Z</time></trkpt><trkpt lat="45.588278164212994" lon="10.825982070971632"><ele>346.0</ele><time>2026-04-01T07:35:06Z</time></trkpt><trkpt lat="45.58815663044896" lon="10.825962676192937"><ele>346.0</ele><time>2026-04-01T07:35:08Z</time></trkpt><trkpt lat="45.58808923396679" lon="10.82597019831992"><ele>346.0</ele><time>2026-04-01T07:35:09Z</time></trkpt><trkpt lat="45.58810363376019" lon="10.82607614653896"><ele>346.0</ele><time>2026-04-01T07:35:13Z</time></trkpt><trkpt lat="45.58820325034747" lon="10.826109068076937"><ele>348.6</ele><time>2026-04-01T07:35:15Z</time></trkpt><trkpt lat="45.58833144382468" lon="10.826134132248423"><ele>351.20000000000005</ele><time>2026-04-01T07:35:16Z</time></trkpt><trkpt lat="45.588314194013535" lon="10.826253067753589"><ele>353.79999999999995</ele><time>2026-04-01T07:35:19Z</time></trkpt><trkpt lat="45.588240185858346" lon="10.826235741559563"><ele>356.4</ele><time>2026-04-01T07:35:21Z</time></trkpt><trkpt lat="45.588134305815444" lon="10.826207222912785"><ele>359.0</ele><time>2026-04-01T07:35:23Z</time></trkpt><trkpt lat="45.58813934577964" lon="10.826315868434998"><ele>359.0</ele><time>2026-04-01T07:35:25Z</time></trkpt><trkpt lat="45.58823610364281" lon="10.826346097739068"><ele>359.0</ele><time>2026-04-01T07:35:27Z</time></trkpt><trkpt lat="45.588367013523296" lon="10.82635867025764"><ele>359.0</ele><time>2026-04-01T07:35:29Z</time></trkpt><trkpt lat="45.58839274418848" lon="10.82645648438107"><ele>359.0</ele><time>2026-04-01T07:35:32Z</time></trkpt><trkpt lat="45.58844591009786" lon="10.826566028412936"><ele>359.0</ele><time>2026-04-01T07:35:34Z</time></trkpt><trkpt lat="45.58846933607385" lon="10.826665151163029"><ele>359.0</ele><time>2026-04-01T07:35:37Z</time></trkpt><trkpt lat="45.588503670909134" lon="10.826770762247628"><ele>359.0</ele><time>2026-04-01T07:35:38.999Z</time></trkpt><trkpt lat="45.58847320779397" lon="10.826851274360063"><ele>359.0</ele><time>2026-04-01T07:35:41.999Z</time></trkpt><trkpt lat="45.58837117566546" lon="10.826763518929857"><ele>359.0</ele><time>2026-04-01T07:35:43.999Z</time></trkpt><trkpt lat="45.58831405083248" lon="10.826725221321636"><ele>359.0</ele><time>2026-04-01T07:35:44.999Z</time></trkpt><trkpt lat="45.58823618792626" lon="10.826805004702331"><ele>359.0</ele><time>2026-04-01T07:35:46.999Z</time></trkpt><trkpt lat="45.58823840669814" lon="10.826898346766223"><ele>356.0</ele><time>2026-04-01T07:35:47.999Z</time></trkpt><trkpt lat="45.58826653361833" lon="10.827015314021788"><ele>353.0</ele><time>2026-04-01T07:35:49.999Z</time></trkpt><trkpt lat="45.58839582166678" lon="10.827167602492953"><ele>350.0</ele><time>2026-04-01T07:35:50.999Z</time></trkpt><trkpt lat="45.58846628405994" lon="10.827216057571398"><ele>347.0</ele><time>2026-04-01T07:35:51.999Z</time></trkpt><trkpt lat="45.588571965807965" lon="10.827268028155347"><ele>344.0</ele><time>2026-04-01T07:35:52.999Z</time></trkpt><trkpt lat="45.588655941494366" lon="10.827269975732257"><ele>350.0</ele><time>2026-04-01T07:35:53.999Z</time></trkpt><trkpt lat="45.588749914880374" lon="10.827257202733318"><ele>356.0</ele><time>2026-04-01T07:35:54.999Z</time></trkpt><trkpt lat="45.58882682598022" lon="10.827284603943072"><ele>362.0</ele><time>2026-04-01T07:35:55.999Z</time></trkpt><trkpt lat="45.58890750078338" lon="10.827362987084708"><ele>368.0</ele><time>2026-04-01T07:35:56.999Z</time></trkpt><trkpt lat="45.588994376197896" lon="10.827438667811375"><ele>374.0</ele><time>2026-04-01T07:35:57.999Z</time></trkpt><trkpt lat="45.58908264601621" lon="10.827515385109459"><ele>374.0</ele><time>2026-04-01T07:35:58.999Z</time></trkpt><trkpt lat="45.589159321369436" lon="10.827585792621157"><ele>374.0</ele><time>2026-04-01T07:35:59.999Z</time></trkpt><trkpt lat="45.58924902333088" lon="10.827640968887238"><ele>374.0</ele><time>2026-04-01T07:36:00.999Z</time></trkpt><trkpt lat="45.58934734072482" lon="10.827681294863186"><ele>374.0</ele><time>2026-04-01T07:36:01.999Z</time></trkpt><trkpt lat="45.58948447658959" lon="10.827742154997411"><ele>374.0</ele><time>2026-04-01T07:36:02.999Z</time></trkpt><trkpt lat="45.589603226800385" lon="10.827799286982733"><ele>377.75</ele><time>2026-04-01T07:36:03.999Z</time></trkpt><trkpt lat="45.58972257683208" lon="10.827862343703314"><ele>381.5</ele><time>2026-04-01T07:36:04.999Z</time></trkpt><trkpt lat="45.589835229624235" lon="10.827923196449623"><ele>385.25</ele><time>2026-04-01T07:36:05.999Z</time></trkpt><trkpt lat="45.58995214479173" lon="10.827956163605496"><ele>389.0</ele><time>2026-04-01T07:36:06.999Z</time></trkpt><trkpt lat="45.59004202689682" lon="10.827993212938711"><ele>388.99999999999994</ele><time>2026-04-01T07:36:07.999Z</time></trkpt><trkpt lat="45.590126383080296" lon="10.828037219748564"><ele>389.0</ele><time>2026-04-01T07:36:08.999Z</time></trkpt><trkpt lat="45.590207617523966" lon="10.828044744784483"><ele>389.0</ele><time>2026-04-01T07:36:10.999Z</time></trkpt><trkpt lat="45.59030095771596" lon="10.82803670234221"><ele>389.0</ele><time>2026-04-01T07:36:15.999Z</time></trkpt><trkpt lat="45.59036909082034" lon="10.828051723357683"><ele>388.99999999999994</ele><time>2026-04-01T07:36:17.999Z</time></trkpt><trkpt lat="45.59041737710498" lon="10.827989726674978"><ele>389.0</ele><time>2026-04-01T07:36:23.999Z</time></trkpt><trkpt lat="45.59049644377816" lon="10.827982518825213"><ele>389.16666666666663</ele><time>2026-04-01T07:36:26.999Z</time></trkpt><trkpt lat="45.59054979093508" lon="10.827911079846208"><ele>389.3333333333333</ele><time>2026-04-01T07:36:31.999Z</time></trkpt><trkpt lat="45.59062448939963" lon="10.827876572072062"><ele>389.5</ele><time>2026-04-01T07:36:34.999Z</time></trkpt><trkpt lat="45.59068369354147" lon="10.827818589376442"><ele>389.66666666666663</ele><time>2026-04-01T07:36:37.999Z</time></trkpt><trkpt lat="45.590769020070056" lon="10.827773689416173"><ele>389.8333333333333</ele><time>2026-04-01T07:36:41.999Z</time></trkpt><trkpt lat="45.59082252350931" lon="10.827716295132445"><ele>390.0</ele><time>2026-04-01T07:36:45.999Z</time></trkpt><trkpt lat="45.5908192348319" lon="10.827610144782035"><ele>387.42857142857144</ele><time>2026-04-01T07:36:50.998Z</time></trkpt><trkpt lat="45.59082604232202" lon="10.827502400562295"><ele>384.85714285714283</ele><time>2026-04-01T07:36:56Z</time></trkpt><trkpt lat="45.5908103112225" lon="10.827393434398243"><ele>382.28571428571433</ele><time>2026-04-01T07:37:01Z</time></trkpt><trkpt lat="45.59083358230355" lon="10.827285911851936"><ele>379.7142857142857</ele><time>2026-04-01T07:37:07Z</time></trkpt><trkpt lat="45.59085629598502" lon="10.827191333965075"><ele>377.14285714285717</ele><time>2026-04-01T07:37:11Z</time></trkpt><trkpt lat="45.590884097433374" lon="10.827103807669424"><ele>374.5714285714286</ele><time>2026-04-01T07:37:15Z</time></trkpt><trkpt lat="45.590908693803804" lon="10.827010314290064"><ele>372.0</ele><time>2026-04-01T07:37:19Z</time></trkpt><trkpt lat="45.59094529526611" lon="10.826917616766377"><ele>372.0</ele><time>2026-04-01T07:37:22Z</time></trkpt><trkpt lat="45.59097174779907" lon="10.826824518213767"><ele>372.0</ele><time>2026-04-01T07:37:25Z</time></trkpt><trkpt lat="45.59100267801764" lon="10.826710482686483"><ele>372.0</ele><time>2026-04-01T07:37:28Z</time></trkpt><trkpt lat="45.59103835649834" lon="10.826605785813685"><ele>372.0</ele><time>2026-04-01T07:37:32Z</time></trkpt><trkpt lat="45.591104135239064" lon="10.826537390144413"><ele>372.0</ele><time>2026-04-01T07:37:35Z</time></trkpt><trkpt lat="45.591143360048626" lon="10.826462345001397"><ele>372.0</ele><time>2026-04-01T07:37:38Z</time></trkpt><trkpt lat="45.5912078548316" lon="10.826411503596951"><ele>367.8571428571429</ele><time>2026-04-01T07:37:41Z</time></trkpt><trkpt lat="45.59124888955968" lon="10.826503978484896"><ele>363.7142857142857</ele><time>2026-04-01T07:37:47Z</time></trkpt><trkpt lat="45.59129035526399" lon="10.826585707343478"><ele>359.57142857142856</ele><time>2026-04-01T07:37:50.999Z</time></trkpt><trkpt lat="45.59136748775658" lon="10.82659257528404"><ele>355.42857142857144</ele><time>2026-04-01T07:37:53.999Z</time></trkpt><trkpt lat="45.59139709055825" lon="10.826693260660369"><ele>351.2857142857143</ele><time>2026-04-01T07:37:55.999Z</time></trkpt><trkpt lat="45.5914600723442" lon="10.826744607124066"><ele>347.14285714285717</ele><time>2026-04-01T07:37:57.999Z</time></trkpt><trkpt lat="45.59151283024176" lon="10.826689796802063"><ele>343.0</ele><time>2026-04-01T07:37:59.999Z</time></trkpt><trkpt lat="45.591572777553395" lon="10.826646061715232"><ele>343.0</ele><time>2026-04-01T07:38:02.999Z</time></trkpt><trkpt lat="45.591640712970595" lon="10.826636778256196"><ele>343.0</ele><time>2026-04-01T07:46:13.999Z</time></trkpt><trkpt lat="45.59172634828648" lon="10.826605531173637"><ele>343.0</ele><time>2026-04-01T07:46:19.999Z</time></trkpt><trkpt lat="45.59176282502049" lon="10.8264895329531"><ele>343.0</ele><time>2026-04-01T07:46:21.999Z</time></trkpt><trkpt lat="45.5917832599974" lon="10.82638822999634"><ele>343.0</ele><time>2026-04-01T07:46:23.999Z</time></trkpt><trkpt lat="45.59183308843664" lon="10.826317759731547"><ele>343.0</ele><time>2026-04-01T07:46:27.999Z</time></trkpt><trkpt lat="45.591801770246974" lon="10.826211367254258"><ele>343.0</ele><time>2026-04-01T07:46:31.999Z</time></trkpt><trkpt lat="45.59185328868003" lon="10.826115081335388"><ele>343.0</ele><time>2026-04-01T07:46:34.999Z</time></trkpt><trkpt lat="45.59191546788678" lon="10.826088604643875"><ele>343.0</ele><time>2026-04-01T07:46:35.999Z</time></trkpt><trkpt lat="45.59198087251894" lon="10.826114865895502"><ele>343.0</ele><time>2026-04-01T07:46:36.999Z</time></trkpt><trkpt lat="45.592070534726574" lon="10.826106683526268"><ele>343.0</ele><time>2026-04-01T07:46:38.999Z</time></trkpt><trkpt lat="45.59218392741081" lon="10.82601167081519"><ele>343.0</ele><time>2026-04-01T07:46:40.999Z</time></trkpt><trkpt lat="45.59228883479442" lon="10.825986176468755"><ele>337.0</ele><time>2026-04-01T07:46:42.999Z</time></trkpt><trkpt lat="45.59238886085297" lon="10.825935377110508"><ele>331.0</ele><time>2026-04-01T07:46:44.999Z</time></trkpt><trkpt lat="45.59248884957789" lon="10.825868706113589"><ele>325.0</ele><time>2026-04-01T07:46:46.999Z</time></trkpt><trkpt lat="45.59258109390746" lon="10.825819644211856"><ele>319.0</ele><time>2026-04-01T07:46:48.999Z</time></trkpt><trkpt lat="45.592677371140745" lon="10.825826773302506"><ele>313.0</ele><time>2026-04-01T07:46:50.999Z</time></trkpt><trkpt lat="45.59278707991249" lon="10.825813723959955"><ele>312.0</ele><time>2026-04-01T07:46:52.999Z</time></trkpt><trkpt lat="45.592865491938696" lon="10.825727337773701"><ele>311.0</ele><time>2026-04-01T07:46:54.999Z</time></trkpt><trkpt lat="45.59297911768304" lon="10.82567448421777"><ele>310.0</ele><time>2026-04-01T07:46:56.999Z</time></trkpt><trkpt lat="45.59307539592406" lon="10.825638158595371"><ele>309.0</ele><time>2026-04-01T07:46:58.999Z</time></trkpt><trkpt lat="45.59318347968769" lon="10.825605272870167"><ele>308.0</ele><time>2026-04-01T07:47:00.999Z</time></trkpt><trkpt lat="45.59326773232449" lon="10.82553810886593"><ele>308.0</ele><time>2026-04-01T07:47:02.999Z</time></trkpt><trkpt lat="45.59331530722466" lon="10.825454711429828"><ele>308.0</ele><time>2026-04-01T07:47:08.999Z</time></trkpt><trkpt lat="45.59338891564484" lon="10.825437848239428"><ele>308.0</ele><time>2026-04-01T07:47:10.999Z</time></trkpt><trkpt lat="45.59346870398096" lon="10.825506129010964"><ele>308.0</ele><time>2026-04-01T07:47:12.999Z</time></trkpt><trkpt lat="45.59353855376333" lon="10.82552853616021"><ele>308.0</ele><time>2026-04-01T07:47:13.999Z</time></trkpt><trkpt lat="45.59363968638136" lon="10.82556505339158"><ele>308.0</ele><time>2026-04-01T07:47:15.999Z</time></trkpt><trkpt lat="45.59370990215263" lon="10.82562732110321"><ele>307.0</ele><time>2026-04-01T07:47:18.998Z</time></trkpt><trkpt lat="45.593775048332866" lon="10.825593364307169"><ele>306.0</ele><time>2026-04-01T07:47:23.998Z</time></trkpt><trkpt lat="45.59381996319988" lon="10.825499219365993"><ele>305.0</ele><time>2026-04-01T07:47:29Z</time></trkpt><trkpt lat="45.5938762460056" lon="10.825448593449321"><ele>304.0</ele><time>2026-04-01T07:47:32Z</time></trkpt><trkpt lat="45.593949331348476" lon="10.825386759309032"><ele>303.0</ele><time>2026-04-01T07:47:35Z</time></trkpt><trkpt lat="45.593991294916584" lon="10.825308834689523"><ele>302.0</ele><time>2026-04-01T07:47:37Z</time></trkpt><trkpt lat="45.593977550971644" lon="10.825179225529201"><ele>297.0</ele><time>2026-04-01T07:47:40Z</time></trkpt><trkpt lat="45.593997344298735" lon="10.824957061126888"><ele>292.0</ele><time>2026-04-01T07:47:42Z</time></trkpt><trkpt lat="45.594008699534044" lon="10.824833542756222"><ele>287.0</ele><time>2026-04-01T07:47:44Z</time></trkpt><trkpt lat="45.59402334232103" lon="10.824718920020803"><ele>282.0</ele><time>2026-04-01T07:47:46Z</time></trkpt><trkpt lat="45.59413865650647" lon="10.824643019371237"><ele>282.0</ele><time>2026-04-01T07:47:49Z</time></trkpt><trkpt lat="45.594184804544184" lon="10.824530022763033"><ele>282.0</ele><time>2026-04-01T07:47:51Z</time></trkpt><trkpt lat="45.59425678143658" lon="10.824449162839663"><ele>282.0</ele><time>2026-04-01T07:47:53Z</time></trkpt><trkpt lat="45.59437340033242" lon="10.824412219673318"><ele>282.0</ele><time>2026-04-01T07:47:55Z</time></trkpt><trkpt lat="45.59446822365403" lon="10.824343474289124"><ele>282.0</ele><time>2026-04-01T07:47:57Z</time></trkpt><trkpt lat="45.59457281605098" lon="10.824287558230743"><ele>280.5</ele><time>2026-04-01T07:47:59Z</time></trkpt><trkpt lat="45.594632866886954" lon="10.824259544424203"><ele>279.0</ele><time>2026-04-01T07:48:00Z</time></trkpt><trkpt lat="45.594740246904934" lon="10.824187957721376"><ele>277.5</ele><time>2026-04-01T07:48:02Z</time></trkpt><trkpt lat="45.59481089033413" lon="10.82416642772529"><ele>276.0</ele><time>2026-04-01T07:48:03Z</time></trkpt><trkpt lat="45.59487210040105" lon="10.824136583563584"><ele>274.5</ele><time>2026-04-01T07:48:04Z</time></trkpt><trkpt lat="45.5949377241323" lon="10.824081490985161"><ele>273.0</ele><time>2026-04-01T07:48:05Z</time></trkpt><trkpt lat="45.59499336457964" lon="10.82400804253176"><ele>273.0</ele><time>2026-04-01T07:48:06Z</time></trkpt><trkpt lat="45.59504203435831" lon="10.823944994948361"><ele>273.0</ele><time>2026-04-01T07:48:07Z</time></trkpt><trkpt lat="45.59508257559791" lon="10.823875726246653"><ele>273.0</ele><time>2026-04-01T07:48:08Z</time></trkpt><trkpt lat="45.595137969761545" lon="10.823784078754302"><ele>273.0</ele><time>2026-04-01T07:48:09Z</time></trkpt><trkpt lat="45.595187891561466" lon="10.82370271087604"><ele>273.0</ele><time>2026-04-01T07:48:10Z</time></trkpt><trkpt lat="45.59523585783576" lon="10.823625860205993"><ele>273.0</ele><time>2026-04-01T07:48:11Z</time></trkpt><trkpt lat="45.59532022641734" lon="10.82350258970452"><ele>273.6666666666667</ele><time>2026-04-01T07:48:13Z</time></trkpt><trkpt lat="45.59536222431845" lon="10.823410482032328"><ele>274.3333333333333</ele><time>2026-04-01T07:48:14Z</time></trkpt><trkpt lat="45.59542617992441" lon="10.823325964431872"><ele>275.0</ele><time>2026-04-01T07:48:14.999Z</time></trkpt><trkpt lat="45.59546696339699" lon="10.823233978103941"><ele>275.66666666666663</ele><time>2026-04-01T07:48:15.999Z</time></trkpt><trkpt lat="45.59553812569681" lon="10.823141251365753"><ele>276.3333333333333</ele><time>2026-04-01T07:48:16.999Z</time></trkpt><trkpt lat="45.59559972672335" lon="10.823061120097123"><ele>277.0</ele><time>2026-04-01T07:48:17.999Z</time></trkpt><trkpt lat="45.59566159858058" lon="10.822978750815572"><ele>277.0</ele><time>2026-04-01T07:48:18.999Z</time></trkpt><trkpt lat="45.59572933728045" lon="10.822891328784868"><ele>277.0</ele><time>2026-04-01T07:48:19.999Z</time></trkpt><trkpt lat="45.59580247259782" lon="10.822809009348344"><ele>277.0</ele><time>2026-04-01T07:48:20.999Z</time></trkpt><trkpt lat="45.595888781755924" lon="10.822714854382198"><ele>277.0</ele><time>2026-04-01T07:48:21.999Z</time></trkpt><trkpt lat="45.59598401779525" lon="10.822650689066002"><ele>277.0</ele><time>2026-04-01T07:48:22.999Z</time></trkpt><trkpt lat="45.59606250184317" lon="10.8226033108252"><ele>276.2</ele><time>2026-04-01T07:48:23.999Z</time></trkpt><trkpt lat="45.596164646003004" lon="10.82253334384383"><ele>275.4</ele><time>2026-04-01T07:48:24.999Z</time></trkpt><trkpt lat="45.59625446192448" lon="10.822468385784019"><ele>274.6</ele><time>2026-04-01T07:48:25.999Z</time></trkpt><trkpt lat="45.59634924122572" lon="10.82239332138025"><ele>273.8</ele><time>2026-04-01T07:48:26.999Z</time></trkpt><trkpt lat="45.59643989677139" lon="10.822334395271605"><ele>273.0</ele><time>2026-04-01T07:48:27.999Z</time></trkpt><trkpt lat="45.596517691137265" lon="10.822264650346685"><ele>273.0</ele><time>2026-04-01T07:48:28.999Z</time></trkpt><trkpt lat="45.59658361789886" lon="10.822196490137955"><ele>273.0</ele><time>2026-04-01T07:48:29.999Z</time></trkpt><trkpt lat="45.59664946063273" lon="10.822137481839619"><ele>273.0</ele><time>2026-04-01T07:48:30.999Z</time></trkpt><trkpt lat="45.59673394556347" lon="10.822055956572811"><ele>273.0</ele><time>2026-04-01T07:48:32.999Z</time></trkpt><trkpt lat="45.596797972993365" lon="10.822153301101634"><ele>273.0</ele><time>2026-04-01T07:48:36.999Z</time></trkpt><trkpt lat="45.596892373194095" lon="10.822287536725288"><ele>273.0</ele><time>2026-04-01T07:48:38.999Z</time></trkpt><trkpt lat="45.596944814178116" lon="10.822386836304227"><ele>273.0</ele><time>2026-04-01T07:48:39.999Z</time></trkpt><trkpt lat="45.59699930238508" lon="10.822470102326239"><ele>273.0</ele><time>2026-04-01T07:48:40.999Z</time></trkpt><trkpt lat="45.59707235151979" lon="10.822543054780352"><ele>273.0</ele><time>2026-04-01T07:48:41.999Z</time></trkpt><trkpt lat="45.59715115337747" lon="10.82258284190592"><ele>273.0</ele><time>2026-04-01T07:48:42.999Z</time></trkpt><trkpt lat="45.59724009327681" lon="10.822619160320851"><ele>273.0</ele><time>2026-04-01T07:48:43.999Z</time></trkpt><trkpt lat="45.5973445476012" lon="10.822655858781992"><ele>275.5</ele><time>2026-04-01T07:48:44.999Z</time></trkpt><trkpt lat="45.59744167192767" lon="10.822683371174705"><ele>278.0</ele><time>2026-04-01T07:48:45.999Z</time></trkpt><trkpt lat="45.59754896612141" lon="10.822730980611816"><ele>280.5</ele><time>2026-04-01T07:48:46.999Z</time></trkpt><trkpt lat="45.59765899155598" lon="10.82280931965023"><ele>283.0</ele><time>2026-04-01T07:48:47.999Z</time></trkpt><trkpt lat="45.59777896420793" lon="10.822864103646712"><ele>284.5</ele><time>2026-04-01T07:48:48.999Z</time></trkpt><trkpt lat="45.5978875593976" lon="10.822883784496764"><ele>286.0</ele><time>2026-04-01T07:48:49.999Z</time></trkpt><trkpt lat="45.59800392246708" lon="10.822879121224961"><ele>287.5</ele><time>2026-04-01T07:48:50.999Z</time></trkpt><trkpt lat="45.59812317768632" lon="10.822903479670286"><ele>289.0</ele><time>2026-04-01T07:48:51.999Z</time></trkpt><trkpt lat="45.598239346130335" lon="10.822928431130794"><ele>289.0</ele><time>2026-04-01T07:48:52.999Z</time></trkpt><trkpt lat="45.598355818552626" lon="10.822960051904808"><ele>289.0</ele><time>2026-04-01T07:48:53.999Z</time></trkpt><trkpt lat="45.59847528881148" lon="10.822992859647858"><ele>289.0</ele><time>2026-04-01T07:48:54.999Z</time></trkpt><trkpt lat="45.59859378017034" lon="10.823039945372317"><ele>289.0</ele><time>2026-04-01T07:48:55.999Z</time></trkpt><trkpt lat="45.59870084741124" lon="10.82309272890505"><ele>288.25</ele><time>2026-04-01T07:48:56.999Z</time></trkpt><trkpt lat="45.598820257524146" lon="10.823138300207319"><ele>287.5</ele><time>2026-04-01T07:48:57.999Z</time></trkpt><trkpt lat="45.59893844688827" lon="10.823174777816485"><ele>286.75</ele><time>2026-04-01T07:48:58.999Z</time></trkpt><trkpt lat="45.5990560560549" lon="10.823199135207755"><ele>286.0</ele><time>2026-04-01T07:48:59.999Z</time></trkpt><trkpt lat="45.59914875009963" lon="10.823221849204606"><ele>286.0</ele><time>2026-04-01T07:49:00.999Z</time></trkpt><trkpt lat="45.599246111489904" lon="10.823239955563665"><ele>286.0</ele><time>2026-04-01T07:49:01.999Z</time></trkpt><trkpt lat="45.59935614754624" lon="10.823252008506637"><ele>286.0</ele><time>2026-04-01T07:49:02.999Z</time></trkpt><trkpt lat="45.59944387706537" lon="10.823277576182338"><ele>286.0</ele><time>2026-04-01T07:49:03.999Z</time></trkpt><trkpt lat="45.59952230386238" lon="10.823295409926494"><ele>286.0</ele><time>2026-04-01T07:49:04.999Z</time></trkpt><trkpt lat="45.599594132957876" lon="10.823329523632484"><ele>285.0</ele><time>2026-04-01T07:49:05.999Z</time></trkpt><trkpt lat="45.59963684766558" lon="10.823403081326061"><ele>284.0</ele><time>2026-04-01T07:49:06.999Z</time></trkpt><trkpt lat="45.5997126037761" lon="10.823451920996947"><ele>283.0</ele><time>2026-04-01T07:49:07.999Z</time></trkpt><trkpt lat="45.599780169924834" lon="10.823514972613033"><ele>282.0</ele><time>2026-04-01T07:49:08.999Z</time></trkpt><trkpt lat="45.599859570522526" lon="10.823566208928645"><ele>281.0</ele><time>2026-04-01T07:49:09.999Z</time></trkpt><trkpt lat="45.59995589795689" lon="10.823615505632821"><ele>280.0</ele><time>2026-04-01T07:49:10.999Z</time></trkpt><trkpt lat="45.60004984277471" lon="10.823677859248564"><ele>282.2</ele><time>2026-04-01T07:49:11.999Z</time></trkpt><trkpt lat="45.60014486833537" lon="10.823726640895197"><ele>284.4</ele><time>2026-04-01T07:49:12.999Z</time></trkpt><trkpt lat="45.60024343554663" lon="10.823785290014447"><ele>286.6</ele><time>2026-04-01T07:49:13.999Z</time></trkpt><trkpt lat="45.60034543106348" lon="10.823850626907895"><ele>288.8</ele><time>2026-04-01T07:49:14.999Z</time></trkpt><trkpt lat="45.600434355968346" lon="10.823921076552633"><ele>291.0</ele><time>2026-04-01T07:49:15.999Z</time></trkpt><trkpt lat="45.60052365618424" lon="10.823984305189926"><ele>291.0</ele><time>2026-04-01T07:49:16.999Z</time></trkpt><trkpt lat="45.600599492226394" lon="10.824028758295166"><ele>291.0</ele><time>2026-04-01T07:49:17.999Z</time></trkpt><trkpt lat="45.60069516840507" lon="10.824099124782943"><ele>291.0</ele><time>2026-04-01T07:49:19.999Z</time></trkpt><trkpt lat="45.600763954557586" lon="10.824134721682723"><ele>291.0</ele><time>2026-04-01T07:49:21.999Z</time></trkpt><trkpt lat="45.60084805824299" lon="10.824177683320327"><ele>291.0</ele><time>2026-04-01T07:49:23.999Z</time></trkpt><trkpt lat="45.60107240286861" lon="10.823853547114874"><ele>291.0</ele><time>2026-04-01T07:49:25.998Z</time></trkpt><trkpt lat="45.601144803703875" lon="10.823817988834275"><ele>291.0</ele><time>2026-04-01T07:49:26.998Z</time></trkpt><trkpt lat="45.6012089438339" lon="10.823780842319708"><ele>291.0</ele><time>2026-04-01T07:49:27.998Z</time></trkpt><trkpt lat="45.6012698748476" lon="10.82373603418901"><ele>291.0</ele><time>2026-04-01T07:49:28.998Z</time></trkpt><trkpt lat="45.6013389606734" lon="10.823676847701936"><ele>291.0</ele><time>2026-04-01T07:49:29.998Z</time></trkpt><trkpt lat="45.60140262487343" lon="10.823614751535674"><ele>291.0</ele><time>2026-04-01T07:49:30.998Z</time></trkpt><trkpt lat="45.60146772073886" lon="10.823570466329862"><ele>291.0</ele><time>2026-04-01T07:49:32Z</time></trkpt><trkpt lat="45.60156070745771" lon="10.823470378760627"><ele>288.8</ele><time>2026-04-01T07:49:34Z</time></trkpt><trkpt lat="45.601599639988116" lon="10.823396046736077"><ele>286.6</ele><time>2026-04-01T07:49:35Z</time></trkpt><trkpt lat="45.60167025526528" lon="10.823298139974264"><ele>284.4</ele><time>2026-04-01T07:49:36Z</time></trkpt><trkpt lat="45.60175777389366" lon="10.823203768674626"><ele>282.2</ele><time>2026-04-01T07:49:37Z</time></trkpt><trkpt lat="45.60185111623917" lon="10.823117342698554"><ele>280.0</ele><time>2026-04-01T07:49:38Z</time></trkpt><trkpt lat="45.60195246214971" lon="10.823045079772294"><ele>280.25</ele><time>2026-04-01T07:49:39Z</time></trkpt><trkpt lat="45.60205791099499" lon="10.82297129915418"><ele>280.5</ele><time>2026-04-01T07:49:40Z</time></trkpt><trkpt lat="45.60216420402169" lon="10.822891354357427"><ele>280.75</ele><time>2026-04-01T07:49:41Z</time></trkpt><trkpt lat="45.602271615133915" lon="10.822816914290529"><ele>281.0</ele><time>2026-04-01T07:49:42Z</time></trkpt><trkpt lat="45.60237491771731" lon="10.822751135027112"><ele>281.0</ele><time>2026-04-01T07:49:43Z</time></trkpt><trkpt lat="45.60246283669854" lon="10.822680119589293"><ele>281.0</ele><time>2026-04-01T07:49:44Z</time></trkpt><trkpt lat="45.602549450299925" lon="10.822614678561411"><ele>281.0</ele><time>2026-04-01T07:49:45Z</time></trkpt><trkpt lat="45.60263704572419" lon="10.82255887400608"><ele>281.0</ele><time>2026-04-01T07:49:46Z</time></trkpt><trkpt lat="45.60273220484803" lon="10.822508503017199"><ele>281.0</ele><time>2026-04-01T07:49:47Z</time></trkpt><trkpt lat="45.602827565235245" lon="10.822468930381074"><ele>280.40000000000003</ele><time>2026-04-01T07:49:48Z</time></trkpt><trkpt lat="45.602924343411985" lon="10.822425677080512"><ele>279.8</ele><time>2026-04-01T07:49:49Z</time></trkpt><trkpt lat="45.603021699984254" lon="10.82237049869308"><ele>279.20000000000005</ele><time>2026-04-01T07:49:50Z</time></trkpt><trkpt lat="45.60311232885234" lon="10.822322687683327"><ele>278.6</ele><time>2026-04-01T07:49:51Z</time></trkpt><trkpt lat="45.60321440287507" lon="10.822286174656899"><ele>278.0</ele><time>2026-04-01T07:49:52Z</time></trkpt><trkpt lat="45.60331799120027" lon="10.822246069763414"><ele>278.0</ele><time>2026-04-01T07:49:53Z</time></trkpt><trkpt lat="45.60342457666217" lon="10.822204417927333"><ele>278.0</ele><time>2026-04-01T07:49:54Z</time></trkpt><trkpt lat="45.60353830236979" lon="10.822169730292588"><ele>278.0</ele><time>2026-04-01T07:49:55Z</time></trkpt><trkpt lat="45.603668057910646" lon="10.822138419901432"><ele>278.0</ele><time>2026-04-01T07:49:56Z</time></trkpt><trkpt lat="45.60378960957628" lon="10.822115732450206"><ele>279.2</ele><time>2026-04-01T07:49:57Z</time></trkpt><trkpt lat="45.60390693925233" lon="10.822085264258186"><ele>280.4</ele><time>2026-04-01T07:49:58Z</time></trkpt><trkpt lat="45.604020364777675" lon="10.822065330221642"><ele>281.59999999999997</ele><time>2026-04-01T07:49:59Z</time></trkpt><trkpt lat="45.60411506774177" lon="10.822072956945373"><ele>282.8</ele><time>2026-04-01T07:50:00Z</time></trkpt><trkpt lat="45.60419890521034" lon="10.822087596751421"><ele>284.0</ele><time>2026-04-01T07:50:01Z</time></trkpt><trkpt lat="45.60427877312006" lon="10.822059927223998"><ele>284.0</ele><time>2026-04-01T07:50:02Z</time></trkpt><trkpt lat="45.604338214682" lon="10.821989017421707"><ele>284.0</ele><time>2026-04-01T07:50:03Z</time></trkpt><trkpt lat="45.604274776048555" lon="10.821801835988847"><ele>284.0</ele><time>2026-04-01T07:50:04Z</time></trkpt><trkpt lat="45.60427864214648" lon="10.821679836846542"><ele>284.0</ele><time>2026-04-01T07:50:06Z</time></trkpt><trkpt lat="45.60428251521624" lon="10.821538933695798"><ele>284.0</ele><time>2026-04-01T07:50:07Z</time></trkpt><trkpt lat="45.60430451537781" lon="10.821366965593224"><ele>283.4</ele><time>2026-04-01T07:50:08Z</time></trkpt><trkpt lat="45.604326230442894" lon="10.821204361872665"><ele>282.79999999999995</ele><time>2026-04-01T07:50:09Z</time></trkpt><trkpt lat="45.60434706055718" lon="10.8210643139098"><ele>282.20000000000005</ele><time>2026-04-01T07:50:10Z</time></trkpt><trkpt lat="45.6043669748785" lon="10.820939558993746"><ele>281.6</ele><time>2026-04-01T07:50:11Z</time></trkpt><trkpt lat="45.60438903223223" lon="10.820808876302117"><ele>281.0</ele><time>2026-04-01T07:50:12Z</time></trkpt><trkpt lat="45.604408801439874" lon="10.820701381835493"><ele>280.2</ele><time>2026-04-01T07:50:13Z</time></trkpt><trkpt lat="45.60443444752631" lon="10.820566046237788"><ele>279.40000000000003</ele><time>2026-04-01T07:50:14Z</time></trkpt><trkpt lat="45.60446351828905" lon="10.820410836359267"><ele>278.6</ele><time>2026-04-01T07:50:15Z</time></trkpt><trkpt lat="45.60449237187056" lon="10.82025254866935"><ele>277.8</ele><time>2026-04-01T07:50:16Z</time></trkpt><trkpt lat="45.604515876650545" lon="10.820123604034396"><ele>277.0</ele><time>2026-04-01T07:50:17Z</time></trkpt><trkpt lat="45.60453589238312" lon="10.819989926184682"><ele>276.3333333333333</ele><time>2026-04-01T07:50:18Z</time></trkpt><trkpt lat="45.60454548705352" lon="10.819840182551173"><ele>275.66666666666663</ele><time>2026-04-01T07:50:19Z</time></trkpt><trkpt lat="45.60453887100246" lon="10.819713504269618"><ele>275.0</ele><time>2026-04-01T07:50:20Z</time></trkpt><trkpt lat="45.60452431715739" lon="10.81959685837044"><ele>274.3333333333333</ele><time>2026-04-01T07:50:20.999Z</time></trkpt><trkpt lat="45.604500919848036" lon="10.819510106432821"><ele>273.6666666666667</ele><time>2026-04-01T07:50:21.999Z</time></trkpt><trkpt lat="45.6044666880925" lon="10.819399763324373"><ele>273.0</ele><time>2026-04-01T07:50:22.999Z</time></trkpt><trkpt lat="45.6044341428241" lon="10.8192722666665"><ele>272.6</ele><time>2026-04-01T07:50:23.999Z</time></trkpt><trkpt lat="45.60442188321004" lon="10.819150784523616"><ele>272.20000000000005</ele><time>2026-04-01T07:50:24.999Z</time></trkpt><trkpt lat="45.60443925330608" lon="10.819033170080482"><ele>271.8</ele><time>2026-04-01T07:50:25.999Z</time></trkpt><trkpt lat="45.60443002049869" lon="10.818940835098187"><ele>271.40000000000003</ele><time>2026-04-01T07:50:26.999Z</time></trkpt><trkpt lat="45.60444129707608" lon="10.818805034060388"><ele>271.0</ele><time>2026-04-01T07:50:27.999Z</time></trkpt><trkpt lat="45.6044717881953" lon="10.818640503368599"><ele>271.6</ele><time>2026-04-01T07:50:28.999Z</time></trkpt><trkpt lat="45.60451758766448" lon="10.818498347888225"><ele>272.20000000000005</ele><time>2026-04-01T07:50:29.999Z</time></trkpt><trkpt lat="45.604565091881014" lon="10.818369782102097"><ele>272.79999999999995</ele><time>2026-04-01T07:50:30.999Z</time></trkpt><trkpt lat="45.60461850870589" lon="10.818230644467226"><ele>273.4</ele><time>2026-04-01T07:50:31.999Z</time></trkpt><trkpt lat="45.60467602865662" lon="10.818090809405387"><ele>274.0</ele><time>2026-04-01T07:50:32.999Z</time></trkpt><trkpt lat="45.60472753218555" lon="10.817967648840206"><ele>274.0</ele><time>2026-04-01T07:50:33.999Z</time></trkpt><trkpt lat="45.60477124653749" lon="10.817849509282814"><ele>274.0</ele><time>2026-04-01T07:50:34.999Z</time></trkpt><trkpt lat="45.60479804313401" lon="10.817745450627381"><ele>274.0</ele><time>2026-04-01T07:50:35.999Z</time></trkpt><trkpt lat="45.604815623932346" lon="10.817650950274633"><ele>274.0</ele><time>2026-04-01T07:50:36.999Z</time></trkpt><trkpt lat="45.60482615221357" lon="10.817549028652145"><ele>274.0</ele><time>2026-04-01T07:50:37.999Z</time></trkpt><trkpt lat="45.60478546917996" lon="10.817348924984445"><ele>273.8</ele><time>2026-04-01T07:50:39.999Z</time></trkpt><trkpt lat="45.60474923438293" lon="10.817206495968456"><ele>273.59999999999997</ele><time>2026-04-01T07:50:40.999Z</time></trkpt><trkpt lat="45.60471484166252" lon="10.81706629566462"><ele>273.4</ele><time>2026-04-01T07:50:41.999Z</time></trkpt><trkpt lat="45.60468760053886" lon="10.816930042375215"><ele>273.2</ele><time>2026-04-01T07:50:42.999Z</time></trkpt><trkpt lat="45.60466875966976" lon="10.816769416236806"><ele>273.0</ele><time>2026-04-01T07:50:43.999Z</time></trkpt><trkpt lat="45.60466120548613" lon="10.816586756686588"><ele>272.4</ele><time>2026-04-01T07:50:44.999Z</time></trkpt><trkpt lat="45.604660044433146" lon="10.816423588919776"><ele>271.8</ele><time>2026-04-01T07:50:45.999Z</time></trkpt><trkpt lat="45.604669949937154" lon="10.816285486020169"><ele>271.2</ele><time>2026-04-01T07:50:46.999Z</time></trkpt><trkpt lat="45.60468672204875" lon="10.816131790153204"><ele>270.6</ele><time>2026-04-01T07:50:48.999Z</time></trkpt><trkpt lat="45.604703935114024" lon="10.816033757266435"><ele>270.0</ele><time>2026-04-01T07:53:00.999Z</time></trkpt><trkpt lat="45.60461718019245" lon="10.815876621975107"><ele>270.0</ele><time>2026-04-01T07:53:02.999Z</time></trkpt><trkpt lat="45.60462747344388" lon="10.815534705350654"><ele>270.0</ele><time>2026-04-01T07:53:05.999Z</time></trkpt><trkpt lat="45.60463865968421" lon="10.81538140604728"><ele>270.0</ele><time>2026-04-01T07:53:06.999Z</time></trkpt><trkpt lat="45.60465707308604" lon="10.815221488701344"><ele>269.8</ele><time>2026-04-01T07:53:07.999Z</time></trkpt><trkpt lat="45.60468301683873" lon="10.815061575069327"><ele>269.6</ele><time>2026-04-01T07:53:08.999Z</time></trkpt><trkpt lat="45.60471237401698" lon="10.814918927429193"><ele>269.4</ele><time>2026-04-01T07:53:09.999Z</time></trkpt><trkpt lat="45.60474271848234" lon="10.81477524429775"><ele>269.2</ele><time>2026-04-01T07:53:10.999Z</time></trkpt><trkpt lat="45.60478000704059" lon="10.81461373257741"><ele>269.0</ele><time>2026-04-01T07:53:11.999Z</time></trkpt><trkpt lat="45.60484063286455" lon="10.81445080583318"><ele>268.75</ele><time>2026-04-01T07:53:12.999Z</time></trkpt><trkpt lat="45.60485914380829" lon="10.81426127174377"><ele>268.5</ele><time>2026-04-01T07:53:13.999Z</time></trkpt><trkpt lat="45.60489814295992" lon="10.814103158392966"><ele>268.25</ele><time>2026-04-01T07:53:14.999Z</time></trkpt><trkpt lat="45.60494403305331" lon="10.813941882084983"><ele>268.0</ele><time>2026-04-01T07:53:15.999Z</time></trkpt><trkpt lat="45.60498316671449" lon="10.813794001178126"><ele>268.0</ele><time>2026-04-01T07:53:16.999Z</time></trkpt><trkpt lat="45.60502155821124" lon="10.813640132806857"><ele>268.0</ele><time>2026-04-01T07:53:17.999Z</time></trkpt><trkpt lat="45.605062790164226" lon="10.813494457453647"><ele>268.0</ele><time>2026-04-01T07:53:18.999Z</time></trkpt><trkpt lat="45.60510336719395" lon="10.813339796354354"><ele>268.0</ele><time>2026-04-01T07:53:19.999Z</time></trkpt><trkpt lat="45.60514977967121" lon="10.813191437440604"><ele>268.0</ele><time>2026-04-01T07:53:20.999Z</time></trkpt><trkpt lat="45.60520006494196" lon="10.813047811955919"><ele>268.0</ele><time>2026-04-01T07:53:21.999Z</time></trkpt><trkpt lat="45.60524578095999" lon="10.812913478908023"><ele>268.0</ele><time>2026-04-01T07:53:22.999Z</time></trkpt><trkpt lat="45.60529310159056" lon="10.812790448705531"><ele>268.0</ele><time>2026-04-01T07:53:23.999Z</time></trkpt><trkpt lat="45.6053376680878" lon="10.812678825584557"><ele>268.0</ele><time>2026-04-01T07:53:24.999Z</time></trkpt><trkpt lat="45.60538496983437" lon="10.812586025915772"><ele>268.3333333333333</ele><time>2026-04-01T07:53:25.999Z</time></trkpt><trkpt lat="45.60544234483215" lon="10.81253488335778"><ele>268.66666666666663</ele><time>2026-04-01T07:53:26.999Z</time></trkpt><trkpt lat="45.60549652035296" lon="10.812471994988034"><ele>269.0</ele><time>2026-04-01T07:53:27.999Z</time></trkpt><trkpt lat="45.60553768345621" lon="10.812387602502518"><ele>269.3333333333333</ele><time>2026-04-01T07:53:28.999Z</time></trkpt><trkpt lat="45.60556091205956" lon="10.81230240086463"><ele>269.6666666666667</ele><time>2026-04-01T07:53:29.999Z</time></trkpt><trkpt lat="45.60558514865796" lon="10.812192128112892"><ele>270.0</ele><time>2026-04-01T07:53:30.999Z</time></trkpt><trkpt lat="45.60560756908652" lon="10.81203137641759"><ele>270.0</ele><time>2026-04-01T07:53:31.998Z</time></trkpt><trkpt lat="45.605639038245435" lon="10.811872559597186"><ele>270.0</ele><time>2026-04-01T07:53:32.998Z</time></trkpt><trkpt lat="45.60566787559151" lon="10.81172864781476"><ele>270.0</ele><time>2026-04-01T07:53:33.998Z</time></trkpt><trkpt lat="45.60571059092963" lon="10.811599477137788"><ele>270.0</ele><time>2026-04-01T07:53:34.998Z</time></trkpt><trkpt lat="45.6057796134886" lon="10.811489656073535"><ele>270.0</ele><time>2026-04-01T07:53:35.998Z</time></trkpt><trkpt lat="45.60587468905078" lon="10.811383633939187"><ele>269.75</ele><time>2026-04-01T07:53:36.998Z</time></trkpt><trkpt lat="45.6059649309349" lon="10.81125922852366"><ele>269.5</ele><time>2026-04-01T07:53:37.998Z</time></trkpt><trkpt lat="45.60605552821389" lon="10.81111546434528"><ele>269.25</ele><time>2026-04-01T07:53:38.998Z</time></trkpt><trkpt lat="45.60614808242699" lon="10.810945256271628"><ele>269.0</ele><time>2026-04-01T07:53:39.998Z</time></trkpt><trkpt lat="45.60623363183569" lon="10.810777448822407"><ele>268.75</ele><time>2026-04-01T07:53:40.998Z</time></trkpt><trkpt lat="45.606317769988834" lon="10.810621088309663"><ele>268.5</ele><time>2026-04-01T07:53:41.998Z</time></trkpt><trkpt lat="45.60638581975496" lon="10.810486410231038"><ele>268.25</ele><time>2026-04-01T07:53:42.998Z</time></trkpt><trkpt lat="45.60642789252264" lon="10.810394982367356"><ele>268.0</ele><time>2026-04-01T07:53:44Z</time></trkpt><trkpt lat="45.60649714150898" lon="10.810254357788404"><ele>268.0</ele><time>2026-04-01T07:53:47Z</time></trkpt><trkpt lat="45.60652776571154" lon="10.810161776839749"><ele>268.0</ele><time>2026-04-01T07:53:48Z</time></trkpt><trkpt lat="45.60658442782679" lon="10.810092095509948"><ele>268.0</ele><time>2026-04-01T07:53:49Z</time></trkpt><trkpt lat="45.6066494732057" lon="10.810036091498338"><ele>268.0</ele><time>2026-04-01T07:53:50Z</time></trkpt><trkpt lat="45.60675021793293" lon="10.809980407164819"><ele>268.0</ele><time>2026-04-01T07:53:51Z</time></trkpt><trkpt lat="45.60685275463684" lon="10.809934551506114"><ele>268.0</ele><time>2026-04-01T07:53:52Z</time></trkpt><trkpt lat="45.6069439957992" lon="10.809886980139721"><ele>269.0</ele><time>2026-04-01T07:53:53Z</time></trkpt><trkpt lat="45.60701662911454" lon="10.809823984190515"><ele>270.0</ele><time>2026-04-01T07:53:54Z</time></trkpt><trkpt lat="45.60708229115215" lon="10.809739901925163"><ele>271.0</ele><time>2026-04-01T07:53:55Z</time></trkpt><trkpt lat="45.6071414559855" lon="10.809644910720422"><ele>272.0</ele><time>2026-04-01T07:53:56Z</time></trkpt><trkpt lat="45.60720263915605" lon="10.809546233815365"><ele>273.0</ele><time>2026-04-01T07:53:57Z</time></trkpt><trkpt lat="45.60726414166466" lon="10.809425318037977"><ele>272.8333333333333</ele><time>2026-04-01T07:53:58Z</time></trkpt><trkpt lat="45.60731555100554" lon="10.809324709287225"><ele>272.6666666666667</ele><time>2026-04-01T07:53:59Z</time></trkpt><trkpt lat="45.60737203289677" lon="10.80922484674952"><ele>272.5</ele><time>2026-04-01T07:54:00Z</time></trkpt><trkpt lat="45.60743931123915" lon="10.80916277046941"><ele>272.33333333333337</ele><time>2026-04-01T07:54:01Z</time></trkpt><trkpt lat="45.607519120622186" lon="10.809128788413542"><ele>272.1666666666667</ele><time>2026-04-01T07:54:02Z</time></trkpt><trkpt lat="45.60761462098437" lon="10.809067451894192"><ele>272.0</ele><time>2026-04-01T07:54:03Z</time></trkpt><trkpt lat="45.60772429041601" lon="10.80904585582524"><ele>272.8</ele><time>2026-04-01T07:54:04Z</time></trkpt><trkpt lat="45.60783531429879" lon="10.809034467423274"><ele>273.6</ele><time>2026-04-01T07:54:05Z</time></trkpt><trkpt lat="45.6079457999475" lon="10.809024684556135"><ele>274.40000000000003</ele><time>2026-04-01T07:54:06Z</time></trkpt><trkpt lat="45.6080566078083" lon="10.809020271737616"><ele>275.2</ele><time>2026-04-01T07:54:07Z</time></trkpt><trkpt lat="45.60815878207127" lon="10.809003544002843"><ele>276.0</ele><time>2026-04-01T07:54:08Z</time></trkpt><trkpt lat="45.60825322792378" lon="10.808987093975306"><ele>276.0</ele><time>2026-04-01T07:54:09Z</time></trkpt><trkpt lat="45.608338713969914" lon="10.808975717189975"><ele>276.0</ele><time>2026-04-01T07:54:10Z</time></trkpt><trkpt lat="45.60842959411145" lon="10.808965352499575"><ele>276.0</ele><time>2026-04-01T07:54:11Z</time></trkpt><trkpt lat="45.608516556319316" lon="10.808954803552197"><ele>276.0</ele><time>2026-04-01T07:54:12Z</time></trkpt><trkpt lat="45.60858626949481" lon="10.808953193194574"><ele>276.0</ele><time>2026-04-01T07:54:13Z</time></trkpt><trkpt lat="45.60868171212617" lon="10.808967373620739"><ele>276.0</ele><time>2026-04-01T07:54:15Z</time></trkpt><trkpt lat="45.608750590072944" lon="10.80891495282917"><ele>276.0</ele><time>2026-04-01T07:54:18Z</time></trkpt><trkpt lat="45.60877160985952" lon="10.808686762511588"><ele>276.0</ele><time>2026-04-01T07:54:28Z</time></trkpt><trkpt lat="45.60872690658791" lon="10.808556736345219"><ele>276.0</ele><time>2026-04-01T07:54:29Z</time></trkpt><trkpt lat="45.608687971460185" lon="10.80841182976457"><ele>276.0</ele><time>2026-04-01T07:54:30Z</time></trkpt><trkpt lat="45.6086586201598" lon="10.808259455484102"><ele>276.0</ele><time>2026-04-01T07:54:31Z</time></trkpt><trkpt lat="45.60864642851828" lon="10.808090948500652"><ele>276.0</ele><time>2026-04-01T07:54:31.999Z</time></trkpt><trkpt lat="45.608635149996836" lon="10.807883815282436"><ele>276.0</ele><time>2026-04-01T07:54:32.999Z</time></trkpt><trkpt lat="45.60863043412186" lon="10.807677475183992"><ele>276.0</ele><time>2026-04-01T07:54:33.999Z</time></trkpt><trkpt lat="45.60864075492888" lon="10.807462233361045"><ele>277.0</ele><time>2026-04-01T07:54:34.999Z</time></trkpt><trkpt lat="45.60865157955789" lon="10.80725707108167"><ele>278.0</ele><time>2026-04-01T07:54:35.999Z</time></trkpt><trkpt lat="45.60866095089714" lon="10.807070713390612"><ele>279.0</ele><time>2026-04-01T07:54:36.999Z</time></trkpt><trkpt lat="45.608668145754386" lon="10.806889870509956"><ele>280.0</ele><time>2026-04-01T07:54:37.999Z</time></trkpt><trkpt lat="45.60867464846902" lon="10.806703545864979"><ele>281.75</ele><time>2026-04-01T07:54:38.999Z</time></trkpt><trkpt lat="45.60868338918615" lon="10.806511076752466"><ele>283.5</ele><time>2026-04-01T07:54:39.999Z</time></trkpt><trkpt lat="45.60869229899346" lon="10.806311015781343"><ele>285.25</ele><time>2026-04-01T07:54:40.999Z</time></trkpt><trkpt lat="45.60870205127826" lon="10.806096008616876"><ele>287.0</ele><time>2026-04-01T07:54:41.999Z</time></trkpt><trkpt lat="45.60870985681591" lon="10.805908441593868"><ele>287.0</ele><time>2026-04-01T07:54:42.999Z</time></trkpt><trkpt lat="45.6087190296057" lon="10.805730173047857"><ele>287.0</ele><time>2026-04-01T07:54:43.999Z</time></trkpt><trkpt lat="45.608729972018764" lon="10.805540393946547"><ele>287.0</ele><time>2026-04-01T07:54:44.999Z</time></trkpt><trkpt lat="45.60873879366052" lon="10.80534292789509"><ele>287.0</ele><time>2026-04-01T07:54:45.999Z</time></trkpt><trkpt lat="45.6087502806871" lon="10.805148564669382"><ele>287.0</ele><time>2026-04-01T07:54:46.999Z</time></trkpt><trkpt lat="45.60876080686749" lon="10.804956415434178"><ele>287.0</ele><time>2026-04-01T07:54:47.999Z</time></trkpt><trkpt lat="45.60877102369594" lon="10.804766615521316"><ele>287.0</ele><time>2026-04-01T07:54:48.999Z</time></trkpt><trkpt lat="45.60878236310677" lon="10.80458075745772"><ele>287.0</ele><time>2026-04-01T07:54:49.999Z</time></trkpt><trkpt lat="45.60879222554431" lon="10.80439105069434"><ele>287.25</ele><time>2026-04-01T07:54:50.999Z</time></trkpt><trkpt lat="45.60880063373331" lon="10.804197798638207"><ele>287.5</ele><time>2026-04-01T07:54:51.999Z</time></trkpt><trkpt lat="45.6087873654883" lon="10.80401522029266"><ele>287.75</ele><time>2026-04-01T07:54:52.999Z</time></trkpt><trkpt lat="45.608762253088955" lon="10.803842922385478"><ele>288.0</ele><time>2026-04-01T07:54:53.999Z</time></trkpt><trkpt lat="45.60871456165641" lon="10.803666842988324"><ele>286.75</ele><time>2026-04-01T07:54:54.999Z</time></trkpt><trkpt lat="45.60865072373374" lon="10.803487995035567"><ele>285.5</ele><time>2026-04-01T07:54:55.999Z</time></trkpt><trkpt lat="45.608592852885856" lon="10.803313460497655"><ele>284.25</ele><time>2026-04-01T07:54:56.999Z</time></trkpt><trkpt lat="45.608521202609985" lon="10.8031725294091"><ele>283.0</ele><time>2026-04-01T07:54:57.999Z</time></trkpt><trkpt lat="45.608482402119634" lon="10.803017867658527"><ele>283.0</ele><time>2026-04-01T07:54:58.999Z</time></trkpt><trkpt lat="45.60843380707119" lon="10.802883845145294"><ele>283.0</ele><time>2026-04-01T07:54:59.999Z</time></trkpt><trkpt lat="45.60838386323963" lon="10.802746102945632"><ele>283.0</ele><time>2026-04-01T07:55:00.999Z</time></trkpt><trkpt lat="45.60832151558471" lon="10.802626387890204"><ele>283.0</ele><time>2026-04-01T07:55:01.999Z</time></trkpt><trkpt lat="45.608284044947936" lon="10.80250340680699"><ele>283.0</ele><time>2026-04-01T07:55:02.999Z</time></trkpt><trkpt lat="45.608247203379236" lon="10.802399860204462"><ele>283.0</ele><time>2026-04-01T07:55:03.999Z</time></trkpt><trkpt lat="45.60823700112095" lon="10.802265505524133"><ele>283.0</ele><time>2026-04-01T07:55:05.999Z</time></trkpt><trkpt lat="45.60847024276889" lon="10.80219920916759"><ele>283.0</ele><time>2026-04-01T07:55:08.999Z</time></trkpt><trkpt lat="45.60854857236933" lon="10.802192836910177"><ele>283.0</ele><time>2026-04-01T07:55:09.999Z</time></trkpt><trkpt lat="45.60862602908353" lon="10.80218952586627"><ele>284.16666666666663</ele><time>2026-04-01T07:55:10.999Z</time></trkpt><trkpt lat="45.608709320557075" lon="10.802187730363057"><ele>285.3333333333333</ele><time>2026-04-01T07:55:11.999Z</time></trkpt><trkpt lat="45.60878477925043" lon="10.80220188675482"><ele>286.5</ele><time>2026-04-01T07:55:12.999Z</time></trkpt><trkpt lat="45.60886852593618" lon="10.802210235764452"><ele>287.6666666666667</ele><time>2026-04-01T07:55:13.999Z</time></trkpt><trkpt lat="45.608957327443456" lon="10.802216752106187"><ele>288.83333333333337</ele><time>2026-04-01T07:55:14.999Z</time></trkpt><trkpt lat="45.609045257210404" lon="10.802236338223878"><ele>290.0</ele><time>2026-04-01T07:55:15.999Z</time></trkpt><trkpt lat="45.60912420282761" lon="10.802258254942588"><ele>290.0</ele><time>2026-04-01T07:55:16.999Z</time></trkpt><trkpt lat="45.609197028216705" lon="10.802256792664103"><ele>290.0</ele><time>2026-04-01T07:55:17.999Z</time></trkpt><trkpt lat="45.60928763877374" lon="10.802250318232604"><ele>290.0</ele><time>2026-04-01T07:55:18.999Z</time></trkpt><trkpt lat="45.609390940385275" lon="10.802187799633955"><ele>290.0</ele><time>2026-04-01T07:55:20.999Z</time></trkpt><trkpt lat="45.609450117813594" lon="10.802240336349321"><ele>290.0</ele><time>2026-04-01T07:55:21.999Z</time></trkpt><trkpt lat="45.60949879847294" lon="10.802345240412999"><ele>290.0</ele><time>2026-04-01T07:55:22.999Z</time></trkpt><trkpt lat="45.60958407941127" lon="10.802419332596301"><ele>291.4</ele><time>2026-04-01T07:55:23.999Z</time></trkpt><trkpt lat="45.60967640538168" lon="10.80245096701853"><ele>292.8</ele><time>2026-04-01T07:55:24.999Z</time></trkpt><trkpt lat="45.6097651724665" lon="10.802457963565098"><ele>294.2</ele><time>2026-04-01T07:55:25.999Z</time></trkpt><trkpt lat="45.60985568626495" lon="10.802464652812581"><ele>295.6</ele><time>2026-04-01T07:55:26.999Z</time></trkpt><trkpt lat="45.60995477354924" lon="10.802466243365533"><ele>297.0</ele><time>2026-04-01T07:55:27.999Z</time></trkpt><trkpt lat="45.61006036386131" lon="10.802463712300284"><ele>297.0</ele><time>2026-04-01T07:55:28.999Z</time></trkpt><trkpt lat="45.61017365124057" lon="10.802423731593553"><ele>297.0</ele><time>2026-04-01T07:55:29.999Z</time></trkpt><trkpt lat="45.61027277249431" lon="10.802347623428926"><ele>297.0</ele><time>2026-04-01T07:55:30.999Z</time></trkpt><trkpt lat="45.61035893672415" lon="10.802239672896246"><ele>297.0</ele><time>2026-04-01T07:55:31.999Z</time></trkpt><trkpt lat="45.61044312310531" lon="10.802135212874413"><ele>299.0</ele><time>2026-04-01T07:55:32.999Z</time></trkpt><trkpt lat="45.610500658926675" lon="10.80205487613761"><ele>301.0</ele><time>2026-04-01T07:55:33.999Z</time></trkpt><trkpt lat="45.61056482947726" lon="10.80197421552392"><ele>303.0</ele><time>2026-04-01T07:55:34.999Z</time></trkpt><trkpt lat="45.610634334921116" lon="10.801894021537793"><ele>305.0</ele><time>2026-04-01T07:55:35.999Z</time></trkpt><trkpt lat="45.610711746112486" lon="10.80180965658252"><ele>307.0</ele><time>2026-04-01T07:55:36.999Z</time></trkpt><trkpt lat="45.61079094182039" lon="10.801724627993622"><ele>308.2</ele><time>2026-04-01T07:55:37.999Z</time></trkpt><trkpt lat="45.61086896215934" lon="10.801640516682932"><ele>309.4</ele><time>2026-04-01T07:55:38.999Z</time></trkpt><trkpt lat="45.61093521304397" lon="10.801560091378885"><ele>310.6</ele><time>2026-04-01T07:55:39.999Z</time></trkpt><trkpt lat="45.610979094722246" lon="10.801456950288985"><ele>311.8</ele><time>2026-04-01T07:55:40.999Z</time></trkpt><trkpt lat="45.61099598988815" lon="10.801334503616829"><ele>313.0</ele><time>2026-04-01T07:55:41.999Z</time></trkpt><trkpt lat="45.61103092520591" lon="10.80119317816329"><ele>313.0</ele><time>2026-04-01T07:55:42.998Z</time></trkpt><trkpt lat="45.61106146187492" lon="10.801082461507141"><ele>313.0</ele><time>2026-04-01T07:55:43.998Z</time></trkpt><trkpt lat="45.61110669739043" lon="10.800992237051132"><ele>313.0</ele><time>2026-04-01T07:55:44.998Z</time></trkpt><trkpt lat="45.611159082382656" lon="10.800933838768996"><ele>313.0</ele><time>2026-04-01T07:55:45.998Z</time></trkpt><trkpt lat="45.611219418720985" lon="10.800879395840534"><ele>313.0</ele><time>2026-04-01T07:55:46.998Z</time></trkpt><trkpt lat="45.61130137461946" lon="10.800827943877014"><ele>313.0</ele><time>2026-04-01T07:55:47.998Z</time></trkpt><trkpt lat="45.61137932667973" lon="10.800741831846949"><ele>315.2</ele><time>2026-04-01T07:55:48.998Z</time></trkpt><trkpt lat="45.611423913337" lon="10.800600612317877"><ele>317.4</ele><time>2026-04-01T07:55:50Z</time></trkpt><trkpt lat="45.61147500646334" lon="10.80046602496627"><ele>319.59999999999997</ele><time>2026-04-01T07:55:51Z</time></trkpt><trkpt lat="45.61153761536747" lon="10.800351222769038"><ele>321.8</ele><time>2026-04-01T07:55:52Z</time></trkpt><trkpt lat="45.61163214258029" lon="10.800261905301705"><ele>324.0</ele><time>2026-04-01T07:55:53Z</time></trkpt><trkpt lat="45.61172235941394" lon="10.800173558266255"><ele>323.0</ele><time>2026-04-01T07:55:54Z</time></trkpt><trkpt lat="45.61180014763881" lon="10.800079987158814"><ele>322.0</ele><time>2026-04-01T07:55:55Z</time></trkpt><trkpt lat="45.61188829006816" lon="10.800012839309513"><ele>321.0</ele><time>2026-04-01T07:55:56Z</time></trkpt><trkpt lat="45.61198886350129" lon="10.799985781390099"><ele>320.0</ele><time>2026-04-01T07:55:57Z</time></trkpt><trkpt lat="45.612086245149634" lon="10.799883815340216"><ele>319.0</ele><time>2026-04-01T07:55:58Z</time></trkpt><trkpt lat="45.61217256070645" lon="10.799767614171328"><ele>322.4</ele><time>2026-04-01T07:55:59Z</time></trkpt><trkpt lat="45.61225584900509" lon="10.799653324201557"><ele>325.79999999999995</ele><time>2026-04-01T07:56:00Z</time></trkpt><trkpt lat="45.612329705813046" lon="10.799547264908488"><ele>329.20000000000005</ele><time>2026-04-01T07:56:01Z</time></trkpt><trkpt lat="45.61239248511073" lon="10.799446656110142"><ele>332.6</ele><time>2026-04-01T07:56:02Z</time></trkpt><trkpt lat="45.612445572271135" lon="10.799344121077565"><ele>336.0</ele><time>2026-04-01T07:56:03Z</time></trkpt><trkpt lat="45.612476535090586" lon="10.799236672159346"><ele>336.0</ele><time>2026-04-01T07:56:04Z</time></trkpt><trkpt lat="45.61252366750034" lon="10.799157493008616"><ele>336.0</ele><time>2026-04-01T07:56:05Z</time></trkpt><trkpt lat="45.61259578333724" lon="10.799126482133582"><ele>336.0</ele><time>2026-04-01T07:56:06Z</time></trkpt><trkpt lat="45.61266096200048" lon="10.799063150170186"><ele>336.0</ele><time>2026-04-01T07:56:07Z</time></trkpt><trkpt lat="45.612718264237834" lon="10.798973649580343"><ele>336.0</ele><time>2026-04-01T07:56:08Z</time></trkpt><trkpt lat="45.61274526570115" lon="10.798828249512372"><ele>336.0</ele><time>2026-04-01T07:56:09Z</time></trkpt><trkpt lat="45.61276133506678" lon="10.798675995943244"><ele>336.0</ele><time>2026-04-01T07:56:10Z</time></trkpt><trkpt lat="45.61274910761428" lon="10.798528178687372"><ele>336.0</ele><time>2026-04-01T07:56:11Z</time></trkpt><trkpt lat="45.61270267038521" lon="10.79840491822203"><ele>336.0</ele><time>2026-04-01T07:56:12Z</time></trkpt><trkpt lat="45.61266574116099" lon="10.798317192419134"><ele>336.0</ele><time>2026-04-01T07:56:13Z</time></trkpt><trkpt lat="45.61259600506807" lon="10.798154950343465"><ele>336.0</ele><time>2026-04-01T07:56:15Z</time></trkpt><trkpt lat="45.61257278030671" lon="10.798064181698843"><ele>336.6666666666667</ele><time>2026-04-01T07:56:16Z</time></trkpt><trkpt lat="45.61254990275467" lon="10.79797296270225"><ele>337.3333333333333</ele><time>2026-04-01T07:56:17Z</time></trkpt><trkpt lat="45.61254437992967" lon="10.797808277310525"><ele>338.0</ele><time>2026-04-01T07:56:18Z</time></trkpt><trkpt lat="45.61256078321284" lon="10.797717895425562"><ele>338.66666666666663</ele><time>2026-04-01T07:56:19Z</time></trkpt><trkpt lat="45.61258706669769" lon="10.797628676259366"><ele>339.3333333333333</ele><time>2026-04-01T07:56:20Z</time></trkpt><trkpt lat="45.612633483353086" lon="10.79752550427619"><ele>340.0</ele><time>2026-04-01T07:56:21Z</time></trkpt><trkpt lat="45.612717759816164" lon="10.797420911756033"><ele>340.8</ele><time>2026-04-01T07:56:22Z</time></trkpt><trkpt lat="45.612793155939556" lon="10.797352394562944"><ele>341.6</ele><time>2026-04-01T07:56:23Z</time></trkpt><trkpt lat="45.612860050107436" lon="10.79729032410209"><ele>342.4</ele><time>2026-04-01T07:56:25Z</time></trkpt><trkpt lat="45.61290763109462" lon="10.797224989716641"><ele>343.2</ele><time>2026-04-01T07:56:26Z</time></trkpt><trkpt lat="45.612978515670314" lon="10.797127008539958"><ele>344.0</ele><time>2026-04-01T07:56:28Z</time></trkpt><trkpt lat="45.61336874073632" lon="10.797388580798625"><ele>347.83333333333337</ele><time>2026-04-01T07:56:33Z</time></trkpt><trkpt lat="45.61342927005371" lon="10.797447100683344"><ele>351.6666666666667</ele><time>2026-04-01T07:56:34Z</time></trkpt><trkpt lat="45.61349646079672" lon="10.797508139449693"><ele>355.5</ele><time>2026-04-01T07:56:35Z</time></trkpt><trkpt lat="45.613560910741505" lon="10.79752288361429"><ele>359.3333333333333</ele><time>2026-04-01T07:56:36Z</time></trkpt><trkpt lat="45.61363661666666" lon="10.797537003267438"><ele>363.16666666666663</ele><time>2026-04-01T07:56:39.999Z</time></trkpt><trkpt lat="45.61372481597222" lon="10.797410503540808"><ele>367.0</ele><time>2026-04-01T07:56:41.999Z</time></trkpt><trkpt lat="45.613772165221405" lon="10.797345384463716"><ele>368.85714285714283</ele><time>2026-04-01T07:56:42.999Z</time></trkpt><trkpt lat="45.61382147061758" lon="10.797267095924681"><ele>370.7142857142857</ele><time>2026-04-01T07:56:43.999Z</time></trkpt><trkpt lat="45.61385882430796" lon="10.797184421049984"><ele>372.57142857142856</ele><time>2026-04-01T07:56:44.999Z</time></trkpt><trkpt lat="45.61389081872219" lon="10.797101134302476"><ele>374.42857142857144</ele><time>2026-04-01T07:56:45.999Z</time></trkpt><trkpt lat="45.613929927025985" lon="10.796985855658074"><ele>376.28571428571433</ele><time>2026-04-01T07:56:46.999Z</time></trkpt><trkpt lat="45.61395720518919" lon="10.796874705953208"><ele>378.14285714285717</ele><time>2026-04-01T07:56:47.999Z</time></trkpt><trkpt lat="45.61398393166085" lon="10.796792112877124"><ele>380.0</ele><time>2026-04-01T07:56:48.999Z</time></trkpt><trkpt lat="45.614006727263266" lon="10.796707358094139"><ele>380.0</ele><time>2026-04-01T07:56:49.999Z</time></trkpt><trkpt lat="45.614007164322736" lon="10.79661518234745"><ele>380.0</ele><time>2026-04-01T07:56:50.999Z</time></trkpt><trkpt lat="45.61399923760104" lon="10.796428012348457"><ele>380.0</ele><time>2026-04-01T07:56:52.999Z</time></trkpt><trkpt lat="45.613981337192946" lon="10.796336278747603"><ele>380.0</ele><time>2026-04-01T07:56:53.999Z</time></trkpt><trkpt lat="45.61394753087627" lon="10.79625576918613"><ele>380.0</ele><time>2026-04-01T07:56:54.999Z</time></trkpt><trkpt lat="45.613914660822424" lon="10.796167196084587"><ele>380.0</ele><time>2026-04-01T07:56:55.999Z</time></trkpt><trkpt lat="45.61386458933812" lon="10.79604203470029"><ele>380.0</ele><time>2026-04-01T07:56:57.999Z</time></trkpt><trkpt lat="45.61385623210684" lon="10.795945336769792"><ele>380.0</ele><time>2026-04-01T07:57:00.999Z</time></trkpt><trkpt lat="45.61390734193462" lon="10.795874190024023"><ele>380.0</ele><time>2026-04-01T07:57:03.999Z</time></trkpt><trkpt lat="45.61398329928415" lon="10.795954943624963"><ele>380.0</ele><time>2026-04-01T07:57:05.999Z</time></trkpt><trkpt lat="45.61404888013927" lon="10.795993855582244"><ele>380.0</ele><time>2026-04-01T07:57:06.999Z</time></trkpt><trkpt lat="45.614156517497335" lon="10.79607756919088"><ele>380.0</ele><time>2026-04-01T07:57:08.999Z</time></trkpt><trkpt lat="45.614219405413685" lon="10.796109940366833"><ele>380.0</ele><time>2026-04-01T07:57:09.999Z</time></trkpt><trkpt lat="45.61430159070229" lon="10.796109016359566"><ele>380.0</ele><time>2026-04-01T07:57:11.999Z</time></trkpt><trkpt lat="45.61434966678892" lon="10.7958592258961"><ele>380.0</ele><time>2026-04-01T07:57:14.999Z</time></trkpt><trkpt lat="45.61441382601668" lon="10.795724074138885"><ele>380.0</ele><time>2026-04-01T07:57:16.999Z</time></trkpt><trkpt lat="45.61450566930788" lon="10.795613445103628"><ele>384.83333333333337</ele><time>2026-04-01T07:57:18.999Z</time></trkpt><trkpt lat="45.61456205809394" lon="10.795542525298764"><ele>389.6666666666667</ele><time>2026-04-01T07:57:19.999Z</time></trkpt><trkpt lat="45.614629985924466" lon="10.795503506692565"><ele>394.5</ele><time>2026-04-01T07:57:20.999Z</time></trkpt><trkpt lat="45.614706561535" lon="10.795456633904955"><ele>399.33333333333337</ele><time>2026-04-01T07:57:21.999Z</time></trkpt><trkpt lat="45.61477359313548" lon="10.79541166073441"><ele>404.1666666666667</ele><time>2026-04-01T07:57:22.999Z</time></trkpt><trkpt lat="45.61481838800496" lon="10.795339402397609"><ele>409.0</ele><time>2026-04-01T07:57:23.999Z</time></trkpt><trkpt lat="45.61488309476591" lon="10.795264448878894"><ele>409.00000000000006</ele><time>2026-04-01T07:57:24.999Z</time></trkpt><trkpt lat="45.61493800953518" lon="10.795199924884383"><ele>409.0</ele><time>2026-04-01T07:57:25.999Z</time></trkpt><trkpt lat="45.61499684970661" lon="10.79513307036106"><ele>409.0</ele><time>2026-04-01T07:57:26.999Z</time></trkpt><trkpt lat="45.615052578237496" lon="10.795072105303968"><ele>409.0</ele><time>2026-04-01T07:57:27.999Z</time></trkpt><trkpt lat="45.615142507961444" lon="10.794992242477257"><ele>409.00000000000006</ele><time>2026-04-01T07:57:29.999Z</time></trkpt><trkpt lat="45.61522354257363" lon="10.794955925422562"><ele>409.0</ele><time>2026-04-01T07:57:30.999Z</time></trkpt><trkpt lat="45.61529196168415" lon="10.794939138204644"><ele>415.83333333333337</ele><time>2026-04-01T07:57:31.999Z</time></trkpt><trkpt lat="45.61540578411107" lon="10.794939384293366"><ele>422.6666666666667</ele><time>2026-04-01T07:57:33.999Z</time></trkpt><trkpt lat="45.61550116361693" lon="10.794965597005307"><ele>429.5</ele><time>2026-04-01T07:57:36.999Z</time></trkpt><trkpt lat="45.6155356921697" lon="10.794885787693918"><ele>436.33333333333337</ele><time>2026-04-01T07:57:54.998Z</time></trkpt><trkpt lat="45.61555978104413" lon="10.794772526043438"><ele>443.1666666666667</ele><time>2026-04-01T07:57:57Z</time></trkpt><trkpt lat="45.61556082607756" lon="10.794674933331917"><ele>450.0</ele><time>2026-04-01T07:58:01Z</time></trkpt><trkpt lat="45.61558950496555" lon="10.79458371015258"><ele>450.00000000000006</ele><time>2026-04-01T07:58:04Z</time></trkpt><trkpt lat="45.61562368995829" lon="10.794493776540095"><ele>450.0</ele><time>2026-04-01T07:58:07Z</time></trkpt><trkpt lat="45.615606684551665" lon="10.79440157576146"><ele>450.00000000000006</ele><time>2026-04-01T07:58:09Z</time></trkpt><trkpt lat="45.61565396899895" lon="10.794314566113583"><ele>450.00000000000006</ele><time>2026-04-01T07:58:11Z</time></trkpt><trkpt lat="45.61569549928168" lon="10.794228976815283"><ele>450.0</ele><time>2026-04-01T07:58:15Z</time></trkpt><trkpt lat="45.615738405329395" lon="10.794109988764653"><ele>450.00000000000006</ele><time>2026-04-01T07:58:17Z</time></trkpt><trkpt lat="45.61577024459706" lon="10.794031249920154"><ele>450.00000000000006</ele><time>2026-04-01T07:58:18Z</time></trkpt><trkpt lat="45.61577219027233" lon="10.793926986522928"><ele>450.3333333333333</ele><time>2026-04-01T07:58:20Z</time></trkpt><trkpt lat="45.615814953349826" lon="10.793841433958137"><ele>450.66666666666663</ele><time>2026-04-01T07:58:38Z</time></trkpt><trkpt lat="45.61585038147274" lon="10.793759127995031"><ele>451.0</ele><time>2026-04-01T08:00:41Z</time></trkpt><trkpt lat="45.615862207354596" lon="10.793670458083279"><ele>451.3333333333333</ele><time>2026-04-01T08:00:43Z</time></trkpt><trkpt lat="45.61588657113947" lon="10.793518984668866"><ele>451.66666666666663</ele><time>2026-04-01T08:00:46Z</time></trkpt><trkpt lat="45.61592238262586" lon="10.793403762854968"><ele>452.0</ele><time>2026-04-01T08:00:55.999Z</time></trkpt><trkpt lat="45.61594478519633" lon="10.793308575441543"><ele>452.66666666666663</ele><time>2026-04-01T08:00:57.999Z</time></trkpt><trkpt lat="45.616004184116264" lon="10.79322927896754"><ele>453.3333333333333</ele><time>2026-04-01T08:00:59.999Z</time></trkpt><trkpt lat="45.61608922231422" lon="10.793154771912548"><ele>454.0</ele><time>2026-04-01T08:01:02.999Z</time></trkpt><trkpt lat="45.61611774883827" lon="10.793074460561451"><ele>454.66666666666663</ele><time>2026-04-01T08:01:03.999Z</time></trkpt><trkpt lat="45.6161560673728" lon="10.79293731119734"><ele>455.3333333333333</ele><time>2026-04-01T08:01:05.999Z</time></trkpt><trkpt lat="45.61614699353622" lon="10.792799096104726"><ele>456.0</ele><time>2026-04-01T08:01:07.999Z</time></trkpt><trkpt lat="45.61617269144504" lon="10.792691191955498"><ele>465.0</ele><time>2026-04-01T08:01:11.999Z</time></trkpt><trkpt lat="45.61619520505233" lon="10.792594945889006"><ele>474.0</ele><time>2026-04-01T08:01:14.999Z</time></trkpt><trkpt lat="45.61622325011424" lon="10.792452983252241"><ele>483.0</ele><time>2026-04-01T08:01:16.999Z</time></trkpt><trkpt lat="45.616266124198106" lon="10.792321301160554"><ele>492.0</ele><time>2026-04-01T08:01:18.999Z</time></trkpt><trkpt lat="45.6162895443692" lon="10.792176454422018"><ele>501.0</ele><time>2026-04-01T08:01:20.999Z</time></trkpt><trkpt lat="45.616326085587076" lon="10.792069262482139"><ele>501.0</ele><time>2026-04-01T08:01:23.999Z</time></trkpt><trkpt lat="45.61635453811734" lon="10.791983041648143"><ele>501.0</ele><time>2026-04-01T08:01:26.999Z</time></trkpt><trkpt lat="45.616381428068145" lon="10.791876825575443"><ele>501.0</ele><time>2026-04-01T08:01:28.999Z</time></trkpt><trkpt lat="45.61642677036609" lon="10.79175714404586"><ele>501.0</ele><time>2026-04-01T08:01:31.999Z</time></trkpt><trkpt lat="45.616432321561334" lon="10.791608269956614"><ele>501.0</ele><time>2026-04-01T08:01:34.999Z</time></trkpt><trkpt lat="45.61641776627662" lon="10.79149800150154"><ele>501.0</ele><time>2026-04-01T08:01:36.999Z</time></trkpt><trkpt lat="45.616385941706454" lon="10.791406162186925"><ele>502.3333333333333</ele><time>2026-04-01T08:01:38.999Z</time></trkpt><trkpt lat="45.61634682171824" lon="10.791313774074593"><ele>503.66666666666663</ele><time>2026-04-01T08:01:42.999Z</time></trkpt><trkpt lat="45.616321188765774" lon="10.79121156814106"><ele>505.0</ele><time>2026-04-01T08:01:46.999Z</time></trkpt><trkpt lat="45.61629996604286" lon="10.791078969069511"><ele>506.3333333333333</ele><time>2026-04-01T08:01:51.999Z</time></trkpt><trkpt lat="45.61629620528661" lon="10.790985693050223"><ele>507.66666666666663</ele><time>2026-04-01T08:01:54.999Z</time></trkpt><trkpt lat="45.61629744484703" lon="10.790880746270805"><ele>509.0</ele><time>2026-04-01T08:01:57.998Z</time></trkpt><trkpt lat="45.616306082862124" lon="10.790754873121587"><ele>512.3333333333333</ele><time>2026-04-01T08:02:01.998Z</time></trkpt><trkpt lat="45.616309471107684" lon="10.790664804269241"><ele>515.6666666666666</ele><time>2026-04-01T08:02:03.998Z</time></trkpt><trkpt lat="45.61632392758124" lon="10.790557113664402"><ele>519.0</ele><time>2026-04-01T08:02:05.998Z</time></trkpt><trkpt lat="45.61640047854846" lon="10.790557712288658"><ele>522.3333333333334</ele><time>2026-04-01T08:02:09Z</time></trkpt><trkpt lat="45.61645772344496" lon="10.790438335516308"><ele>525.6666666666667</ele><time>2026-04-01T08:02:12Z</time></trkpt><trkpt lat="45.61650575181006" lon="10.790328881055082"><ele>529.0</ele><time>2026-04-01T08:02:14Z</time></trkpt><trkpt lat="45.616569908470204" lon="10.790203132146091"><ele>529.0</ele><time>2026-04-01T08:02:16Z</time></trkpt><trkpt lat="45.61659597377584" lon="10.790117739762023"><ele>529.0</ele><time>2026-04-01T08:02:18Z</time></trkpt><trkpt lat="45.616642743009905" lon="10.790183440419987"><ele>529.0</ele><time>2026-04-01T08:02:20Z</time></trkpt><trkpt lat="45.61671785556635" lon="10.790095736940673"><ele>529.0</ele><time>2026-04-01T08:02:25Z</time></trkpt><trkpt lat="45.61676195077441" lon="10.790029619952751"><ele>529.0</ele><time>2026-04-01T08:02:27Z</time></trkpt><trkpt lat="45.61684587368464" lon="10.789959178534136"><ele>529.0</ele><time>2026-04-01T08:02:43Z</time></trkpt><trkpt lat="45.61681052068417" lon="10.789867239810725"><ele>532.2</ele><time>2026-04-01T08:02:45Z</time></trkpt><trkpt lat="45.61672657564913" lon="10.789750887985212"><ele>535.4</ele><time>2026-04-01T08:02:47Z</time></trkpt><trkpt lat="45.61662957118181" lon="10.789648154791788"><ele>538.6</ele><time>2026-04-01T08:02:49Z</time></trkpt><trkpt lat="45.616555970524075" lon="10.789629712153396"><ele>541.8</ele><time>2026-04-01T08:02:50Z</time></trkpt><trkpt lat="45.61647913610847" lon="10.789598155565635"><ele>545.0</ele><time>2026-04-01T08:02:51Z</time></trkpt><trkpt lat="45.616427817730276" lon="10.789521098662325"><ele>545.0</ele><time>2026-04-01T08:02:52Z</time></trkpt><trkpt lat="45.616360176112636" lon="10.789483459462362"><ele>545.0</ele><time>2026-04-01T08:02:53Z</time></trkpt><trkpt lat="45.61626785351074" lon="10.78941941382707"><ele>545.0</ele><time>2026-04-01T08:02:54Z</time></trkpt><trkpt lat="45.61619092409167" lon="10.789339049508195"><ele>545.0</ele><time>2026-04-01T08:02:54.999Z</time></trkpt><trkpt lat="45.61612004638753" lon="10.789267372119298"><ele>545.0</ele><time>2026-04-01T08:02:55.999Z</time></trkpt><trkpt lat="45.616067111634536" lon="10.78920626488918"><ele>545.0</ele><time>2026-04-01T08:02:56.999Z</time></trkpt><trkpt lat="45.61599999801154" lon="10.78912641768029"><ele>545.1666666666666</ele><time>2026-04-01T08:02:57.999Z</time></trkpt><trkpt lat="45.61593843647055" lon="10.789038634937455"><ele>545.3333333333333</ele><time>2026-04-01T08:02:58.999Z</time></trkpt><trkpt lat="45.61588886933073" lon="10.788938279516433"><ele>545.5</ele><time>2026-04-01T08:02:59.999Z</time></trkpt><trkpt lat="45.61584624744673" lon="10.78883677554397"><ele>545.6666666666666</ele><time>2026-04-01T08:03:00.999Z</time></trkpt><trkpt lat="45.61581020335826" lon="10.788712624295455"><ele>545.8333333333334</ele><time>2026-04-01T08:03:01.999Z</time></trkpt><trkpt lat="45.61576638363859" lon="10.788591890739033"><ele>546.0</ele><time>2026-04-01T08:03:02.999Z</time></trkpt><trkpt lat="45.61573774703179" lon="10.788502265478519"><ele>546.0</ele><time>2026-04-01T08:03:03.999Z</time></trkpt><trkpt lat="45.615722366947665" lon="10.788403044170249"><ele>546.0</ele><time>2026-04-01T08:03:04.999Z</time></trkpt><trkpt lat="45.61569368962313" lon="10.788309593426169"><ele>546.0</ele><time>2026-04-01T08:03:05.999Z</time></trkpt><trkpt lat="45.61565175431551" lon="10.788213099236653"><ele>546.0</ele><time>2026-04-01T08:03:06.999Z</time></trkpt><trkpt lat="45.6156141602886" lon="10.788119792377703"><ele>546.0</ele><time>2026-04-01T08:03:07.999Z</time></trkpt><trkpt lat="45.61557867152995" lon="10.788024019841513"><ele>546.0</ele><time>2026-04-01T08:03:08.999Z</time></trkpt><trkpt lat="45.615536237667946" lon="10.787956570567445"><ele>546.0</ele><time>2026-04-01T08:03:09.999Z</time></trkpt><trkpt lat="45.61549206674165" lon="10.787882580357563"><ele>546.0</ele><time>2026-04-01T08:03:10.999Z</time></trkpt><trkpt lat="45.615476864111315" lon="10.78770029969154"><ele>546.0</ele><time>2026-04-01T08:03:12.999Z</time></trkpt><trkpt lat="45.615462398056955" lon="10.787597774777577"><ele>546.0</ele><time>2026-04-01T08:03:13.999Z</time></trkpt><trkpt lat="45.61546990393153" lon="10.787506013881444"><ele>546.0</ele><time>2026-04-01T08:03:14.999Z</time></trkpt><trkpt lat="45.615468308913144" lon="10.787362265710534"><ele>546.0</ele><time>2026-04-01T08:03:15.999Z</time></trkpt><trkpt lat="45.61548035122624" lon="10.78725804963012"><ele>546.0</ele><time>2026-04-01T08:03:16.999Z</time></trkpt><trkpt lat="45.61546066886171" lon="10.787131787797644"><ele>546.8333333333334</ele><time>2026-04-01T08:03:18.999Z</time></trkpt><trkpt lat="45.615440885937225" lon="10.786996794456343"><ele>547.6666666666666</ele><time>2026-04-01T08:03:20.999Z</time></trkpt><trkpt lat="45.61547512528083" lon="10.786905538256052"><ele>548.5</ele><time>2026-04-01T08:03:21.999Z</time></trkpt><trkpt lat="45.6155367365918" lon="10.786809515177415"><ele>549.3333333333333</ele><time>2026-04-01T08:03:23.999Z</time></trkpt><trkpt lat="45.61555654549575" lon="10.786689803931637"><ele>550.1666666666666</ele><time>2026-04-01T08:03:29.999Z</time></trkpt><trkpt lat="45.61559993992014" lon="10.786622027287546"><ele>551.0</ele><time>2026-04-01T08:03:31.999Z</time></trkpt><trkpt lat="45.615675909971785" lon="10.786532708211508"><ele>550.9999999999999</ele><time>2026-04-01T08:03:34.999Z</time></trkpt><trkpt lat="45.615739550586014" lon="10.786478901342418"><ele>551.0</ele><time>2026-04-01T08:03:37.999Z</time></trkpt><trkpt lat="45.61579496653418" lon="10.786414612529812"><ele>551.0</ele><time>2026-04-01T08:03:50.999Z</time></trkpt><trkpt lat="45.61585799821066" lon="10.786404971187428"><ele>551.0</ele><time>2026-04-01T08:03:54.999Z</time></trkpt><trkpt lat="45.61592118457583" lon="10.78639230608717"><ele>551.0</ele><time>2026-04-01T08:04:15Z</time></trkpt><trkpt lat="45.61597654792958" lon="10.786340942253968"><ele>550.9999999999999</ele><time>2026-04-01T08:07:35.999Z</time></trkpt><trkpt lat="45.61605009346189" lon="10.786235501557297"><ele>551.0</ele><time>2026-04-01T08:07:39.999Z</time></trkpt><trkpt lat="45.61611305583518" lon="10.7861269320711"><ele>557.1666666666666</ele><time>2026-04-01T08:07:41.999Z</time></trkpt><trkpt lat="45.616177338100194" lon="10.785985004045015"><ele>563.3333333333333</ele><time>2026-04-01T08:07:43.999Z</time></trkpt><trkpt lat="45.61620887274315" lon="10.785887983944148"><ele>569.5</ele><time>2026-04-01T08:07:44.999Z</time></trkpt><trkpt lat="45.61623050824558" lon="10.785793906420547"><ele>575.6666666666666</ele><time>2026-04-01T08:07:45.999Z</time></trkpt><trkpt lat="45.6162541630202" lon="10.78567715036114"><ele>581.8333333333334</ele><time>2026-04-01T08:07:46.999Z</time></trkpt><trkpt lat="45.61627497795155" lon="10.785559174755202"><ele>588.0</ele><time>2026-04-01T08:07:47.999Z</time></trkpt><trkpt lat="45.61628946803621" lon="10.785445458024471"><ele>588.0</ele><time>2026-04-01T08:07:48.999Z</time></trkpt><trkpt lat="45.616351491252985" lon="10.785303338559588"><ele>588.0</ele><time>2026-04-01T08:07:50.999Z</time></trkpt><trkpt lat="45.61635982602764" lon="10.78515507372264"><ele>588.0</ele><time>2026-04-01T08:07:52.999Z</time></trkpt><trkpt lat="45.61638093697258" lon="10.785003744472899"><ele>588.0</ele><time>2026-04-01T08:07:54.999Z</time></trkpt><trkpt lat="45.61644362110354" lon="10.784884122520491"><ele>588.0</ele><time>2026-04-01T08:07:57.999Z</time></trkpt><trkpt lat="45.6164543351048" lon="10.784782385138449"><ele>586.5</ele><time>2026-04-01T08:07:59.999Z</time></trkpt><trkpt lat="45.616487322815736" lon="10.784704329433875"><ele>585.0</ele><time>2026-04-01T08:08:01.999Z</time></trkpt><trkpt lat="45.61655146243559" lon="10.784620806801684"><ele>583.5</ele><time>2026-04-01T08:08:03.999Z</time></trkpt><trkpt lat="45.61661141785449" lon="10.78458737406495"><ele>582.0</ele><time>2026-04-01T08:08:05.999Z</time></trkpt><trkpt lat="45.61667699939901" lon="10.784525120312376"><ele>580.5</ele><time>2026-04-01T08:08:07.999Z</time></trkpt><trkpt lat="45.616737185974046" lon="10.784405739387125"><ele>579.0</ele><time>2026-04-01T08:08:09.999Z</time></trkpt><trkpt lat="45.61678273753002" lon="10.78432704363648"><ele>577.4</ele><time>2026-04-01T08:08:10.999Z</time></trkpt><trkpt lat="45.61685445479759" lon="10.784226220766863"><ele>575.8</ele><time>2026-04-01T08:08:11.999Z</time></trkpt><trkpt lat="45.61691279242473" lon="10.784116729210345"><ele>574.2</ele><time>2026-04-01T08:08:12.999Z</time></trkpt><trkpt lat="45.61696037885002" lon="10.784019441175142"><ele>572.6</ele><time>2026-04-01T08:08:13.999Z</time></trkpt><trkpt lat="45.617025152727095" lon="10.78393507842641"><ele>571.0</ele><time>2026-04-01T08:08:14.999Z</time></trkpt><trkpt lat="45.617098559830126" lon="10.783842711595168"><ele>576.3333333333334</ele><time>2026-04-01T08:08:15.999Z</time></trkpt><trkpt lat="45.61715871272593" lon="10.783770259915247"><ele>581.6666666666667</ele><time>2026-04-01T08:08:16.998Z</time></trkpt><trkpt lat="45.61722328086978" lon="10.783713463707898"><ele>587.0</ele><time>2026-04-01T08:08:17.998Z</time></trkpt><trkpt lat="45.617283496509195" lon="10.783657315789837"><ele>592.3333333333334</ele><time>2026-04-01T08:08:18.998Z</time></trkpt><trkpt lat="45.61734405485654" lon="10.783604865675908"><ele>597.6666666666666</ele><time>2026-04-01T08:08:19.998Z</time></trkpt><trkpt lat="45.61741803136134" lon="10.783534054345845"><ele>603.0</ele><time>2026-04-01T08:08:20.998Z</time></trkpt><trkpt lat="45.61749814077863" lon="10.783461754968295"><ele>603.0</ele><time>2026-04-01T08:08:21.998Z</time></trkpt><trkpt lat="45.61754968767762" lon="10.78334170098851"><ele>603.0</ele><time>2026-04-01T08:08:22.998Z</time></trkpt><trkpt lat="45.617650299006826" lon="10.783252216052942"><ele>603.0</ele><time>2026-04-01T08:08:23.998Z</time></trkpt><trkpt lat="45.61771614738288" lon="10.783146857568042"><ele>603.0</ele><time>2026-04-01T08:08:24.998Z</time></trkpt><trkpt lat="45.6177791169973" lon="10.783052239059845"><ele>603.0</ele><time>2026-04-01T08:08:26Z</time></trkpt><trkpt lat="45.617822034360096" lon="10.78293743767736"><ele>612.2</ele><time>2026-04-01T08:08:27Z</time></trkpt><trkpt lat="45.61785832225211" lon="10.782801804322714"><ele>621.4</ele><time>2026-04-01T08:08:28Z</time></trkpt><trkpt lat="45.61787545364366" lon="10.782676291764133"><ele>630.6</ele><time>2026-04-01T08:08:29Z</time></trkpt><trkpt lat="45.617896811316164" lon="10.782542066717122"><ele>639.8000000000001</ele><time>2026-04-01T08:08:30Z</time></trkpt><trkpt lat="45.617914483544624" lon="10.78240394699406"><ele>649.0</ele><time>2026-04-01T08:08:31Z</time></trkpt><trkpt lat="45.61793259867711" lon="10.782278773958078"><ele>649.0</ele><time>2026-04-01T08:08:32Z</time></trkpt><trkpt lat="45.617950046341846" lon="10.78215221353034"><ele>649.0</ele><time>2026-04-01T08:08:33Z</time></trkpt><trkpt lat="45.61797934316515" lon="10.782020950245741"><ele>649.0</ele><time>2026-04-01T08:08:34Z</time></trkpt><trkpt lat="45.61802789410394" lon="10.781874359147212"><ele>649.0</ele><time>2026-04-01T08:08:35Z</time></trkpt><trkpt lat="45.618070132203904" lon="10.781713233797891"><ele>649.0</ele><time>2026-04-01T08:08:36Z</time></trkpt><trkpt lat="45.61810003674596" lon="10.781568247269536"><ele>647.6</ele><time>2026-04-01T08:08:37Z</time></trkpt><trkpt lat="45.61813746496454" lon="10.781416480805236"><ele>646.2</ele><time>2026-04-01T08:08:38Z</time></trkpt><trkpt lat="45.61818166764474" lon="10.78127304536511"><ele>644.8000000000001</ele><time>2026-04-01T08:08:39Z</time></trkpt><trkpt lat="45.618224154545516" lon="10.781125878735999"><ele>643.4000000000001</ele><time>2026-04-01T08:08:40Z</time></trkpt><trkpt lat="45.618264683401065" lon="10.78098820658708"><ele>642.0</ele><time>2026-04-01T08:08:41Z</time></trkpt><trkpt lat="45.61830457129741" lon="10.780853545543872"><ele>641.0</ele><time>2026-04-01T08:08:42Z</time></trkpt><trkpt lat="45.61835722149648" lon="10.780725774022951"><ele>640.0</ele><time>2026-04-01T08:08:43Z</time></trkpt><trkpt lat="45.618413221449835" lon="10.780600825976672"><ele>639.0</ele><time>2026-04-01T08:08:44Z</time></trkpt><trkpt lat="45.61847441964051" lon="10.780487689674244"><ele>638.0</ele><time>2026-04-01T08:08:45Z</time></trkpt><trkpt lat="45.61854750110786" lon="10.780376298926017"><ele>637.0</ele><time>2026-04-01T08:08:46Z</time></trkpt><trkpt lat="45.618621115956195" lon="10.780264766270653"><ele>646.4000000000001</ele><time>2026-04-01T08:08:47Z</time></trkpt><trkpt lat="45.61869273911496" lon="10.78016368887223"><ele>655.8000000000001</ele><time>2026-04-01T08:08:48Z</time></trkpt><trkpt lat="45.61874436620478" lon="10.78005325281273"><ele>665.2</ele><time>2026-04-01T08:08:49Z</time></trkpt><trkpt lat="45.61880127932046" lon="10.779922159635694"><ele>674.6</ele><time>2026-04-01T08:08:50Z</time></trkpt><trkpt lat="45.61886106610837" lon="10.779790337519527"><ele>684.0</ele><time>2026-04-01T08:08:51Z</time></trkpt><trkpt lat="45.618936866467585" lon="10.779656325710418"><ele>684.0</ele><time>2026-04-01T08:08:52Z</time></trkpt><trkpt lat="45.619010957989516" lon="10.779519219460866"><ele>684.0</ele><time>2026-04-01T08:08:53Z</time></trkpt><trkpt lat="45.61906535632522" lon="10.779433870160656"><ele>684.0</ele><time>2026-04-01T08:08:54Z</time></trkpt><trkpt lat="45.61911205057597" lon="10.779341210928555"><ele>684.0</ele><time>2026-04-01T08:08:55Z</time></trkpt><trkpt lat="45.61916586322135" lon="10.779278702408545"><ele>684.0</ele><time>2026-04-01T08:08:57Z</time></trkpt><trkpt lat="45.61922972708111" lon="10.77925810542304"><ele>684.0</ele><time>2026-04-01T08:09:06Z</time></trkpt><trkpt lat="45.619305201817824" lon="10.779186399838478"><ele>681.2</ele><time>2026-04-01T08:09:08Z</time></trkpt><trkpt lat="45.619367472320626" lon="10.779103924363831"><ele>678.4000000000001</ele><time>2026-04-01T08:09:10Z</time></trkpt><trkpt lat="45.61946229965334" lon="10.779065400492454"><ele>675.6</ele><time>2026-04-01T08:09:14.999Z</time></trkpt><trkpt lat="45.61955784067519" lon="10.779027084948616"><ele>672.8</ele><time>2026-04-01T08:09:17.999Z</time></trkpt><trkpt lat="45.61963732615932" lon="10.778977411972342"><ele>670.0</ele><time>2026-04-01T08:09:19.999Z</time></trkpt><trkpt lat="45.61972764329618" lon="10.778954584284124"><ele>678.0</ele><time>2026-04-01T08:09:22.999Z</time></trkpt><trkpt lat="45.61982785471378" lon="10.778904417118039"><ele>686.0</ele><time>2026-04-01T08:09:24.999Z</time></trkpt><trkpt lat="45.619893975227804" lon="10.778775714049917"><ele>694.0</ele><time>2026-04-01T08:09:26.999Z</time></trkpt><trkpt lat="45.619940172825814" lon="10.778639830036202"><ele>702.0</ele><time>2026-04-01T08:09:28.999Z</time></trkpt><trkpt lat="45.619969550353794" lon="10.778554336633228"><ele>710.0</ele><time>2026-04-01T08:09:29.999Z</time></trkpt><trkpt lat="45.62000474681209" lon="10.778474295861615"><ele>710.0</ele><time>2026-04-01T08:09:30.999Z</time></trkpt><trkpt lat="45.62005832760916" lon="10.77832882239814"><ele>710.0</ele><time>2026-04-01T08:09:32.999Z</time></trkpt><trkpt lat="45.62012359729571" lon="10.778206412643838"><ele>710.0</ele><time>2026-04-01T08:09:34.999Z</time></trkpt><trkpt lat="45.620173458393694" lon="10.778106520640309"><ele>710.0</ele><time>2026-04-01T08:09:38.999Z</time></trkpt><trkpt lat="45.6202213362295" lon="10.778046067752939"><ele>710.0</ele><time>2026-04-01T08:09:39.999Z</time></trkpt><trkpt lat="45.62028135963444" lon="10.777934339237644"><ele>718.5</ele><time>2026-04-01T08:09:41.999Z</time></trkpt><trkpt lat="45.62033174961948" lon="10.777812638106088"><ele>727.0</ele><time>2026-04-01T08:09:43.999Z</time></trkpt><trkpt lat="45.620400440553674" lon="10.777760320782996"><ele>735.5</ele><time>2026-04-01T08:09:53.999Z</time></trkpt><trkpt lat="45.620417374377006" lon="10.777888000819694"><ele>744.0</ele><time>2026-04-01T08:09:58.999Z</time></trkpt><trkpt lat="45.620425906805956" lon="10.777984591650405"><ele>752.5</ele><time>2026-04-01T08:10:00.999Z</time></trkpt><trkpt lat="45.62049014001796" lon="10.777974701612825"><ele>761.0</ele><time>2026-04-01T08:10:03.999Z</time></trkpt><trkpt lat="45.62056086326226" lon="10.777977640491631"><ele>760.9999999999999</ele><time>2026-04-01T08:10:05.999Z</time></trkpt><trkpt lat="45.62062087231832" lon="10.777927092430213"><ele>761.0</ele><time>2026-04-01T08:10:07.999Z</time></trkpt><trkpt lat="45.6206748314998" lon="10.777880617420148"><ele>761.0</ele><time>2026-04-01T08:10:10.999Z</time></trkpt><trkpt lat="45.620704270006605" lon="10.777784268345034"><ele>761.0</ele><time>2026-04-01T08:10:12.999Z</time></trkpt><trkpt lat="45.62076242360298" lon="10.777734542581465"><ele>761.0</ele><time>2026-04-01T08:10:14.999Z</time></trkpt><trkpt lat="45.62080810313574" lon="10.77763917837397"><ele>760.9999999999999</ele><time>2026-04-01T08:10:16.999Z</time></trkpt><trkpt lat="45.620871610712605" lon="10.777591787550525"><ele>761.0</ele><time>2026-04-01T08:10:18.999Z</time></trkpt><trkpt lat="45.62093146993268" lon="10.777520524181357"><ele>762.6666666666666</ele><time>2026-04-01T08:10:21.999Z</time></trkpt><trkpt lat="45.621022748649786" lon="10.777482921880837"><ele>764.3333333333333</ele><time>2026-04-01T08:10:24.998Z</time></trkpt><trkpt lat="45.62108567239391" lon="10.777455493694234"><ele>766.0</ele><time>2026-04-01T08:10:27.998Z</time></trkpt><trkpt lat="45.62116029346355" lon="10.777424934796489"><ele>767.6666666666666</ele><time>2026-04-01T08:10:30.998Z</time></trkpt><trkpt lat="45.62123245369407" lon="10.777375316675787"><ele>769.3333333333334</ele><time>2026-04-01T08:10:34Z</time></trkpt><trkpt lat="45.621309454226335" lon="10.77733477635744"><ele>771.0</ele><time>2026-04-01T08:10:39Z</time></trkpt><trkpt lat="45.62141064873901" lon="10.777387560689577"><ele>771.0</ele><time>2026-04-01T08:11:03Z</time></trkpt><trkpt lat="45.62139876359673" lon="10.777476390221317"><ele>771.0</ele><time>2026-04-01T08:11:05Z</time></trkpt><trkpt lat="45.6213938187736" lon="10.777579500169677"><ele>771.0</ele><time>2026-04-01T08:11:09Z</time></trkpt><trkpt lat="45.62139606625453" lon="10.77769173496446"><ele>771.0</ele><time>2026-04-01T08:11:14Z</time></trkpt><trkpt lat="45.62142216816913" lon="10.777783781196838"><ele>771.0</ele><time>2026-04-01T08:11:17Z</time></trkpt><trkpt lat="45.62142136827237" lon="10.777885615804681"><ele>771.0</ele><time>2026-04-01T08:11:20Z</time></trkpt><trkpt lat="45.621412745677034" lon="10.777987354853352"><ele>771.0</ele><time>2026-04-01T08:11:23Z</time></trkpt><trkpt lat="45.62143139273956" lon="10.778077495468017"><ele>774.1666666666666</ele><time>2026-04-01T08:11:25Z</time></trkpt><trkpt lat="45.621434899583775" lon="10.778184692263665"><ele>777.3333333333333</ele><time>2026-04-01T08:11:26.999Z</time></trkpt><trkpt lat="45.62142897047881" lon="10.778275839277201"><ele>780.5</ele><time>2026-04-01T08:11:32.999Z</time></trkpt><trkpt lat="45.6214549422969" lon="10.778361722018365"><ele>783.6666666666666</ele><time>2026-04-01T08:11:34.999Z</time></trkpt><trkpt lat="45.62138106301676" lon="10.778502084410857"><ele>786.8333333333333</ele><time>2026-04-01T08:12:01.999Z</time></trkpt><trkpt lat="45.62136721892772" lon="10.778600277078038"><ele>790.0</ele><time>2026-04-01T08:12:06.999Z</time></trkpt><trkpt lat="45.621326856385906" lon="10.778691440704568"><ele>793.8571428571428</ele><time>2026-04-01T08:12:10.999Z</time></trkpt><trkpt lat="45.62132394080407" lon="10.778791657935109"><ele>797.7142857142858</ele><time>2026-04-01T08:12:13.999Z</time></trkpt><trkpt lat="45.6213471034709" lon="10.778886342954879"><ele>801.5714285714286</ele><time>2026-04-01T08:12:17.999Z</time></trkpt><trkpt lat="45.621390450395246" lon="10.77896420281449"><ele>805.4285714285713</ele><time>2026-04-01T08:12:19.999Z</time></trkpt><trkpt lat="45.62144080220107" lon="10.779048070700158"><ele>809.2857142857142</ele><time>2026-04-01T08:12:22.999Z</time></trkpt><trkpt lat="45.62142140487178" lon="10.779163416609173"><ele>813.1428571428571</ele><time>2026-04-01T08:25:03.999Z</time></trkpt><trkpt lat="45.62142336352239" lon="10.779272477939639"><ele>817.0</ele><time>2026-04-01T08:25:05.999Z</time></trkpt><trkpt lat="45.62142503508632" lon="10.779381710431316"><ele>816.9999999999999</ele><time>2026-04-01T08:25:07.999Z</time></trkpt><trkpt lat="45.621498032930035" lon="10.779393113952798"><ele>817.0</ele><time>2026-04-01T08:25:11.998Z</time></trkpt><trkpt lat="45.62157070429576" lon="10.779281530526772"><ele>817.0</ele><time>2026-04-01T08:25:14Z</time></trkpt><trkpt lat="45.62162159517385" lon="10.779224141730197"><ele>817.0</ele><time>2026-04-01T08:25:15Z</time></trkpt><trkpt lat="45.62170529234538" lon="10.779168331852823"><ele>816.9999999999999</ele><time>2026-04-01T08:25:17Z</time></trkpt><trkpt lat="45.62180037207975" lon="10.779165657130998"><ele>817.0</ele><time>2026-04-01T08:25:19Z</time></trkpt><trkpt lat="45.62184864042272" lon="10.77924292444124"><ele>817.0</ele><time>2026-04-01T08:25:21Z</time></trkpt><trkpt lat="45.62181696452172" lon="10.779341934929468"><ele>817.0</ele><time>2026-04-01T08:25:23Z</time></trkpt><trkpt lat="45.62184859969283" lon="10.779456450391386"><ele>817.0</ele><time>2026-04-01T08:25:26Z</time></trkpt><trkpt lat="45.621923628194594" lon="10.77944693396588"><ele>817.0</ele><time>2026-04-01T08:25:28Z</time></trkpt><trkpt lat="45.6220144665006" lon="10.779540215918223"><ele>817.0</ele><time>2026-04-01T08:25:30Z</time></trkpt><trkpt lat="45.62207772175896" lon="10.779653412571726"><ele>823.3333333333333</ele><time>2026-04-01T08:25:32Z</time></trkpt><trkpt lat="45.6221255521902" lon="10.779713955141084"><ele>829.6666666666666</ele><time>2026-04-01T08:25:33Z</time></trkpt><trkpt lat="45.62219368395002" lon="10.77974747199969"><ele>836.0</ele><time>2026-04-01T08:25:34Z</time></trkpt><trkpt lat="45.6222526555086" lon="10.779678310083295"><ele>842.3333333333333</ele><time>2026-04-01T08:25:36Z</time></trkpt><trkpt lat="45.62234646543838" lon="10.779621183821325"><ele>848.6666666666666</ele><time>2026-04-01T08:25:38Z</time></trkpt><trkpt lat="45.62244587522165" lon="10.779604589776831"><ele>855.0</ele><time>2026-04-01T08:25:40Z</time></trkpt><trkpt lat="45.6225394822849" lon="10.779619184676582"><ele>855.0</ele><time>2026-04-01T08:25:42Z</time></trkpt><trkpt lat="45.62260388340911" lon="10.779704734859967"><ele>855.0</ele><time>2026-04-01T08:25:46Z</time></trkpt><trkpt lat="45.62267106812126" lon="10.779774921467615"><ele>855.0</ele><time>2026-04-01T08:25:49Z</time></trkpt><trkpt lat="45.62273694130322" lon="10.779741963259324"><ele>855.0</ele><time>2026-04-01T08:25:51Z</time></trkpt><trkpt lat="45.622789512184234" lon="10.779801689283318"><ele>855.0</ele><time>2026-04-01T08:25:54Z</time></trkpt><trkpt lat="45.622844947438914" lon="10.779872571185809"><ele>855.0</ele><time>2026-04-01T08:25:56Z</time></trkpt><trkpt lat="45.62291605724704" lon="10.779834642809357"><ele>857.5</ele><time>2026-04-01T08:25:59Z</time></trkpt><trkpt lat="45.62297217712876" lon="10.779884722302846"><ele>860.0</ele><time>2026-04-01T08:26:02Z</time></trkpt><trkpt lat="45.62297398193353" lon="10.779989982809315"><ele>862.5</ele><time>2026-04-01T08:26:04Z</time></trkpt><trkpt lat="45.62299923496646" lon="10.780090652347337"><ele>865.0</ele><time>2026-04-01T08:26:06Z</time></trkpt><trkpt lat="45.62308532724731" lon="10.780120572875335"><ele>867.5</ele><time>2026-04-01T08:26:07.999Z</time></trkpt><trkpt lat="45.62318917923545" lon="10.780086227981238"><ele>870.0</ele><time>2026-04-01T08:26:09.999Z</time></trkpt><trkpt lat="45.62326784870281" lon="10.780072325403308"><ele>870.0</ele><time>2026-04-01T08:26:14.999Z</time></trkpt><trkpt lat="45.62336789824345" lon="10.780046696251018"><ele>870.0</ele><time>2026-04-01T08:26:28.999Z</time></trkpt><trkpt lat="45.62343506994145" lon="10.780022665717162"><ele>870.0</ele><time>2026-04-01T08:26:29.999Z</time></trkpt><trkpt lat="45.623499008791775" lon="10.780016814208661"><ele>870.0</ele><time>2026-04-01T08:26:30.999Z</time></trkpt><trkpt lat="45.623608645494976" lon="10.780014246652692"><ele>870.0</ele><time>2026-04-01T08:26:32.999Z</time></trkpt><trkpt lat="45.623739261211625" lon="10.78001033063296"><ele>872.6</ele><time>2026-04-01T08:26:34.999Z</time></trkpt><trkpt lat="45.62383989581546" lon="10.780066033009335"><ele>875.2</ele><time>2026-04-01T08:26:36.999Z</time></trkpt><trkpt lat="45.623933128282594" lon="10.780041720112278"><ele>877.8</ele><time>2026-04-01T08:26:38.999Z</time></trkpt><trkpt lat="45.62401080499801" lon="10.780046392586947"><ele>880.4</ele><time>2026-04-01T08:26:39.999Z</time></trkpt><trkpt lat="45.624076655350734" lon="10.780049503536805"><ele>883.0</ele><time>2026-04-01T08:26:40.999Z</time></trkpt><trkpt lat="45.624206487938395" lon="10.780023216186354"><ele>883.0</ele><time>2026-04-01T08:26:42.999Z</time></trkpt><trkpt lat="45.62426738460641" lon="10.780047504291614"><ele>883.0</ele><time>2026-04-01T08:26:43.999Z</time></trkpt><trkpt lat="45.62438417189976" lon="10.780021492562344"><ele>883.0</ele><time>2026-04-01T08:26:45.999Z</time></trkpt><trkpt lat="45.62444915692376" lon="10.78000354763553"><ele>883.0</ele><time>2026-04-01T08:26:46.999Z</time></trkpt><trkpt lat="45.62456102908803" lon="10.77992265538102"><ele>883.0</ele><time>2026-04-01T08:26:48.999Z</time></trkpt><trkpt lat="45.62463647831811" lon="10.779880600298892"><ele>885.8333333333333</ele><time>2026-04-01T08:26:49.999Z</time></trkpt><trkpt lat="45.624720354879166" lon="10.779867138642487"><ele>888.6666666666666</ele><time>2026-04-01T08:26:50.999Z</time></trkpt><trkpt lat="45.62480151360291" lon="10.779874981167906"><ele>891.5</ele><time>2026-04-01T08:26:51.999Z</time></trkpt><trkpt lat="45.624860909620004" lon="10.779839094963434"><ele>894.3333333333333</ele><time>2026-04-01T08:26:52.999Z</time></trkpt><trkpt lat="45.624954004624385" lon="10.779828597459181"><ele>897.1666666666666</ele><time>2026-04-01T08:26:54.999Z</time></trkpt><trkpt lat="45.62503502120045" lon="10.779836404775258"><ele>900.0</ele><time>2026-04-01T08:26:56.999Z</time></trkpt><trkpt lat="45.62512165427075" lon="10.779779495433171"><ele>900.0</ele><time>2026-04-01T08:26:58.999Z</time></trkpt><trkpt lat="45.62517378813174" lon="10.779621751785822"><ele>900.0</ele><time>2026-04-01T08:27:00.999Z</time></trkpt><trkpt lat="45.62524109552012" lon="10.779562119842701"><ele>900.0</ele><time>2026-04-01T08:27:01.999Z</time></trkpt><trkpt lat="45.625310547533026" lon="10.779507415991217"><ele>900.0</ele><time>2026-04-01T08:27:02.999Z</time></trkpt><trkpt lat="45.625369873073474" lon="10.779454296677585"><ele>900.0</ele><time>2026-04-01T08:27:03.999Z</time></trkpt><trkpt lat="45.62542831659157" lon="10.779309813372587"><ele>901.3333333333334</ele><time>2026-04-01T08:27:05.999Z</time></trkpt><trkpt lat="45.62546678522755" lon="10.77921177489717"><ele>902.6666666666667</ele><time>2026-04-01T08:27:06.999Z</time></trkpt><trkpt lat="45.62548367196148" lon="10.779108419598064"><ele>904.0</ele><time>2026-04-01T08:27:11.999Z</time></trkpt><trkpt lat="45.625536224378315" lon="10.778999517927856"><ele>905.3333333333334</ele><time>2026-04-01T08:27:22Z</time></trkpt><trkpt lat="45.6256088989393" lon="10.778963765431095"><ele>906.6666666666667</ele><time>2026-04-01T08:27:24Z</time></trkpt><trkpt lat="45.62565675538109" lon="10.778871352986723"><ele>908.0</ele><time>2026-04-01T08:27:26Z</time></trkpt><trkpt lat="45.62572650965616" lon="10.7787467828821"><ele>908.0</ele><time>2026-04-01T08:27:28Z</time></trkpt><trkpt lat="45.62580100667666" lon="10.778678952807912"><ele>908.0</ele><time>2026-04-01T08:27:30Z</time></trkpt><trkpt lat="45.625865226566326" lon="10.778525876162522"><ele>908.0</ele><time>2026-04-01T08:27:32Z</time></trkpt><trkpt lat="45.62590529578298" lon="10.77840179442792"><ele>908.0</ele><time>2026-04-01T08:27:34Z</time></trkpt><trkpt lat="45.625963248092155" lon="10.778258471889025"><ele>908.0</ele><time>2026-04-01T08:27:36Z</time></trkpt><trkpt lat="45.62601166559623" lon="10.778182593281155"><ele>909.4</ele><time>2026-04-01T08:27:37Z</time></trkpt><trkpt lat="45.62608577718945" lon="10.778108551968351"><ele>910.8</ele><time>2026-04-01T08:27:38Z</time></trkpt><trkpt lat="45.62615498304822" lon="10.778045747683587"><ele>912.2</ele><time>2026-04-01T08:27:39Z</time></trkpt><trkpt lat="45.62624854423109" lon="10.7779393070632"><ele>913.6</ele><time>2026-04-01T08:27:41Z</time></trkpt><trkpt lat="45.626263410554" lon="10.77784906931943"><ele>915.0</ele><time>2026-04-01T08:27:42Z</time></trkpt><trkpt lat="45.62629132204516" lon="10.777717278538809"><ele>913.3333333333334</ele><time>2026-04-01T08:27:44Z</time></trkpt><trkpt lat="45.626343416893455" lon="10.777613719765121"><ele>911.6666666666667</ele><time>2026-04-01T08:27:46Z</time></trkpt><trkpt lat="45.626379441390625" lon="10.777524992518595"><ele>910.0</ele><time>2026-04-01T08:27:48Z</time></trkpt><trkpt lat="45.62641248305018" lon="10.777430146902901"><ele>908.3333333333334</ele><time>2026-04-01T08:27:53Z</time></trkpt><trkpt lat="45.62644945018123" lon="10.777299389849867"><ele>906.6666666666667</ele><time>2026-04-01T08:27:55Z</time></trkpt><trkpt lat="45.626499105989346" lon="10.7772244025143"><ele>905.0</ele><time>2026-04-01T08:27:57Z</time></trkpt><trkpt lat="45.62653533546552" lon="10.777127675741568"><ele>905.0000000000001</ele><time>2026-04-01T08:27:59Z</time></trkpt><trkpt lat="45.6265797408154" lon="10.777042960623756"><ele>905.0</ele><time>2026-04-01T08:28:01Z</time></trkpt><trkpt lat="45.62660305073401" lon="10.776947717086236"><ele>905.0</ele><time>2026-04-01T08:28:03Z</time></trkpt><trkpt lat="45.62661433459714" lon="10.776852341987944"><ele>905.0</ele><time>2026-04-01T08:28:05Z</time></trkpt><trkpt lat="45.626646597937764" lon="10.77667317077159"><ele>905.0000000000001</ele><time>2026-04-01T08:28:08Z</time></trkpt><trkpt lat="45.62666959187273" lon="10.776531598902658"><ele>905.0</ele><time>2026-04-01T08:28:10Z</time></trkpt><trkpt lat="45.62673973354614" lon="10.776408841431145"><ele>903.8333333333334</ele><time>2026-04-01T08:28:12Z</time></trkpt><trkpt lat="45.62677319463094" lon="10.77632016285404"><ele>902.6666666666667</ele><time>2026-04-01T08:28:13Z</time></trkpt><trkpt lat="45.62684795804752" lon="10.776194013452233"><ele>901.5</ele><time>2026-04-01T08:28:15Z</time></trkpt><trkpt lat="45.626890044821586" lon="10.77612499001684"><ele>900.3333333333333</ele><time>2026-04-01T08:28:15.999Z</time></trkpt><trkpt lat="45.62693733065548" lon="10.776060932184313"><ele>899.1666666666666</ele><time>2026-04-01T08:28:16.999Z</time></trkpt><trkpt lat="45.62703173431277" lon="10.775963810450735"><ele>898.0</ele><time>2026-04-01T08:28:18.999Z</time></trkpt><trkpt lat="45.62708818646491" lon="10.775868055383476"><ele>898.0</ele><time>2026-04-01T08:28:20.999Z</time></trkpt><trkpt lat="45.62714482749937" lon="10.775719363256158"><ele>898.0</ele><time>2026-04-01T08:28:22.999Z</time></trkpt><trkpt lat="45.627218909005876" lon="10.77559314631325"><ele>898.0</ele><time>2026-04-01T08:28:24.999Z</time></trkpt><trkpt lat="45.627281118736384" lon="10.775491872412115"><ele>898.0</ele><time>2026-04-01T08:28:25.999Z</time></trkpt><trkpt lat="45.627299794918706" lon="10.775391858133803"><ele>898.0</ele><time>2026-04-01T08:28:26.999Z</time></trkpt><trkpt lat="45.62730400029681" lon="10.775293215806618"><ele>895.6666666666666</ele><time>2026-04-01T08:28:27.999Z</time></trkpt><trkpt lat="45.62733527080284" lon="10.775117613555604"><ele>893.3333333333333</ele><time>2026-04-01T08:28:29.999Z</time></trkpt><trkpt lat="45.627389421181356" lon="10.775045009861884"><ele>891.0</ele><time>2026-04-01T08:28:30.999Z</time></trkpt><trkpt lat="45.62744179985887" lon="10.77494593241828"><ele>888.6666666666667</ele><time>2026-04-01T08:28:31.999Z</time></trkpt><trkpt lat="45.627495671253726" lon="10.774876325989506"><ele>886.3333333333334</ele><time>2026-04-01T08:28:32.999Z</time></trkpt><trkpt lat="45.62753813358439" lon="10.774807587026215"><ele>884.0</ele><time>2026-04-01T08:28:33.999Z</time></trkpt><trkpt lat="45.627644068935275" lon="10.77475321630438"><ele>884.0</ele><time>2026-04-01T08:28:35.999Z</time></trkpt><trkpt lat="45.62776706663132" lon="10.774664208947195"><ele>884.0000000000001</ele><time>2026-04-01T08:28:37.999Z</time></trkpt><trkpt lat="45.62786740396834" lon="10.774676474510725"><ele>884.0000000000001</ele><time>2026-04-01T08:28:38.999Z</time></trkpt><trkpt lat="45.627937260107714" lon="10.774614230041953"><ele>884.0</ele><time>2026-04-01T08:28:40.999Z</time></trkpt><trkpt lat="45.628014805085904" lon="10.77454078012421"><ele>884.0</ele><time>2026-04-01T08:28:41.999Z</time></trkpt><trkpt lat="45.6280755416701" lon="10.774449474986831"><ele>884.2</ele><time>2026-04-01T08:28:42.999Z</time></trkpt><trkpt lat="45.62814133249333" lon="10.774358961742651"><ele>884.4000000000001</ele><time>2026-04-01T08:28:43.999Z</time></trkpt><trkpt lat="45.628191738653804" lon="10.774279395525788"><ele>884.6</ele><time>2026-04-01T08:28:44.999Z</time></trkpt><trkpt lat="45.628234590601025" lon="10.774213194886345"><ele>884.8</ele><time>2026-04-01T08:28:45.999Z</time></trkpt><trkpt lat="45.62832388375135" lon="10.774064012550516"><ele>885.0</ele><time>2026-04-01T08:28:47.999Z</time></trkpt><trkpt lat="45.628372061503406" lon="10.773955255799661"><ele>885.0</ele><time>2026-04-01T08:28:48.999Z</time></trkpt><trkpt lat="45.62842862934225" lon="10.773878308706479"><ele>885.0</ele><time>2026-04-01T08:28:49.999Z</time></trkpt><trkpt lat="45.62846338969098" lon="10.773797558436852"><ele>885.0</ele><time>2026-04-01T08:28:50.999Z</time></trkpt><trkpt lat="45.62852111170928" lon="10.773671760982552"><ele>885.0</ele><time>2026-04-01T08:28:52.999Z</time></trkpt><trkpt lat="45.62852722383488" lon="10.773564849585465"><ele>885.0</ele><time>2026-04-01T08:29:21.999Z</time></trkpt><trkpt lat="45.62850164254198" lon="10.773481845916503"><ele>885.0</ele><time>2026-04-01T08:29:22.999Z</time></trkpt><trkpt lat="45.628453766046796" lon="10.77340736404474"><ele>883.0</ele><time>2026-04-01T08:29:23.999Z</time></trkpt><trkpt lat="45.628404319907936" lon="10.773342529281258"><ele>881.0</ele><time>2026-04-01T08:29:24.999Z</time></trkpt><trkpt lat="45.62833042586548" lon="10.773285001196939"><ele>879.0</ele><time>2026-04-01T08:29:26Z</time></trkpt><trkpt lat="45.628251171943326" lon="10.773230629126287"><ele>877.0</ele><time>2026-04-01T08:29:27Z</time></trkpt><trkpt lat="45.628165723794346" lon="10.773170193997084"><ele>875.0</ele><time>2026-04-01T08:29:28Z</time></trkpt><trkpt lat="45.6280876629564" lon="10.773137351557255"><ele>873.0</ele><time>2026-04-01T08:29:29Z</time></trkpt><trkpt lat="45.62800388330003" lon="10.773119773753661"><ele>873.0</ele><time>2026-04-01T08:29:30Z</time></trkpt><trkpt lat="45.62792749928412" lon="10.773137606027605"><ele>873.0</ele><time>2026-04-01T08:29:31Z</time></trkpt><trkpt lat="45.627863393096824" lon="10.773157097727"><ele>873.0</ele><time>2026-04-01T08:29:32Z</time></trkpt><trkpt lat="45.627784230241566" lon="10.773167378577035"><ele>873.0</ele><time>2026-04-01T08:29:34Z</time></trkpt><trkpt lat="45.62770946411308" lon="10.77313265186415"><ele>873.0</ele><time>2026-04-01T08:29:36Z</time></trkpt><trkpt lat="45.62766096886705" lon="10.773059280820865"><ele>873.0</ele><time>2026-04-01T08:29:37Z</time></trkpt><trkpt lat="45.627598120659165" lon="10.772937989671991"><ele>869.3333333333334</ele><time>2026-04-01T08:29:39Z</time></trkpt><trkpt lat="45.62753087028401" lon="10.772860830970544"><ele>865.6666666666667</ele><time>2026-04-01T08:29:41Z</time></trkpt><trkpt lat="45.62749574624474" lon="10.77278337089455"><ele>862.0</ele><time>2026-04-01T08:29:42Z</time></trkpt><trkpt lat="45.627476430666356" lon="10.772691376896908"><ele>858.3333333333334</ele><time>2026-04-01T08:29:43Z</time></trkpt><trkpt lat="45.62742748033296" lon="10.772561987402232"><ele>854.6666666666667</ele><time>2026-04-01T08:29:45Z</time></trkpt><trkpt lat="45.627405212900676" lon="10.77245599529516"><ele>851.0</ele><time>2026-04-01T08:29:47Z</time></trkpt><trkpt lat="45.627308363187" lon="10.772412511472206"><ele>848.6666666666667</ele><time>2026-04-01T08:29:50Z</time></trkpt><trkpt lat="45.62724281161983" lon="10.772445614331096"><ele>846.3333333333334</ele><time>2026-04-01T08:29:51Z</time></trkpt><trkpt lat="45.62717976628076" lon="10.772493185522773"><ele>844.0</ele><time>2026-04-01T08:29:52Z</time></trkpt><trkpt lat="45.62710849019798" lon="10.772553940080561"><ele>841.6666666666667</ele><time>2026-04-01T08:29:54Z</time></trkpt><trkpt lat="45.627041956587384" lon="10.772568029847793"><ele>839.3333333333334</ele><time>2026-04-01T08:29:56Z</time></trkpt><trkpt lat="45.62704046061327" lon="10.772421480815614"><ele>837.0</ele><time>2026-04-01T08:29:58Z</time></trkpt><trkpt lat="45.62706727714692" lon="10.772301332078232"><ele>837.0</ele><time>2026-04-01T08:29:59Z</time></trkpt><trkpt lat="45.62710265308632" lon="10.772152338928425"><ele>837.0</ele><time>2026-04-01T08:30:00Z</time></trkpt><trkpt lat="45.62714054079843" lon="10.772051216026203"><ele>837.0</ele><time>2026-04-01T08:30:01Z</time></trkpt><trkpt lat="45.62719784677334" lon="10.771945563950752"><ele>837.0</ele><time>2026-04-01T08:30:02Z</time></trkpt><trkpt lat="45.62729546203547" lon="10.771851266084408"><ele>837.0</ele><time>2026-04-01T08:30:03Z</time></trkpt><trkpt lat="45.62737799334429" lon="10.771731000670506"><ele>834.2</ele><time>2026-04-01T08:30:04Z</time></trkpt><trkpt lat="45.6274464413806" lon="10.771624536736725"><ele>831.4000000000001</ele><time>2026-04-01T08:30:05Z</time></trkpt><trkpt lat="45.6275122287718" lon="10.771522465996531"><ele>828.5999999999999</ele><time>2026-04-01T08:30:06Z</time></trkpt><trkpt lat="45.627568129526686" lon="10.771412611474744"><ele>825.8</ele><time>2026-04-01T08:30:07Z</time></trkpt><trkpt lat="45.627628064801186" lon="10.771296123176302"><ele>823.0</ele><time>2026-04-01T08:30:08Z</time></trkpt><trkpt lat="45.62767590353618" lon="10.771153811224947"><ele>819.5999999999999</ele><time>2026-04-01T08:30:09Z</time></trkpt><trkpt lat="45.62770937110165" lon="10.771009361856647"><ele>816.1999999999999</ele><time>2026-04-01T08:30:10Z</time></trkpt><trkpt lat="45.627727174487156" lon="10.770846328440593"><ele>812.8</ele><time>2026-04-01T08:30:11Z</time></trkpt><trkpt lat="45.6277383738483" lon="10.770686264623427"><ele>809.4</ele><time>2026-04-01T08:30:12Z</time></trkpt><trkpt lat="45.62776047919865" lon="10.770554949298253"><ele>806.0</ele><time>2026-04-01T08:30:13Z</time></trkpt><trkpt lat="45.62776983660824" lon="10.770402109347254"><ele>806.0</ele><time>2026-04-01T08:30:15Z</time></trkpt><trkpt lat="45.627739239077506" lon="10.770266054367555"><ele>806.0</ele><time>2026-04-01T08:30:16.999Z</time></trkpt><trkpt lat="45.627727380853734" lon="10.770163913810824"><ele>806.0</ele><time>2026-04-01T08:30:17.999Z</time></trkpt><trkpt lat="45.62773233541138" lon="10.77007227385987"><ele>806.0</ele><time>2026-04-01T08:30:18.999Z</time></trkpt><trkpt lat="45.62774142708757" lon="10.769972497607545"><ele>806.0</ele><time>2026-04-01T08:30:19.999Z</time></trkpt><trkpt lat="45.62772433786795" lon="10.769877585668539"><ele>806.0</ele><time>2026-04-01T08:30:20.999Z</time></trkpt><trkpt lat="45.62770325988502" lon="10.769779029197089"><ele>806.0</ele><time>2026-04-01T08:30:21.999Z</time></trkpt><trkpt lat="45.627677241714146" lon="10.769668913550579"><ele>803.1999999999999</ele><time>2026-04-01T08:30:22.999Z</time></trkpt><trkpt lat="45.62765322442895" lon="10.769550648802255"><ele>800.4</ele><time>2026-04-01T08:30:23.999Z</time></trkpt><trkpt lat="45.6276304336737" lon="10.769412458963897"><ele>797.6</ele><time>2026-04-01T08:30:24.999Z</time></trkpt><trkpt lat="45.62763112321987" lon="10.769267237676171"><ele>794.8</ele><time>2026-04-01T08:30:25.999Z</time></trkpt><trkpt lat="45.6275983443735" lon="10.769115537072226"><ele>792.0</ele><time>2026-04-01T08:30:26.999Z</time></trkpt><trkpt lat="45.62759603456072" lon="10.768963509367335"><ele>790.6</ele><time>2026-04-01T08:30:27.999Z</time></trkpt><trkpt lat="45.62757794271542" lon="10.768847547556499"><ele>789.2</ele><time>2026-04-01T08:30:28.999Z</time></trkpt><trkpt lat="45.627649273132434" lon="10.768686278479098"><ele>787.8</ele><time>2026-04-01T08:30:30.999Z</time></trkpt><trkpt lat="45.627686964516705" lon="10.768596316939615"><ele>786.4</ele><time>2026-04-01T08:30:31.999Z</time></trkpt><trkpt lat="45.62771162788898" lon="10.768493189226314"><ele>785.0</ele><time>2026-04-01T08:30:32.999Z</time></trkpt><trkpt lat="45.62773184089687" lon="10.768349497073785"><ele>783.0</ele><time>2026-04-01T08:30:34.999Z</time></trkpt><trkpt lat="45.62772461760897" lon="10.768233265410492"><ele>781.0</ele><time>2026-04-01T08:30:35.999Z</time></trkpt><trkpt lat="45.62769685353968" lon="10.768097002734832"><ele>779.0</ele><time>2026-04-01T08:30:37.999Z</time></trkpt><trkpt lat="45.62765475175607" lon="10.767961648038316"><ele>777.0</ele><time>2026-04-01T08:30:39.999Z</time></trkpt><trkpt lat="45.62755976292465" lon="10.767935525906042"><ele>775.0</ele><time>2026-04-01T08:30:41.999Z</time></trkpt><trkpt lat="45.62743967009467" lon="10.767894576192235"><ele>775.0</ele><time>2026-04-01T08:30:43.999Z</time></trkpt><trkpt lat="45.6273353371388" lon="10.767856445536488"><ele>775.0</ele><time>2026-04-01T08:30:44.999Z</time></trkpt><trkpt lat="45.62724089232464" lon="10.76786792408459"><ele>775.0</ele><time>2026-04-01T08:30:45.999Z</time></trkpt><trkpt lat="45.627156550428836" lon="10.767920942456989"><ele>775.0</ele><time>2026-04-01T08:30:46.999Z</time></trkpt><trkpt lat="45.62708564675215" lon="10.767937499972982"><ele>775.0</ele><time>2026-04-01T08:30:47.999Z</time></trkpt><trkpt lat="45.6269958355138" lon="10.767982315170077"><ele>769.9999999999999</ele><time>2026-04-01T08:30:48.999Z</time></trkpt><trkpt lat="45.62688383177944" lon="10.767967312277442"><ele>765.0</ele><time>2026-04-01T08:30:50.999Z</time></trkpt><trkpt lat="45.62681565088696" lon="10.767926683150307"><ele>760.0</ele><time>2026-04-01T08:30:52.999Z</time></trkpt><trkpt lat="45.62679290335192" lon="10.7678290523616"><ele>755.0</ele><time>2026-04-01T08:30:54.999Z</time></trkpt><trkpt lat="45.626822198632865" lon="10.767728942508516"><ele>750.0</ele><time>2026-04-01T08:30:55.999Z</time></trkpt><trkpt lat="45.62683465990201" lon="10.767625569526038"><ele>745.0</ele><time>2026-04-01T08:30:56.999Z</time></trkpt><trkpt lat="45.62686863362467" lon="10.767537208243382"><ele>744.0</ele><time>2026-04-01T08:30:57.999Z</time></trkpt><trkpt lat="45.62690289356653" lon="10.767454696803764"><ele>743.0</ele><time>2026-04-01T08:30:59.999Z</time></trkpt><trkpt lat="45.62682115559304" lon="10.767386503622445"><ele>742.0</ele><time>2026-04-01T08:31:03.999Z</time></trkpt><trkpt lat="45.62675810504666" lon="10.767354280004808"><ele>741.0</ele><time>2026-04-01T08:31:04.999Z</time></trkpt><trkpt lat="45.62664853423896" lon="10.767317541752616"><ele>740.0</ele><time>2026-04-01T08:31:06.999Z</time></trkpt><trkpt lat="45.626604586953924" lon="10.767221128859779"><ele>739.0</ele><time>2026-04-01T08:31:09.999Z</time></trkpt><trkpt lat="45.62664984467925" lon="10.767136850328693"><ele>739.0</ele><time>2026-04-01T08:31:10.999Z</time></trkpt><trkpt lat="45.62668290487758" lon="10.767036143140082"><ele>739.0</ele><time>2026-04-01T08:31:11.999Z</time></trkpt><trkpt lat="45.6267079559233" lon="10.766937064062418"><ele>739.0</ele><time>2026-04-01T08:31:13.999Z</time></trkpt><trkpt lat="45.62663087970439" lon="10.766820482935634"><ele>739.0</ele><time>2026-04-01T08:31:15.999Z</time></trkpt><trkpt lat="45.62654738775259" lon="10.766827341290167"><ele>739.0</ele><time>2026-04-01T08:31:16.999Z</time></trkpt><trkpt lat="45.626471745574584" lon="10.766913842441545"><ele>739.0</ele><time>2026-04-01T08:31:17.999Z</time></trkpt><trkpt lat="45.62638779388562" lon="10.76694745745583"><ele>739.0</ele><time>2026-04-01T08:31:18.999Z</time></trkpt><trkpt lat="45.62632464303053" lon="10.766997689080107"><ele>739.0</ele><time>2026-04-01T08:31:19.999Z</time></trkpt><trkpt lat="45.62626769317532" lon="10.767091405314003"><ele>739.0</ele><time>2026-04-01T08:31:21.999Z</time></trkpt><trkpt lat="45.6262134537878" lon="10.767284075168806"><ele>739.0</ele><time>2026-04-01T08:31:23.999Z</time></trkpt><trkpt lat="45.626183905910125" lon="10.76739510466434"><ele>739.0</ele><time>2026-04-01T08:31:24.999Z</time></trkpt><trkpt lat="45.626168024491086" lon="10.767520557599905"><ele>739.0</ele><time>2026-04-01T08:31:25.999Z</time></trkpt><trkpt lat="45.62614764763655" lon="10.767664752119462"><ele>739.0</ele><time>2026-04-01T08:31:26.999Z</time></trkpt><trkpt lat="45.626130748578774" lon="10.76779176780649"><ele>739.0</ele><time>2026-04-01T08:31:27.998Z</time></trkpt><trkpt lat="45.62608933080378" lon="10.767916335495903"><ele>739.0</ele><time>2026-04-01T08:31:28.998Z</time></trkpt><trkpt lat="45.62605099820983" lon="10.768074499482049"><ele>739.0</ele><time>2026-04-01T08:31:29.998Z</time></trkpt><trkpt lat="45.626001992703884" lon="10.768212761827172"><ele>732.4000000000001</ele><time>2026-04-01T08:31:30.998Z</time></trkpt><trkpt lat="45.625963705765955" lon="10.768379190870077"><ele>725.8</ele><time>2026-04-01T08:31:32Z</time></trkpt><trkpt lat="45.62591861727857" lon="10.76848408180288"><ele>719.2</ele><time>2026-04-01T08:31:33Z</time></trkpt><trkpt lat="45.62587321631605" lon="10.76860764191633"><ele>712.5999999999999</ele><time>2026-04-01T08:31:34Z</time></trkpt><trkpt lat="45.6258430724934" lon="10.768715700343312"><ele>706.0</ele><time>2026-04-01T08:31:35Z</time></trkpt><trkpt lat="45.62579628823562" lon="10.768902805524494"><ele>706.0</ele><time>2026-04-01T08:31:36Z</time></trkpt><trkpt lat="45.625736465245886" lon="10.769085997427107"><ele>706.0</ele><time>2026-04-01T08:31:37Z</time></trkpt><trkpt lat="45.62568699155943" lon="10.769260843982785"><ele>706.0</ele><time>2026-04-01T08:31:38Z</time></trkpt><trkpt lat="45.625644869819716" lon="10.76940787462195"><ele>706.0</ele><time>2026-04-01T08:31:39Z</time></trkpt><trkpt lat="45.6256021024313" lon="10.769543939196971"><ele>707.8333333333334</ele><time>2026-04-01T08:31:40Z</time></trkpt><trkpt lat="45.62556275968302" lon="10.76964324035054"><ele>709.6666666666667</ele><time>2026-04-01T08:31:41Z</time></trkpt><trkpt lat="45.625504958098254" lon="10.769708083763986"><ele>711.5</ele><time>2026-04-01T08:31:42Z</time></trkpt><trkpt lat="45.62544802710982" lon="10.769752593281439"><ele>713.3333333333334</ele><time>2026-04-01T08:31:43Z</time></trkpt><trkpt lat="45.62530927069112" lon="10.769830607831299"><ele>715.1666666666666</ele><time>2026-04-01T08:31:45Z</time></trkpt><trkpt lat="45.62524094029575" lon="10.769833438843433"><ele>717.0</ele><time>2026-04-01T08:31:46Z</time></trkpt><trkpt lat="45.62517698251806" lon="10.769815951151715"><ele>711.6666666666666</ele><time>2026-04-01T08:31:47Z</time></trkpt><trkpt lat="45.62509857603719" lon="10.769702878088852"><ele>706.3333333333334</ele><time>2026-04-01T08:31:49Z</time></trkpt><trkpt lat="45.62505573091088" lon="10.769633009558405"><ele>701.0</ele><time>2026-04-01T08:31:51Z</time></trkpt><trkpt lat="45.624933214924305" lon="10.769642799346926"><ele>695.6666666666667</ele><time>2026-04-01T08:32:30.999Z</time></trkpt><trkpt lat="45.624883105594726" lon="10.769587480267658"><ele>690.3333333333334</ele><time>2026-04-01T08:32:37.999Z</time></trkpt><trkpt lat="45.62482561130667" lon="10.769533978660835"><ele>685.0</ele><time>2026-04-01T08:32:45.999Z</time></trkpt><trkpt lat="45.62477280343934" lon="10.769469328963806"><ele>685.0</ele><time>2026-04-01T08:34:01Z</time></trkpt><trkpt lat="45.62483345171806" lon="10.769511421058763"><ele>685.0</ele><time>2026-04-01T08:34:13Z</time></trkpt><trkpt lat="45.624883772892325" lon="10.769573972080511"><ele>685.0</ele><time>2026-04-01T08:34:17Z</time></trkpt><trkpt lat="45.62494014113425" lon="10.769661825991996"><ele>685.0</ele><time>2026-04-01T08:34:20Z</time></trkpt><trkpt lat="45.624951745131405" lon="10.76977550742571"><ele>685.0</ele><time>2026-04-01T08:34:22Z</time></trkpt><trkpt lat="45.62502053121634" lon="10.769710896059742"><ele>685.0</ele><time>2026-04-01T08:35:06.999Z</time></trkpt><trkpt lat="45.62500227431774" lon="10.769548709971483"><ele>685.0</ele><time>2026-04-01T08:35:08.999Z</time></trkpt><trkpt lat="45.62498585924359" lon="10.76944451778217"><ele>685.0</ele><time>2026-04-01T08:35:09.999Z</time></trkpt><trkpt lat="45.62499465523078" lon="10.769342024703127"><ele>685.0</ele><time>2026-04-01T08:35:10.999Z</time></trkpt><trkpt lat="45.62504749563596" lon="10.769250777797728"><ele>685.0</ele><time>2026-04-01T08:35:11.999Z</time></trkpt><trkpt lat="45.62509519833455" lon="10.769140345554346"><ele>685.0</ele><time>2026-04-01T08:35:12.999Z</time></trkpt><trkpt lat="45.62513689301826" lon="10.769001878713057"><ele>685.0</ele><time>2026-04-01T08:35:13.999Z</time></trkpt><trkpt lat="45.62519458259793" lon="10.768860237896241"><ele>682.8</ele><time>2026-04-01T08:35:14.999Z</time></trkpt><trkpt lat="45.62526697470692" lon="10.768730841471065"><ele>680.6</ele><time>2026-04-01T08:35:15.999Z</time></trkpt><trkpt lat="45.62529024157786" lon="10.768625830562964"><ele>678.4000000000001</ele><time>2026-04-01T08:35:16.999Z</time></trkpt><trkpt lat="45.62531773190001" lon="10.768515790631328"><ele>676.2</ele><time>2026-04-01T08:35:18.999Z</time></trkpt><trkpt lat="45.62516908387635" lon="10.768398724436018"><ele>674.0</ele><time>2026-04-01T08:35:20.999Z</time></trkpt><trkpt lat="45.62510887169777" lon="10.768312594789503"><ele>673.3333333333333</ele><time>2026-04-01T08:35:21.999Z</time></trkpt><trkpt lat="45.62507154292275" lon="10.76822170451409"><ele>672.6666666666666</ele><time>2026-04-01T08:35:22.999Z</time></trkpt><trkpt lat="45.6250283356161" lon="10.768125253609389"><ele>672.0</ele><time>2026-04-01T08:35:23.999Z</time></trkpt><trkpt lat="45.62497506399407" lon="10.768039359271997"><ele>671.3333333333334</ele><time>2026-04-01T08:35:24.999Z</time></trkpt><trkpt lat="45.62494547123438" lon="10.767910349762984"><ele>670.6666666666667</ele><time>2026-04-01T08:35:25.999Z</time></trkpt><trkpt lat="45.62491386847634" lon="10.76782622300092"><ele>670.0</ele><time>2026-04-01T08:35:26.999Z</time></trkpt><trkpt lat="45.62497564828189" lon="10.767685209378572"><ele>669.5</ele><time>2026-04-01T08:35:28.999Z</time></trkpt><trkpt lat="45.62503943674135" lon="10.767629645123561"><ele>669.0</ele><time>2026-04-01T08:35:29.999Z</time></trkpt><trkpt lat="45.62511950875551" lon="10.767585587041689"><ele>668.5</ele><time>2026-04-01T08:35:30.999Z</time></trkpt><trkpt lat="45.625172891651495" lon="10.76753199210101"><ele>668.0</ele><time>2026-04-01T08:35:31.999Z</time></trkpt><trkpt lat="45.6252225745138" lon="10.76744311016227"><ele>667.5</ele><time>2026-04-01T08:35:33.999Z</time></trkpt><trkpt lat="45.62514271782733" lon="10.767331887265966"><ele>667.0</ele><time>2026-04-01T08:35:34.998Z</time></trkpt><trkpt lat="45.62512051807274" lon="10.767201595538992"><ele>667.0</ele><time>2026-04-01T08:35:35.998Z</time></trkpt><trkpt lat="45.62509220862018" lon="10.767077414266502"><ele>667.0</ele><time>2026-04-01T08:35:36.998Z</time></trkpt><trkpt lat="45.62507181271186" lon="10.766952635023713"><ele>667.0</ele><time>2026-04-01T08:35:37.998Z</time></trkpt><trkpt lat="45.62506814966423" lon="10.766833449230141"><ele>667.0</ele><time>2026-04-01T08:35:38.998Z</time></trkpt><trkpt lat="45.625071919400646" lon="10.766696263330784"><ele>667.0</ele><time>2026-04-01T08:35:39.998Z</time></trkpt><trkpt lat="45.62507530943785" lon="10.766590748622265"><ele>667.0</ele><time>2026-04-01T08:35:40.998Z</time></trkpt><trkpt lat="45.625073007822486" lon="10.76649463528322"><ele>666.3333333333334</ele><time>2026-04-01T08:35:41.998Z</time></trkpt><trkpt lat="45.62504584073206" lon="10.766374287363131"><ele>665.6666666666667</ele><time>2026-04-01T08:35:42.998Z</time></trkpt><trkpt lat="45.62501562502854" lon="10.7662575922622"><ele>665.0</ele><time>2026-04-01T08:35:44Z</time></trkpt><trkpt lat="45.62498418282051" lon="10.766164082857303"><ele>664.3333333333334</ele><time>2026-04-01T08:35:45Z</time></trkpt><trkpt lat="45.62495376758414" lon="10.766043865106965"><ele>663.6666666666666</ele><time>2026-04-01T08:35:46Z</time></trkpt><trkpt lat="45.624925103397885" lon="10.765934541624697"><ele>663.0</ele><time>2026-04-01T08:35:47Z</time></trkpt><trkpt lat="45.624888717709105" lon="10.765846077234437"><ele>662.4</ele><time>2026-04-01T08:35:48Z</time></trkpt><trkpt lat="45.62482236025366" lon="10.76575305195835"><ele>661.8</ele><time>2026-04-01T08:35:50Z</time></trkpt><trkpt lat="45.624698340997384" lon="10.765806916588009"><ele>661.2</ele><time>2026-04-01T08:35:52Z</time></trkpt><trkpt lat="45.62464112932814" lon="10.765891850086248"><ele>660.6</ele><time>2026-04-01T08:35:53Z</time></trkpt><trkpt lat="45.62457948630182" lon="10.765957427831363"><ele>660.0</ele><time>2026-04-01T08:35:54Z</time></trkpt><trkpt lat="45.6245102633869" lon="10.766015570204793"><ele>656.5</ele><time>2026-04-01T08:35:55Z</time></trkpt><trkpt lat="45.624428204036725" lon="10.766061981992918"><ele>653.0</ele><time>2026-04-01T08:35:56Z</time></trkpt><trkpt lat="45.62436367489199" lon="10.766096758461645"><ele>649.5</ele><time>2026-04-01T08:35:57Z</time></trkpt><trkpt lat="45.62430029415194" lon="10.76612518672285"><ele>646.0</ele><time>2026-04-01T08:35:58Z</time></trkpt><trkpt lat="45.624182772996384" lon="10.766171535423464"><ele>642.5</ele><time>2026-04-01T08:36:00Z</time></trkpt><trkpt lat="45.624114277234426" lon="10.766178081479216"><ele>639.0</ele><time>2026-04-01T08:36:02Z</time></trkpt><trkpt lat="45.624100953592304" lon="10.766047508086945"><ele>639.0</ele><time>2026-04-01T08:36:05Z</time></trkpt><trkpt lat="45.62417444351453" lon="10.765972881418424"><ele>639.0</ele><time>2026-04-01T08:36:07Z</time></trkpt><trkpt lat="45.62424430868794" lon="10.765878094547995"><ele>639.0</ele><time>2026-04-01T08:36:09Z</time></trkpt><trkpt lat="45.624283243416116" lon="10.765786263931457"><ele>639.0</ele><time>2026-04-01T08:36:12Z</time></trkpt><trkpt lat="45.62411004059613" lon="10.765846698563532"><ele>639.0</ele><time>2026-04-01T08:36:15Z</time></trkpt><trkpt lat="45.62403393039698" lon="10.765895761009093"><ele>639.0</ele><time>2026-04-01T08:36:16Z</time></trkpt><trkpt lat="45.623978443245925" lon="10.765971674392686"><ele>639.0</ele><time>2026-04-01T08:36:17Z</time></trkpt><trkpt lat="45.623929697377946" lon="10.766039978397057"><ele>639.0</ele><time>2026-04-01T08:36:18Z</time></trkpt><trkpt lat="45.62391675313248" lon="10.766162609567811"><ele>639.0</ele><time>2026-04-01T08:36:19Z</time></trkpt><trkpt lat="45.62390201790718" lon="10.766298613774454"><ele>639.0</ele><time>2026-04-01T08:36:20Z</time></trkpt><trkpt lat="45.62388456983533" lon="10.76644218933863"><ele>639.0</ele><time>2026-04-01T08:36:21Z</time></trkpt><trkpt lat="45.6238612577164" lon="10.766557537433071"><ele>639.0</ele><time>2026-04-01T08:36:22Z</time></trkpt><trkpt lat="45.623835166850746" lon="10.766664248144764"><ele>639.0</ele><time>2026-04-01T08:36:23Z</time></trkpt><trkpt lat="45.623799974251206" lon="10.766755074931938"><ele>639.0</ele><time>2026-04-01T08:36:24Z</time></trkpt><trkpt lat="45.62374785869159" lon="10.766832069628288"><ele>639.0</ele><time>2026-04-01T08:36:25Z</time></trkpt><trkpt lat="45.62370057239962" lon="10.766917641682655"><ele>639.0</ele><time>2026-04-01T08:36:26Z</time></trkpt><trkpt lat="45.62366323322282" lon="10.767016986634205"><ele>639.0</ele><time>2026-04-01T08:36:27Z</time></trkpt><trkpt lat="45.623594174220415" lon="10.767088814945337"><ele>636.75</ele><time>2026-04-01T08:36:28Z</time></trkpt><trkpt lat="45.62350681766036" lon="10.767199654578294"><ele>634.5</ele><time>2026-04-01T08:36:29Z</time></trkpt><trkpt lat="45.623401037239404" lon="10.7672864740329"><ele>632.25</ele><time>2026-04-01T08:36:29.999Z</time></trkpt><trkpt lat="45.62327214543794" lon="10.767360250789817"><ele>630.0</ele><time>2026-04-01T08:36:30.999Z</time></trkpt><trkpt lat="45.62314839179976" lon="10.7674292997605"><ele>630.0</ele><time>2026-04-01T08:36:31.999Z</time></trkpt><trkpt lat="45.623060101010324" lon="10.767499415243083"><ele>630.0</ele><time>2026-04-01T08:36:32.999Z</time></trkpt><trkpt lat="45.62297969604875" lon="10.767524554450818"><ele>630.0</ele><time>2026-04-01T08:36:33.999Z</time></trkpt><trkpt lat="45.6229269309909" lon="10.767576247181065"><ele>630.0</ele><time>2026-04-01T08:36:34.999Z</time></trkpt><trkpt lat="45.62290325477784" lon="10.767670408392476"><ele>630.0</ele><time>2026-04-01T08:36:35.999Z</time></trkpt><trkpt lat="45.62287687309778" lon="10.767794997717592"><ele>630.0</ele><time>2026-04-01T08:36:37.999Z</time></trkpt><trkpt lat="45.62285346747039" lon="10.767899005231982"><ele>627.3333333333334</ele><time>2026-04-01T08:36:39.999Z</time></trkpt><trkpt lat="45.62274252178628" lon="10.767956373252643"><ele>624.6666666666666</ele><time>2026-04-01T08:36:43.999Z</time></trkpt><trkpt lat="45.62269081933161" lon="10.768015504545367"><ele>622.0</ele><time>2026-04-01T08:36:45.999Z</time></trkpt><trkpt lat="45.62261866066242" lon="10.768073310525219"><ele>619.3333333333333</ele><time>2026-04-01T08:36:48.999Z</time></trkpt><trkpt lat="45.62255812104623" lon="10.768129906620693"><ele>616.6666666666666</ele><time>2026-04-01T08:36:51.999Z</time></trkpt><trkpt lat="45.62246195416229" lon="10.768156987256564"><ele>614.0</ele><time>2026-04-01T08:36:53.999Z</time></trkpt><trkpt lat="45.62234436746264" lon="10.768177760511422"><ele>614.0</ele><time>2026-04-01T08:36:55.999Z</time></trkpt><trkpt lat="45.622265193245234" lon="10.768246509189078"><ele>614.0</ele><time>2026-04-01T08:36:57.999Z</time></trkpt><trkpt lat="45.622225134930844" lon="10.76838127145612"><ele>614.0</ele><time>2026-04-01T08:36:59.999Z</time></trkpt><trkpt lat="45.62217461907446" lon="10.768532216120297"><ele>614.0</ele><time>2026-04-01T08:37:01.999Z</time></trkpt><trkpt lat="45.622121296911295" lon="10.768587885805546"><ele>614.0</ele><time>2026-04-01T08:37:02.999Z</time></trkpt><trkpt lat="45.62203168908538" lon="10.76869621865116"><ele>612.6666666666666</ele><time>2026-04-01T08:37:04.999Z</time></trkpt><trkpt lat="45.622008045840104" lon="10.768844401933196"><ele>611.3333333333333</ele><time>2026-04-01T08:37:06.999Z</time></trkpt><trkpt lat="45.62196286121849" lon="10.76894641470987"><ele>610.0</ele><time>2026-04-01T08:37:08.999Z</time></trkpt><trkpt lat="45.621888769608795" lon="10.768896148875129"><ele>608.6666666666666</ele><time>2026-04-01T08:37:11.999Z</time></trkpt><trkpt lat="45.62180777658503" lon="10.768871519489938"><ele>607.3333333333334</ele><time>2026-04-01T08:37:14.999Z</time></trkpt><trkpt lat="45.62177009620607" lon="10.768774191871797"><ele>606.0</ele><time>2026-04-01T08:37:16.999Z</time></trkpt><trkpt lat="45.6217255392686" lon="10.76867765410543"><ele>603.5</ele><time>2026-04-01T08:37:18.999Z</time></trkpt><trkpt lat="45.6216751648197" lon="10.768748008523358"><ele>601.0</ele><time>2026-04-01T08:37:20.999Z</time></trkpt><trkpt lat="45.62162659441341" lon="10.768861508568262"><ele>598.5</ele><time>2026-04-01T08:37:22.999Z</time></trkpt><trkpt lat="45.62159642625512" lon="10.768940662088506"><ele>596.0</ele><time>2026-04-01T08:37:23.999Z</time></trkpt><trkpt lat="45.621531524266764" lon="10.76896229883831"><ele>593.5</ele><time>2026-04-01T08:37:24.999Z</time></trkpt><trkpt lat="45.62143284444367" lon="10.768970071885482"><ele>591.0</ele><time>2026-04-01T08:37:26.999Z</time></trkpt><trkpt lat="45.621374820808136" lon="10.769006513150337"><ele>591.0</ele><time>2026-04-01T08:37:27.999Z</time></trkpt><trkpt lat="45.621296426588934" lon="10.769032642108549"><ele>591.0</ele><time>2026-04-01T08:37:28.999Z</time></trkpt><trkpt lat="45.62121448132361" lon="10.769044966831311"><ele>591.0</ele><time>2026-04-01T08:37:29.999Z</time></trkpt><trkpt lat="45.62112812971759" lon="10.769024438632893"><ele>591.0</ele><time>2026-04-01T08:37:31.999Z</time></trkpt><trkpt lat="45.62103854919477" lon="10.769013753405526"><ele>591.0</ele><time>2026-04-01T08:37:34.999Z</time></trkpt><trkpt lat="45.62091605098717" lon="10.769035835532108"><ele>587.8333333333334</ele><time>2026-04-01T08:37:36.999Z</time></trkpt><trkpt lat="45.62085312472262" lon="10.76899867495293"><ele>584.6666666666666</ele><time>2026-04-01T08:37:39.998Z</time></trkpt><trkpt lat="45.62077830451683" lon="10.76896501517398"><ele>581.5</ele><time>2026-04-01T08:37:41.998Z</time></trkpt><trkpt lat="45.620722465847926" lon="10.768913258107133"><ele>578.3333333333333</ele><time>2026-04-01T08:37:42.998Z</time></trkpt><trkpt lat="45.620677862572265" lon="10.768758965448129"><ele>575.1666666666666</ele><time>2026-04-01T08:37:44.998Z</time></trkpt><trkpt lat="45.62063319029289" lon="10.768674104473781"><ele>572.0</ele><time>2026-04-01T08:37:46.998Z</time></trkpt><trkpt lat="45.620568891055974" lon="10.768589267451325"><ele>572.0</ele><time>2026-04-01T08:37:50Z</time></trkpt><trkpt lat="45.62050592448272" lon="10.76859052242936"><ele>572.0</ele><time>2026-04-01T08:38:01Z</time></trkpt><trkpt lat="45.62044698660236" lon="10.76866878556921"><ele>572.0</ele><time>2026-04-01T08:38:15Z</time></trkpt><trkpt lat="45.62036985200263" lon="10.768735352451884"><ele>572.0</ele><time>2026-04-01T08:38:20Z</time></trkpt><trkpt lat="45.62028408656017" lon="10.768752468790378"><ele>572.0</ele><time>2026-04-01T08:41:36.999Z</time></trkpt><trkpt lat="45.62021580602352" lon="10.768786121485217"><ele>572.0</ele><time>2026-04-01T08:41:38.999Z</time></trkpt><trkpt lat="45.620141030450355" lon="10.768891751695751"><ele>571.3333333333333</ele><time>2026-04-01T08:41:42.999Z</time></trkpt><trkpt lat="45.620087827441594" lon="10.768978093293935"><ele>570.6666666666666</ele><time>2026-04-01T08:41:46.999Z</time></trkpt><trkpt lat="45.620043990845275" lon="10.769101169457961"><ele>570.0</ele><time>2026-04-01T08:41:49.999Z</time></trkpt><trkpt lat="45.62001094008046" lon="10.769209220263429"><ele>569.3333333333334</ele><time>2026-04-01T08:41:51.998Z</time></trkpt><trkpt lat="45.61994265930602" lon="10.769254930670268"><ele>568.6666666666667</ele><time>2026-04-01T08:41:53.998Z</time></trkpt><trkpt lat="45.61989500843719" lon="10.769314173126366"><ele>568.0</ele><time>2026-04-01T08:41:56.998Z</time></trkpt><trkpt lat="45.61985117188845" lon="10.769396455226843"><ele>564.0</ele><time>2026-04-01T08:41:59.998Z</time></trkpt><trkpt lat="45.61982290367653" lon="10.7694777125723"><ele>560.0</ele><time>2026-04-01T08:42:02Z</time></trkpt><trkpt lat="45.61981978436674" lon="10.769586083137556"><ele>556.0</ele><time>2026-04-01T08:42:05Z</time></trkpt><trkpt lat="45.61980177171192" lon="10.769691020376833"><ele>552.0</ele><time>2026-04-01T08:42:07Z</time></trkpt><trkpt lat="45.619799840946534" lon="10.769783641406196"><ele>548.0</ele><time>2026-04-01T08:42:09Z</time></trkpt><trkpt lat="45.61989594966581" lon="10.769844379012321"><ele>544.0</ele><time>2026-04-01T08:42:12Z</time></trkpt><trkpt lat="45.619952386958055" lon="10.769917846274716"><ele>544.0</ele><time>2026-04-01T08:42:15Z</time></trkpt><trkpt lat="45.61996037548695" lon="10.770017480906464"><ele>544.0</ele><time>2026-04-01T08:42:22Z</time></trkpt><trkpt lat="45.61991627296871" lon="10.770130093097354"><ele>544.0</ele><time>2026-04-01T08:42:25Z</time></trkpt><trkpt lat="45.61982137947385" lon="10.770200161181304"><ele>544.0</ele><time>2026-04-01T08:42:28Z</time></trkpt><trkpt lat="45.619747368322095" lon="10.77021826906425"><ele>544.0</ele><time>2026-04-01T08:42:31Z</time></trkpt><trkpt lat="45.61965658689785" lon="10.770306574161806"><ele>542.5</ele><time>2026-04-01T08:42:33Z</time></trkpt><trkpt lat="45.619556554966145" lon="10.770265588762763"><ele>541.0</ele><time>2026-04-01T08:42:35Z</time></trkpt><trkpt lat="45.61946153812621" lon="10.770275475270427"><ele>539.5</ele><time>2026-04-01T08:42:38Z</time></trkpt><trkpt lat="45.619373844937336" lon="10.77029391727566"><ele>538.0</ele><time>2026-04-01T08:42:41Z</time></trkpt><trkpt lat="45.61929947744743" lon="10.770315521831375"><ele>536.5</ele><time>2026-04-01T08:42:43Z</time></trkpt><trkpt lat="45.61923576776794" lon="10.770327371250739"><ele>535.0</ele><time>2026-04-01T08:42:45Z</time></trkpt><trkpt lat="45.619147577330175" lon="10.770383232849719"><ele>531.5</ele><time>2026-04-01T08:42:48Z</time></trkpt><trkpt lat="45.61903264479772" lon="10.770393776280548"><ele>528.0</ele><time>2026-04-01T08:42:49.999Z</time></trkpt><trkpt lat="45.618958880156384" lon="10.770372240180054"><ele>524.5</ele><time>2026-04-01T08:42:51.999Z</time></trkpt><trkpt lat="45.61887469177767" lon="10.770341915370357"><ele>521.0</ele><time>2026-04-01T08:42:53.999Z</time></trkpt><trkpt lat="45.618792065902255" lon="10.770282760469907"><ele>517.5</ele><time>2026-04-01T08:42:56.999Z</time></trkpt><trkpt lat="45.61871822876906" lon="10.770262843925412"><ele>514.0</ele><time>2026-04-01T08:42:58.999Z</time></trkpt><trkpt lat="45.618654542850045" lon="10.770242884470242"><ele>516.6</ele><time>2026-04-01T08:43:01.999Z</time></trkpt><trkpt lat="45.618567756893675" lon="10.770260798291178"><ele>519.2</ele><time>2026-04-01T08:43:04.999Z</time></trkpt><trkpt lat="45.61847904413571" lon="10.770243192403857"><ele>521.8000000000001</ele><time>2026-04-01T08:43:06.999Z</time></trkpt><trkpt lat="45.618365071194944" lon="10.770208420251459"><ele>524.4</ele><time>2026-04-01T08:43:08.999Z</time></trkpt><trkpt lat="45.618259531679186" lon="10.770171706957203"><ele>527.0</ele><time>2026-04-01T08:43:10.999Z</time></trkpt><trkpt lat="45.61819668538306" lon="10.77012542634893"><ele>527.0</ele><time>2026-04-01T08:43:12.999Z</time></trkpt><trkpt lat="45.61811165714699" lon="10.770107709890398"><ele>527.0</ele><time>2026-04-01T08:43:15.999Z</time></trkpt><trkpt lat="45.61802511614135" lon="10.770118705682963"><ele>527.0</ele><time>2026-04-01T08:43:17.999Z</time></trkpt><trkpt lat="45.61793846934202" lon="10.77017469515939"><ele>527.0</ele><time>2026-04-01T08:43:20.999Z</time></trkpt><trkpt lat="45.61782226581657" lon="10.770241708900242"><ele>527.0</ele><time>2026-04-01T08:43:22.999Z</time></trkpt><trkpt lat="45.61775478897017" lon="10.77025990810149"><ele>518.0</ele><time>2026-04-01T08:43:23.999Z</time></trkpt><trkpt lat="45.61762156969855" lon="10.77025762853455"><ele>509.00000000000006</ele><time>2026-04-01T08:43:25.999Z</time></trkpt><trkpt lat="45.61752457684853" lon="10.770271350265443"><ele>500.00000000000006</ele><time>2026-04-01T08:43:26.999Z</time></trkpt><trkpt lat="45.617442388188245" lon="10.770268916730272"><ele>491.0</ele><time>2026-04-01T08:43:27.999Z</time></trkpt><trkpt lat="45.617364939306796" lon="10.770244040715758"><ele>482.0</ele><time>2026-04-01T08:43:28.999Z</time></trkpt><trkpt lat="45.61729802357792" lon="10.770238935095245"><ele>481.99999999999994</ele><time>2026-04-01T08:43:29.999Z</time></trkpt><trkpt lat="45.617216815740605" lon="10.77025675871683"><ele>482.0</ele><time>2026-04-01T08:43:30.999Z</time></trkpt><trkpt lat="45.61713191247743" lon="10.770371946404588"><ele>482.0</ele><time>2026-04-01T08:43:32.999Z</time></trkpt><trkpt lat="45.617040394894005" lon="10.770443156996087"><ele>482.0</ele><time>2026-04-01T08:43:34.999Z</time></trkpt><trkpt lat="45.61697421794577" lon="10.770466393115305"><ele>481.99999999999994</ele><time>2026-04-01T08:43:35.999Z</time></trkpt><trkpt lat="45.616903720919055" lon="10.770484510178873"><ele>482.0</ele><time>2026-04-01T08:43:36.999Z</time></trkpt><trkpt lat="45.616830386959364" lon="10.77049729098546"><ele>480.40000000000003</ele><time>2026-04-01T08:43:37.999Z</time></trkpt><trkpt lat="45.616701757552654" lon="10.770509140015113"><ele>478.80000000000007</ele><time>2026-04-01T08:43:39.999Z</time></trkpt><trkpt lat="45.616581070989845" lon="10.77043472547169"><ele>477.2</ele><time>2026-04-01T08:43:41.999Z</time></trkpt><trkpt lat="45.616500695148716" lon="10.770373364613961"><ele>475.6</ele><time>2026-04-01T08:43:42.999Z</time></trkpt><trkpt lat="45.61642471377117" lon="10.770337821053715"><ele>474.0</ele><time>2026-04-01T08:43:43.999Z</time></trkpt><trkpt lat="45.616365788635974" lon="10.770179428318817"><ele>472.6666666666667</ele><time>2026-04-01T08:43:45.999Z</time></trkpt><trkpt lat="45.616334344883775" lon="10.770091416151825"><ele>471.33333333333337</ele><time>2026-04-01T08:43:46.999Z</time></trkpt><trkpt lat="45.616294197598954" lon="10.770009345972204"><ele>470.0</ele><time>2026-04-01T08:43:47.999Z</time></trkpt><trkpt lat="45.61621250160482" lon="10.769875892650163"><ele>468.6666666666667</ele><time>2026-04-01T08:43:49.999Z</time></trkpt><trkpt lat="45.61614075817985" lon="10.769795719699728"><ele>467.33333333333337</ele><time>2026-04-01T08:43:51.999Z</time></trkpt><trkpt lat="45.61606040506668" lon="10.769753967571948"><ele>466.0</ele><time>2026-04-01T08:43:53.999Z</time></trkpt><trkpt lat="45.61598076612559" lon="10.769718694745201"><ele>466.0</ele><time>2026-04-01T08:43:54.999Z</time></trkpt><trkpt lat="45.61587159551906" lon="10.769725931508132"><ele>466.0</ele><time>2026-04-01T08:43:56.999Z</time></trkpt><trkpt lat="45.61580805295071" lon="10.76971143236372"><ele>466.0</ele><time>2026-04-01T08:43:57.999Z</time></trkpt><trkpt lat="45.61571579355418" lon="10.769685241543929"><ele>466.0</ele><time>2026-04-01T08:43:58.999Z</time></trkpt><trkpt lat="45.615620811779586" lon="10.769641328715979"><ele>466.0</ele><time>2026-04-01T08:43:59.999Z</time></trkpt><trkpt lat="45.61553314427185" lon="10.769615988601075"><ele>466.0</ele><time>2026-04-01T08:44:00.998Z</time></trkpt><trkpt lat="45.615430543411755" lon="10.769596857619488"><ele>466.0</ele><time>2026-04-01T08:44:01.998Z</time></trkpt><trkpt lat="45.61530223039374" lon="10.769592898808463"><ele>466.0</ele><time>2026-04-01T08:44:02.998Z</time></trkpt><trkpt lat="45.61517327667471" lon="10.769600912609338"><ele>466.0</ele><time>2026-04-01T08:44:03.998Z</time></trkpt><trkpt lat="45.615060389567155" lon="10.76958105573138"><ele>461.0</ele><time>2026-04-01T08:44:04.998Z</time></trkpt><trkpt lat="45.61494254649818" lon="10.769554183293968"><ele>456.0</ele><time>2026-04-01T08:44:05.998Z</time></trkpt><trkpt lat="45.61481541652579" lon="10.769542016937294"><ele>451.0</ele><time>2026-04-01T08:44:06.998Z</time></trkpt><trkpt lat="45.61466653077659" lon="10.769541450435545"><ele>446.0</ele><time>2026-04-01T08:44:08Z</time></trkpt><trkpt lat="45.61451423798529" lon="10.769535998614943"><ele>443.4</ele><time>2026-04-01T08:44:09Z</time></trkpt><trkpt lat="45.614383494242226" lon="10.7695247586447"><ele>440.8</ele><time>2026-04-01T08:44:10Z</time></trkpt><trkpt lat="45.61426202980196" lon="10.769512336275467"><ele>438.19999999999993</ele><time>2026-04-01T08:44:11Z</time></trkpt><trkpt lat="45.61415779156323" lon="10.769487277965576"><ele>435.59999999999997</ele><time>2026-04-01T08:44:12Z</time></trkpt><trkpt lat="45.61407197099682" lon="10.769462356872582"><ele>433.0</ele><time>2026-04-01T08:44:13Z</time></trkpt><trkpt lat="45.61399466293309" lon="10.769419628022712"><ele>433.00000000000006</ele><time>2026-04-01T08:44:14Z</time></trkpt><trkpt lat="45.61392724217052" lon="10.769366689294833"><ele>433.0</ele><time>2026-04-01T08:44:15Z</time></trkpt><trkpt lat="45.613861844723665" lon="10.769308304501596"><ele>433.0</ele><time>2026-04-01T08:44:16Z</time></trkpt><trkpt lat="45.61375458124289" lon="10.76932469073977"><ele>433.0</ele><time>2026-04-01T08:44:18Z</time></trkpt><trkpt lat="45.61370742055444" lon="10.76939538416571"><ele>433.00000000000006</ele><time>2026-04-01T08:44:19Z</time></trkpt><trkpt lat="45.613626256979636" lon="10.769391399019257"><ele>433.0</ele><time>2026-04-01T08:44:21Z</time></trkpt><trkpt lat="45.61351036183919" lon="10.76933722193806"><ele>435.0</ele><time>2026-04-01T08:44:22Z</time></trkpt><trkpt lat="45.613417286731895" lon="10.769294486009558"><ele>436.99999999999994</ele><time>2026-04-01T08:44:23Z</time></trkpt><trkpt lat="45.6133095411456" lon="10.769224206201296"><ele>438.99999999999994</ele><time>2026-04-01T08:44:24Z</time></trkpt><trkpt lat="45.61322254236186" lon="10.76913522086259"><ele>441.0</ele><time>2026-04-01T08:44:25Z</time></trkpt><trkpt lat="45.613126839147206" lon="10.76907050371199"><ele>443.0</ele><time>2026-04-01T08:44:26Z</time></trkpt><trkpt lat="45.613038532269584" lon="10.769026268150121"><ele>443.0</ele><time>2026-04-01T08:44:27Z</time></trkpt><trkpt lat="45.612946703799956" lon="10.768949450577205"><ele>442.99999999999994</ele><time>2026-04-01T08:44:28Z</time></trkpt><trkpt lat="45.61285978595642" lon="10.768865770201954"><ele>442.99999999999994</ele><time>2026-04-01T08:44:29Z</time></trkpt><trkpt lat="45.612771853296564" lon="10.768756138493046"><ele>443.0</ele><time>2026-04-01T08:44:30Z</time></trkpt><trkpt lat="45.612667179932245" lon="10.76867471034327"><ele>443.0</ele><time>2026-04-01T08:44:31Z</time></trkpt><trkpt lat="45.61255943483573" lon="10.768591191001613"><ele>443.4</ele><time>2026-04-01T08:44:32Z</time></trkpt><trkpt lat="45.612450976455406" lon="10.768521105786988"><ele>443.79999999999995</ele><time>2026-04-01T08:44:33Z</time></trkpt><trkpt lat="45.612342749449525" lon="10.768468324031893"><ele>444.2</ele><time>2026-04-01T08:44:34Z</time></trkpt><trkpt lat="45.612246667239205" lon="10.76840610502216"><ele>444.6</ele><time>2026-04-01T08:44:35Z</time></trkpt><trkpt lat="45.6121717859449" lon="10.768329581005569"><ele>445.0</ele><time>2026-04-01T08:44:36Z</time></trkpt><trkpt lat="45.612092968228175" lon="10.768254166359666"><ele>445.00000000000006</ele><time>2026-04-01T08:44:37Z</time></trkpt><trkpt lat="45.61202796355798" lon="10.768184530588076"><ele>445.0</ele><time>2026-04-01T08:44:38Z</time></trkpt><trkpt lat="45.61196121464241" lon="10.76810681611881"><ele>445.0</ele><time>2026-04-01T08:44:39Z</time></trkpt><trkpt lat="45.611897951366615" lon="10.76802673792984"><ele>445.0</ele><time>2026-04-01T08:44:40Z</time></trkpt><trkpt lat="45.61183324294268" lon="10.76794013012247"><ele>445.00000000000006</ele><time>2026-04-01T08:44:41Z</time></trkpt><trkpt lat="45.61177305903788" lon="10.767867131439942"><ele>445.0</ele><time>2026-04-01T08:44:42Z</time></trkpt><trkpt lat="45.611719154541134" lon="10.767768216059078"><ele>444.50000000000006</ele><time>2026-04-01T08:44:43Z</time></trkpt><trkpt lat="45.6116589926062" lon="10.767675219781903"><ele>444.0</ele><time>2026-04-01T08:44:44Z</time></trkpt><trkpt lat="45.611589822476056" lon="10.76759127182357"><ele>443.5</ele><time>2026-04-01T08:44:45Z</time></trkpt><trkpt lat="45.61151918600576" lon="10.767492656601815"><ele>443.0</ele><time>2026-04-01T08:44:46Z</time></trkpt><trkpt lat="45.61147111427695" lon="10.767419994952855"><ele>442.50000000000006</ele><time>2026-04-01T08:44:47Z</time></trkpt><trkpt lat="45.611400684747984" lon="10.767331129551138"><ele>442.0</ele><time>2026-04-01T08:44:48Z</time></trkpt><trkpt lat="45.611309202225776" lon="10.767256327580956"><ele>442.0</ele><time>2026-04-01T08:44:49Z</time></trkpt><trkpt lat="45.611202698550365" lon="10.767201896794631"><ele>442.00000000000006</ele><time>2026-04-01T08:44:50Z</time></trkpt><trkpt lat="45.611098087588104" lon="10.767145091402858"><ele>442.00000000000006</ele><time>2026-04-01T08:44:50.999Z</time></trkpt><trkpt lat="45.61099433310265" lon="10.767099878967999"><ele>442.0</ele><time>2026-04-01T08:44:51.999Z</time></trkpt><trkpt lat="45.61088915980319" lon="10.767043255020011"><ele>442.0</ele><time>2026-04-01T08:44:52.999Z</time></trkpt><trkpt lat="45.61079550261522" lon="10.766979914662114"><ele>442.20000000000005</ele><time>2026-04-01T08:44:53.999Z</time></trkpt><trkpt lat="45.610707346622085" lon="10.766922871891081"><ele>442.40000000000003</ele><time>2026-04-01T08:44:54.999Z</time></trkpt><trkpt lat="45.61060682451537" lon="10.76687652364008"><ele>442.59999999999997</ele><time>2026-04-01T08:44:55.999Z</time></trkpt><trkpt lat="45.61051241743939" lon="10.766835777399356"><ele>442.79999999999995</ele><time>2026-04-01T08:44:56.999Z</time></trkpt><trkpt lat="45.6104237566841" lon="10.76680524614109"><ele>443.0</ele><time>2026-04-01T08:44:57.999Z</time></trkpt><trkpt lat="45.61034129478825" lon="10.766778272729447"><ele>437.4</ele><time>2026-04-01T08:44:58.999Z</time></trkpt><trkpt lat="45.61025504240971" lon="10.766762527712565"><ele>431.79999999999995</ele><time>2026-04-01T08:44:59.999Z</time></trkpt><trkpt lat="45.61018097908482" lon="10.766731406802515"><ele>426.2</ele><time>2026-04-01T08:45:00.999Z</time></trkpt><trkpt lat="45.61008992874757" lon="10.76667413934728"><ele>420.6</ele><time>2026-04-01T08:45:01.999Z</time></trkpt><trkpt lat="45.61000403598381" lon="10.766643313067583"><ele>415.0</ele><time>2026-04-01T08:45:02.999Z</time></trkpt><trkpt lat="45.609907251491904" lon="10.766610620418977"><ele>415.00000000000006</ele><time>2026-04-01T08:45:03.999Z</time></trkpt><trkpt lat="45.60980829902056" lon="10.766593328765477"><ele>415.0</ele><time>2026-04-01T08:45:04.999Z</time></trkpt><trkpt lat="45.60971157463783" lon="10.766607580458937"><ele>415.0</ele><time>2026-04-01T08:45:05.999Z</time></trkpt><trkpt lat="45.609634743460376" lon="10.76661236451166"><ele>415.0</ele><time>2026-04-01T08:45:06.999Z</time></trkpt><trkpt lat="45.60954707835068" lon="10.766613391444821"><ele>415.00000000000006</ele><time>2026-04-01T08:45:07.999Z</time></trkpt><trkpt lat="45.60947571874175" lon="10.766595361155826"><ele>415.0</ele><time>2026-04-01T08:45:08.999Z</time></trkpt><trkpt lat="45.60939472513849" lon="10.766537332203123"><ele>411.33333333333337</ele><time>2026-04-01T08:45:10.999Z</time></trkpt><trkpt lat="45.609305314960466" lon="10.766450270532411"><ele>407.6666666666667</ele><time>2026-04-01T08:45:13.999Z</time></trkpt><trkpt lat="45.609227836265006" lon="10.7663900379942"><ele>404.0</ele><time>2026-04-01T08:45:14.999Z</time></trkpt><trkpt lat="45.60917041023363" lon="10.766341798043221"><ele>400.33333333333337</ele><time>2026-04-01T08:45:15.999Z</time></trkpt><trkpt lat="45.60910571119314" lon="10.766271124085637"><ele>396.6666666666667</ele><time>2026-04-01T08:45:17.999Z</time></trkpt><trkpt lat="45.60907944081162" lon="10.766157568897002"><ele>393.0</ele><time>2026-04-01T08:45:45.999Z</time></trkpt><trkpt lat="45.6090786308075" lon="10.766046786493265"><ele>396.79999999999995</ele><time>2026-04-01T08:45:46.999Z</time></trkpt><trkpt lat="45.60903921032987" lon="10.76593999240471"><ele>400.6</ele><time>2026-04-01T08:45:47.999Z</time></trkpt><trkpt lat="45.608981079102485" lon="10.765848125952962"><ele>404.4</ele><time>2026-04-01T08:45:48.999Z</time></trkpt><trkpt lat="45.60893884243669" lon="10.765722783246932"><ele>408.20000000000005</ele><time>2026-04-01T08:45:49.999Z</time></trkpt><trkpt lat="45.60887871447523" lon="10.765597043053326"><ele>412.0</ele><time>2026-04-01T08:45:50.999Z</time></trkpt><trkpt lat="45.60881173604892" lon="10.765461121730212"><ele>412.0</ele><time>2026-04-01T08:45:51.999Z</time></trkpt><trkpt lat="45.6087416668511" lon="10.765325380057167"><ele>412.0</ele><time>2026-04-01T08:45:52.999Z</time></trkpt><trkpt lat="45.60867436331258" lon="10.765199810574101"><ele>412.0</ele><time>2026-04-01T08:45:53.999Z</time></trkpt><trkpt lat="45.60860745353828" lon="10.76508735521179"><ele>412.0</ele><time>2026-04-01T08:45:54.999Z</time></trkpt><trkpt lat="45.608540978955155" lon="10.764990481108034"><ele>412.0</ele><time>2026-04-01T08:45:55.999Z</time></trkpt><trkpt lat="45.60843836964613" lon="10.764860532282723"><ele>406.5</ele><time>2026-04-01T08:45:56.999Z</time></trkpt><trkpt lat="45.60834806167711" lon="10.7647496687706"><ele>401.0</ele><time>2026-04-01T08:45:57.999Z</time></trkpt><trkpt lat="45.60825709474288" lon="10.764636703869728"><ele>395.5</ele><time>2026-04-01T08:45:58.999Z</time></trkpt><trkpt lat="45.608163029779945" lon="10.764520371944839"><ele>390.0</ele><time>2026-04-01T08:45:59.999Z</time></trkpt><trkpt lat="45.60811623619724" lon="10.764369237669527"><ele>392.8</ele><time>2026-04-01T08:46:00.999Z</time></trkpt><trkpt lat="45.60806711629412" lon="10.764230981104326"><ele>395.6</ele><time>2026-04-01T08:46:01.998Z</time></trkpt><trkpt lat="45.608030859047325" lon="10.764084864196462"><ele>398.4</ele><time>2026-04-01T08:46:02.998Z</time></trkpt><trkpt lat="45.60801673471224" lon="10.763938378122758"><ele>401.2</ele><time>2026-04-01T08:46:03.998Z</time></trkpt><trkpt lat="45.60801375561968" lon="10.76379667637322"><ele>404.0</ele><time>2026-04-01T08:46:04.998Z</time></trkpt><trkpt lat="45.60801174409993" lon="10.763672079374823"><ele>404.0</ele><time>2026-04-01T08:46:05.998Z</time></trkpt><trkpt lat="45.60801342831493" lon="10.763569878167429"><ele>404.0</ele><time>2026-04-01T08:46:06.998Z</time></trkpt><trkpt lat="45.608008063625704" lon="10.763390200777476"><ele>404.0</ele><time>2026-04-01T08:46:08.998Z</time></trkpt><trkpt lat="45.6079891380749" lon="10.763266464924936"><ele>404.0</ele><time>2026-04-01T08:46:09.998Z</time></trkpt><trkpt lat="45.607950495745406" lon="10.763152137079219"><ele>404.0</ele><time>2026-04-01T08:46:10.998Z</time></trkpt><trkpt lat="45.607920841856576" lon="10.763031145906153"><ele>406.75</ele><time>2026-04-01T08:46:11.998Z</time></trkpt><trkpt lat="45.60785865443075" lon="10.762869492227242"><ele>409.5</ele><time>2026-04-01T08:46:12.998Z</time></trkpt><trkpt lat="45.60777760414655" lon="10.762715277201504"><ele>412.25</ele><time>2026-04-01T08:46:14Z</time></trkpt><trkpt lat="45.607687668903985" lon="10.762591874869052"><ele>415.0</ele><time>2026-04-01T08:46:15Z</time></trkpt><trkpt lat="45.607580497601774" lon="10.762477163034982"><ele>410.0</ele><time>2026-04-01T08:46:16Z</time></trkpt><trkpt lat="45.60746942020406" lon="10.762425451470513"><ele>405.0</ele><time>2026-04-01T08:46:17Z</time></trkpt><trkpt lat="45.60737821422367" lon="10.762355508605543"><ele>400.0</ele><time>2026-04-01T08:46:18Z</time></trkpt><trkpt lat="45.607329323062594" lon="10.76223173070776"><ele>395.0</ele><time>2026-04-01T08:46:19Z</time></trkpt><trkpt lat="45.60727472760035" lon="10.762109590439756"><ele>390.0</ele><time>2026-04-01T08:46:20Z</time></trkpt><trkpt lat="45.60722652497722" lon="10.762002326750524"><ele>390.0</ele><time>2026-04-01T08:46:21Z</time></trkpt><trkpt lat="45.60717802306637" lon="10.761901144568634"><ele>390.0</ele><time>2026-04-01T08:46:22Z</time></trkpt><trkpt lat="45.607111729676845" lon="10.761793843948576"><ele>390.0</ele><time>2026-04-01T08:46:23Z</time></trkpt><trkpt lat="45.60703891872628" lon="10.761689713600097"><ele>390.0</ele><time>2026-04-01T08:46:24Z</time></trkpt><trkpt lat="45.606976263465434" lon="10.761589292216163"><ele>390.0</ele><time>2026-04-01T08:46:25Z</time></trkpt><trkpt lat="45.60692469929846" lon="10.761484587793214"><ele>386.6666666666667</ele><time>2026-04-01T08:46:26Z</time></trkpt><trkpt lat="45.60687745908748" lon="10.76140492493918"><ele>383.3333333333333</ele><time>2026-04-01T08:46:27Z</time></trkpt><trkpt lat="45.60683149887212" lon="10.761340587194693"><ele>380.0</ele><time>2026-04-01T08:46:28Z</time></trkpt><trkpt lat="45.60675111778415" lon="10.761282965348663"><ele>376.66666666666663</ele><time>2026-04-01T08:46:29Z</time></trkpt><trkpt lat="45.60666226416352" lon="10.76124008332689"><ele>373.3333333333333</ele><time>2026-04-01T08:46:30Z</time></trkpt><trkpt lat="45.60654690269315" lon="10.761236885634586"><ele>370.0</ele><time>2026-04-01T08:46:31Z</time></trkpt><trkpt lat="45.60641486846607" lon="10.761262586650169"><ele>370.0</ele><time>2026-04-01T08:46:32Z</time></trkpt><trkpt lat="45.606298290893356" lon="10.761285446152291"><ele>370.0</ele><time>2026-04-01T08:46:33Z</time></trkpt><trkpt lat="45.60621336095501" lon="10.761298708319481"><ele>370.0</ele><time>2026-04-01T08:46:34Z</time></trkpt><trkpt lat="45.60613426331389" lon="10.761307312373159"><ele>370.0</ele><time>2026-04-01T08:46:35Z</time></trkpt><trkpt lat="45.60605631879208" lon="10.761310676906193"><ele>370.0</ele><time>2026-04-01T08:46:36Z</time></trkpt><trkpt lat="45.60596141074672" lon="10.76127233200407"><ele>365.75</ele><time>2026-04-01T08:46:37Z</time></trkpt><trkpt lat="45.60583687008841" lon="10.761225629044743"><ele>361.5</ele><time>2026-04-01T08:46:38Z</time></trkpt><trkpt lat="45.605719788156065" lon="10.76118556296193"><ele>357.25</ele><time>2026-04-01T08:46:39Z</time></trkpt><trkpt lat="45.60559327638511" lon="10.761149819246926"><ele>353.0</ele><time>2026-04-01T08:46:40Z</time></trkpt><trkpt lat="45.60546811308471" lon="10.761110476396636"><ele>353.0</ele><time>2026-04-01T08:46:41Z</time></trkpt><trkpt lat="45.605349819255544" lon="10.76106918192739"><ele>353.0</ele><time>2026-04-01T08:46:42Z</time></trkpt><trkpt lat="45.605241452264885" lon="10.761052009426235"><ele>353.0</ele><time>2026-04-01T08:46:43Z</time></trkpt><trkpt lat="45.60513415660404" lon="10.761004939494516"><ele>353.0</ele><time>2026-04-01T08:46:44Z</time></trkpt><trkpt lat="45.60502311041409" lon="10.76097369517592"><ele>350.79999999999995</ele><time>2026-04-01T08:46:45Z</time></trkpt><trkpt lat="45.60492507599604" lon="10.760931499101115"><ele>348.6</ele><time>2026-04-01T08:46:46Z</time></trkpt><trkpt lat="45.60482607677567" lon="10.760913103078819"><ele>346.4</ele><time>2026-04-01T08:46:47Z</time></trkpt><trkpt lat="45.60472059947336" lon="10.76090944437617"><ele>344.20000000000005</ele><time>2026-04-01T08:46:48Z</time></trkpt><trkpt lat="45.60459234022414" lon="10.7609083084097"><ele>342.0</ele><time>2026-04-01T08:46:49Z</time></trkpt><trkpt lat="45.60449373630115" lon="10.7609303777496"><ele>339.40000000000003</ele><time>2026-04-01T08:46:50Z</time></trkpt><trkpt lat="45.60442045743665" lon="10.760920838882528"><ele>336.8</ele><time>2026-04-01T08:46:51Z</time></trkpt><trkpt lat="45.60434050130877" lon="10.760868070292094"><ele>334.2</ele><time>2026-04-01T08:46:53Z</time></trkpt><trkpt lat="45.60430980564064" lon="10.760686029161047"><ele>331.6</ele><time>2026-04-01T08:46:55Z</time></trkpt><trkpt lat="45.604330899833826" lon="10.760571227507162"><ele>329.0</ele><time>2026-04-01T08:46:56Z</time></trkpt><trkpt lat="45.60436467444366" lon="10.76044976102817"><ele>329.0</ele><time>2026-04-01T08:46:57Z</time></trkpt><trkpt lat="45.60439625204789" lon="10.760333050182702"><ele>329.0</ele><time>2026-04-01T08:46:58Z</time></trkpt><trkpt lat="45.6044356096826" lon="10.760224633872127"><ele>329.0</ele><time>2026-04-01T08:46:59Z</time></trkpt><trkpt lat="45.60448398289647" lon="10.760135326311676"><ele>329.0</ele><time>2026-04-01T08:47:00Z</time></trkpt><trkpt lat="45.60454171203747" lon="10.760045724553803"><ele>329.0</ele><time>2026-04-01T08:47:01Z</time></trkpt><trkpt lat="45.60461952248455" lon="10.759962596661548"><ele>329.0</ele><time>2026-04-01T08:47:02Z</time></trkpt><trkpt lat="45.60471406235722" lon="10.759874014121605"><ele>330.2</ele><time>2026-04-01T08:47:02.999Z</time></trkpt><trkpt lat="45.604790606296156" lon="10.759785585589839"><ele>331.4</ele><time>2026-04-01T08:47:03.999Z</time></trkpt><trkpt lat="45.60486995966491" lon="10.759678919441392"><ele>332.6</ele><time>2026-04-01T08:47:04.999Z</time></trkpt><trkpt lat="45.60494886710359" lon="10.759619707876675"><ele>333.8</ele><time>2026-04-01T08:47:05.999Z</time></trkpt><trkpt lat="45.60502053827209" lon="10.759557029379408"><ele>335.0</ele><time>2026-04-01T08:47:06.999Z</time></trkpt><trkpt lat="45.60509186001033" lon="10.75950162220785"><ele>335.0</ele><time>2026-04-01T08:47:07.999Z</time></trkpt><trkpt lat="45.60516551228102" lon="10.759458049075649"><ele>335.0</ele><time>2026-04-01T08:47:08.999Z</time></trkpt><trkpt lat="45.60523761184613" lon="10.759427287213258"><ele>335.0</ele><time>2026-04-01T08:47:09.999Z</time></trkpt><trkpt lat="45.605323379590125" lon="10.759382318898295"><ele>335.0</ele><time>2026-04-01T08:47:11.999Z</time></trkpt><trkpt lat="45.605343101142594" lon="10.759288213555383"><ele>335.0</ele><time>2026-04-01T08:47:13.999Z</time></trkpt><trkpt lat="45.6052747562431" lon="10.759174063258644"><ele>335.0</ele><time>2026-04-01T08:47:14.999Z</time></trkpt><trkpt lat="45.60520564159612" lon="10.759092530612543"><ele>334.0</ele><time>2026-04-01T08:47:15.999Z</time></trkpt><trkpt lat="45.60512210955181" lon="10.75897938084606"><ele>333.0</ele><time>2026-04-01T08:47:16.999Z</time></trkpt><trkpt lat="45.605041652259565" lon="10.75888129431914"><ele>332.0</ele><time>2026-04-01T08:47:17.999Z</time></trkpt><trkpt lat="45.60498322428454" lon="10.758801654929474"><ele>331.0</ele><time>2026-04-01T08:47:18.999Z</time></trkpt><trkpt lat="45.60492946397131" lon="10.758718148522965"><ele>330.0</ele><time>2026-04-01T08:47:19.999Z</time></trkpt><trkpt lat="45.60486657545918" lon="10.75859499455258"><ele>331.4</ele><time>2026-04-01T08:47:20.999Z</time></trkpt><trkpt lat="45.60480653163129" lon="10.758467767267694"><ele>332.8</ele><time>2026-04-01T08:47:21.999Z</time></trkpt><trkpt lat="45.604750842236164" lon="10.758335576058181"><ele>334.20000000000005</ele><time>2026-04-01T08:47:22.999Z</time></trkpt><trkpt lat="45.604718448242984" lon="10.758182366427723"><ele>335.6</ele><time>2026-04-01T08:47:23.999Z</time></trkpt><trkpt lat="45.60468117837868" lon="10.758041636799762"><ele>337.0</ele><time>2026-04-01T08:47:24.999Z</time></trkpt><trkpt lat="45.604649226884156" lon="10.757931110354301"><ele>337.0</ele><time>2026-04-01T08:47:25.999Z</time></trkpt><trkpt lat="45.6045935475327" lon="10.757783181575185"><ele>337.0</ele><time>2026-04-01T08:47:27.999Z</time></trkpt><trkpt lat="45.60452796531945" lon="10.75771845020993"><ele>337.0</ele><time>2026-04-01T08:47:28.999Z</time></trkpt><trkpt lat="45.60445632631393" lon="10.75767609143415"><ele>337.0</ele><time>2026-04-01T08:47:29.999Z</time></trkpt><trkpt lat="45.60437306914143" lon="10.757611382474158"><ele>337.0</ele><time>2026-04-01T08:47:30.999Z</time></trkpt><trkpt lat="45.60428717661472" lon="10.757515468383573"><ele>334.0</ele><time>2026-04-01T08:47:31.999Z</time></trkpt><trkpt lat="45.60417782997623" lon="10.757425121318322"><ele>331.0</ele><time>2026-04-01T08:47:32.999Z</time></trkpt><trkpt lat="45.60408699735592" lon="10.757343788077206"><ele>328.0</ele><time>2026-04-01T08:47:33.999Z</time></trkpt><trkpt lat="45.60399696353782" lon="10.757285973226471"><ele>325.0</ele><time>2026-04-01T08:47:34.999Z</time></trkpt><trkpt lat="45.60392211913728" lon="10.757260995828162"><ele>322.0</ele><time>2026-04-01T08:47:35.999Z</time></trkpt><trkpt lat="45.60383768012724" lon="10.757263666837153"><ele>322.0</ele><time>2026-04-01T08:47:36.999Z</time></trkpt><trkpt lat="45.60376843923075" lon="10.75725435470502"><ele>322.0</ele><time>2026-04-01T08:47:37.999Z</time></trkpt><trkpt lat="45.603705664877836" lon="10.757236491858219"><ele>322.0</ele><time>2026-04-01T08:47:38.999Z</time></trkpt><trkpt lat="45.603634045199655" lon="10.757215705131435"><ele>322.0</ele><time>2026-04-01T08:47:39.999Z</time></trkpt><trkpt lat="45.603543682558374" lon="10.757189116324984"><ele>322.0</ele><time>2026-04-01T08:47:40.999Z</time></trkpt><trkpt lat="45.60342956894056" lon="10.757156135579905"><ele>322.0</ele><time>2026-04-01T08:47:41.999Z</time></trkpt><trkpt lat="45.60330802083832" lon="10.75712994889061"><ele>320.75</ele><time>2026-04-01T08:47:42.999Z</time></trkpt><trkpt lat="45.603178487039074" lon="10.757113697567215"><ele>319.5</ele><time>2026-04-01T08:47:43.999Z</time></trkpt><trkpt lat="45.60306106865036" lon="10.757102872686295"><ele>318.25</ele><time>2026-04-01T08:47:44.999Z</time></trkpt><trkpt lat="45.60294810122912" lon="10.757091719940886"><ele>317.0</ele><time>2026-04-01T08:47:45.999Z</time></trkpt><trkpt lat="45.60283779998188" lon="10.757073466482328"><ele>315.25</ele><time>2026-04-01T08:47:46.999Z</time></trkpt><trkpt lat="45.60272682392029" lon="10.757061594823732"><ele>313.5</ele><time>2026-04-01T08:47:47.999Z</time></trkpt><trkpt lat="45.60262247070649" lon="10.756999405352367"><ele>311.75</ele><time>2026-04-01T08:47:48.999Z</time></trkpt><trkpt lat="45.60250855932074" lon="10.756971253458023"><ele>310.0</ele><time>2026-04-01T08:47:49.999Z</time></trkpt><trkpt lat="45.60239766052686" lon="10.756986929913086"><ele>310.0</ele><time>2026-04-01T08:47:50.999Z</time></trkpt><trkpt lat="45.602285036686105" lon="10.756970779115628"><ele>310.0</ele><time>2026-04-01T08:47:51.999Z</time></trkpt><trkpt lat="45.60218113182919" lon="10.75697100567004"><ele>310.0</ele><time>2026-04-01T08:47:52.999Z</time></trkpt><trkpt lat="45.602086582629276" lon="10.756984264558145"><ele>310.0</ele><time>2026-04-01T08:47:53.999Z</time></trkpt><trkpt lat="45.60199688683183" lon="10.756936989188228"><ele>310.0</ele><time>2026-04-01T08:47:54.999Z</time></trkpt><trkpt lat="45.60190738352193" lon="10.756915572454195"><ele>308.16666666666663</ele><time>2026-04-01T08:47:55.999Z</time></trkpt><trkpt lat="45.60181713842704" lon="10.756918406151822"><ele>306.3333333333333</ele><time>2026-04-01T08:47:56.999Z</time></trkpt><trkpt lat="45.601727644932446" lon="10.756876940963407"><ele>304.5</ele><time>2026-04-01T08:47:57.999Z</time></trkpt><trkpt lat="45.60164479456505" lon="10.75688003031211"><ele>302.6666666666667</ele><time>2026-04-01T08:47:58.999Z</time></trkpt><trkpt lat="45.601578783983136" lon="10.756838895142407"><ele>300.83333333333337</ele><time>2026-04-01T08:47:59.999Z</time></trkpt><trkpt lat="45.60151079152357" lon="10.756730837422245"><ele>299.0</ele><time>2026-04-01T08:48:01.999Z</time></trkpt><trkpt lat="45.60149522433316" lon="10.756629864702985"><ele>298.2</ele><time>2026-04-01T08:48:09.999Z</time></trkpt><trkpt lat="45.60165907597923" lon="10.756478842293982"><ele>297.4</ele><time>2026-04-01T08:48:13.998Z</time></trkpt><trkpt lat="45.60171853358082" lon="10.756431753316365"><ele>296.6</ele><time>2026-04-01T08:48:15.998Z</time></trkpt><trkpt lat="45.601756530683176" lon="10.756353894523132"><ele>295.8</ele><time>2026-04-01T08:48:18.998Z</time></trkpt><trkpt lat="45.60179596444198" lon="10.756283295411555"><ele>295.0</ele><time>2026-04-01T08:48:21Z</time></trkpt><trkpt lat="45.60186498840513" lon="10.756151136399412"><ele>291.4</ele><time>2026-04-01T08:48:23Z</time></trkpt><trkpt lat="45.60187419656658" lon="10.755977868026397"><ele>287.8</ele><time>2026-04-01T08:48:25Z</time></trkpt><trkpt lat="45.60187687698091" lon="10.75585794376438"><ele>284.2</ele><time>2026-04-01T08:48:26Z</time></trkpt><trkpt lat="45.60188341981636" lon="10.755745452954436"><ele>280.6</ele><time>2026-04-01T08:48:27Z</time></trkpt><trkpt lat="45.601871651148485" lon="10.755606162694875"><ele>277.0</ele><time>2026-04-01T08:48:29Z</time></trkpt><trkpt lat="45.601834404212106" lon="10.755521638433988"><ele>277.0</ele><time>2026-04-01T08:48:30Z</time></trkpt><trkpt lat="45.601778723201306" lon="10.75544628740989"><ele>277.0</ele><time>2026-04-01T08:48:31Z</time></trkpt><trkpt lat="45.60172538026067" lon="10.755322204853291"><ele>277.0</ele><time>2026-04-01T08:48:32Z</time></trkpt><trkpt lat="45.60168052896849" lon="10.755212559096165"><ele>277.0</ele><time>2026-04-01T08:48:33Z</time></trkpt><trkpt lat="45.60164864418959" lon="10.755108121157782"><ele>277.0</ele><time>2026-04-01T08:48:34Z</time></trkpt><trkpt lat="45.601646772967435" lon="10.75501193969377"><ele>277.0</ele><time>2026-04-01T08:48:35Z</time></trkpt><trkpt lat="45.601659554977026" lon="10.754903709935759"><ele>277.2</ele><time>2026-04-01T08:48:36Z</time></trkpt><trkpt lat="45.60166515724017" lon="10.754791024888487"><ele>277.4</ele><time>2026-04-01T08:48:37Z</time></trkpt><trkpt lat="45.60165567578546" lon="10.754641014019123"><ele>277.6</ele><time>2026-04-01T08:48:38Z</time></trkpt><trkpt lat="45.60163092569435" lon="10.7545125654869"><ele>277.8</ele><time>2026-04-01T08:48:39Z</time></trkpt><trkpt lat="45.6015921523058" lon="10.754401266707491"><ele>278.0</ele><time>2026-04-01T08:48:40Z</time></trkpt><trkpt lat="45.601563241505914" lon="10.754286627189645"><ele>278.0</ele><time>2026-04-01T08:48:41Z</time></trkpt><trkpt lat="45.601540113135165" lon="10.754172050853986"><ele>278.0</ele><time>2026-04-01T08:48:42Z</time></trkpt><trkpt lat="45.60151472182644" lon="10.754073615546357"><ele>278.0</ele><time>2026-04-01T08:48:43Z</time></trkpt><trkpt lat="45.601502151740114" lon="10.753957047694456"><ele>278.0</ele><time>2026-04-01T08:48:44Z</time></trkpt><trkpt lat="45.601458427558526" lon="10.753839308230154"><ele>278.0</ele><time>2026-04-01T08:48:45Z</time></trkpt><trkpt lat="45.60143034337655" lon="10.753704256880471"><ele>278.0</ele><time>2026-04-01T08:48:46Z</time></trkpt><trkpt lat="45.60141437861618" lon="10.753557017033978"><ele>278.4</ele><time>2026-04-01T08:48:47Z</time></trkpt><trkpt lat="45.60138924165324" lon="10.75344574026342"><ele>278.8</ele><time>2026-04-01T08:48:48Z</time></trkpt><trkpt lat="45.60135930178134" lon="10.75335333217294"><ele>279.2</ele><time>2026-04-01T08:48:49Z</time></trkpt><trkpt lat="45.60132737172431" lon="10.753244562732863"><ele>279.6</ele><time>2026-04-01T08:48:51Z</time></trkpt><trkpt lat="45.60139372894803" lon="10.753185444134388"><ele>280.0</ele><time>2026-04-01T08:48:53Z</time></trkpt><trkpt lat="45.60150138562775" lon="10.75306207804615"><ele>280.0</ele><time>2026-04-01T08:48:55Z</time></trkpt><trkpt lat="45.60156746882379" lon="10.752955849415422"><ele>280.0</ele><time>2026-04-01T08:48:56Z</time></trkpt><trkpt lat="45.601628265918905" lon="10.752837919201976"><ele>280.0</ele><time>2026-04-01T08:48:57Z</time></trkpt><trkpt lat="45.60167317121813" lon="10.75273421140291"><ele>280.0</ele><time>2026-04-01T08:48:58Z</time></trkpt><trkpt lat="45.6017180236335" lon="10.752636354022544"><ele>280.0</ele><time>2026-04-01T08:48:59Z</time></trkpt><trkpt lat="45.601743303488185" lon="10.752549463009856"><ele>280.0</ele><time>2026-04-01T08:49:00Z</time></trkpt><trkpt lat="45.6017491163749" lon="10.752359612515862"><ele>280.4</ele><time>2026-04-01T08:49:02Z</time></trkpt><trkpt lat="45.60174590681665" lon="10.7522464978898"><ele>280.8</ele><time>2026-04-01T08:49:04Z</time></trkpt><trkpt lat="45.60188530321242" lon="10.752259727157503"><ele>281.2</ele><time>2026-04-01T08:49:08Z</time></trkpt><trkpt lat="45.60196155803426" lon="10.752271314468842"><ele>281.6</ele><time>2026-04-01T08:49:08.999Z</time></trkpt><trkpt lat="45.60204402231248" lon="10.752318290584508"><ele>282.0</ele><time>2026-04-01T08:49:09.999Z</time></trkpt><trkpt lat="45.60214325226429" lon="10.752368899796418"><ele>283.6666666666667</ele><time>2026-04-01T08:49:10.999Z</time></trkpt><trkpt lat="45.602214749493385" lon="10.752442646951193"><ele>285.3333333333333</ele><time>2026-04-01T08:49:11.999Z</time></trkpt><trkpt lat="45.602282284637084" lon="10.752485437230403"><ele>287.0</ele><time>2026-04-01T08:49:12.999Z</time></trkpt><trkpt lat="45.602352405738216" lon="10.752509537434584"><ele>288.66666666666663</ele><time>2026-04-01T08:49:13.999Z</time></trkpt><trkpt lat="45.60245416621532" lon="10.752490920017795"><ele>290.3333333333333</ele><time>2026-04-01T08:49:14.999Z</time></trkpt><trkpt lat="45.602539497771936" lon="10.752440202657349"><ele>292.0</ele><time>2026-04-01T08:49:15.999Z</time></trkpt><trkpt lat="45.602630724661644" lon="10.752361724183018"><ele>292.0</ele><time>2026-04-01T08:49:16.999Z</time></trkpt><trkpt lat="45.60271241275052" lon="10.752264231150063"><ele>292.0</ele><time>2026-04-01T08:49:17.999Z</time></trkpt><trkpt lat="45.60278677948608" lon="10.752189157603738"><ele>292.0</ele><time>2026-04-01T08:49:18.999Z</time></trkpt><trkpt lat="45.60286079189478" lon="10.752134839314987"><ele>292.0</ele><time>2026-04-01T08:49:19.999Z</time></trkpt><trkpt lat="45.602933694645294" lon="10.752088273794023"><ele>292.0</ele><time>2026-04-01T08:49:20.999Z</time></trkpt><trkpt lat="45.60300297824014" lon="10.752034913332862"><ele>292.0</ele><time>2026-04-01T08:49:21.999Z</time></trkpt><trkpt lat="45.60307673954421" lon="10.751960457818141"><ele>294.4</ele><time>2026-04-01T08:49:22.999Z</time></trkpt><trkpt lat="45.60315941388271" lon="10.751874903203861"><ele>296.79999999999995</ele><time>2026-04-01T08:49:23.999Z</time></trkpt><trkpt lat="45.60323880566829" lon="10.751773889207449"><ele>299.2</ele><time>2026-04-01T08:49:24.999Z</time></trkpt><trkpt lat="45.60330938160673" lon="10.751698017292682"><ele>301.59999999999997</ele><time>2026-04-01T08:49:25.999Z</time></trkpt><trkpt lat="45.60338197574437" lon="10.751636241152514"><ele>304.0</ele><time>2026-04-01T08:49:26.999Z</time></trkpt><trkpt lat="45.60348307104072" lon="10.751583462896377"><ele>304.8</ele><time>2026-04-01T08:49:27.999Z</time></trkpt><trkpt lat="45.60357908353801" lon="10.751535070222422"><ele>305.59999999999997</ele><time>2026-04-01T08:49:28.999Z</time></trkpt><trkpt lat="45.60367108811285" lon="10.751479205898946"><ele>306.4</ele><time>2026-04-01T08:49:29.999Z</time></trkpt><trkpt lat="45.60375950043424" lon="10.751394423582834"><ele>307.2</ele><time>2026-04-01T08:49:30.999Z</time></trkpt><trkpt lat="45.60382679861626" lon="10.751291887518658"><ele>308.0</ele><time>2026-04-01T08:49:31.999Z</time></trkpt><trkpt lat="45.603862157696696" lon="10.751182662703812"><ele>310.6</ele><time>2026-04-01T08:49:32.999Z</time></trkpt><trkpt lat="45.603876013927675" lon="10.751063341695113"><ele>313.20000000000005</ele><time>2026-04-01T08:49:33.999Z</time></trkpt><trkpt lat="45.60388224594947" lon="10.750953270601087"><ele>315.8</ele><time>2026-04-01T08:49:34.999Z</time></trkpt><trkpt lat="45.603921203775236" lon="10.75081313367185"><ele>318.40000000000003</ele><time>2026-04-01T08:49:36.999Z</time></trkpt><trkpt lat="45.60392540695953" lon="10.75061759807677"><ele>321.0</ele><time>2026-04-01T08:49:38.999Z</time></trkpt><trkpt lat="45.60394938955514" lon="10.750506871704292"><ele>322.0</ele><time>2026-04-01T08:49:39.999Z</time></trkpt><trkpt lat="45.603995744491094" lon="10.750407167509719"><ele>323.0</ele><time>2026-04-01T08:49:40.999Z</time></trkpt><trkpt lat="45.60406451740808" lon="10.750335795035246"><ele>324.0</ele><time>2026-04-01T08:49:41.999Z</time></trkpt><trkpt lat="45.60412739215716" lon="10.750285109271925"><ele>325.0</ele><time>2026-04-01T08:49:42.999Z</time></trkpt><trkpt lat="45.60418883741501" lon="10.750231091924606"><ele>326.0</ele><time>2026-04-01T08:49:43.999Z</time></trkpt><trkpt lat="45.604217105887805" lon="10.750120824503654"><ele>327.0</ele><time>2026-04-01T08:49:44.999Z</time></trkpt><trkpt lat="45.60422708793752" lon="10.750008968137985"><ele>327.6666666666667</ele><time>2026-04-01T08:49:45.999Z</time></trkpt><trkpt lat="45.604230473373114" lon="10.749873907948611"><ele>328.3333333333333</ele><time>2026-04-01T08:49:46.999Z</time></trkpt><trkpt lat="45.60427225814263" lon="10.74976190852476"><ele>329.0</ele><time>2026-04-01T08:49:47.999Z</time></trkpt><trkpt lat="45.604312202334924" lon="10.749664884198983"><ele>329.66666666666663</ele><time>2026-04-01T08:49:48.999Z</time></trkpt><trkpt lat="45.60435341975548" lon="10.749585577463902"><ele>330.3333333333333</ele><time>2026-04-01T08:49:49.999Z</time></trkpt><trkpt lat="45.60442806008296" lon="10.749571939667321"><ele>331.0</ele><time>2026-04-01T08:49:51.999Z</time></trkpt><trkpt lat="45.60449889132701" lon="10.749674312446333"><ele>333.8333333333333</ele><time>2026-04-01T08:49:53.999Z</time></trkpt><trkpt lat="45.60459172315905" lon="10.749649072710119"><ele>336.66666666666663</ele><time>2026-04-01T08:49:55.999Z</time></trkpt><trkpt lat="45.604635786128156" lon="10.749539468385734"><ele>339.5</ele><time>2026-04-01T08:49:56.999Z</time></trkpt><trkpt lat="45.604702624568226" lon="10.749491463556712"><ele>342.3333333333333</ele><time>2026-04-01T08:49:57.999Z</time></trkpt><trkpt lat="45.604761825340354" lon="10.749432757819811"><ele>345.1666666666667</ele><time>2026-04-01T08:49:58.999Z</time></trkpt><trkpt lat="45.60482046520451" lon="10.749374222508651"><ele>348.0</ele><time>2026-04-01T08:50:00.999Z</time></trkpt><trkpt lat="45.60491612051624" lon="10.74929048065198"><ele>348.0</ele><time>2026-04-01T08:50:02.999Z</time></trkpt><trkpt lat="45.60498557365145" lon="10.7491775159736"><ele>348.0</ele><time>2026-04-01T08:50:03.999Z</time></trkpt><trkpt lat="45.6050384600697" lon="10.749095602435043"><ele>348.0</ele><time>2026-04-01T08:50:04.999Z</time></trkpt><trkpt lat="45.60509227458212" lon="10.749012757088298"><ele>348.0</ele><time>2026-04-01T08:50:05.999Z</time></trkpt><trkpt lat="45.60469919307241" lon="10.748554763044748"><ele>349.8333333333333</ele><time>2026-04-01T08:50:08.999Z</time></trkpt><trkpt lat="45.6046794385055" lon="10.748464355234413"><ele>351.6666666666667</ele><time>2026-04-01T08:50:09.999Z</time></trkpt><trkpt lat="45.6046958065149" lon="10.748377416000588"><ele>353.5</ele><time>2026-04-01T08:50:10.999Z</time></trkpt><trkpt lat="45.60460100056734" lon="10.748211681192037"><ele>355.33333333333337</ele><time>2026-04-01T08:50:13.999Z</time></trkpt><trkpt lat="45.604672331869594" lon="10.748168616634892"><ele>357.1666666666667</ele><time>2026-04-01T08:50:26Z</time></trkpt><trkpt lat="45.60473456277159" lon="10.748137964403513"><ele>359.0</ele><time>2026-04-01T08:50:27Z</time></trkpt><trkpt lat="45.60479882417541" lon="10.748130872274603"><ele>359.0</ele><time>2026-04-01T08:50:30Z</time></trkpt><trkpt lat="45.60486279127492" lon="10.748132303483052"><ele>359.0</ele><time>2026-04-01T08:51:53.999Z</time></trkpt><trkpt lat="45.60490498286385" lon="10.74805024183596"><ele>359.0</ele><time>2026-04-01T08:51:55.999Z</time></trkpt><trkpt lat="45.60495384045334" lon="10.74797778150204"><ele>359.0</ele><time>2026-04-01T08:51:57.999Z</time></trkpt><trkpt lat="45.60495808234763" lon="10.747887903484736"><ele>359.0</ele><time>2026-04-01T08:51:59.999Z</time></trkpt><trkpt lat="45.604986427786905" lon="10.747787904557827"><ele>359.0</ele><time>2026-04-01T08:52:01.999Z</time></trkpt><trkpt lat="45.60495871848969" lon="10.747661673156653"><ele>359.0</ele><time>2026-04-01T08:52:04.999Z</time></trkpt><trkpt lat="45.60493759173288" lon="10.747565254542575"><ele>362.33333333333337</ele><time>2026-04-01T08:52:06.999Z</time></trkpt><trkpt lat="45.60488813460622" lon="10.747496330525568"><ele>365.6666666666667</ele><time>2026-04-01T08:52:40Z</time></trkpt><trkpt lat="45.60488529413026" lon="10.747347534259918"><ele>369.0</ele><time>2026-04-01T08:52:43Z</time></trkpt><trkpt lat="45.60493918349768" lon="10.747286701915547"><ele>372.3333333333333</ele><time>2026-04-01T08:52:45Z</time></trkpt><trkpt lat="45.604948615978486" lon="10.747147234548677"><ele>375.66666666666663</ele><time>2026-04-01T08:52:47Z</time></trkpt><trkpt lat="45.60495469246765" lon="10.74704117230238"><ele>379.0</ele><time>2026-04-01T08:52:49Z</time></trkpt><trkpt lat="45.60497031638687" lon="10.74694562903513"><ele>382.0</ele><time>2026-04-01T08:52:54Z</time></trkpt><trkpt lat="45.604936957028954" lon="10.746847933328736"><ele>385.0</ele><time>2026-04-01T08:53:01Z</time></trkpt><trkpt lat="45.60496235128517" lon="10.746727145018946"><ele>388.0</ele><time>2026-04-01T08:53:10Z</time></trkpt><trkpt lat="45.605020730240675" lon="10.746691560138492"><ele>391.0</ele><time>2026-04-01T08:53:12Z</time></trkpt><trkpt lat="45.60506825882925" lon="10.746620222359963"><ele>394.00000000000006</ele><time>2026-04-01T08:53:37.999Z</time></trkpt><trkpt lat="45.60510240298231" lon="10.746535444295715"><ele>397.0</ele><time>2026-04-01T08:53:40.999Z</time></trkpt><trkpt lat="45.60512906374108" lon="10.746409229025753"><ele>397.0</ele><time>2026-04-01T08:53:44.999Z</time></trkpt><trkpt lat="45.605145327333865" lon="10.746279532984998"><ele>397.0</ele><time>2026-04-01T08:53:47.999Z</time></trkpt><trkpt lat="45.605211594336076" lon="10.746274450257406"><ele>397.0</ele><time>2026-04-01T08:53:49.999Z</time></trkpt><trkpt lat="45.60526999541383" lon="10.746368966828111"><ele>397.0</ele><time>2026-04-01T08:53:51.999Z</time></trkpt><trkpt lat="45.60533159907942" lon="10.746467619432673"><ele>397.0</ele><time>2026-04-01T08:53:53.999Z</time></trkpt><trkpt lat="45.605438402797816" lon="10.746555650117513"><ele>402.6</ele><time>2026-04-01T08:53:55.999Z</time></trkpt><trkpt lat="45.605540845403105" lon="10.746595564540524"><ele>408.20000000000005</ele><time>2026-04-01T08:53:57.999Z</time></trkpt><trkpt lat="45.6056458863898" lon="10.746667551079335"><ele>413.8</ele><time>2026-04-01T08:53:59.999Z</time></trkpt><trkpt lat="45.60574793873107" lon="10.746694865285082"><ele>419.4</ele><time>2026-04-01T08:54:01.999Z</time></trkpt><trkpt lat="45.605838903899816" lon="10.746704574568515"><ele>425.0</ele><time>2026-04-01T08:54:03.999Z</time></trkpt><trkpt lat="45.60592328940522" lon="10.74674247249642"><ele>424.99999999999994</ele><time>2026-04-01T08:54:05.999Z</time></trkpt><trkpt lat="45.605988165656235" lon="10.746747065463321"><ele>425.0</ele><time>2026-04-01T08:54:09.999Z</time></trkpt><trkpt lat="45.60604113999702" lon="10.746679342393255"><ele>425.0</ele><time>2026-04-01T08:54:12.999Z</time></trkpt><trkpt lat="45.6061008766188" lon="10.746592078556546"><ele>425.0</ele><time>2026-04-01T08:54:15.999Z</time></trkpt><trkpt lat="45.606164425993526" lon="10.746522564043397"><ele>424.99999999999994</ele><time>2026-04-01T08:54:17.999Z</time></trkpt><trkpt lat="45.60621992596753" lon="10.74641484868022"><ele>425.0</ele><time>2026-04-01T08:54:19.999Z</time></trkpt><trkpt lat="45.606264903303206" lon="10.746331721275448"><ele>427.49999999999994</ele><time>2026-04-01T08:54:20.999Z</time></trkpt><trkpt lat="45.60631216521961" lon="10.746204121919765"><ele>430.0</ele><time>2026-04-01T08:54:22.999Z</time></trkpt><trkpt lat="45.60637115889028" lon="10.746082439474922"><ele>432.5</ele><time>2026-04-01T08:54:24.999Z</time></trkpt><trkpt lat="45.60639331884146" lon="10.745957180901373"><ele>435.0</ele><time>2026-04-01T08:54:26.999Z</time></trkpt><trkpt lat="45.60645428379316" lon="10.745923052833188"><ele>437.49999999999994</ele><time>2026-04-01T08:54:45Z</time></trkpt><trkpt lat="45.60650330368664" lon="10.745834687251936"><ele>440.0</ele><time>2026-04-01T08:54:48Z</time></trkpt><trkpt lat="45.606554920590746" lon="10.74576426456849"><ele>443.8</ele><time>2026-04-01T08:54:50Z</time></trkpt><trkpt lat="45.60661409418723" lon="10.745658357989461"><ele>447.6</ele><time>2026-04-01T08:54:53Z</time></trkpt><trkpt lat="45.606676620670235" lon="10.74558208417572"><ele>451.4</ele><time>2026-04-01T08:54:55Z</time></trkpt><trkpt lat="45.606740704442856" lon="10.74550926761984"><ele>455.2</ele><time>2026-04-01T08:54:57Z</time></trkpt><trkpt lat="45.606798099711185" lon="10.745374507975715"><ele>459.0</ele><time>2026-04-01T08:54:59Z</time></trkpt><trkpt lat="45.60686328547074" lon="10.745285049709821"><ele>460.0</ele><time>2026-04-01T08:55:01Z</time></trkpt><trkpt lat="45.60693760522227" lon="10.745186587663522"><ele>461.0</ele><time>2026-04-01T08:55:04Z</time></trkpt><trkpt lat="45.60703667621998" lon="10.745059796506208"><ele>462.0</ele><time>2026-04-01T08:55:06Z</time></trkpt><trkpt lat="45.60711720443434" lon="10.744933243263825"><ele>463.0</ele><time>2026-04-01T08:55:07Z</time></trkpt><trkpt lat="45.6071771342243" lon="10.744897166889224"><ele>464.0</ele><time>2026-04-01T08:55:08Z</time></trkpt><trkpt lat="45.60724020902548" lon="10.744832492273279"><ele>465.66666666666663</ele><time>2026-04-01T08:55:10Z</time></trkpt><trkpt lat="45.607313635011835" lon="10.744709683764253"><ele>467.3333333333333</ele><time>2026-04-01T08:55:12Z</time></trkpt><trkpt lat="45.60736220561483" lon="10.744631313452958"><ele>469.0</ele><time>2026-04-01T08:55:13Z</time></trkpt><trkpt lat="45.60736591528712" lon="10.744492874399997"><ele>470.66666666666663</ele><time>2026-04-01T08:55:14Z</time></trkpt><trkpt lat="45.60738017909794" lon="10.744379155456551"><ele>472.3333333333333</ele><time>2026-04-01T08:55:15Z</time></trkpt><trkpt lat="45.60740963128114" lon="10.74426666693768"><ele>474.0</ele><time>2026-04-01T08:55:17Z</time></trkpt><trkpt lat="45.60744618255842" lon="10.744174291394753"><ele>477.5</ele><time>2026-04-01T08:55:19Z</time></trkpt><trkpt lat="45.607480745710255" lon="10.744085732128742"><ele>481.0</ele><time>2026-04-01T09:00:38.999Z</time></trkpt><trkpt lat="45.607445382549336" lon="10.743987351715914"><ele>484.5</ele><time>2026-04-01T09:00:42.999Z</time></trkpt><trkpt lat="45.60741724004532" lon="10.74386492313022"><ele>488.0</ele><time>2026-04-01T09:00:45.999Z</time></trkpt><trkpt lat="45.60747157186769" lon="10.74374597422123"><ele>491.5</ele><time>2026-04-01T09:00:47.998Z</time></trkpt><trkpt lat="45.60754431916985" lon="10.743647388524751"><ele>495.0</ele><time>2026-04-01T09:00:49.998Z</time></trkpt><trkpt lat="45.607589855107406" lon="10.743578210470712"><ele>495.6</ele><time>2026-04-01T09:00:50.998Z</time></trkpt><trkpt lat="45.607659365743864" lon="10.743456563913565"><ele>496.2</ele><time>2026-04-01T09:00:52.998Z</time></trkpt><trkpt lat="45.60775026423175" lon="10.743359606588315"><ele>496.79999999999995</ele><time>2026-04-01T09:00:54.998Z</time></trkpt><trkpt lat="45.60781132125273" lon="10.743266130552596"><ele>497.4</ele><time>2026-04-01T09:00:58Z</time></trkpt><trkpt lat="45.60789924991632" lon="10.743202342443968"><ele>498.0</ele><time>2026-04-01T09:01:00Z</time></trkpt><trkpt lat="45.60795655499266" lon="10.743099794061052"><ele>502.6666666666667</ele><time>2026-04-01T09:01:03Z</time></trkpt><trkpt lat="45.60803202066882" lon="10.74302782509143"><ele>507.33333333333337</ele><time>2026-04-01T09:01:05Z</time></trkpt><trkpt lat="45.60809199161196" lon="10.742992061662944"><ele>512.0</ele><time>2026-04-01T09:01:07Z</time></trkpt><trkpt lat="45.60818510111264" lon="10.74294291057906"><ele>516.6666666666667</ele><time>2026-04-01T09:01:09Z</time></trkpt><trkpt lat="45.60828586627322" lon="10.742908342229995"><ele>521.3333333333334</ele><time>2026-04-01T09:01:11Z</time></trkpt><trkpt lat="45.60835500014245" lon="10.742829584321512"><ele>526.0</ele><time>2026-04-01T09:01:13Z</time></trkpt><trkpt lat="45.60845947828708" lon="10.742795296211519"><ele>526.0</ele><time>2026-04-01T09:01:15Z</time></trkpt><trkpt lat="45.608583867985175" lon="10.742753688439393"><ele>526.0</ele><time>2026-04-01T09:01:17Z</time></trkpt><trkpt lat="45.608638814311114" lon="10.742709183099167"><ele>526.0</ele><time>2026-04-01T09:01:18Z</time></trkpt><trkpt lat="45.6087626808277" lon="10.74269555167607"><ele>526.0</ele><time>2026-04-01T09:01:20Z</time></trkpt><trkpt lat="45.60884664339202" lon="10.742684387155583"><ele>526.0</ele><time>2026-04-01T09:01:23Z</time></trkpt><trkpt lat="45.608898094869716" lon="10.742586963345156"><ele>528.8</ele><time>2026-04-01T09:01:26Z</time></trkpt><trkpt lat="45.608978995515905" lon="10.742518939157996"><ele>531.6</ele><time>2026-04-01T09:01:29Z</time></trkpt><trkpt lat="45.609085755427834" lon="10.742448931229475"><ele>534.4</ele><time>2026-04-01T09:01:31Z</time></trkpt><trkpt lat="45.60921215415075" lon="10.742420312593937"><ele>537.2</ele><time>2026-04-01T09:01:32Z</time></trkpt><trkpt lat="45.60929003375067" lon="10.742395187808702"><ele>540.0</ele><time>2026-04-01T09:01:35Z</time></trkpt><trkpt lat="45.60936633706013" lon="10.742255807871006"><ele>540.0</ele><time>2026-04-01T09:01:37Z</time></trkpt><trkpt lat="45.60941012015208" lon="10.742160144491143"><ele>540.0</ele><time>2026-04-01T09:01:38Z</time></trkpt><trkpt lat="45.60946978577442" lon="10.742108288346781"><ele>540.0</ele><time>2026-04-01T09:01:39Z</time></trkpt><trkpt lat="45.60954298899755" lon="10.742061771809517"><ele>540.0</ele><time>2026-04-01T09:01:40Z</time></trkpt><trkpt lat="45.60957488223984" lon="10.74197371046767"><ele>540.0</ele><time>2026-04-01T09:01:42Z</time></trkpt><trkpt lat="45.60952334739513" lon="10.741913086460695"><ele>540.0</ele><time>2026-04-01T09:01:43Z</time></trkpt><trkpt lat="45.60963180626191" lon="10.741796278652863"><ele>540.3333333333334</ele><time>2026-04-01T09:01:45Z</time></trkpt><trkpt lat="45.60969780890188" lon="10.741720032195039"><ele>540.6666666666666</ele><time>2026-04-01T09:01:46Z</time></trkpt><trkpt lat="45.60975801454427" lon="10.741672119853199"><ele>541.0</ele><time>2026-04-01T09:01:46.999Z</time></trkpt><trkpt lat="45.60981970406313" lon="10.741648818550967"><ele>541.3333333333333</ele><time>2026-04-01T09:01:47.999Z</time></trkpt><trkpt lat="45.609898546769756" lon="10.741654740394866"><ele>541.6666666666666</ele><time>2026-04-01T09:01:48.999Z</time></trkpt><trkpt lat="45.60997417172469" lon="10.741609509718108"><ele>542.0</ele><time>2026-04-01T09:01:49.999Z</time></trkpt><trkpt lat="45.61004482125836" lon="10.74157675592387"><ele>542.0</ele><time>2026-04-01T09:01:50.999Z</time></trkpt><trkpt lat="45.610090572516604" lon="10.741508810182829"><ele>542.0</ele><time>2026-04-01T09:01:51.999Z</time></trkpt><trkpt lat="45.610147945889956" lon="10.741450280324685"><ele>542.0</ele><time>2026-04-01T09:01:52.999Z</time></trkpt><trkpt lat="45.61024069828435" lon="10.741455814241975"><ele>542.0</ele><time>2026-04-01T09:01:54.999Z</time></trkpt><trkpt lat="45.61025086140439" lon="10.741351429407516"><ele>542.0</ele><time>2026-04-01T09:01:59.999Z</time></trkpt><trkpt lat="45.610295737363856" lon="10.741266179561498"><ele>542.0</ele><time>2026-04-01T09:02:18.999Z</time></trkpt><trkpt lat="45.610343359302426" lon="10.741196002589929"><ele>542.0</ele><time>2026-04-01T09:02:19.999Z</time></trkpt><trkpt lat="45.610409669681246" lon="10.741149049957837"><ele>544.75</ele><time>2026-04-01T09:02:20.999Z</time></trkpt><trkpt lat="45.61054233172116" lon="10.741101889154113"><ele>547.5</ele><time>2026-04-01T09:02:22.999Z</time></trkpt><trkpt lat="45.61062206897948" lon="10.741082161391425"><ele>550.25</ele><time>2026-04-01T09:02:23.999Z</time></trkpt><trkpt lat="45.61076331632456" lon="10.74098688355991"><ele>553.0</ele><time>2026-04-01T09:02:25.999Z</time></trkpt><trkpt lat="45.610828555826664" lon="10.740929591375997"><ele>549.8</ele><time>2026-04-01T09:02:26.999Z</time></trkpt><trkpt lat="45.610911160664045" lon="10.740894900010277"><ele>546.5999999999999</ele><time>2026-04-01T09:02:27.999Z</time></trkpt><trkpt lat="45.611007329366856" lon="10.740865447074306"><ele>543.4000000000001</ele><time>2026-04-01T09:02:28.999Z</time></trkpt><trkpt lat="45.611100196566824" lon="10.74083124345205"><ele>540.2</ele><time>2026-04-01T09:02:29.999Z</time></trkpt><trkpt lat="45.611182661404804" lon="10.740793311418562"><ele>537.0</ele><time>2026-04-01T09:02:30.999Z</time></trkpt><trkpt lat="45.61124988595054" lon="10.740722026362034"><ele>537.0</ele><time>2026-04-01T09:02:31.999Z</time></trkpt><trkpt lat="45.611315279276624" lon="10.740657945775126"><ele>537.0</ele><time>2026-04-01T09:02:32.999Z</time></trkpt><trkpt lat="45.61136739101308" lon="10.740546332861081"><ele>537.0</ele><time>2026-04-01T09:02:34.999Z</time></trkpt><trkpt lat="45.611308854989716" lon="10.740385355524008"><ele>537.0</ele><time>2026-04-01T09:02:36.999Z</time></trkpt><trkpt lat="45.61128798200918" lon="10.740261018590166"><ele>537.0</ele><time>2026-04-01T09:02:37.999Z</time></trkpt><trkpt lat="45.611297140323906" lon="10.740161744401536"><ele>532.8000000000001</ele><time>2026-04-01T09:02:38.999Z</time></trkpt><trkpt lat="45.61139656113786" lon="10.740082070485737"><ele>528.6</ele><time>2026-04-01T09:02:40.999Z</time></trkpt><trkpt lat="45.61147982656943" lon="10.740068617330154"><ele>524.4000000000001</ele><time>2026-04-01T09:02:41.999Z</time></trkpt><trkpt lat="45.611599156165106" lon="10.740064622460888"><ele>520.2</ele><time>2026-04-01T09:02:42.999Z</time></trkpt><trkpt lat="45.61169369463421" lon="10.74005178145088"><ele>516.0</ele><time>2026-04-01T09:02:43.999Z</time></trkpt><trkpt lat="45.61175860703196" lon="10.740032581039484"><ele>516.0</ele><time>2026-04-01T09:02:44.999Z</time></trkpt><trkpt lat="45.611811781496506" lon="10.740087564132628"><ele>516.0</ele><time>2026-04-01T09:02:46.999Z</time></trkpt><trkpt lat="45.611899247087095" lon="10.740098093410051"><ele>516.0</ele><time>2026-04-01T09:02:48.999Z</time></trkpt><trkpt lat="45.61196186311783" lon="10.740128409838716"><ele>516.0</ele><time>2026-04-01T09:02:49.999Z</time></trkpt><trkpt lat="45.61203135038409" lon="10.740161047436697"><ele>516.0</ele><time>2026-04-01T09:02:51.999Z</time></trkpt><trkpt lat="45.612135487898364" lon="10.74010437587113"><ele>516.0</ele><time>2026-04-01T09:02:55.999Z</time></trkpt><trkpt lat="45.61220677587379" lon="10.740132517750075"><ele>516.1666666666666</ele><time>2026-04-01T09:02:56.998Z</time></trkpt><trkpt lat="45.61229417527191" lon="10.740153969140495"><ele>516.3333333333334</ele><time>2026-04-01T09:02:57.998Z</time></trkpt><trkpt lat="45.61238214779024" lon="10.740164170780913"><ele>516.5</ele><time>2026-04-01T09:02:58.998Z</time></trkpt><trkpt lat="45.61247969400706" lon="10.74022319639716"><ele>516.6666666666667</ele><time>2026-04-01T09:02:59.998Z</time></trkpt><trkpt lat="45.61256567308521" lon="10.740282216854675"><ele>516.8333333333334</ele><time>2026-04-01T09:03:00.998Z</time></trkpt><trkpt lat="45.61263295672404" lon="10.74031001353164"><ele>517.0</ele><time>2026-04-01T09:03:02Z</time></trkpt><trkpt lat="45.61272773438178" lon="10.74039437445727"><ele>523.0</ele><time>2026-04-01T09:03:04Z</time></trkpt><trkpt lat="45.61278769881003" lon="10.740441184841819"><ele>529.0</ele><time>2026-04-01T09:03:06Z</time></trkpt><trkpt lat="45.61299669971599" lon="10.740328189764696"><ele>535.0</ele><time>2026-04-01T09:03:08Z</time></trkpt><trkpt lat="45.613093281317866" lon="10.74030714118772"><ele>541.0</ele><time>2026-04-01T09:03:09Z</time></trkpt><trkpt lat="45.6131915189993" lon="10.740267161278636"><ele>541.1666666666667</ele><time>2026-04-01T09:03:10Z</time></trkpt><trkpt lat="45.61327514187607" lon="10.740230969798613"><ele>541.3333333333334</ele><time>2026-04-01T09:03:11Z</time></trkpt><trkpt lat="45.61334614785788" lon="10.740204593502657"><ele>541.5</ele><time>2026-04-01T09:03:12Z</time></trkpt><trkpt lat="45.61342064759118" lon="10.740172429058461"><ele>541.6666666666666</ele><time>2026-04-01T09:03:13Z</time></trkpt><trkpt lat="45.61350524936712" lon="10.740163785795017"><ele>541.8333333333333</ele><time>2026-04-01T09:03:14Z</time></trkpt><trkpt lat="45.61360736137328" lon="10.740189006056317"><ele>542.0</ele><time>2026-04-01T09:03:15Z</time></trkpt><trkpt lat="45.613687464358506" lon="10.740191424030836"><ele>536.2</ele><time>2026-04-01T09:03:16Z</time></trkpt><trkpt lat="45.61382696607061" lon="10.7401832355391"><ele>530.4000000000001</ele><time>2026-04-01T09:03:18Z</time></trkpt><trkpt lat="45.61394219110413" lon="10.740191587036767"><ele>524.5999999999999</ele><time>2026-04-01T09:03:19Z</time></trkpt><trkpt lat="45.614042263328166" lon="10.74020535505365"><ele>518.8</ele><time>2026-04-01T09:03:20Z</time></trkpt><trkpt lat="45.61411005340923" lon="10.74021151183036"><ele>513.0</ele><time>2026-04-01T09:03:21Z</time></trkpt><trkpt lat="45.61416954153645" lon="10.74017460321089"><ele>513.0</ele><time>2026-04-01T09:03:22Z</time></trkpt><trkpt lat="45.61424277305365" lon="10.740122130594079"><ele>513.0</ele><time>2026-04-01T09:03:23Z</time></trkpt><trkpt lat="45.61432124907193" lon="10.740109219186717"><ele>513.0</ele><time>2026-04-01T09:03:24Z</time></trkpt><trkpt lat="45.61441134405376" lon="10.740128219990003"><ele>513.0</ele><time>2026-04-01T09:03:25Z</time></trkpt><trkpt lat="45.614481346012724" lon="10.740160745584435"><ele>513.0</ele><time>2026-04-01T09:03:26Z</time></trkpt><trkpt lat="45.614547312698534" lon="10.740217785723916"><ele>513.0</ele><time>2026-04-01T09:03:27Z</time></trkpt><trkpt lat="45.614617732519136" lon="10.74030242531089"><ele>511.6666666666667</ele><time>2026-04-01T09:03:28Z</time></trkpt><trkpt lat="45.61466306290605" lon="10.740371844325667"><ele>510.33333333333337</ele><time>2026-04-01T09:03:29Z</time></trkpt><trkpt lat="45.61471181146867" lon="10.740441103167916"><ele>509.0</ele><time>2026-04-01T09:03:31Z</time></trkpt><trkpt lat="45.61475268438183" lon="10.740615969217863"><ele>507.6666666666667</ele><time>2026-04-01T09:03:33Z</time></trkpt><trkpt lat="45.61475514994401" lon="10.740717140849842"><ele>506.33333333333337</ele><time>2026-04-01T09:03:34Z</time></trkpt><trkpt lat="45.614769318300176" lon="10.740878199192135"><ele>505.0</ele><time>2026-04-01T09:03:36Z</time></trkpt><trkpt lat="45.61480735990026" lon="10.74104241048765"><ele>507.0</ele><time>2026-04-01T09:03:38Z</time></trkpt><trkpt lat="45.61482738432862" lon="10.741135045563919"><ele>509.0</ele><time>2026-04-01T09:03:39Z</time></trkpt><trkpt lat="45.61482606478516" lon="10.741287649412863"><ele>511.0</ele><time>2026-04-01T09:03:41Z</time></trkpt><trkpt lat="45.614819957670555" lon="10.741413795532571"><ele>513.0</ele><time>2026-04-01T09:03:42Z</time></trkpt><trkpt lat="45.61483691668928" lon="10.741569703399469"><ele>515.0</ele><time>2026-04-01T09:03:43Z</time></trkpt><trkpt lat="45.61485683085875" lon="10.741683125844014"><ele>515.0</ele><time>2026-04-01T09:03:44Z</time></trkpt><trkpt lat="45.61487403992958" lon="10.7417816706891"><ele>515.0</ele><time>2026-04-01T09:03:45Z</time></trkpt><trkpt lat="45.61490830613249" lon="10.741907685195804"><ele>515.0</ele><time>2026-04-01T09:03:47Z</time></trkpt><trkpt lat="45.6149963235565" lon="10.741944658309665"><ele>515.0</ele><time>2026-04-01T09:03:49Z</time></trkpt><trkpt lat="45.61506617749502" lon="10.741959001706892"><ele>515.0</ele><time>2026-04-01T09:03:50Z</time></trkpt><trkpt lat="45.61516654915873" lon="10.742000007110352"><ele>515.0</ele><time>2026-04-01T09:03:51Z</time></trkpt><trkpt lat="45.61526254968024" lon="10.74204107281096"><ele>513.4</ele><time>2026-04-01T09:03:52Z</time></trkpt><trkpt lat="45.61536476323968" lon="10.742019977124514"><ele>511.8</ele><time>2026-04-01T09:03:53Z</time></trkpt><trkpt lat="45.61548451203898" lon="10.741992666639948"><ele>510.20000000000005</ele><time>2026-04-01T09:03:54Z</time></trkpt><trkpt lat="45.61558484709729" lon="10.741972759256573"><ele>508.6</ele><time>2026-04-01T09:03:54.999Z</time></trkpt><trkpt lat="45.61567353571723" lon="10.741920323276162"><ele>507.0</ele><time>2026-04-01T09:03:55.999Z</time></trkpt><trkpt lat="45.61576320133883" lon="10.741856455248795"><ele>507.0</ele><time>2026-04-01T09:03:56.999Z</time></trkpt><trkpt lat="45.615867213329246" lon="10.741828703269073"><ele>507.0</ele><time>2026-04-01T09:03:57.999Z</time></trkpt><trkpt lat="45.61595222857402" lon="10.741807754290281"><ele>507.0</ele><time>2026-04-01T09:03:58.999Z</time></trkpt><trkpt lat="45.61603090003418" lon="10.741803633184222"><ele>507.0</ele><time>2026-04-01T09:03:59.999Z</time></trkpt><trkpt lat="45.61611399600688" lon="10.741850135518783"><ele>507.0</ele><time>2026-04-01T09:04:00.999Z</time></trkpt><trkpt lat="45.61620147792883" lon="10.74186765742772"><ele>507.0</ele><time>2026-04-01T09:04:01.999Z</time></trkpt><trkpt lat="45.6163214881159" lon="10.741810128436882"><ele>508.20000000000005</ele><time>2026-04-01T09:04:02.999Z</time></trkpt><trkpt lat="45.61643865017411" lon="10.741759384404437"><ele>509.40000000000003</ele><time>2026-04-01T09:04:03.999Z</time></trkpt><trkpt lat="45.61654831816941" lon="10.741721138652915"><ele>510.59999999999997</ele><time>2026-04-01T09:04:04.999Z</time></trkpt><trkpt lat="45.616641157941565" lon="10.741661035434719"><ele>511.79999999999995</ele><time>2026-04-01T09:04:05.999Z</time></trkpt><trkpt lat="45.61672391288007" lon="10.741593362642785"><ele>513.0</ele><time>2026-04-01T09:04:06.999Z</time></trkpt><trkpt lat="45.61680987407042" lon="10.741551205052676"><ele>513.0</ele><time>2026-04-01T09:04:07.999Z</time></trkpt><trkpt lat="45.61690379960832" lon="10.741526140478994"><ele>513.0</ele><time>2026-04-01T09:04:08.999Z</time></trkpt><trkpt lat="45.61697611535922" lon="10.741517045754652"><ele>513.0</ele><time>2026-04-01T09:04:09.999Z</time></trkpt><trkpt lat="45.61707108444035" lon="10.741400953795557"><ele>513.0</ele><time>2026-04-01T09:04:11.999Z</time></trkpt><trkpt lat="45.617081514542214" lon="10.741290112692782"><ele>513.0</ele><time>2026-04-01T09:04:12.999Z</time></trkpt><trkpt lat="45.617121530123754" lon="10.741177477678411"><ele>513.0</ele><time>2026-04-01T09:04:13.999Z</time></trkpt><trkpt lat="45.61718416537539" lon="10.741086852300207"><ele>513.0</ele><time>2026-04-01T09:04:14.999Z</time></trkpt><trkpt lat="45.61725849345167" lon="10.741001761502961"><ele>513.0</ele><time>2026-04-01T09:04:15.999Z</time></trkpt><trkpt lat="45.617336863509" lon="10.740947021846223"><ele>513.0</ele><time>2026-04-01T09:04:16.999Z</time></trkpt><trkpt lat="45.61741704489511" lon="10.740888364511825"><ele>513.0</ele><time>2026-04-01T09:04:17.999Z</time></trkpt><trkpt lat="45.61748584719714" lon="10.740830239401918"><ele>513.0</ele><time>2026-04-01T09:04:18.999Z</time></trkpt><trkpt lat="45.617579135690896" lon="10.740815831216404"><ele>513.0</ele><time>2026-04-01T09:04:19.999Z</time></trkpt><trkpt lat="45.61767033127039" lon="10.740796964733754"><ele>513.0</ele><time>2026-04-01T09:04:20.999Z</time></trkpt><trkpt lat="45.61774748024634" lon="10.740776214401723"><ele>513.0</ele><time>2026-04-01T09:04:21.999Z</time></trkpt><trkpt lat="45.617817375485124" lon="10.740762317427773"><ele>513.0</ele><time>2026-04-01T09:04:22.999Z</time></trkpt><trkpt lat="45.61790039799959" lon="10.740707869850143"><ele>513.0</ele><time>2026-04-01T09:04:23.999Z</time></trkpt><trkpt lat="45.61796305928831" lon="10.740642490100877"><ele>513.0</ele><time>2026-04-01T09:04:24.999Z</time></trkpt><trkpt lat="45.618068526089736" lon="10.740619591565302"><ele>517.6</ele><time>2026-04-01T09:04:26.999Z</time></trkpt><trkpt lat="45.61815009086646" lon="10.740652563979255"><ele>522.1999999999999</ele><time>2026-04-01T09:04:27.999Z</time></trkpt><trkpt lat="45.618267918737935" lon="10.740695471608754"><ele>526.8</ele><time>2026-04-01T09:04:29.999Z</time></trkpt><trkpt lat="45.618344789105215" lon="10.740587065808834"><ele>531.4</ele><time>2026-04-01T09:04:31.999Z</time></trkpt><trkpt lat="45.618443867237" lon="10.740475263333709"><ele>536.0</ele><time>2026-04-01T09:04:33.999Z</time></trkpt><trkpt lat="45.618507464080565" lon="10.740426740928958"><ele>536.0</ele><time>2026-04-01T09:04:34.999Z</time></trkpt><trkpt lat="45.618565857458236" lon="10.740354228107497"><ele>536.0</ele><time>2026-04-01T09:04:36.999Z</time></trkpt><trkpt lat="45.618517311299044" lon="10.740256125547722"><ele>536.0</ele><time>2026-04-01T09:04:38.999Z</time></trkpt><trkpt lat="45.61847474829619" lon="10.74017494464603"><ele>536.0</ele><time>2026-04-01T09:04:39.999Z</time></trkpt><trkpt lat="45.618421236963556" lon="10.740038855996449"><ele>536.0</ele><time>2026-04-01T09:04:40.999Z</time></trkpt><trkpt lat="45.618360788827545" lon="10.739932401625952"><ele>536.0</ele><time>2026-04-01T09:04:41.999Z</time></trkpt><trkpt lat="45.618289209310014" lon="10.739878138421444"><ele>535.8</ele><time>2026-04-01T09:04:42.999Z</time></trkpt><trkpt lat="45.6182389071432" lon="10.739814984753133"><ele>535.6</ele><time>2026-04-01T09:04:44.999Z</time></trkpt><trkpt lat="45.618312634356414" lon="10.739687871404772"><ele>535.4</ele><time>2026-04-01T09:04:46.999Z</time></trkpt><trkpt lat="45.61840639858946" lon="10.739573563034723"><ele>535.2</ele><time>2026-04-01T09:04:48.999Z</time></trkpt><trkpt lat="45.61850714359805" lon="10.739496445097522"><ele>535.0</ele><time>2026-04-01T09:04:50.999Z</time></trkpt><trkpt lat="45.61859679138011" lon="10.73957863992145"><ele>539.6666666666667</ele><time>2026-04-01T09:04:52.999Z</time></trkpt><trkpt lat="45.61867845333775" lon="10.739613802475148"><ele>544.3333333333334</ele><time>2026-04-01T09:04:54.999Z</time></trkpt><trkpt lat="45.618726100871626" lon="10.739477801477136"><ele>549.0</ele><time>2026-04-01T09:04:56.999Z</time></trkpt><trkpt lat="45.61870419706471" lon="10.739388349001402"><ele>553.6666666666666</ele><time>2026-04-01T09:04:57.999Z</time></trkpt><trkpt lat="45.61873320665115" lon="10.739299607928016"><ele>558.3333333333333</ele><time>2026-04-01T09:05:00.999Z</time></trkpt><trkpt lat="45.61881889861751" lon="10.739227055323916"><ele>563.0</ele><time>2026-04-01T09:06:27.999Z</time></trkpt><trkpt lat="45.61890868704424" lon="10.739189712042277"><ele>563.0</ele><time>2026-04-01T09:06:29.999Z</time></trkpt><trkpt lat="45.61900572398815" lon="10.73922833265257"><ele>563.0</ele><time>2026-04-01T09:06:31.999Z</time></trkpt><trkpt lat="45.6191037907403" lon="10.739294185357666"><ele>563.0</ele><time>2026-04-01T09:06:33.999Z</time></trkpt><trkpt lat="45.61917914811623" lon="10.739357317290564"><ele>563.0</ele><time>2026-04-01T09:06:36.999Z</time></trkpt><trkpt lat="45.61917450559505" lon="10.739449726458698"><ele>563.0</ele><time>2026-04-01T09:06:38.999Z</time></trkpt><trkpt lat="45.61923005163842" lon="10.739529044938129"><ele>563.0</ele><time>2026-04-01T09:06:42.999Z</time></trkpt><trkpt lat="45.619251068729966" lon="10.739630751006189"><ele>563.0</ele><time>2026-04-01T09:06:45.999Z</time></trkpt><trkpt lat="45.6192506335063" lon="10.739756173826212"><ele>563.0</ele><time>2026-04-01T09:06:48.999Z</time></trkpt><trkpt lat="45.61926984132076" lon="10.739845921637404"><ele>563.0</ele><time>2026-04-01T09:06:53.999Z</time></trkpt><trkpt lat="45.61932565950453" lon="10.739890483846887"><ele>563.0</ele><time>2026-04-01T09:06:55.999Z</time></trkpt><trkpt lat="45.61936738431909" lon="10.7399611704237"><ele>563.0</ele><time>2026-04-01T09:06:58.999Z</time></trkpt><trkpt lat="45.61942719247993" lon="10.740031037012365"><ele>563.0</ele><time>2026-04-01T09:07:01.999Z</time></trkpt><trkpt lat="45.61950070398789" lon="10.74005401026648"><ele>563.0</ele><time>2026-04-01T09:07:03.998Z</time></trkpt><trkpt lat="45.61959065959126" lon="10.740113703105047"><ele>567.6666666666666</ele><time>2026-04-01T09:07:06.998Z</time></trkpt><trkpt lat="45.619662585383445" lon="10.740186750515559"><ele>572.3333333333333</ele><time>2026-04-01T09:07:08.998Z</time></trkpt><trkpt lat="45.61970205146281" lon="10.740260710915468"><ele>577.0</ele><time>2026-04-01T09:07:09.998Z</time></trkpt><trkpt lat="45.61975923774989" lon="10.740322275720843"><ele>581.6666666666666</ele><time>2026-04-01T09:07:11.998Z</time></trkpt><trkpt lat="45.61980037267471" lon="10.74040757405464"><ele>586.3333333333334</ele><time>2026-04-01T09:07:14Z</time></trkpt><trkpt lat="45.619855953702185" lon="10.740466310285749"><ele>591.0</ele><time>2026-04-01T09:07:16Z</time></trkpt><trkpt lat="45.61993386148631" lon="10.740510117225273"><ele>591.0</ele><time>2026-04-01T09:07:18Z</time></trkpt><trkpt lat="45.619988258925005" lon="10.740563175890554"><ele>591.0</ele><time>2026-04-01T09:07:22Z</time></trkpt><trkpt lat="45.61998757960125" lon="10.740691302116925"><ele>591.0</ele><time>2026-04-01T09:07:24Z</time></trkpt><trkpt lat="45.61997209547996" lon="10.740814629198269"><ele>591.0</ele><time>2026-04-01T09:07:26Z</time></trkpt><trkpt lat="45.61997098881598" lon="10.740936830793089"><ele>591.0</ele><time>2026-04-01T09:07:29Z</time></trkpt><trkpt lat="45.61995883872256" lon="10.741043613535613"><ele>591.0</ele><time>2026-04-01T09:07:32Z</time></trkpt><trkpt lat="45.619961225010805" lon="10.741137125367377"><ele>592.6666666666666</ele><time>2026-04-01T09:07:34Z</time></trkpt><trkpt lat="45.619977630240776" lon="10.741258171091078"><ele>594.3333333333334</ele><time>2026-04-01T09:07:37Z</time></trkpt><trkpt lat="45.619975781054485" lon="10.741371599313911"><ele>596.0</ele><time>2026-04-01T09:07:40Z</time></trkpt><trkpt lat="45.619986569821926" lon="10.741475914974403"><ele>597.6666666666667</ele><time>2026-04-01T09:07:42Z</time></trkpt><trkpt lat="45.61999304020205" lon="10.741569757876524"><ele>599.3333333333334</ele><time>2026-04-01T09:07:44Z</time></trkpt><trkpt lat="45.620033066570905" lon="10.741693943321263"><ele>601.0</ele><time>2026-04-01T09:07:47Z</time></trkpt><trkpt lat="45.62005760439108" lon="10.741795021076738"><ele>602.5</ele><time>2026-04-01T09:07:49Z</time></trkpt><trkpt lat="45.620055816295846" lon="10.74191550667505"><ele>604.0</ele><time>2026-04-01T09:07:52Z</time></trkpt><trkpt lat="45.620063662903654" lon="10.742022731131533"><ele>605.5</ele><time>2026-04-01T09:07:54Z</time></trkpt><trkpt lat="45.62010005217284" lon="10.742118946732104"><ele>607.0</ele><time>2026-04-01T09:07:56Z</time></trkpt><trkpt lat="45.620109744679674" lon="10.742238122966038"><ele>608.5</ele><time>2026-04-01T09:07:58Z</time></trkpt><trkpt lat="45.62011377996503" lon="10.74236690133701"><ele>610.0</ele><time>2026-04-01T09:07:59.999Z</time></trkpt><trkpt lat="45.62011925591951" lon="10.74248539416285"><ele>610.0</ele><time>2026-04-01T09:08:01.999Z</time></trkpt><trkpt lat="45.62011842508964" lon="10.742602732235982"><ele>610.0</ele><time>2026-04-01T09:08:03.999Z</time></trkpt><trkpt lat="45.62012250011253" lon="10.74272425218738"><ele>610.0</ele><time>2026-04-01T09:08:05.999Z</time></trkpt><trkpt lat="45.62012838437424" lon="10.742853914036024"><ele>610.0</ele><time>2026-04-01T09:08:08.999Z</time></trkpt><trkpt lat="45.62013131618884" lon="10.742985277013872"><ele>610.0</ele><time>2026-04-01T09:08:10.999Z</time></trkpt><trkpt lat="45.620126539303484" lon="10.74312950715876"><ele>611.3333333333334</ele><time>2026-04-01T09:08:12.999Z</time></trkpt><trkpt lat="45.62013361694906" lon="10.743243240748576"><ele>612.6666666666667</ele><time>2026-04-01T09:08:14.999Z</time></trkpt><trkpt lat="45.62014582902031" lon="10.743380918158179"><ele>614.0</ele><time>2026-04-01T09:08:16.999Z</time></trkpt><trkpt lat="45.620142858451494" lon="10.74349241956401"><ele>615.3333333333334</ele><time>2026-04-01T09:08:18.999Z</time></trkpt><trkpt lat="45.62014939458424" lon="10.74359276258086"><ele>616.6666666666666</ele><time>2026-04-01T09:08:20.999Z</time></trkpt><trkpt lat="45.62020813413223" lon="10.743660245825902"><ele>618.0</ele><time>2026-04-01T09:08:23.999Z</time></trkpt><trkpt lat="45.62028278018002" lon="10.74363465449039"><ele>622.8</ele><time>2026-04-01T09:08:26.999Z</time></trkpt><trkpt lat="45.62035681762043" lon="10.743717209012901"><ele>627.5999999999999</ele><time>2026-04-01T09:08:29.999Z</time></trkpt><trkpt lat="45.62045246350293" lon="10.743775917559896"><ele>632.4000000000001</ele><time>2026-04-01T09:08:31.999Z</time></trkpt><trkpt lat="45.620558287044226" lon="10.743842002645412"><ele>637.2</ele><time>2026-04-01T09:08:33.999Z</time></trkpt><trkpt lat="45.62064483393621" lon="10.743871465552091"><ele>642.0</ele><time>2026-04-01T09:08:35.999Z</time></trkpt><trkpt lat="45.62072442719593" lon="10.743965367585973"><ele>642.0</ele><time>2026-04-01T09:08:37.999Z</time></trkpt><trkpt lat="45.620787198541954" lon="10.744013990639285"><ele>642.0</ele><time>2026-04-01T09:08:38.999Z</time></trkpt><trkpt lat="45.62084628043989" lon="10.744066698330823"><ele>642.0</ele><time>2026-04-01T09:08:40.999Z</time></trkpt><trkpt lat="45.62091368496816" lon="10.744139206962593"><ele>642.0</ele><time>2026-04-01T09:08:42.999Z</time></trkpt><trkpt lat="45.62103568769689" lon="10.744139410571433"><ele>642.0</ele><time>2026-04-01T09:08:44.999Z</time></trkpt><trkpt lat="45.62112194520504" lon="10.74412583006363"><ele>642.0</ele><time>2026-04-01T09:08:47.999Z</time></trkpt><trkpt lat="45.621189304190466" lon="10.744136136385338"><ele>644.7142857142857</ele><time>2026-04-01T09:08:49.999Z</time></trkpt><trkpt lat="45.62126002453945" lon="10.744101491362871"><ele>647.4285714285714</ele><time>2026-04-01T09:08:51.999Z</time></trkpt><trkpt lat="45.621343181562914" lon="10.744099167857987"><ele>650.1428571428571</ele><time>2026-04-01T09:08:53.999Z</time></trkpt><trkpt lat="45.62140953748945" lon="10.74413187267117"><ele>652.8571428571429</ele><time>2026-04-01T09:08:55.999Z</time></trkpt><trkpt lat="45.62145089107793" lon="10.744048340161083"><ele>655.5714285714286</ele><time>2026-04-01T09:09:03.999Z</time></trkpt><trkpt lat="45.621424275092586" lon="10.743966204959714"><ele>658.2857142857142</ele><time>2026-04-01T09:09:05.999Z</time></trkpt><trkpt lat="45.621456921703945" lon="10.743874528303415"><ele>661.0</ele><time>2026-04-01T09:09:08.998Z</time></trkpt><trkpt lat="45.62140445152586" lon="10.743790666924873"><ele>661.0</ele><time>2026-04-01T09:09:12.998Z</time></trkpt><trkpt lat="45.621378456090746" lon="10.743706484513666"><ele>661.0</ele><time>2026-04-01T09:09:15.998Z</time></trkpt><trkpt lat="45.621356685145464" lon="10.74360135306419"><ele>661.0</ele><time>2026-04-01T09:09:20Z</time></trkpt><trkpt lat="45.621363286978216" lon="10.74348467309546"><ele>661.0</ele><time>2026-04-01T09:09:22Z</time></trkpt><trkpt lat="45.621402191200026" lon="10.74336940942774"><ele>661.0</ele><time>2026-04-01T09:09:24Z</time></trkpt><trkpt lat="45.621419885153635" lon="10.743282774774176"><ele>661.0</ele><time>2026-04-01T09:09:31Z</time></trkpt><trkpt lat="45.62147630326597" lon="10.74324282245853"><ele>661.0</ele><time>2026-04-01T09:10:55.999Z</time></trkpt><trkpt lat="45.6215784049494" lon="10.743196229517988"><ele>662.0</ele><time>2026-04-01T09:10:57.999Z</time></trkpt><trkpt lat="45.62164724261687" lon="10.743041340465187"><ele>663.0</ele><time>2026-04-01T09:10:59.999Z</time></trkpt><trkpt lat="45.62167278144727" lon="10.74292961812609"><ele>664.0</ele><time>2026-04-01T09:11:00.999Z</time></trkpt><trkpt lat="45.621714596924896" lon="10.74282284091533"><ele>665.0</ele><time>2026-04-01T09:11:01.999Z</time></trkpt><trkpt lat="45.62176007443339" lon="10.742721895448115"><ele>666.0</ele><time>2026-04-01T09:11:03.999Z</time></trkpt><trkpt lat="45.62180580453375" lon="10.74258327298328"><ele>666.0</ele><time>2026-04-01T09:11:05.999Z</time></trkpt><trkpt lat="45.62185228952553" lon="10.742519127066151"><ele>666.0</ele><time>2026-04-01T09:11:06.999Z</time></trkpt><trkpt lat="45.62189903700316" lon="10.742347567399648"><ele>666.0</ele><time>2026-04-01T09:11:08.999Z</time></trkpt><trkpt lat="45.621928812882615" lon="10.742266405802622"><ele>666.0</ele><time>2026-04-01T09:11:09.999Z</time></trkpt><trkpt lat="45.62199624571876" lon="10.74213328560648"><ele>666.0</ele><time>2026-04-01T09:11:11.999Z</time></trkpt><trkpt lat="45.62203287571392" lon="10.742035908204251"><ele>668.8571428571429</ele><time>2026-04-01T09:11:12.999Z</time></trkpt><trkpt lat="45.62205565327913" lon="10.74194608932143"><ele>671.7142857142857</ele><time>2026-04-01T09:11:13.999Z</time></trkpt><trkpt lat="45.62205515447411" lon="10.741854352961365"><ele>674.5714285714286</ele><time>2026-04-01T09:11:14.999Z</time></trkpt><trkpt lat="45.62205147985973" lon="10.741761392976697"><ele>677.4285714285714</ele><time>2026-04-01T09:11:15.998Z</time></trkpt><trkpt lat="45.62210119476559" lon="10.741684317009943"><ele>680.2857142857142</ele><time>2026-04-01T09:11:16.998Z</time></trkpt><trkpt lat="45.62213553137021" lon="10.741584294558137"><ele>683.1428571428571</ele><time>2026-04-01T09:11:17.998Z</time></trkpt><trkpt lat="45.622189178972235" lon="10.741486135565024"><ele>686.0</ele><time>2026-04-01T09:11:18.998Z</time></trkpt><trkpt lat="45.62223825333885" lon="10.741387457669873"><ele>686.0</ele><time>2026-04-01T09:11:19.998Z</time></trkpt><trkpt lat="45.62229623658225" lon="10.741310067693286"><ele>686.0</ele><time>2026-04-01T09:11:20.998Z</time></trkpt><trkpt lat="45.62235176060213" lon="10.741196352694205"><ele>686.0</ele><time>2026-04-01T09:11:21.998Z</time></trkpt><trkpt lat="45.62240132054929" lon="10.74110802629525"><ele>686.0</ele><time>2026-04-01T09:11:22.998Z</time></trkpt><trkpt lat="45.62245076723492" lon="10.741042631287222"><ele>686.0</ele><time>2026-04-01T09:11:23.998Z</time></trkpt><trkpt lat="45.62251842592523" lon="10.740995817077403"><ele>686.0</ele><time>2026-04-01T09:11:24.998Z</time></trkpt><trkpt lat="45.62257355256331" lon="10.74093338287063"><ele>687.3333333333333</ele><time>2026-04-01T09:11:26Z</time></trkpt><trkpt lat="45.622628884132595" lon="10.740861651118983"><ele>688.6666666666666</ele><time>2026-04-01T09:11:27Z</time></trkpt><trkpt lat="45.62268477080811" lon="10.740756303187112"><ele>690.0</ele><time>2026-04-01T09:11:28Z</time></trkpt><trkpt lat="45.62273851122797" lon="10.740689312150485"><ele>691.3333333333334</ele><time>2026-04-01T09:11:29Z</time></trkpt><trkpt lat="45.622842363206615" lon="10.740575147988682"><ele>692.6666666666667</ele><time>2026-04-01T09:11:31Z</time></trkpt><trkpt lat="45.622915608768494" lon="10.740529405597263"><ele>694.0</ele><time>2026-04-01T09:11:32Z</time></trkpt><trkpt lat="45.622974253685115" lon="10.740463566028815"><ele>694.0</ele><time>2026-04-01T09:11:33Z</time></trkpt><trkpt lat="45.6230607210551" lon="10.740413991418492"><ele>694.0</ele><time>2026-04-01T09:11:34Z</time></trkpt><trkpt lat="45.62311951500875" lon="10.740323026173387"><ele>694.0</ele><time>2026-04-01T09:11:35Z</time></trkpt><trkpt lat="45.623176349938774" lon="10.740235523925614"><ele>694.0</ele><time>2026-04-01T09:11:36Z</time></trkpt><trkpt lat="45.62323232669541" lon="10.740193159637872"><ele>694.0</ele><time>2026-04-01T09:11:37Z</time></trkpt><trkpt lat="45.623324448797504" lon="10.740092858386738"><ele>694.0</ele><time>2026-04-01T09:11:39Z</time></trkpt><trkpt lat="45.62339068718959" lon="10.740027828174549"><ele>691.2</ele><time>2026-04-01T09:11:41Z</time></trkpt><trkpt lat="45.62342511815038" lon="10.739950219743882"><ele>688.4000000000001</ele><time>2026-04-01T09:11:42Z</time></trkpt><trkpt lat="45.6234806316077" lon="10.739860749385105"><ele>685.6</ele><time>2026-04-01T09:11:43Z</time></trkpt><trkpt lat="45.623519283905985" lon="10.739726481522462"><ele>682.8</ele><time>2026-04-01T09:11:44Z</time></trkpt><trkpt lat="45.62354001141185" lon="10.739612525044569"><ele>680.0</ele><time>2026-04-01T09:11:45Z</time></trkpt><trkpt lat="45.623601099861155" lon="10.739431153961927"><ele>683.3333333333333</ele><time>2026-04-01T09:11:47Z</time></trkpt><trkpt lat="45.62368060673051" lon="10.739328188846613"><ele>686.6666666666666</ele><time>2026-04-01T09:11:49Z</time></trkpt><trkpt lat="45.623703301988854" lon="10.739237465512836"><ele>690.0</ele><time>2026-04-01T09:11:50Z</time></trkpt><trkpt lat="45.62370518326272" lon="10.739129990161242"><ele>693.3333333333334</ele><time>2026-04-01T09:11:51Z</time></trkpt><trkpt lat="45.623742095994814" lon="10.739041884268772"><ele>696.6666666666667</ele><time>2026-04-01T09:11:52Z</time></trkpt><trkpt lat="45.6237765478852" lon="10.738925846236752"><ele>700.0</ele><time>2026-04-01T09:11:53Z</time></trkpt><trkpt lat="45.62379797477353" lon="10.73880376991933"><ele>700.0</ele><time>2026-04-01T09:11:54Z</time></trkpt><trkpt lat="45.623808259897324" lon="10.738686938014606"><ele>700.0</ele><time>2026-04-01T09:11:55Z</time></trkpt><trkpt lat="45.6238318936417" lon="10.738594542837378"><ele>700.0</ele><time>2026-04-01T09:11:56Z</time></trkpt><trkpt lat="45.62392860920551" lon="10.738483223337328"><ele>700.0</ele><time>2026-04-01T09:11:58Z</time></trkpt><trkpt lat="45.6239878062893" lon="10.738405681197731"><ele>700.0</ele><time>2026-04-01T09:11:59Z</time></trkpt><trkpt lat="45.62403328514353" lon="10.738337564536277"><ele>700.0</ele><time>2026-04-01T09:12:00Z</time></trkpt><trkpt lat="45.62407006850551" lon="10.738244734706575"><ele>698.0</ele><time>2026-04-01T09:12:01Z</time></trkpt><trkpt lat="45.62411355514612" lon="10.73812796312684"><ele>696.0</ele><time>2026-04-01T09:12:02Z</time></trkpt><trkpt lat="45.62415925801719" lon="10.738032741052901"><ele>694.0</ele><time>2026-04-01T09:12:03Z</time></trkpt><trkpt lat="45.624205664785165" lon="10.73790513457374"><ele>692.0</ele><time>2026-04-01T09:12:05Z</time></trkpt><trkpt lat="45.624234783301084" lon="10.737797407062393"><ele>690.0</ele><time>2026-04-01T09:12:06Z</time></trkpt><trkpt lat="45.62431302006758" lon="10.737715445464081"><ele>692.4</ele><time>2026-04-01T09:12:07Z</time></trkpt><trkpt lat="45.62440482969634" lon="10.737613474115115"><ele>694.8</ele><time>2026-04-01T09:12:08Z</time></trkpt><trkpt lat="45.62448845018992" lon="10.737521215823866"><ele>697.2</ele><time>2026-04-01T09:12:09Z</time></trkpt><trkpt lat="45.62457561999465" lon="10.73741126919321"><ele>699.6</ele><time>2026-04-01T09:12:10Z</time></trkpt><trkpt lat="45.624635421637294" lon="10.737299453779462"><ele>702.0</ele><time>2026-04-01T09:12:11Z</time></trkpt><trkpt lat="45.62468334589231" lon="10.737186893057817"><ele>702.0</ele><time>2026-04-01T09:12:11.999Z</time></trkpt><trkpt lat="45.624706009498546" lon="10.737058298342493"><ele>702.0</ele><time>2026-04-01T09:12:12.999Z</time></trkpt><trkpt lat="45.62472314599086" lon="10.736932743806843"><ele>702.0</ele><time>2026-04-01T09:12:13.999Z</time></trkpt><trkpt lat="45.624738463085116" lon="10.73683318462124"><ele>702.0</ele><time>2026-04-01T09:12:14.999Z</time></trkpt><trkpt lat="45.624757919554874" lon="10.73672351995144"><ele>702.0</ele><time>2026-04-01T09:12:15.999Z</time></trkpt><trkpt lat="45.62479593870558" lon="10.736602930663166"><ele>702.0</ele><time>2026-04-01T09:12:16.999Z</time></trkpt><trkpt lat="45.62485001247246" lon="10.736479138738138"><ele>700.1666666666666</ele><time>2026-04-01T09:12:17.999Z</time></trkpt><trkpt lat="45.624914319104846" lon="10.736366964879398"><ele>698.3333333333334</ele><time>2026-04-01T09:12:18.999Z</time></trkpt><trkpt lat="45.624963775374134" lon="10.736249462479329"><ele>696.5</ele><time>2026-04-01T09:12:19.999Z</time></trkpt><trkpt lat="45.62501838859762" lon="10.736171207878177"><ele>694.6666666666667</ele><time>2026-04-01T09:12:20.999Z</time></trkpt><trkpt lat="45.62506109151893" lon="10.736085675052081"><ele>692.8333333333334</ele><time>2026-04-01T09:12:21.999Z</time></trkpt><trkpt lat="45.625067749752496" lon="10.735978193172958"><ele>691.0</ele><time>2026-04-01T09:12:22.999Z</time></trkpt><trkpt lat="45.62508236553311" lon="10.735869147319956"><ele>690.0</ele><time>2026-04-01T09:12:23.999Z</time></trkpt><trkpt lat="45.62512989716667" lon="10.735797733042672"><ele>689.0</ele><time>2026-04-01T09:12:24.999Z</time></trkpt><trkpt lat="45.62519619280364" lon="10.735698074043615"><ele>688.0</ele><time>2026-04-01T09:12:25.999Z</time></trkpt><trkpt lat="45.625265110472284" lon="10.73560785154638"><ele>687.0</ele><time>2026-04-01T09:12:26.999Z</time></trkpt><trkpt lat="45.625306791607564" lon="10.735520935383772"><ele>686.0</ele><time>2026-04-01T09:12:27.999Z</time></trkpt><trkpt lat="45.625329965448" lon="10.735414122308839"><ele>685.0</ele><time>2026-04-01T09:12:28.999Z</time></trkpt><trkpt lat="45.6253335210602" lon="10.735278538315164"><ele>683.0</ele><time>2026-04-01T09:12:29.999Z</time></trkpt><trkpt lat="45.62533406786397" lon="10.735127301260611"><ele>681.0</ele><time>2026-04-01T09:12:30.999Z</time></trkpt><trkpt lat="45.6253448617479" lon="10.734963543253722"><ele>679.0</ele><time>2026-04-01T09:12:31.999Z</time></trkpt><trkpt lat="45.62535016085517" lon="10.734828272908697"><ele>677.0</ele><time>2026-04-01T09:12:32.999Z</time></trkpt><trkpt lat="45.62532356495735" lon="10.734686426052976"><ele>675.0</ele><time>2026-04-01T09:12:33.999Z</time></trkpt><trkpt lat="45.625300718277316" lon="10.734564838873197"><ele>675.0</ele><time>2026-04-01T09:12:34.999Z</time></trkpt><trkpt lat="45.6253057209449" lon="10.734439063715545"><ele>675.0</ele><time>2026-04-01T09:12:35.999Z</time></trkpt><trkpt lat="45.6253358417556" lon="10.734312721331221"><ele>675.0</ele><time>2026-04-01T09:12:36.999Z</time></trkpt><trkpt lat="45.62537765762618" lon="10.73417553831137"><ele>675.0</ele><time>2026-04-01T09:12:37.999Z</time></trkpt><trkpt lat="45.625431857527744" lon="10.734043901333758"><ele>675.0</ele><time>2026-04-01T09:12:38.999Z</time></trkpt><trkpt lat="45.62549386389386" lon="10.733925096401999"><ele>679.0</ele><time>2026-04-01T09:12:39.999Z</time></trkpt><trkpt lat="45.62556058343688" lon="10.733840637866951"><ele>683.0</ele><time>2026-04-01T09:12:40.999Z</time></trkpt><trkpt lat="45.62564505190247" lon="10.733769522691508"><ele>687.0</ele><time>2026-04-01T09:12:41.999Z</time></trkpt><trkpt lat="45.62574416957607" lon="10.733714965329346"><ele>691.0</ele><time>2026-04-01T09:12:42.999Z</time></trkpt><trkpt lat="45.625851135962314" lon="10.73364972815478"><ele>695.0</ele><time>2026-04-01T09:12:43.999Z</time></trkpt><trkpt lat="45.62595245286065" lon="10.73358608463288"><ele>695.0</ele><time>2026-04-01T09:12:44.999Z</time></trkpt><trkpt lat="45.62604145002969" lon="10.733559008260702"><ele>695.0</ele><time>2026-04-01T09:12:45.999Z</time></trkpt><trkpt lat="45.62613849797453" lon="10.733533345451807"><ele>695.0</ele><time>2026-04-01T09:12:47.999Z</time></trkpt><trkpt lat="45.62623076918546" lon="10.733461363926633"><ele>695.0</ele><time>2026-04-01T09:12:50.999Z</time></trkpt><trkpt lat="45.62632944790102" lon="10.733445274937022"><ele>695.0</ele><time>2026-04-01T09:12:52.999Z</time></trkpt><trkpt lat="45.62639311678965" lon="10.733427405930849"><ele>693.6</ele><time>2026-04-01T09:12:53.999Z</time></trkpt><trkpt lat="45.62651455464918" lon="10.73340798087825"><ele>692.2</ele><time>2026-04-01T09:12:55.999Z</time></trkpt><trkpt lat="45.62659660232297" lon="10.733421863460537"><ele>690.8</ele><time>2026-04-01T09:12:56.999Z</time></trkpt><trkpt lat="45.626679724334686" lon="10.733442105654214"><ele>689.4</ele><time>2026-04-01T09:12:57.999Z</time></trkpt><trkpt lat="45.62675920403738" lon="10.733460959071893"><ele>688.0</ele><time>2026-04-01T09:12:58.999Z</time></trkpt><trkpt lat="45.626844681696255" lon="10.733492393657809"><ele>688.0000000000001</ele><time>2026-04-01T09:12:59.999Z</time></trkpt><trkpt lat="45.6269101199117" lon="10.7335282500296"><ele>688.0</ele><time>2026-04-01T09:13:00.999Z</time></trkpt><trkpt lat="45.62696776638351" lon="10.733577085448164"><ele>688.0</ele><time>2026-04-01T09:13:02.999Z</time></trkpt><trkpt lat="45.627038693463014" lon="10.733615791441254"><ele>688.0</ele><time>2026-04-01T09:13:04.999Z</time></trkpt><trkpt lat="45.62710082162377" lon="10.733642377320281"><ele>688.0</ele><time>2026-04-01T09:13:06.999Z</time></trkpt><trkpt lat="45.627176413548504" lon="10.733628929943087"><ele>688.0000000000001</ele><time>2026-04-01T09:13:08.999Z</time></trkpt><trkpt lat="45.627240503775504" lon="10.733532189538218"><ele>688.0</ele><time>2026-04-01T09:13:11.999Z</time></trkpt><trkpt lat="45.627248945761345" lon="10.733397719887284"><ele>686.4</ele><time>2026-04-01T09:13:13.999Z</time></trkpt><trkpt lat="45.62733656957708" lon="10.733295454163859"><ele>684.8</ele><time>2026-04-01T09:13:15.999Z</time></trkpt><trkpt lat="45.62742159347683" lon="10.733235614982664"><ele>683.2</ele><time>2026-04-01T09:13:16.999Z</time></trkpt><trkpt lat="45.62750371979956" lon="10.733152342666239"><ele>681.6</ele><time>2026-04-01T09:13:17.999Z</time></trkpt><trkpt lat="45.6275884569203" lon="10.733054127923202"><ele>680.0</ele><time>2026-04-01T09:13:18.999Z</time></trkpt><trkpt lat="45.62766832710185" lon="10.732967245308243"><ele>680.0</ele><time>2026-04-01T09:13:19.998Z</time></trkpt><trkpt lat="45.627734525716704" lon="10.732883444973941"><ele>680.0</ele><time>2026-04-01T09:13:20.998Z</time></trkpt><trkpt lat="45.627787361700335" lon="10.732778926319808"><ele>680.0</ele><time>2026-04-01T09:13:21.998Z</time></trkpt><trkpt lat="45.62782991085953" lon="10.732652071393355"><ele>680.0</ele><time>2026-04-01T09:13:22.998Z</time></trkpt><trkpt lat="45.62787438801405" lon="10.732522443719521"><ele>680.0</ele><time>2026-04-01T09:13:23.998Z</time></trkpt><trkpt lat="45.62791900102489" lon="10.732388106035478"><ele>673.75</ele><time>2026-04-01T09:13:24.998Z</time></trkpt><trkpt lat="45.627979430072045" lon="10.732253382877914"><ele>667.5</ele><time>2026-04-01T09:13:25.998Z</time></trkpt><trkpt lat="45.628052513421736" lon="10.732109589422615"><ele>661.25</ele><time>2026-04-01T09:13:26.998Z</time></trkpt><trkpt lat="45.62812920627749" lon="10.731971439506179"><ele>655.0</ele><time>2026-04-01T09:13:27.998Z</time></trkpt><trkpt lat="45.62819111372877" lon="10.731833254144128"><ele>654.3333333333334</ele><time>2026-04-01T09:13:28.998Z</time></trkpt><trkpt lat="45.62823162284186" lon="10.731698111501608"><ele>653.6666666666667</ele><time>2026-04-01T09:13:29.998Z</time></trkpt><trkpt lat="45.62826229628824" lon="10.731580440127278"><ele>653.0</ele><time>2026-04-01T09:13:31Z</time></trkpt><trkpt lat="45.62828508893733" lon="10.73146525571979"><ele>652.3333333333334</ele><time>2026-04-01T09:13:32Z</time></trkpt><trkpt lat="45.62830369625393" lon="10.731351796938982"><ele>651.6666666666666</ele><time>2026-04-01T09:13:33Z</time></trkpt><trkpt lat="45.6283253228042" lon="10.731250657524033"><ele>651.0</ele><time>2026-04-01T09:13:34Z</time></trkpt><trkpt lat="45.628378891315414" lon="10.73112787009333"><ele>650.5</ele><time>2026-04-01T09:13:36Z</time></trkpt><trkpt lat="45.62843535361923" lon="10.73102277472327"><ele>650.0</ele><time>2026-04-01T09:13:38Z</time></trkpt><trkpt lat="45.62850370812265" lon="10.730900547959113"><ele>649.5</ele><time>2026-04-01T09:13:40Z</time></trkpt><trkpt lat="45.62858811642207" lon="10.730775895731666"><ele>649.0</ele><time>2026-04-01T09:13:42Z</time></trkpt><trkpt lat="45.62867742458157" lon="10.730647289125411"><ele>647.6666666666667</ele><time>2026-04-01T09:13:44Z</time></trkpt><trkpt lat="45.628738870897664" lon="10.730578027426285"><ele>646.3333333333334</ele><time>2026-04-01T09:13:45Z</time></trkpt><trkpt lat="45.62880194069593" lon="10.73051513208312"><ele>645.0</ele><time>2026-04-01T09:13:46Z</time></trkpt><trkpt lat="45.628873982673305" lon="10.730464539790066"><ele>643.6666666666666</ele><time>2026-04-01T09:13:47Z</time></trkpt><trkpt lat="45.6289472653065" lon="10.73040016756734"><ele>642.3333333333333</ele><time>2026-04-01T09:13:48Z</time></trkpt><trkpt lat="45.62902469422145" lon="10.730334291273351"><ele>641.0</ele><time>2026-04-01T09:13:49Z</time></trkpt><trkpt lat="45.62909067863068" lon="10.730273794754881"><ele>641.0</ele><time>2026-04-01T09:13:50Z</time></trkpt><trkpt lat="45.62915389357662" lon="10.73019409475554"><ele>641.0</ele><time>2026-04-01T09:13:51Z</time></trkpt><trkpt lat="45.62921669128565" lon="10.730125974179613"><ele>641.0</ele><time>2026-04-01T09:13:52Z</time></trkpt><trkpt lat="45.62927676134295" lon="10.730080654264633"><ele>641.0</ele><time>2026-04-01T09:13:53Z</time></trkpt><trkpt lat="45.62933606811895" lon="10.730047305880742"><ele>641.0</ele><time>2026-04-01T09:13:54Z</time></trkpt><trkpt lat="45.629413801120144" lon="10.730036469531079"><ele>641.0</ele><time>2026-04-01T09:13:55Z</time></trkpt><trkpt lat="45.62951563685415" lon="10.730052692132993"><ele>639.0</ele><time>2026-04-01T09:13:56Z</time></trkpt><trkpt lat="45.629637729097425" lon="10.730062073995635"><ele>637.0</ele><time>2026-04-01T09:13:57Z</time></trkpt><trkpt lat="45.629758193565536" lon="10.730035737953639"><ele>635.0</ele><time>2026-04-01T09:13:58Z</time></trkpt><trkpt lat="45.62986888009451" lon="10.730003015447416"><ele>633.0</ele><time>2026-04-01T09:13:59Z</time></trkpt><trkpt lat="45.62997099984511" lon="10.729968845113959"><ele>633.0</ele><time>2026-04-01T09:14:00Z</time></trkpt><trkpt lat="45.63006329337213" lon="10.729930228203623"><ele>633.0</ele><time>2026-04-01T09:14:01Z</time></trkpt><trkpt lat="45.63015375155307" lon="10.729897780726217"><ele>633.0</ele><time>2026-04-01T09:14:02Z</time></trkpt><trkpt lat="45.630245490355115" lon="10.729867025059987"><ele>633.0</ele><time>2026-04-01T09:14:03Z</time></trkpt><trkpt lat="45.630334475759334" lon="10.729838161279067"><ele>633.0</ele><time>2026-04-01T09:14:04Z</time></trkpt><trkpt lat="45.630422249783386" lon="10.729803638434234"><ele>630.0</ele><time>2026-04-01T09:14:05Z</time></trkpt><trkpt lat="45.630513441500646" lon="10.729774905434457"><ele>627.0</ele><time>2026-04-01T09:14:06Z</time></trkpt><trkpt lat="45.630605214045616" lon="10.729744462859824"><ele>624.0</ele><time>2026-04-01T09:14:07Z</time></trkpt><trkpt lat="45.63069541228367" lon="10.729712146920704"><ele>621.0</ele><time>2026-04-01T09:14:08Z</time></trkpt><trkpt lat="45.63078534047075" lon="10.729674475689684"><ele>618.0</ele><time>2026-04-01T09:14:09Z</time></trkpt><trkpt lat="45.63087887856439" lon="10.729639457649174"><ele>618.0</ele><time>2026-04-01T09:14:10Z</time></trkpt><trkpt lat="45.630972578139534" lon="10.729606531213065"><ele>618.0</ele><time>2026-04-01T09:14:11Z</time></trkpt><trkpt lat="45.63106219878294" lon="10.729570634494113"><ele>618.0</ele><time>2026-04-01T09:14:12Z</time></trkpt><trkpt lat="45.63113442414878" lon="10.72952229723979"><ele>618.0</ele><time>2026-04-01T09:14:13Z</time></trkpt><trkpt lat="45.63120099508515" lon="10.729448605213385"><ele>618.0</ele><time>2026-04-01T09:14:14Z</time></trkpt><trkpt lat="45.63126872881387" lon="10.729371792221322"><ele>618.0</ele><time>2026-04-01T09:14:15Z</time></trkpt><trkpt lat="45.6313397674105" lon="10.729295380309551"><ele>616.1666666666666</ele><time>2026-04-01T09:14:15.999Z</time></trkpt><trkpt lat="45.63141350979137" lon="10.729212578994954"><ele>614.3333333333334</ele><time>2026-04-01T09:14:16.999Z</time></trkpt><trkpt lat="45.63148417981573" lon="10.729138581336263"><ele>612.5</ele><time>2026-04-01T09:14:17.999Z</time></trkpt><trkpt lat="45.631550492641445" lon="10.729066295810858"><ele>610.6666666666667</ele><time>2026-04-01T09:14:18.999Z</time></trkpt><trkpt lat="45.631617152208136" lon="10.728997367142593"><ele>608.8333333333334</ele><time>2026-04-01T09:14:19.999Z</time></trkpt><trkpt lat="45.6316797516421" lon="10.728922704852822"><ele>607.0</ele><time>2026-04-01T09:14:20.999Z</time></trkpt><trkpt lat="45.63173654720513" lon="10.72885270908642"><ele>607.0</ele><time>2026-04-01T09:14:21.999Z</time></trkpt><trkpt lat="45.631791766414786" lon="10.728769437787559"><ele>607.0</ele><time>2026-04-01T09:14:22.999Z</time></trkpt><trkpt lat="45.631851168038544" lon="10.728677892458604"><ele>607.0</ele><time>2026-04-01T09:14:23.999Z</time></trkpt><trkpt lat="45.63190902077302" lon="10.728585903509694"><ele>607.0</ele><time>2026-04-01T09:14:24.999Z</time></trkpt><trkpt lat="45.631960296094" lon="10.728495769179483"><ele>607.0</ele><time>2026-04-01T09:14:25.999Z</time></trkpt><trkpt lat="45.632010992690674" lon="10.728432491867983"><ele>607.0</ele><time>2026-04-01T09:14:26.999Z</time></trkpt><trkpt lat="45.6320673374308" lon="10.728383536688984"><ele>603.8333333333334</ele><time>2026-04-01T09:14:27.999Z</time></trkpt><trkpt lat="45.63213136156881" lon="10.72835047477586"><ele>600.6666666666667</ele><time>2026-04-01T09:14:28.999Z</time></trkpt><trkpt lat="45.63222834905666" lon="10.728296826144227"><ele>597.5</ele><time>2026-04-01T09:14:30.999Z</time></trkpt><trkpt lat="45.632311251690886" lon="10.72825040437583"><ele>594.3333333333334</ele><time>2026-04-01T09:14:32.999Z</time></trkpt><trkpt lat="45.63238099929015" lon="10.728188225158767"><ele>591.1666666666666</ele><time>2026-04-01T09:14:34.999Z</time></trkpt><trkpt lat="45.632454449017246" lon="10.728126218103492"><ele>588.0</ele><time>2026-04-01T09:14:36.999Z</time></trkpt><trkpt lat="45.63251413327525" lon="10.72806268622866"><ele>588.0</ele><time>2026-04-01T09:14:39.999Z</time></trkpt><trkpt lat="45.63257073424906" lon="10.727927206332579"><ele>588.0</ele><time>2026-04-01T09:14:41.999Z</time></trkpt><trkpt lat="45.63267115501478" lon="10.727841888215375"><ele>588.0</ele><time>2026-04-01T09:14:43.999Z</time></trkpt><trkpt lat="45.632743370544524" lon="10.727819822361766"><ele>588.0</ele><time>2026-04-01T09:14:44.999Z</time></trkpt><trkpt lat="45.632816297946874" lon="10.727781189974017"><ele>588.0</ele><time>2026-04-01T09:14:45.999Z</time></trkpt><trkpt lat="45.632893206186935" lon="10.727724596768368"><ele>587.8</ele><time>2026-04-01T09:14:46.999Z</time></trkpt><trkpt lat="45.63298241097679" lon="10.727647198028341"><ele>587.5999999999999</ele><time>2026-04-01T09:14:47.999Z</time></trkpt><trkpt lat="45.63307052138777" lon="10.727588145434376"><ele>587.4000000000001</ele><time>2026-04-01T09:14:48.999Z</time></trkpt><trkpt lat="45.633155365366356" lon="10.727520586593254"><ele>587.2</ele><time>2026-04-01T09:14:49.999Z</time></trkpt><trkpt lat="45.63322394513735" lon="10.727452850728609"><ele>587.0</ele><time>2026-04-01T09:14:50.999Z</time></trkpt><trkpt lat="45.63330908558778" lon="10.727368190490491"><ele>587.0</ele><time>2026-04-01T09:14:52.999Z</time></trkpt><trkpt lat="45.63340613784854" lon="10.727308007903119"><ele>587.0</ele><time>2026-04-01T09:14:54.999Z</time></trkpt><trkpt lat="45.633466998475" lon="10.72728146883887"><ele>587.0</ele><time>2026-04-01T09:14:55.999Z</time></trkpt><trkpt lat="45.6335862557382" lon="10.727255174296989"><ele>587.0</ele><time>2026-04-01T09:14:57.999Z</time></trkpt><trkpt lat="45.63365178964973" lon="10.727297895653168"><ele>587.0</ele><time>2026-04-01T09:14:58.999Z</time></trkpt><trkpt lat="45.63370470718364" lon="10.727423738808602"><ele>585.4</ele><time>2026-04-01T09:14:59.999Z</time></trkpt><trkpt lat="45.63378085453453" lon="10.727513567269831"><ele>583.8000000000001</ele><time>2026-04-01T09:15:00.999Z</time></trkpt><trkpt lat="45.63384116817587" lon="10.727627867013567"><ele>582.2</ele><time>2026-04-01T09:15:01.999Z</time></trkpt><trkpt lat="45.63390647940777" lon="10.727723301631233"><ele>580.6</ele><time>2026-04-01T09:15:02.999Z</time></trkpt><trkpt lat="45.63399076355386" lon="10.727793642561428"><ele>579.0</ele><time>2026-04-01T09:15:03.999Z</time></trkpt><trkpt lat="45.63408843903982" lon="10.727836430628075"><ele>579.0</ele><time>2026-04-01T09:15:04.999Z</time></trkpt><trkpt lat="45.63418131171979" lon="10.727848617611977"><ele>579.0</ele><time>2026-04-01T09:15:05.999Z</time></trkpt><trkpt lat="45.634269782357066" lon="10.727826297081583"><ele>579.0</ele><time>2026-04-01T09:15:06.999Z</time></trkpt><trkpt lat="45.63435703140199" lon="10.727769107468843"><ele>579.0</ele><time>2026-04-01T09:15:07.999Z</time></trkpt><trkpt lat="45.63442667299766" lon="10.727677661355894"><ele>579.0</ele><time>2026-04-01T09:15:08.999Z</time></trkpt><trkpt lat="45.634482771411044" lon="10.72757174436592"><ele>574.4</ele><time>2026-04-01T09:15:09.999Z</time></trkpt><trkpt lat="45.63453169965462" lon="10.727439039890713"><ele>569.8</ele><time>2026-04-01T09:15:10.999Z</time></trkpt><trkpt lat="45.63459323365579" lon="10.727315512340146"><ele>565.2</ele><time>2026-04-01T09:15:11.999Z</time></trkpt><trkpt lat="45.63467907776533" lon="10.72720600884768"><ele>560.6</ele><time>2026-04-01T09:15:12.999Z</time></trkpt><trkpt lat="45.634768573609655" lon="10.727099081060626"><ele>556.0</ele><time>2026-04-01T09:15:13.999Z</time></trkpt><trkpt lat="45.634860191721415" lon="10.727017869656212"><ele>556.0</ele><time>2026-04-01T09:15:14.999Z</time></trkpt><trkpt lat="45.63494742627642" lon="10.726952071860362"><ele>556.0</ele><time>2026-04-01T09:15:15.999Z</time></trkpt><trkpt lat="45.635036352565216" lon="10.726907351626652"><ele>556.0</ele><time>2026-04-01T09:15:16.999Z</time></trkpt><trkpt lat="45.63511544970524" lon="10.726876926218571"><ele>556.0</ele><time>2026-04-01T09:15:17.999Z</time></trkpt><trkpt lat="45.635170167470484" lon="10.72678274901561"><ele>556.0</ele><time>2026-04-01T09:15:18.999Z</time></trkpt><trkpt lat="45.63524437923527" lon="10.72668891211842"><ele>552.2</ele><time>2026-04-01T09:15:19.999Z</time></trkpt><trkpt lat="45.635330272507545" lon="10.726604812524396"><ele>548.4000000000001</ele><time>2026-04-01T09:15:20.999Z</time></trkpt><trkpt lat="45.635392479660204" lon="10.726516585990993"><ele>544.6</ele><time>2026-04-01T09:15:21.999Z</time></trkpt><trkpt lat="45.635531954376475" lon="10.726498567399489"><ele>540.8000000000001</ele><time>2026-04-01T09:15:22.999Z</time></trkpt><trkpt lat="45.63560955256903" lon="10.72637779584447"><ele>537.0</ele><time>2026-04-01T09:15:23.999Z</time></trkpt><trkpt lat="45.63568320989251" lon="10.726259007951471"><ele>537.0</ele><time>2026-04-01T09:15:24.998Z</time></trkpt><trkpt lat="45.63576734797253" lon="10.72616221752932"><ele>537.0</ele><time>2026-04-01T09:15:25.998Z</time></trkpt><trkpt lat="45.63584472182528" lon="10.726079040147663"><ele>537.0</ele><time>2026-04-01T09:15:26.998Z</time></trkpt><trkpt lat="45.635894174403546" lon="10.726016475962817"><ele>537.0</ele><time>2026-04-01T09:15:27.998Z</time></trkpt><trkpt lat="45.63593762834605" lon="10.725846933009619"><ele>537.0</ele><time>2026-04-01T09:15:29.998Z</time></trkpt><trkpt lat="45.63592623178925" lon="10.725729571508728"><ele>535.8000000000001</ele><time>2026-04-01T09:15:30.998Z</time></trkpt><trkpt lat="45.635902047110086" lon="10.725616066512575"><ele>534.6</ele><time>2026-04-01T09:15:31.998Z</time></trkpt><trkpt lat="45.63587125390032" lon="10.725505350187559"><ele>533.4000000000001</ele><time>2026-04-01T09:15:32.998Z</time></trkpt><trkpt lat="45.635830452808875" lon="10.725386084462352"><ele>532.2</ele><time>2026-04-01T09:15:33.998Z</time></trkpt><trkpt lat="45.63577426886155" lon="10.725266376055801"><ele>531.0</ele><time>2026-04-01T09:15:34.998Z</time></trkpt><trkpt lat="45.635715491006934" lon="10.725150923304895"><ele>528.25</ele><time>2026-04-01T09:15:35.998Z</time></trkpt><trkpt lat="45.63564610095363" lon="10.725024302586629"><ele>525.5</ele><time>2026-04-01T09:15:37Z</time></trkpt><trkpt lat="45.63558232831952" lon="10.724872701351897"><ele>522.75</ele><time>2026-04-01T09:15:38Z</time></trkpt><trkpt lat="45.635496988821814" lon="10.724742174599161"><ele>520.0</ele><time>2026-04-01T09:15:39Z</time></trkpt><trkpt lat="45.63538881045151" lon="10.724632979716782"><ele>518.6</ele><time>2026-04-01T09:15:40Z</time></trkpt><trkpt lat="45.63528836538583" lon="10.724525327601562"><ele>517.2</ele><time>2026-04-01T09:15:41Z</time></trkpt><trkpt lat="45.63518624653039" lon="10.724431839004602"><ele>515.8</ele><time>2026-04-01T09:15:42Z</time></trkpt><trkpt lat="45.635099053082705" lon="10.724350098820448"><ele>514.4</ele><time>2026-04-01T09:15:43Z</time></trkpt><trkpt lat="45.63502171510664" lon="10.724266353705353"><ele>513.0</ele><time>2026-04-01T09:15:44Z</time></trkpt><trkpt lat="45.63495173901471" lon="10.724194095266325"><ele>513.0</ele><time>2026-04-01T09:15:45Z</time></trkpt><trkpt lat="45.634882044403426" lon="10.724128004044193"><ele>513.0</ele><time>2026-04-01T09:15:46Z</time></trkpt><trkpt lat="45.634823759114774" lon="10.724046316645273"><ele>513.0</ele><time>2026-04-01T09:15:47Z</time></trkpt><trkpt lat="45.63478948204677" lon="10.723947107585428"><ele>513.0</ele><time>2026-04-01T09:15:48Z</time></trkpt><trkpt lat="45.634781690027424" lon="10.723826666501978"><ele>513.0</ele><time>2026-04-01T09:15:49Z</time></trkpt><trkpt lat="45.63476908398816" lon="10.723692292503593"><ele>513.0</ele><time>2026-04-01T09:15:50Z</time></trkpt><trkpt lat="45.63471727256037" lon="10.723527803769484"><ele>509.0</ele><time>2026-04-01T09:15:51Z</time></trkpt><trkpt lat="45.63467386508458" lon="10.723341972806903"><ele>505.0</ele><time>2026-04-01T09:15:52Z</time></trkpt><trkpt lat="45.63464286306417" lon="10.723166943699152"><ele>501.0</ele><time>2026-04-01T09:15:53Z</time></trkpt><trkpt lat="45.634614452223545" lon="10.723009954536149"><ele>497.0</ele><time>2026-04-01T09:15:54Z</time></trkpt><trkpt lat="45.634606150848896" lon="10.722873914043165"><ele>497.0</ele><time>2026-04-01T09:15:55Z</time></trkpt><trkpt lat="45.6346140191012" lon="10.722743357268126"><ele>497.00000000000006</ele><time>2026-04-01T09:15:56Z</time></trkpt><trkpt lat="45.63462018845808" lon="10.722595435277556"><ele>497.00000000000006</ele><time>2026-04-01T09:15:57Z</time></trkpt><trkpt lat="45.63462502223253" lon="10.7224420287768"><ele>497.0</ele><time>2026-04-01T09:15:58Z</time></trkpt><trkpt lat="45.63463167092692" lon="10.722296687765834"><ele>497.0</ele><time>2026-04-01T09:15:59Z</time></trkpt><trkpt lat="45.63463716871321" lon="10.722168129444055"><ele>495.49999999999994</ele><time>2026-04-01T09:16:00Z</time></trkpt><trkpt lat="45.63464308118765" lon="10.722049324467797"><ele>494.0</ele><time>2026-04-01T09:16:01Z</time></trkpt><trkpt lat="45.63464860760637" lon="10.721939802824622"><ele>492.5</ele><time>2026-04-01T09:16:02Z</time></trkpt><trkpt lat="45.6346514259948" lon="10.721845991348683"><ele>491.0</ele><time>2026-04-01T09:16:03Z</time></trkpt><trkpt lat="45.634646971942345" lon="10.721699503167985"><ele>489.49999999999994</ele><time>2026-04-01T09:16:05Z</time></trkpt><trkpt lat="45.63467347380603" lon="10.721581079245917"><ele>488.0</ele><time>2026-04-01T09:16:08Z</time></trkpt><trkpt lat="45.6346724867422" lon="10.721487014121026"><ele>487.5</ele><time>2026-04-01T09:16:10Z</time></trkpt><trkpt lat="45.634672453273396" lon="10.72139229147082"><ele>487.0</ele><time>2026-04-01T09:16:12Z</time></trkpt><trkpt lat="45.63442049527783" lon="10.721273859772413"><ele>486.5</ele><time>2026-04-01T09:16:13Z</time></trkpt><trkpt lat="45.63438739933755" lon="10.72118534194368"><ele>486.0</ele><time>2026-04-01T09:16:16Z</time></trkpt><trkpt lat="45.634401296540176" lon="10.72105483054524"><ele>486.0</ele><time>2026-04-01T09:16:19Z</time></trkpt><trkpt lat="45.634450160767" lon="10.720943504568831"><ele>486.0</ele><time>2026-04-01T09:16:21Z</time></trkpt><trkpt lat="45.634466603477534" lon="10.720855390932956"><ele>486.0</ele><time>2026-04-01T09:16:21.999Z</time></trkpt><trkpt lat="45.63444260951645" lon="10.720697945929466"><ele>486.0</ele><time>2026-04-01T09:16:23.999Z</time></trkpt><trkpt lat="45.63441629900783" lon="10.720604951327623"><ele>486.0</ele><time>2026-04-01T09:16:24.999Z</time></trkpt><trkpt lat="45.63436439849652" lon="10.720514802713442"><ele>486.0</ele><time>2026-04-01T09:16:25.999Z</time></trkpt><trkpt lat="45.634318156342594" lon="10.720414860810841"><ele>486.0</ele><time>2026-04-01T09:16:26.999Z</time></trkpt><trkpt lat="45.634269078723186" lon="10.720310245328795"><ele>486.0</ele><time>2026-04-01T09:16:27.999Z</time></trkpt><trkpt lat="45.63424947574637" lon="10.720217270133446"><ele>486.0</ele><time>2026-04-01T09:16:28.999Z</time></trkpt><trkpt lat="45.63419401166541" lon="10.72008930239271"><ele>486.0</ele><time>2026-04-01T09:16:30.999Z</time></trkpt><trkpt lat="45.63416865604049" lon="10.719933238432676"><ele>486.0</ele><time>2026-04-01T09:16:32.999Z</time></trkpt><trkpt lat="45.6341706002223" lon="10.719780695681347"><ele>483.20000000000005</ele><time>2026-04-01T09:16:34.999Z</time></trkpt><trkpt lat="45.63416058688523" lon="10.719625306941094"><ele>480.40000000000003</ele><time>2026-04-01T09:16:36.999Z</time></trkpt><trkpt lat="45.6340827204518" lon="10.719524309500489"><ele>477.6</ele><time>2026-04-01T09:16:38.999Z</time></trkpt><trkpt lat="45.63402671327091" lon="10.719449719532504"><ele>474.8</ele><time>2026-04-01T09:16:40.999Z</time></trkpt><trkpt lat="45.63396893564562" lon="10.71930446551437"><ele>472.0</ele><time>2026-04-01T09:16:42.999Z</time></trkpt><trkpt lat="45.633927665313436" lon="10.719143248960318"><ele>468.6</ele><time>2026-04-01T09:16:44.999Z</time></trkpt><trkpt lat="45.633910123604544" lon="10.719039587843467"><ele>465.20000000000005</ele><time>2026-04-01T09:16:45.999Z</time></trkpt><trkpt lat="45.63387001967006" lon="10.718909137047845"><ele>461.8</ele><time>2026-04-01T09:16:47.999Z</time></trkpt><trkpt lat="45.633851625215165" lon="10.718754451526795"><ele>458.4</ele><time>2026-04-01T09:16:49.999Z</time></trkpt><trkpt lat="45.63383779837385" lon="10.71864380612617"><ele>455.0</ele><time>2026-04-01T09:16:50.999Z</time></trkpt><trkpt lat="45.633813492570994" lon="10.718504586508733"><ele>455.1428571428571</ele><time>2026-04-01T09:16:51.999Z</time></trkpt><trkpt lat="45.633793045355155" lon="10.71838341075378"><ele>455.2857142857143</ele><time>2026-04-01T09:16:52.999Z</time></trkpt><trkpt lat="45.633748643621" lon="10.718286528324898"><ele>455.42857142857144</ele><time>2026-04-01T09:16:53.999Z</time></trkpt><trkpt lat="45.6336987377658" lon="10.718196524230038"><ele>455.57142857142856</ele><time>2026-04-01T09:16:54.999Z</time></trkpt><trkpt lat="45.63366287740403" lon="10.71811267240492"><ele>455.71428571428567</ele><time>2026-04-01T09:16:55.999Z</time></trkpt><trkpt lat="45.63362315805295" lon="10.718042747384711"><ele>455.85714285714283</ele><time>2026-04-01T09:16:56.999Z</time></trkpt><trkpt lat="45.633583447301845" lon="10.717969356019621"><ele>456.0</ele><time>2026-04-01T09:16:57.999Z</time></trkpt><trkpt lat="45.63354438513062" lon="10.71789528203614"><ele>456.0</ele><time>2026-04-01T09:16:58.999Z</time></trkpt><trkpt lat="45.633501990971865" lon="10.717799678988383"><ele>456.0</ele><time>2026-04-01T09:16:59.999Z</time></trkpt><trkpt lat="45.6334332790203" lon="10.717733115573004"><ele>456.0</ele><time>2026-04-01T09:17:00.999Z</time></trkpt><trkpt lat="45.63335996243401" lon="10.717678504446674"><ele>456.0</ele><time>2026-04-01T09:17:01.999Z</time></trkpt><trkpt lat="45.63328964442524" lon="10.717622494358611"><ele>456.0</ele><time>2026-04-01T09:17:02.999Z</time></trkpt><trkpt lat="45.63322431495546" lon="10.717531465312199"><ele>456.0</ele><time>2026-04-01T09:17:03.999Z</time></trkpt><trkpt lat="45.63315444728138" lon="10.717442711575819"><ele>456.4</ele><time>2026-04-01T09:17:04.999Z</time></trkpt><trkpt lat="45.63307327869903" lon="10.717357779220665"><ele>456.8</ele><time>2026-04-01T09:17:05.999Z</time></trkpt><trkpt lat="45.63299205061934" lon="10.717275546180279"><ele>457.19999999999993</ele><time>2026-04-01T09:17:06.999Z</time></trkpt><trkpt lat="45.632903413265865" lon="10.717213183954554"><ele>457.59999999999997</ele><time>2026-04-01T09:17:07.999Z</time></trkpt><trkpt lat="45.6328245290643" lon="10.717144552791934"><ele>458.0</ele><time>2026-04-01T09:17:08.999Z</time></trkpt><trkpt lat="45.632765494824916" lon="10.717081088751614"><ele>458.0</ele><time>2026-04-01T09:17:09.999Z</time></trkpt><trkpt lat="45.63269225441488" lon="10.717009074012925"><ele>457.99999999999994</ele><time>2026-04-01T09:17:10.999Z</time></trkpt><trkpt lat="45.632613011464215" lon="10.716943123343794"><ele>457.99999999999994</ele><time>2026-04-01T09:17:11.999Z</time></trkpt><trkpt lat="45.63252791495134" lon="10.716890302052711"><ele>458.0</ele><time>2026-04-01T09:17:12.999Z</time></trkpt><trkpt lat="45.63244300158796" lon="10.716858102836307"><ele>458.0</ele><time>2026-04-01T09:17:13.999Z</time></trkpt><trkpt lat="45.63235640589572" lon="10.716829486834845"><ele>455.0</ele><time>2026-04-01T09:17:14.999Z</time></trkpt><trkpt lat="45.632260857425585" lon="10.71682583804863"><ele>452.0</ele><time>2026-04-01T09:17:15.999Z</time></trkpt><trkpt lat="45.63216280033056" lon="10.716812282132537"><ele>449.0</ele><time>2026-04-01T09:17:16.999Z</time></trkpt><trkpt lat="45.63202445543733" lon="10.716691723804525"><ele>446.0</ele><time>2026-04-01T09:17:18.999Z</time></trkpt><trkpt lat="45.63191442692642" lon="10.71665096155227"><ele>445.99999999999994</ele><time>2026-04-01T09:17:19.999Z</time></trkpt><trkpt lat="45.631848826179784" lon="10.716605842953806"><ele>446.0</ele><time>2026-04-01T09:17:20.999Z</time></trkpt><trkpt lat="45.63179159962375" lon="10.71655515476756"><ele>446.0</ele><time>2026-04-01T09:17:21.999Z</time></trkpt><trkpt lat="45.63168984206152" lon="10.716528245423401"><ele>446.0</ele><time>2026-04-01T09:17:23.999Z</time></trkpt><trkpt lat="45.63161451532273" lon="10.71660573046604"><ele>445.99999999999994</ele><time>2026-04-01T09:17:25.999Z</time></trkpt><trkpt lat="45.63151205341216" lon="10.716605063131642"><ele>446.0</ele><time>2026-04-01T09:17:27.999Z</time></trkpt><trkpt lat="45.631431093273065" lon="10.716577731944637"><ele>446.0</ele><time>2026-04-01T09:17:29.999Z</time></trkpt><trkpt lat="45.63134435714899" lon="10.71659594063845"><ele>446.0</ele><time>2026-04-01T09:17:33.998Z</time></trkpt><trkpt lat="45.63130827694609" lon="10.7165181568215"><ele>446.0</ele><time>2026-04-01T09:17:35.998Z</time></trkpt><trkpt lat="45.63126448756558" lon="10.716398265168952"><ele>446.0</ele><time>2026-04-01T09:17:37.998Z</time></trkpt><trkpt lat="45.63119117938658" lon="10.716285636531335"><ele>446.0</ele><time>2026-04-01T09:17:39.998Z</time></trkpt><trkpt lat="45.63109477345761" lon="10.716222729713794"><ele>444.6</ele><time>2026-04-01T09:17:41.998Z</time></trkpt><trkpt lat="45.63101972326222" lon="10.716084923231264"><ele>443.20000000000005</ele><time>2026-04-01T09:17:44Z</time></trkpt><trkpt lat="45.63096386376115" lon="10.716029903750607"><ele>441.79999999999995</ele><time>2026-04-01T09:17:45Z</time></trkpt><trkpt lat="45.63086319183131" lon="10.715914484511684"><ele>440.4</ele><time>2026-04-01T09:17:47Z</time></trkpt><trkpt lat="45.630801243646786" lon="10.715839179950812"><ele>439.0</ele><time>2026-04-01T09:17:48Z</time></trkpt><trkpt lat="45.630739680388714" lon="10.715769576287721"><ele>439.00000000000006</ele><time>2026-04-01T09:17:49Z</time></trkpt><trkpt lat="45.630665650404886" lon="10.71570110117798"><ele>439.0</ele><time>2026-04-01T09:17:50Z</time></trkpt><trkpt lat="45.63058033286149" lon="10.71565485448625"><ele>439.0</ele><time>2026-04-01T09:17:51Z</time></trkpt><trkpt lat="45.63049903463891" lon="10.715619503918079"><ele>439.0</ele><time>2026-04-01T09:17:52Z</time></trkpt><trkpt lat="45.6304213552224" lon="10.715623624249428"><ele>439.00000000000006</ele><time>2026-04-01T09:18:23Z</time></trkpt><trkpt lat="45.63052250803883" lon="10.715648537240904"><ele>439.0</ele><time>2026-04-01T09:18:26Z</time></trkpt><trkpt lat="45.63058367798913" lon="10.71560180189337"><ele>439.0</ele><time>2026-04-01T09:18:28.999Z</time></trkpt><trkpt lat="45.63065522945775" lon="10.715599503508429"><ele>439.0</ele><time>2026-04-01T09:18:42.999Z</time></trkpt><trkpt lat="45.63072209900884" lon="10.715539832855148"><ele>439.0</ele><time>2026-04-01T09:18:44.999Z</time></trkpt><trkpt lat="45.630798156407565" lon="10.715554801375594"><ele>439.0</ele><time>2026-04-01T09:18:46.999Z</time></trkpt><trkpt lat="45.630834560112675" lon="10.715629195966693"><ele>439.0</ele><time>2026-04-01T09:18:48.999Z</time></trkpt><trkpt lat="45.630996389299355" lon="10.715666812429834"><ele>439.00000000000006</ele><time>2026-04-01T09:18:52.999Z</time></trkpt><trkpt lat="45.63107914102221" lon="10.715706225366437"><ele>439.0</ele><time>2026-04-01T09:18:53.999Z</time></trkpt><trkpt lat="45.631142104573016" lon="10.715739384955036"><ele>439.0</ele><time>2026-04-01T09:18:54.999Z</time></trkpt><trkpt lat="45.631208205783565" lon="10.715789215581578"><ele>439.0</ele><time>2026-04-01T09:18:55.999Z</time></trkpt><trkpt lat="45.63129376657508" lon="10.715842791187145"><ele>439.00000000000006</ele><time>2026-04-01T09:18:57.999Z</time></trkpt><trkpt lat="45.6313444371382" lon="10.715720746485305"><ele>439.0</ele><time>2026-04-01T09:19:02.999Z</time></trkpt><trkpt lat="45.63137276044498" lon="10.71555085027692"><ele>436.6</ele><time>2026-04-01T09:19:04.999Z</time></trkpt><trkpt lat="45.63136908524094" lon="10.715416865081567"><ele>434.2</ele><time>2026-04-01T09:19:06.999Z</time></trkpt><trkpt lat="45.63133077800287" lon="10.715301252816529"><ele>431.80000000000007</ele><time>2026-04-01T09:19:08.999Z</time></trkpt><trkpt lat="45.63132938093802" lon="10.715208829146297"><ele>429.40000000000003</ele><time>2026-04-01T09:19:09.999Z</time></trkpt><trkpt lat="45.6312550405174" lon="10.715102731457911"><ele>427.0</ele><time>2026-04-01T09:19:12.999Z</time></trkpt><trkpt lat="45.631164440505614" lon="10.714993210195725"><ele>425.8</ele><time>2026-04-01T09:19:14.999Z</time></trkpt><trkpt lat="45.63108401413019" lon="10.714923728474501"><ele>424.6</ele><time>2026-04-01T09:19:15.999Z</time></trkpt><trkpt lat="45.63099868024679" lon="10.714807616142249"><ele>423.40000000000003</ele><time>2026-04-01T09:19:17.999Z</time></trkpt><trkpt lat="45.63089597428131" lon="10.714772215656597"><ele>422.20000000000005</ele><time>2026-04-01T09:19:19.999Z</time></trkpt><trkpt lat="45.63086003382383" lon="10.714669401396732"><ele>421.0</ele><time>2026-04-01T09:19:21.999Z</time></trkpt><trkpt lat="45.63079716996699" lon="10.714608852311171"><ele>421.00000000000006</ele><time>2026-04-01T09:19:23.999Z</time></trkpt><trkpt lat="45.630781167039224" lon="10.71447831733302"><ele>421.0</ele><time>2026-04-01T09:19:31.999Z</time></trkpt><trkpt lat="45.63075351123805" lon="10.714386196864536"><ele>421.0</ele><time>2026-04-01T09:19:34.998Z</time></trkpt><trkpt lat="45.63069468355645" lon="10.714315703546692"><ele>421.0</ele><time>2026-04-01T09:19:38.998Z</time></trkpt><trkpt lat="45.6306607455766" lon="10.714187726452197"><ele>421.00000000000006</ele><time>2026-04-01T09:19:42.998Z</time></trkpt><trkpt lat="45.63060647613102" lon="10.714139133113136"><ele>421.0</ele><time>2026-04-01T09:19:44.998Z</time></trkpt><trkpt lat="45.63056510309002" lon="10.714027474492607"><ele>417.83333333333337</ele><time>2026-04-01T09:19:47.998Z</time></trkpt><trkpt lat="45.63056418973668" lon="10.71390256925595"><ele>414.6666666666667</ele><time>2026-04-01T09:19:51Z</time></trkpt><trkpt lat="45.63058267754955" lon="10.71377874133899"><ele>411.5</ele><time>2026-04-01T09:19:54Z</time></trkpt><trkpt lat="45.63058462010272" lon="10.713681317572028"><ele>408.33333333333337</ele><time>2026-04-01T09:20:00Z</time></trkpt><trkpt lat="45.630597959887155" lon="10.713573547736924"><ele>405.1666666666667</ele><time>2026-04-01T09:20:12Z</time></trkpt><trkpt lat="45.630594550977605" lon="10.713475072815868"><ele>402.0</ele><time>2026-04-01T09:20:15Z</time></trkpt><trkpt lat="45.63060801321184" lon="10.713334750897936"><ele>398.0</ele><time>2026-04-01T09:20:20Z</time></trkpt><trkpt lat="45.63060588247851" lon="10.71323817047276"><ele>394.0</ele><time>2026-04-01T09:20:23Z</time></trkpt><trkpt lat="45.63061284078173" lon="10.713134810934799"><ele>390.0</ele><time>2026-04-01T09:20:27Z</time></trkpt><trkpt lat="45.630621502491685" lon="10.71301293195762"><ele>386.0</ele><time>2026-04-01T09:20:30.999Z</time></trkpt><trkpt lat="45.6306161166238" lon="10.712882776679912"><ele>382.0</ele><time>2026-04-01T09:20:32.999Z</time></trkpt><trkpt lat="45.63065480894769" lon="10.712792455460407"><ele>378.0</ele><time>2026-04-01T09:20:36.999Z</time></trkpt><trkpt lat="45.63067549549275" lon="10.712696607891118"><ele>374.2</ele><time>2026-04-01T09:20:40.999Z</time></trkpt><trkpt lat="45.63073133290433" lon="10.712608683716503"><ele>370.4</ele><time>2026-04-01T09:20:43.999Z</time></trkpt><trkpt lat="45.63077993249485" lon="10.712498123443261"><ele>366.59999999999997</ele><time>2026-04-01T09:20:46.999Z</time></trkpt><trkpt lat="45.630823203319764" lon="10.712384010854462"><ele>362.79999999999995</ele><time>2026-04-01T09:20:49.999Z</time></trkpt><trkpt lat="45.6308650325496" lon="10.712270163149993"><ele>359.0</ele><time>2026-04-01T09:20:52.999Z</time></trkpt><trkpt lat="45.63093707654026" lon="10.712175309339111"><ele>359.0</ele><time>2026-04-01T09:20:55.999Z</time></trkpt><trkpt lat="45.630988899037526" lon="10.712108284731109"><ele>359.0</ele><time>2026-04-01T09:20:58.999Z</time></trkpt><trkpt lat="45.631046167959695" lon="10.712003080229604"><ele>359.0</ele><time>2026-04-01T09:21:01.999Z</time></trkpt><trkpt lat="45.63111607779903" lon="10.711969609390776"><ele>359.0</ele><time>2026-04-01T09:21:03.999Z</time></trkpt><trkpt lat="45.63117706306881" lon="10.711928935085831"><ele>359.0</ele><time>2026-04-01T09:21:05.999Z</time></trkpt><trkpt lat="45.63122447731173" lon="10.71183687162115"><ele>359.0</ele><time>2026-04-01T09:21:08.999Z</time></trkpt><trkpt lat="45.63127616432364" lon="10.71178185951539"><ele>359.0</ele><time>2026-04-01T09:21:11.999Z</time></trkpt><trkpt lat="45.631348496585694" lon="10.711795897685978"><ele>354.0</ele><time>2026-04-01T09:21:16.999Z</time></trkpt><trkpt lat="45.631378978289575" lon="10.711715622880577"><ele>349.0</ele><time>2026-04-01T09:21:20.999Z</time></trkpt><trkpt lat="45.6314600190426" lon="10.711696336248542"><ele>344.0</ele><time>2026-04-01T09:21:25.999Z</time></trkpt><trkpt lat="45.63152243037317" lon="10.711681636746052"><ele>339.0</ele><time>2026-04-01T09:21:27.999Z</time></trkpt><trkpt lat="45.631623211268725" lon="10.711661085029053"><ele>334.0</ele><time>2026-04-01T09:21:29.999Z</time></trkpt><trkpt lat="45.63171639283407" lon="10.711667044655648"><ele>329.0</ele><time>2026-04-01T09:21:32.999Z</time></trkpt><trkpt lat="45.631783322100986" lon="10.711638619923669"><ele>329.0</ele><time>2026-04-01T09:21:55Z</time></trkpt><trkpt lat="45.63182501182721" lon="10.711715289758878"><ele>329.0</ele><time>2026-04-01T09:21:58Z</time></trkpt><trkpt lat="45.63188770861062" lon="10.711760817222252"><ele>329.0</ele><time>2026-04-01T09:22:00Z</time></trkpt><trkpt lat="45.63196387702236" lon="10.711806922009703"><ele>329.0</ele><time>2026-04-01T09:22:02Z</time></trkpt><trkpt lat="45.63204566272216" lon="10.711895975245584"><ele>329.0</ele><time>2026-04-01T09:22:04Z</time></trkpt><trkpt lat="45.63210910845012" lon="10.711916449900938"><ele>329.0</ele><time>2026-04-01T09:22:10Z</time></trkpt><trkpt lat="45.63215479891191" lon="10.711844551506555"><ele>326.0</ele><time>2026-04-01T09:23:26.999Z</time></trkpt><trkpt lat="45.63216737825244" lon="10.711736615530073"><ele>323.0</ele><time>2026-04-01T09:23:28.999Z</time></trkpt><trkpt lat="45.632210521933274" lon="10.711631078813038"><ele>320.0</ele><time>2026-04-01T09:23:31.999Z</time></trkpt><trkpt lat="45.63227622274745" lon="10.71153608378701"><ele>317.0</ele><time>2026-04-01T09:23:34.999Z</time></trkpt><trkpt lat="45.63231724227415" lon="10.711435068235566"><ele>314.0</ele><time>2026-04-01T09:23:36.999Z</time></trkpt><trkpt lat="45.63227663029146" lon="10.7113635570895"><ele>311.0</ele><time>2026-04-01T09:23:38.999Z</time></trkpt><trkpt lat="45.63220270772298" lon="10.711329205189106"><ele>311.0</ele><time>2026-04-01T09:23:40.999Z</time></trkpt><trkpt lat="45.63210403889357" lon="10.711247168611198"><ele>311.0</ele><time>2026-04-01T09:23:42.999Z</time></trkpt><trkpt lat="45.63205421006647" lon="10.711166171107276"><ele>311.0</ele><time>2026-04-01T09:23:44.999Z</time></trkpt><trkpt lat="45.63198397083403" lon="10.711037851818869"><ele>311.0</ele><time>2026-04-01T09:23:46.999Z</time></trkpt><trkpt lat="45.63193734722109" lon="10.710927128985709"><ele>311.0</ele><time>2026-04-01T09:23:48.998Z</time></trkpt><trkpt lat="45.631857749646855" lon="10.710881185284478"><ele>310.0</ele><time>2026-04-01T09:23:50.998Z</time></trkpt><trkpt lat="45.63178451386635" lon="10.710795255767751"><ele>309.0</ele><time>2026-04-01T09:23:53.998Z</time></trkpt><trkpt lat="45.631745876178336" lon="10.710702561189956"><ele>308.0</ele><time>2026-04-01T09:23:54.998Z</time></trkpt><trkpt lat="45.631695200656814" lon="10.710632303317626"><ele>307.0</ele><time>2026-04-01T09:23:56.998Z</time></trkpt><trkpt lat="45.631640643366296" lon="10.710537061448528"><ele>306.0</ele><time>2026-04-01T09:23:59.998Z</time></trkpt><trkpt lat="45.63158100127339" lon="10.710449647517361"><ele>305.0</ele><time>2026-04-01T09:24:03Z</time></trkpt><trkpt lat="45.63153501338312" lon="10.710376412432435"><ele>305.0</ele><time>2026-04-01T09:24:05Z</time></trkpt><trkpt lat="45.63147831971534" lon="10.710316950078843"><ele>305.0</ele><time>2026-04-01T09:24:07Z</time></trkpt><trkpt lat="45.6314093871919" lon="10.710279187856006"><ele>305.0</ele><time>2026-04-01T09:24:09Z</time></trkpt><trkpt lat="45.63133951921215" lon="10.710239634210803"><ele>305.0</ele><time>2026-04-01T09:24:11Z</time></trkpt><trkpt lat="45.631393330533385" lon="10.71015223303231"><ele>305.0</ele><time>2026-04-01T09:24:17Z</time></trkpt><trkpt lat="45.63147506100689" lon="10.710082182936477"><ele>305.0</ele><time>2026-04-01T09:24:19Z</time></trkpt><trkpt lat="45.631563019608194" lon="10.710034850636594"><ele>299.4</ele><time>2026-04-01T09:24:21Z</time></trkpt><trkpt lat="45.631622692862194" lon="10.709987107364208"><ele>293.8</ele><time>2026-04-01T09:24:23Z</time></trkpt><trkpt lat="45.63173055354779" lon="10.709952439569513"><ele>288.2</ele><time>2026-04-01T09:24:34Z</time></trkpt><trkpt lat="45.63183957409956" lon="10.709882943686859"><ele>282.6</ele><time>2026-04-01T09:24:36Z</time></trkpt><trkpt lat="45.631953764932334" lon="10.70989313663781"><ele>277.0</ele><time>2026-04-01T09:24:38Z</time></trkpt><trkpt lat="45.632016474490904" lon="10.709914249644957"><ele>274.8333333333333</ele><time>2026-04-01T09:24:39Z</time></trkpt><trkpt lat="45.63213624620192" lon="10.7099119893175"><ele>272.66666666666663</ele><time>2026-04-01T09:24:41Z</time></trkpt><trkpt lat="45.63220168681976" lon="10.70994088749972"><ele>270.5</ele><time>2026-04-01T09:24:42Z</time></trkpt><trkpt lat="45.632257183779096" lon="10.709987904716174"><ele>268.3333333333333</ele><time>2026-04-01T09:24:43Z</time></trkpt><trkpt lat="45.632327582604596" lon="10.710025179214371"><ele>266.1666666666667</ele><time>2026-04-01T09:24:44Z</time></trkpt><trkpt lat="45.63239807196114" lon="10.71003783305117"><ele>264.0</ele><time>2026-04-01T09:24:45Z</time></trkpt><trkpt lat="45.632534741538436" lon="10.710027290849235"><ele>264.0</ele><time>2026-04-01T09:24:47Z</time></trkpt><trkpt lat="45.63259775912601" lon="10.710032354850458"><ele>264.0</ele><time>2026-04-01T09:24:48Z</time></trkpt><trkpt lat="45.63267048581226" lon="10.710151471039875"><ele>264.0</ele><time>2026-04-01T09:24:50Z</time></trkpt><trkpt lat="45.632689911844544" lon="10.710311213642122"><ele>264.0</ele><time>2026-04-01T09:24:52Z</time></trkpt><trkpt lat="45.63280625526923" lon="10.710404888956978"><ele>264.0</ele><time>2026-04-01T09:24:54Z</time></trkpt><trkpt lat="45.63287092036099" lon="10.710460112821261"><ele>266.0</ele><time>2026-04-01T09:24:55Z</time></trkpt><trkpt lat="45.633007961725674" lon="10.710443791566721"><ele>268.0</ele><time>2026-04-01T09:24:56.999Z</time></trkpt><trkpt lat="45.63307511567578" lon="10.71043699714043"><ele>270.0</ele><time>2026-04-01T09:24:57.999Z</time></trkpt><trkpt lat="45.63314397176988" lon="10.710453534513732"><ele>272.0</ele><time>2026-04-01T09:24:58.999Z</time></trkpt><trkpt lat="45.63321753655728" lon="10.710493236531567"><ele>274.0</ele><time>2026-04-01T09:24:59.999Z</time></trkpt><trkpt lat="45.633321434041655" lon="10.71058365927193"><ele>274.0</ele><time>2026-04-01T09:25:01.999Z</time></trkpt><trkpt lat="45.633377633975314" lon="10.710639661822063"><ele>274.0</ele><time>2026-04-01T09:25:02.999Z</time></trkpt><trkpt lat="45.63344268008089" lon="10.710686147839267"><ele>274.0</ele><time>2026-04-01T09:25:03.999Z</time></trkpt><trkpt lat="45.633517974276565" lon="10.710721450846053"><ele>274.0</ele><time>2026-04-01T09:25:04.999Z</time></trkpt><trkpt lat="45.63358362227753" lon="10.710741008277664"><ele>274.0</ele><time>2026-04-01T09:25:05.999Z</time></trkpt><trkpt lat="45.633682361481966" lon="10.710803451919269"><ele>274.0</ele><time>2026-04-01T09:25:07.999Z</time></trkpt><trkpt lat="45.63374501266859" lon="10.710783665766561"><ele>271.8333333333333</ele><time>2026-04-01T09:25:08.999Z</time></trkpt><trkpt lat="45.633817370800394" lon="10.710782413200706"><ele>269.66666666666663</ele><time>2026-04-01T09:25:09.999Z</time></trkpt><trkpt lat="45.63389670138488" lon="10.710794082256303"><ele>267.5</ele><time>2026-04-01T09:25:10.999Z</time></trkpt><trkpt lat="45.634003845711874" lon="10.710838592349472"><ele>265.3333333333333</ele><time>2026-04-01T09:25:12.999Z</time></trkpt><trkpt lat="45.63407966908998" lon="10.710864825425261"><ele>263.1666666666667</ele><time>2026-04-01T09:25:13.999Z</time></trkpt><trkpt lat="45.63415162677756" lon="10.710897414058865"><ele>261.0</ele><time>2026-04-01T09:25:14.999Z</time></trkpt><trkpt lat="45.63422403021949" lon="10.71093303103276"><ele>261.0</ele><time>2026-04-01T09:25:15.999Z</time></trkpt><trkpt lat="45.6342953574248" lon="10.710974896155726"><ele>261.0</ele><time>2026-04-01T09:25:16.999Z</time></trkpt><trkpt lat="45.63440076036326" lon="10.711066452895134"><ele>261.0</ele><time>2026-04-01T09:25:18.999Z</time></trkpt><trkpt lat="45.63446269992471" lon="10.711098728501609"><ele>261.0</ele><time>2026-04-01T09:25:19.999Z</time></trkpt><trkpt lat="45.63452693562919" lon="10.711148526799432"><ele>261.0</ele><time>2026-04-01T09:25:20.999Z</time></trkpt><trkpt lat="45.63458551416859" lon="10.711181681867108"><ele>261.0</ele><time>2026-04-01T09:25:21.999Z</time></trkpt><trkpt lat="45.63466384293655" lon="10.711216821038468"><ele>261.6</ele><time>2026-04-01T09:25:22.999Z</time></trkpt><trkpt lat="45.63473268029219" lon="10.71124070702385"><ele>262.20000000000005</ele><time>2026-04-01T09:25:23.999Z</time></trkpt><trkpt lat="45.6348407972591" lon="10.711255687130487"><ele>262.79999999999995</ele><time>2026-04-01T09:25:25.999Z</time></trkpt><trkpt lat="45.63492607344302" lon="10.711250376873434"><ele>263.4</ele><time>2026-04-01T09:25:27.999Z</time></trkpt><trkpt lat="45.6350282839377" lon="10.711281313295052"><ele>264.0</ele><time>2026-04-01T09:25:29.999Z</time></trkpt><trkpt lat="45.63507892193911" lon="10.711411440369531"><ele>264.0</ele><time>2026-04-01T09:25:31.999Z</time></trkpt><trkpt lat="45.635100502528836" lon="10.711540264937694"><ele>264.0</ele><time>2026-04-01T09:25:33.999Z</time></trkpt><trkpt lat="45.635222133531485" lon="10.711605975952313"><ele>264.0</ele><time>2026-04-01T09:25:35.999Z</time></trkpt><trkpt lat="45.63531384761112" lon="10.711611544519643"><ele>264.0</ele><time>2026-04-01T09:25:36.999Z</time></trkpt><trkpt lat="45.635385459226306" lon="10.711603990082036"><ele>264.0</ele><time>2026-04-01T09:25:37.999Z</time></trkpt><trkpt lat="45.63546477200984" lon="10.711627483099521"><ele>262.3333333333333</ele><time>2026-04-01T09:25:38.999Z</time></trkpt><trkpt lat="45.635544764901546" lon="10.711677990011387"><ele>260.6666666666667</ele><time>2026-04-01T09:25:39.999Z</time></trkpt><trkpt lat="45.635621150558045" lon="10.711741494842343"><ele>259.0</ele><time>2026-04-01T09:25:40.999Z</time></trkpt><trkpt lat="45.63572471438376" lon="10.711773490708685"><ele>257.33333333333337</ele><time>2026-04-01T09:25:42.999Z</time></trkpt><trkpt lat="45.635802473829" lon="10.71181043131761"><ele>255.66666666666669</ele><time>2026-04-01T09:25:44.999Z</time></trkpt><trkpt lat="45.63582299257201" lon="10.71190448047711"><ele>254.0</ele><time>2026-04-01T09:26:03.999Z</time></trkpt><trkpt lat="45.63586774784589" lon="10.711981209883879"><ele>256.8571428571429</ele><time>2026-04-01T09:26:05.999Z</time></trkpt><trkpt lat="45.635886292588594" lon="10.712071576232866"><ele>259.7142857142857</ele><time>2026-04-01T09:26:08Z</time></trkpt><trkpt lat="45.6359119794949" lon="10.712154068591776"><ele>262.57142857142856</ele><time>2026-04-01T09:26:11Z</time></trkpt><trkpt lat="45.635914882332905" lon="10.712254348310477"><ele>265.42857142857144</ele><time>2026-04-01T09:26:13Z</time></trkpt><trkpt lat="45.63592027020769" lon="10.712365427308969"><ele>268.2857142857143</ele><time>2026-04-01T09:26:15Z</time></trkpt><trkpt lat="45.63587781712025" lon="10.71248760804789"><ele>271.14285714285717</ele><time>2026-04-01T09:26:17Z</time></trkpt><trkpt lat="45.63585629198674" lon="10.712582909467969"><ele>274.0</ele><time>2026-04-01T09:26:20Z</time></trkpt><trkpt lat="45.635830331397024" lon="10.71266698432986"><ele>277.3333333333333</ele><time>2026-04-01T09:26:22Z</time></trkpt><trkpt lat="45.63580877748703" lon="10.712809031763069"><ele>280.66666666666663</ele><time>2026-04-01T09:26:25Z</time></trkpt><trkpt lat="45.635757618548865" lon="10.712892232585496"><ele>284.0</ele><time>2026-04-01T09:26:27Z</time></trkpt><trkpt lat="45.63571375895036" lon="10.712970992825287"><ele>287.3333333333333</ele><time>2026-04-01T09:26:28Z</time></trkpt><trkpt lat="45.63566633935094" lon="10.713077789363494"><ele>290.6666666666667</ele><time>2026-04-01T09:26:31Z</time></trkpt><trkpt lat="45.63559603877871" lon="10.713174962006704"><ele>294.0</ele><time>2026-04-01T09:26:33Z</time></trkpt><trkpt lat="45.635649333282046" lon="10.71324830472644"><ele>294.0</ele><time>2026-04-01T09:28:52Z</time></trkpt><trkpt lat="45.63573292968572" lon="10.713266618821152"><ele>294.0</ele><time>2026-04-01T09:28:57Z</time></trkpt><trkpt lat="45.63581705201848" lon="10.713304373447867"><ele>294.0</ele><time>2026-04-01T09:29:01Z</time></trkpt><trkpt lat="45.635901774104916" lon="10.713257933114395"><ele>294.0</ele><time>2026-04-01T09:29:04Z</time></trkpt><trkpt lat="45.635969126372736" lon="10.713237923398262"><ele>294.0</ele><time>2026-04-01T09:29:08Z</time></trkpt><trkpt lat="45.63603858668564" lon="10.713227050134922"><ele>294.0</ele><time>2026-04-01T09:29:10.999Z</time></trkpt><trkpt lat="45.63609190841816" lon="10.71317847152591"><ele>291.6666666666667</ele><time>2026-04-01T09:29:14.999Z</time></trkpt><trkpt lat="45.63618591180869" lon="10.713150909253203"><ele>289.3333333333333</ele><time>2026-04-01T09:29:18.999Z</time></trkpt><trkpt lat="45.63625385432044" lon="10.713191453534986"><ele>287.0</ele><time>2026-04-01T09:29:20.999Z</time></trkpt><trkpt lat="45.636314585610165" lon="10.713252946296473"><ele>284.66666666666663</ele><time>2026-04-01T09:29:23.999Z</time></trkpt><trkpt lat="45.636389396404" lon="10.713229704263462"><ele>282.3333333333333</ele><time>2026-04-01T09:29:26.999Z</time></trkpt><trkpt lat="45.63641520441283" lon="10.71313690668557"><ele>280.0</ele><time>2026-04-01T09:29:28.999Z</time></trkpt><trkpt lat="45.63643258399383" lon="10.713024985327763"><ele>280.0</ele><time>2026-04-01T09:29:31.999Z</time></trkpt><trkpt lat="45.63648073918438" lon="10.71293996618539"><ele>280.0</ele><time>2026-04-01T09:29:34.999Z</time></trkpt><trkpt lat="45.636526836251434" lon="10.712865748379759"><ele>280.0</ele><time>2026-04-01T09:29:37.999Z</time></trkpt><trkpt lat="45.63653065137884" lon="10.712764829210688"><ele>280.0</ele><time>2026-04-01T09:29:42.999Z</time></trkpt><trkpt lat="45.636550168476056" lon="10.71266385999801"><ele>280.0</ele><time>2026-04-01T09:29:45.999Z</time></trkpt><trkpt lat="45.636596014437494" lon="10.712561918672666"><ele>280.0</ele><time>2026-04-01T09:29:48.999Z</time></trkpt><trkpt lat="45.63663111494859" lon="10.712415828805801"><ele>277.16666666666663</ele><time>2026-04-01T09:29:52.999Z</time></trkpt><trkpt lat="45.63663078829516" lon="10.71231516705316"><ele>274.3333333333333</ele><time>2026-04-01T09:29:54.999Z</time></trkpt><trkpt lat="45.63670708219659" lon="10.71226719434755"><ele>271.5</ele><time>2026-04-01T09:29:56.999Z</time></trkpt><trkpt lat="45.636763521344186" lon="10.712186545772173"><ele>268.6666666666667</ele><time>2026-04-01T09:29:58.999Z</time></trkpt><trkpt lat="45.636808465970525" lon="10.712107367250033"><ele>265.83333333333337</ele><time>2026-04-01T09:30:01.999Z</time></trkpt><trkpt lat="45.63690959634366" lon="10.712095845554812"><ele>263.0</ele><time>2026-04-01T09:30:39Z</time></trkpt><trkpt lat="45.636969413640394" lon="10.712132584235512"><ele>260.0</ele><time>2026-04-01T09:30:40Z</time></trkpt><trkpt lat="45.63702998068163" lon="10.71217029780165"><ele>257.0</ele><time>2026-04-01T09:30:41Z</time></trkpt><trkpt lat="45.6371511757297" lon="10.712138082030455"><ele>254.0</ele><time>2026-04-01T09:30:43Z</time></trkpt><trkpt lat="45.63724825703805" lon="10.712069974434861"><ele>251.0</ele><time>2026-04-01T09:30:45Z</time></trkpt><trkpt lat="45.637321649129206" lon="10.71203739155791"><ele>248.0</ele><time>2026-04-01T09:30:47Z</time></trkpt><trkpt lat="45.63739790455273" lon="10.712033815983844"><ele>248.00000000000003</ele><time>2026-04-01T09:30:49Z</time></trkpt><trkpt lat="45.63744944262447" lon="10.712112100953606"><ele>248.0</ele><time>2026-04-01T09:30:51Z</time></trkpt><trkpt lat="45.63753505474438" lon="10.71220858384913"><ele>248.0</ele><time>2026-04-01T09:30:53Z</time></trkpt><trkpt lat="45.637554639949485" lon="10.712299570222154"><ele>248.0</ele><time>2026-04-01T09:30:54Z</time></trkpt><trkpt lat="45.63760373160287" lon="10.71237864170402"><ele>248.00000000000003</ele><time>2026-04-01T09:30:55Z</time></trkpt><trkpt lat="45.637654285344105" lon="10.71243567195492"><ele>248.0</ele><time>2026-04-01T09:30:56Z</time></trkpt><trkpt lat="45.637744873866005" lon="10.71243147256301"><ele>245.66666666666669</ele><time>2026-04-01T09:30:58Z</time></trkpt><trkpt lat="45.63782342897652" lon="10.712305840765659"><ele>243.33333333333334</ele><time>2026-04-01T09:31:00Z</time></trkpt><trkpt lat="45.63789024015936" lon="10.71228735453074"><ele>241.0</ele><time>2026-04-01T09:31:31.999Z</time></trkpt><trkpt lat="45.637961411362205" lon="10.712427818832856"><ele>238.66666666666669</ele><time>2026-04-01T09:31:34.999Z</time></trkpt><trkpt lat="45.63799227684958" lon="10.7125128980396"><ele>236.33333333333334</ele><time>2026-04-01T09:31:36.999Z</time></trkpt><trkpt lat="45.63794341862809" lon="10.712593266629442"><ele>234.0</ele><time>2026-04-01T09:31:39.999Z</time></trkpt><trkpt lat="45.63790741279584" lon="10.71267228989725"><ele>237.16666666666666</ele><time>2026-04-01T09:31:41.999Z</time></trkpt><trkpt lat="45.63793944563668" lon="10.712773519777928"><ele>240.33333333333331</ele><time>2026-04-01T09:31:43.999Z</time></trkpt><trkpt lat="45.638001856988375" lon="10.712877311674823"><ele>243.5</ele><time>2026-04-01T09:31:45.999Z</time></trkpt><trkpt lat="45.63800502185683" lon="10.712980676842617"><ele>246.66666666666666</ele><time>2026-04-01T09:31:47.999Z</time></trkpt><trkpt lat="45.637977433737454" lon="10.713067557647733"><ele>249.83333333333331</ele><time>2026-04-01T09:31:48.999Z</time></trkpt><trkpt lat="45.63794634654884" lon="10.713146740586929"><ele>253.0</ele><time>2026-04-01T09:31:49.999Z</time></trkpt><trkpt lat="45.63788482124581" lon="10.713250333336958"><ele>252.99999999999997</ele><time>2026-04-01T09:31:51.999Z</time></trkpt><trkpt lat="45.63782608211092" lon="10.713306475151098"><ele>253.0</ele><time>2026-04-01T09:31:52.999Z</time></trkpt><trkpt lat="45.63773081403461" lon="10.713396608906315"><ele>253.0</ele><time>2026-04-01T09:31:54.999Z</time></trkpt><trkpt lat="45.63766422146145" lon="10.713463148518205"><ele>253.0</ele><time>2026-04-01T09:31:56.999Z</time></trkpt><trkpt lat="45.637595122771216" lon="10.713548261674507"><ele>252.99999999999997</ele><time>2026-04-01T09:31:58.999Z</time></trkpt><trkpt lat="45.63756190503013" lon="10.713651541460347"><ele>253.0</ele><time>2026-04-01T09:32:00.999Z</time></trkpt><trkpt lat="45.6375397886261" lon="10.713759856056205"><ele>257.8333333333333</ele><time>2026-04-01T09:32:02.999Z</time></trkpt><trkpt lat="45.63750229153086" lon="10.713892633179347"><ele>262.66666666666663</ele><time>2026-04-01T09:32:05.999Z</time></trkpt><trkpt lat="45.63749255123351" lon="10.713991853307682"><ele>267.5</ele><time>2026-04-01T09:32:07.999Z</time></trkpt><trkpt lat="45.6374340364301" lon="10.714053954665845"><ele>272.3333333333333</ele><time>2026-04-01T09:32:09.999Z</time></trkpt><trkpt lat="45.63735371878823" lon="10.714076548135242"><ele>277.1666666666667</ele><time>2026-04-01T09:32:11.999Z</time></trkpt><trkpt lat="45.63730597242218" lon="10.714150297312608"><ele>282.0</ele><time>2026-04-01T09:32:14.999Z</time></trkpt><trkpt lat="45.63724535700205" lon="10.714208491649158"><ele>282.0</ele><time>2026-04-01T09:32:19.998Z</time></trkpt><trkpt lat="45.63716329253838" lon="10.714265707606671"><ele>282.0</ele><time>2026-04-01T09:32:22.998Z</time></trkpt><trkpt lat="45.637093211473726" lon="10.714298398731852"><ele>282.0</ele><time>2026-04-01T09:32:25Z</time></trkpt><trkpt lat="45.637067819938956" lon="10.71440089236876"><ele>282.0</ele><time>2026-04-01T09:32:27Z</time></trkpt><trkpt lat="45.63700491462891" lon="10.714418407826065"><ele>282.0</ele><time>2026-04-01T09:32:40Z</time></trkpt><trkpt lat="45.63693215884083" lon="10.714451150892778"><ele>282.0</ele><time>2026-04-01T09:32:42Z</time></trkpt><trkpt lat="45.63685108809179" lon="10.714478992837483"><ele>287.5</ele><time>2026-04-01T09:32:44Z</time></trkpt><trkpt lat="45.63680823647509" lon="10.714556841625678"><ele>293.0</ele><time>2026-04-01T09:32:47Z</time></trkpt><trkpt lat="45.63677643050743" lon="10.714636780120497"><ele>298.5</ele><time>2026-04-01T09:32:50Z</time></trkpt><trkpt lat="45.63671001214042" lon="10.714682444476226"><ele>304.0</ele><time>2026-04-01T09:32:56Z</time></trkpt><trkpt lat="45.63661612946062" lon="10.714658630507047"><ele>309.5</ele><time>2026-04-01T09:32:58Z</time></trkpt><trkpt lat="45.636540383966945" lon="10.714654665385597"><ele>315.0</ele><time>2026-04-01T09:33:00Z</time></trkpt><trkpt lat="45.636463530021715" lon="10.714583976861393"><ele>315.0</ele><time>2026-04-01T09:33:02Z</time></trkpt><trkpt lat="45.636385113936285" lon="10.714553665446173"><ele>315.0</ele><time>2026-04-01T09:33:04Z</time></trkpt><trkpt lat="45.636307085119974" lon="10.714570810048624"><ele>315.0</ele><time>2026-04-01T09:33:07Z</time></trkpt><trkpt lat="45.63623330847595" lon="10.714576600639349"><ele>315.0</ele><time>2026-04-01T09:33:09Z</time></trkpt><trkpt lat="45.63617194399016" lon="10.714475275989859"><ele>315.0</ele><time>2026-04-01T09:33:12Z</time></trkpt><trkpt lat="45.636071541710805" lon="10.714452768487833"><ele>315.0</ele><time>2026-04-01T09:33:14Z</time></trkpt><trkpt lat="45.63601360889501" lon="10.714498541147464"><ele>318.14285714285717</ele><time>2026-04-01T09:33:16.999Z</time></trkpt><trkpt lat="45.6360524671755" lon="10.7145893227507"><ele>321.2857142857143</ele><time>2026-04-01T09:33:19.999Z</time></trkpt><trkpt lat="45.63606979602872" lon="10.714686211923732"><ele>324.42857142857144</ele><time>2026-04-01T09:33:22.999Z</time></trkpt><trkpt lat="45.63605717659061" lon="10.714793525976669"><ele>327.57142857142856</ele><time>2026-04-01T09:33:28.999Z</time></trkpt><trkpt lat="45.63606061805135" lon="10.714925294429678"><ele>330.7142857142857</ele><time>2026-04-01T09:33:32.999Z</time></trkpt><trkpt lat="45.636076649841485" lon="10.715012468232088"><ele>333.8571428571429</ele><time>2026-04-01T09:33:34.999Z</time></trkpt><trkpt lat="45.636102505118934" lon="10.715108957829399"><ele>337.0</ele><time>2026-04-01T09:33:36.999Z</time></trkpt><trkpt lat="45.63610819312095" lon="10.715226978895194"><ele>340.0</ele><time>2026-04-01T09:33:38.999Z</time></trkpt><trkpt lat="45.636053017583365" lon="10.71533409648187"><ele>343.0</ele><time>2026-04-01T09:33:41.999Z</time></trkpt><trkpt lat="45.63602438011707" lon="10.715429113535896"><ele>346.0</ele><time>2026-04-01T09:33:44.999Z</time></trkpt><trkpt lat="45.63604496534282" lon="10.715552928554885"><ele>349.0</ele><time>2026-04-01T09:33:46.999Z</time></trkpt><trkpt lat="45.635965343774046" lon="10.71561189789602"><ele>352.0</ele><time>2026-04-01T09:33:49.999Z</time></trkpt><trkpt lat="45.63590239103235" lon="10.715627685747526"><ele>355.0</ele><time>2026-04-01T09:33:51.999Z</time></trkpt><trkpt lat="45.6358922774995" lon="10.71551608491163"><ele>355.0</ele><time>2026-04-01T09:33:54.999Z</time></trkpt><trkpt lat="45.63586043057208" lon="10.715435986587655"><ele>355.0</ele><time>2026-04-01T09:33:56.999Z</time></trkpt><trkpt lat="45.63580286649596" lon="10.715392027733682"><ele>355.0</ele><time>2026-04-01T09:33:59.999Z</time></trkpt><trkpt lat="45.63577991183935" lon="10.715506859467254"><ele>355.0</ele><time>2026-04-01T09:34:02.999Z</time></trkpt><trkpt lat="45.63571059157331" lon="10.715469999143771"><ele>355.0</ele><time>2026-04-01T09:34:04.999Z</time></trkpt><trkpt lat="45.63565965803492" lon="10.71554132811215"><ele>355.0</ele><time>2026-04-01T09:34:07.999Z</time></trkpt><trkpt lat="45.63560097071667" lon="10.71560105914229"><ele>355.0</ele><time>2026-04-01T09:34:11.999Z</time></trkpt><trkpt lat="45.635540297785305" lon="10.7156712697758"><ele>355.0</ele><time>2026-04-01T09:34:41Z</time></trkpt><trkpt lat="45.63551272579113" lon="10.71577038068425"><ele>355.0</ele><time>2026-04-01T09:34:44Z</time></trkpt><trkpt lat="45.63552822318196" lon="10.715897203670787"><ele>355.0</ele><time>2026-04-01T09:34:47Z</time></trkpt><trkpt lat="45.63554696682203" lon="10.715988395863628"><ele>355.0</ele><time>2026-04-01T09:34:49Z</time></trkpt><trkpt lat="45.63550951736221" lon="10.716076661024525"><ele>355.0</ele><time>2026-04-01T09:34:53Z</time></trkpt><trkpt lat="45.635475925021396" lon="10.716189171893655"><ele>355.0</ele><time>2026-04-01T09:34:57Z</time></trkpt><trkpt lat="45.63545692706399" lon="10.716292182284354"><ele>356.85714285714283</ele><time>2026-04-01T09:35:01Z</time></trkpt><trkpt lat="45.63543909554879" lon="10.716382558955116"><ele>358.7142857142857</ele><time>2026-04-01T09:35:05Z</time></trkpt><trkpt lat="45.635426631759884" lon="10.71650142320656"><ele>360.57142857142856</ele><time>2026-04-01T09:35:25.999Z</time></trkpt><trkpt lat="45.63543798317732" lon="10.71660779177909"><ele>362.42857142857144</ele><time>2026-04-01T09:35:52.999Z</time></trkpt><trkpt lat="45.63549219461595" lon="10.71666715938224"><ele>364.2857142857143</ele><time>2026-04-01T09:36:11.999Z</time></trkpt><trkpt lat="45.635524509537625" lon="10.716748019056018"><ele>366.14285714285717</ele><time>2026-04-01T09:36:13.999Z</time></trkpt><trkpt lat="45.63552680213367" lon="10.716850912798572"><ele>368.0</ele><time>2026-04-01T09:36:25.999Z</time></trkpt><trkpt lat="45.63551967681374" lon="10.716968992233378"><ele>370.42857142857144</ele><time>2026-04-01T09:36:31.999Z</time></trkpt><trkpt lat="45.63555150788251" lon="10.717063567538547"><ele>372.85714285714283</ele><time>2026-04-01T09:36:38Z</time></trkpt><trkpt lat="45.63559641678642" lon="10.71713713824255"><ele>375.2857142857143</ele><time>2026-04-01T09:36:40Z</time></trkpt><trkpt lat="45.63564703100443" lon="10.717196603712827"><ele>377.7142857142857</ele><time>2026-04-01T09:36:43Z</time></trkpt><trkpt lat="45.63568132990222" lon="10.717272236261326"><ele>380.1428571428571</ele><time>2026-04-01T09:36:51Z</time></trkpt><trkpt lat="45.635734270582745" lon="10.717324177283318"><ele>382.57142857142856</ele><time>2026-04-01T09:36:58Z</time></trkpt><trkpt lat="45.63579700179489" lon="10.717356960547775"><ele>385.0</ele><time>2026-04-01T09:37:05Z</time></trkpt><trkpt lat="45.635867232650185" lon="10.717397596570567"><ele>385.0</ele><time>2026-04-01T09:37:29Z</time></trkpt><trkpt lat="45.63593715806047" lon="10.717431907511605"><ele>385.0</ele><time>2026-04-01T09:37:32.999Z</time></trkpt><trkpt lat="45.63600632880376" lon="10.717475401912237"><ele>385.0</ele><time>2026-04-01T09:37:35.999Z</time></trkpt><trkpt lat="45.63603047979539" lon="10.717601312891533"><ele>385.0</ele><time>2026-04-01T09:37:38.999Z</time></trkpt><trkpt lat="45.63602241772712" lon="10.717704256336075"><ele>385.0</ele><time>2026-04-01T09:37:40.999Z</time></trkpt><trkpt lat="45.635980973944555" lon="10.717773934542738"><ele>385.0</ele><time>2026-04-01T09:37:43.999Z</time></trkpt><trkpt lat="45.635924940170774" lon="10.717838018507232"><ele>385.0</ele><time>2026-04-01T09:37:47.999Z</time></trkpt><trkpt lat="45.63591019255102" lon="10.717942191025449"><ele>385.0</ele><time>2026-04-01T09:39:19Z</time></trkpt><trkpt lat="45.63591732590436" lon="10.717849545408967"><ele>385.0</ele><time>2026-04-01T09:39:55.999Z</time></trkpt><trkpt lat="45.63595693499069" lon="10.717761552473126"><ele>385.0</ele><time>2026-04-01T09:41:23Z</time></trkpt><trkpt lat="45.6360064771984" lon="10.717704869029697"><ele>385.0</ele><time>2026-04-01T09:41:27Z</time></trkpt><trkpt lat="45.63599560302235" lon="10.717615059541085"><ele>385.0</ele><time>2026-04-01T09:41:33Z</time></trkpt><trkpt lat="45.6359557112872" lon="10.71754244035911"><ele>385.0</ele><time>2026-04-01T09:41:36.999Z</time></trkpt><trkpt lat="45.635910947566785" lon="10.717466174142888"><ele>385.0</ele><time>2026-04-01T09:41:40.999Z</time></trkpt><trkpt lat="45.63586411940397" lon="10.717397561258993"><ele>385.0</ele><time>2026-04-01T09:41:49.999Z</time></trkpt><trkpt lat="45.635801739243504" lon="10.717366406435257"><ele>385.0</ele><time>2026-04-01T09:42:10.999Z</time></trkpt><trkpt lat="45.635735592058204" lon="10.717333171067907"><ele>385.0</ele><time>2026-04-01T09:42:15.999Z</time></trkpt><trkpt lat="45.63568013633063" lon="10.717289306343984"><ele>385.0</ele><time>2026-04-01T09:42:21.999Z</time></trkpt><trkpt lat="45.635630315993645" lon="10.71720538649824"><ele>385.0</ele><time>2026-04-01T09:42:31.999Z</time></trkpt><trkpt lat="45.6355713283658" lon="10.71711214208193"><ele>385.0</ele><time>2026-04-01T09:42:34.999Z</time></trkpt><trkpt lat="45.635539577642426" lon="10.717029250815925"><ele>385.0</ele><time>2026-04-01T09:42:37.999Z</time></trkpt><trkpt lat="45.63555719341858" lon="10.71693136782241"><ele>382.57142857142856</ele><time>2026-04-01T09:42:42.999Z</time></trkpt><trkpt lat="45.63553336741458" lon="10.716812099888516"><ele>380.1428571428571</ele><time>2026-04-01T09:42:48.999Z</time></trkpt><trkpt lat="45.63551436149529" lon="10.71672041036762"><ele>377.7142857142857</ele><time>2026-04-01T09:42:52.998Z</time></trkpt><trkpt lat="45.635480044669535" lon="10.716634574152922"><ele>375.2857142857143</ele><time>2026-04-01T09:42:59Z</time></trkpt><trkpt lat="45.635438687057054" lon="10.716530381371857"><ele>372.85714285714283</ele><time>2026-04-01T09:43:13Z</time></trkpt><trkpt lat="45.63541441603019" lon="10.716433709215362"><ele>370.42857142857144</ele><time>2026-04-01T09:43:16Z</time></trkpt><trkpt lat="45.6354266882805" lon="10.716342508322695"><ele>368.0</ele><time>2026-04-01T09:43:22Z</time></trkpt><trkpt lat="45.6354509884943" lon="10.716247324417026"><ele>368.0</ele><time>2026-04-01T09:43:30Z</time></trkpt><trkpt lat="45.63549700129453" lon="10.716159546197922"><ele>368.0</ele><time>2026-04-01T09:43:33Z</time></trkpt><trkpt lat="45.6355006807875" lon="10.716067467731941"><ele>368.0</ele><time>2026-04-01T09:43:36Z</time></trkpt><trkpt lat="45.63545455173136" lon="10.716002988704968"><ele>368.0</ele><time>2026-04-01T09:44:49.999Z</time></trkpt><trkpt lat="45.63538193871261" lon="10.71600800154702"><ele>368.0</ele><time>2026-04-01T09:44:52.999Z</time></trkpt><trkpt lat="45.635315017156216" lon="10.71606320125585"><ele>368.0</ele><time>2026-04-01T09:44:55.999Z</time></trkpt><trkpt lat="45.63524187762156" lon="10.71605449988954"><ele>368.0</ele><time>2026-04-01T09:44:58.999Z</time></trkpt><trkpt lat="45.6351867422789" lon="10.71595668875761"><ele>368.6666666666667</ele><time>2026-04-01T09:45:01Z</time></trkpt><trkpt lat="45.635124407312894" lon="10.715913380251123"><ele>369.33333333333337</ele><time>2026-04-01T09:45:03Z</time></trkpt><trkpt lat="45.635048112755136" lon="10.715931538257863"><ele>370.0</ele><time>2026-04-01T09:45:05Z</time></trkpt><trkpt lat="45.63497476414052" lon="10.715860023866343"><ele>370.6666666666667</ele><time>2026-04-01T09:45:08Z</time></trkpt><trkpt lat="45.634927293196554" lon="10.715775861688558"><ele>371.3333333333333</ele><time>2026-04-01T09:45:11Z</time></trkpt><trkpt lat="45.63485997338183" lon="10.715739837845751"><ele>372.0</ele><time>2026-04-01T09:45:13Z</time></trkpt><trkpt lat="45.63479180890759" lon="10.71569362224122"><ele>372.0</ele><time>2026-04-01T09:45:14Z</time></trkpt><trkpt lat="45.63470849718607" lon="10.715613659472668"><ele>372.0</ele><time>2026-04-01T09:45:16Z</time></trkpt><trkpt lat="45.63462672227937" lon="10.715552440062199"><ele>372.0</ele><time>2026-04-01T09:45:18Z</time></trkpt><trkpt lat="45.634535694484015" lon="10.71549198461885"><ele>372.0</ele><time>2026-04-01T09:45:20Z</time></trkpt><trkpt lat="45.63445675431897" lon="10.715469881466943"><ele>372.0</ele><time>2026-04-01T09:45:22Z</time></trkpt><trkpt lat="45.63438195011177" lon="10.715430945212084"><ele>370.40000000000003</ele><time>2026-04-01T09:45:24Z</time></trkpt><trkpt lat="45.634277955503244" lon="10.71539422177729"><ele>368.8</ele><time>2026-04-01T09:45:26Z</time></trkpt><trkpt lat="45.634208490685026" lon="10.715334087192087"><ele>367.2</ele><time>2026-04-01T09:45:28Z</time></trkpt><trkpt lat="45.63412898367381" lon="10.71527509895151"><ele>365.6</ele><time>2026-04-01T09:45:30Z</time></trkpt><trkpt lat="45.63403580230176" lon="10.715194061455277"><ele>364.0</ele><time>2026-04-01T09:45:32Z</time></trkpt><trkpt lat="45.633960502888435" lon="10.715091465180867"><ele>364.0</ele><time>2026-04-01T09:45:34Z</time></trkpt><trkpt lat="45.63388862450498" lon="10.715050050091698"><ele>364.0</ele><time>2026-04-01T09:45:36Z</time></trkpt><trkpt lat="45.633822062129" lon="10.71498979892499"><ele>364.0</ele><time>2026-04-01T09:45:38Z</time></trkpt><trkpt lat="45.63372130198259" lon="10.71493425506703"><ele>364.0</ele><time>2026-04-01T09:45:41Z</time></trkpt><trkpt lat="45.63361632255648" lon="10.714878588815177"><ele>364.0</ele><time>2026-04-01T09:45:43Z</time></trkpt><trkpt lat="45.633495750639675" lon="10.714799261596326"><ele>365.85714285714283</ele><time>2026-04-01T09:45:45Z</time></trkpt><trkpt lat="45.63343450791379" lon="10.714762147022405"><ele>367.7142857142857</ele><time>2026-04-01T09:45:46Z</time></trkpt><trkpt lat="45.63335017223021" lon="10.714708682260673"><ele>369.57142857142856</ele><time>2026-04-01T09:45:48Z</time></trkpt><trkpt lat="45.63327060929746" lon="10.714708243322006"><ele>371.42857142857144</ele><time>2026-04-01T09:45:51.999Z</time></trkpt><trkpt lat="45.633207771954226" lon="10.71468653666707"><ele>373.2857142857143</ele><time>2026-04-01T09:45:53.999Z</time></trkpt><trkpt lat="45.633148555737364" lon="10.71465083504399"><ele>375.1428571428571</ele><time>2026-04-01T09:45:58.999Z</time></trkpt><trkpt lat="45.633142203030594" lon="10.714753461125595"><ele>377.0</ele><time>2026-04-01T09:46:03.999Z</time></trkpt><trkpt lat="45.63307141274314" lon="10.7148151688778"><ele>376.99999999999994</ele><time>2026-04-01T09:46:08.999Z</time></trkpt><trkpt lat="45.6330050160564" lon="10.714855192988464"><ele>377.0</ele><time>2026-04-01T09:46:11.999Z</time></trkpt><trkpt lat="45.63297685540652" lon="10.714951327528716"><ele>377.0</ele><time>2026-04-01T09:46:16.999Z</time></trkpt><trkpt lat="45.6329814869929" lon="10.715045209884039"><ele>377.0</ele><time>2026-04-01T09:46:21.999Z</time></trkpt><trkpt lat="45.63301287630285" lon="10.71514420881175"><ele>377.0</ele><time>2026-04-01T09:46:26.999Z</time></trkpt><trkpt lat="45.63306085376531" lon="10.715226315555029"><ele>376.99999999999994</ele><time>2026-04-01T09:46:30.999Z</time></trkpt><trkpt lat="45.63309563362927" lon="10.715325423472951"><ele>377.0</ele><time>2026-04-01T09:46:33.999Z</time></trkpt><trkpt lat="45.63308896621782" lon="10.715419678178728"><ele>380.1666666666667</ele><time>2026-04-01T09:46:42.999Z</time></trkpt><trkpt lat="45.63306236989921" lon="10.715532724765744"><ele>383.33333333333337</ele><time>2026-04-01T09:46:46.999Z</time></trkpt><trkpt lat="45.633050573023965" lon="10.715629288505859"><ele>386.5</ele><time>2026-04-01T09:46:49.999Z</time></trkpt><trkpt lat="45.63306768719289" lon="10.71572931044774"><ele>389.6666666666667</ele><time>2026-04-01T09:46:52.999Z</time></trkpt><trkpt lat="45.633097878574894" lon="10.715874514841646"><ele>392.8333333333333</ele><time>2026-04-01T09:46:54.999Z</time></trkpt><trkpt lat="45.633126961235625" lon="10.715974225010733"><ele>396.0</ele><time>2026-04-01T09:46:56.999Z</time></trkpt><trkpt lat="45.63310938198078" lon="10.716090434045496"><ele>400.4</ele><time>2026-04-01T09:46:58.999Z</time></trkpt><trkpt lat="45.63314529460506" lon="10.716204653959949"><ele>404.8</ele><time>2026-04-01T09:47:00.999Z</time></trkpt><trkpt lat="45.63318143047426" lon="10.716316661096641"><ele>409.2</ele><time>2026-04-01T09:47:02.999Z</time></trkpt><trkpt lat="45.633218087540435" lon="10.716414717739301"><ele>413.59999999999997</ele><time>2026-04-01T09:47:04.999Z</time></trkpt><trkpt lat="45.63326411982376" lon="10.716537368456093"><ele>418.0</ele><time>2026-04-01T09:47:07Z</time></trkpt><trkpt lat="45.633327648483984" lon="10.716650766969458"><ele>418.00000000000006</ele><time>2026-04-01T09:47:10Z</time></trkpt><trkpt lat="45.633394098510635" lon="10.716691921877509"><ele>418.0</ele><time>2026-04-01T09:47:13Z</time></trkpt><trkpt lat="45.63346078944263" lon="10.71675640408977"><ele>418.0</ele><time>2026-04-01T09:47:45Z</time></trkpt><trkpt lat="45.63353017770062" lon="10.716853658232338"><ele>418.0</ele><time>2026-04-01T09:47:47Z</time></trkpt><trkpt lat="45.63358387823885" lon="10.716935774467947"><ele>418.00000000000006</ele><time>2026-04-01T09:47:49Z</time></trkpt><trkpt lat="45.633639657252104" lon="10.717054954886228"><ele>418.0</ele><time>2026-04-01T09:47:52Z</time></trkpt><trkpt lat="45.633665916683455" lon="10.71715199539206"><ele>419.2</ele><time>2026-04-01T09:47:56Z</time></trkpt><trkpt lat="45.63370806144586" lon="10.717244686378715"><ele>420.4</ele><time>2026-04-01T09:47:59Z</time></trkpt><trkpt lat="45.63371411571542" lon="10.717343216310343"><ele>421.59999999999997</ele><time>2026-04-01T09:48:02Z</time></trkpt><trkpt lat="45.6337176336122" lon="10.717491658172849"><ele>422.79999999999995</ele><time>2026-04-01T09:48:03.999Z</time></trkpt><trkpt lat="45.633773234803755" lon="10.71765043364817"><ele>424.0</ele><time>2026-04-01T09:48:05.999Z</time></trkpt><trkpt lat="45.63378635290895" lon="10.717766658265163"><ele>426.33333333333337</ele><time>2026-04-01T09:48:07.999Z</time></trkpt><trkpt lat="45.63381575261367" lon="10.717886721207234"><ele>428.6666666666667</ele><time>2026-04-01T09:48:09.999Z</time></trkpt><trkpt lat="45.633800206058375" lon="10.71798592445781"><ele>431.0</ele><time>2026-04-01T09:48:11.999Z</time></trkpt><trkpt lat="45.633807759391836" lon="10.71807909047711"><ele>433.33333333333337</ele><time>2026-04-01T09:48:13.999Z</time></trkpt><trkpt lat="45.633807068545046" lon="10.71820485894286"><ele>435.6666666666667</ele><time>2026-04-01T09:48:16.999Z</time></trkpt><trkpt lat="45.63381450896023" lon="10.718299409383357"><ele>438.0</ele><time>2026-04-01T09:48:19.999Z</time></trkpt><trkpt lat="45.63383021778146" lon="10.718412994268759"><ele>438.0</ele><time>2026-04-01T09:48:21.999Z</time></trkpt><trkpt lat="45.63386252675551" lon="10.718548245936203"><ele>437.99999999999994</ele><time>2026-04-01T09:48:23.999Z</time></trkpt><trkpt lat="45.63387820953271" lon="10.718665314229694"><ele>437.99999999999994</ele><time>2026-04-01T09:48:25.999Z</time></trkpt><trkpt lat="45.633899860134655" lon="10.718801011254001"><ele>438.0</ele><time>2026-04-01T09:48:27.999Z</time></trkpt><trkpt lat="45.633904644485725" lon="10.718954352494451"><ele>438.0</ele><time>2026-04-01T09:48:29.999Z</time></trkpt><trkpt lat="45.63392367828437" lon="10.719088607905535"><ele>440.8333333333333</ele><time>2026-04-01T09:48:31.999Z</time></trkpt><trkpt lat="45.633950495589595" lon="10.719172226328139"><ele>443.66666666666663</ele><time>2026-04-01T09:48:32.999Z</time></trkpt><trkpt lat="45.63398805443396" lon="10.71931320515006"><ele>446.5</ele><time>2026-04-01T09:48:34.999Z</time></trkpt><trkpt lat="45.63405257622562" lon="10.71940394525568"><ele>449.3333333333333</ele><time>2026-04-01T09:48:36.999Z</time></trkpt><trkpt lat="45.63412073106077" lon="10.719500675573757"><ele>452.16666666666663</ele><time>2026-04-01T09:48:38.999Z</time></trkpt><trkpt lat="45.634169295669224" lon="10.719601672211574"><ele>455.0</ele><time>2026-04-01T09:48:40.999Z</time></trkpt><trkpt lat="45.63418337792506" lon="10.719716740697693"><ele>458.4</ele><time>2026-04-01T09:48:42.999Z</time></trkpt><trkpt lat="45.63416721463851" lon="10.71985105727751"><ele>461.8</ele><time>2026-04-01T09:48:44.999Z</time></trkpt><trkpt lat="45.634173863025204" lon="10.719986600683047"><ele>465.20000000000005</ele><time>2026-04-01T09:48:46.999Z</time></trkpt><trkpt lat="45.63421876960361" lon="10.720092840443133"><ele>468.6</ele><time>2026-04-01T09:48:48.999Z</time></trkpt><trkpt lat="45.634281524986235" lon="10.720223300139157"><ele>472.0</ele><time>2026-04-01T09:48:50.999Z</time></trkpt><trkpt lat="45.63431017674628" lon="10.720317522414037"><ele>474.8</ele><time>2026-04-01T09:48:51.999Z</time></trkpt><trkpt lat="45.634353940111566" lon="10.720418787655674"><ele>477.6</ele><time>2026-04-01T09:48:52.999Z</time></trkpt><trkpt lat="45.63438936435152" lon="10.720494027479821"><ele>480.40000000000003</ele><time>2026-04-01T09:48:53.999Z</time></trkpt><trkpt lat="45.63441767194675" lon="10.72064617747191"><ele>483.20000000000005</ele><time>2026-04-01T09:48:55.999Z</time></trkpt><trkpt lat="45.63443488722053" lon="10.720794034285987"><ele>486.0</ele><time>2026-04-01T09:48:57.999Z</time></trkpt><trkpt lat="45.63441942486427" lon="10.720934825374886"><ele>486.0</ele><time>2026-04-01T09:48:59.999Z</time></trkpt><trkpt lat="45.634387918490226" lon="10.721054586713569"><ele>486.0</ele><time>2026-04-01T09:49:01.999Z</time></trkpt><trkpt lat="45.63439574832122" lon="10.72117189875344"><ele>486.0</ele><time>2026-04-01T09:49:03.999Z</time></trkpt><trkpt lat="45.63442934993485" lon="10.721254127039337"><ele>486.0</ele><time>2026-04-01T09:49:05.999Z</time></trkpt><trkpt lat="45.63447149340974" lon="10.721344347851328"><ele>486.0</ele><time>2026-04-01T09:49:07.999Z</time></trkpt><trkpt lat="45.63452134270176" lon="10.721444411175964"><ele>486.0</ele><time>2026-04-01T09:49:10.999Z</time></trkpt><trkpt lat="45.63455241191695" lon="10.721528692867833"><ele>485.20000000000005</ele><time>2026-04-01T09:49:14Z</time></trkpt><trkpt lat="45.63462780936898" lon="10.721613869833481"><ele>484.40000000000003</ele><time>2026-04-01T09:51:25Z</time></trkpt><trkpt lat="45.63470653683154" lon="10.721611643825813"><ele>483.6</ele><time>2026-04-01T09:51:27Z</time></trkpt><trkpt lat="45.634763854140566" lon="10.721555677050736"><ele>482.8</ele><time>2026-04-01T09:51:28Z</time></trkpt><trkpt lat="45.63484678930302" lon="10.721471954515993"><ele>482.0</ele><time>2026-04-01T09:51:29Z</time></trkpt><trkpt lat="45.63494093998355" lon="10.721387498505827"><ele>482.0</ele><time>2026-04-01T09:51:30Z</time></trkpt><trkpt lat="45.63502017651597" lon="10.721298420938247"><ele>482.00000000000006</ele><time>2026-04-01T09:51:31Z</time></trkpt><trkpt lat="45.63508421862834" lon="10.721208203455591"><ele>482.00000000000006</ele><time>2026-04-01T09:51:32Z</time></trkpt><trkpt lat="45.635136310968036" lon="10.72111135023065"><ele>482.0</ele><time>2026-04-01T09:51:33Z</time></trkpt><trkpt lat="45.63517021239036" lon="10.720994289430939"><ele>482.0</ele><time>2026-04-01T09:51:34Z</time></trkpt><trkpt lat="45.63521042215501" lon="10.720851902386418"><ele>479.8333333333333</ele><time>2026-04-01T09:51:35Z</time></trkpt><trkpt lat="45.63526194813165" lon="10.720749464260221"><ele>477.66666666666663</ele><time>2026-04-01T09:51:36Z</time></trkpt><trkpt lat="45.63532665938961" lon="10.720672894931084"><ele>475.5</ele><time>2026-04-01T09:51:37Z</time></trkpt><trkpt lat="45.63539822091126" lon="10.720598291209953"><ele>473.33333333333337</ele><time>2026-04-01T09:51:38Z</time></trkpt><trkpt lat="45.6354557999351" lon="10.72051957809827"><ele>471.1666666666667</ele><time>2026-04-01T09:51:39Z</time></trkpt><trkpt lat="45.63548715173008" lon="10.720437931043515"><ele>469.0</ele><time>2026-04-01T09:51:40Z</time></trkpt><trkpt lat="45.63548936844617" lon="10.720343102191645"><ele>464.83333333333337</ele><time>2026-04-01T09:51:41Z</time></trkpt><trkpt lat="45.63544795745254" lon="10.720226181028258"><ele>460.6666666666667</ele><time>2026-04-01T09:51:42Z</time></trkpt><trkpt lat="45.63540319271149" lon="10.720097744839792"><ele>456.5</ele><time>2026-04-01T09:51:43Z</time></trkpt><trkpt lat="45.63538824564142" lon="10.720006054788458"><ele>452.33333333333337</ele><time>2026-04-01T09:51:44Z</time></trkpt><trkpt lat="45.63540296528697" lon="10.719900617572982"><ele>448.1666666666667</ele><time>2026-04-01T09:51:45Z</time></trkpt><trkpt lat="45.63543424528976" lon="10.719798586991374"><ele>444.0</ele><time>2026-04-01T09:51:46Z</time></trkpt><trkpt lat="45.63554081528737" lon="10.71973955731013"><ele>444.0</ele><time>2026-04-01T09:51:48Z</time></trkpt><trkpt lat="45.635624167726036" lon="10.719734687740836"><ele>444.0</ele><time>2026-04-01T09:51:49Z</time></trkpt><trkpt lat="45.635714292121975" lon="10.719722978404796"><ele>444.0</ele><time>2026-04-01T09:51:50Z</time></trkpt><trkpt lat="45.635814343413685" lon="10.71972715319648"><ele>444.0</ele><time>2026-04-01T09:51:51Z</time></trkpt><trkpt lat="45.635896780102065" lon="10.719732160215484"><ele>444.0</ele><time>2026-04-01T09:51:52Z</time></trkpt><trkpt lat="45.63597852710204" lon="10.719743004595914"><ele>444.0</ele><time>2026-04-01T09:51:53Z</time></trkpt><trkpt lat="45.63605852182852" lon="10.719776641554533"><ele>444.0</ele><time>2026-04-01T09:51:54Z</time></trkpt><trkpt lat="45.63613161054178" lon="10.719829152618685"><ele>444.0</ele><time>2026-04-01T09:51:55Z</time></trkpt><trkpt lat="45.63622815726585" lon="10.71987720802034"><ele>444.0</ele><time>2026-04-01T09:51:56Z</time></trkpt><trkpt lat="45.63631901719362" lon="10.719940410982982"><ele>444.0</ele><time>2026-04-01T09:51:57Z</time></trkpt><trkpt lat="45.636412242135826" lon="10.719981684692751"><ele>444.0</ele><time>2026-04-01T09:51:58Z</time></trkpt><trkpt lat="45.636486031418" lon="10.720055080992411"><ele>442.1666666666667</ele><time>2026-04-01T09:51:59Z</time></trkpt><trkpt lat="45.6365700809205" lon="10.720184056305115"><ele>440.33333333333337</ele><time>2026-04-01T09:52:01Z</time></trkpt><trkpt lat="45.636620951790356" lon="10.720281539524018"><ele>438.5</ele><time>2026-04-01T09:52:02Z</time></trkpt><trkpt lat="45.636668692669616" lon="10.720374740317967"><ele>436.6666666666667</ele><time>2026-04-01T09:52:03Z</time></trkpt><trkpt lat="45.63672719555622" lon="10.720457399918276"><ele>434.83333333333337</ele><time>2026-04-01T09:52:04Z</time></trkpt><trkpt lat="45.63678502580251" lon="10.72051856526091"><ele>433.0</ele><time>2026-04-01T09:52:05Z</time></trkpt><trkpt lat="45.63685027424022" lon="10.720577230781743"><ele>428.4</ele><time>2026-04-01T09:52:06Z</time></trkpt><trkpt lat="45.63699357796658" lon="10.720596141343263"><ele>423.79999999999995</ele><time>2026-04-01T09:52:07.999Z</time></trkpt><trkpt lat="45.63708076024729" lon="10.720533074254185"><ele>419.2</ele><time>2026-04-01T09:52:08.999Z</time></trkpt><trkpt lat="45.637170132532255" lon="10.720535140377068"><ele>414.6</ele><time>2026-04-01T09:52:09.999Z</time></trkpt><trkpt lat="45.637255937164966" lon="10.720548791959065"><ele>410.0</ele><time>2026-04-01T09:52:10.999Z</time></trkpt><trkpt lat="45.63732734086475" lon="10.720565260164744"><ele>409.99999999999994</ele><time>2026-04-01T09:52:11.999Z</time></trkpt><trkpt lat="45.6373921350368" lon="10.720553233383276"><ele>410.0</ele><time>2026-04-01T09:52:12.999Z</time></trkpt><trkpt lat="45.63744903582248" lon="10.720509727586077"><ele>410.0</ele><time>2026-04-01T09:52:13.999Z</time></trkpt><trkpt lat="45.6375414346954" lon="10.72048381037165"><ele>410.0</ele><time>2026-04-01T09:52:14.999Z</time></trkpt><trkpt lat="45.63764123979273" lon="10.720498016387474"><ele>409.99999999999994</ele><time>2026-04-01T09:52:16.999Z</time></trkpt><trkpt lat="45.63775920416219" lon="10.720447090232991"><ele>410.0</ele><time>2026-04-01T09:52:18.999Z</time></trkpt><trkpt lat="45.6378440360101" lon="10.720429619890018"><ele>404.6</ele><time>2026-04-01T09:52:19.999Z</time></trkpt><trkpt lat="45.63793028828095" lon="10.720370930586093"><ele>399.2</ele><time>2026-04-01T09:52:20.999Z</time></trkpt><trkpt lat="45.63801038346808" lon="10.72029610497866"><ele>393.79999999999995</ele><time>2026-04-01T09:52:21.999Z</time></trkpt><trkpt lat="45.6381173576276" lon="10.720189382640159"><ele>388.4</ele><time>2026-04-01T09:52:23.999Z</time></trkpt><trkpt lat="45.638179792842884" lon="10.720100981012736"><ele>383.0</ele><time>2026-04-01T09:52:24.999Z</time></trkpt><trkpt lat="45.63825332612439" lon="10.720052300831439"><ele>383.0</ele><time>2026-04-01T09:52:25.999Z</time></trkpt><trkpt lat="45.63832304717692" lon="10.720001112756954"><ele>383.0</ele><time>2026-04-01T09:52:27.999Z</time></trkpt><trkpt lat="45.63839413804469" lon="10.720053292872938"><ele>383.0</ele><time>2026-04-01T09:52:29.999Z</time></trkpt><trkpt lat="45.638420949999656" lon="10.72014735685721"><ele>383.0</ele><time>2026-04-01T09:52:30.999Z</time></trkpt><trkpt lat="45.63837755962307" lon="10.720270450133354"><ele>383.0</ele><time>2026-04-01T09:52:31.999Z</time></trkpt><trkpt lat="45.63838792018722" lon="10.720364805876997"><ele>383.0</ele><time>2026-04-01T09:52:32.999Z</time></trkpt><trkpt lat="45.63843474769526" lon="10.72048735471738"><ele>382.6666666666667</ele><time>2026-04-01T09:52:34.999Z</time></trkpt><trkpt lat="45.63849887850958" lon="10.720546936036785"><ele>382.3333333333333</ele><time>2026-04-01T09:52:53.999Z</time></trkpt><trkpt lat="45.63816727187456" lon="10.7206528721415"><ele>382.0</ele><time>2026-04-01T09:53:25Z</time></trkpt><trkpt lat="45.63809920506026" lon="10.720666355841777"><ele>382.0</ele><time>2026-04-01T09:53:27Z</time></trkpt><trkpt lat="45.63804017586318" lon="10.720726506876344"><ele>382.0</ele><time>2026-04-01T09:53:32Z</time></trkpt><trkpt lat="45.637982548912994" lon="10.720778870545935"><ele>382.0</ele><time>2026-04-01T09:53:35Z</time></trkpt><trkpt lat="45.63790021792814" lon="10.720839174656795"><ele>382.0</ele><time>2026-04-01T09:53:38Z</time></trkpt><trkpt lat="45.637796587633126" lon="10.720866463783246"><ele>382.0</ele><time>2026-04-01T09:53:40Z</time></trkpt><trkpt lat="45.63774291613803" lon="10.720947149535267"><ele>382.0</ele><time>2026-04-01T09:53:43Z</time></trkpt><trkpt lat="45.637705698263616" lon="10.72105725524058"><ele>386.66666666666663</ele><time>2026-04-01T09:53:45Z</time></trkpt><trkpt lat="45.637648052867725" lon="10.721152818539199"><ele>391.3333333333333</ele><time>2026-04-01T09:53:47Z</time></trkpt><trkpt lat="45.63762183161117" lon="10.721265401139297"><ele>396.0</ele><time>2026-04-01T09:53:49Z</time></trkpt><trkpt lat="45.63757409647384" lon="10.721342665535376"><ele>400.66666666666663</ele><time>2026-04-01T09:53:51Z</time></trkpt><trkpt lat="45.637482310368185" lon="10.721389204533327"><ele>405.3333333333333</ele><time>2026-04-01T09:53:53Z</time></trkpt><trkpt lat="45.63742212675993" lon="10.721448938143235"><ele>410.0</ele><time>2026-04-01T09:53:56Z</time></trkpt><trkpt lat="45.63736188005289" lon="10.721496611781703"><ele>409.99999999999994</ele><time>2026-04-01T09:53:58Z</time></trkpt><trkpt lat="45.63730800178433" lon="10.721547996700837"><ele>410.0</ele><time>2026-04-01T09:54:00Z</time></trkpt><trkpt lat="45.6372214679634" lon="10.721581825897907"><ele>410.0</ele><time>2026-04-01T09:54:03Z</time></trkpt><trkpt lat="45.63714308686523" lon="10.721600822426456"><ele>410.0</ele><time>2026-04-01T09:54:05Z</time></trkpt><trkpt lat="45.63707103623505" lon="10.721668857629425"><ele>409.99999999999994</ele><time>2026-04-01T09:54:07Z</time></trkpt><trkpt lat="45.637017956659214" lon="10.72171792235381"><ele>410.0</ele><time>2026-04-01T09:54:09Z</time></trkpt><trkpt lat="45.636941571964634" lon="10.721779722725572"><ele>413.7142857142857</ele><time>2026-04-01T09:54:12Z</time></trkpt><trkpt lat="45.63687176493921" lon="10.721807829430226"><ele>417.4285714285714</ele><time>2026-04-01T09:54:13.999Z</time></trkpt><trkpt lat="45.63680822691713" lon="10.721856320914146"><ele>421.1428571428571</ele><time>2026-04-01T09:54:15.999Z</time></trkpt><trkpt lat="45.6367391201769" lon="10.721901920668527"><ele>424.8571428571429</ele><time>2026-04-01T09:54:17.999Z</time></trkpt><trkpt lat="45.63666567750951" lon="10.721948143049609"><ele>428.57142857142856</ele><time>2026-04-01T09:54:19.999Z</time></trkpt><trkpt lat="45.63661169571162" lon="10.72199578715527"><ele>432.2857142857143</ele><time>2026-04-01T09:54:21.999Z</time></trkpt><trkpt lat="45.636538155643855" lon="10.722021462655524"><ele>436.0</ele><time>2026-04-01T09:54:23.999Z</time></trkpt><trkpt lat="45.63645729801493" lon="10.722039550972811"><ele>437.50000000000006</ele><time>2026-04-01T09:54:25.999Z</time></trkpt><trkpt lat="45.63637205496221" lon="10.72208683645121"><ele>439.0</ele><time>2026-04-01T09:54:28.999Z</time></trkpt><trkpt lat="45.63627744121588" lon="10.722124358495167"><ele>440.5</ele><time>2026-04-01T09:54:31.999Z</time></trkpt><trkpt lat="45.63622734280311" lon="10.722183716426963"><ele>442.0</ele><time>2026-04-01T09:54:33.999Z</time></trkpt><trkpt lat="45.63621216592624" lon="10.722293970117645"><ele>443.50000000000006</ele><time>2026-04-01T09:54:42.999Z</time></trkpt><trkpt lat="45.63614400751369" lon="10.722360953857255"><ele>445.0</ele><time>2026-04-01T09:54:45.999Z</time></trkpt><trkpt lat="45.63610796983528" lon="10.722466205252266"><ele>445.0</ele><time>2026-04-01T09:54:48.999Z</time></trkpt><trkpt lat="45.63616919229937" lon="10.722600844002999"><ele>445.0</ele><time>2026-04-01T09:54:51.999Z</time></trkpt><trkpt lat="45.63625286640112" lon="10.722699377302884"><ele>445.0</ele><time>2026-04-01T09:54:53.999Z</time></trkpt><trkpt lat="45.63630938046371" lon="10.722747825674682"><ele>445.0</ele><time>2026-04-01T09:54:55.999Z</time></trkpt><trkpt lat="45.63639543763165" lon="10.722843453217148"><ele>445.0</ele><time>2026-04-01T09:54:58.999Z</time></trkpt><trkpt lat="45.63646082119198" lon="10.722907294011065"><ele>449.00000000000006</ele><time>2026-04-01T09:55:00.999Z</time></trkpt><trkpt lat="45.63652287214513" lon="10.722968063584934"><ele>453.0</ele><time>2026-04-01T09:55:03.999Z</time></trkpt><trkpt lat="45.63660030451477" lon="10.72303974700397"><ele>457.0</ele><time>2026-04-01T09:55:05.999Z</time></trkpt><trkpt lat="45.636692951845795" lon="10.723129926962223"><ele>461.0</ele><time>2026-04-01T09:55:07.999Z</time></trkpt><trkpt lat="45.636742403108805" lon="10.723187999067937"><ele>465.00000000000006</ele><time>2026-04-01T09:55:08.999Z</time></trkpt><trkpt lat="45.63679850352523" lon="10.723246234652342"><ele>469.0</ele><time>2026-04-01T09:55:09.999Z</time></trkpt><trkpt lat="45.63685546946952" lon="10.723294432749299"><ele>469.00000000000006</ele><time>2026-04-01T09:55:10.999Z</time></trkpt><trkpt lat="45.6369192688302" lon="10.723351646884192"><ele>469.0</ele><time>2026-04-01T09:55:11.999Z</time></trkpt><trkpt lat="45.63697647325686" lon="10.723412028871872"><ele>469.0</ele><time>2026-04-01T09:55:12.999Z</time></trkpt><trkpt lat="45.6370326964818" lon="10.723517588986605"><ele>469.0</ele><time>2026-04-01T09:55:14.999Z</time></trkpt><trkpt lat="45.637093328566834" lon="10.72357270568634"><ele>469.00000000000006</ele><time>2026-04-01T09:55:16.999Z</time></trkpt><trkpt lat="45.63708883171149" lon="10.723680829240354"><ele>469.0</ele><time>2026-04-01T09:55:20.999Z</time></trkpt><trkpt lat="45.63705167518918" lon="10.723814371533347"><ele>468.50000000000006</ele><time>2026-04-01T09:55:23.999Z</time></trkpt><trkpt lat="45.637026056448526" lon="10.72397482295418"><ele>468.0</ele><time>2026-04-01T09:55:26.998Z</time></trkpt><trkpt lat="45.6370356736336" lon="10.7240978935383"><ele>467.5</ele><time>2026-04-01T09:55:28.998Z</time></trkpt><trkpt lat="45.63708481584073" lon="10.724190280723711"><ele>467.0</ele><time>2026-04-01T09:55:31Z</time></trkpt><trkpt lat="45.63712404418818" lon="10.724267584812404"><ele>466.50000000000006</ele><time>2026-04-01T09:55:32Z</time></trkpt><trkpt lat="45.637122560235426" lon="10.724397225626094"><ele>466.0</ele><time>2026-04-01T09:55:34Z</time></trkpt><trkpt lat="45.63711654473326" lon="10.724517653176587"><ele>468.00000000000006</ele><time>2026-04-01T09:55:37Z</time></trkpt><trkpt lat="45.63711064303218" lon="10.72461304901425"><ele>470.0</ele><time>2026-04-01T09:55:40Z</time></trkpt><trkpt lat="45.63708979352022" lon="10.724725640808128"><ele>472.0</ele><time>2026-04-01T09:55:42Z</time></trkpt><trkpt lat="45.63706027601369" lon="10.724837036890365"><ele>474.0</ele><time>2026-04-01T09:55:44Z</time></trkpt><trkpt lat="45.63704219107381" lon="10.7249663268536"><ele>476.00000000000006</ele><time>2026-04-01T09:55:46Z</time></trkpt><trkpt lat="45.63699328008396" lon="10.725077186822336"><ele>478.0</ele><time>2026-04-01T09:55:48Z</time></trkpt><trkpt lat="45.6369332398625" lon="10.725144568279225"><ele>478.00000000000006</ele><time>2026-04-01T09:55:55Z</time></trkpt><trkpt lat="45.63688493646664" lon="10.725222523703238"><ele>478.0</ele><time>2026-04-01T09:56:02Z</time></trkpt><trkpt lat="45.636883916204354" lon="10.725314151560694"><ele>478.0</ele><time>2026-04-01T09:56:05Z</time></trkpt><trkpt lat="45.63699456311051" lon="10.725348350396349"><ele>478.0</ele><time>2026-04-01T09:56:09Z</time></trkpt><trkpt lat="45.63707457191391" lon="10.725333188126717"><ele>478.00000000000006</ele><time>2026-04-01T09:56:10Z</time></trkpt><trkpt lat="45.63715343111245" lon="10.72532566552651"><ele>478.0</ele><time>2026-04-01T09:56:12Z</time></trkpt><trkpt lat="45.63721931030333" lon="10.725220437982827"><ele>478.00000000000006</ele><time>2026-04-01T09:56:15Z</time></trkpt><trkpt lat="45.63730100756531" lon="10.72516684120264"><ele>478.0</ele><time>2026-04-01T09:56:17Z</time></trkpt><trkpt lat="45.63740118599647" lon="10.725177489189397"><ele>478.0</ele><time>2026-04-01T09:56:19Z</time></trkpt><trkpt lat="45.63748127645642" lon="10.725180646969832"><ele>478.0</ele><time>2026-04-01T09:56:21Z</time></trkpt><trkpt lat="45.637557013880574" lon="10.72520364014879"><ele>478.00000000000006</ele><time>2026-04-01T09:56:23Z</time></trkpt><trkpt lat="45.637621109521035" lon="10.725213480239578"><ele>478.0</ele><time>2026-04-01T09:56:30.999Z</time></trkpt><trkpt lat="45.63775113851199" lon="10.72519584128499"><ele>478.6666666666667</ele><time>2026-04-01T09:56:34.999Z</time></trkpt><trkpt lat="45.63782404398073" lon="10.725202213778372"><ele>479.33333333333337</ele><time>2026-04-01T09:56:36.999Z</time></trkpt><trkpt lat="45.63790293366381" lon="10.725183763947705"><ele>480.0</ele><time>2026-04-01T09:56:38.999Z</time></trkpt><trkpt lat="45.637997450335526" lon="10.725234425913012"><ele>480.66666666666663</ele><time>2026-04-01T09:56:40.999Z</time></trkpt><trkpt lat="45.638074011944255" lon="10.725248361263038"><ele>481.3333333333333</ele><time>2026-04-01T09:56:42.999Z</time></trkpt><trkpt lat="45.638142928149094" lon="10.725238224967782"><ele>482.0</ele><time>2026-04-01T09:56:45.999Z</time></trkpt><trkpt lat="45.63823577612591" lon="10.725225078093308"><ele>481.99999999999994</ele><time>2026-04-01T09:56:47.999Z</time></trkpt><trkpt lat="45.63831357798033" lon="10.725222907660298"><ele>482.0</ele><time>2026-04-01T09:56:49.999Z</time></trkpt><trkpt lat="45.63838496612816" lon="10.725237594835017"><ele>482.0</ele><time>2026-04-01T09:56:51.999Z</time></trkpt><trkpt lat="45.638477739424566" lon="10.725259342723035"><ele>482.0</ele><time>2026-04-01T09:56:53.999Z</time></trkpt><trkpt lat="45.63858340972393" lon="10.725276216835951"><ele>481.99999999999994</ele><time>2026-04-01T09:56:55.999Z</time></trkpt><trkpt lat="45.638667814325906" lon="10.72526264918491"><ele>482.0</ele><time>2026-04-01T09:56:57.999Z</time></trkpt><trkpt lat="45.63875511226861" lon="10.725238684210296"><ele>477.8</ele><time>2026-04-01T09:57:00.999Z</time></trkpt><trkpt lat="45.63881300684454" lon="10.725132531986826"><ele>473.6</ele><time>2026-04-01T09:57:02.999Z</time></trkpt><trkpt lat="45.63886066979339" lon="10.725002114284733"><ele>469.40000000000003</ele><time>2026-04-01T09:57:04.999Z</time></trkpt><trkpt lat="45.6388884404009" lon="10.72491797694289"><ele>465.20000000000005</ele><time>2026-04-01T09:57:06.999Z</time></trkpt><trkpt lat="45.638899939272854" lon="10.72478961723607"><ele>461.0</ele><time>2026-04-01T09:57:09.999Z</time></trkpt><trkpt lat="45.63894717811633" lon="10.72464770795629"><ele>460.99999999999994</ele><time>2026-04-01T09:57:12.999Z</time></trkpt><trkpt lat="45.63898630741318" lon="10.724524292579636"><ele>461.0</ele><time>2026-04-01T09:57:14.999Z</time></trkpt><trkpt lat="45.63901401767115" lon="10.724442461196613"><ele>461.0</ele><time>2026-04-01T09:59:16.999Z</time></trkpt><trkpt lat="45.63905250385848" lon="10.724355576768149"><ele>461.0</ele><time>2026-04-01T09:59:19.999Z</time></trkpt><trkpt lat="45.639045744560114" lon="10.724264084765393"><ele>460.99999999999994</ele><time>2026-04-01T09:59:22.999Z</time></trkpt><trkpt lat="45.639054288707705" lon="10.724124934993359"><ele>461.0</ele><time>2026-04-01T09:59:28.999Z</time></trkpt><trkpt lat="45.63906194183095" lon="10.72403514154948"><ele>458.16666666666663</ele><time>2026-04-01T09:59:31.999Z</time></trkpt><trkpt lat="45.639076056200786" lon="10.723936715952572"><ele>455.3333333333333</ele><time>2026-04-01T09:59:47Z</time></trkpt><trkpt lat="45.63910907177269" lon="10.723816320201411"><ele>452.5</ele><time>2026-04-01T09:59:50Z</time></trkpt><trkpt lat="45.63913062051135" lon="10.723700124404091"><ele>449.66666666666663</ele><time>2026-04-01T09:59:55Z</time></trkpt><trkpt lat="45.63914842531831" lon="10.723613374154604"><ele>446.8333333333333</ele><time>2026-04-01T09:59:58Z</time></trkpt><trkpt lat="45.63920331540449" lon="10.72354056973734"><ele>444.0</ele><time>2026-04-01T10:00:01Z</time></trkpt><trkpt lat="45.63923810604714" lon="10.723440003580249"><ele>440.6666666666667</ele><time>2026-04-01T10:00:04Z</time></trkpt><trkpt lat="45.639295176083905" lon="10.723360598618822"><ele>437.33333333333337</ele><time>2026-04-01T10:00:07Z</time></trkpt><trkpt lat="45.639373752117905" lon="10.723323239971307"><ele>434.0</ele><time>2026-04-01T10:00:09Z</time></trkpt><trkpt lat="45.63945115257619" lon="10.72332575886604"><ele>430.6666666666667</ele><time>2026-04-01T10:00:11Z</time></trkpt><trkpt lat="45.639529985034535" lon="10.723359579571925"><ele>427.33333333333337</ele><time>2026-04-01T10:00:13Z</time></trkpt><trkpt lat="45.63959690848808" lon="10.723346271951867"><ele>424.0</ele><time>2026-04-01T10:00:14Z</time></trkpt><trkpt lat="45.63968987411332" lon="10.723396639663243"><ele>424.4</ele><time>2026-04-01T10:00:16Z</time></trkpt><trkpt lat="45.639791780526295" lon="10.723485453265518"><ele>424.79999999999995</ele><time>2026-04-01T10:00:18Z</time></trkpt><trkpt lat="45.63986719855335" lon="10.723555403454275"><ele>425.20000000000005</ele><time>2026-04-01T10:00:20Z</time></trkpt><trkpt lat="45.63995760353349" lon="10.72358824131309"><ele>425.6</ele><time>2026-04-01T10:00:22Z</time></trkpt><trkpt lat="45.64003858824104" lon="10.723683840142346"><ele>426.0</ele><time>2026-04-01T10:00:24Z</time></trkpt><trkpt lat="45.640096692821636" lon="10.723743295379748"><ele>426.0</ele><time>2026-04-01T10:00:26Z</time></trkpt><trkpt lat="45.64014433279674" lon="10.723837624762433"><ele>426.0</ele><time>2026-04-01T10:00:28Z</time></trkpt><trkpt lat="45.640234909051195" lon="10.723844429325085"><ele>426.0</ele><time>2026-04-01T10:00:31Z</time></trkpt><trkpt lat="45.64031540955862" lon="10.72382473302761"><ele>426.0</ele><time>2026-04-01T10:00:33Z</time></trkpt><trkpt lat="45.64039367295427" lon="10.723859683015428"><ele>426.0</ele><time>2026-04-01T10:00:34.999Z</time></trkpt><trkpt lat="45.64049338648443" lon="10.723940005029378"><ele>423.1666666666667</ele><time>2026-04-01T10:00:36.999Z</time></trkpt><trkpt lat="45.64055102015505" lon="10.723988769985535"><ele>420.33333333333337</ele><time>2026-04-01T10:00:37.999Z</time></trkpt><trkpt lat="45.640654407455756" lon="10.724048617856019"><ele>417.5</ele><time>2026-04-01T10:00:39.999Z</time></trkpt><trkpt lat="45.64071838854422" lon="10.724062171091292"><ele>414.6666666666667</ele><time>2026-04-01T10:00:40.999Z</time></trkpt><trkpt lat="45.64082531882601" lon="10.724112467482906"><ele>411.83333333333337</ele><time>2026-04-01T10:00:42.999Z</time></trkpt><trkpt lat="45.64090963572221" lon="10.724154270620597"><ele>409.0</ele><time>2026-04-01T10:00:44.999Z</time></trkpt><trkpt lat="45.64097090110411" lon="10.72419238297751"><ele>409.00000000000006</ele><time>2026-04-01T10:00:46.999Z</time></trkpt><trkpt lat="45.64103702911831" lon="10.724210532114565"><ele>409.0</ele><time>2026-04-01T10:00:56.999Z</time></trkpt><trkpt lat="45.64110087499252" lon="10.724248802557465"><ele>409.0</ele><time>2026-04-01T10:00:58.999Z</time></trkpt><trkpt lat="45.641185503315675" lon="10.72431440489573"><ele>409.0</ele><time>2026-04-01T10:01:00.999Z</time></trkpt><trkpt lat="45.64127355257169" lon="10.724388475455191"><ele>409.00000000000006</ele><time>2026-04-01T10:01:02.999Z</time></trkpt><trkpt lat="45.64133444907829" lon="10.724418757542354"><ele>409.0</ele><time>2026-04-01T10:01:03.999Z</time></trkpt><trkpt lat="45.64142720527863" lon="10.724515978794601"><ele>409.4</ele><time>2026-04-01T10:01:05.999Z</time></trkpt><trkpt lat="45.64153059266923" lon="10.724575210813448"><ele>409.79999999999995</ele><time>2026-04-01T10:01:07.999Z</time></trkpt><trkpt lat="45.64163392775652" lon="10.724665699638303"><ele>410.20000000000005</ele><time>2026-04-01T10:01:09.999Z</time></trkpt><trkpt lat="45.641699639659585" lon="10.724691403811287"><ele>410.6</ele><time>2026-04-01T10:01:10.999Z</time></trkpt><trkpt lat="45.6417658295965" lon="10.724707448529967"><ele>411.0</ele><time>2026-04-01T10:01:11.999Z</time></trkpt><trkpt lat="45.64185424839909" lon="10.724728146422658"><ele>411.0</ele><time>2026-04-01T10:01:13.999Z</time></trkpt><trkpt lat="45.64192448979683" lon="10.724725784310039"><ele>411.0</ele><time>2026-04-01T10:01:15.999Z</time></trkpt><trkpt lat="45.64198860227925" lon="10.724684529432578"><ele>411.0</ele><time>2026-04-01T10:01:17.999Z</time></trkpt><trkpt lat="45.6420603039171" lon="10.72464845152549"><ele>411.0</ele><time>2026-04-01T10:01:19.999Z</time></trkpt><trkpt lat="45.64209783809844" lon="10.724556139861257"><ele>411.0</ele><time>2026-04-01T10:01:21.999Z</time></trkpt><trkpt lat="45.642160368770085" lon="10.724478865661665"><ele>411.0</ele><time>2026-04-01T10:01:23.999Z</time></trkpt><trkpt lat="45.64223224615151" lon="10.724358818074712"><ele>407.6</ele><time>2026-04-01T10:01:26.999Z</time></trkpt><trkpt lat="45.642298287605904" lon="10.724246426447992"><ele>404.20000000000005</ele><time>2026-04-01T10:01:28.999Z</time></trkpt><trkpt lat="45.642384941414946" lon="10.724208908070164"><ele>400.79999999999995</ele><time>2026-04-01T10:01:30.999Z</time></trkpt><trkpt lat="45.642444617904" lon="10.72429689763581"><ele>397.4</ele><time>2026-04-01T10:01:32.999Z</time></trkpt><trkpt lat="45.64248804952364" lon="10.724426111478603"><ele>394.0</ele><time>2026-04-01T10:01:34.999Z</time></trkpt><trkpt lat="45.64253112674829" lon="10.724543275737604"><ele>394.00000000000006</ele><time>2026-04-01T10:01:36.999Z</time></trkpt><trkpt lat="45.642620570542476" lon="10.724607314206752"><ele>394.0</ele><time>2026-04-01T10:01:38.999Z</time></trkpt><trkpt lat="45.64270112766007" lon="10.724549310253064"><ele>394.0</ele><time>2026-04-01T10:01:40.999Z</time></trkpt><trkpt lat="45.64278268808858" lon="10.724523783767957"><ele>394.0</ele><time>2026-04-01T10:01:43.999Z</time></trkpt><trkpt lat="45.642824193384314" lon="10.724420030875729"><ele>394.00000000000006</ele><time>2026-04-01T10:01:46.998Z</time></trkpt><trkpt lat="45.64288899261008" lon="10.724381461911175"><ele>394.0</ele><time>2026-04-01T10:01:50Z</time></trkpt><trkpt lat="45.6429627530866" lon="10.724333409359717"><ele>389.83333333333337</ele><time>2026-04-01T10:01:52Z</time></trkpt><trkpt lat="45.64301614956199" lon="10.72428389797786"><ele>385.6666666666667</ele><time>2026-04-01T10:01:54Z</time></trkpt><trkpt lat="45.6430835199699" lon="10.72424318138304"><ele>381.5</ele><time>2026-04-01T10:01:56Z</time></trkpt><trkpt lat="45.643143788831594" lon="10.724286071029233"><ele>377.33333333333337</ele><time>2026-04-01T10:01:58Z</time></trkpt><trkpt lat="45.643252681727475" lon="10.724310923269345"><ele>373.1666666666667</ele><time>2026-04-01T10:02:01Z</time></trkpt><trkpt lat="45.64330792157574" lon="10.724370224823693"><ele>369.0</ele><time>2026-04-01T10:02:03Z</time></trkpt><trkpt lat="45.64336841459576" lon="10.724424080083429"><ele>369.0</ele><time>2026-04-01T10:02:05Z</time></trkpt><trkpt lat="45.643443066865274" lon="10.724472323814766"><ele>369.0</ele><time>2026-04-01T10:02:08Z</time></trkpt><trkpt lat="45.643511287853315" lon="10.724507958725724"><ele>369.0</ele><time>2026-04-01T10:02:10Z</time></trkpt><trkpt lat="45.64359205378778" lon="10.72453358892841"><ele>369.0</ele><time>2026-04-01T10:02:12Z</time></trkpt><trkpt lat="45.64363372929218" lon="10.724455877694211"><ele>369.0</ele><time>2026-04-01T10:02:15Z</time></trkpt><trkpt lat="45.64364473596975" lon="10.724353770491197"><ele>369.0</ele><time>2026-04-01T10:02:18Z</time></trkpt><trkpt lat="45.64372451958066" lon="10.724268074794645"><ele>361.8333333333333</ele><time>2026-04-01T10:02:21Z</time></trkpt><trkpt lat="45.64377838502622" lon="10.724178958810793"><ele>354.6666666666667</ele><time>2026-04-01T10:02:25Z</time></trkpt><trkpt lat="45.643804540993635" lon="10.724067153414396"><ele>347.5</ele><time>2026-04-01T10:02:28Z</time></trkpt><trkpt lat="45.64378798514054" lon="10.72394118646052"><ele>340.33333333333337</ele><time>2026-04-01T10:02:31Z</time></trkpt><trkpt lat="45.643798733824106" lon="10.723818457464533"><ele>333.1666666666667</ele><time>2026-04-01T10:02:34Z</time></trkpt><trkpt lat="45.64378041929128" lon="10.723725239983036"><ele>326.0</ele><time>2026-04-01T10:02:35.999Z</time></trkpt><trkpt lat="45.64372879628824" lon="10.723631018201502"><ele>326.83333333333337</ele><time>2026-04-01T10:02:39.999Z</time></trkpt><trkpt lat="45.64368442753744" lon="10.723546083506537"><ele>327.6666666666667</ele><time>2026-04-01T10:02:41.999Z</time></trkpt><trkpt lat="45.64363307019727" lon="10.723466522127882"><ele>328.5</ele><time>2026-04-01T10:02:43.999Z</time></trkpt><trkpt lat="45.64357209469289" lon="10.723372355332259"><ele>329.3333333333333</ele><time>2026-04-01T10:02:45.999Z</time></trkpt><trkpt lat="45.64354076973909" lon="10.723248545797576"><ele>330.16666666666663</ele><time>2026-04-01T10:02:47.999Z</time></trkpt><trkpt lat="45.64352164413085" lon="10.723129733641338"><ele>331.0</ele><time>2026-04-01T10:02:49.999Z</time></trkpt><trkpt lat="45.64345135529811" lon="10.723024932024678"><ele>331.0</ele><time>2026-04-01T10:02:53.999Z</time></trkpt><trkpt lat="45.643425196297706" lon="10.72292842357325"><ele>331.0</ele><time>2026-04-01T10:02:55.999Z</time></trkpt><trkpt lat="45.6433912941435" lon="10.722850010719906"><ele>331.0</ele><time>2026-04-01T10:02:57.999Z</time></trkpt><trkpt lat="45.64335015253357" lon="10.722756194480567"><ele>331.0</ele><time>2026-04-01T10:02:59.999Z</time></trkpt><trkpt lat="45.64332994072406" lon="10.722668316874142"><ele>331.0</ele><time>2026-04-01T10:03:01.999Z</time></trkpt><trkpt lat="45.64329776385273" lon="10.722568115642558"><ele>331.0</ele><time>2026-04-01T10:03:03.999Z</time></trkpt><trkpt lat="45.64330721078735" lon="10.722470459608061"><ele>331.0</ele><time>2026-04-01T10:03:05.999Z</time></trkpt><trkpt lat="45.6433398156894" lon="10.722317343915364"><ele>327.66666666666663</ele><time>2026-04-01T10:03:07.999Z</time></trkpt><trkpt lat="45.643387721178875" lon="10.722184593524231"><ele>324.3333333333333</ele><time>2026-04-01T10:03:09.999Z</time></trkpt><trkpt lat="45.64340268983277" lon="10.722090806568568"><ele>321.0</ele><time>2026-04-01T10:03:11.999Z</time></trkpt><trkpt lat="45.64338711243445" lon="10.721991359544676"><ele>317.6666666666667</ele><time>2026-04-01T10:03:13.999Z</time></trkpt><trkpt lat="45.64334240499073" lon="10.721894552333591"><ele>314.33333333333337</ele><time>2026-04-01T10:03:15.999Z</time></trkpt><trkpt lat="45.64329058539007" lon="10.721793496119616"><ele>311.0</ele><time>2026-04-01T10:03:18.999Z</time></trkpt><trkpt lat="45.64327188526846" lon="10.721705235247258"><ele>307.83333333333337</ele><time>2026-04-01T10:03:20.999Z</time></trkpt><trkpt lat="45.643264637681824" lon="10.72160490104997"><ele>304.6666666666667</ele><time>2026-04-01T10:03:22.999Z</time></trkpt><trkpt lat="45.64327006779486" lon="10.721474035539764"><ele>301.5</ele><time>2026-04-01T10:03:25.999Z</time></trkpt><trkpt lat="45.64326740838471" lon="10.72137529593682"><ele>298.3333333333333</ele><time>2026-04-01T10:03:28.999Z</time></trkpt><trkpt lat="45.64322291353925" lon="10.721299071248358"><ele>295.16666666666663</ele><time>2026-04-01T10:03:31.999Z</time></trkpt><trkpt lat="45.643160029428884" lon="10.721309936727396"><ele>292.0</ele><time>2026-04-01T10:03:48.998Z</time></trkpt><trkpt lat="45.64309020288368" lon="10.721403757500346"><ele>292.0</ele><time>2026-04-01T10:03:57Z</time></trkpt><trkpt lat="45.64301941189503" lon="10.721479384238403"><ele>292.0</ele><time>2026-04-01T10:04:13Z</time></trkpt><trkpt lat="45.64298612882176" lon="10.721559483516758"><ele>292.0</ele><time>2026-04-01T10:05:41.999Z</time></trkpt><trkpt lat="45.64294207776441" lon="10.721630779570505"><ele>292.0</ele><time>2026-04-01T10:05:52.999Z</time></trkpt><trkpt lat="45.64289787006481" lon="10.721703497473314"><ele>292.0</ele><time>2026-04-01T10:05:54.999Z</time></trkpt><trkpt lat="45.64285763411386" lon="10.721778248452399"><ele>292.0</ele><time>2026-04-01T10:05:56.998Z</time></trkpt><trkpt lat="45.642809686015035" lon="10.72184894701537"><ele>292.0</ele><time>2026-04-01T10:06:00Z</time></trkpt><trkpt lat="45.642740521975995" lon="10.72195777077959"><ele>298.5</ele><time>2026-04-01T10:11:04.999Z</time></trkpt><trkpt lat="45.64269026646271" lon="10.722017896718315"><ele>305.0</ele><time>2026-04-01T10:11:05.999Z</time></trkpt><trkpt lat="45.642611502412414" lon="10.722069648748128"><ele>311.5</ele><time>2026-04-01T10:11:06.999Z</time></trkpt><trkpt lat="45.64272745172589" lon="10.72197999888027"><ele>318.0</ele><time>2026-04-01T10:11:07.999Z</time></trkpt><trkpt lat="45.64266474318082" lon="10.722061742897964"><ele>324.5</ele><time>2026-04-01T10:11:19.999Z</time></trkpt><trkpt lat="45.64260969544032" lon="10.722117287427572"><ele>331.0</ele><time>2026-04-01T10:11:23.999Z</time></trkpt><trkpt lat="45.64253916611791" lon="10.72218072619086"><ele>331.0</ele><time>2026-04-01T10:11:42.999Z</time></trkpt><trkpt lat="45.642486000083174" lon="10.722232815994255"><ele>331.0</ele><time>2026-04-01T10:11:48.999Z</time></trkpt><trkpt lat="45.642445158518946" lon="10.72234460140747"><ele>331.0</ele><time>2026-04-01T10:11:54.999Z</time></trkpt><trkpt lat="45.642383381332" lon="10.72241279212896"><ele>331.0</ele><time>2026-04-01T10:11:58.999Z</time></trkpt><trkpt lat="45.64233570066328" lon="10.722490266796237"><ele>331.0</ele><time>2026-04-01T10:12:01.999Z</time></trkpt><trkpt lat="45.642283247196325" lon="10.722541452946277"><ele>331.0</ele><time>2026-04-01T10:12:03.999Z</time></trkpt><trkpt lat="45.642226652150605" lon="10.72259649414866"><ele>331.0</ele><time>2026-04-01T10:12:06.999Z</time></trkpt><trkpt lat="45.642192665159136" lon="10.722696114669409"><ele>334.57142857142856</ele><time>2026-04-01T10:12:10.998Z</time></trkpt><trkpt lat="45.64214194243028" lon="10.722774122686506"><ele>338.1428571428571</ele><time>2026-04-01T10:12:14.998Z</time></trkpt><trkpt lat="45.642090289445264" lon="10.722841294006237"><ele>341.71428571428567</ele><time>2026-04-01T10:12:18Z</time></trkpt><trkpt lat="45.64202611480021" lon="10.722808795699331"><ele>345.2857142857143</ele><time>2026-04-01T10:12:21Z</time></trkpt><trkpt lat="45.641962180594895" lon="10.722795737960219"><ele>348.85714285714283</ele><time>2026-04-01T10:12:32Z</time></trkpt><trkpt lat="45.641899350272254" lon="10.722765426119018"><ele>352.4285714285714</ele><time>2026-04-01T10:12:39Z</time></trkpt><trkpt lat="45.64182827257255" lon="10.722774948963194"><ele>356.0</ele><time>2026-04-01T10:12:43Z</time></trkpt><trkpt lat="45.64175478068895" lon="10.722828260031017"><ele>358.2857142857143</ele><time>2026-04-01T10:13:16.999Z</time></trkpt><trkpt lat="45.64170020889615" lon="10.722875637018388"><ele>360.57142857142856</ele><time>2026-04-01T10:13:18.999Z</time></trkpt><trkpt lat="45.64162285822926" lon="10.722900606989256"><ele>362.8571428571429</ele><time>2026-04-01T10:13:23.999Z</time></trkpt><trkpt lat="45.64155811639317" lon="10.722911455748676"><ele>365.1428571428571</ele><time>2026-04-01T10:13:25.999Z</time></trkpt><trkpt lat="45.641498465879785" lon="10.722882252545938"><ele>367.42857142857144</ele><time>2026-04-01T10:13:27.999Z</time></trkpt><trkpt lat="45.64143858862604" lon="10.722933011533097"><ele>369.7142857142857</ele><time>2026-04-01T10:13:31.999Z</time></trkpt><trkpt lat="45.641352770734365" lon="10.722943722386804"><ele>372.0</ele><time>2026-04-01T10:13:33.999Z</time></trkpt><trkpt lat="45.64128187918127" lon="10.723055968404736"><ele>372.0</ele><time>2026-04-01T10:13:36.999Z</time></trkpt><trkpt lat="45.64122988988253" lon="10.723124620526495"><ele>372.0</ele><time>2026-04-01T10:13:38.999Z</time></trkpt><trkpt lat="45.641168572565185" lon="10.723196188354306"><ele>372.0</ele><time>2026-04-01T10:13:40.999Z</time></trkpt><trkpt lat="45.641127015786424" lon="10.723272767621072"><ele>372.0</ele><time>2026-04-01T10:13:42.999Z</time></trkpt><trkpt lat="45.64105659340833" lon="10.723343480835405"><ele>372.0</ele><time>2026-04-01T10:13:44.999Z</time></trkpt><trkpt lat="45.64099942449958" lon="10.723395247775803"><ele>372.0</ele><time>2026-04-01T10:13:48.999Z</time></trkpt><trkpt lat="45.64095885956013" lon="10.723520588955092"><ele>375.1666666666667</ele><time>2026-04-01T10:13:55.999Z</time></trkpt><trkpt lat="45.64087179785423" lon="10.723521592450597"><ele>378.33333333333337</ele><time>2026-04-01T10:22:20.999Z</time></trkpt><trkpt lat="45.64081036852619" lon="10.723602792232615"><ele>381.5</ele><time>2026-04-01T10:22:22.999Z</time></trkpt><trkpt lat="45.64074263029112" lon="10.72364068045967"><ele>384.6666666666667</ele><time>2026-04-01T10:22:24.999Z</time></trkpt><trkpt lat="45.64067979087567" lon="10.723715592750839"><ele>387.83333333333337</ele><time>2026-04-01T10:22:26.999Z</time></trkpt><trkpt lat="45.640668117068614" lon="10.723837648171283"><ele>391.0</ele><time>2026-04-01T10:22:29.999Z</time></trkpt><trkpt lat="45.64067826752687" lon="10.723956107336848"><ele>394.00000000000006</ele><time>2026-04-01T10:22:37.999Z</time></trkpt><trkpt lat="45.64071390878739" lon="10.724035491238478"><ele>397.0</ele><time>2026-04-01T10:22:52Z</time></trkpt><trkpt lat="45.64064486032567" lon="10.724045020937528"><ele>400.0</ele><time>2026-04-01T10:23:44Z</time></trkpt><trkpt lat="45.64055943368521" lon="10.723996590730541"><ele>403.0</ele><time>2026-04-01T10:25:21Z</time></trkpt><trkpt lat="45.64049607175466" lon="10.723954041117668"><ele>406.00000000000006</ele><time>2026-04-01T10:25:22Z</time></trkpt><trkpt lat="45.640390509641556" lon="10.723899721346418"><ele>409.0</ele><time>2026-04-01T10:25:24Z</time></trkpt><trkpt lat="45.64031467563103" lon="10.723845971294478"><ele>409.1666666666667</ele><time>2026-04-01T10:25:26Z</time></trkpt><trkpt lat="45.64022390238217" lon="10.723873801798412"><ele>409.33333333333337</ele><time>2026-04-01T10:25:28Z</time></trkpt><trkpt lat="45.6401575601906" lon="10.723883049262778"><ele>409.5</ele><time>2026-04-01T10:25:30Z</time></trkpt><trkpt lat="45.6401103698531" lon="10.723822317001295"><ele>409.66666666666663</ele><time>2026-04-01T10:26:04Z</time></trkpt><trkpt lat="45.64006536896424" lon="10.72372762691767"><ele>409.8333333333333</ele><time>2026-04-01T10:26:06Z</time></trkpt><trkpt lat="45.63996997028853" lon="10.723640193393"><ele>410.0</ele><time>2026-04-01T10:26:07.999Z</time></trkpt><trkpt lat="45.63988287448009" lon="10.723554757076398"><ele>410.0</ele><time>2026-04-01T10:26:09.999Z</time></trkpt><trkpt lat="45.639779257909176" lon="10.72351463385592"><ele>410.0</ele><time>2026-04-01T10:26:11.999Z</time></trkpt><trkpt lat="45.63969332646628" lon="10.72340899006576"><ele>410.0</ele><time>2026-04-01T10:26:13.999Z</time></trkpt><trkpt lat="45.639587962231246" lon="10.723351473008101"><ele>410.0</ele><time>2026-04-01T10:26:15.999Z</time></trkpt><trkpt lat="45.63951697646357" lon="10.723340025958178"><ele>410.0</ele><time>2026-04-01T10:26:16.999Z</time></trkpt><trkpt lat="45.63941710867638" lon="10.723320497062055"><ele>412.3333333333333</ele><time>2026-04-01T10:26:18.999Z</time></trkpt><trkpt lat="45.63930788664588" lon="10.723344094579968"><ele>414.66666666666663</ele><time>2026-04-01T10:26:20.999Z</time></trkpt><trkpt lat="45.63924577318661" lon="10.723387420477446"><ele>417.0</ele><time>2026-04-01T10:26:22.999Z</time></trkpt><trkpt lat="45.639209667769634" lon="10.723502286312309"><ele>419.33333333333337</ele><time>2026-04-01T10:26:25.999Z</time></trkpt><trkpt lat="45.639165089323136" lon="10.723571002400968"><ele>421.6666666666667</ele><time>2026-04-01T10:26:27.999Z</time></trkpt><trkpt lat="45.63911694787498" lon="10.723669669244913"><ele>424.0</ele><time>2026-04-01T10:26:30.999Z</time></trkpt><trkpt lat="45.63909424846004" lon="10.723758636022403"><ele>427.33333333333337</ele><time>2026-04-01T10:26:34.999Z</time></trkpt><trkpt lat="45.63906626405772" lon="10.723853275221204"><ele>430.6666666666667</ele><time>2026-04-01T10:26:38.999Z</time></trkpt><trkpt lat="45.639045061723245" lon="10.723979185559156"><ele>434.0</ele><time>2026-04-01T10:26:42.999Z</time></trkpt><trkpt lat="45.63903013258293" lon="10.724086415398292"><ele>437.33333333333337</ele><time>2026-04-01T10:26:46.999Z</time></trkpt><trkpt lat="45.63902249142829" lon="10.724180071519749"><ele>440.6666666666667</ele><time>2026-04-01T10:26:54.999Z</time></trkpt><trkpt lat="45.63903277916909" lon="10.724269700119352"><ele>444.0</ele><time>2026-04-01T10:27:14Z</time></trkpt><trkpt lat="45.639017770212575" lon="10.724388172956665"><ele>446.8333333333333</ele><time>2026-04-01T10:27:17Z</time></trkpt><trkpt lat="45.638990820850886" lon="10.724484469843272"><ele>449.66666666666663</ele><time>2026-04-01T10:27:21Z</time></trkpt><trkpt lat="45.638954348769516" lon="10.724559065408224"><ele>452.5</ele><time>2026-04-01T10:30:42.999Z</time></trkpt><trkpt lat="45.6389291483964" lon="10.724682956336544"><ele>455.3333333333333</ele><time>2026-04-01T10:30:44.999Z</time></trkpt><trkpt lat="45.63890624993339" lon="10.724810355646625"><ele>458.16666666666663</ele><time>2026-04-01T10:30:46.999Z</time></trkpt><trkpt lat="45.638896454214326" lon="10.724911262670146"><ele>461.0</ele><time>2026-04-01T10:30:49.999Z</time></trkpt><trkpt lat="45.63885553206157" lon="10.725003553907593"><ele>460.99999999999994</ele><time>2026-04-01T10:30:51.999Z</time></trkpt><trkpt lat="45.63882015600854" lon="10.725105003058422"><ele>461.0</ele><time>2026-04-01T10:30:55.999Z</time></trkpt><trkpt lat="45.638788047846774" lon="10.72518456640935"><ele>461.0</ele><time>2026-04-01T10:30:57.999Z</time></trkpt><trkpt lat="45.63870193178721" lon="10.725240720257675"><ele>461.0</ele><time>2026-04-01T10:30:59.999Z</time></trkpt><trkpt lat="45.63863720178145" lon="10.72524573352971"><ele>460.99999999999994</ele><time>2026-04-01T10:31:01.999Z</time></trkpt><trkpt lat="45.638525851346934" lon="10.725250825604164"><ele>461.0</ele><time>2026-04-01T10:31:03.999Z</time></trkpt><trkpt lat="45.63843998378307" lon="10.725225637976017"><ele>461.49999999999994</ele><time>2026-04-01T10:31:05.999Z</time></trkpt><trkpt lat="45.638345439132166" lon="10.725205742165283"><ele>462.0</ele><time>2026-04-01T10:31:07.999Z</time></trkpt><trkpt lat="45.63826281936248" lon="10.725218785942484"><ele>462.5</ele><time>2026-04-01T10:31:09.999Z</time></trkpt><trkpt lat="45.638190923238454" lon="10.725220650594537"><ele>463.0</ele><time>2026-04-01T10:31:13Z</time></trkpt><trkpt lat="45.63808917898688" lon="10.725219418725777"><ele>463.49999999999994</ele><time>2026-04-01T10:31:15Z</time></trkpt><trkpt lat="45.63801996205547" lon="10.725241066186177"><ele>464.0</ele><time>2026-04-01T10:31:17Z</time></trkpt><trkpt lat="45.63792252058313" lon="10.72522131211245"><ele>464.0</ele><time>2026-04-01T10:31:19Z</time></trkpt><trkpt lat="45.63781616073923" lon="10.725196324877533"><ele>464.0</ele><time>2026-04-01T10:31:21Z</time></trkpt><trkpt lat="45.63769720708594" lon="10.725226529204727"><ele>464.0</ele><time>2026-04-01T10:31:23Z</time></trkpt><trkpt lat="45.6376319375452" lon="10.72522598901112"><ele>464.0</ele><time>2026-04-01T10:31:25Z</time></trkpt><trkpt lat="45.63753580088682" lon="10.725212802761988"><ele>464.0</ele><time>2026-04-01T10:31:28Z</time></trkpt><trkpt lat="45.63742755388106" lon="10.725190901205487"><ele>466.3333333333333</ele><time>2026-04-01T10:31:30Z</time></trkpt><trkpt lat="45.63731687283269" lon="10.725203423068958"><ele>468.66666666666663</ele><time>2026-04-01T10:31:32Z</time></trkpt><trkpt lat="45.637216843070206" lon="10.725250794312409"><ele>471.0</ele><time>2026-04-01T10:31:34Z</time></trkpt><trkpt lat="45.637155481245834" lon="10.725332773082643"><ele>473.33333333333337</ele><time>2026-04-01T10:31:36Z</time></trkpt><trkpt lat="45.637089456051285" lon="10.725398419393622"><ele>475.6666666666667</ele><time>2026-04-01T10:31:38Z</time></trkpt><trkpt lat="45.63702590717776" lon="10.725383001027742"><ele>478.0</ele><time>2026-04-01T10:31:40Z</time></trkpt><trkpt lat="45.636960397132626" lon="10.725395419671381"><ele>481.33333333333337</ele><time>2026-04-01T10:31:42Z</time></trkpt><trkpt lat="45.636887708837584" lon="10.725370316954702"><ele>484.6666666666667</ele><time>2026-04-01T10:31:54Z</time></trkpt><trkpt lat="45.636868743366094" lon="10.725215760938019"><ele>488.0</ele><time>2026-04-01T10:31:57Z</time></trkpt><trkpt lat="45.63682855841799" lon="10.725099650524722"><ele>491.33333333333337</ele><time>2026-04-01T10:31:59Z</time></trkpt><trkpt lat="45.636743620279965" lon="10.725106346912186"><ele>494.6666666666667</ele><time>2026-04-01T10:32:00.999Z</time></trkpt><trkpt lat="45.63667922795345" lon="10.725193473846232"><ele>498.0</ele><time>2026-04-01T10:32:02.999Z</time></trkpt><trkpt lat="45.636639260416935" lon="10.725327736578649"><ele>500.1666666666667</ele><time>2026-04-01T10:32:05.999Z</time></trkpt><trkpt lat="45.63661364291404" lon="10.725463384564698"><ele>502.33333333333337</ele><time>2026-04-01T10:32:07.999Z</time></trkpt><trkpt lat="45.63654407880403" lon="10.725535050247599"><ele>504.5</ele><time>2026-04-01T10:32:09.999Z</time></trkpt><trkpt lat="45.63648548532824" lon="10.725629095149353"><ele>506.6666666666667</ele><time>2026-04-01T10:32:11.999Z</time></trkpt><trkpt lat="45.63645351864896" lon="10.725722952187748"><ele>508.83333333333337</ele><time>2026-04-01T10:32:18.999Z</time></trkpt><trkpt lat="45.63642081036737" lon="10.72583176971597"><ele>511.0</ele><time>2026-04-01T10:32:20.999Z</time></trkpt><trkpt lat="45.63636940574643" lon="10.725890711907262"><ele>511.00000000000006</ele><time>2026-04-01T10:32:21.999Z</time></trkpt><trkpt lat="45.63627680153421" lon="10.725961509217141"><ele>511.0</ele><time>2026-04-01T10:32:23.999Z</time></trkpt><trkpt lat="45.636214670886" lon="10.725926167879775"><ele>511.0</ele><time>2026-04-01T10:32:26.999Z</time></trkpt><trkpt lat="45.63618752379676" lon="10.725812058093796"><ele>511.0</ele><time>2026-04-01T10:32:35.999Z</time></trkpt><trkpt lat="45.63611284490708" lon="10.725766121924224"><ele>511.00000000000006</ele><time>2026-04-01T10:32:38.999Z</time></trkpt><trkpt lat="45.63605906409717" lon="10.725714645759126"><ele>511.0</ele><time>2026-04-01T10:33:12.998Z</time></trkpt><trkpt lat="45.635975566535514" lon="10.725662975938334"><ele>515.0</ele><time>2026-04-01T10:33:44Z</time></trkpt><trkpt lat="45.63591250084719" lon="10.72565291090428"><ele>519.0</ele><time>2026-04-01T10:33:46Z</time></trkpt><trkpt lat="45.63592251056084" lon="10.72576039150901"><ele>523.0</ele><time>2026-04-01T10:33:56Z</time></trkpt><trkpt lat="45.63590634261369" lon="10.725876110372447"><ele>527.0</ele><time>2026-04-01T10:33:58Z</time></trkpt><trkpt lat="45.63586803879533" lon="10.726033393499927"><ele>531.0</ele><time>2026-04-01T10:39:04.999Z</time></trkpt><trkpt lat="45.63576761942433" lon="10.726154598836786"><ele>532.2</ele><time>2026-04-01T10:39:06.999Z</time></trkpt><trkpt lat="45.63567477519874" lon="10.726237572862848"><ele>533.4000000000001</ele><time>2026-04-01T10:39:08.999Z</time></trkpt><trkpt lat="45.63561661035501" lon="10.726311259316507"><ele>534.6</ele><time>2026-04-01T10:39:09.999Z</time></trkpt><trkpt lat="45.63554827771155" lon="10.726435119396982"><ele>535.8000000000001</ele><time>2026-04-01T10:39:10.999Z</time></trkpt><trkpt lat="45.63546034585867" lon="10.72652825952011"><ele>537.0</ele><time>2026-04-01T10:39:11.999Z</time></trkpt><trkpt lat="45.63536794607024" lon="10.726629502890132"><ele>540.0</ele><time>2026-04-01T10:39:12.999Z</time></trkpt><trkpt lat="45.63527691188171" lon="10.726719466543676"><ele>543.0</ele><time>2026-04-01T10:39:13.999Z</time></trkpt><trkpt lat="45.63519161630361" lon="10.72679645475118"><ele>546.0</ele><time>2026-04-01T10:39:14.999Z</time></trkpt><trkpt lat="45.635134449349145" lon="10.726863839993939"><ele>549.0</ele><time>2026-04-01T10:39:15.999Z</time></trkpt><trkpt lat="45.63506474848995" lon="10.726893847572114"><ele>552.0</ele><time>2026-04-01T10:39:16.999Z</time></trkpt><trkpt lat="45.634974494305546" lon="10.726881073261513"><ele>555.0</ele><time>2026-04-01T10:39:17.999Z</time></trkpt><trkpt lat="45.63489761153206" lon="10.726946657403733"><ele>555.1666666666666</ele><time>2026-04-01T10:39:18.999Z</time></trkpt><trkpt lat="45.63482560359707" lon="10.726995466007168"><ele>555.3333333333334</ele><time>2026-04-01T10:39:19.999Z</time></trkpt><trkpt lat="45.6347607733554" lon="10.727064617636696"><ele>555.5</ele><time>2026-04-01T10:39:20.999Z</time></trkpt><trkpt lat="45.634707087562475" lon="10.72712970755568"><ele>555.6666666666667</ele><time>2026-04-01T10:39:21.999Z</time></trkpt><trkpt lat="45.63465001991551" lon="10.727205479319736"><ele>555.8333333333334</ele><time>2026-04-01T10:39:22.999Z</time></trkpt><trkpt lat="45.63458899587504" lon="10.727275784814456"><ele>556.0</ele><time>2026-04-01T10:39:23.999Z</time></trkpt><trkpt lat="45.63453056134989" lon="10.727340298748443"><ele>556.0</ele><time>2026-04-01T10:39:24.999Z</time></trkpt><trkpt lat="45.63448853413609" lon="10.727421686779063"><ele>556.0</ele><time>2026-04-01T10:39:25.999Z</time></trkpt><trkpt lat="45.63445721283902" lon="10.727500338116352"><ele>556.0</ele><time>2026-04-01T10:39:26.999Z</time></trkpt><trkpt lat="45.63439672302852" lon="10.727657575124752"><ele>556.0</ele><time>2026-04-01T10:39:28.999Z</time></trkpt><trkpt lat="45.6343497065392" lon="10.727748340844505"><ele>556.0</ele><time>2026-04-01T10:39:29.999Z</time></trkpt><trkpt lat="45.634282637922894" lon="10.727800842414112"><ele>556.0</ele><time>2026-04-01T10:39:30.998Z</time></trkpt><trkpt lat="45.63419108045596" lon="10.727813636713911"><ele>558.5714285714286</ele><time>2026-04-01T10:39:31.998Z</time></trkpt><trkpt lat="45.63411940238482" lon="10.72780717431021"><ele>561.1428571428571</ele><time>2026-04-01T10:39:32.998Z</time></trkpt><trkpt lat="45.63404591782537" lon="10.727777402043161"><ele>563.7142857142858</ele><time>2026-04-01T10:39:33.998Z</time></trkpt><trkpt lat="45.63397083681302" lon="10.727742450682886"><ele>566.2857142857142</ele><time>2026-04-01T10:39:34.998Z</time></trkpt><trkpt lat="45.63390022222287" lon="10.727694909379391"><ele>568.8571428571429</ele><time>2026-04-01T10:39:36Z</time></trkpt><trkpt lat="45.63385182260044" lon="10.727635404267954"><ele>571.4285714285714</ele><time>2026-04-01T10:39:37Z</time></trkpt><trkpt lat="45.633816321436925" lon="10.727537002651882"><ele>574.0</ele><time>2026-04-01T10:39:38Z</time></trkpt><trkpt lat="45.63376264027619" lon="10.72744414544437"><ele>574.8333333333334</ele><time>2026-04-01T10:39:39Z</time></trkpt><trkpt lat="45.63371084857572" lon="10.72736532957643"><ele>575.6666666666667</ele><time>2026-04-01T10:39:40Z</time></trkpt><trkpt lat="45.63365901540616" lon="10.727298797519536"><ele>576.5</ele><time>2026-04-01T10:39:41Z</time></trkpt><trkpt lat="45.63357786033584" lon="10.727230517452703"><ele>577.3333333333334</ele><time>2026-04-01T10:39:43Z</time></trkpt><trkpt lat="45.63345801029086" lon="10.727234443871323"><ele>578.1666666666666</ele><time>2026-04-01T10:39:45Z</time></trkpt><trkpt lat="45.633397640550314" lon="10.727294757512471"><ele>579.0</ele><time>2026-04-01T10:39:46Z</time></trkpt><trkpt lat="45.63333898655563" lon="10.727336270163011"><ele>580.3333333333334</ele><time>2026-04-01T10:39:47Z</time></trkpt><trkpt lat="45.633267831810016" lon="10.727356214736457"><ele>581.6666666666666</ele><time>2026-04-01T10:39:48Z</time></trkpt><trkpt lat="45.63321130735384" lon="10.727424492816155"><ele>583.0</ele><time>2026-04-01T10:39:49Z</time></trkpt><trkpt lat="45.633119250658574" lon="10.727503233297789"><ele>584.3333333333333</ele><time>2026-04-01T10:39:51Z</time></trkpt><trkpt lat="45.6330399129455" lon="10.727546478738569"><ele>585.6666666666666</ele><time>2026-04-01T10:39:52Z</time></trkpt><trkpt lat="45.632961284055625" lon="10.727605953663424"><ele>587.0</ele><time>2026-04-01T10:39:53Z</time></trkpt><trkpt lat="45.63289918922002" lon="10.727652587754378"><ele>587.0</ele><time>2026-04-01T10:39:54Z</time></trkpt><trkpt lat="45.63282702702851" lon="10.727708701892373"><ele>587.0</ele><time>2026-04-01T10:39:55Z</time></trkpt><trkpt lat="45.632765772838724" lon="10.727750242895228"><ele>587.0</ele><time>2026-04-01T10:39:56Z</time></trkpt><trkpt lat="45.63268200912318" lon="10.727803912810508"><ele>587.0</ele><time>2026-04-01T10:39:58Z</time></trkpt><trkpt lat="45.63259405663093" lon="10.727861179785716"><ele>587.0</ele><time>2026-04-01T10:40:00Z</time></trkpt><trkpt lat="45.63254606392388" lon="10.727929163436615"><ele>587.0</ele><time>2026-04-01T10:40:02Z</time></trkpt><trkpt lat="45.63249385349857" lon="10.727988698975878"><ele>587.2</ele><time>2026-04-01T10:40:04Z</time></trkpt><trkpt lat="45.63240119982892" lon="10.728114768177125"><ele>587.4000000000001</ele><time>2026-04-01T10:40:06Z</time></trkpt><trkpt lat="45.63234121888482" lon="10.728186707394228"><ele>587.5999999999999</ele><time>2026-04-01T10:40:07Z</time></trkpt><trkpt lat="45.63227011691811" lon="10.728250485576106"><ele>587.8</ele><time>2026-04-01T10:40:08Z</time></trkpt><trkpt lat="45.63217741596395" lon="10.728274464827724"><ele>588.0</ele><time>2026-04-01T10:40:09Z</time></trkpt><trkpt lat="45.63208261450936" lon="10.728352112706403"><ele>588.0</ele><time>2026-04-01T10:40:10Z</time></trkpt><trkpt lat="45.632004817846756" lon="10.728413085576577"><ele>588.0</ele><time>2026-04-01T10:40:11Z</time></trkpt><trkpt lat="45.631930339868894" lon="10.728495396869281"><ele>588.0</ele><time>2026-04-01T10:40:12Z</time></trkpt><trkpt lat="45.63186209788422" lon="10.728617584730214"><ele>588.0</ele><time>2026-04-01T10:40:13Z</time></trkpt><trkpt lat="45.631786463006954" lon="10.728726215841514"><ele>588.0</ele><time>2026-04-01T10:40:14Z</time></trkpt><trkpt lat="45.63172984320869" lon="10.728806077373063"><ele>591.1666666666666</ele><time>2026-04-01T10:40:15Z</time></trkpt><trkpt lat="45.631685547043396" lon="10.72888235339247"><ele>594.3333333333334</ele><time>2026-04-01T10:40:16Z</time></trkpt><trkpt lat="45.631614811791735" lon="10.728960865129933"><ele>597.5</ele><time>2026-04-01T10:40:17Z</time></trkpt><trkpt lat="45.63154722214405" lon="10.729042312358208"><ele>600.6666666666667</ele><time>2026-04-01T10:40:18Z</time></trkpt><trkpt lat="45.631456823261935" lon="10.729117383467734"><ele>603.8333333333334</ele><time>2026-04-01T10:40:19Z</time></trkpt><trkpt lat="45.63138822340332" lon="10.729211754473342"><ele>607.0</ele><time>2026-04-01T10:40:20Z</time></trkpt><trkpt lat="45.6313135872248" lon="10.729293799306314"><ele>607.0</ele><time>2026-04-01T10:40:21Z</time></trkpt><trkpt lat="45.63122350013428" lon="10.729378096594198"><ele>607.0</ele><time>2026-04-01T10:40:22Z</time></trkpt><trkpt lat="45.63113104287031" lon="10.729485677957857"><ele>607.0</ele><time>2026-04-01T10:40:23Z</time></trkpt><trkpt lat="45.63103922556034" lon="10.729557079407982"><ele>607.0</ele><time>2026-04-01T10:40:23.999Z</time></trkpt><trkpt lat="45.63093453743321" lon="10.729618839711284"><ele>607.0</ele><time>2026-04-01T10:40:24.999Z</time></trkpt><trkpt lat="45.63081029241913" lon="10.729651943022363"><ele>609.2</ele><time>2026-04-01T10:40:25.999Z</time></trkpt><trkpt lat="45.630677382759146" lon="10.72968822939286"><ele>611.4000000000001</ele><time>2026-04-01T10:40:26.999Z</time></trkpt><trkpt lat="45.630564450053676" lon="10.729724351700954"><ele>613.5999999999999</ele><time>2026-04-01T10:40:27.999Z</time></trkpt><trkpt lat="45.630472233992414" lon="10.72975815080719"><ele>615.8</ele><time>2026-04-01T10:40:28.999Z</time></trkpt><trkpt lat="45.63038599477285" lon="10.729785063594472"><ele>618.0</ele><time>2026-04-01T10:40:29.999Z</time></trkpt><trkpt lat="45.63028175269541" lon="10.72981929689894"><ele>621.0</ele><time>2026-04-01T10:40:30.999Z</time></trkpt><trkpt lat="45.63016631769476" lon="10.729858500976144"><ele>624.0</ele><time>2026-04-01T10:40:31.999Z</time></trkpt><trkpt lat="45.630051113867324" lon="10.729905235019169"><ele>627.0</ele><time>2026-04-01T10:40:32.999Z</time></trkpt><trkpt lat="45.62995191795237" lon="10.729942087670429"><ele>630.0</ele><time>2026-04-01T10:40:33.999Z</time></trkpt><trkpt lat="45.629854681682055" lon="10.729976653717175"><ele>633.0</ele><time>2026-04-01T10:40:34.999Z</time></trkpt><trkpt lat="45.629745902787576" lon="10.730014192586314"><ele>633.0</ele><time>2026-04-01T10:40:35.999Z</time></trkpt><trkpt lat="45.62963910039955" lon="10.73004392626706"><ele>633.0</ele><time>2026-04-01T10:40:36.999Z</time></trkpt><trkpt lat="45.62956163327073" lon="10.730026249861853"><ele>633.0</ele><time>2026-04-01T10:40:37.999Z</time></trkpt><trkpt lat="45.629487665598795" lon="10.730023938878627"><ele>633.0</ele><time>2026-04-01T10:40:38.999Z</time></trkpt><trkpt lat="45.62940345843068" lon="10.730000076576477"><ele>633.0</ele><time>2026-04-01T10:40:39.999Z</time></trkpt><trkpt lat="45.62933972581602" lon="10.730041167018543"><ele>633.0</ele><time>2026-04-01T10:40:40.999Z</time></trkpt><trkpt lat="45.62922416002318" lon="10.730108477261739"><ele>634.3333333333334</ele><time>2026-04-01T10:40:42.999Z</time></trkpt><trkpt lat="45.629163012326956" lon="10.73017864861967"><ele>635.6666666666666</ele><time>2026-04-01T10:40:43.999Z</time></trkpt><trkpt lat="45.6290893186956" lon="10.730251407394675"><ele>637.0</ele><time>2026-04-01T10:40:44.999Z</time></trkpt><trkpt lat="45.62901320619957" lon="10.730326590325763"><ele>638.3333333333333</ele><time>2026-04-01T10:40:45.999Z</time></trkpt><trkpt lat="45.62892623118432" lon="10.730348199855783"><ele>639.6666666666666</ele><time>2026-04-01T10:40:46.999Z</time></trkpt><trkpt lat="45.628861139506405" lon="10.730398860727787"><ele>641.0</ele><time>2026-04-01T10:40:47.999Z</time></trkpt><trkpt lat="45.628796197224524" lon="10.73044940528768"><ele>641.0</ele><time>2026-04-01T10:40:48.999Z</time></trkpt><trkpt lat="45.62871885160522" lon="10.730524160177008"><ele>641.0</ele><time>2026-04-01T10:40:49.999Z</time></trkpt><trkpt lat="45.62863525798591" lon="10.730625691730621"><ele>641.0</ele><time>2026-04-01T10:40:50.999Z</time></trkpt><trkpt lat="45.628569405878444" lon="10.730727381288483"><ele>641.0</ele><time>2026-04-01T10:40:51.999Z</time></trkpt><trkpt lat="45.62851948465296" lon="10.73080515454894"><ele>641.0</ele><time>2026-04-01T10:40:52.999Z</time></trkpt><trkpt lat="45.62846237543786" lon="10.730902692861427"><ele>642.5999999999999</ele><time>2026-04-01T10:40:54.999Z</time></trkpt><trkpt lat="45.628396064676416" lon="10.731020478346013"><ele>644.2</ele><time>2026-04-01T10:40:56.999Z</time></trkpt><trkpt lat="45.628363041664024" lon="10.731113406450262"><ele>645.8</ele><time>2026-04-01T10:40:57.999Z</time></trkpt><trkpt lat="45.628298287807105" lon="10.731207171232874"><ele>647.4000000000001</ele><time>2026-04-01T10:40:58.999Z</time></trkpt><trkpt lat="45.62827751772758" lon="10.731344443192251"><ele>649.0</ele><time>2026-04-01T10:40:59.999Z</time></trkpt><trkpt lat="45.628254654283694" lon="10.731500201380944"><ele>649.4000000000001</ele><time>2026-04-01T10:41:00.999Z</time></trkpt><trkpt lat="45.62822540646026" lon="10.73163837042906"><ele>649.8</ele><time>2026-04-01T10:41:01.999Z</time></trkpt><trkpt lat="45.62817846710196" lon="10.73177269210506"><ele>650.2</ele><time>2026-04-01T10:41:02.999Z</time></trkpt><trkpt lat="45.62813280533009" lon="10.731880398624174"><ele>650.5999999999999</ele><time>2026-04-01T10:41:03.999Z</time></trkpt><trkpt lat="45.62808255142523" lon="10.731990818983563"><ele>651.0</ele><time>2026-04-01T10:41:04.999Z</time></trkpt><trkpt lat="45.6280230075448" lon="10.732103036015122"><ele>651.6666666666666</ele><time>2026-04-01T10:41:05.999Z</time></trkpt><trkpt lat="45.6279697118487" lon="10.732194751690976"><ele>652.3333333333334</ele><time>2026-04-01T10:41:06.999Z</time></trkpt><trkpt lat="45.62791711587304" lon="10.732295006044055"><ele>653.0</ele><time>2026-04-01T10:41:07.999Z</time></trkpt><trkpt lat="45.627872904585374" lon="10.732398800948292"><ele>653.6666666666667</ele><time>2026-04-01T10:41:08.999Z</time></trkpt><trkpt lat="45.62783917642424" lon="10.732509206173912"><ele>654.3333333333334</ele><time>2026-04-01T10:41:09.999Z</time></trkpt><trkpt lat="45.62781144759494" lon="10.732609758143626"><ele>655.0</ele><time>2026-04-01T10:41:10.999Z</time></trkpt><trkpt lat="45.62777835993393" lon="10.732712474807924"><ele>659.1666666666667</ele><time>2026-04-01T10:41:11.999Z</time></trkpt><trkpt lat="45.62773139229531" lon="10.732820766150423"><ele>663.3333333333334</ele><time>2026-04-01T10:41:12.999Z</time></trkpt><trkpt lat="45.627664691348436" lon="10.732923521836605"><ele>667.5</ele><time>2026-04-01T10:41:13.999Z</time></trkpt><trkpt lat="45.627591933759334" lon="10.733011637469142"><ele>671.6666666666666</ele><time>2026-04-01T10:41:14.999Z</time></trkpt><trkpt lat="45.62752290920184" lon="10.73307867225605"><ele>675.8333333333333</ele><time>2026-04-01T10:41:15.999Z</time></trkpt><trkpt lat="45.62745805135449" lon="10.73313744487373"><ele>680.0</ele><time>2026-04-01T10:41:16.999Z</time></trkpt><trkpt lat="45.62738966008454" lon="10.733200732884521"><ele>680.0</ele><time>2026-04-01T10:41:17.999Z</time></trkpt><trkpt lat="45.62733383027774" lon="10.733257305774377"><ele>680.0</ele><time>2026-04-01T10:41:18.999Z</time></trkpt><trkpt lat="45.627269213358566" lon="10.733288878060721"><ele>680.0</ele><time>2026-04-01T10:41:19.999Z</time></trkpt><trkpt lat="45.62719171141616" lon="10.73336800059662"><ele>680.0</ele><time>2026-04-01T10:41:21.999Z</time></trkpt><trkpt lat="45.62713771803536" lon="10.733552268075394"><ele>680.0</ele><time>2026-04-01T10:41:23.999Z</time></trkpt><trkpt lat="45.6271029949556" lon="10.73364951957919"><ele>680.0</ele><time>2026-04-01T10:41:24.999Z</time></trkpt><trkpt lat="45.62708627987356" lon="10.733756736936526"><ele>681.8333333333333</ele><time>2026-04-01T10:41:25.999Z</time></trkpt><trkpt lat="45.62707692550134" lon="10.733872699316988"><ele>683.6666666666666</ele><time>2026-04-01T10:41:26.999Z</time></trkpt><trkpt lat="45.627051305084464" lon="10.733998268107538"><ele>685.5</ele><time>2026-04-01T10:41:27.999Z</time></trkpt><trkpt lat="45.626998577675586" lon="10.734091201594394"><ele>687.3333333333334</ele><time>2026-04-01T10:41:28.999Z</time></trkpt><trkpt lat="45.62695793683631" lon="10.734175884965008"><ele>689.1666666666667</ele><time>2026-04-01T10:41:29.999Z</time></trkpt><trkpt lat="45.6269134329791" lon="10.734242798738467"><ele>691.0</ele><time>2026-04-01T10:41:30.999Z</time></trkpt><trkpt lat="45.626826397220725" lon="10.734372498708158"><ele>693.5999999999999</ele><time>2026-04-01T10:41:32.999Z</time></trkpt><trkpt lat="45.62673381357054" lon="10.734489933240159"><ele>696.2</ele><time>2026-04-01T10:41:34.998Z</time></trkpt><trkpt lat="45.626686526807504" lon="10.734554006465483"><ele>698.8</ele><time>2026-04-01T10:41:35.998Z</time></trkpt><trkpt lat="45.62660290459054" lon="10.734667148404398"><ele>701.4000000000001</ele><time>2026-04-01T10:41:37.998Z</time></trkpt><trkpt lat="45.62654015516675" lon="10.73477829685524"><ele>704.0</ele><time>2026-04-01T10:41:39.998Z</time></trkpt><trkpt lat="45.62632936819014" lon="10.735345736734029"><ele>709.0</ele><time>2026-04-01T10:41:40.998Z</time></trkpt><trkpt lat="45.62640899539599" lon="10.735645891765852"><ele>709.0</ele><time>2026-04-01T10:41:42Z</time></trkpt></trkseg><trkseg><trkpt lat="45.63135403885785" lon="10.757222015419428"><ele>702.0000000000001</ele><time>2026-04-01T12:02:14.999Z</time></trkpt><trkpt lat="45.63142506176049" lon="10.757230210324847"><ele>702.0</ele><time>2026-04-01T12:02:17.999Z</time></trkpt><trkpt lat="45.63144514319034" lon="10.757101025972737"><ele>702.0</ele><time>2026-04-01T12:02:50Z</time></trkpt><trkpt lat="45.6314415972471" lon="10.756994204054557"><ele>702.0</ele><time>2026-04-01T12:02:54Z</time></trkpt><trkpt lat="45.63143929779303" lon="10.756901365852936"><ele>702.0</ele><time>2026-04-01T12:03:00Z</time></trkpt><trkpt lat="45.63149945787228" lon="10.75683845575624"><ele>702.0000000000001</ele><time>2026-04-01T12:03:02Z</time></trkpt><trkpt lat="45.631563666280506" lon="10.756822731802465"><ele>702.0</ele><time>2026-04-01T12:03:03Z</time></trkpt><trkpt lat="45.63163910310691" lon="10.756805051126173"><ele>701.8</ele><time>2026-04-01T12:03:04Z</time></trkpt><trkpt lat="45.631731173885946" lon="10.756774718638416"><ele>701.6</ele><time>2026-04-01T12:03:05Z</time></trkpt><trkpt lat="45.63182652528457" lon="10.756724552320234"><ele>701.4</ele><time>2026-04-01T12:03:06Z</time></trkpt><trkpt lat="45.631926903943615" lon="10.756677061629357"><ele>701.1999999999999</ele><time>2026-04-01T12:03:07Z</time></trkpt><trkpt lat="45.63203040587255" lon="10.756618420547124"><ele>701.0</ele><time>2026-04-01T12:03:08Z</time></trkpt><trkpt lat="45.63214118018211" lon="10.756555034514648"><ele>701.0</ele><time>2026-04-01T12:03:09Z</time></trkpt><trkpt lat="45.6322522312302" lon="10.756491800016573"><ele>701.0</ele><time>2026-04-01T12:03:10Z</time></trkpt><trkpt lat="45.632343416725796" lon="10.756444529243677"><ele>701.0</ele><time>2026-04-01T12:03:11Z</time></trkpt><trkpt lat="45.632425377815984" lon="10.756401320176426"><ele>701.0</ele><time>2026-04-01T12:03:12Z</time></trkpt><trkpt lat="45.63250075659648" lon="10.75635811748243"><ele>701.0</ele><time>2026-04-01T12:03:13Z</time></trkpt><trkpt lat="45.632591171545926" lon="10.756314556867006"><ele>701.0</ele><time>2026-04-01T12:03:14Z</time></trkpt><trkpt lat="45.63268968920622" lon="10.756264707694033"><ele>701.0</ele><time>2026-04-01T12:03:15Z</time></trkpt><trkpt lat="45.632777782074776" lon="10.756220166368127"><ele>701.0</ele><time>2026-04-01T12:03:16Z</time></trkpt><trkpt lat="45.6328688575138" lon="10.756178107243512"><ele>701.0</ele><time>2026-04-01T12:03:17Z</time></trkpt><trkpt lat="45.63296140497584" lon="10.756139049655648"><ele>701.0</ele><time>2026-04-01T12:03:18Z</time></trkpt><trkpt lat="45.63305325725054" lon="10.756100519704102"><ele>701.0</ele><time>2026-04-01T12:03:19Z</time></trkpt><trkpt lat="45.63313779708557" lon="10.756061119661323"><ele>701.0</ele><time>2026-04-01T12:03:20Z</time></trkpt><trkpt lat="45.6332211926317" lon="10.75601843635636"><ele>701.0</ele><time>2026-04-01T12:03:21Z</time></trkpt><trkpt lat="45.63330762623782" lon="10.755971295018085"><ele>701.0</ele><time>2026-04-01T12:03:22Z</time></trkpt><trkpt lat="45.6333953499081" lon="10.755923712014752"><ele>701.0</ele><time>2026-04-01T12:03:22.999Z</time></trkpt><trkpt lat="45.633483007776334" lon="10.755873708995262"><ele>700.8</ele><time>2026-04-01T12:03:23.999Z</time></trkpt><trkpt lat="45.633572715869924" lon="10.75582228711315"><ele>700.5999999999999</ele><time>2026-04-01T12:03:24.999Z</time></trkpt><trkpt lat="45.633661656975285" lon="10.755778468552947"><ele>700.4</ele><time>2026-04-01T12:03:25.999Z</time></trkpt><trkpt lat="45.63375297376534" lon="10.755732953369181"><ele>700.2</ele><time>2026-04-01T12:03:26.999Z</time></trkpt><trkpt lat="45.633839118940905" lon="10.755690611508829"><ele>700.0</ele><time>2026-04-01T12:03:27.999Z</time></trkpt><trkpt lat="45.63392048685242" lon="10.755645115990202"><ele>700.0</ele><time>2026-04-01T12:03:28.999Z</time></trkpt><trkpt lat="45.63400208729483" lon="10.755600414265425"><ele>700.0</ele><time>2026-04-01T12:03:29.999Z</time></trkpt><trkpt lat="45.63409486605179" lon="10.755552406748782"><ele>700.0</ele><time>2026-04-01T12:03:30.999Z</time></trkpt><trkpt lat="45.634184937389904" lon="10.755504837002405"><ele>700.0</ele><time>2026-04-01T12:03:31.999Z</time></trkpt><trkpt lat="45.63427195647403" lon="10.755461083490674"><ele>700.0</ele><time>2026-04-01T12:03:32.999Z</time></trkpt><trkpt lat="45.634368010497354" lon="10.755414093249932"><ele>700.0</ele><time>2026-04-01T12:03:33.999Z</time></trkpt><trkpt lat="45.63445895847417" lon="10.755367724396894"><ele>700.0</ele><time>2026-04-01T12:03:34.999Z</time></trkpt><trkpt lat="45.634545317473766" lon="10.75532769131558"><ele>700.0</ele><time>2026-04-01T12:03:35.999Z</time></trkpt><trkpt lat="45.63463952968216" lon="10.755285807345096"><ele>700.0</ele><time>2026-04-01T12:03:36.999Z</time></trkpt><trkpt lat="45.634740957111546" lon="10.755242717123874"><ele>700.0</ele><time>2026-04-01T12:03:37.999Z</time></trkpt><trkpt lat="45.634836758795394" lon="10.755198950514464"><ele>700.25</ele><time>2026-04-01T12:03:38.999Z</time></trkpt><trkpt lat="45.63493314225945" lon="10.755159588282746"><ele>700.5</ele><time>2026-04-01T12:03:39.999Z</time></trkpt><trkpt lat="45.63504503346071" lon="10.755119149396297"><ele>700.75</ele><time>2026-04-01T12:03:40.999Z</time></trkpt><trkpt lat="45.635166037949546" lon="10.755070794178485"><ele>701.0</ele><time>2026-04-01T12:03:41.999Z</time></trkpt><trkpt lat="45.6352768814885" lon="10.755024382110639"><ele>702.75</ele><time>2026-04-01T12:03:42.999Z</time></trkpt><trkpt lat="45.63539731655768" lon="10.754975148358593"><ele>704.5</ele><time>2026-04-01T12:03:43.999Z</time></trkpt><trkpt lat="45.635535449580836" lon="10.75491160278107"><ele>706.25</ele><time>2026-04-01T12:03:44.999Z</time></trkpt><trkpt lat="45.63564769810848" lon="10.754856151595472"><ele>708.0</ele><time>2026-04-01T12:03:45.999Z</time></trkpt><trkpt lat="45.63574758050435" lon="10.754808173831783"><ele>708.0</ele><time>2026-04-01T12:03:46.999Z</time></trkpt><trkpt lat="45.63584543512145" lon="10.75477949517131"><ele>708.0</ele><time>2026-04-01T12:03:47.999Z</time></trkpt><trkpt lat="45.635957718351996" lon="10.754752643744643"><ele>708.0</ele><time>2026-04-01T12:03:48.999Z</time></trkpt><trkpt lat="45.6360851301909" lon="10.754728811252818"><ele>708.0</ele><time>2026-04-01T12:03:49.999Z</time></trkpt><trkpt lat="45.63622826715507" lon="10.75471604229689"><ele>711.6666666666666</ele><time>2026-04-01T12:03:50.999Z</time></trkpt><trkpt lat="45.63639319714503" lon="10.754722944417592"><ele>715.3333333333333</ele><time>2026-04-01T12:03:51.999Z</time></trkpt><trkpt lat="45.636561185680804" lon="10.754732053445837"><ele>719.0</ele><time>2026-04-01T12:03:52.999Z</time></trkpt><trkpt lat="45.63671094975255" lon="10.754732721772546"><ele>719.0</ele><time>2026-04-01T12:03:53.999Z</time></trkpt><trkpt lat="45.63685400335134" lon="10.754726699040956"><ele>719.0</ele><time>2026-04-01T12:03:54.999Z</time></trkpt><trkpt lat="45.63698910761305" lon="10.7547282635937"><ele>719.0</ele><time>2026-04-01T12:03:55.999Z</time></trkpt><trkpt lat="45.63711835011202" lon="10.75471059944368"><ele>719.0</ele><time>2026-04-01T12:03:56.999Z</time></trkpt><trkpt lat="45.637240846525664" lon="10.754674754489093"><ele>722.0</ele><time>2026-04-01T12:03:57.999Z</time></trkpt><trkpt lat="45.63736690994728" lon="10.754652263078743"><ele>725.0</ele><time>2026-04-01T12:03:58.999Z</time></trkpt><trkpt lat="45.63749722508818" lon="10.754630542534183"><ele>728.0</ele><time>2026-04-01T12:03:59.999Z</time></trkpt><trkpt lat="45.63762450601583" lon="10.75461136521088"><ele>731.0</ele><time>2026-04-01T12:04:00.999Z</time></trkpt><trkpt lat="45.637766264527734" lon="10.754624452513665"><ele>732.25</ele><time>2026-04-01T12:04:01.999Z</time></trkpt><trkpt lat="45.63790545211961" lon="10.75462731820131"><ele>733.5</ele><time>2026-04-01T12:04:02.999Z</time></trkpt><trkpt lat="45.63804114298715" lon="10.754623249037467"><ele>734.75</ele><time>2026-04-01T12:04:03.999Z</time></trkpt><trkpt lat="45.6381754008001" lon="10.75462156037901"><ele>736.0</ele><time>2026-04-01T12:04:04.999Z</time></trkpt><trkpt lat="45.63830431277277" lon="10.754634400748616"><ele>736.0</ele><time>2026-04-01T12:04:05.999Z</time></trkpt><trkpt lat="45.638431821153596" lon="10.754649411254734"><ele>736.0</ele><time>2026-04-01T12:04:06.999Z</time></trkpt><trkpt lat="45.6385583414626" lon="10.754657262778764"><ele>736.0</ele><time>2026-04-01T12:04:07.999Z</time></trkpt><trkpt lat="45.638680096069535" lon="10.75464611285348"><ele>736.0</ele><time>2026-04-01T12:04:08.999Z</time></trkpt><trkpt lat="45.63880292316382" lon="10.754617730233775"><ele>737.25</ele><time>2026-04-01T12:04:09.999Z</time></trkpt><trkpt lat="45.63892147286366" lon="10.754565023083238"><ele>738.5</ele><time>2026-04-01T12:04:10.999Z</time></trkpt><trkpt lat="45.63903215116552" lon="10.754496132724462"><ele>739.75</ele><time>2026-04-01T12:04:11.999Z</time></trkpt><trkpt lat="45.63915036542333" lon="10.754452010110901"><ele>741.0</ele><time>2026-04-01T12:04:12.999Z</time></trkpt><trkpt lat="45.63927188929525" lon="10.754484729796426"><ele>741.0</ele><time>2026-04-01T12:04:13.999Z</time></trkpt><trkpt lat="45.639394908814765" lon="10.7545609613498"><ele>741.0</ele><time>2026-04-01T12:04:14.999Z</time></trkpt><trkpt lat="45.63951985163077" lon="10.754627243343357"><ele>741.0</ele><time>2026-04-01T12:04:15.999Z</time></trkpt><trkpt lat="45.63964615803758" lon="10.754655292568634"><ele>741.0</ele><time>2026-04-01T12:04:16.999Z</time></trkpt><trkpt lat="45.639769619436755" lon="10.754654004065037"><ele>742.5</ele><time>2026-04-01T12:04:17.999Z</time></trkpt><trkpt lat="45.63989014336864" lon="10.75464963239127"><ele>744.0</ele><time>2026-04-01T12:04:18.999Z</time></trkpt><trkpt lat="45.64000870868436" lon="10.754646618260177"><ele>745.5</ele><time>2026-04-01T12:04:19.999Z</time></trkpt><trkpt lat="45.6401223923308" lon="10.75463975407479"><ele>747.0</ele><time>2026-04-01T12:04:20.999Z</time></trkpt><trkpt lat="45.640228542421696" lon="10.754614938602412"><ele>747.0</ele><time>2026-04-01T12:04:21.999Z</time></trkpt><trkpt lat="45.640337598114655" lon="10.75458649495365"><ele>747.0</ele><time>2026-04-01T12:04:22.999Z</time></trkpt><trkpt lat="45.64045432153165" lon="10.754580618090468"><ele>747.0</ele><time>2026-04-01T12:04:23.999Z</time></trkpt><trkpt lat="45.64056752030659" lon="10.754600584475554"><ele>747.0</ele><time>2026-04-01T12:04:24.999Z</time></trkpt><trkpt lat="45.64067731382316" lon="10.754651349444089"><ele>747.0</ele><time>2026-04-01T12:04:25.999Z</time></trkpt><trkpt lat="45.64078935983138" lon="10.754721431634197"><ele>747.0</ele><time>2026-04-01T12:04:26.999Z</time></trkpt><trkpt lat="45.6408957421716" lon="10.754806708607001"><ele>747.0</ele><time>2026-04-01T12:04:27.999Z</time></trkpt><trkpt lat="45.64099327721112" lon="10.75490058869329"><ele>747.0</ele><time>2026-04-01T12:04:28.999Z</time></trkpt><trkpt lat="45.64106882921283" lon="10.75499829695261"><ele>748.8333333333334</ele><time>2026-04-01T12:04:29.999Z</time></trkpt><trkpt lat="45.64113918435065" lon="10.755067959916184"><ele>750.6666666666666</ele><time>2026-04-01T12:04:30.999Z</time></trkpt><trkpt lat="45.64120873069904" lon="10.755122899890464"><ele>752.5</ele><time>2026-04-01T12:04:31.999Z</time></trkpt><trkpt lat="45.64127927359031" lon="10.75516542176582"><ele>754.3333333333333</ele><time>2026-04-01T12:04:32.999Z</time></trkpt><trkpt lat="45.64137200781387" lon="10.755245122330015"><ele>756.1666666666666</ele><time>2026-04-01T12:04:34.999Z</time></trkpt><trkpt lat="45.64136820879681" lon="10.75536364149842"><ele>758.0</ele><time>2026-04-01T12:04:37Z</time></trkpt><trkpt lat="45.641323950346845" lon="10.755433467566201"><ele>759.1666666666666</ele><time>2026-04-01T12:04:39Z</time></trkpt><trkpt lat="45.64124479076262" lon="10.755417504457101"><ele>760.3333333333333</ele><time>2026-04-01T12:04:41Z</time></trkpt><trkpt lat="45.6411591809359" lon="10.755474789323504"><ele>761.5</ele><time>2026-04-01T12:04:42Z</time></trkpt><trkpt lat="45.64106823760339" lon="10.755474082607297"><ele>762.6666666666666</ele><time>2026-04-01T12:04:43Z</time></trkpt><trkpt lat="45.64097927504137" lon="10.755458656259202"><ele>763.8333333333334</ele><time>2026-04-01T12:04:44Z</time></trkpt><trkpt lat="45.64090637104691" lon="10.755473380162648"><ele>765.0</ele><time>2026-04-01T12:04:45Z</time></trkpt><trkpt lat="45.6408367418402" lon="10.755535232128988"><ele>765.0</ele><time>2026-04-01T12:04:46Z</time></trkpt><trkpt lat="45.64077832025401" lon="10.755609541175446"><ele>765.0</ele><time>2026-04-01T12:04:47Z</time></trkpt><trkpt lat="45.64070895715897" lon="10.755682337779838"><ele>765.0</ele><time>2026-04-01T12:04:48Z</time></trkpt><trkpt lat="45.64066422644255" lon="10.755771354965411"><ele>765.0</ele><time>2026-04-01T12:04:49Z</time></trkpt><trkpt lat="45.640645758963" lon="10.755862999277523"><ele>765.0</ele><time>2026-04-01T12:04:50Z</time></trkpt><trkpt lat="45.64060266800119" lon="10.75597104696795"><ele>765.0</ele><time>2026-04-01T12:04:51Z</time></trkpt><trkpt lat="45.64055285658969" lon="10.756068248301577"><ele>769.0</ele><time>2026-04-01T12:04:52Z</time></trkpt><trkpt lat="45.64050495428948" lon="10.756192127928218"><ele>773.0</ele><time>2026-04-01T12:04:53Z</time></trkpt><trkpt lat="45.640468187225814" lon="10.756304926301613"><ele>777.0</ele><time>2026-04-01T12:04:54Z</time></trkpt><trkpt lat="45.64043864821854" lon="10.756437191675966"><ele>781.0</ele><time>2026-04-01T12:04:56Z</time></trkpt><trkpt lat="45.64039782339569" lon="10.756597055280281"><ele>785.0</ele><time>2026-04-01T12:04:57Z</time></trkpt><trkpt lat="45.6403838435852" lon="10.756701851992302"><ele>785.0</ele><time>2026-04-01T12:04:58Z</time></trkpt><trkpt lat="45.640328470242935" lon="10.756808198614445"><ele>785.0</ele><time>2026-04-01T12:04:59Z</time></trkpt><trkpt lat="45.64025592867695" lon="10.756891945943169"><ele>785.0</ele><time>2026-04-01T12:05:01Z</time></trkpt><trkpt lat="45.640197125952106" lon="10.756979476534093"><ele>785.0</ele><time>2026-04-01T12:05:03Z</time></trkpt><trkpt lat="45.64011954789317" lon="10.757080451652381"><ele>785.0</ele><time>2026-04-01T12:05:05Z</time></trkpt><trkpt lat="45.640057156338166" lon="10.757181536854485"><ele>788.1666666666667</ele><time>2026-04-01T12:05:07Z</time></trkpt><trkpt lat="45.63999327687302" lon="10.757201473440803"><ele>791.3333333333334</ele><time>2026-04-01T12:05:08Z</time></trkpt><trkpt lat="45.63990012118191" lon="10.757192333109833"><ele>794.5</ele><time>2026-04-01T12:05:10Z</time></trkpt><trkpt lat="45.63983303551049" lon="10.757167424313966"><ele>797.6666666666667</ele><time>2026-04-01T12:05:11Z</time></trkpt><trkpt lat="45.63975138505682" lon="10.757161627889806"><ele>800.8333333333334</ele><time>2026-04-01T12:05:12Z</time></trkpt><trkpt lat="45.63967487388314" lon="10.757193989779047"><ele>804.0</ele><time>2026-04-01T12:05:13Z</time></trkpt><trkpt lat="45.639597850679934" lon="10.757250910297293"><ele>804.0</ele><time>2026-04-01T12:05:14Z</time></trkpt><trkpt lat="45.6395165424642" lon="10.757293128607468"><ele>804.0</ele><time>2026-04-01T12:05:15Z</time></trkpt><trkpt lat="45.63942927431528" lon="10.757335244803631"><ele>804.0</ele><time>2026-04-01T12:05:16Z</time></trkpt><trkpt lat="45.63934261511791" lon="10.757407287793086"><ele>804.0</ele><time>2026-04-01T12:05:17Z</time></trkpt><trkpt lat="45.639266789028916" lon="10.757492084913343"><ele>804.0</ele><time>2026-04-01T12:05:18Z</time></trkpt><trkpt lat="45.639190922097754" lon="10.757564969507293"><ele>804.5</ele><time>2026-04-01T12:05:19Z</time></trkpt><trkpt lat="45.639132957009174" lon="10.757621178565957"><ele>805.0</ele><time>2026-04-01T12:05:20Z</time></trkpt><trkpt lat="45.6390655391281" lon="10.757697570276694"><ele>805.5</ele><time>2026-04-01T12:05:21Z</time></trkpt><trkpt lat="45.63898803627845" lon="10.757773264920894"><ele>806.0</ele><time>2026-04-01T12:05:22Z</time></trkpt><trkpt lat="45.63892373596892" lon="10.757831755439655"><ele>806.5</ele><time>2026-04-01T12:05:22.999Z</time></trkpt><trkpt lat="45.63886451567835" lon="10.757894865754867"><ele>807.0</ele><time>2026-04-01T12:05:23.999Z</time></trkpt><trkpt lat="45.63879233226135" lon="10.757973448952253"><ele>811.1666666666666</ele><time>2026-04-01T12:05:24.999Z</time></trkpt><trkpt lat="45.638710327816376" lon="10.758021708523716"><ele>815.3333333333333</ele><time>2026-04-01T12:05:25.999Z</time></trkpt><trkpt lat="45.63863273461606" lon="10.758063196742391"><ele>819.5</ele><time>2026-04-01T12:05:26.999Z</time></trkpt><trkpt lat="45.63853926292419" lon="10.75811571682549"><ele>823.6666666666666</ele><time>2026-04-01T12:05:28.999Z</time></trkpt><trkpt lat="45.63847988788629" lon="10.75818417061325"><ele>827.8333333333333</ele><time>2026-04-01T12:05:29.999Z</time></trkpt><trkpt lat="45.63843447004109" lon="10.758283111662095"><ele>832.0</ele><time>2026-04-01T12:05:30.999Z</time></trkpt><trkpt lat="45.63835267867007" lon="10.758373448175844"><ele>832.2</ele><time>2026-04-01T12:05:31.999Z</time></trkpt><trkpt lat="45.63828876847599" lon="10.758457951824836"><ele>832.4000000000001</ele><time>2026-04-01T12:05:32.999Z</time></trkpt><trkpt lat="45.63822298314037" lon="10.758540261394112"><ele>832.5999999999999</ele><time>2026-04-01T12:05:33.999Z</time></trkpt><trkpt lat="45.638172032203904" lon="10.758630085963313"><ele>832.8</ele><time>2026-04-01T12:05:34.999Z</time></trkpt><trkpt lat="45.638115829292936" lon="10.758742160435109"><ele>833.0</ele><time>2026-04-01T12:05:35.999Z</time></trkpt><trkpt lat="45.638024500649934" lon="10.758877020923448"><ele>834.8333333333334</ele><time>2026-04-01T12:05:37.999Z</time></trkpt><trkpt lat="45.637948508297015" lon="10.758965881356845"><ele>836.6666666666667</ele><time>2026-04-01T12:05:38.999Z</time></trkpt><trkpt lat="45.63789038460048" lon="10.759045149292305"><ele>838.5</ele><time>2026-04-01T12:05:39.999Z</time></trkpt><trkpt lat="45.637832716229454" lon="10.759110672182455"><ele>840.3333333333333</ele><time>2026-04-01T12:05:40.999Z</time></trkpt><trkpt lat="45.637798457377954" lon="10.75923477376472"><ele>842.1666666666666</ele><time>2026-04-01T12:05:42.999Z</time></trkpt><trkpt lat="45.637784555220804" lon="10.759329255057692"><ele>844.0</ele><time>2026-04-01T12:05:43.999Z</time></trkpt><trkpt lat="45.63776878196588" lon="10.759430718368462"><ele>847.9999999999999</ele><time>2026-04-01T12:05:44.999Z</time></trkpt><trkpt lat="45.637731388969264" lon="10.759508263758258"><ele>852.0</ele><time>2026-04-01T12:05:45.999Z</time></trkpt><trkpt lat="45.63769144044304" lon="10.759583390803188"><ele>856.0</ele><time>2026-04-01T12:05:46.999Z</time></trkpt><trkpt lat="45.637657407192165" lon="10.759681958401185"><ele>860.0</ele><time>2026-04-01T12:05:47.999Z</time></trkpt><trkpt lat="45.63762598321421" lon="10.759780967262026"><ele>863.9999999999999</ele><time>2026-04-01T12:05:48.999Z</time></trkpt><trkpt lat="45.637608426121616" lon="10.759972015526593"><ele>868.0</ele><time>2026-04-01T12:05:50.999Z</time></trkpt><trkpt lat="45.63762485135044" lon="10.760104287969744"><ele>871.0</ele><time>2026-04-01T12:05:52.999Z</time></trkpt><trkpt lat="45.63769063796025" lon="10.760268776522645"><ele>874.0</ele><time>2026-04-01T12:05:54.999Z</time></trkpt><trkpt lat="45.63771387301254" lon="10.760365564048568"><ele>877.0</ele><time>2026-04-01T12:05:55.999Z</time></trkpt><trkpt lat="45.637672179337606" lon="10.76051561160637"><ele>880.0</ele><time>2026-04-01T12:05:57.999Z</time></trkpt><trkpt lat="45.63764765540856" lon="10.760615689091988"><ele>883.0</ele><time>2026-04-01T12:05:59.999Z</time></trkpt><trkpt lat="45.637687886117995" lon="10.76078348462632"><ele>882.9999999999999</ele><time>2026-04-01T12:06:01.999Z</time></trkpt><trkpt lat="45.637714480607954" lon="10.760876460675291"><ele>883.0</ele><time>2026-04-01T12:06:02.999Z</time></trkpt><trkpt lat="45.63775499078314" lon="10.760970033034862"><ele>883.0</ele><time>2026-04-01T12:06:03.999Z</time></trkpt><trkpt lat="45.63777491165148" lon="10.761057619022662"><ele>883.0</ele><time>2026-04-01T12:06:04.999Z</time></trkpt><trkpt lat="45.637817752253014" lon="10.761191777799812"><ele>882.9999999999999</ele><time>2026-04-01T12:06:05.999Z</time></trkpt><trkpt lat="45.637837668311825" lon="10.761310940792482"><ele>883.0</ele><time>2026-04-01T12:06:06.999Z</time></trkpt><trkpt lat="45.637880165127335" lon="10.761421365759396"><ele>884.9999999999999</ele><time>2026-04-01T12:06:07.999Z</time></trkpt><trkpt lat="45.63792261662119" lon="10.761530229897167"><ele>887.0</ele><time>2026-04-01T12:06:08.999Z</time></trkpt><trkpt lat="45.637974724648494" lon="10.761617891036368"><ele>889.0</ele><time>2026-04-01T12:06:09.999Z</time></trkpt><trkpt lat="45.63804057157104" lon="10.761709665201288"><ele>891.0</ele><time>2026-04-01T12:06:11.999Z</time></trkpt><trkpt lat="45.63809933640303" lon="10.761747265555506"><ele>892.9999999999999</ele><time>2026-04-01T12:06:13.999Z</time></trkpt><trkpt lat="45.638152199920775" lon="10.761820656793335"><ele>895.0</ele><time>2026-04-01T12:06:27.999Z</time></trkpt><trkpt lat="45.638190938682484" lon="10.761927002434495"><ele>895.4</ele><time>2026-04-01T12:06:39.998Z</time></trkpt><trkpt lat="45.63821449733441" lon="10.762051475959847"><ele>895.8</ele><time>2026-04-01T12:06:43Z</time></trkpt><trkpt lat="45.63822547367459" lon="10.762152362900515"><ele>896.2</ele><time>2026-04-01T12:06:46Z</time></trkpt><trkpt lat="45.6381751543965" lon="10.762399275459893"><ele>896.6</ele><time>2026-04-01T12:07:48.999Z</time></trkpt><trkpt lat="45.638181507849914" lon="10.762493540631707"><ele>897.0</ele><time>2026-04-01T12:07:49.999Z</time></trkpt><trkpt lat="45.63818192395862" lon="10.762585741203972"><ele>899.75</ele><time>2026-04-01T12:07:50.999Z</time></trkpt><trkpt lat="45.638207037527486" lon="10.762732372555197"><ele>902.5</ele><time>2026-04-01T12:07:52.999Z</time></trkpt><trkpt lat="45.63821969567765" lon="10.762960848351458"><ele>905.25</ele><time>2026-04-01T12:07:54.999Z</time></trkpt><trkpt lat="45.63821696965964" lon="10.76307074477233"><ele>908.0</ele><time>2026-04-01T12:07:55.999Z</time></trkpt><trkpt lat="45.63816656631088" lon="10.76323663153699"><ele>908.0</ele><time>2026-04-01T12:07:57.999Z</time></trkpt><trkpt lat="45.63822043531407" lon="10.763338315348458"><ele>908.0</ele><time>2026-04-01T12:08:01.999Z</time></trkpt><trkpt lat="45.638313188593244" lon="10.763099242895198"><ele>908.0</ele><time>2026-04-01T12:08:05.999Z</time></trkpt><trkpt lat="45.63837243507045" lon="10.763007215409148"><ele>908.0</ele><time>2026-04-01T12:08:06.999Z</time></trkpt><trkpt lat="45.63841823487661" lon="10.762847388356322"><ele>908.0</ele><time>2026-04-01T12:08:07.999Z</time></trkpt><trkpt lat="45.63846763973072" lon="10.762743623263031"><ele>908.0</ele><time>2026-04-01T12:08:08.999Z</time></trkpt><trkpt lat="45.6385300529939" lon="10.762644801831197"><ele>908.0</ele><time>2026-04-01T12:08:09.999Z</time></trkpt><trkpt lat="45.638616793158455" lon="10.762569543867238"><ele>908.0</ele><time>2026-04-01T12:08:10.999Z</time></trkpt><trkpt lat="45.6387278893693" lon="10.762518384891996"><ele>908.0</ele><time>2026-04-01T12:08:11.999Z</time></trkpt><trkpt lat="45.638819926733625" lon="10.762453460619911"><ele>908.1666666666667</ele><time>2026-04-01T12:08:12.999Z</time></trkpt><trkpt lat="45.638925256977615" lon="10.762460094030024"><ele>908.3333333333334</ele><time>2026-04-01T12:08:14.999Z</time></trkpt><trkpt lat="45.63897459416654" lon="10.762528883552609"><ele>908.5</ele><time>2026-04-01T12:08:15.999Z</time></trkpt><trkpt lat="45.63901126939497" lon="10.762618221982772"><ele>908.6666666666667</ele><time>2026-04-01T12:08:16.999Z</time></trkpt><trkpt lat="45.63902053806671" lon="10.762710841949051"><ele>908.8333333333334</ele><time>2026-04-01T12:08:17.999Z</time></trkpt><trkpt lat="45.638991846122046" lon="10.762820820585839"><ele>909.0</ele><time>2026-04-01T12:08:20.999Z</time></trkpt><trkpt lat="45.63891571742419" lon="10.762892946803426"><ele>910.5</ele><time>2026-04-01T12:08:22.999Z</time></trkpt><trkpt lat="45.638884052453996" lon="10.762983622879988"><ele>912.0</ele><time>2026-04-01T12:08:24.999Z</time></trkpt><trkpt lat="45.638930253503545" lon="10.763097744923005"><ele>913.5</ele><time>2026-04-01T12:08:26.999Z</time></trkpt><trkpt lat="45.63896977506995" lon="10.763170193024626"><ele>915.0</ele><time>2026-04-01T12:08:27.999Z</time></trkpt><trkpt lat="45.63901545082558" lon="10.763354323928183"><ele>916.5</ele><time>2026-04-01T12:08:29.999Z</time></trkpt><trkpt lat="45.63901235357203" lon="10.763473194323423"><ele>918.0</ele><time>2026-04-01T12:08:30.999Z</time></trkpt><trkpt lat="45.638974885564615" lon="10.763635874806171"><ele>921.2</ele><time>2026-04-01T12:08:32.999Z</time></trkpt><trkpt lat="45.6389669786695" lon="10.763801440478492"><ele>924.4</ele><time>2026-04-01T12:08:34.999Z</time></trkpt><trkpt lat="45.638979198490695" lon="10.763916450679867"><ele>927.6000000000001</ele><time>2026-04-01T12:08:35.999Z</time></trkpt><trkpt lat="45.639010915410815" lon="10.764024581651913"><ele>930.8000000000001</ele><time>2026-04-01T12:08:36.999Z</time></trkpt><trkpt lat="45.639038447208385" lon="10.764147712677955"><ele>934.0</ele><time>2026-04-01T12:08:37.999Z</time></trkpt><trkpt lat="45.63906148292544" lon="10.764264744212786"><ele>935.9999999999999</ele><time>2026-04-01T12:08:38.999Z</time></trkpt><trkpt lat="45.63907230667498" lon="10.764382032317622"><ele>938.0</ele><time>2026-04-01T12:08:39.999Z</time></trkpt><trkpt lat="45.639049580486706" lon="10.764532125101145"><ele>940.0</ele><time>2026-04-01T12:08:41.999Z</time></trkpt><trkpt lat="45.63901547850923" lon="10.764651087668117"><ele>942.0</ele><time>2026-04-01T12:08:42.999Z</time></trkpt><trkpt lat="45.63898301727966" lon="10.764735879221254"><ele>943.9999999999999</ele><time>2026-04-01T12:08:43.999Z</time></trkpt><trkpt lat="45.638963745103176" lon="10.764826849961688"><ele>946.0</ele><time>2026-04-01T12:08:44.999Z</time></trkpt><trkpt lat="45.638948211298995" lon="10.76497806055245"><ele>946.0</ele><time>2026-04-01T12:08:46.999Z</time></trkpt><trkpt lat="45.63895001823828" lon="10.765073379396355"><ele>946.0</ele><time>2026-04-01T12:08:48Z</time></trkpt><trkpt lat="45.638960350512434" lon="10.765171407804306"><ele>946.0</ele><time>2026-04-01T12:08:49Z</time></trkpt><trkpt lat="45.63898261148169" lon="10.765257367538661"><ele>946.0</ele><time>2026-04-01T12:08:50Z</time></trkpt><trkpt lat="45.638991404147866" lon="10.765400578278244"><ele>946.0</ele><time>2026-04-01T12:08:52Z</time></trkpt><trkpt lat="45.638968209760684" lon="10.765489667252153"><ele>946.0</ele><time>2026-04-01T12:08:53Z</time></trkpt><trkpt lat="45.63892770411094" lon="10.7655647210968"><ele>946.0</ele><time>2026-04-01T12:08:54Z</time></trkpt><trkpt lat="45.638883635001946" lon="10.765715005661008"><ele>949.4</ele><time>2026-04-01T12:08:56Z</time></trkpt><trkpt lat="45.638919381962495" lon="10.765852060960313"><ele>952.8</ele><time>2026-04-01T12:08:58Z</time></trkpt><trkpt lat="45.638988462563624" lon="10.766001940058798"><ele>956.1999999999999</ele><time>2026-04-01T12:09:00Z</time></trkpt><trkpt lat="45.63901831743544" lon="10.766094813811106"><ele>959.5999999999999</ele><time>2026-04-01T12:09:01Z</time></trkpt><trkpt lat="45.63903279122736" lon="10.766198399606736"><ele>963.0</ele><time>2026-04-01T12:09:02Z</time></trkpt><trkpt lat="45.63905947309404" lon="10.766323206713553"><ele>965.1666666666666</ele><time>2026-04-01T12:09:03Z</time></trkpt><trkpt lat="45.63908410346815" lon="10.766426067022008"><ele>967.3333333333333</ele><time>2026-04-01T12:09:04Z</time></trkpt><trkpt lat="45.639106873598266" lon="10.766533061398817"><ele>969.5</ele><time>2026-04-01T12:09:05Z</time></trkpt><trkpt lat="45.63912735159304" lon="10.766649973843938"><ele>971.6666666666666</ele><time>2026-04-01T12:09:06Z</time></trkpt><trkpt lat="45.63916297909036" lon="10.766734507677224"><ele>973.8333333333333</ele><time>2026-04-01T12:09:07Z</time></trkpt><trkpt lat="45.63920339782188" lon="10.766814476201233"><ele>976.0</ele><time>2026-04-01T12:09:08Z</time></trkpt><trkpt lat="45.639250990323" lon="10.766976276721529"><ele>977.6666666666666</ele><time>2026-04-01T12:09:10Z</time></trkpt><trkpt lat="45.63928579763908" lon="10.767062779853246"><ele>979.3333333333333</ele><time>2026-04-01T12:09:11Z</time></trkpt><trkpt lat="45.63932457115733" lon="10.76714880493402"><ele>981.0</ele><time>2026-04-01T12:09:12Z</time></trkpt><trkpt lat="45.63937193413002" lon="10.767235991225391"><ele>982.6666666666667</ele><time>2026-04-01T12:09:13Z</time></trkpt><trkpt lat="45.63943282346055" lon="10.76730242997756"><ele>984.3333333333334</ele><time>2026-04-01T12:09:14Z</time></trkpt><trkpt lat="45.63954902187367" lon="10.767314166051126"><ele>986.0</ele><time>2026-04-01T12:09:16Z</time></trkpt><trkpt lat="45.63963224521766" lon="10.76738350265946"><ele>987.6666666666667</ele><time>2026-04-01T12:09:18Z</time></trkpt><trkpt lat="45.639687472759064" lon="10.767506446565665"><ele>989.3333333333334</ele><time>2026-04-01T12:09:20Z</time></trkpt><trkpt lat="45.63971087186875" lon="10.767594153535525"><ele>991.0</ele><time>2026-04-01T12:09:21Z</time></trkpt><trkpt lat="45.63972601476025" lon="10.767711422111025"><ele>992.6666666666667</ele><time>2026-04-01T12:09:22Z</time></trkpt><trkpt lat="45.63973439674618" lon="10.767839692878251"><ele>994.3333333333334</ele><time>2026-04-01T12:09:23Z</time></trkpt><trkpt lat="45.63974143834523" lon="10.76795521079185"><ele>996.0</ele><time>2026-04-01T12:09:24Z</time></trkpt><trkpt lat="45.63972808639025" lon="10.76806479382783"><ele>997.4</ele><time>2026-04-01T12:09:25Z</time></trkpt><trkpt lat="45.639703804970395" lon="10.768167467496859"><ele>998.8</ele><time>2026-04-01T12:09:26Z</time></trkpt><trkpt lat="45.6396820981955" lon="10.768274582029578"><ele>1000.1999999999999</ele><time>2026-04-01T12:09:27Z</time></trkpt><trkpt lat="45.639667946526586" lon="10.768375798972631"><ele>1001.5999999999999</ele><time>2026-04-01T12:09:28Z</time></trkpt><trkpt lat="45.63963931955353" lon="10.76847111344"><ele>1003.0</ele><time>2026-04-01T12:09:29Z</time></trkpt><trkpt lat="45.63958671840136" lon="10.768684236570861"><ele>1003.9999999999999</ele><time>2026-04-01T12:09:31Z</time></trkpt><trkpt lat="45.63955417938435" lon="10.768792343391693"><ele>1005.0</ele><time>2026-04-01T12:09:32Z</time></trkpt><trkpt lat="45.639516579945926" lon="10.768901535479245"><ele>1006.0</ele><time>2026-04-01T12:09:33Z</time></trkpt><trkpt lat="45.63947634541934" lon="10.76898274201828"><ele>1007.0</ele><time>2026-04-01T12:09:34Z</time></trkpt><trkpt lat="45.639414782687396" lon="10.76908449930759"><ele>1007.9999999999999</ele><time>2026-04-01T12:09:35Z</time></trkpt><trkpt lat="45.63936038696751" lon="10.769201250800275"><ele>1009.0</ele><time>2026-04-01T12:09:35.999Z</time></trkpt><trkpt lat="45.63932514142213" lon="10.769323142714393"><ele>1010.6666666666666</ele><time>2026-04-01T12:09:36.999Z</time></trkpt><trkpt lat="45.63927754842604" lon="10.769414710030995"><ele>1012.3333333333333</ele><time>2026-04-01T12:09:37.999Z</time></trkpt><trkpt lat="45.63920297880878" lon="10.769542140814432"><ele>1014.0</ele><time>2026-04-01T12:09:38.999Z</time></trkpt><trkpt lat="45.63916704758395" lon="10.769628968499859"><ele>1015.6666666666667</ele><time>2026-04-01T12:09:39.999Z</time></trkpt><trkpt lat="45.63913483110086" lon="10.76973954961375"><ele>1017.3333333333334</ele><time>2026-04-01T12:09:40.999Z</time></trkpt><trkpt lat="45.639106407471175" lon="10.769869977020779"><ele>1019.0</ele><time>2026-04-01T12:09:41.999Z</time></trkpt><trkpt lat="45.63908855111078" lon="10.769994118211025"><ele>1019.0</ele><time>2026-04-01T12:09:42.999Z</time></trkpt><trkpt lat="45.63907979753174" lon="10.770104971796348"><ele>1019.0000000000001</ele><time>2026-04-01T12:09:43.999Z</time></trkpt><trkpt lat="45.639060017625894" lon="10.770213542560647"><ele>1019.0000000000001</ele><time>2026-04-01T12:09:44.999Z</time></trkpt><trkpt lat="45.639026010638574" lon="10.770353232382464"><ele>1019.0</ele><time>2026-04-01T12:09:45.999Z</time></trkpt><trkpt lat="45.639001960428935" lon="10.770509707487907"><ele>1019.0</ele><time>2026-04-01T12:09:46.999Z</time></trkpt><trkpt lat="45.638972040822644" lon="10.770671719962293"><ele>1020.6</ele><time>2026-04-01T12:09:47.999Z</time></trkpt><trkpt lat="45.63894004405633" lon="10.77082243990844"><ele>1022.2</ele><time>2026-04-01T12:09:48.999Z</time></trkpt><trkpt lat="45.63891430357629" lon="10.770950811133646"><ele>1023.8000000000001</ele><time>2026-04-01T12:09:49.999Z</time></trkpt><trkpt lat="45.63889404302348" lon="10.771096498382224"><ele>1025.4</ele><time>2026-04-01T12:09:50.999Z</time></trkpt><trkpt lat="45.63883396377541" lon="10.771207862697509"><ele>1027.0</ele><time>2026-04-01T12:09:52.999Z</time></trkpt><trkpt lat="45.638764585086584" lon="10.771214019537267"><ele>1028.8333333333333</ele><time>2026-04-01T12:09:53.999Z</time></trkpt><trkpt lat="45.63869508609911" lon="10.77122276865741"><ele>1030.6666666666665</ele><time>2026-04-01T12:09:54.999Z</time></trkpt><trkpt lat="45.638628661319295" lon="10.771197362956329"><ele>1032.5</ele><time>2026-04-01T12:09:55.999Z</time></trkpt><trkpt lat="45.63855924755369" lon="10.771132795707878"><ele>1034.3333333333333</ele><time>2026-04-01T12:09:56.999Z</time></trkpt><trkpt lat="45.63847941101661" lon="10.771074164543116"><ele>1036.1666666666667</ele><time>2026-04-01T12:09:57.999Z</time></trkpt><trkpt lat="45.63839271563025" lon="10.771043330111974"><ele>1038.0</ele><time>2026-04-01T12:09:58.999Z</time></trkpt><trkpt lat="45.638328522155376" lon="10.77106894302747"><ele>1039.3333333333333</ele><time>2026-04-01T12:09:59.999Z</time></trkpt><trkpt lat="45.638252716499686" lon="10.771122083903013"><ele>1040.6666666666667</ele><time>2026-04-01T12:10:00.999Z</time></trkpt><trkpt lat="45.63815702782903" lon="10.771187491390814"><ele>1042.0</ele><time>2026-04-01T12:10:01.999Z</time></trkpt><trkpt lat="45.63805479012493" lon="10.771243100275731"><ele>1043.3333333333335</ele><time>2026-04-01T12:10:02.999Z</time></trkpt><trkpt lat="45.63798217592262" lon="10.771258394408303"><ele>1044.6666666666667</ele><time>2026-04-01T12:10:03.999Z</time></trkpt><trkpt lat="45.63792226396823" lon="10.771286702515816"><ele>1046.0</ele><time>2026-04-01T12:10:04.999Z</time></trkpt><trkpt lat="45.63783508249604" lon="10.771420970430874"><ele>1045.9999999999998</ele><time>2026-04-01T12:10:06.999Z</time></trkpt><trkpt lat="45.63783045218516" lon="10.771514290653634"><ele>1046.0</ele><time>2026-04-01T12:10:07.999Z</time></trkpt><trkpt lat="45.63785160212787" lon="10.7716082760227"><ele>1046.0</ele><time>2026-04-01T12:10:08.999Z</time></trkpt><trkpt lat="45.63788160075877" lon="10.771691393378733"><ele>1046.0</ele><time>2026-04-01T12:10:09.999Z</time></trkpt><trkpt lat="45.63791897201564" lon="10.771809806552373"><ele>1046.0</ele><time>2026-04-01T12:10:10.999Z</time></trkpt><trkpt lat="45.637927711090704" lon="10.771912956464456"><ele>1045.9999999999998</ele><time>2026-04-01T12:10:11.999Z</time></trkpt><trkpt lat="45.63792320385145" lon="10.772034564791621"><ele>1046.0</ele><time>2026-04-01T12:10:12.999Z</time></trkpt><trkpt lat="45.6379087140025" lon="10.77215503122639"><ele>1047.8</ele><time>2026-04-01T12:10:13.999Z</time></trkpt><trkpt lat="45.63789045962783" lon="10.772259016398081"><ele>1049.6</ele><time>2026-04-01T12:10:14.999Z</time></trkpt><trkpt lat="45.637865523303546" lon="10.772394168004258"><ele>1051.4</ele><time>2026-04-01T12:10:16.999Z</time></trkpt><trkpt lat="45.637882605216184" lon="10.772510598220363"><ele>1053.2</ele><time>2026-04-01T12:10:18.999Z</time></trkpt><trkpt lat="45.63790333371962" lon="10.772656589568319"><ele>1055.0</ele><time>2026-04-01T12:10:20.999Z</time></trkpt><trkpt lat="45.63791803021439" lon="10.77283961939549"><ele>1056.8333333333335</ele><time>2026-04-01T12:10:22.999Z</time></trkpt><trkpt lat="45.6379242306826" lon="10.772951475240289"><ele>1058.6666666666667</ele><time>2026-04-01T12:10:23.999Z</time></trkpt><trkpt lat="45.63796002407084" lon="10.77311215536818"><ele>1060.5</ele><time>2026-04-01T12:10:25.999Z</time></trkpt><trkpt lat="45.638003596332084" lon="10.773203261657113"><ele>1062.3333333333333</ele><time>2026-04-01T12:10:26.999Z</time></trkpt><trkpt lat="45.63804900260452" lon="10.773292499831927"><ele>1064.1666666666665</ele><time>2026-04-01T12:10:27.999Z</time></trkpt><trkpt lat="45.63808398342884" lon="10.77336822434554"><ele>1066.0</ele><time>2026-04-01T12:10:28.999Z</time></trkpt><trkpt lat="45.63813261483795" lon="10.773500306127616"><ele>1066.8333333333333</ele><time>2026-04-01T12:10:30.999Z</time></trkpt><trkpt lat="45.63822150060146" lon="10.773570625085494"><ele>1067.6666666666665</ele><time>2026-04-01T12:10:32.999Z</time></trkpt><trkpt lat="45.6382853689395" lon="10.773557923236947"><ele>1068.5</ele><time>2026-04-01T12:10:33.999Z</time></trkpt><trkpt lat="45.63838549977941" lon="10.773558084204641"><ele>1069.3333333333333</ele><time>2026-04-01T12:10:35.999Z</time></trkpt><trkpt lat="45.638444772963815" lon="10.773601186748259"><ele>1070.1666666666667</ele><time>2026-04-01T12:10:42.999Z</time></trkpt><trkpt lat="45.63852181145326" lon="10.773644155952512"><ele>1071.0</ele><time>2026-04-01T12:10:44.999Z</time></trkpt><trkpt lat="45.638614273348416" lon="10.773703556288798"><ele>1073.0</ele><time>2026-04-01T12:10:46.999Z</time></trkpt><trkpt lat="45.63869601617346" lon="10.773779114458938"><ele>1075.0</ele><time>2026-04-01T12:10:48.999Z</time></trkpt><trkpt lat="45.638792448902876" lon="10.773891066456384"><ele>1077.0</ele><time>2026-04-01T12:10:50.999Z</time></trkpt><trkpt lat="45.638841985991874" lon="10.7739602097008"><ele>1079.0</ele><time>2026-04-01T12:10:51.999Z</time></trkpt><trkpt lat="45.63891257345705" lon="10.774094760883298"><ele>1081.0</ele><time>2026-04-01T12:10:54Z</time></trkpt><trkpt lat="45.6389458506294" lon="10.774223575548193"><ele>1081.0</ele><time>2026-04-01T12:10:56Z</time></trkpt><trkpt lat="45.63894374960828" lon="10.774332924188595"><ele>1081.0</ele><time>2026-04-01T12:10:58Z</time></trkpt><trkpt lat="45.6389362326298" lon="10.774467272524124"><ele>1081.0</ele><time>2026-04-01T12:11:00Z</time></trkpt><trkpt lat="45.63891406932351" lon="10.774634204824821"><ele>1081.0</ele><time>2026-04-01T12:11:02Z</time></trkpt><trkpt lat="45.63890561721461" lon="10.774732923636146"><ele>1081.0</ele><time>2026-04-01T12:11:03Z</time></trkpt><trkpt lat="45.63890118900858" lon="10.774839310446856"><ele>1081.0</ele><time>2026-04-01T12:11:04Z</time></trkpt><trkpt lat="45.63890937106238" lon="10.774940892778131"><ele>1081.5</ele><time>2026-04-01T12:11:05Z</time></trkpt><trkpt lat="45.638918093115294" lon="10.775038901652337"><ele>1082.0</ele><time>2026-04-01T12:11:06Z</time></trkpt><trkpt lat="45.638930076166154" lon="10.775128478632817"><ele>1082.5</ele><time>2026-04-01T12:11:07Z</time></trkpt><trkpt lat="45.638950261467876" lon="10.77521582562531"><ele>1083.0</ele><time>2026-04-01T12:11:08Z</time></trkpt><trkpt lat="45.63898355654371" lon="10.775319339687643"><ele>1083.5</ele><time>2026-04-01T12:11:09Z</time></trkpt><trkpt lat="45.63902739457112" lon="10.775433250089897"><ele>1084.0</ele><time>2026-04-01T12:11:10Z</time></trkpt><trkpt lat="45.63906421860976" lon="10.775542623564368"><ele>1085.0</ele><time>2026-04-01T12:11:11Z</time></trkpt><trkpt lat="45.63909956263044" lon="10.775660683651695"><ele>1086.0</ele><time>2026-04-01T12:11:12Z</time></trkpt><trkpt lat="45.63912671249306" lon="10.775790045420436"><ele>1087.0</ele><time>2026-04-01T12:11:13Z</time></trkpt><trkpt lat="45.639152234507705" lon="10.775915720444765"><ele>1088.0</ele><time>2026-04-01T12:11:14Z</time></trkpt><trkpt lat="45.639188270893285" lon="10.776031935695892"><ele>1089.0</ele><time>2026-04-01T12:11:15Z</time></trkpt><trkpt lat="45.639231644953604" lon="10.776145193419717"><ele>1090.0</ele><time>2026-04-01T12:11:16Z</time></trkpt><trkpt lat="45.63927155488925" lon="10.776240592505436"><ele>1091.0</ele><time>2026-04-01T12:11:17Z</time></trkpt><trkpt lat="45.63932558665094" lon="10.776389141406892"><ele>1092.0</ele><time>2026-04-01T12:11:19Z</time></trkpt><trkpt lat="45.63939323184776" lon="10.776517221335485"><ele>1093.0</ele><time>2026-04-01T12:11:21Z</time></trkpt><trkpt lat="45.63949285510433" lon="10.776611233405237"><ele>1094.0</ele><time>2026-04-01T12:11:23Z</time></trkpt><trkpt lat="45.63957377407776" lon="10.77675009555126"><ele>1095.5</ele><time>2026-04-01T12:11:25Z</time></trkpt><trkpt lat="45.63963969540613" lon="10.776823573478575"><ele>1097.0</ele><time>2026-04-01T12:11:26Z</time></trkpt><trkpt lat="45.63970954905852" lon="10.776892221145332"><ele>1098.5</ele><time>2026-04-01T12:11:27Z</time></trkpt><trkpt lat="45.63977496154427" lon="10.776958866013254"><ele>1100.0</ele><time>2026-04-01T12:11:28Z</time></trkpt><trkpt lat="45.639833930198606" lon="10.777034548272768"><ele>1101.5</ele><time>2026-04-01T12:11:32Z</time></trkpt><trkpt lat="45.63991254412085" lon="10.777125873149474"><ele>1103.0</ele><time>2026-04-01T12:11:50Z</time></trkpt><trkpt lat="45.63992560494503" lon="10.777240528279991"><ele>1104.0</ele><time>2026-04-01T12:11:52Z</time></trkpt><trkpt lat="45.639950186170644" lon="10.777371652267353"><ele>1105.0</ele><time>2026-04-01T12:11:53.999Z</time></trkpt><trkpt lat="45.64001079582278" lon="10.777444626077058"><ele>1106.0</ele><time>2026-04-01T12:11:56.999Z</time></trkpt><trkpt lat="45.640079491485366" lon="10.777494589259595"><ele>1107.0</ele><time>2026-04-01T12:11:58.999Z</time></trkpt><trkpt lat="45.64014645325534" lon="10.777494662006749"><ele>1108.0</ele><time>2026-04-01T12:12:00.999Z</time></trkpt><trkpt lat="45.64021164228559" lon="10.777535055920438"><ele>1109.0</ele><time>2026-04-01T12:12:02.999Z</time></trkpt><trkpt lat="45.64031209536364" lon="10.777593572864303"><ele>1110.3333333333335</ele><time>2026-04-01T12:12:04.999Z</time></trkpt><trkpt lat="45.640351644768906" lon="10.777689272790832"><ele>1111.6666666666667</ele><time>2026-04-01T12:12:06.999Z</time></trkpt><trkpt lat="45.64035106084263" lon="10.777780063660256"><ele>1113.0</ele><time>2026-04-01T12:12:07.999Z</time></trkpt><trkpt lat="45.64033029499085" lon="10.777916516137457"><ele>1114.3333333333333</ele><time>2026-04-01T12:12:09.999Z</time></trkpt><trkpt lat="45.64028022110665" lon="10.778019874255179"><ele>1115.6666666666665</ele><time>2026-04-01T12:12:11.999Z</time></trkpt><trkpt lat="45.640223056504745" lon="10.778168037828287"><ele>1117.0</ele><time>2026-04-01T12:12:13.999Z</time></trkpt><trkpt lat="45.640186334182" lon="10.778263530040729"><ele>1118.1666666666665</ele><time>2026-04-01T12:12:14.999Z</time></trkpt><trkpt lat="45.640130614174296" lon="10.77836142830609"><ele>1119.3333333333333</ele><time>2026-04-01T12:12:15.999Z</time></trkpt><trkpt lat="45.64006811817361" lon="10.778429427429446"><ele>1120.5</ele><time>2026-04-01T12:12:16.999Z</time></trkpt><trkpt lat="45.640035112698385" lon="10.778588230329218"><ele>1121.6666666666667</ele><time>2026-04-01T12:12:18.999Z</time></trkpt><trkpt lat="45.6400364221254" lon="10.778698629057601"><ele>1122.8333333333335</ele><time>2026-04-01T12:12:19.999Z</time></trkpt><trkpt lat="45.64001609777271" lon="10.77881220052532"><ele>1124.0</ele><time>2026-04-01T12:12:20.999Z</time></trkpt><trkpt lat="45.639962831972795" lon="10.778897468783448"><ele>1125.3333333333335</ele><time>2026-04-01T12:12:21.999Z</time></trkpt><trkpt lat="45.63990038174434" lon="10.778993325030765"><ele>1126.6666666666667</ele><time>2026-04-01T12:12:22.999Z</time></trkpt><trkpt lat="45.639857259997825" lon="10.77906320588557"><ele>1128.0</ele><time>2026-04-01T12:12:23.999Z</time></trkpt><trkpt lat="45.63981046038444" lon="10.779163299787273"><ele>1129.3333333333333</ele><time>2026-04-01T12:12:25.999Z</time></trkpt><trkpt lat="45.63979062240767" lon="10.779260335249818"><ele>1130.6666666666665</ele><time>2026-04-01T12:12:35.999Z</time></trkpt><trkpt lat="45.63971214533775" lon="10.779346063692193"><ele>1132.0</ele><time>2026-04-01T12:12:38.999Z</time></trkpt><trkpt lat="45.63967662500428" lon="10.77942349713928"><ele>1134.1666666666665</ele><time>2026-04-01T12:12:41.999Z</time></trkpt><trkpt lat="45.639650841061865" lon="10.779533062019778"><ele>1136.3333333333333</ele><time>2026-04-01T12:13:05Z</time></trkpt><trkpt lat="45.63969152030957" lon="10.779645884174188"><ele>1138.5</ele><time>2026-04-01T12:13:08Z</time></trkpt><trkpt lat="45.63969003123655" lon="10.779748998586246"><ele>1140.6666666666667</ele><time>2026-04-01T12:13:10Z</time></trkpt><trkpt lat="45.639679668477264" lon="10.779868931254905"><ele>1142.8333333333335</ele><time>2026-04-01T12:13:12Z</time></trkpt><trkpt lat="45.639669547103736" lon="10.779967301042674"><ele>1145.0</ele><time>2026-04-01T12:13:13Z</time></trkpt><trkpt lat="45.639630313884226" lon="10.780079960524038"><ele>1148.5</ele><time>2026-04-01T12:13:15Z</time></trkpt><trkpt lat="45.63958995812322" lon="10.780224430052176"><ele>1152.0</ele><time>2026-04-01T12:13:17Z</time></trkpt><trkpt lat="45.63957905357059" lon="10.780398138333624"><ele>1155.5</ele><time>2026-04-01T12:13:19Z</time></trkpt><trkpt lat="45.63958467211568" lon="10.780540869498008"><ele>1159.0</ele><time>2026-04-01T12:13:21Z</time></trkpt><trkpt lat="45.639670661792" lon="10.780663192646246"><ele>1159.0</ele><time>2026-04-01T12:13:23Z</time></trkpt><trkpt lat="45.63970696669891" lon="10.780805661183898"><ele>1159.0</ele><time>2026-04-01T12:13:25Z</time></trkpt><trkpt lat="45.63977358876017" lon="10.780909131070707"><ele>1159.0</ele><time>2026-04-01T12:13:27Z</time></trkpt><trkpt lat="45.63982158628687" lon="10.781029836313271"><ele>1159.0</ele><time>2026-04-01T12:13:30Z</time></trkpt><trkpt lat="45.63983651166284" lon="10.781124588330394"><ele>1159.0</ele><time>2026-04-01T12:13:31Z</time></trkpt><trkpt lat="45.63987234143051" lon="10.781238174380565"><ele>1160.8</ele><time>2026-04-01T12:13:33Z</time></trkpt><trkpt lat="45.63992695632353" lon="10.781407147372704"><ele>1162.6000000000001</ele><time>2026-04-01T12:13:35Z</time></trkpt><trkpt lat="45.639952516329934" lon="10.781515267786604"><ele>1164.4</ele><time>2026-04-01T12:13:36Z</time></trkpt><trkpt lat="45.63997166471049" lon="10.781622771211257"><ele>1166.2</ele><time>2026-04-01T12:13:37Z</time></trkpt><trkpt lat="45.63996515275465" lon="10.78175579778165"><ele>1168.0</ele><time>2026-04-01T12:13:39Z</time></trkpt><trkpt lat="45.63997197610048" lon="10.781858319005435"><ele>1170.0</ele><time>2026-04-01T12:13:41Z</time></trkpt><trkpt lat="45.640001853217996" lon="10.78198166699348"><ele>1172.0</ele><time>2026-04-01T12:13:42Z</time></trkpt><trkpt lat="45.64004099332763" lon="10.78210445990627"><ele>1174.0</ele><time>2026-04-01T12:13:43Z</time></trkpt><trkpt lat="45.640068673871085" lon="10.782215983767617"><ele>1176.0</ele><time>2026-04-01T12:13:44Z</time></trkpt><trkpt lat="45.64008636250227" lon="10.782325087002219"><ele>1178.0</ele><time>2026-04-01T12:13:45Z</time></trkpt><trkpt lat="45.64007796668124" lon="10.78254611327693"><ele>1178.0</ele><time>2026-04-01T12:13:47Z</time></trkpt><trkpt lat="45.640115611297695" lon="10.782672012053519"><ele>1178.0</ele><time>2026-04-01T12:13:49Z</time></trkpt><trkpt lat="45.64016866513168" lon="10.782752761610716"><ele>1178.0</ele><time>2026-04-01T12:13:50Z</time></trkpt><trkpt lat="45.640219319140485" lon="10.782815450834155"><ele>1178.0</ele><time>2026-04-01T12:13:51Z</time></trkpt><trkpt lat="45.640246426908924" lon="10.782965268376909"><ele>1178.0</ele><time>2026-04-01T12:13:53Z</time></trkpt><trkpt lat="45.64028925807952" lon="10.783039044241818"><ele>1178.0</ele><time>2026-04-01T12:13:55Z</time></trkpt><trkpt lat="45.64038421582585" lon="10.783141633253246"><ele>1179.8333333333335</ele><time>2026-04-01T12:13:57Z</time></trkpt><trkpt lat="45.64043671435266" lon="10.783203684206125"><ele>1181.6666666666667</ele><time>2026-04-01T12:13:58Z</time></trkpt><trkpt lat="45.640515740455584" lon="10.783256253878406"><ele>1183.5</ele><time>2026-04-01T12:13:59.999Z</time></trkpt><trkpt lat="45.640556954358104" lon="10.783372955903664"><ele>1185.3333333333333</ele><time>2026-04-01T12:14:14.999Z</time></trkpt><trkpt lat="45.64058314761099" lon="10.783467292017388"><ele>1187.1666666666665</ele><time>2026-04-01T12:14:17.999Z</time></trkpt><trkpt lat="45.64063440172813" lon="10.783577376648934"><ele>1189.0</ele><time>2026-04-01T12:14:19.999Z</time></trkpt><trkpt lat="45.640653715707" lon="10.783685695699392"><ele>1190.6666666666665</ele><time>2026-04-01T12:14:21.999Z</time></trkpt><trkpt lat="45.64065849875316" lon="10.783817673069475"><ele>1192.3333333333333</ele><time>2026-04-01T12:14:23.999Z</time></trkpt><trkpt lat="45.64067174317423" lon="10.783912457525814"><ele>1194.0</ele><time>2026-04-01T12:14:25.999Z</time></trkpt><trkpt lat="45.640716178039696" lon="10.783988938567015"><ele>1195.6666666666667</ele><time>2026-04-01T12:14:28.999Z</time></trkpt><trkpt lat="45.640757122596426" lon="10.784093723291534"><ele>1197.3333333333335</ele><time>2026-04-01T12:14:30.999Z</time></trkpt><trkpt lat="45.64078740226713" lon="10.78420531069872"><ele>1199.0</ele><time>2026-04-01T12:14:33.999Z</time></trkpt><trkpt lat="45.6408300924126" lon="10.78429287441383"><ele>1201.2</ele><time>2026-04-01T12:15:36Z</time></trkpt><trkpt lat="45.64087559788787" lon="10.784407350504882"><ele>1203.4</ele><time>2026-04-01T12:15:38Z</time></trkpt><trkpt lat="45.64090345341668" lon="10.784567362702553"><ele>1205.6</ele><time>2026-04-01T12:15:40Z</time></trkpt><trkpt lat="45.64093374281499" lon="10.784727324219672"><ele>1207.8</ele><time>2026-04-01T12:15:42Z</time></trkpt><trkpt lat="45.64099531623962" lon="10.78477372290866"><ele>1210.0</ele><time>2026-04-01T12:15:43Z</time></trkpt><trkpt lat="45.641085204672045" lon="10.784808364180227"><ele>1210.4</ele><time>2026-04-01T12:15:44Z</time></trkpt><trkpt lat="45.641170151951314" lon="10.784840425222239"><ele>1210.8</ele><time>2026-04-01T12:15:45Z</time></trkpt><trkpt lat="45.641295942441694" lon="10.784850809705311"><ele>1211.2</ele><time>2026-04-01T12:15:47Z</time></trkpt><trkpt lat="45.641366995820256" lon="10.784878602040894"><ele>1211.6</ele><time>2026-04-01T12:15:48Z</time></trkpt><trkpt lat="45.64143928098498" lon="10.784934168215244"><ele>1212.0</ele><time>2026-04-01T12:15:49Z</time></trkpt><trkpt lat="45.64151747512724" lon="10.784965065645823"><ele>1212.0</ele><time>2026-04-01T12:15:50Z</time></trkpt><trkpt lat="45.6415928130548" lon="10.7849901839328"><ele>1212.0</ele><time>2026-04-01T12:15:51Z</time></trkpt><trkpt lat="45.64165750526684" lon="10.785011890870619"><ele>1212.0</ele><time>2026-04-01T12:15:52Z</time></trkpt><trkpt lat="45.64171275409478" lon="10.785055281844771"><ele>1212.0</ele><time>2026-04-01T12:15:53Z</time></trkpt><trkpt lat="45.641772042811155" lon="10.785138318698799"><ele>1212.0</ele><time>2026-04-01T12:15:55Z</time></trkpt><trkpt lat="45.64182726371392" lon="10.785201867408404"><ele>1212.0</ele><time>2026-04-01T12:15:57Z</time></trkpt><trkpt lat="45.64189872514295" lon="10.78527267269011"><ele>1212.0</ele><time>2026-04-01T12:15:59Z</time></trkpt><trkpt lat="45.64198804019599" lon="10.78531465318237"><ele>1214.5</ele><time>2026-04-01T12:16:01Z</time></trkpt><trkpt lat="45.64208241336529" lon="10.785335940948325"><ele>1217.0</ele><time>2026-04-01T12:16:03Z</time></trkpt><trkpt lat="45.64215794439349" lon="10.78534535228645"><ele>1219.5</ele><time>2026-04-01T12:16:05Z</time></trkpt><trkpt lat="45.642227383113585" lon="10.785358639911916"><ele>1222.0</ele><time>2026-04-01T12:16:06Z</time></trkpt><trkpt lat="45.642297038374764" lon="10.785360574621873"><ele>1224.5</ele><time>2026-04-01T12:16:06.999Z</time></trkpt><trkpt lat="45.64237152193535" lon="10.785357625306277"><ele>1227.0</ele><time>2026-04-01T12:16:07.999Z</time></trkpt><trkpt lat="45.64244531373628" lon="10.785353366421594"><ele>1227.0</ele><time>2026-04-01T12:16:08.999Z</time></trkpt><trkpt lat="45.642551747306456" lon="10.785343362746849"><ele>1227.0</ele><time>2026-04-01T12:16:10.999Z</time></trkpt><trkpt lat="45.64263403012713" lon="10.785382803510704"><ele>1227.0</ele><time>2026-04-01T12:16:12.999Z</time></trkpt><trkpt lat="45.642717054204994" lon="10.785474879728266"><ele>1227.0</ele><time>2026-04-01T12:16:15.999Z</time></trkpt><trkpt lat="45.642749540654194" lon="10.785553672453347"><ele>1227.0</ele><time>2026-04-01T12:16:16.999Z</time></trkpt><trkpt lat="45.64281686805077" lon="10.78565942349127"><ele>1229.0</ele><time>2026-04-01T12:16:18.999Z</time></trkpt><trkpt lat="45.64286927686855" lon="10.785738534116113"><ele>1231.0</ele><time>2026-04-01T12:16:19.999Z</time></trkpt><trkpt lat="45.64292893924805" lon="10.785813334149829"><ele>1233.0</ele><time>2026-04-01T12:16:20.999Z</time></trkpt><trkpt lat="45.64299382110017" lon="10.7858964999335"><ele>1235.0</ele><time>2026-04-01T12:16:21.999Z</time></trkpt><trkpt lat="45.64305555679646" lon="10.785989723843702"><ele>1237.0</ele><time>2026-04-01T12:16:22.999Z</time></trkpt><trkpt lat="45.64310543632485" lon="10.786062599027327"><ele>1239.0</ele><time>2026-04-01T12:16:23.999Z</time></trkpt><trkpt lat="45.64318030854651" lon="10.78619395748465"><ele>1242.2</ele><time>2026-04-01T12:16:25.999Z</time></trkpt><trkpt lat="45.643255598747594" lon="10.786295369963192"><ele>1245.4</ele><time>2026-04-01T12:16:27.999Z</time></trkpt><trkpt lat="45.64333095812193" lon="10.786344786052407"><ele>1248.6</ele><time>2026-04-01T12:16:28.999Z</time></trkpt><trkpt lat="45.64341352604714" lon="10.786433984458528"><ele>1251.8</ele><time>2026-04-01T12:16:30.999Z</time></trkpt><trkpt lat="45.64349316930094" lon="10.786536867582864"><ele>1255.0</ele><time>2026-04-01T12:16:32.999Z</time></trkpt><trkpt lat="45.64356061413321" lon="10.786639302481225"><ele>1255.2</ele><time>2026-04-01T12:16:34.999Z</time></trkpt><trkpt lat="45.643634811777744" lon="10.786765271626553"><ele>1255.4</ele><time>2026-04-01T12:16:36.999Z</time></trkpt><trkpt lat="45.64368578378391" lon="10.786887074814642"><ele>1255.6</ele><time>2026-04-01T12:16:38.999Z</time></trkpt><trkpt lat="45.64372408687485" lon="10.786994756256535"><ele>1255.8</ele><time>2026-04-01T12:16:40.999Z</time></trkpt><trkpt lat="45.643749669355444" lon="10.787108721969249"><ele>1256.0</ele><time>2026-04-01T12:16:42.999Z</time></trkpt><trkpt lat="45.643781835546385" lon="10.78727786926347"><ele>1258.5</ele><time>2026-04-01T12:16:44.999Z</time></trkpt><trkpt lat="45.64378996062433" lon="10.787367908561855"><ele>1261.0</ele><time>2026-04-01T12:16:45.999Z</time></trkpt><trkpt lat="45.64379700545405" lon="10.787462930448731"><ele>1263.5</ele><time>2026-04-01T12:16:46.999Z</time></trkpt><trkpt lat="45.643728689816705" lon="10.787571164873965"><ele>1266.0</ele><time>2026-04-01T12:16:49.999Z</time></trkpt><trkpt lat="45.64367120667716" lon="10.787615372041614"><ele>1268.5</ele><time>2026-04-01T12:16:50.999Z</time></trkpt><trkpt lat="45.643593314950834" lon="10.787762134871102"><ele>1271.0</ele><time>2026-04-01T12:16:52.999Z</time></trkpt><trkpt lat="45.64358865167092" lon="10.787883652791555"><ele>1272.3999999999999</ele><time>2026-04-01T12:16:53.999Z</time></trkpt><trkpt lat="45.643595240855475" lon="10.788017378612556"><ele>1273.8</ele><time>2026-04-01T12:16:54.999Z</time></trkpt><trkpt lat="45.643602001844826" lon="10.788141810434624"><ele>1275.1999999999998</ele><time>2026-04-01T12:16:55.999Z</time></trkpt><trkpt lat="45.64356909135748" lon="10.788314440525255"><ele>1276.6</ele><time>2026-04-01T12:16:57.999Z</time></trkpt><trkpt lat="45.643530617177746" lon="10.788454825159794"><ele>1278.0</ele><time>2026-04-01T12:16:59.999Z</time></trkpt><trkpt lat="45.64357821266803" lon="10.788542057177319"><ele>1278.0</ele><time>2026-04-01T12:17:20Z</time></trkpt><trkpt lat="45.64357046630063" lon="10.788450649624936"><ele>1278.0</ele><time>2026-04-01T12:20:00Z</time></trkpt><trkpt lat="45.64354565716541" lon="10.788552788627925"><ele>1278.0</ele><time>2026-04-01T12:20:02Z</time></trkpt><trkpt lat="45.64353060185726" lon="10.788703563887795"><ele>1278.0</ele><time>2026-04-01T12:20:04Z</time></trkpt><trkpt lat="45.643505691902156" lon="10.78882414690279"><ele>1278.0</ele><time>2026-04-01T12:20:06Z</time></trkpt><trkpt lat="45.64351303571503" lon="10.788955762727596"><ele>1278.0</ele><time>2026-04-01T12:20:08.999Z</time></trkpt><trkpt lat="45.64352326295495" lon="10.789048598142063"><ele>1279.857142857143</ele><time>2026-04-01T12:20:11.999Z</time></trkpt><trkpt lat="45.64354802213208" lon="10.789156865230666"><ele>1281.7142857142858</ele><time>2026-04-01T12:20:14.999Z</time></trkpt><trkpt lat="45.64355995604826" lon="10.789249120532467"><ele>1283.5714285714284</ele><time>2026-04-01T12:20:17.999Z</time></trkpt><trkpt lat="45.64361810774658" lon="10.789310703405109"><ele>1285.4285714285716</ele><time>2026-04-01T12:20:22.999Z</time></trkpt><trkpt lat="45.64364698492293" lon="10.789442029698748"><ele>1287.2857142857142</ele><time>2026-04-01T12:20:26.999Z</time></trkpt><trkpt lat="45.643628680537674" lon="10.789538060227489"><ele>1289.142857142857</ele><time>2026-04-01T12:22:38.999Z</time></trkpt><trkpt lat="45.64362453425114" lon="10.78962891148962"><ele>1291.0</ele><time>2026-04-01T12:22:41.999Z</time></trkpt><trkpt lat="45.64363763071247" lon="10.78976223336056"><ele>1292.0</ele><time>2026-04-01T12:22:43.999Z</time></trkpt><trkpt lat="45.64369722150477" lon="10.789887542734277"><ele>1293.0</ele><time>2026-04-01T12:22:45.999Z</time></trkpt><trkpt lat="45.64374357216444" lon="10.789963023090444"><ele>1294.0</ele><time>2026-04-01T12:22:47.999Z</time></trkpt><trkpt lat="45.64379156268966" lon="10.790045777509238"><ele>1295.0</ele><time>2026-04-01T12:22:49.999Z</time></trkpt><trkpt lat="45.64385130526585" lon="10.790146522256338"><ele>1296.0</ele><time>2026-04-01T12:22:52.999Z</time></trkpt><trkpt lat="45.64388637155153" lon="10.790257405902409"><ele>1297.0</ele><time>2026-04-01T12:22:54.999Z</time></trkpt><trkpt lat="45.643917125679096" lon="10.790388212909015"><ele>1300.1666666666665</ele><time>2026-04-01T12:22:56.999Z</time></trkpt><trkpt lat="45.64397187006259" lon="10.790465065822094"><ele>1303.3333333333333</ele><time>2026-04-01T12:22:58.999Z</time></trkpt><trkpt lat="45.64403593029605" lon="10.79050065812136"><ele>1306.5</ele><time>2026-04-01T12:23:00.999Z</time></trkpt><trkpt lat="45.644118207485306" lon="10.790538552112638"><ele>1309.6666666666667</ele><time>2026-04-01T12:23:02.999Z</time></trkpt><trkpt lat="45.64422957784748" lon="10.790580131254012"><ele>1312.8333333333335</ele><time>2026-04-01T12:23:06.999Z</time></trkpt><trkpt lat="45.644285330850806" lon="10.790655659110136"><ele>1316.0</ele><time>2026-04-01T12:23:09.999Z</time></trkpt><trkpt lat="45.64435240382345" lon="10.790703222910663"><ele>1316.0</ele><time>2026-04-01T12:23:11.999Z</time></trkpt><trkpt lat="45.64440911311552" lon="10.79076661942083"><ele>1316.0</ele><time>2026-04-01T12:23:13.999Z</time></trkpt><trkpt lat="45.64445747420066" lon="10.790826209994174"><ele>1316.0</ele><time>2026-04-01T12:23:15.999Z</time></trkpt><trkpt lat="45.644527028645165" lon="10.790913621239106"><ele>1316.0</ele><time>2026-04-01T12:23:17.999Z</time></trkpt><trkpt lat="45.64459295054202" lon="10.791027916633018"><ele>1316.0</ele><time>2026-04-01T12:23:19.999Z</time></trkpt><trkpt lat="45.64466802898763" lon="10.79106714148463"><ele>1316.0</ele><time>2026-04-01T12:23:23.998Z</time></trkpt><trkpt lat="45.64473459791059" lon="10.79111927889653"><ele>1317.0</ele><time>2026-04-01T12:23:26.998Z</time></trkpt><trkpt lat="45.64477395666959" lon="10.791213486071038"><ele>1318.0</ele><time>2026-04-01T12:23:31Z</time></trkpt><trkpt lat="45.64477671061608" lon="10.791307263522835"><ele>1319.0</ele><time>2026-04-01T12:23:32Z</time></trkpt><trkpt lat="45.64479055352504" lon="10.791424510578334"><ele>1320.0</ele><time>2026-04-01T12:23:34Z</time></trkpt><trkpt lat="45.644809042608685" lon="10.791557844516392"><ele>1321.0</ele><time>2026-04-01T12:23:36Z</time></trkpt><trkpt lat="45.64482153512504" lon="10.791666228810294"><ele>1322.0</ele><time>2026-04-01T12:23:38Z</time></trkpt><trkpt lat="45.64490188218479" lon="10.791783943410573"><ele>1324.0</ele><time>2026-04-01T12:23:40Z</time></trkpt><trkpt lat="45.644974880343966" lon="10.791842673433788"><ele>1326.0</ele><time>2026-04-01T12:23:42Z</time></trkpt><trkpt lat="45.64504288105182" lon="10.791949968555322"><ele>1328.0</ele><time>2026-04-01T12:23:44Z</time></trkpt><trkpt lat="45.64512254152228" lon="10.792053746456826"><ele>1330.0</ele><time>2026-04-01T12:23:46Z</time></trkpt><trkpt lat="45.64519726708236" lon="10.792151277006344"><ele>1332.0</ele><time>2026-04-01T12:23:48Z</time></trkpt><trkpt lat="45.64524179906292" lon="10.79225087084494"><ele>1332.0</ele><time>2026-04-01T12:23:51Z</time></trkpt><trkpt lat="45.64528723560826" lon="10.792374657353623"><ele>1332.0</ele><time>2026-04-01T12:23:54Z</time></trkpt><trkpt lat="45.64533604632478" lon="10.792452109016704"><ele>1332.0</ele><time>2026-04-01T12:23:56Z</time></trkpt><trkpt lat="45.64540364736305" lon="10.792571197386199"><ele>1332.0</ele><time>2026-04-01T12:23:58Z</time></trkpt><trkpt lat="45.645456537498255" lon="10.792670876411691"><ele>1332.0</ele><time>2026-04-01T12:24:00Z</time></trkpt><trkpt lat="45.645491658767625" lon="10.792772376169177"><ele>1332.0</ele><time>2026-04-01T12:24:02Z</time></trkpt><trkpt lat="45.645488653275564" lon="10.79292287581441"><ele>1334.5</ele><time>2026-04-01T12:24:04Z</time></trkpt><trkpt lat="45.64550732639313" lon="10.79302796528074"><ele>1337.0</ele><time>2026-04-01T12:24:06Z</time></trkpt><trkpt lat="45.6455253767032" lon="10.79313892548229"><ele>1339.5</ele><time>2026-04-01T12:24:08Z</time></trkpt><trkpt lat="45.64552449844863" lon="10.793275901562236"><ele>1342.0</ele><time>2026-04-01T12:24:10Z</time></trkpt><trkpt lat="45.64557726707469" lon="10.793381348008499"><ele>1344.5</ele><time>2026-04-01T12:24:12Z</time></trkpt><trkpt lat="45.64564973558405" lon="10.7933970648098"><ele>1347.0</ele><time>2026-04-01T12:24:13.999Z</time></trkpt><trkpt lat="45.645718716124435" lon="10.79346487567365"><ele>1347.0</ele><time>2026-04-01T12:24:15.999Z</time></trkpt><trkpt lat="45.64581111972537" lon="10.793503127997813"><ele>1347.0</ele><time>2026-04-01T12:24:17.999Z</time></trkpt><trkpt lat="45.64587140791484" lon="10.793561534777808"><ele>1347.0</ele><time>2026-04-01T12:24:19.999Z</time></trkpt><trkpt lat="45.64590476472729" lon="10.793665319863454"><ele>1347.0</ele><time>2026-04-01T12:24:21.999Z</time></trkpt><trkpt lat="45.64597945873131" lon="10.793853905344433"><ele>1347.0</ele><time>2026-04-01T12:24:23.999Z</time></trkpt><trkpt lat="45.6460282256526" lon="10.793944315440385"><ele>1349.1999999999998</ele><time>2026-04-01T12:24:24.999Z</time></trkpt><trkpt lat="45.646052576756254" lon="10.794100324082084"><ele>1351.4</ele><time>2026-04-01T12:24:26.999Z</time></trkpt><trkpt lat="45.64604919790699" lon="10.794198990898924"><ele>1353.6</ele><time>2026-04-01T12:24:27.999Z</time></trkpt><trkpt lat="45.646056801560796" lon="10.794334011017568"><ele>1355.8000000000002</ele><time>2026-04-01T12:24:29.999Z</time></trkpt><trkpt lat="45.6460745490859" lon="10.794457628297568"><ele>1358.0</ele><time>2026-04-01T12:24:31.999Z</time></trkpt><trkpt lat="45.64613675800218" lon="10.794573962589723"><ele>1359.4</ele><time>2026-04-01T12:24:33.999Z</time></trkpt><trkpt lat="45.64616920703314" lon="10.794690018043061"><ele>1360.8000000000002</ele><time>2026-04-01T12:24:35.999Z</time></trkpt><trkpt lat="45.64622076384796" lon="10.794796097823777"><ele>1362.2</ele><time>2026-04-01T12:24:37.999Z</time></trkpt><trkpt lat="45.64626796831412" lon="10.794871631429197"><ele>1363.6</ele><time>2026-04-01T12:24:39.999Z</time></trkpt><trkpt lat="45.64634482845199" lon="10.794946350701462"><ele>1365.0</ele><time>2026-04-01T12:24:41.999Z</time></trkpt><trkpt lat="45.646466100179616" lon="10.7950465388845"><ele>1365.0</ele><time>2026-04-01T12:24:43.999Z</time></trkpt><trkpt lat="45.646559772314326" lon="10.79509991968143"><ele>1365.0</ele><time>2026-04-01T12:24:45.999Z</time></trkpt><trkpt lat="45.64662646061853" lon="10.795127197531542"><ele>1365.0</ele><time>2026-04-01T12:24:46.999Z</time></trkpt><trkpt lat="45.646715360857584" lon="10.795167956991396"><ele>1365.0</ele><time>2026-04-01T12:24:48.999Z</time></trkpt><trkpt lat="45.646806184702754" lon="10.795158075542327"><ele>1365.0</ele><time>2026-04-01T12:24:50.999Z</time></trkpt><trkpt lat="45.6468735973171" lon="10.795232690205516"><ele>1365.0</ele><time>2026-04-01T12:24:52.999Z</time></trkpt><trkpt lat="45.64692407714944" lon="10.795313023289772"><ele>1367.0</ele><time>2026-04-01T12:25:05.999Z</time></trkpt><trkpt lat="45.64690816584582" lon="10.795424487706025"><ele>1369.0</ele><time>2026-04-01T12:25:08.999Z</time></trkpt><trkpt lat="45.646903810788665" lon="10.795518399113007"><ele>1371.0</ele><time>2026-04-01T12:25:12.999Z</time></trkpt><trkpt lat="45.64684614549775" lon="10.795571840092858"><ele>1373.0</ele><time>2026-04-01T12:25:17.999Z</time></trkpt><trkpt lat="45.6468572726747" lon="10.795677303337026"><ele>1375.0</ele><time>2026-04-01T12:25:21.999Z</time></trkpt><trkpt lat="45.646860838063155" lon="10.795781241560398"><ele>1377.0</ele><time>2026-04-01T12:25:46Z</time></trkpt><trkpt lat="45.646848008206305" lon="10.79588443065836"><ele>1379.0</ele><time>2026-04-01T12:25:50Z</time></trkpt><trkpt lat="45.6468396592357" lon="10.795977122479153"><ele>1382.1666666666667</ele><time>2026-04-01T12:25:54Z</time></trkpt><trkpt lat="45.64677191336967" lon="10.796059122669385"><ele>1385.3333333333335</ele><time>2026-04-01T12:25:57Z</time></trkpt><trkpt lat="45.64669026676615" lon="10.796065333753521"><ele>1388.5</ele><time>2026-04-01T12:26:01Z</time></trkpt><trkpt lat="45.64661699894041" lon="10.796114935530097"><ele>1391.6666666666667</ele><time>2026-04-01T12:26:04Z</time></trkpt><trkpt lat="45.64655233916935" lon="10.796127063749521"><ele>1394.8333333333333</ele><time>2026-04-01T12:26:06Z</time></trkpt><trkpt lat="45.646477426779626" lon="10.79615770955479"><ele>1398.0</ele><time>2026-04-01T12:26:10Z</time></trkpt><trkpt lat="45.646386300598515" lon="10.796166050176765"><ele>1398.0</ele><time>2026-04-01T12:26:13Z</time></trkpt><trkpt lat="45.64630865256528" lon="10.796199222509857"><ele>1398.0</ele><time>2026-04-01T12:27:13.999Z</time></trkpt><trkpt lat="45.64620551991016" lon="10.796150519528693"><ele>1398.0</ele><time>2026-04-01T12:27:16.999Z</time></trkpt><trkpt lat="45.64612575851679" lon="10.796084244157504"><ele>1398.0</ele><time>2026-04-01T12:27:19.999Z</time></trkpt><trkpt lat="45.64606155878393" lon="10.79598486914312"><ele>1398.0</ele><time>2026-04-01T12:27:23.999Z</time></trkpt><trkpt lat="45.64600445328899" lon="10.795936039021651"><ele>1398.0</ele><time>2026-04-01T12:27:24.999Z</time></trkpt><trkpt lat="45.64595700669604" lon="10.795861810350898"><ele>1396.0</ele><time>2026-04-01T12:27:26.999Z</time></trkpt><trkpt lat="45.64590847240567" lon="10.795788304284985"><ele>1394.0</ele><time>2026-04-01T12:27:29.999Z</time></trkpt><trkpt lat="45.64584018253193" lon="10.795671815670365"><ele>1392.0</ele><time>2026-04-01T12:27:31.999Z</time></trkpt><trkpt lat="45.645770012351804" lon="10.795543990269884"><ele>1390.0</ele><time>2026-04-01T12:27:33.999Z</time></trkpt><trkpt lat="45.645737271440254" lon="10.795426310088777"><ele>1388.0</ele><time>2026-04-01T12:27:35.999Z</time></trkpt><trkpt lat="45.64570783446406" lon="10.795328469783376"><ele>1388.0</ele><time>2026-04-01T12:27:37.999Z</time></trkpt><trkpt lat="45.64564062623874" lon="10.795246770610799"><ele>1388.0</ele><time>2026-04-01T12:27:39.998Z</time></trkpt><trkpt lat="45.64555463986667" lon="10.7952569076162"><ele>1388.0</ele><time>2026-04-01T12:27:43Z</time></trkpt><trkpt lat="45.64549048044696" lon="10.795245868275298"><ele>1388.0</ele><time>2026-04-01T12:27:44Z</time></trkpt><trkpt lat="45.64542160930025" lon="10.795282637144355"><ele>1388.0</ele><time>2026-04-01T12:27:50Z</time></trkpt><trkpt lat="45.64536498507514" lon="10.79533918110855"><ele>1388.0</ele><time>2026-04-01T12:27:52Z</time></trkpt><trkpt lat="45.64529423171593" lon="10.795392032223806"><ele>1390.0</ele><time>2026-04-01T12:27:54Z</time></trkpt><trkpt lat="45.64518383351323" lon="10.795412345168605"><ele>1392.0</ele><time>2026-04-01T12:27:56Z</time></trkpt><trkpt lat="45.645070149535265" lon="10.795420864319633"><ele>1394.0</ele><time>2026-04-01T12:27:58Z</time></trkpt><trkpt lat="45.64500294547882" lon="10.795428757706315"><ele>1396.0</ele><time>2026-04-01T12:27:59Z</time></trkpt><trkpt lat="45.644894131772084" lon="10.79542651432234"><ele>1398.0</ele><time>2026-04-01T12:28:01Z</time></trkpt><trkpt lat="45.64481174451493" lon="10.795437410579899"><ele>1398.0</ele><time>2026-04-01T12:28:04Z</time></trkpt><trkpt lat="45.644753435183226" lon="10.795483510757402"><ele>1398.0</ele><time>2026-04-01T12:28:06Z</time></trkpt><trkpt lat="45.644657098895955" lon="10.795483158082817"><ele>1398.0</ele><time>2026-04-01T12:28:08Z</time></trkpt><trkpt lat="45.64459613648379" lon="10.795531096471972"><ele>1398.0</ele><time>2026-04-01T12:28:10Z</time></trkpt><trkpt lat="45.64449952212046" lon="10.795607535683903"><ele>1398.0</ele><time>2026-04-01T12:28:13Z</time></trkpt><trkpt lat="45.64438537832087" lon="10.795633233502583"><ele>1396.1666666666667</ele><time>2026-04-01T12:28:15Z</time></trkpt><trkpt lat="45.64426854084939" lon="10.795644930093712"><ele>1394.3333333333333</ele><time>2026-04-01T12:28:17Z</time></trkpt><trkpt lat="45.64419211874576" lon="10.795682441364725"><ele>1392.5</ele><time>2026-04-01T12:28:20Z</time></trkpt><trkpt lat="45.64415464954112" lon="10.795757911221095"><ele>1390.6666666666665</ele><time>2026-04-01T12:29:39.999Z</time></trkpt><trkpt lat="45.64417127858392" lon="10.795861481460193"><ele>1388.8333333333333</ele><time>2026-04-01T12:29:43.998Z</time></trkpt><trkpt lat="45.64419844205999" lon="10.795957692768736"><ele>1387.0</ele><time>2026-04-01T12:29:48Z</time></trkpt><trkpt lat="45.644219241167214" lon="10.796076049461604"><ele>1386.1666666666665</ele><time>2026-04-01T12:29:51Z</time></trkpt><trkpt lat="45.64426462489133" lon="10.796208738955135"><ele>1385.3333333333333</ele><time>2026-04-01T12:29:55Z</time></trkpt><trkpt lat="45.644322309356276" lon="10.79628030892788"><ele>1384.5</ele><time>2026-04-01T12:29:57Z</time></trkpt><trkpt lat="45.64434982886923" lon="10.796382280287888"><ele>1383.6666666666667</ele><time>2026-04-01T12:30:01Z</time></trkpt><trkpt lat="45.64438683257012" lon="10.796469276881705"><ele>1382.8333333333335</ele><time>2026-04-01T12:30:10Z</time></trkpt><trkpt lat="45.64441726473314" lon="10.796570346851315"><ele>1382.0</ele><time>2026-04-01T12:30:19Z</time></trkpt><trkpt lat="45.64443940861191" lon="10.796658232697776"><ele>1386.75</ele><time>2026-04-01T12:30:22Z</time></trkpt><trkpt lat="45.64448302390567" lon="10.796760044389973"><ele>1391.5</ele><time>2026-04-01T12:30:25Z</time></trkpt><trkpt lat="45.644620266356476" lon="10.796980135856574"><ele>1396.25</ele><time>2026-04-01T12:30:27Z</time></trkpt><trkpt lat="45.644693800977954" lon="10.797025479243603"><ele>1401.0</ele><time>2026-04-01T12:30:29Z</time></trkpt><trkpt lat="45.6447934935428" lon="10.79711907803811"><ele>1401.0</ele><time>2026-04-01T12:30:31Z</time></trkpt><trkpt lat="45.64484472755536" lon="10.797238911079177"><ele>1401.0</ele><time>2026-04-01T12:30:32.999Z</time></trkpt><trkpt lat="45.6448828164168" lon="10.797321267850355"><ele>1401.0</ele><time>2026-04-01T12:30:33.999Z</time></trkpt><trkpt lat="45.64494339416887" lon="10.79738382390348"><ele>1401.0</ele><time>2026-04-01T12:30:34.999Z</time></trkpt><trkpt lat="45.64504316015649" lon="10.797452836971514"><ele>1401.0</ele><time>2026-04-01T12:30:36.999Z</time></trkpt><trkpt lat="45.64510434808327" lon="10.797505140125349"><ele>1401.0</ele><time>2026-04-01T12:30:37.999Z</time></trkpt><trkpt lat="45.645197468576434" lon="10.797619274685683"><ele>1401.0</ele><time>2026-04-01T12:30:39.999Z</time></trkpt><trkpt lat="45.645257295876696" lon="10.797666206244473"><ele>1401.0</ele><time>2026-04-01T12:30:40.999Z</time></trkpt><trkpt lat="45.645318206043555" lon="10.79770299763426"><ele>1401.0</ele><time>2026-04-01T12:30:41.999Z</time></trkpt><trkpt lat="45.645423833823514" lon="10.797788739575727"><ele>1401.0</ele><time>2026-04-01T12:30:43.999Z</time></trkpt><trkpt lat="45.64550100822007" lon="10.797886365522828"><ele>1401.0</ele><time>2026-04-01T12:30:45.999Z</time></trkpt><trkpt lat="45.645548841618805" lon="10.797952248297022"><ele>1401.0</ele><time>2026-04-01T12:30:46.999Z</time></trkpt><trkpt lat="45.645603425377786" lon="10.798001271340247"><ele>1403.6666666666667</ele><time>2026-04-01T12:30:47.999Z</time></trkpt><trkpt lat="45.64565551560942" lon="10.798053987941604"><ele>1406.3333333333333</ele><time>2026-04-01T12:30:48.999Z</time></trkpt><trkpt lat="45.64572010304689" lon="10.798115252615794"><ele>1409.0</ele><time>2026-04-01T12:30:49.999Z</time></trkpt><trkpt lat="45.64580701124589" lon="10.798183252889128"><ele>1411.6666666666665</ele><time>2026-04-01T12:30:51.999Z</time></trkpt><trkpt lat="45.64587218616817" lon="10.798209262309065"><ele>1414.3333333333333</ele><time>2026-04-01T12:30:52.999Z</time></trkpt><trkpt lat="45.645968203191984" lon="10.79828202784765"><ele>1417.0</ele><time>2026-04-01T12:30:54.999Z</time></trkpt><trkpt lat="45.646023161808614" lon="10.798375101286833"><ele>1417.0</ele><time>2026-04-01T12:30:56.999Z</time></trkpt><trkpt lat="45.646086358227635" lon="10.798456133359721"><ele>1417.0</ele><time>2026-04-01T12:30:58.999Z</time></trkpt><trkpt lat="45.64618155774628" lon="10.798556988291251"><ele>1417.0</ele><time>2026-04-01T12:31:01.999Z</time></trkpt><trkpt lat="45.64624767057002" lon="10.798625079275652"><ele>1417.0</ele><time>2026-04-01T12:31:03.999Z</time></trkpt><trkpt lat="45.64629529896484" lon="10.798699913408647"><ele>1417.0</ele><time>2026-04-01T12:31:05.999Z</time></trkpt><trkpt lat="45.64636629787606" lon="10.798754220245591"><ele>1417.0</ele><time>2026-04-01T12:31:08.999Z</time></trkpt><trkpt lat="45.64642911370868" lon="10.798814646871314"><ele>1420.0</ele><time>2026-04-01T12:31:11.999Z</time></trkpt><trkpt lat="45.6464889117944" lon="10.798884775090182"><ele>1423.0</ele><time>2026-04-01T12:31:14.999Z</time></trkpt><trkpt lat="45.64652843534262" lon="10.798975341410474"><ele>1426.0</ele><time>2026-04-01T12:31:17.999Z</time></trkpt><trkpt lat="45.64657898751886" lon="10.79905982625978"><ele>1429.0</ele><time>2026-04-01T12:31:20.999Z</time></trkpt><trkpt lat="45.64661028293603" lon="10.799145886359529"><ele>1432.0</ele><time>2026-04-01T12:31:22.999Z</time></trkpt><trkpt lat="45.64666871433411" lon="10.799213108754234"><ele>1435.0</ele><time>2026-04-01T12:31:24.999Z</time></trkpt><trkpt lat="45.64674342929367" lon="10.799290881898758"><ele>1437.0</ele><time>2026-04-01T12:31:26.999Z</time></trkpt><trkpt lat="45.64681036425529" lon="10.799397144314339"><ele>1439.0</ele><time>2026-04-01T12:31:28.999Z</time></trkpt><trkpt lat="45.64686218874195" lon="10.799471579974831"><ele>1441.0</ele><time>2026-04-01T12:31:31.999Z</time></trkpt><trkpt lat="45.64692007972789" lon="10.799542301696109"><ele>1443.0</ele><time>2026-04-01T12:31:34.999Z</time></trkpt><trkpt lat="45.64696331214326" lon="10.79962043852517"><ele>1445.0</ele><time>2026-04-01T12:31:36.999Z</time></trkpt><trkpt lat="45.647025736740055" lon="10.799713235067028"><ele>1447.0</ele><time>2026-04-01T12:31:40.999Z</time></trkpt><trkpt lat="45.64708651485017" lon="10.799773726164016"><ele>1448.6666666666665</ele><time>2026-04-01T12:31:42.998Z</time></trkpt><trkpt lat="45.64715742981438" lon="10.79984293452211"><ele>1450.3333333333333</ele><time>2026-04-01T12:31:44.998Z</time></trkpt><trkpt lat="45.64720568545318" lon="10.799913021115344"><ele>1452.0</ele><time>2026-04-01T12:31:46.998Z</time></trkpt><trkpt lat="45.64723924815618" lon="10.800011140282093"><ele>1453.6666666666667</ele><time>2026-04-01T12:31:48.998Z</time></trkpt><trkpt lat="45.647253777523204" lon="10.800123609240222"><ele>1455.3333333333335</ele><time>2026-04-01T12:31:50.998Z</time></trkpt><trkpt lat="45.64732236227541" lon="10.800242224376303"><ele>1457.0</ele><time>2026-04-01T12:31:54Z</time></trkpt><trkpt lat="45.64740818771249" lon="10.800326640860447"><ele>1457.8333333333335</ele><time>2026-04-01T12:31:56Z</time></trkpt><trkpt lat="45.64746660323624" lon="10.800400585780558"><ele>1458.6666666666667</ele><time>2026-04-01T12:31:57Z</time></trkpt><trkpt lat="45.64750803092384" lon="10.800468898342471"><ele>1459.5</ele><time>2026-04-01T12:31:58Z</time></trkpt><trkpt lat="45.64759434499042" lon="10.800578733605686"><ele>1460.3333333333333</ele><time>2026-04-01T12:32:00Z</time></trkpt><trkpt lat="45.64767331162486" lon="10.80066055413679"><ele>1461.1666666666665</ele><time>2026-04-01T12:32:02Z</time></trkpt><trkpt lat="45.64771675612257" lon="10.80075284382209"><ele>1462.0</ele><time>2026-04-01T12:32:05Z</time></trkpt><trkpt lat="45.647766154032226" lon="10.800814018652407"><ele>1464.0</ele><time>2026-04-01T12:32:20Z</time></trkpt><trkpt lat="45.64782015317607" lon="10.800909998982789"><ele>1466.0</ele><time>2026-04-01T12:32:24Z</time></trkpt><trkpt lat="45.64786298032977" lon="10.800995395689407"><ele>1468.0</ele><time>2026-04-01T12:32:27Z</time></trkpt><trkpt lat="45.64788672288923" lon="10.801092320939263"><ele>1470.0</ele><time>2026-04-01T12:32:29Z</time></trkpt><trkpt lat="45.647839902751166" lon="10.801167101719537"><ele>1472.0</ele><time>2026-04-01T12:33:02.999Z</time></trkpt><trkpt lat="45.64777104719293" lon="10.801120334218636"><ele>1474.0</ele><time>2026-04-01T12:33:04.999Z</time></trkpt><trkpt lat="45.647722540637105" lon="10.801026243916182"><ele>1474.0</ele><time>2026-04-01T12:33:07.999Z</time></trkpt><trkpt lat="45.647727970507425" lon="10.800925899605863"><ele>1474.0</ele><time>2026-04-01T12:33:13.999Z</time></trkpt><trkpt lat="45.647804341059285" lon="10.800967248664334"><ele>1474.0</ele><time>2026-04-01T12:33:26.999Z</time></trkpt><trkpt lat="45.64785905772427" lon="10.801036655879596"><ele>1474.0</ele><time>2026-04-01T12:33:30.999Z</time></trkpt><trkpt lat="45.64782759171006" lon="10.80092802473201"><ele>1474.0</ele><time>2026-04-01T12:33:38.999Z</time></trkpt><trkpt lat="45.647781335294994" lon="10.800845271973898"><ele>1474.0</ele><time>2026-04-01T12:33:43.999Z</time></trkpt><trkpt lat="45.647738659794754" lon="10.800744943545613"><ele>1471.6</ele><time>2026-04-01T12:33:49.999Z</time></trkpt><trkpt lat="45.647677020638305" lon="10.800669596421924"><ele>1469.2</ele><time>2026-04-01T12:33:53.999Z</time></trkpt><trkpt lat="45.64762678063636" lon="10.800605801672965"><ele>1466.8</ele><time>2026-04-01T12:33:56.998Z</time></trkpt><trkpt lat="45.64754109012037" lon="10.80050877586759"><ele>1464.3999999999999</ele><time>2026-04-01T12:34:00Z</time></trkpt><trkpt lat="45.647429794046516" lon="10.800345284109312"><ele>1462.0</ele><time>2026-04-01T12:34:01Z</time></trkpt><trkpt lat="45.6473580068361" lon="10.800231782846538"><ele>1461.2857142857142</ele><time>2026-04-01T12:34:02Z</time></trkpt><trkpt lat="45.647303094250695" lon="10.800137649291104"><ele>1460.5714285714284</ele><time>2026-04-01T12:34:03Z</time></trkpt><trkpt lat="45.647274198816255" lon="10.80005425556796"><ele>1459.857142857143</ele><time>2026-04-01T12:34:04Z</time></trkpt><trkpt lat="45.64724062101487" lon="10.79997015118851"><ele>1459.142857142857</ele><time>2026-04-01T12:34:06Z</time></trkpt><trkpt lat="45.64719052808012" lon="10.799889150807768"><ele>1458.4285714285716</ele><time>2026-04-01T12:34:08Z</time></trkpt><trkpt lat="45.647139978146384" lon="10.799809466782898"><ele>1457.7142857142858</ele><time>2026-04-01T12:34:11Z</time></trkpt><trkpt lat="45.64708835195291" lon="10.799757632220436"><ele>1457.0</ele><time>2026-04-01T12:34:13Z</time></trkpt><trkpt lat="45.64700804671966" lon="10.799681896662078"><ele>1457.0</ele><time>2026-04-01T12:34:15Z</time></trkpt><trkpt lat="45.64697139384977" lon="10.799597256748383"><ele>1457.0</ele><time>2026-04-01T12:34:18Z</time></trkpt><trkpt lat="45.64692532199411" lon="10.799525234622344"><ele>1457.0</ele><time>2026-04-01T12:34:21Z</time></trkpt><trkpt lat="45.64686092612079" lon="10.799466984291191"><ele>1457.0</ele><time>2026-04-01T12:34:25Z</time></trkpt><trkpt lat="45.64681784616155" lon="10.799399928160003"><ele>1457.0</ele><time>2026-04-01T12:34:27Z</time></trkpt><trkpt lat="45.646755993305206" lon="10.79931861436851"><ele>1457.0</ele><time>2026-04-01T12:34:29Z</time></trkpt><trkpt lat="45.64667345844329" lon="10.799211522879103"><ele>1453.3333333333335</ele><time>2026-04-01T12:34:31Z</time></trkpt><trkpt lat="45.64662570683921" lon="10.799115251425539"><ele>1449.6666666666667</ele><time>2026-04-01T12:34:33Z</time></trkpt><trkpt lat="45.64657735759185" lon="10.799055238256889"><ele>1446.0</ele><time>2026-04-01T12:34:35Z</time></trkpt><trkpt lat="45.646504599829335" lon="10.798982512888164"><ele>1442.3333333333333</ele><time>2026-04-01T12:34:37Z</time></trkpt><trkpt lat="45.64644492452235" lon="10.798902429326375"><ele>1438.6666666666665</ele><time>2026-04-01T12:34:40Z</time></trkpt><trkpt lat="45.64638841967449" lon="10.798805828146742"><ele>1435.0</ele><time>2026-04-01T12:34:43Z</time></trkpt><trkpt lat="45.64632632300666" lon="10.798714664534954"><ele>1435.0</ele><time>2026-04-01T12:34:46Z</time></trkpt><trkpt lat="45.64626772703772" lon="10.798641659021982"><ele>1435.0</ele><time>2026-04-01T12:34:48Z</time></trkpt><trkpt lat="45.64619145403939" lon="10.798572440212805"><ele>1435.0</ele><time>2026-04-01T12:34:49.999Z</time></trkpt><trkpt lat="45.6461326888484" lon="10.798523277057424"><ele>1435.0</ele><time>2026-04-01T12:34:50.999Z</time></trkpt><trkpt lat="45.64607465085744" lon="10.798455030445687"><ele>1435.0</ele><time>2026-04-01T12:34:52.999Z</time></trkpt><trkpt lat="45.646016903717616" lon="10.798381075283181"><ele>1435.0</ele><time>2026-04-01T12:34:54.999Z</time></trkpt><trkpt lat="45.645954675441466" lon="10.798293056095984"><ele>1431.4</ele><time>2026-04-01T12:34:56.999Z</time></trkpt><trkpt lat="45.64586118325142" lon="10.798223060275905"><ele>1427.8</ele><time>2026-04-01T12:34:58.999Z</time></trkpt><trkpt lat="45.64576195697612" lon="10.798163485081416"><ele>1424.1999999999998</ele><time>2026-04-01T12:35:00.999Z</time></trkpt><trkpt lat="45.64567177289244" lon="10.798074123836617"><ele>1420.6</ele><time>2026-04-01T12:35:02.999Z</time></trkpt><trkpt lat="45.64559397067635" lon="10.797979451626672"><ele>1417.0</ele><time>2026-04-01T12:35:04.999Z</time></trkpt><trkpt lat="45.64551403217094" lon="10.797894947253894"><ele>1417.0</ele><time>2026-04-01T12:35:06.999Z</time></trkpt><trkpt lat="45.645426067582484" lon="10.797809667133532"><ele>1417.0</ele><time>2026-04-01T12:35:08.999Z</time></trkpt><trkpt lat="45.64534075726576" lon="10.797729845275617"><ele>1417.0</ele><time>2026-04-01T12:35:10.999Z</time></trkpt><trkpt lat="45.645275339964044" lon="10.797703768051273"><ele>1417.0</ele><time>2026-04-01T12:35:11.999Z</time></trkpt><trkpt lat="45.645209252580756" lon="10.797651321839329"><ele>1417.0</ele><time>2026-04-01T12:35:12.999Z</time></trkpt><trkpt lat="45.64515705084517" lon="10.797586359223411"><ele>1417.0</ele><time>2026-04-01T12:35:13.999Z</time></trkpt><trkpt lat="45.64510096063029" lon="10.797536765225846"><ele>1413.8</ele><time>2026-04-01T12:35:14.999Z</time></trkpt><trkpt lat="45.645040829851624" lon="10.797482520305044"><ele>1410.6</ele><time>2026-04-01T12:35:15.999Z</time></trkpt><trkpt lat="45.64491683403712" lon="10.797415340163969"><ele>1407.3999999999999</ele><time>2026-04-01T12:35:17.999Z</time></trkpt><trkpt lat="45.64481794416412" lon="10.797362255936712"><ele>1404.1999999999998</ele><time>2026-04-01T12:35:19.999Z</time></trkpt><trkpt lat="45.644733922060595" lon="10.79730914757996"><ele>1401.0</ele><time>2026-04-01T12:35:21.999Z</time></trkpt><trkpt lat="45.644625054590136" lon="10.797260930250237"><ele>1401.0</ele><time>2026-04-01T12:35:23.999Z</time></trkpt><trkpt lat="45.64454687065651" lon="10.797248104233196"><ele>1401.0</ele><time>2026-04-01T12:35:31.999Z</time></trkpt><trkpt lat="45.64447324436329" lon="10.79725224418108"><ele>1401.0</ele><time>2026-04-01T12:35:33.999Z</time></trkpt><trkpt lat="45.64436805641589" lon="10.797211999012212"><ele>1401.0</ele><time>2026-04-01T12:35:35.999Z</time></trkpt><trkpt lat="45.644302489712025" lon="10.797193258895202"><ele>1401.0</ele><time>2026-04-01T12:35:36.999Z</time></trkpt><trkpt lat="45.64418607978798" lon="10.79717493093034"><ele>1401.0</ele><time>2026-04-01T12:35:38.999Z</time></trkpt><trkpt lat="45.64408560675329" lon="10.797189509567346"><ele>1399.0</ele><time>2026-04-01T12:35:40.999Z</time></trkpt><trkpt lat="45.64400956286838" lon="10.79718024607064"><ele>1397.0</ele><time>2026-04-01T12:35:43.999Z</time></trkpt><trkpt lat="45.6439782208935" lon="10.797088663625733"><ele>1395.0</ele><time>2026-04-01T12:35:46.999Z</time></trkpt><trkpt lat="45.64395993479324" lon="10.796968099344575"><ele>1393.0</ele><time>2026-04-01T12:35:50.999Z</time></trkpt><trkpt lat="45.64395280163186" lon="10.796863523763843"><ele>1391.0</ele><time>2026-04-01T12:35:53.999Z</time></trkpt><trkpt lat="45.643944112233434" lon="10.796755638173407"><ele>1389.0</ele><time>2026-04-01T12:35:55.999Z</time></trkpt><trkpt lat="45.643938637349336" lon="10.796664349617714"><ele>1387.0</ele><time>2026-04-01T12:35:57.999Z</time></trkpt><trkpt lat="45.643920433221645" lon="10.796562866649555"><ele>1386.1666666666665</ele><time>2026-04-01T12:35:59.999Z</time></trkpt><trkpt lat="45.6438592268788" lon="10.796479201025509"><ele>1385.3333333333333</ele><time>2026-04-01T12:36:01.999Z</time></trkpt><trkpt lat="45.64379662571626" lon="10.79643454792326"><ele>1384.5</ele><time>2026-04-01T12:36:03.998Z</time></trkpt><trkpt lat="45.643684404859776" lon="10.796379132560922"><ele>1383.6666666666667</ele><time>2026-04-01T12:36:06Z</time></trkpt><trkpt lat="45.64360821698202" lon="10.79635197035118"><ele>1382.8333333333335</ele><time>2026-04-01T12:36:08Z</time></trkpt><trkpt lat="45.64353558533814" lon="10.796270172876335"><ele>1382.0</ele><time>2026-04-01T12:36:11Z</time></trkpt><trkpt lat="45.64347875331608" lon="10.796187841195579"><ele>1376.6</ele><time>2026-04-01T12:36:14Z</time></trkpt><trkpt lat="45.6434398633733" lon="10.796084932128496"><ele>1371.1999999999998</ele><time>2026-04-01T12:36:16Z</time></trkpt><trkpt lat="45.643395377027836" lon="10.795991264816049"><ele>1365.8</ele><time>2026-04-01T12:36:18Z</time></trkpt><trkpt lat="45.64330689716207" lon="10.795916608502312"><ele>1360.4</ele><time>2026-04-01T12:36:20Z</time></trkpt><trkpt lat="45.64321514556144" lon="10.795859139558848"><ele>1355.0</ele><time>2026-04-01T12:36:22Z</time></trkpt><trkpt lat="45.643173187018704" lon="10.795736453407601"><ele>1354.8333333333335</ele><time>2026-04-01T12:36:24Z</time></trkpt><trkpt lat="45.64308399151847" lon="10.795607006945712"><ele>1354.6666666666667</ele><time>2026-04-01T12:36:26Z</time></trkpt><trkpt lat="45.64301707273302" lon="10.79553737180494"><ele>1354.5</ele><time>2026-04-01T12:36:27Z</time></trkpt><trkpt lat="45.64294628770632" lon="10.795463057186721"><ele>1354.3333333333333</ele><time>2026-04-01T12:36:28Z</time></trkpt><trkpt lat="45.64288357129734" lon="10.795404630518334"><ele>1354.1666666666665</ele><time>2026-04-01T12:36:29Z</time></trkpt><trkpt lat="45.64282716385424" lon="10.795347642349084"><ele>1354.0</ele><time>2026-04-01T12:36:30Z</time></trkpt><trkpt lat="45.64273028519132" lon="10.795244505258918"><ele>1351.1666666666665</ele><time>2026-04-01T12:36:32Z</time></trkpt><trkpt lat="45.64267858460762" lon="10.795182928198928"><ele>1348.3333333333333</ele><time>2026-04-01T12:36:33Z</time></trkpt><trkpt lat="45.64261039119871" lon="10.79510414604524"><ele>1345.5</ele><time>2026-04-01T12:36:34Z</time></trkpt><trkpt lat="45.64254300309277" lon="10.795035344051088"><ele>1342.6666666666667</ele><time>2026-04-01T12:36:35Z</time></trkpt><trkpt lat="45.64243878657301" lon="10.794973893494037"><ele>1339.8333333333335</ele><time>2026-04-01T12:36:37Z</time></trkpt><trkpt lat="45.64238078337623" lon="10.794925028460531"><ele>1337.0</ele><time>2026-04-01T12:36:38Z</time></trkpt><trkpt lat="45.64229987128791" lon="10.794866227061359"><ele>1337.0</ele><time>2026-04-01T12:36:39Z</time></trkpt><trkpt lat="45.64222448843122" lon="10.794803495065583"><ele>1337.0</ele><time>2026-04-01T12:36:40Z</time></trkpt><trkpt lat="45.64215480082117" lon="10.794734355192446"><ele>1337.0</ele><time>2026-04-01T12:36:41Z</time></trkpt><trkpt lat="45.64209779376132" lon="10.794684196246768"><ele>1337.0</ele><time>2026-04-01T12:36:42Z</time></trkpt><trkpt lat="45.64203735388282" lon="10.794608988429552"><ele>1337.0</ele><time>2026-04-01T12:36:44Z</time></trkpt><trkpt lat="45.64200204195338" lon="10.794528551201008"><ele>1337.0</ele><time>2026-04-01T12:36:46Z</time></trkpt><trkpt lat="45.64194902298855" lon="10.794373934709915"><ele>1334.0</ele><time>2026-04-01T12:36:48Z</time></trkpt><trkpt lat="45.641901362161114" lon="10.794280322383626"><ele>1331.0</ele><time>2026-04-01T12:36:49Z</time></trkpt><trkpt lat="45.64185062136651" lon="10.794192591705741"><ele>1328.0</ele><time>2026-04-01T12:36:50Z</time></trkpt><trkpt lat="45.641757629259374" lon="10.794113750919312"><ele>1325.0</ele><time>2026-04-01T12:36:51.999Z</time></trkpt><trkpt lat="45.64164804761895" lon="10.794079886289751"><ele>1322.0</ele><time>2026-04-01T12:36:53.999Z</time></trkpt><trkpt lat="45.64153814295353" lon="10.794012304585234"><ele>1322.0</ele><time>2026-04-01T12:36:55.999Z</time></trkpt><trkpt lat="45.64145428617583" lon="10.793958232640437"><ele>1322.0</ele><time>2026-04-01T12:36:57.999Z</time></trkpt><trkpt lat="45.64138347170197" lon="10.793975991355108"><ele>1322.0</ele><time>2026-04-01T12:36:59.999Z</time></trkpt><trkpt lat="45.64128143843701" lon="10.794020236025892"><ele>1322.0</ele><time>2026-04-01T12:37:01.999Z</time></trkpt><trkpt lat="45.641231139151735" lon="10.794095565223019"><ele>1322.0</ele><time>2026-04-01T12:37:02.999Z</time></trkpt><trkpt lat="45.64118277222959" lon="10.794177658074757"><ele>1322.0</ele><time>2026-04-01T12:37:03.999Z</time></trkpt><trkpt lat="45.641149591356935" lon="10.794271750755977"><ele>1320.8</ele><time>2026-04-01T12:37:04.999Z</time></trkpt><trkpt lat="45.64111757893105" lon="10.794371122744577"><ele>1319.6</ele><time>2026-04-01T12:37:05.999Z</time></trkpt><trkpt lat="45.641085900257494" lon="10.794476076805848"><ele>1318.3999999999999</ele><time>2026-04-01T12:37:06.999Z</time></trkpt><trkpt lat="45.641052030590664" lon="10.79459238734761"><ele>1317.1999999999998</ele><time>2026-04-01T12:37:07.999Z</time></trkpt><trkpt lat="45.64101516665054" lon="10.794726983818146"><ele>1316.0</ele><time>2026-04-01T12:37:08.999Z</time></trkpt><trkpt lat="45.640975266493" lon="10.794876421030567"><ele>1316.0</ele><time>2026-04-01T12:37:09.999Z</time></trkpt><trkpt lat="45.640947763785945" lon="10.795034561378808"><ele>1316.0</ele><time>2026-04-01T12:37:10.999Z</time></trkpt><trkpt lat="45.64096083418806" lon="10.795184466598817"><ele>1316.0</ele><time>2026-04-01T12:37:11.999Z</time></trkpt><trkpt lat="45.64097107849719" lon="10.795349262676778"><ele>1316.0</ele><time>2026-04-01T12:37:12.999Z</time></trkpt><trkpt lat="45.640966247622366" lon="10.795501042167956"><ele>1316.0</ele><time>2026-04-01T12:37:13.999Z</time></trkpt><trkpt lat="45.64097639365827" lon="10.795626091952771"><ele>1316.6666666666667</ele><time>2026-04-01T12:37:14.999Z</time></trkpt><trkpt lat="45.64098506373378" lon="10.79572344300002"><ele>1317.3333333333335</ele><time>2026-04-01T12:37:15.999Z</time></trkpt><trkpt lat="45.64099522579827" lon="10.79581782414675"><ele>1318.0</ele><time>2026-04-01T12:37:16.999Z</time></trkpt><trkpt lat="45.64101689124295" lon="10.795976698768"><ele>1318.6666666666667</ele><time>2026-04-01T12:37:18.999Z</time></trkpt><trkpt lat="45.641029862204626" lon="10.796068048195469"><ele>1319.3333333333333</ele><time>2026-04-01T12:37:19.999Z</time></trkpt><trkpt lat="45.64104540346113" lon="10.796177499252298"><ele>1320.0</ele><time>2026-04-01T12:37:20.999Z</time></trkpt><trkpt lat="45.641061514645486" lon="10.796290964390142"><ele>1320.2</ele><time>2026-04-01T12:37:21.999Z</time></trkpt><trkpt lat="45.641073469525736" lon="10.796404322169044"><ele>1320.4</ele><time>2026-04-01T12:37:22.999Z</time></trkpt><trkpt lat="45.64107657849218" lon="10.796508049817879"><ele>1320.6</ele><time>2026-04-01T12:37:23.999Z</time></trkpt><trkpt lat="45.64107105843022" lon="10.79662711591056"><ele>1320.8</ele><time>2026-04-01T12:37:24.999Z</time></trkpt><trkpt lat="45.64107684437921" lon="10.796782510056506"><ele>1321.0</ele><time>2026-04-01T12:37:25.999Z</time></trkpt><trkpt lat="45.6410984307522" lon="10.796934885089138"><ele>1322.6666666666665</ele><time>2026-04-01T12:37:26.999Z</time></trkpt><trkpt lat="45.64112819660599" lon="10.797077152637073"><ele>1324.3333333333333</ele><time>2026-04-01T12:37:27.999Z</time></trkpt><trkpt lat="45.64115895041601" lon="10.797194589191669"><ele>1326.0</ele><time>2026-04-01T12:37:28.999Z</time></trkpt><trkpt lat="45.641178774445955" lon="10.79731332202545"><ele>1327.6666666666667</ele><time>2026-04-01T12:37:29.999Z</time></trkpt><trkpt lat="45.64118075844907" lon="10.797415340765117"><ele>1329.3333333333335</ele><time>2026-04-01T12:37:30.999Z</time></trkpt><trkpt lat="45.64116372354212" lon="10.797527516291378"><ele>1331.0</ele><time>2026-04-01T12:37:31.999Z</time></trkpt><trkpt lat="45.641112058639806" lon="10.797613279281288"><ele>1332.8</ele><time>2026-04-01T12:37:32.999Z</time></trkpt><trkpt lat="45.641053945528036" lon="10.79770679541616"><ele>1334.6</ele><time>2026-04-01T12:37:33.999Z</time></trkpt><trkpt lat="45.64098103670709" lon="10.797798124889068"><ele>1336.4</ele><time>2026-04-01T12:37:34.999Z</time></trkpt><trkpt lat="45.640920385383254" lon="10.797896803915586"><ele>1338.2</ele><time>2026-04-01T12:37:35.999Z</time></trkpt><trkpt lat="45.640842599577766" lon="10.797974302255138"><ele>1340.0</ele><time>2026-04-01T12:37:37.999Z</time></trkpt><trkpt lat="45.64084128388218" lon="10.798152069394796"><ele>1340.0</ele><time>2026-04-01T12:37:39.999Z</time></trkpt><trkpt lat="45.640892624145536" lon="10.798249215342935"><ele>1340.0</ele><time>2026-04-01T12:37:40.999Z</time></trkpt><trkpt lat="45.64089521429485" lon="10.798353579038734"><ele>1340.0</ele><time>2026-04-01T12:37:41.999Z</time></trkpt><trkpt lat="45.64090216471514" lon="10.79844688361252"><ele>1340.0</ele><time>2026-04-01T12:37:42.999Z</time></trkpt><trkpt lat="45.64090140798543" lon="10.798551725670027"><ele>1340.0</ele><time>2026-04-01T12:37:43.999Z</time></trkpt><trkpt lat="45.640897703872994" lon="10.79868272881935"><ele>1340.0</ele><time>2026-04-01T12:37:44.999Z</time></trkpt><trkpt lat="45.64088242882426" lon="10.798811347305577"><ele>1339.8333333333335</ele><time>2026-04-01T12:37:45.999Z</time></trkpt><trkpt lat="45.64086582924991" lon="10.798914559103286"><ele>1339.6666666666667</ele><time>2026-04-01T12:37:46.999Z</time></trkpt><trkpt lat="45.640834052217805" lon="10.799033319914939"><ele>1339.5</ele><time>2026-04-01T12:37:48.999Z</time></trkpt><trkpt lat="45.640869084007" lon="10.799175505579822"><ele>1339.3333333333333</ele><time>2026-04-01T12:37:50.999Z</time></trkpt><trkpt lat="45.64093873558318" lon="10.799231405443985"><ele>1339.1666666666665</ele><time>2026-04-01T12:37:51.999Z</time></trkpt><trkpt lat="45.6410097360855" lon="10.799299062056432"><ele>1339.0</ele><time>2026-04-01T12:37:52.999Z</time></trkpt><trkpt lat="45.641104801905605" lon="10.799359119150829"><ele>1341.8000000000002</ele><time>2026-04-01T12:37:53.999Z</time></trkpt><trkpt lat="45.641212247521125" lon="10.799412051793205"><ele>1344.6000000000001</ele><time>2026-04-01T12:37:54.999Z</time></trkpt><trkpt lat="45.64131450140273" lon="10.799440077589407"><ele>1347.4</ele><time>2026-04-01T12:37:55.999Z</time></trkpt><trkpt lat="45.64139266669241" lon="10.79947399501228"><ele>1350.2</ele><time>2026-04-01T12:37:56.999Z</time></trkpt><trkpt lat="45.64145699126263" lon="10.799519331989393"><ele>1353.0</ele><time>2026-04-01T12:37:57.999Z</time></trkpt><trkpt lat="45.64152080646995" lon="10.799645920145995"><ele>1353.0</ele><time>2026-04-01T12:37:59.999Z</time></trkpt><trkpt lat="45.64151940356198" lon="10.799855687435716"><ele>1353.0</ele><time>2026-04-01T12:38:01.998Z</time></trkpt><trkpt lat="45.6414973526582" lon="10.799977959165824"><ele>1353.0</ele><time>2026-04-01T12:38:02.998Z</time></trkpt><trkpt lat="45.641511111780986" lon="10.800158617564573"><ele>1353.0</ele><time>2026-04-01T12:38:04.998Z</time></trkpt><trkpt lat="45.641566466244804" lon="10.800264685051147"><ele>1352.2</ele><time>2026-04-01T12:38:05.998Z</time></trkpt><trkpt lat="45.64162218729591" lon="10.800371675446048"><ele>1351.4</ele><time>2026-04-01T12:38:06.998Z</time></trkpt><trkpt lat="45.64171396674171" lon="10.800478009778613"><ele>1350.6000000000001</ele><time>2026-04-01T12:38:07.998Z</time></trkpt><trkpt lat="45.641799994484145" lon="10.800583676742956"><ele>1349.8000000000002</ele><time>2026-04-01T12:38:08.998Z</time></trkpt><trkpt lat="45.641857033933356" lon="10.800669392439564"><ele>1349.0</ele><time>2026-04-01T12:38:09.998Z</time></trkpt><trkpt lat="45.64191175447604" lon="10.800820711029608"><ele>1349.0</ele><time>2026-04-01T12:38:12Z</time></trkpt><trkpt lat="45.641936376043844" lon="10.800908787342957"><ele>1349.0</ele><time>2026-04-01T12:38:13Z</time></trkpt><trkpt lat="45.641962571014076" lon="10.801012198012156"><ele>1349.0</ele><time>2026-04-01T12:38:14Z</time></trkpt><trkpt lat="45.64199684761551" lon="10.801120432199259"><ele>1349.0</ele><time>2026-04-01T12:38:15Z</time></trkpt><trkpt lat="45.64202511068074" lon="10.801208054968019"><ele>1349.0</ele><time>2026-04-01T12:38:16Z</time></trkpt><trkpt lat="45.642066543370696" lon="10.801378429530002"><ele>1349.0</ele><time>2026-04-01T12:38:18Z</time></trkpt><trkpt lat="45.64207182288469" lon="10.80147127854814"><ele>1352.4</ele><time>2026-04-01T12:38:19Z</time></trkpt><trkpt lat="45.642049135732265" lon="10.80166565515735"><ele>1355.8000000000002</ele><time>2026-04-01T12:38:21Z</time></trkpt><trkpt lat="45.64206424647786" lon="10.801783989632664"><ele>1359.1999999999998</ele><time>2026-04-01T12:38:22Z</time></trkpt><trkpt lat="45.642089845096585" lon="10.801895339312706"><ele>1362.6</ele><time>2026-04-01T12:38:23Z</time></trkpt><trkpt lat="45.64212691487359" lon="10.802006061061846"><ele>1366.0</ele><time>2026-04-01T12:38:24Z</time></trkpt><trkpt lat="45.64218617411951" lon="10.802074602626204"><ele>1366.0</ele><time>2026-04-01T12:38:25Z</time></trkpt><trkpt lat="45.64223579320275" lon="10.802153808491036"><ele>1366.0</ele><time>2026-04-01T12:38:26Z</time></trkpt><trkpt lat="45.64230292043153" lon="10.802243696652523"><ele>1366.0</ele><time>2026-04-01T12:38:27Z</time></trkpt><trkpt lat="45.64235959503688" lon="10.802360440314773"><ele>1366.0</ele><time>2026-04-01T12:38:28Z</time></trkpt><trkpt lat="45.64243436201281" lon="10.802479004492186"><ele>1366.0</ele><time>2026-04-01T12:38:29Z</time></trkpt><trkpt lat="45.64250291767783" lon="10.802597915025574"><ele>1366.4</ele><time>2026-04-01T12:38:30Z</time></trkpt><trkpt lat="45.64256429405224" lon="10.80269889907508"><ele>1366.8</ele><time>2026-04-01T12:38:31Z</time></trkpt><trkpt lat="45.64263140387163" lon="10.802804839665548"><ele>1367.2</ele><time>2026-04-01T12:38:32Z</time></trkpt><trkpt lat="45.64271163398518" lon="10.802917656425034"><ele>1367.6000000000001</ele><time>2026-04-01T12:38:33Z</time></trkpt><trkpt lat="45.64281055883141" lon="10.802980713197842"><ele>1368.0</ele><time>2026-04-01T12:38:34Z</time></trkpt><trkpt lat="45.64291266948854" lon="10.803043814077133"><ele>1368.0</ele><time>2026-04-01T12:38:35Z</time></trkpt><trkpt lat="45.643009413877905" lon="10.803114721952598"><ele>1368.0</ele><time>2026-04-01T12:38:36Z</time></trkpt><trkpt lat="45.64307538902858" lon="10.8031811248381"><ele>1368.0</ele><time>2026-04-01T12:38:37Z</time></trkpt><trkpt lat="45.64311211104261" lon="10.80325451230697"><ele>1368.0</ele><time>2026-04-01T12:38:38Z</time></trkpt><trkpt lat="45.64317249963548" lon="10.803349563191624"><ele>1368.0</ele><time>2026-04-01T12:38:39Z</time></trkpt><trkpt lat="45.64323527759567" lon="10.803462486628126"><ele>1368.0</ele><time>2026-04-01T12:38:40Z</time></trkpt><trkpt lat="45.64328735321019" lon="10.803590380237027"><ele>1364.2</ele><time>2026-04-01T12:38:41Z</time></trkpt><trkpt lat="45.64332299194667" lon="10.803725641216323"><ele>1360.4</ele><time>2026-04-01T12:38:42Z</time></trkpt><trkpt lat="45.64336541239243" lon="10.803846505960585"><ele>1356.6000000000001</ele><time>2026-04-01T12:38:43Z</time></trkpt><trkpt lat="45.643435770512056" lon="10.803937238384435"><ele>1352.8000000000002</ele><time>2026-04-01T12:38:44Z</time></trkpt><trkpt lat="45.64348998787625" lon="10.804052717428771"><ele>1349.0</ele><time>2026-04-01T12:38:45Z</time></trkpt><trkpt lat="45.64357096176323" lon="10.804155549691323"><ele>1349.5</ele><time>2026-04-01T12:38:46Z</time></trkpt><trkpt lat="45.64368839127272" lon="10.804244854902036"><ele>1350.0</ele><time>2026-04-01T12:38:47Z</time></trkpt><trkpt lat="45.64376439216437" lon="10.804384934401776"><ele>1350.5</ele><time>2026-04-01T12:38:48Z</time></trkpt><trkpt lat="45.643842643814395" lon="10.804501510006165"><ele>1351.0</ele><time>2026-04-01T12:38:49Z</time></trkpt><trkpt lat="45.64393033280244" lon="10.804573777242755"><ele>1351.0</ele><time>2026-04-01T12:38:50Z</time></trkpt><trkpt lat="45.64400826729939" lon="10.804654524798336"><ele>1351.0</ele><time>2026-04-01T12:38:51Z</time></trkpt><trkpt lat="45.64409690502311" lon="10.804752908612931"><ele>1351.0</ele><time>2026-04-01T12:38:52Z</time></trkpt><trkpt lat="45.64417562334832" lon="10.804871413144117"><ele>1351.0</ele><time>2026-04-01T12:38:53Z</time></trkpt><trkpt lat="45.644266147158476" lon="10.80499284858588"><ele>1351.0</ele><time>2026-04-01T12:38:54Z</time></trkpt><trkpt lat="45.64435630895224" lon="10.805116441730032"><ele>1352.0</ele><time>2026-04-01T12:38:55Z</time></trkpt><trkpt lat="45.6444683320751" lon="10.805238879026602"><ele>1353.0</ele><time>2026-04-01T12:38:56Z</time></trkpt><trkpt lat="45.64457166471116" lon="10.8053760448825"><ele>1354.0</ele><time>2026-04-01T12:38:56.999Z</time></trkpt><trkpt lat="45.64468165074952" lon="10.80549501493264"><ele>1355.0</ele><time>2026-04-01T12:38:57.999Z</time></trkpt><trkpt lat="45.6447805753702" lon="10.805608485258741"><ele>1355.0</ele><time>2026-04-01T12:38:58.999Z</time></trkpt><trkpt lat="45.64488443320264" lon="10.805725340457489"><ele>1355.0</ele><time>2026-04-01T12:38:59.999Z</time></trkpt><trkpt lat="45.64497539831845" lon="10.805833331067694"><ele>1355.0</ele><time>2026-04-01T12:39:00.999Z</time></trkpt><trkpt lat="45.6450566590858" lon="10.80593125623819"><ele>1355.0</ele><time>2026-04-01T12:39:01.999Z</time></trkpt><trkpt lat="45.64512233725066" lon="10.806043113378108"><ele>1353.2</ele><time>2026-04-01T12:39:02.999Z</time></trkpt><trkpt lat="45.64521168225516" lon="10.806150694474562"><ele>1351.4</ele><time>2026-04-01T12:39:03.999Z</time></trkpt><trkpt lat="45.64530134278759" lon="10.806240326949046"><ele>1349.6</ele><time>2026-04-01T12:39:04.999Z</time></trkpt><trkpt lat="45.64537773317636" lon="10.806336732752587"><ele>1347.8</ele><time>2026-04-01T12:39:05.999Z</time></trkpt><trkpt lat="45.64545496761519" lon="10.806439973887915"><ele>1346.0</ele><time>2026-04-01T12:39:06.999Z</time></trkpt><trkpt lat="45.6455371791659" lon="10.806527623371151"><ele>1347.1999999999998</ele><time>2026-04-01T12:39:07.999Z</time></trkpt><trkpt lat="45.645621400361996" lon="10.806606869688753"><ele>1348.3999999999999</ele><time>2026-04-01T12:39:08.999Z</time></trkpt><trkpt lat="45.64568993274825" lon="10.806708929882369"><ele>1349.6</ele><time>2026-04-01T12:39:09.999Z</time></trkpt><trkpt lat="45.64576642954734" lon="10.806796465584354"><ele>1350.8</ele><time>2026-04-01T12:39:10.999Z</time></trkpt><trkpt lat="45.64584927763815" lon="10.806885289484262"><ele>1352.0</ele><time>2026-04-01T12:39:11.999Z</time></trkpt><trkpt lat="45.6459413602889" lon="10.806956925471797"><ele>1352.0</ele><time>2026-04-01T12:39:12.999Z</time></trkpt><trkpt lat="45.646025339568105" lon="10.80706980410979"><ele>1352.0</ele><time>2026-04-01T12:39:13.999Z</time></trkpt><trkpt lat="45.64610215952965" lon="10.807186909199007"><ele>1352.0</ele><time>2026-04-01T12:39:14.999Z</time></trkpt><trkpt lat="45.64617002280368" lon="10.807323425705306"><ele>1352.0</ele><time>2026-04-01T12:39:15.999Z</time></trkpt><trkpt lat="45.64623470183232" lon="10.807461037656203"><ele>1353.0</ele><time>2026-04-01T12:39:16.999Z</time></trkpt><trkpt lat="45.64631035361534" lon="10.807582505158905"><ele>1354.0</ele><time>2026-04-01T12:39:17.999Z</time></trkpt><trkpt lat="45.646386905965734" lon="10.807672916906295"><ele>1355.0</ele><time>2026-04-01T12:39:18.999Z</time></trkpt><trkpt lat="45.64646212643733" lon="10.80774415705013"><ele>1356.0</ele><time>2026-04-01T12:39:19.999Z</time></trkpt><trkpt lat="45.64654269835553" lon="10.807818602590745"><ele>1357.0</ele><time>2026-04-01T12:39:20.999Z</time></trkpt><trkpt lat="45.64661896491553" lon="10.807917894528943"><ele>1357.0</ele><time>2026-04-01T12:39:21.999Z</time></trkpt><trkpt lat="45.6467030344319" lon="10.808050274116267"><ele>1357.0</ele><time>2026-04-01T12:39:22.999Z</time></trkpt><trkpt lat="45.64677731266953" lon="10.8081821026646"><ele>1357.0</ele><time>2026-04-01T12:39:23.999Z</time></trkpt><trkpt lat="45.64683758959024" lon="10.80830938767558"><ele>1357.0</ele><time>2026-04-01T12:39:24.999Z</time></trkpt><trkpt lat="45.64690409849222" lon="10.80843254215747"><ele>1358.3999999999999</ele><time>2026-04-01T12:39:25.999Z</time></trkpt><trkpt lat="45.646973921710206" lon="10.808540150706177"><ele>1359.8</ele><time>2026-04-01T12:39:26.999Z</time></trkpt><trkpt lat="45.647044959407566" lon="10.808635687177759"><ele>1361.2</ele><time>2026-04-01T12:39:27.999Z</time></trkpt><trkpt lat="45.64712425388394" lon="10.80871169182593"><ele>1362.6</ele><time>2026-04-01T12:39:28.999Z</time></trkpt><trkpt lat="45.647196943568" lon="10.808789868415138"><ele>1364.0</ele><time>2026-04-01T12:39:29.999Z</time></trkpt><trkpt lat="45.64727843421324" lon="10.808881552094528"><ele>1364.0</ele><time>2026-04-01T12:39:30.999Z</time></trkpt><trkpt lat="45.647352574994656" lon="10.808977174415356"><ele>1364.0</ele><time>2026-04-01T12:39:31.999Z</time></trkpt><trkpt lat="45.64741701553459" lon="10.809111519300552"><ele>1364.0</ele><time>2026-04-01T12:39:32.999Z</time></trkpt><trkpt lat="45.64751230609482" lon="10.80923054215891"><ele>1364.0</ele><time>2026-04-01T12:39:33.999Z</time></trkpt><trkpt lat="45.64760457842403" lon="10.809354827542661"><ele>1361.3333333333335</ele><time>2026-04-01T12:39:34.999Z</time></trkpt><trkpt lat="45.64770971601443" lon="10.809471089040613"><ele>1358.6666666666667</ele><time>2026-04-01T12:39:35.999Z</time></trkpt><trkpt lat="45.64783452386378" lon="10.80959851083023"><ele>1356.0</ele><time>2026-04-01T12:39:36.999Z</time></trkpt><trkpt lat="45.647972005044146" lon="10.809739286101097"><ele>1356.0</ele><time>2026-04-01T12:39:37.999Z</time></trkpt><trkpt lat="45.6480912445459" lon="10.809863606982542"><ele>1356.0</ele><time>2026-04-01T12:39:38.999Z</time></trkpt><trkpt lat="45.64818811338226" lon="10.809981129844058"><ele>1356.0</ele><time>2026-04-01T12:39:39.999Z</time></trkpt><trkpt lat="45.64826492256981" lon="10.810084432856101"><ele>1356.0</ele><time>2026-04-01T12:39:40.999Z</time></trkpt><trkpt lat="45.648346745833415" lon="10.810173398232655"><ele>1356.5</ele><time>2026-04-01T12:39:41.999Z</time></trkpt><trkpt lat="45.648454162729074" lon="10.810264447788224"><ele>1357.0</ele><time>2026-04-01T12:39:42.999Z</time></trkpt><trkpt lat="45.64859572636238" lon="10.810367238995273"><ele>1357.5</ele><time>2026-04-01T12:39:43.999Z</time></trkpt><trkpt lat="45.64872812170256" lon="10.810467072332616"><ele>1358.0</ele><time>2026-04-01T12:39:44.999Z</time></trkpt><trkpt lat="45.64884699100426" lon="10.810544550142845"><ele>1358.0</ele><time>2026-04-01T12:39:45.999Z</time></trkpt><trkpt lat="45.64895971328888" lon="10.81061612625645"><ele>1358.0</ele><time>2026-04-01T12:39:46.999Z</time></trkpt><trkpt lat="45.649069830847466" lon="10.81068824782372"><ele>1358.0</ele><time>2026-04-01T12:39:47.999Z</time></trkpt><trkpt lat="45.64918354342946" lon="10.81076908107805"><ele>1358.0</ele><time>2026-04-01T12:39:48.999Z</time></trkpt><trkpt lat="45.64928982056512" lon="10.810859530969948"><ele>1358.0</ele><time>2026-04-01T12:39:49.999Z</time></trkpt><trkpt lat="45.64937915143849" lon="10.810961020872178"><ele>1358.0</ele><time>2026-04-01T12:39:50.999Z</time></trkpt><trkpt lat="45.64947537245044" lon="10.811070024317248"><ele>1358.0</ele><time>2026-04-01T12:39:51.999Z</time></trkpt><trkpt lat="45.649592114460184" lon="10.811183182570423"><ele>1358.0</ele><time>2026-04-01T12:39:52.999Z</time></trkpt><trkpt lat="45.649709285605255" lon="10.811297287760256"><ele>1360.0</ele><time>2026-04-01T12:39:53.999Z</time></trkpt><trkpt lat="45.649808860826745" lon="10.811434666898027"><ele>1362.0</ele><time>2026-04-01T12:39:54.999Z</time></trkpt><trkpt lat="45.64989151409391" lon="10.811577853291416"><ele>1364.0</ele><time>2026-04-01T12:39:55.999Z</time></trkpt><trkpt lat="45.64996565192125" lon="10.811707023995172"><ele>1366.0</ele><time>2026-04-01T12:39:56.999Z</time></trkpt><trkpt lat="45.65002946429013" lon="10.811828443617035"><ele>1368.25</ele><time>2026-04-01T12:39:57.999Z</time></trkpt><trkpt lat="45.65007281026592" lon="10.811955987235867"><ele>1370.5</ele><time>2026-04-01T12:39:58.999Z</time></trkpt><trkpt lat="45.650121014191676" lon="10.81209158349354"><ele>1372.75</ele><time>2026-04-01T12:39:59.999Z</time></trkpt><trkpt lat="45.650197018004704" lon="10.812234011944273"><ele>1375.0</ele><time>2026-04-01T12:40:00.999Z</time></trkpt><trkpt lat="45.65029187820259" lon="10.812364529576916"><ele>1375.0</ele><time>2026-04-01T12:40:01.999Z</time></trkpt><trkpt lat="45.65040112710658" lon="10.812483568813628"><ele>1375.0</ele><time>2026-04-01T12:40:02.999Z</time></trkpt><trkpt lat="45.65051414835515" lon="10.812579132825547"><ele>1375.0</ele><time>2026-04-01T12:40:03.999Z</time></trkpt><trkpt lat="45.65063125424571" lon="10.81267361530587"><ele>1375.0</ele><time>2026-04-01T12:40:04.999Z</time></trkpt><trkpt lat="45.650746195160046" lon="10.812772697057667"><ele>1376.75</ele><time>2026-04-01T12:40:05.999Z</time></trkpt><trkpt lat="45.65084701879718" lon="10.812871744769378"><ele>1378.5</ele><time>2026-04-01T12:40:06.999Z</time></trkpt><trkpt lat="45.65094428942323" lon="10.812974286072158"><ele>1380.25</ele><time>2026-04-01T12:40:07.998Z</time></trkpt><trkpt lat="45.651045750787276" lon="10.813083550832031"><ele>1382.0</ele><time>2026-04-01T12:40:08.998Z</time></trkpt><trkpt lat="45.65114985449147" lon="10.813199770050456"><ele>1382.0</ele><time>2026-04-01T12:40:09.998Z</time></trkpt><trkpt lat="45.651261719892446" lon="10.813331946755023"><ele>1382.0</ele><time>2026-04-01T12:40:10.998Z</time></trkpt><trkpt lat="45.65137260544339" lon="10.81346383426819"><ele>1382.0</ele><time>2026-04-01T12:40:11.998Z</time></trkpt><trkpt lat="45.65147996522359" lon="10.813602568951278"><ele>1382.0</ele><time>2026-04-01T12:40:12.998Z</time></trkpt><trkpt lat="45.651568612084354" lon="10.813772897987805"><ele>1378.5</ele><time>2026-04-01T12:40:13.998Z</time></trkpt><trkpt lat="45.65163916860221" lon="10.813959305002209"><ele>1375.0</ele><time>2026-04-01T12:40:14.998Z</time></trkpt><trkpt lat="45.65168501412083" lon="10.814147419592816"><ele>1371.5</ele><time>2026-04-01T12:40:15.998Z</time></trkpt><trkpt lat="45.65170794820922" lon="10.814318313323524"><ele>1368.0</ele><time>2026-04-01T12:40:16.998Z</time></trkpt><trkpt lat="45.65172163699876" lon="10.814481434031057"><ele>1365.25</ele><time>2026-04-01T12:40:18Z</time></trkpt><trkpt lat="45.65174115659972" lon="10.814633636528576"><ele>1362.5</ele><time>2026-04-01T12:40:19Z</time></trkpt><trkpt lat="45.6517708916971" lon="10.814800962095747"><ele>1359.75</ele><time>2026-04-01T12:40:20Z</time></trkpt><trkpt lat="45.65181577517624" lon="10.814982359925699"><ele>1357.0</ele><time>2026-04-01T12:40:21Z</time></trkpt><trkpt lat="45.65187185920265" lon="10.81515644102203"><ele>1360.25</ele><time>2026-04-01T12:40:22Z</time></trkpt><trkpt lat="45.65192813034142" lon="10.8153185279624"><ele>1363.5</ele><time>2026-04-01T12:40:23Z</time></trkpt><trkpt lat="45.651989133104586" lon="10.815468607382263"><ele>1366.75</ele><time>2026-04-01T12:40:24Z</time></trkpt><trkpt lat="45.65206882092971" lon="10.815609793498878"><ele>1370.0</ele><time>2026-04-01T12:40:25Z</time></trkpt><trkpt lat="45.65217664845299" lon="10.815744747864768"><ele>1370.0</ele><time>2026-04-01T12:40:26Z</time></trkpt><trkpt lat="45.652285586737655" lon="10.815861992617915"><ele>1370.0</ele><time>2026-04-01T12:40:27Z</time></trkpt><trkpt lat="45.65238117686102" lon="10.815965452903656"><ele>1370.0</ele><time>2026-04-01T12:40:28Z</time></trkpt><trkpt lat="45.6524656854308" lon="10.81606827075801"><ele>1370.0</ele><time>2026-04-01T12:40:29Z</time></trkpt><trkpt lat="45.65255302716906" lon="10.8161856012705"><ele>1369.75</ele><time>2026-04-01T12:40:30Z</time></trkpt><trkpt lat="45.652646164655515" lon="10.816320894681693"><ele>1369.5</ele><time>2026-04-01T12:40:31Z</time></trkpt><trkpt lat="45.65274649748755" lon="10.816484853915778"><ele>1369.25</ele><time>2026-04-01T12:40:32Z</time></trkpt><trkpt lat="45.652854648101986" lon="10.816651821688401"><ele>1369.0</ele><time>2026-04-01T12:40:33Z</time></trkpt><trkpt lat="45.65297474629496" lon="10.816815081105567"><ele>1362.5</ele><time>2026-04-01T12:40:34Z</time></trkpt><trkpt lat="45.653087515902286" lon="10.816958494293406"><ele>1356.0</ele><time>2026-04-01T12:40:35Z</time></trkpt><trkpt lat="45.65320660971038" lon="10.817096019722825"><ele>1349.5</ele><time>2026-04-01T12:40:36Z</time></trkpt><trkpt lat="45.65332016863835" lon="10.817216369293583"><ele>1343.0</ele><time>2026-04-01T12:40:37Z</time></trkpt><trkpt lat="45.65343225197328" lon="10.817317792776327"><ele>1343.0</ele><time>2026-04-01T12:40:38Z</time></trkpt><trkpt lat="45.65354954062223" lon="10.81741029147766"><ele>1343.0</ele><time>2026-04-01T12:40:39Z</time></trkpt><trkpt lat="45.65367644420071" lon="10.817495124631417"><ele>1343.0</ele><time>2026-04-01T12:40:40Z</time></trkpt><trkpt lat="45.65380054420515" lon="10.817584500859528"><ele>1343.0</ele><time>2026-04-01T12:40:41Z</time></trkpt><trkpt lat="45.653912231738765" lon="10.817698614646005"><ele>1344.25</ele><time>2026-04-01T12:40:42Z</time></trkpt><trkpt lat="45.654015114473765" lon="10.817836225567293"><ele>1345.5</ele><time>2026-04-01T12:40:43Z</time></trkpt><trkpt lat="45.654121045120434" lon="10.817979176587734"><ele>1346.75</ele><time>2026-04-01T12:40:44Z</time></trkpt><trkpt lat="45.654226710087556" lon="10.818120505860746"><ele>1348.0</ele><time>2026-04-01T12:40:45Z</time></trkpt><trkpt lat="45.65432850238809" lon="10.818243113313468"><ele>1348.0</ele><time>2026-04-01T12:40:46Z</time></trkpt><trkpt lat="45.654420247848584" lon="10.81834235188174"><ele>1348.0</ele><time>2026-04-01T12:40:47Z</time></trkpt><trkpt lat="45.65451533032318" lon="10.818443180556814"><ele>1348.0</ele><time>2026-04-01T12:40:48Z</time></trkpt><trkpt lat="45.6546171257946" lon="10.818545481944739"><ele>1348.0</ele><time>2026-04-01T12:40:49Z</time></trkpt><trkpt lat="45.65472176154383" lon="10.818647557337263"><ele>1347.5</ele><time>2026-04-01T12:40:50Z</time></trkpt><trkpt lat="45.65482727919644" lon="10.818762256476687"><ele>1347.0</ele><time>2026-04-01T12:40:51Z</time></trkpt><trkpt lat="45.654925361874454" lon="10.818883799332262"><ele>1346.5</ele><time>2026-04-01T12:40:52Z</time></trkpt><trkpt lat="45.65501910273875" lon="10.81900843254578"><ele>1346.0</ele><time>2026-04-01T12:40:53Z</time></trkpt><trkpt lat="45.65511166027465" lon="10.819131965234815"><ele>1346.0</ele><time>2026-04-01T12:40:54Z</time></trkpt><trkpt lat="45.6552069932713" lon="10.819247511442901"><ele>1346.0</ele><time>2026-04-01T12:40:55Z</time></trkpt><trkpt lat="45.65530950978245" lon="10.819333337914607"><ele>1346.0</ele><time>2026-04-01T12:40:56Z</time></trkpt><trkpt lat="45.65543036544402" lon="10.819379154645834"><ele>1346.0</ele><time>2026-04-01T12:40:57Z</time></trkpt><trkpt lat="45.655553406506684" lon="10.81940458996149"><ele>1344.25</ele><time>2026-04-01T12:40:58Z</time></trkpt><trkpt lat="45.65567361634405" lon="10.81944258418266"><ele>1342.5</ele><time>2026-04-01T12:40:59Z</time></trkpt><trkpt lat="45.65578502806525" lon="10.819502184249439"><ele>1340.75</ele><time>2026-04-01T12:41:00Z</time></trkpt><trkpt lat="45.65589907795565" lon="10.819592507377742"><ele>1339.0</ele><time>2026-04-01T12:41:01Z</time></trkpt><trkpt lat="45.656020309075615" lon="10.8197007258968"><ele>1340.5</ele><time>2026-04-01T12:41:02Z</time></trkpt><trkpt lat="45.656155383924954" lon="10.819815869436633"><ele>1342.0</ele><time>2026-04-01T12:41:03Z</time></trkpt><trkpt lat="45.65627386013425" lon="10.819916375440165"><ele>1343.5</ele><time>2026-04-01T12:41:04Z</time></trkpt><trkpt lat="45.65638050728601" lon="10.820023538582204"><ele>1345.0</ele><time>2026-04-01T12:41:04.999Z</time></trkpt><trkpt lat="45.65645945588677" lon="10.820161127817032"><ele>1345.0</ele><time>2026-04-01T12:41:05.999Z</time></trkpt><trkpt lat="45.65651432406493" lon="10.820339947857438"><ele>1345.0</ele><time>2026-04-01T12:41:06.999Z</time></trkpt><trkpt lat="45.6565520508398" lon="10.820546553050237"><ele>1345.0</ele><time>2026-04-01T12:41:07.999Z</time></trkpt><trkpt lat="45.65659354423393" lon="10.82073559834035"><ele>1345.0</ele><time>2026-04-01T12:41:08.999Z</time></trkpt><trkpt lat="45.6566450619824" lon="10.820895999431436"><ele>1343.25</ele><time>2026-04-01T12:41:09.999Z</time></trkpt><trkpt lat="45.65671183047928" lon="10.821038431125432"><ele>1341.5</ele><time>2026-04-01T12:41:10.999Z</time></trkpt><trkpt lat="45.6567975742471" lon="10.821187372499484"><ele>1339.75</ele><time>2026-04-01T12:41:11.999Z</time></trkpt><trkpt lat="45.65688043592535" lon="10.821331787650475"><ele>1338.0</ele><time>2026-04-01T12:41:12.999Z</time></trkpt><trkpt lat="45.656962792326254" lon="10.821453959687588"><ele>1338.0</ele><time>2026-04-01T12:41:13.999Z</time></trkpt><trkpt lat="45.65705679560869" lon="10.82155513146524"><ele>1338.0</ele><time>2026-04-01T12:41:14.999Z</time></trkpt><trkpt lat="45.65716691966528" lon="10.821630735130407"><ele>1338.0</ele><time>2026-04-01T12:41:15.999Z</time></trkpt><trkpt lat="45.6573029856344" lon="10.8216913516635"><ele>1338.0</ele><time>2026-04-01T12:41:16.999Z</time></trkpt><trkpt lat="45.65745828283708" lon="10.821738180895363"><ele>1338.0</ele><time>2026-04-01T12:41:17.999Z</time></trkpt><trkpt lat="45.65761015556531" lon="10.821766238620775"><ele>1338.0</ele><time>2026-04-01T12:41:18.999Z</time></trkpt><trkpt lat="45.657752871409436" lon="10.821770798582017"><ele>1338.0</ele><time>2026-04-01T12:41:19.999Z</time></trkpt><trkpt lat="45.65788742094986" lon="10.821776995911033"><ele>1338.0</ele><time>2026-04-01T12:41:20.999Z</time></trkpt><trkpt lat="45.65801415561594" lon="10.8217788734116"><ele>1340.5</ele><time>2026-04-01T12:41:21.999Z</time></trkpt><trkpt lat="45.6581494355664" lon="10.821778544318212"><ele>1343.0</ele><time>2026-04-01T12:41:22.999Z</time></trkpt><trkpt lat="45.65829272452462" lon="10.8217779479925"><ele>1345.5</ele><time>2026-04-01T12:41:23.999Z</time></trkpt><trkpt lat="45.65843330662676" lon="10.82178909093363"><ele>1348.0</ele><time>2026-04-01T12:41:24.999Z</time></trkpt><trkpt lat="45.65855996445691" lon="10.821803843625931"><ele>1340.25</ele><time>2026-04-01T12:41:25.999Z</time></trkpt><trkpt lat="45.65867373202144" lon="10.821840713469106"><ele>1332.5</ele><time>2026-04-01T12:41:26.999Z</time></trkpt><trkpt lat="45.65878612023028" lon="10.821889231493785"><ele>1324.75</ele><time>2026-04-01T12:41:27.999Z</time></trkpt><trkpt lat="45.65890170840388" lon="10.821934758784705"><ele>1317.0</ele><time>2026-04-01T12:41:28.999Z</time></trkpt><trkpt lat="45.65901030869781" lon="10.821937203176699"><ele>1317.0</ele><time>2026-04-01T12:41:29.999Z</time></trkpt><trkpt lat="45.65911806161222" lon="10.821892302296748"><ele>1317.0</ele><time>2026-04-01T12:41:30.999Z</time></trkpt><trkpt lat="45.65922198305777" lon="10.821809377056555"><ele>1317.0</ele><time>2026-04-01T12:41:31.999Z</time></trkpt><trkpt lat="45.659357906192625" lon="10.821707343476076"><ele>1317.0</ele><time>2026-04-01T12:41:32.999Z</time></trkpt><trkpt lat="45.659477864619355" lon="10.821632859216813"><ele>1323.0</ele><time>2026-04-01T12:41:33.999Z</time></trkpt><trkpt lat="45.65960221115142" lon="10.821595474708683"><ele>1329.0</ele><time>2026-04-01T12:41:34.999Z</time></trkpt><trkpt lat="45.65972943801524" lon="10.821590878084326"><ele>1335.0</ele><time>2026-04-01T12:41:35.999Z</time></trkpt><trkpt lat="45.65986709480224" lon="10.821623781821568"><ele>1341.0</ele><time>2026-04-01T12:41:36.999Z</time></trkpt><trkpt lat="45.660000405934014" lon="10.821680008552523"><ele>1341.0</ele><time>2026-04-01T12:41:37.999Z</time></trkpt><trkpt lat="45.66012874728333" lon="10.821748716406276"><ele>1341.0</ele><time>2026-04-01T12:41:38.999Z</time></trkpt><trkpt lat="45.660249036958085" lon="10.821810801852633"><ele>1341.0</ele><time>2026-04-01T12:41:39.999Z</time></trkpt><trkpt lat="45.660376201664675" lon="10.821861428551747"><ele>1341.0</ele><time>2026-04-01T12:41:40.999Z</time></trkpt><trkpt lat="45.66050075058062" lon="10.821909042429764"><ele>1335.75</ele><time>2026-04-01T12:41:41.999Z</time></trkpt><trkpt lat="45.66063473780059" lon="10.82194912482397"><ele>1330.5</ele><time>2026-04-01T12:41:42.999Z</time></trkpt><trkpt lat="45.660773975681586" lon="10.821981501866473"><ele>1325.25</ele><time>2026-04-01T12:41:43.999Z</time></trkpt><trkpt lat="45.660920902597645" lon="10.82199789991373"><ele>1320.0</ele><time>2026-04-01T12:41:44.999Z</time></trkpt><trkpt lat="45.661063274301206" lon="10.822025184346472"><ele>1321.5</ele><time>2026-04-01T12:41:45.999Z</time></trkpt><trkpt lat="45.66121035636261" lon="10.82206019443353"><ele>1323.0</ele><time>2026-04-01T12:41:46.999Z</time></trkpt><trkpt lat="45.66135994440947" lon="10.822096187277486"><ele>1324.5</ele><time>2026-04-01T12:41:47.999Z</time></trkpt><trkpt lat="45.66149343094987" lon="10.822163574046979"><ele>1326.0</ele><time>2026-04-01T12:41:48.999Z</time></trkpt><trkpt lat="45.66162613016666" lon="10.822238191994245"><ele>1326.0</ele><time>2026-04-01T12:41:49.999Z</time></trkpt><trkpt lat="45.6617605517166" lon="10.822305604781777"><ele>1326.0</ele><time>2026-04-01T12:41:50.999Z</time></trkpt><trkpt lat="45.66189800059681" lon="10.822365836536553"><ele>1326.0</ele><time>2026-04-01T12:41:51.999Z</time></trkpt><trkpt lat="45.66202686297227" lon="10.822400565689952"><ele>1326.0</ele><time>2026-04-01T12:41:52.999Z</time></trkpt><trkpt lat="45.66214909590646" lon="10.822442806116625"><ele>1327.0</ele><time>2026-04-01T12:41:53.999Z</time></trkpt><trkpt lat="45.662275795002365" lon="10.82246289637899"><ele>1328.0</ele><time>2026-04-01T12:41:54.999Z</time></trkpt><trkpt lat="45.66242232542253" lon="10.822496740672126"><ele>1329.0</ele><time>2026-04-01T12:41:55.999Z</time></trkpt><trkpt lat="45.66258027596106" lon="10.822479484111021"><ele>1330.0</ele><time>2026-04-01T12:41:56.999Z</time></trkpt><trkpt lat="45.662742339474725" lon="10.82246423092224"><ele>1330.5</ele><time>2026-04-01T12:41:57.999Z</time></trkpt><trkpt lat="45.6628900421253" lon="10.8224632870773"><ele>1331.0</ele><time>2026-04-01T12:41:58.999Z</time></trkpt><trkpt lat="45.663026906925424" lon="10.822458306839428"><ele>1331.5</ele><time>2026-04-01T12:41:59.999Z</time></trkpt><trkpt lat="45.66315309577518" lon="10.822478778238029"><ele>1332.0</ele><time>2026-04-01T12:42:00.999Z</time></trkpt><trkpt lat="45.663255787942184" lon="10.822495264585669"><ele>1332.0</ele><time>2026-04-01T12:42:01.999Z</time></trkpt><trkpt lat="45.66337918544878" lon="10.822574472127734"><ele>1332.0</ele><time>2026-04-01T12:42:02.999Z</time></trkpt><trkpt lat="45.663516803658794" lon="10.82265214647336"><ele>1332.0</ele><time>2026-04-01T12:42:03.999Z</time></trkpt><trkpt lat="45.66364236982309" lon="10.822775137403779"><ele>1332.0</ele><time>2026-04-01T12:42:04.999Z</time></trkpt><trkpt lat="45.6637760189912" lon="10.822906397835052"><ele>1327.0</ele><time>2026-04-01T12:42:05.999Z</time></trkpt><trkpt lat="45.663935694312116" lon="10.823010274808194"><ele>1322.0</ele><time>2026-04-01T12:42:06.999Z</time></trkpt><trkpt lat="45.664068938431" lon="10.82309118818454"><ele>1317.0</ele><time>2026-04-01T12:42:07.999Z</time></trkpt><trkpt lat="45.664195021377516" lon="10.823174203050744"><ele>1317.0</ele><time>2026-04-01T12:42:08.999Z</time></trkpt><trkpt lat="45.6643151088754" lon="10.823248821358776"><ele>1317.0</ele><time>2026-04-01T12:42:09.999Z</time></trkpt><trkpt lat="45.664442196945004" lon="10.823343296869577"><ele>1317.0</ele><time>2026-04-01T12:42:10.999Z</time></trkpt><trkpt lat="45.664550035686055" lon="10.823446518385719"><ele>1317.0</ele><time>2026-04-01T12:42:11.999Z</time></trkpt><trkpt lat="45.664661131984225" lon="10.82351971516446"><ele>1313.0</ele><time>2026-04-01T12:42:12.999Z</time></trkpt><trkpt lat="45.66476574263938" lon="10.823572699924746"><ele>1309.0</ele><time>2026-04-01T12:42:13.999Z</time></trkpt><trkpt lat="45.66487635970351" lon="10.82360508866576"><ele>1305.0</ele><time>2026-04-01T12:42:14.999Z</time></trkpt><trkpt lat="45.664996564627465" lon="10.823635594084836"><ele>1301.0</ele><time>2026-04-01T12:42:15.998Z</time></trkpt><trkpt lat="45.665125762627156" lon="10.823668094189257"><ele>1301.0</ele><time>2026-04-01T12:42:16.998Z</time></trkpt><trkpt lat="45.66525251415587" lon="10.823690143611342"><ele>1301.0</ele><time>2026-04-01T12:42:17.998Z</time></trkpt><trkpt lat="45.66538610447941" lon="10.823689238924025"><ele>1301.0</ele><time>2026-04-01T12:42:18.998Z</time></trkpt><trkpt lat="45.66551472944727" lon="10.823691879736527"><ele>1301.0</ele><time>2026-04-01T12:42:19.998Z</time></trkpt><trkpt lat="45.665626498146906" lon="10.823715988024174"><ele>1302.75</ele><time>2026-04-01T12:42:20.998Z</time></trkpt><trkpt lat="45.66573518417024" lon="10.823761591322521"><ele>1304.5</ele><time>2026-04-01T12:42:21.998Z</time></trkpt><trkpt lat="45.66584671278985" lon="10.823843539275662"><ele>1306.25</ele><time>2026-04-01T12:42:22.998Z</time></trkpt><trkpt lat="45.665954565287514" lon="10.823934153797664"><ele>1308.0</ele><time>2026-04-01T12:42:24Z</time></trkpt><trkpt lat="45.66606032748089" lon="10.8240215285773"><ele>1310.1666666666667</ele><time>2026-04-01T12:42:25Z</time></trkpt><trkpt lat="45.66615787182311" lon="10.824084623793686"><ele>1312.3333333333333</ele><time>2026-04-01T12:42:26Z</time></trkpt><trkpt lat="45.6662398398857" lon="10.824124483372657"><ele>1314.5</ele><time>2026-04-01T12:42:27Z</time></trkpt><trkpt lat="45.66631258804673" lon="10.824156476474581"><ele>1316.6666666666665</ele><time>2026-04-01T12:42:28Z</time></trkpt><trkpt lat="45.66638179970225" lon="10.824188929760032"><ele>1318.8333333333333</ele><time>2026-04-01T12:42:29Z</time></trkpt><trkpt lat="45.6664517036798" lon="10.824224952441876"><ele>1321.0</ele><time>2026-04-01T12:42:30Z</time></trkpt><trkpt lat="45.666511202373336" lon="10.8242703112399"><ele>1319.1666666666665</ele><time>2026-04-01T12:42:31Z</time></trkpt><trkpt lat="45.66656563856791" lon="10.824335889703598"><ele>1317.3333333333333</ele><time>2026-04-01T12:42:32Z</time></trkpt><trkpt lat="45.6666040433066" lon="10.82441050178049"><ele>1315.5</ele><time>2026-04-01T12:42:33Z</time></trkpt><trkpt lat="45.66665554284546" lon="10.824555942833667"><ele>1313.6666666666667</ele><time>2026-04-01T12:42:35Z</time></trkpt><trkpt lat="45.666700753911606" lon="10.824650239160437"><ele>1311.8333333333335</ele><time>2026-04-01T12:42:36Z</time></trkpt><trkpt lat="45.66675182528843" lon="10.824748761590785"><ele>1310.0</ele><time>2026-04-01T12:42:37Z</time></trkpt><trkpt lat="45.666800409686125" lon="10.824834861501643"><ele>1310.0</ele><time>2026-04-01T12:42:38Z</time></trkpt><trkpt lat="45.66684846354267" lon="10.82491286475889"><ele>1310.0</ele><time>2026-04-01T12:42:39Z</time></trkpt><trkpt lat="45.666893689640084" lon="10.824982715109007"><ele>1310.0</ele><time>2026-04-01T12:42:40Z</time></trkpt><trkpt lat="45.66694179978207" lon="10.82505737738435"><ele>1310.0</ele><time>2026-04-01T12:42:41Z</time></trkpt><trkpt lat="45.66699420130928" lon="10.825136895752252"><ele>1310.0</ele><time>2026-04-01T12:42:42Z</time></trkpt><trkpt lat="45.66705362605684" lon="10.82521378992974"><ele>1310.0</ele><time>2026-04-01T12:42:43Z</time></trkpt><trkpt lat="45.667129301175315" lon="10.825277158157748"><ele>1309.2</ele><time>2026-04-01T12:42:44Z</time></trkpt><trkpt lat="45.66722892587105" lon="10.825302871712605"><ele>1308.4</ele><time>2026-04-01T12:42:45Z</time></trkpt><trkpt lat="45.66734665608342" lon="10.82527663200055"><ele>1307.6</ele><time>2026-04-01T12:42:46Z</time></trkpt><trkpt lat="45.66745169581409" lon="10.825221996927244"><ele>1306.8</ele><time>2026-04-01T12:42:47Z</time></trkpt><trkpt lat="45.66753894185402" lon="10.825170197224748"><ele>1306.0</ele><time>2026-04-01T12:42:48Z</time></trkpt><trkpt lat="45.66762192037882" lon="10.825114173671416"><ele>1306.0</ele><time>2026-04-01T12:42:49Z</time></trkpt><trkpt lat="45.66769973468111" lon="10.825068208392564"><ele>1306.0</ele><time>2026-04-01T12:42:50Z</time></trkpt><trkpt lat="45.66778571236389" lon="10.825040844829461"><ele>1306.0</ele><time>2026-04-01T12:42:51Z</time></trkpt><trkpt lat="45.66789099034762" lon="10.825027079279579"><ele>1306.0</ele><time>2026-04-01T12:42:52Z</time></trkpt><trkpt lat="45.66799191698612" lon="10.82502052639682"><ele>1306.0</ele><time>2026-04-01T12:42:53Z</time></trkpt><trkpt lat="45.668098374111445" lon="10.825011281605848"><ele>1304.1999999999998</ele><time>2026-04-01T12:42:54Z</time></trkpt><trkpt lat="45.6682058196975" lon="10.825013203359752"><ele>1302.3999999999999</ele><time>2026-04-01T12:42:55Z</time></trkpt><trkpt lat="45.66830129688138" lon="10.825038070273498"><ele>1300.6</ele><time>2026-04-01T12:42:56Z</time></trkpt><trkpt lat="45.668392622568845" lon="10.825075345210902"><ele>1298.8</ele><time>2026-04-01T12:42:57Z</time></trkpt><trkpt lat="45.66849322200421" lon="10.825117252020847"><ele>1297.0</ele><time>2026-04-01T12:42:58Z</time></trkpt><trkpt lat="45.6685860795527" lon="10.825173825352243"><ele>1295.6</ele><time>2026-04-01T12:42:59Z</time></trkpt><trkpt lat="45.66867427570089" lon="10.825219175122877"><ele>1294.1999999999998</ele><time>2026-04-01T12:43:00Z</time></trkpt><trkpt lat="45.66877671479387" lon="10.825233187202501"><ele>1292.8</ele><time>2026-04-01T12:43:01Z</time></trkpt><trkpt lat="45.66888165069136" lon="10.825235235453334"><ele>1291.4</ele><time>2026-04-01T12:43:02Z</time></trkpt><trkpt lat="45.668996435695306" lon="10.825235423011426"><ele>1290.0</ele><time>2026-04-01T12:43:03Z</time></trkpt><trkpt lat="45.66910934860519" lon="10.82525917294533"><ele>1290.0</ele><time>2026-04-01T12:43:04Z</time></trkpt><trkpt lat="45.66922206523452" lon="10.825305252545906"><ele>1290.0</ele><time>2026-04-01T12:43:05Z</time></trkpt><trkpt lat="45.66933780090219" lon="10.825360403002444"><ele>1290.0</ele><time>2026-04-01T12:43:06Z</time></trkpt><trkpt lat="45.669450255899186" lon="10.82540242060567"><ele>1290.0</ele><time>2026-04-01T12:43:07Z</time></trkpt><trkpt lat="45.66956232118374" lon="10.825432902229595"><ele>1290.6</ele><time>2026-04-01T12:43:08Z</time></trkpt><trkpt lat="45.6696752074124" lon="10.825477859147638"><ele>1291.2</ele><time>2026-04-01T12:43:09Z</time></trkpt><trkpt lat="45.6697735065466" lon="10.82555276870703"><ele>1291.8000000000002</ele><time>2026-04-01T12:43:10Z</time></trkpt><trkpt lat="45.66985929494103" lon="10.825645941675507"><ele>1292.4</ele><time>2026-04-01T12:43:11Z</time></trkpt><trkpt lat="45.6699442728669" lon="10.825750622233956"><ele>1293.0</ele><time>2026-04-01T12:43:12Z</time></trkpt><trkpt lat="45.67002643923775" lon="10.82587200311856"><ele>1292.75</ele><time>2026-04-01T12:43:12.999Z</time></trkpt><trkpt lat="45.67010093571912" lon="10.82601786451068"><ele>1292.5</ele><time>2026-04-01T12:43:13.999Z</time></trkpt><trkpt lat="45.67017122110149" lon="10.826161510348813"><ele>1292.25</ele><time>2026-04-01T12:43:14.999Z</time></trkpt><trkpt lat="45.67024054117185" lon="10.826311694772505"><ele>1292.0</ele><time>2026-04-01T12:43:15.999Z</time></trkpt><trkpt lat="45.67031045775564" lon="10.8264805545057"><ele>1293.25</ele><time>2026-04-01T12:43:16.999Z</time></trkpt><trkpt lat="45.6703967869548" lon="10.826644651865111"><ele>1294.5</ele><time>2026-04-01T12:43:17.999Z</time></trkpt><trkpt lat="45.670488673660316" lon="10.826804732523481"><ele>1295.75</ele><time>2026-04-01T12:43:18.999Z</time></trkpt><trkpt lat="45.670577671877325" lon="10.82694118062804"><ele>1297.0</ele><time>2026-04-01T12:43:19.999Z</time></trkpt><trkpt lat="45.67067763683466" lon="10.827060209507374"><ele>1297.75</ele><time>2026-04-01T12:43:20.999Z</time></trkpt><trkpt lat="45.670779217314866" lon="10.82718753893232"><ele>1298.5</ele><time>2026-04-01T12:43:21.999Z</time></trkpt><trkpt lat="45.67087739512037" lon="10.827328420978576"><ele>1299.25</ele><time>2026-04-01T12:43:22.999Z</time></trkpt><trkpt lat="45.67097509970437" lon="10.827463644551493"><ele>1300.0</ele><time>2026-04-01T12:43:23.999Z</time></trkpt><trkpt lat="45.6710695379868" lon="10.827577737801505"><ele>1300.5</ele><time>2026-04-01T12:43:24.999Z</time></trkpt><trkpt lat="45.67116544224186" lon="10.82763833285106"><ele>1301.0</ele><time>2026-04-01T12:43:25.999Z</time></trkpt><trkpt lat="45.6712647074223" lon="10.827688658019188"><ele>1301.5</ele><time>2026-04-01T12:43:26.999Z</time></trkpt><trkpt lat="45.67133682435122" lon="10.827752576476787"><ele>1302.0</ele><time>2026-04-01T12:43:27.999Z</time></trkpt><trkpt lat="45.67139785261429" lon="10.827821980698364"><ele>1302.5</ele><time>2026-04-01T12:43:28.999Z</time></trkpt><trkpt lat="45.67145968537782" lon="10.82788141220847"><ele>1303.0</ele><time>2026-04-01T12:43:29.999Z</time></trkpt><trkpt lat="45.671547269216205" lon="10.827925415827616"><ele>1303.6000000000001</ele><time>2026-04-01T12:43:30.999Z</time></trkpt><trkpt lat="45.671651063160276" lon="10.827968399845265"><ele>1304.2</ele><time>2026-04-01T12:43:31.999Z</time></trkpt><trkpt lat="45.67174227334009" lon="10.828012912418115"><ele>1304.8</ele><time>2026-04-01T12:43:32.999Z</time></trkpt><trkpt lat="45.671841746771385" lon="10.8280623537211"><ele>1305.4</ele><time>2026-04-01T12:43:33.999Z</time></trkpt><trkpt lat="45.67194296262225" lon="10.828121599163971"><ele>1306.0</ele><time>2026-04-01T12:43:34.999Z</time></trkpt><trkpt lat="45.672030592052685" lon="10.828191513048084"><ele>1307.1666666666665</ele><time>2026-04-01T12:43:35.999Z</time></trkpt><trkpt lat="45.672109993871736" lon="10.828278669594008"><ele>1308.3333333333333</ele><time>2026-04-01T12:43:36.999Z</time></trkpt><trkpt lat="45.672184400580235" lon="10.8283646566258"><ele>1309.5</ele><time>2026-04-01T12:43:37.999Z</time></trkpt><trkpt lat="45.6722587791349" lon="10.828433377346718"><ele>1310.6666666666667</ele><time>2026-04-01T12:43:38.999Z</time></trkpt><trkpt lat="45.67233136435242" lon="10.82849163993759"><ele>1311.8333333333335</ele><time>2026-04-01T12:43:39.999Z</time></trkpt><trkpt lat="45.67239325951985" lon="10.828554247634303"><ele>1313.0</ele><time>2026-04-01T12:43:40.999Z</time></trkpt><trkpt lat="45.67246306599991" lon="10.828647997544998"><ele>1313.2</ele><time>2026-04-01T12:43:41.999Z</time></trkpt><trkpt lat="45.672547691634136" lon="10.828750923784378"><ele>1313.4</ele><time>2026-04-01T12:43:42.999Z</time></trkpt><trkpt lat="45.67262534206038" lon="10.828853308754631"><ele>1313.6000000000001</ele><time>2026-04-01T12:43:43.999Z</time></trkpt><trkpt lat="45.67269094061214" lon="10.828946987020895"><ele>1313.8000000000002</ele><time>2026-04-01T12:43:44.999Z</time></trkpt><trkpt lat="45.67272977193872" lon="10.829044508980651"><ele>1314.0</ele><time>2026-04-01T12:43:45.999Z</time></trkpt><trkpt lat="45.672755701324974" lon="10.829164408785456"><ele>1314.5</ele><time>2026-04-01T12:43:46.999Z</time></trkpt><trkpt lat="45.672783121066665" lon="10.829292547184508"><ele>1315.0</ele><time>2026-04-01T12:43:47.999Z</time></trkpt><trkpt lat="45.67282575162567" lon="10.829398833934693"><ele>1315.5</ele><time>2026-04-01T12:43:48.999Z</time></trkpt><trkpt lat="45.672882189588165" lon="10.82949757314689"><ele>1316.0</ele><time>2026-04-01T12:43:49.999Z</time></trkpt><trkpt lat="45.67293245489931" lon="10.829577377636273"><ele>1316.5</ele><time>2026-04-01T12:43:50.999Z</time></trkpt><trkpt lat="45.67297516640769" lon="10.829665812333435"><ele>1317.0</ele><time>2026-04-01T12:43:51.999Z</time></trkpt><trkpt lat="45.673008339153775" lon="10.829753933622992"><ele>1317.0</ele><time>2026-04-01T12:43:52.999Z</time></trkpt><trkpt lat="45.67304821988339" lon="10.829919808819373"><ele>1317.0</ele><time>2026-04-01T12:43:54.999Z</time></trkpt><trkpt lat="45.67308847372183" lon="10.830051334739826"><ele>1317.0</ele><time>2026-04-01T12:43:56.999Z</time></trkpt><trkpt lat="45.67316330598469" lon="10.830177496234608"><ele>1317.0</ele><time>2026-04-01T12:43:58.999Z</time></trkpt><trkpt lat="45.6732069279867" lon="10.830251840302832"><ele>1317.0</ele><time>2026-04-01T12:43:59.999Z</time></trkpt><trkpt lat="45.673253497872956" lon="10.830323655117297"><ele>1317.0</ele><time>2026-04-01T12:44:00.999Z</time></trkpt><trkpt lat="45.67333368219443" lon="10.830469107652412"><ele>1317.0</ele><time>2026-04-01T12:44:02.999Z</time></trkpt><trkpt lat="45.67337524789043" lon="10.830540863860188"><ele>1317.0</ele><time>2026-04-01T12:44:03.999Z</time></trkpt><trkpt lat="45.67346290419507" lon="10.830644676717384"><ele>1317.0</ele><time>2026-04-01T12:44:05.999Z</time></trkpt><trkpt lat="45.673564950764074" lon="10.830677258950097"><ele>1317.0</ele><time>2026-04-01T12:44:07.999Z</time></trkpt><trkpt lat="45.67367867600011" lon="10.830674015398639"><ele>1317.0</ele><time>2026-04-01T12:44:09.999Z</time></trkpt><trkpt lat="45.673750829694924" lon="10.830676059127894"><ele>1317.0</ele><time>2026-04-01T12:44:10.999Z</time></trkpt><trkpt lat="45.67382801296253" lon="10.830697719570635"><ele>1317.0</ele><time>2026-04-01T12:44:11.999Z</time></trkpt><trkpt lat="45.67391361799207" lon="10.83073323278933"><ele>1317.0</ele><time>2026-04-01T12:44:12.999Z</time></trkpt><trkpt lat="45.673980088650055" lon="10.83076004907352"><ele>1317.0</ele><time>2026-04-01T12:44:13.999Z</time></trkpt><trkpt lat="45.67409612764416" lon="10.830771435420699"><ele>1317.0</ele><time>2026-04-01T12:44:15.999Z</time></trkpt><trkpt lat="45.674160438368546" lon="10.830781923725059"><ele>1317.0</ele><time>2026-04-01T12:44:16.999Z</time></trkpt><trkpt lat="45.674273903313846" lon="10.83083631231441"><ele>1317.0</ele><time>2026-04-01T12:44:18.999Z</time></trkpt><trkpt lat="45.67434181262846" lon="10.83085070369941"><ele>1317.0</ele><time>2026-04-01T12:44:19.999Z</time></trkpt><trkpt lat="45.67442011887413" lon="10.830847230530384"><ele>1317.0</ele><time>2026-04-01T12:44:20.999Z</time></trkpt><trkpt lat="45.67449681954948" lon="10.830830757929004"><ele>1317.0</ele><time>2026-04-01T12:44:21.999Z</time></trkpt><trkpt lat="45.67456394991421" lon="10.830822220498417"><ele>1317.0</ele><time>2026-04-01T12:44:22.998Z</time></trkpt><trkpt lat="45.67465975158296" lon="10.830794803667974"><ele>1319.3333333333333</ele><time>2026-04-01T12:44:24.998Z</time></trkpt><trkpt lat="45.67477226681359" lon="10.830741562568125"><ele>1321.6666666666667</ele><time>2026-04-01T12:44:26.998Z</time></trkpt><trkpt lat="45.674833047101714" lon="10.830716150407392"><ele>1324.0</ele><time>2026-04-01T12:44:27.998Z</time></trkpt><trkpt lat="45.67490993567553" lon="10.830693479684466"><ele>1326.3333333333335</ele><time>2026-04-01T12:44:28.998Z</time></trkpt><trkpt lat="45.674995562663746" lon="10.830641352170534"><ele>1328.6666666666667</ele><time>2026-04-01T12:44:30Z</time></trkpt><trkpt lat="45.67506396531852" lon="10.830566938578903"><ele>1331.0</ele><time>2026-04-01T12:44:31Z</time></trkpt><trkpt lat="45.675127851800674" lon="10.830502076443576"><ele>1331.0</ele><time>2026-04-01T12:44:32Z</time></trkpt><trkpt lat="45.675204568300146" lon="10.830447451888706"><ele>1331.0</ele><time>2026-04-01T12:44:33Z</time></trkpt><trkpt lat="45.67526975162796" lon="10.830416109446867"><ele>1331.0</ele><time>2026-04-01T12:44:34Z</time></trkpt><trkpt lat="45.675382561146805" lon="10.830372089683017"><ele>1331.0</ele><time>2026-04-01T12:44:36Z</time></trkpt><trkpt lat="45.675447670483415" lon="10.830376548437396"><ele>1331.0</ele><time>2026-04-01T12:44:37Z</time></trkpt><trkpt lat="45.67555991016913" lon="10.830436757205087"><ele>1330.1999999999998</ele><time>2026-04-01T12:44:39Z</time></trkpt><trkpt lat="45.67566164635294" lon="10.830493167015556"><ele>1329.3999999999999</ele><time>2026-04-01T12:44:41Z</time></trkpt><trkpt lat="45.67574578416692" lon="10.830474370750531"><ele>1328.6</ele><time>2026-04-01T12:44:43Z</time></trkpt><trkpt lat="45.67586420997834" lon="10.830493738803332"><ele>1327.8</ele><time>2026-04-01T12:46:13.999Z</time></trkpt><trkpt lat="45.67592927401803" lon="10.830502955680702"><ele>1327.0</ele><time>2026-04-01T12:46:14.999Z</time></trkpt><trkpt lat="45.676013158431985" lon="10.830534694021058"><ele>1327.0</ele><time>2026-04-01T12:46:16.999Z</time></trkpt><trkpt lat="45.67610230168489" lon="10.830530611816148"><ele>1327.0</ele><time>2026-04-01T12:46:19.999Z</time></trkpt><trkpt lat="45.67617911943353" lon="10.830510460596493"><ele>1327.0</ele><time>2026-04-01T12:46:21.999Z</time></trkpt><trkpt lat="45.676252961973795" lon="10.830547650237255"><ele>1327.0</ele><time>2026-04-01T12:46:24.999Z</time></trkpt><trkpt lat="45.67631697235918" lon="10.830587585212042"><ele>1327.0</ele><time>2026-04-01T12:46:27.999Z</time></trkpt><trkpt lat="45.676376057397526" lon="10.830667126992179"><ele>1327.0</ele><time>2026-04-01T12:46:30.999Z</time></trkpt><trkpt lat="45.676409700538294" lon="10.830774812382035"><ele>1325.6666666666665</ele><time>2026-04-01T12:46:33.998Z</time></trkpt><trkpt lat="45.67646771712775" lon="10.830860049270283"><ele>1324.3333333333333</ele><time>2026-04-01T12:46:37Z</time></trkpt><trkpt lat="45.67649224621502" lon="10.830947282001329"><ele>1323.0</ele><time>2026-04-01T12:46:39Z</time></trkpt><trkpt lat="45.67652625490961" lon="10.83105702881899"><ele>1321.6666666666667</ele><time>2026-04-01T12:46:41Z</time></trkpt><trkpt lat="45.67654892869898" lon="10.831163846438482"><ele>1320.3333333333335</ele><time>2026-04-01T12:46:44Z</time></trkpt><trkpt lat="45.67653510642337" lon="10.831283032670704"><ele>1319.0</ele><time>2026-04-01T12:46:47Z</time></trkpt><trkpt lat="45.67654783213346" lon="10.831396645915298"><ele>1316.142857142857</ele><time>2026-04-01T12:46:50Z</time></trkpt><trkpt lat="45.67652725501621" lon="10.831495366891929"><ele>1313.2857142857142</ele><time>2026-04-01T12:46:52Z</time></trkpt><trkpt lat="45.67653460139172" lon="10.831603928773296"><ele>1310.4285714285716</ele><time>2026-04-01T12:46:55Z</time></trkpt><trkpt lat="45.67659087918502" lon="10.83169842489782"><ele>1307.5714285714284</ele><time>2026-04-01T12:46:59Z</time></trkpt><trkpt lat="45.67663273982207" lon="10.831768162679747"><ele>1304.7142857142858</ele><time>2026-04-01T12:47:01Z</time></trkpt><trkpt lat="45.67665013665067" lon="10.831857336878379"><ele>1301.857142857143</ele><time>2026-04-01T12:47:03Z</time></trkpt><trkpt lat="45.67665960889832" lon="10.831963110006628"><ele>1299.0</ele><time>2026-04-01T12:47:05Z</time></trkpt><trkpt lat="45.6766448932342" lon="10.832054931472602"><ele>1296.2857142857144</ele><time>2026-04-01T12:47:08Z</time></trkpt><trkpt lat="45.67660996492357" lon="10.832143858901283"><ele>1293.5714285714287</ele><time>2026-04-01T12:47:15Z</time></trkpt><trkpt lat="45.67660084748049" lon="10.832233477803642"><ele>1290.857142857143</ele><time>2026-04-01T12:47:19Z</time></trkpt><trkpt lat="45.6765925573116" lon="10.832342612877477"><ele>1288.1428571428573</ele><time>2026-04-01T12:47:22Z</time></trkpt><trkpt lat="45.67659680530235" lon="10.832478264065427"><ele>1285.4285714285716</ele><time>2026-04-01T12:47:25.999Z</time></trkpt><trkpt lat="45.676603769313374" lon="10.832578442805668"><ele>1282.7142857142858</ele><time>2026-04-01T12:47:28.999Z</time></trkpt><trkpt lat="45.67657268523381" lon="10.832662106218008"><ele>1280.0</ele><time>2026-04-01T12:47:30.999Z</time></trkpt><trkpt lat="45.67656395370266" lon="10.832754292049081"><ele>1276.4</ele><time>2026-04-01T12:47:32.999Z</time></trkpt><trkpt lat="45.67656435942895" lon="10.832893397117333"><ele>1272.8</ele><time>2026-04-01T12:47:34.999Z</time></trkpt><trkpt lat="45.67655796042419" lon="10.83304836547724"><ele>1269.2</ele><time>2026-04-01T12:47:37.999Z</time></trkpt><trkpt lat="45.67662553381426" lon="10.833186539193113"><ele>1265.6</ele><time>2026-04-01T12:47:40.999Z</time></trkpt><trkpt lat="45.67663292032441" lon="10.833324343652258"><ele>1262.0</ele><time>2026-04-01T12:47:42.999Z</time></trkpt><trkpt lat="45.67664367064254" lon="10.83346246990291"><ele>1259.3333333333335</ele><time>2026-04-01T12:47:45.999Z</time></trkpt><trkpt lat="45.67663785977449" lon="10.833577424707551"><ele>1256.6666666666667</ele><time>2026-04-01T12:47:47.999Z</time></trkpt><trkpt lat="45.676600378779334" lon="10.833669616426668"><ele>1254.0</ele><time>2026-04-01T12:47:49.999Z</time></trkpt><trkpt lat="45.67657090762886" lon="10.83375179557863"><ele>1251.3333333333333</ele><time>2026-04-01T12:47:51.999Z</time></trkpt><trkpt lat="45.6765274145214" lon="10.833848260551894"><ele>1248.6666666666665</ele><time>2026-04-01T12:47:53.999Z</time></trkpt><trkpt lat="45.676475853209766" lon="10.83395255642402"><ele>1246.0</ele><time>2026-04-01T12:47:55.999Z</time></trkpt><trkpt lat="45.676434194979535" lon="10.834068851019563"><ele>1246.0</ele><time>2026-04-01T12:47:58.999Z</time></trkpt><trkpt lat="45.67645200619162" lon="10.83421011505232"><ele>1246.0</ele><time>2026-04-01T12:48:01.999Z</time></trkpt><trkpt lat="45.676435991810195" lon="10.834319293617892"><ele>1246.0</ele><time>2026-04-01T12:48:17.999Z</time></trkpt><trkpt lat="45.67642555999261" lon="10.83442853279841"><ele>1246.0</ele><time>2026-04-01T12:48:20.999Z</time></trkpt><trkpt lat="45.67639287099735" lon="10.83453968671441"><ele>1246.0</ele><time>2026-04-01T12:48:22.999Z</time></trkpt><trkpt lat="45.67640514475605" lon="10.834653052892678"><ele>1246.0</ele><time>2026-04-01T12:48:25.999Z</time></trkpt><trkpt lat="45.67638190810187" lon="10.834756421533978"><ele>1241.8</ele><time>2026-04-01T12:48:27.999Z</time></trkpt><trkpt lat="45.676362761060176" lon="10.834902305797298"><ele>1237.6</ele><time>2026-04-01T12:48:30.999Z</time></trkpt><trkpt lat="45.67634332616391" lon="10.83504649222669"><ele>1233.4</ele><time>2026-04-01T12:48:32.998Z</time></trkpt><trkpt lat="45.67633183012373" lon="10.835137919091148"><ele>1229.2</ele><time>2026-04-01T12:48:34.998Z</time></trkpt><trkpt lat="45.676324651594086" lon="10.83528909018704"><ele>1225.0</ele><time>2026-04-01T12:48:36.998Z</time></trkpt><trkpt lat="45.67632448305289" lon="10.835403493553134"><ele>1221.8</ele><time>2026-04-01T12:48:38.998Z</time></trkpt><trkpt lat="45.676330447125345" lon="10.835546247137286"><ele>1218.6</ele><time>2026-04-01T12:48:42Z</time></trkpt><trkpt lat="45.676292525564975" lon="10.835685514124519"><ele>1215.4</ele><time>2026-04-01T12:48:44Z</time></trkpt><trkpt lat="45.67630405015295" lon="10.83580458825153"><ele>1212.2</ele><time>2026-04-01T12:48:46Z</time></trkpt><trkpt lat="45.67628596648717" lon="10.83597298332598"><ele>1209.0</ele><time>2026-04-01T12:48:48Z</time></trkpt><trkpt lat="45.67628479648152" lon="10.836086426499115"><ele>1206.6666666666667</ele><time>2026-04-01T12:48:50Z</time></trkpt><trkpt lat="45.676291277196825" lon="10.83619888732304"><ele>1204.3333333333333</ele><time>2026-04-01T12:48:52Z</time></trkpt><trkpt lat="45.676259560066676" lon="10.836346688450924"><ele>1202.0</ele><time>2026-04-01T12:48:58Z</time></trkpt><trkpt lat="45.67626711314758" lon="10.836437013538314"><ele>1199.6666666666665</ele><time>2026-04-01T12:49:02Z</time></trkpt><trkpt lat="45.67630381941932" lon="10.836537443823191"><ele>1197.3333333333333</ele><time>2026-04-01T12:49:05Z</time></trkpt><trkpt lat="45.676274441796046" lon="10.836648161083414"><ele>1195.0</ele><time>2026-04-01T12:49:08Z</time></trkpt><trkpt lat="45.67628472241702" lon="10.83678051027275"><ele>1191.8</ele><time>2026-04-01T12:49:10Z</time></trkpt><trkpt lat="45.67630705007437" lon="10.836883885616954"><ele>1188.6</ele><time>2026-04-01T12:49:11Z</time></trkpt><trkpt lat="45.67630197793178" lon="10.837035558215515"><ele>1185.4</ele><time>2026-04-01T12:49:13Z</time></trkpt><trkpt lat="45.67631442875445" lon="10.837162046871342"><ele>1182.2</ele><time>2026-04-01T12:49:14Z</time></trkpt><trkpt lat="45.6763133177435" lon="10.837325168404071"><ele>1179.0</ele><time>2026-04-01T12:49:16Z</time></trkpt><trkpt lat="45.676345661579234" lon="10.837410986651289"><ele>1179.0</ele><time>2026-04-01T12:49:17Z</time></trkpt><trkpt lat="45.67632394013628" lon="10.837531835080354"><ele>1179.0</ele><time>2026-04-01T12:49:19Z</time></trkpt><trkpt lat="45.67635049090869" lon="10.837629522656044"><ele>1179.0</ele><time>2026-04-01T12:49:21Z</time></trkpt><trkpt lat="45.67640744196367" lon="10.83769890651134"><ele>1179.0</ele><time>2026-04-01T12:49:23Z</time></trkpt><trkpt lat="45.67640866429402" lon="10.837806140554145"><ele>1179.0</ele><time>2026-04-01T12:49:25Z</time></trkpt><trkpt lat="45.67643828510871" lon="10.83788916492501"><ele>1179.0</ele><time>2026-04-01T12:49:31.999Z</time></trkpt><trkpt lat="45.6764461576825" lon="10.838011253063703"><ele>1177.0</ele><time>2026-04-01T12:49:33.999Z</time></trkpt><trkpt lat="45.67645088126849" lon="10.838128993273518"><ele>1175.0</ele><time>2026-04-01T12:49:35.999Z</time></trkpt><trkpt lat="45.67646285671262" lon="10.83822343512626"><ele>1173.0</ele><time>2026-04-01T12:49:36.999Z</time></trkpt><trkpt lat="45.676500472121774" lon="10.838334805259565"><ele>1171.0</ele><time>2026-04-01T12:49:38.999Z</time></trkpt><trkpt lat="45.67654625408862" lon="10.83848367808355"><ele>1169.0</ele><time>2026-04-01T12:49:40.999Z</time></trkpt><trkpt lat="45.67661676035355" lon="10.838578515973932"><ele>1167.0</ele><time>2026-04-01T12:49:42.999Z</time></trkpt><trkpt lat="45.67657537804859" lon="10.83870008731508"><ele>1165.6666666666667</ele><time>2026-04-01T12:49:44.999Z</time></trkpt><trkpt lat="45.676613725776825" lon="10.838793499038877"><ele>1164.3333333333333</ele><time>2026-04-01T12:49:46.999Z</time></trkpt><trkpt lat="45.67665868850802" lon="10.838952865582053"><ele>1163.0</ele><time>2026-04-01T12:49:48.999Z</time></trkpt><trkpt lat="45.67667657252131" lon="10.839069283928733"><ele>1161.6666666666665</ele><time>2026-04-01T12:49:50.999Z</time></trkpt><trkpt lat="45.67672428708261" lon="10.839137194661008"><ele>1160.3333333333333</ele><time>2026-04-01T12:49:56.999Z</time></trkpt><trkpt lat="45.67669194009321" lon="10.8392648143169"><ele>1159.0</ele><time>2026-04-01T12:50:00.999Z</time></trkpt><trkpt lat="45.67667232704941" lon="10.839364040275107"><ele>1155.6666666666665</ele><time>2026-04-01T12:50:57Z</time></trkpt><trkpt lat="45.676652721967464" lon="10.83946081567835"><ele>1152.3333333333333</ele><time>2026-04-01T12:51:04Z</time></trkpt><trkpt lat="45.67659798317205" lon="10.8395961304782"><ele>1149.0</ele><time>2026-04-01T12:51:06Z</time></trkpt><trkpt lat="45.67651265951801" lon="10.839612168941175"><ele>1145.6666666666667</ele><time>2026-04-01T12:51:09Z</time></trkpt><trkpt lat="45.67647008221691" lon="10.839681336292964"><ele>1142.3333333333335</ele><time>2026-04-01T12:51:12Z</time></trkpt><trkpt lat="45.676411347573584" lon="10.839774023684035"><ele>1139.0</ele><time>2026-04-01T12:51:15Z</time></trkpt><trkpt lat="45.6763610870878" lon="10.839851109763227"><ele>1139.0</ele><time>2026-04-01T12:51:16Z</time></trkpt><trkpt lat="45.6762403178653" lon="10.839926489561485"><ele>1139.0</ele><time>2026-04-01T12:51:18Z</time></trkpt><trkpt lat="45.67618026214727" lon="10.83997477246874"><ele>1139.0</ele><time>2026-04-01T12:51:19Z</time></trkpt><trkpt lat="45.67608898407611" lon="10.84006227383306"><ele>1139.0</ele><time>2026-04-01T12:51:21Z</time></trkpt><trkpt lat="45.675977102110764" lon="10.840119245085447"><ele>1139.0</ele><time>2026-04-01T12:51:23Z</time></trkpt><trkpt lat="45.67589484242041" lon="10.840114594028996"><ele>1143.5</ele><time>2026-04-01T12:51:24Z</time></trkpt><trkpt lat="45.67578694119865" lon="10.840072095427518"><ele>1148.0</ele><time>2026-04-01T12:51:26Z</time></trkpt><trkpt lat="45.67572219456004" lon="10.840061471511145"><ele>1152.5</ele><time>2026-04-01T12:51:27Z</time></trkpt><trkpt lat="45.675644963575394" lon="10.84008007748507"><ele>1157.0</ele><time>2026-04-01T12:51:28Z</time></trkpt><trkpt lat="45.67557801326266" lon="10.8400737109395"><ele>1161.5</ele><time>2026-04-01T12:51:29Z</time></trkpt><trkpt lat="45.675508286658754" lon="10.840064465118123"><ele>1166.0</ele><time>2026-04-01T12:51:30Z</time></trkpt><trkpt lat="45.67543412073618" lon="10.840128281967043"><ele>1167.3999999999999</ele><time>2026-04-01T12:51:31.999Z</time></trkpt><trkpt lat="45.6753610603775" lon="10.840163482217116"><ele>1168.8</ele><time>2026-04-01T12:51:33.999Z</time></trkpt><trkpt lat="45.67528114183051" lon="10.840175272764979"><ele>1170.1999999999998</ele><time>2026-04-01T12:51:35.999Z</time></trkpt><trkpt lat="45.67517181357935" lon="10.840123243700662"><ele>1171.6</ele><time>2026-04-01T12:51:37.999Z</time></trkpt><trkpt lat="45.67506872708817" lon="10.840084636348934"><ele>1173.0</ele><time>2026-04-01T12:51:39.999Z</time></trkpt><trkpt lat="45.67499538483831" lon="10.840037763686732"><ele>1173.0</ele><time>2026-04-01T12:51:41.999Z</time></trkpt><trkpt lat="45.67488439201305" lon="10.840067652284164"><ele>1173.0</ele><time>2026-04-01T12:51:43.999Z</time></trkpt><trkpt lat="45.674777018506646" lon="10.840077819487785"><ele>1173.0</ele><time>2026-04-01T12:51:45.999Z</time></trkpt><trkpt lat="45.67471550399391" lon="10.840019165675645"><ele>1173.0</ele><time>2026-04-01T12:51:47.999Z</time></trkpt><trkpt lat="45.674602720189704" lon="10.84007247190765"><ele>1173.0</ele><time>2026-04-01T12:51:49.999Z</time></trkpt><trkpt lat="45.67447757259429" lon="10.840145674999524"><ele>1173.0</ele><time>2026-04-01T12:51:51.999Z</time></trkpt><trkpt lat="45.67438782578576" lon="10.840113136186032"><ele>1173.0</ele><time>2026-04-01T12:51:53.999Z</time></trkpt><trkpt lat="45.674332824993705" lon="10.840067468873588"><ele>1173.0</ele><time>2026-04-01T12:51:55.999Z</time></trkpt><trkpt lat="45.674246193696874" lon="10.840108117028283"><ele>1173.0</ele><time>2026-04-01T12:51:59.999Z</time></trkpt><trkpt lat="45.67416655481617" lon="10.840120247481513"><ele>1173.0</ele><time>2026-04-01T12:52:02.999Z</time></trkpt><trkpt lat="45.67409885481018" lon="10.840114186762182"><ele>1173.0</ele><time>2026-04-01T12:52:04.999Z</time></trkpt><trkpt lat="45.67403842441313" lon="10.840139695319477"><ele>1173.0</ele><time>2026-04-01T12:52:06.999Z</time></trkpt><trkpt lat="45.67397013464359" lon="10.840088381053965"><ele>1173.0</ele><time>2026-04-01T12:52:09.999Z</time></trkpt><trkpt lat="45.67389833335026" lon="10.840086473221369"><ele>1173.0</ele><time>2026-04-01T12:52:11.999Z</time></trkpt><trkpt lat="45.67372819307978" lon="10.840067258809075"><ele>1173.0</ele><time>2026-04-01T12:52:12.999Z</time></trkpt><trkpt lat="45.6736359011651" lon="10.840087862052629"><ele>1173.0</ele><time>2026-04-01T12:52:13.999Z</time></trkpt><trkpt lat="45.673537442431744" lon="10.840108926383321"><ele>1171.4</ele><time>2026-04-01T12:52:14.999Z</time></trkpt><trkpt lat="45.67347333978504" lon="10.840129693824316"><ele>1169.8</ele><time>2026-04-01T12:52:15.999Z</time></trkpt><trkpt lat="45.673367937663706" lon="10.840193942646183"><ele>1168.2</ele><time>2026-04-01T12:52:17.999Z</time></trkpt><trkpt lat="45.67326887370575" lon="10.84019819945666"><ele>1166.6</ele><time>2026-04-01T12:52:19.999Z</time></trkpt><trkpt lat="45.67318714306039" lon="10.840276416720178"><ele>1165.0</ele><time>2026-04-01T12:52:21.999Z</time></trkpt><trkpt lat="45.67309818838755" lon="10.840350000289156"><ele>1160.1666666666665</ele><time>2026-04-01T12:52:23.999Z</time></trkpt><trkpt lat="45.673022064844595" lon="10.840391894813049"><ele>1155.3333333333333</ele><time>2026-04-01T12:52:25.999Z</time></trkpt><trkpt lat="45.67297333160883" lon="10.840453460652595"><ele>1150.5</ele><time>2026-04-01T12:52:26.999Z</time></trkpt><trkpt lat="45.672897889807004" lon="10.840548330114538"><ele>1145.6666666666667</ele><time>2026-04-01T12:52:28.999Z</time></trkpt><trkpt lat="45.67283351722513" lon="10.840578390720868"><ele>1140.8333333333335</ele><time>2026-04-01T12:52:31.999Z</time></trkpt><trkpt lat="45.67275715462768" lon="10.840599313966496"><ele>1136.0</ele><time>2026-04-01T12:52:34.999Z</time></trkpt><trkpt lat="45.67264421917831" lon="10.840610113830111"><ele>1136.0</ele><time>2026-04-01T12:52:38.999Z</time></trkpt><trkpt lat="45.672576557631515" lon="10.840633618593982"><ele>1136.0</ele><time>2026-04-01T12:52:39.998Z</time></trkpt><trkpt lat="45.67247543444881" lon="10.840646116878181"><ele>1136.0</ele><time>2026-04-01T12:52:41.998Z</time></trkpt><trkpt lat="45.672393864925944" lon="10.840627486627701"><ele>1136.0</ele><time>2026-04-01T12:52:44.998Z</time></trkpt><trkpt lat="45.67231787599415" lon="10.840641761749048"><ele>1136.0</ele><time>2026-04-01T12:52:49.998Z</time></trkpt><trkpt lat="45.67225273437724" lon="10.840666209788477"><ele>1136.0</ele><time>2026-04-01T12:52:58Z</time></trkpt><trkpt lat="45.67227463967463" lon="10.840803061462399"><ele>1136.0</ele><time>2026-04-01T12:53:35Z</time></trkpt><trkpt lat="45.67235313336979" lon="10.840850014069359"><ele>1136.0</ele><time>2026-04-01T12:53:37Z</time></trkpt><trkpt lat="45.67244286114001" lon="10.840868632789103"><ele>1136.0</ele><time>2026-04-01T12:53:40Z</time></trkpt><trkpt lat="45.672525270467766" lon="10.840896210933046"><ele>1136.0</ele><time>2026-04-01T12:53:43.999Z</time></trkpt><trkpt lat="45.67260905594218" lon="10.84093174324382"><ele>1136.0</ele><time>2026-04-01T12:53:47.999Z</time></trkpt><trkpt lat="45.67270782933837" lon="10.840961917921033"><ele>1136.0</ele><time>2026-04-01T12:53:51.999Z</time></trkpt><trkpt lat="45.67277919750486" lon="10.841012777173164"><ele>1128.8333333333335</ele><time>2026-04-01T12:53:55.999Z</time></trkpt><trkpt lat="45.67275975415901" lon="10.841123123653439"><ele>1121.6666666666667</ele><time>2026-04-01T12:54:10.999Z</time></trkpt><trkpt lat="45.67274409427624" lon="10.841212109682054"><ele>1114.5</ele><time>2026-04-01T12:54:57.998Z</time></trkpt><trkpt lat="45.67265352003522" lon="10.841243316350049"><ele>1107.3333333333333</ele><time>2026-04-01T12:55:50Z</time></trkpt><trkpt lat="45.67258127029575" lon="10.84127367307476"><ele>1100.1666666666665</ele><time>2026-04-01T12:55:51.999Z</time></trkpt><trkpt lat="45.67249276712121" lon="10.841290060909053"><ele>1093.0</ele><time>2026-04-01T12:55:53.999Z</time></trkpt><trkpt lat="45.67239676074367" lon="10.841316557925365"><ele>1093.0</ele><time>2026-04-01T12:55:55.999Z</time></trkpt><trkpt lat="45.672317653143935" lon="10.841320595620314"><ele>1093.0</ele><time>2026-04-01T12:55:57.999Z</time></trkpt><trkpt lat="45.672208274349984" lon="10.84139256019593"><ele>1093.0</ele><time>2026-04-01T12:56:00.999Z</time></trkpt><trkpt lat="45.67209329507036" lon="10.841428025397303"><ele>1093.0</ele><time>2026-04-01T12:56:02.999Z</time></trkpt><trkpt lat="45.671987639873954" lon="10.84146487158984"><ele>1093.0</ele><time>2026-04-01T12:56:04.999Z</time></trkpt><trkpt lat="45.67187791764813" lon="10.841572301659015"><ele>1093.1666666666665</ele><time>2026-04-01T12:56:06.999Z</time></trkpt><trkpt lat="45.67181354607661" lon="10.841647255058835"><ele>1093.3333333333333</ele><time>2026-04-01T12:56:07.999Z</time></trkpt><trkpt lat="45.67174896227538" lon="10.841703122580874"><ele>1093.5</ele><time>2026-04-01T12:56:08.999Z</time></trkpt><trkpt lat="45.6716894606432" lon="10.841749278767116"><ele>1093.6666666666667</ele><time>2026-04-01T12:56:09.999Z</time></trkpt><trkpt lat="45.671626409918744" lon="10.841795656854602"><ele>1093.8333333333335</ele><time>2026-04-01T12:56:10.999Z</time></trkpt><trkpt lat="45.671548462861416" lon="10.841833840324096"><ele>1094.0</ele><time>2026-04-01T12:56:11.999Z</time></trkpt><trkpt lat="45.67147772999999" lon="10.84186732798262"><ele>1088.8333333333335</ele><time>2026-04-01T12:56:12.999Z</time></trkpt><trkpt lat="45.671414404629914" lon="10.841919506412736"><ele>1083.6666666666667</ele><time>2026-04-01T12:56:13.999Z</time></trkpt><trkpt lat="45.67134598400233" lon="10.841988256975148"><ele>1078.5</ele><time>2026-04-01T12:56:14.999Z</time></trkpt><trkpt lat="45.671251836684554" lon="10.84205341933331"><ele>1073.3333333333333</ele><time>2026-04-01T12:56:15.999Z</time></trkpt><trkpt lat="45.671159856817944" lon="10.842115284778853"><ele>1068.1666666666665</ele><time>2026-04-01T12:56:16.999Z</time></trkpt><trkpt lat="45.67109051307728" lon="10.84214021715828"><ele>1063.0</ele><time>2026-04-01T12:56:17.999Z</time></trkpt><trkpt lat="45.671010069921216" lon="10.842203658370416"><ele>1063.0</ele><time>2026-04-01T12:56:18.999Z</time></trkpt><trkpt lat="45.670941984488465" lon="10.842234769046119"><ele>1063.0</ele><time>2026-04-01T12:56:19.999Z</time></trkpt><trkpt lat="45.67083547551027" lon="10.842248444437457"><ele>1063.0</ele><time>2026-04-01T12:56:21.999Z</time></trkpt><trkpt lat="45.670781587062045" lon="10.842301883931725"><ele>1063.0</ele><time>2026-04-01T12:56:22.999Z</time></trkpt><trkpt lat="45.670709679308146" lon="10.842329888167583"><ele>1063.0</ele><time>2026-04-01T12:56:23.999Z</time></trkpt><trkpt lat="45.67058190863845" lon="10.84233438099787"><ele>1063.0</ele><time>2026-04-01T12:56:25.999Z</time></trkpt><trkpt lat="45.67047275861266" lon="10.842355162313584"><ele>1063.0</ele><time>2026-04-01T12:56:27.999Z</time></trkpt><trkpt lat="45.67034753304233" lon="10.84240969593003"><ele>1063.0</ele><time>2026-04-01T12:56:29.999Z</time></trkpt><trkpt lat="45.67027671469274" lon="10.842436260822579"><ele>1063.0</ele><time>2026-04-01T12:56:30.999Z</time></trkpt><trkpt lat="45.67019970236418" lon="10.84247283019811"><ele>1063.0</ele><time>2026-04-01T12:56:31.999Z</time></trkpt><trkpt lat="45.670108590961725" lon="10.842545976698599"><ele>1063.0</ele><time>2026-04-01T12:56:32.999Z</time></trkpt><trkpt lat="45.670022775544915" lon="10.842584315541592"><ele>1059.6</ele><time>2026-04-01T12:56:33.999Z</time></trkpt><trkpt lat="45.669946580076115" lon="10.842644447692393"><ele>1056.1999999999998</ele><time>2026-04-01T12:56:34.999Z</time></trkpt><trkpt lat="45.6698723599843" lon="10.842739414033126"><ele>1052.8</ele><time>2026-04-01T12:56:35.999Z</time></trkpt><trkpt lat="45.66979915947168" lon="10.842833838694373"><ele>1049.3999999999999</ele><time>2026-04-01T12:56:36.999Z</time></trkpt><trkpt lat="45.66973850621022" lon="10.842884452482364"><ele>1046.0</ele><time>2026-04-01T12:56:37.999Z</time></trkpt><trkpt lat="45.66969810101086" lon="10.843040934606508"><ele>1046.0</ele><time>2026-04-01T12:56:39.999Z</time></trkpt><trkpt lat="45.669687344621636" lon="10.843171927986994"><ele>1046.0</ele><time>2026-04-01T12:56:40.999Z</time></trkpt><trkpt lat="45.66965350550023" lon="10.843314209626602"><ele>1046.0</ele><time>2026-04-01T12:56:41.999Z</time></trkpt><trkpt lat="45.66963210340855" lon="10.843422903077347"><ele>1046.0</ele><time>2026-04-01T12:56:42.999Z</time></trkpt><trkpt lat="45.669611187757795" lon="10.843540815212684"><ele>1046.0</ele><time>2026-04-01T12:56:43.999Z</time></trkpt><trkpt lat="45.669578529163964" lon="10.843631961021217"><ele>1046.0</ele><time>2026-04-01T12:56:44.999Z</time></trkpt><trkpt lat="45.66953129350574" lon="10.843729562433849"><ele>1046.1666666666667</ele><time>2026-04-01T12:56:45.999Z</time></trkpt><trkpt lat="45.66947076584604" lon="10.84380037506061"><ele>1046.3333333333335</ele><time>2026-04-01T12:56:46.999Z</time></trkpt><trkpt lat="45.66938462149822" lon="10.843861851106073"><ele>1046.5</ele><time>2026-04-01T12:56:47.999Z</time></trkpt><trkpt lat="45.66930658753317" lon="10.843910357659865"><ele>1046.6666666666667</ele><time>2026-04-01T12:56:48.999Z</time></trkpt><trkpt lat="45.669227680633206" lon="10.843922789863585"><ele>1046.8333333333333</ele><time>2026-04-01T12:56:49.999Z</time></trkpt><trkpt lat="45.66915613234196" lon="10.843904486301746"><ele>1047.0</ele><time>2026-04-01T12:56:50.999Z</time></trkpt><trkpt lat="45.669069344991975" lon="10.84388388338323"><ele>1046.6666666666667</ele><time>2026-04-01T12:56:51.999Z</time></trkpt><trkpt lat="45.66899968822406" lon="10.843857270434443"><ele>1046.3333333333333</ele><time>2026-04-01T12:56:52.999Z</time></trkpt><trkpt lat="45.66892393969928" lon="10.843833827508753"><ele>1046.0</ele><time>2026-04-01T12:56:53.999Z</time></trkpt><trkpt lat="45.66883280191632" lon="10.843797243000095"><ele>1045.6666666666665</ele><time>2026-04-01T12:56:54.999Z</time></trkpt><trkpt lat="45.668737250998674" lon="10.84374693647676"><ele>1045.3333333333333</ele><time>2026-04-01T12:56:55.999Z</time></trkpt><trkpt lat="45.66864504503693" lon="10.843715662375713"><ele>1045.0</ele><time>2026-04-01T12:56:56.999Z</time></trkpt><trkpt lat="45.668540818431296" lon="10.843700019606288"><ele>1044.8333333333333</ele><time>2026-04-01T12:56:57.999Z</time></trkpt><trkpt lat="45.668460864050836" lon="10.843687546824487"><ele>1044.6666666666665</ele><time>2026-04-01T12:56:58.999Z</time></trkpt><trkpt lat="45.66837476358914" lon="10.843662307913625"><ele>1044.5</ele><time>2026-04-01T12:56:59.999Z</time></trkpt><trkpt lat="45.668286779786754" lon="10.84363928742809"><ele>1044.3333333333333</ele><time>2026-04-01T12:57:00.999Z</time></trkpt><trkpt lat="45.668220041416056" lon="10.843609316397334"><ele>1044.1666666666667</ele><time>2026-04-01T12:57:01.998Z</time></trkpt><trkpt lat="45.668130659647844" lon="10.84356396717239"><ele>1044.0</ele><time>2026-04-01T12:57:02.998Z</time></trkpt><trkpt lat="45.668054789134914" lon="10.843510812006693"><ele>1044.0</ele><time>2026-04-01T12:57:03.998Z</time></trkpt><trkpt lat="45.66798334581055" lon="10.843436191756282"><ele>1044.0</ele><time>2026-04-01T12:57:05Z</time></trkpt><trkpt lat="45.667932589974214" lon="10.84336893529893"><ele>1044.0</ele><time>2026-04-01T12:57:06Z</time></trkpt><trkpt lat="45.66786322247803" lon="10.843308648068101"><ele>1044.0</ele><time>2026-04-01T12:57:07Z</time></trkpt><trkpt lat="45.66778960393532" lon="10.843293072078025"><ele>1044.0</ele><time>2026-04-01T12:57:08Z</time></trkpt><trkpt lat="45.66771176510559" lon="10.843296118123547"><ele>1044.0</ele><time>2026-04-01T12:57:09Z</time></trkpt><trkpt lat="45.667649201203545" lon="10.843280128189825"><ele>1045.0</ele><time>2026-04-01T12:57:10Z</time></trkpt><trkpt lat="45.667506519960426" lon="10.843222498959955"><ele>1046.0</ele><time>2026-04-01T12:57:12Z</time></trkpt><trkpt lat="45.66741466515677" lon="10.843199300151024"><ele>1047.0</ele><time>2026-04-01T12:57:13Z</time></trkpt><trkpt lat="45.66732526388668" lon="10.84316668722469"><ele>1048.0</ele><time>2026-04-01T12:57:14Z</time></trkpt><trkpt lat="45.66724151800094" lon="10.843127791712227"><ele>1049.0</ele><time>2026-04-01T12:57:15Z</time></trkpt><trkpt lat="45.66714345454031" lon="10.843089916202151"><ele>1049.0</ele><time>2026-04-01T12:57:16Z</time></trkpt><trkpt lat="45.66705162340646" lon="10.843060195227762"><ele>1049.0</ele><time>2026-04-01T12:57:17Z</time></trkpt><trkpt lat="45.66697285870083" lon="10.843014675906298"><ele>1049.0</ele><time>2026-04-01T12:57:18Z</time></trkpt><trkpt lat="45.666893807486645" lon="10.842985500749503"><ele>1049.0</ele><time>2026-04-01T12:57:19Z</time></trkpt><trkpt lat="45.66681194321454" lon="10.842931437131584"><ele>1049.0</ele><time>2026-04-01T12:57:20Z</time></trkpt><trkpt lat="45.666722924196876" lon="10.842867852386096"><ele>1049.5</ele><time>2026-04-01T12:57:21Z</time></trkpt><trkpt lat="45.66665936843046" lon="10.842811272399947"><ele>1050.0</ele><time>2026-04-01T12:57:22Z</time></trkpt><trkpt lat="45.666586854352644" lon="10.8427853068268"><ele>1050.5</ele><time>2026-04-01T12:57:23Z</time></trkpt><trkpt lat="45.66652088889014" lon="10.842796131371289"><ele>1051.0</ele><time>2026-04-01T12:57:24Z</time></trkpt><trkpt lat="45.66642213788514" lon="10.842824717375454"><ele>1051.5</ele><time>2026-04-01T12:57:26Z</time></trkpt><trkpt lat="45.66632979004806" lon="10.842937443899485"><ele>1052.0</ele><time>2026-04-01T12:57:28Z</time></trkpt><trkpt lat="45.6662954808646" lon="10.84301401766989"><ele>1052.0</ele><time>2026-04-01T12:57:29Z</time></trkpt><trkpt lat="45.666269611773416" lon="10.843100468525678"><ele>1052.0</ele><time>2026-04-01T12:57:30Z</time></trkpt><trkpt lat="45.66623462040731" lon="10.843191966749039"><ele>1052.0</ele><time>2026-04-01T12:57:31Z</time></trkpt><trkpt lat="45.66617528208307" lon="10.843262085150416"><ele>1052.0</ele><time>2026-04-01T12:57:32Z</time></trkpt><trkpt lat="45.66610825570953" lon="10.843310171748614"><ele>1052.0</ele><time>2026-04-01T12:57:33Z</time></trkpt><trkpt lat="45.66603894297302" lon="10.84335145713142"><ele>1052.0</ele><time>2026-04-01T12:57:34Z</time></trkpt><trkpt lat="45.66595912714159" lon="10.843381511040517"><ele>1052.0</ele><time>2026-04-01T12:57:35Z</time></trkpt><trkpt lat="45.66585260687944" lon="10.843416504622429"><ele>1051.4</ele><time>2026-04-01T12:57:36Z</time></trkpt><trkpt lat="45.66575507143885" lon="10.843437762943802"><ele>1050.8000000000002</ele><time>2026-04-01T12:57:37Z</time></trkpt><trkpt lat="45.66566949337538" lon="10.843452719212177"><ele>1050.2</ele><time>2026-04-01T12:57:38Z</time></trkpt><trkpt lat="45.66557532002151" lon="10.843477560502333"><ele>1049.6000000000001</ele><time>2026-04-01T12:57:39Z</time></trkpt><trkpt lat="45.66548619782411" lon="10.84350703980389"><ele>1049.0</ele><time>2026-04-01T12:57:40Z</time></trkpt><trkpt lat="45.665392853533966" lon="10.843534591732125"><ele>1049.5</ele><time>2026-04-01T12:57:41Z</time></trkpt><trkpt lat="45.665317569409325" lon="10.84354154998161"><ele>1050.0</ele><time>2026-04-01T12:57:42Z</time></trkpt><trkpt lat="45.66525334252043" lon="10.84353100427373"><ele>1050.5</ele><time>2026-04-01T12:57:43Z</time></trkpt><trkpt lat="45.66514691737842" lon="10.843462831918522"><ele>1051.0</ele><time>2026-04-01T12:57:45Z</time></trkpt><trkpt lat="45.66508345868631" lon="10.843401541960535"><ele>1051.5</ele><time>2026-04-01T12:57:46Z</time></trkpt><trkpt lat="45.66500410174364" lon="10.843326536037102"><ele>1052.0</ele><time>2026-04-01T12:57:47Z</time></trkpt><trkpt lat="45.66493587642041" lon="10.843247912827527"><ele>1052.0</ele><time>2026-04-01T12:57:48Z</time></trkpt><trkpt lat="45.664881071859554" lon="10.843156108662711"><ele>1052.0</ele><time>2026-04-01T12:57:49Z</time></trkpt><trkpt lat="45.66483792042266" lon="10.843039300829556"><ele>1052.0</ele><time>2026-04-01T12:57:50Z</time></trkpt><trkpt lat="45.66478003797751" lon="10.842898482823777"><ele>1052.0</ele><time>2026-04-01T12:57:51Z</time></trkpt><trkpt lat="45.66471121924518" lon="10.842755231191648"><ele>1052.0</ele><time>2026-04-01T12:57:52Z</time></trkpt><trkpt lat="45.664659287159225" lon="10.842636844038191"><ele>1052.6666666666667</ele><time>2026-04-01T12:57:53Z</time></trkpt><trkpt lat="45.66462382103237" lon="10.84253343754835"><ele>1053.3333333333335</ele><time>2026-04-01T12:57:54Z</time></trkpt><trkpt lat="45.66458721029103" lon="10.842418425680068"><ele>1054.0</ele><time>2026-04-01T12:57:56Z</time></trkpt><trkpt lat="45.664558392268475" lon="10.842332573983434"><ele>1054.6666666666667</ele><time>2026-04-01T12:57:56.999Z</time></trkpt><trkpt lat="45.664522282556185" lon="10.84223081102695"><ele>1055.3333333333333</ele><time>2026-04-01T12:57:57.999Z</time></trkpt><trkpt lat="45.664471118584544" lon="10.842142992702215"><ele>1056.0</ele><time>2026-04-01T12:57:58.999Z</time></trkpt><trkpt lat="45.664398257256266" lon="10.842069207074648"><ele>1056.5</ele><time>2026-04-01T12:57:59.999Z</time></trkpt><trkpt lat="45.66432783030622" lon="10.841994837536326"><ele>1057.0</ele><time>2026-04-01T12:58:00.999Z</time></trkpt><trkpt lat="45.664274855361114" lon="10.84192914684459"><ele>1057.5</ele><time>2026-04-01T12:58:01.999Z</time></trkpt><trkpt lat="45.66420217023139" lon="10.841892680057338"><ele>1058.0</ele><time>2026-04-01T12:58:02.999Z</time></trkpt><trkpt lat="45.66411501741438" lon="10.841888352680016"><ele>1058.5</ele><time>2026-04-01T12:58:03.999Z</time></trkpt><trkpt lat="45.664036189537924" lon="10.841872968872421"><ele>1059.0</ele><time>2026-04-01T12:58:04.999Z</time></trkpt><trkpt lat="45.663940188441" lon="10.841869262377978"><ele>1059.0</ele><time>2026-04-01T12:58:05.999Z</time></trkpt><trkpt lat="45.663856211048866" lon="10.841871486352977"><ele>1059.0</ele><time>2026-04-01T12:58:06.999Z</time></trkpt><trkpt lat="45.66378304541073" lon="10.841881028472649"><ele>1059.0</ele><time>2026-04-01T12:58:07.999Z</time></trkpt><trkpt lat="45.66367106841196" lon="10.841860326662907"><ele>1059.0</ele><time>2026-04-01T12:58:09.999Z</time></trkpt><trkpt lat="45.663605266091594" lon="10.84177723002361"><ele>1059.0</ele><time>2026-04-01T12:58:10.999Z</time></trkpt><trkpt lat="45.66355010663573" lon="10.841698836669515"><ele>1059.0</ele><time>2026-04-01T12:58:11.999Z</time></trkpt><trkpt lat="45.66346127673328" lon="10.841590217447225"><ele>1060.4</ele><time>2026-04-01T12:58:13.999Z</time></trkpt><trkpt lat="45.66333902769141" lon="10.841513181074898"><ele>1061.8000000000002</ele><time>2026-04-01T12:58:15.999Z</time></trkpt><trkpt lat="45.66320952619303" lon="10.84154190827056"><ele>1063.1999999999998</ele><time>2026-04-01T12:58:17.999Z</time></trkpt><trkpt lat="45.663129108652775" lon="10.841565495234075"><ele>1064.6</ele><time>2026-04-01T12:58:18.999Z</time></trkpt><trkpt lat="45.663071831352546" lon="10.841605355232492"><ele>1066.0</ele><time>2026-04-01T12:58:19.999Z</time></trkpt><trkpt lat="45.66298580327472" lon="10.841706902881521"><ele>1066.0</ele><time>2026-04-01T12:58:21.999Z</time></trkpt><trkpt lat="45.662852518688645" lon="10.841607662031212"><ele>1066.0</ele><time>2026-04-01T12:58:23.999Z</time></trkpt><trkpt lat="45.662772233999846" lon="10.841586818567894"><ele>1066.0</ele><time>2026-04-01T12:58:24.999Z</time></trkpt><trkpt lat="45.662688981893965" lon="10.841556344932428"><ele>1066.0</ele><time>2026-04-01T12:58:25.999Z</time></trkpt><trkpt lat="45.66262158039695" lon="10.841548891670731"><ele>1066.0</ele><time>2026-04-01T12:58:26.999Z</time></trkpt><trkpt lat="45.66251758611187" lon="10.841682073006755"><ele>1065.8</ele><time>2026-04-01T12:58:28.999Z</time></trkpt><trkpt lat="45.662400575231054" lon="10.841727392244321"><ele>1065.6</ele><time>2026-04-01T12:58:30.999Z</time></trkpt><trkpt lat="45.66233171061964" lon="10.841738457843507"><ele>1065.4</ele><time>2026-04-01T12:58:31.999Z</time></trkpt><trkpt lat="45.66225392778977" lon="10.84168611662045"><ele>1065.2</ele><time>2026-04-01T12:58:32.999Z</time></trkpt><trkpt lat="45.66219195023969" lon="10.841707476985837"><ele>1065.0</ele><time>2026-04-01T12:58:33.999Z</time></trkpt><trkpt lat="45.66209615392289" lon="10.841785559138751"><ele>1063.6</ele><time>2026-04-01T12:58:35.999Z</time></trkpt><trkpt lat="45.66203526810944" lon="10.84183378930454"><ele>1062.2</ele><time>2026-04-01T12:58:36.999Z</time></trkpt><trkpt lat="45.66195545933339" lon="10.841897009140157"><ele>1060.8</ele><time>2026-04-01T12:58:38.999Z</time></trkpt><trkpt lat="45.66189477215847" lon="10.841945081961214"><ele>1059.4</ele><time>2026-04-01T12:58:40.999Z</time></trkpt><trkpt lat="45.661948676117326" lon="10.842194087753017"><ele>1058.0</ele><time>2026-04-01T12:58:41.999Z</time></trkpt><trkpt lat="45.66185894021313" lon="10.842228683119504"><ele>1055.6666666666667</ele><time>2026-04-01T12:58:44.999Z</time></trkpt><trkpt lat="45.66179194990815" lon="10.84221609805495"><ele>1053.3333333333335</ele><time>2026-04-01T12:58:46.999Z</time></trkpt><trkpt lat="45.661716171094184" lon="10.84223139215814"><ele>1051.0</ele><time>2026-04-01T12:58:48.999Z</time></trkpt><trkpt lat="45.6616145748491" lon="10.842291623125563"><ele>1048.6666666666667</ele><time>2026-04-01T12:58:50.999Z</time></trkpt><trkpt lat="45.661554374570805" lon="10.842323106529033"><ele>1046.3333333333333</ele><time>2026-04-01T12:58:51.999Z</time></trkpt><trkpt lat="45.661448268433716" lon="10.842277453204108"><ele>1044.0</ele><time>2026-04-01T12:58:53.999Z</time></trkpt><trkpt lat="45.66139638949517" lon="10.842184741335302"><ele>1044.0</ele><time>2026-04-01T12:58:54.999Z</time></trkpt><trkpt lat="45.66126307382958" lon="10.842146068011397"><ele>1044.0</ele><time>2026-04-01T12:58:56.999Z</time></trkpt><trkpt lat="45.661156869218665" lon="10.842060294402701"><ele>1044.0</ele><time>2026-04-01T12:58:58.999Z</time></trkpt><trkpt lat="45.66110876235539" lon="10.841966141430046"><ele>1044.0</ele><time>2026-04-01T12:58:59.999Z</time></trkpt><trkpt lat="45.66107891323062" lon="10.841831548273408"><ele>1044.0</ele><time>2026-04-01T12:59:01.999Z</time></trkpt><trkpt lat="45.66102925887362" lon="10.84170895578062"><ele>1043.1666666666667</ele><time>2026-04-01T12:59:03.999Z</time></trkpt><trkpt lat="45.660974688472976" lon="10.841616280592692"><ele>1042.3333333333333</ele><time>2026-04-01T12:59:04.999Z</time></trkpt><trkpt lat="45.66090419351114" lon="10.841525174180108"><ele>1041.5</ele><time>2026-04-01T12:59:05.999Z</time></trkpt><trkpt lat="45.66084112885848" lon="10.841445968884594"><ele>1040.6666666666665</ele><time>2026-04-01T12:59:06.998Z</time></trkpt><trkpt lat="45.660793666127866" lon="10.841383143040078"><ele>1039.8333333333333</ele><time>2026-04-01T12:59:07.998Z</time></trkpt><trkpt lat="45.66074409139556" lon="10.841312197371414"><ele>1039.0</ele><time>2026-04-01T12:59:08.998Z</time></trkpt><trkpt lat="45.66071033999605" lon="10.84114312799577"><ele>1039.0</ele><time>2026-04-01T12:59:11Z</time></trkpt><trkpt lat="45.66067053495254" lon="10.841035861886825"><ele>1039.0</ele><time>2026-04-01T12:59:13Z</time></trkpt><trkpt lat="45.66060679917142" lon="10.84102911608173"><ele>1039.0</ele><time>2026-04-01T12:59:15Z</time></trkpt><trkpt lat="45.660515727310795" lon="10.841041972134159"><ele>1039.0</ele><time>2026-04-01T12:59:16Z</time></trkpt><trkpt lat="45.660454168350846" lon="10.841002660912336"><ele>1039.0</ele><time>2026-04-01T12:59:17Z</time></trkpt><trkpt lat="45.66032619874085" lon="10.840928853758454"><ele>1039.0</ele><time>2026-04-01T12:59:19Z</time></trkpt><trkpt lat="45.6602468698809" lon="10.840888465803983"><ele>1038.1666666666665</ele><time>2026-04-01T12:59:20Z</time></trkpt><trkpt lat="45.660154445736325" lon="10.840847497601278"><ele>1037.3333333333333</ele><time>2026-04-01T12:59:21Z</time></trkpt><trkpt lat="45.66009481922737" lon="10.840800824085566"><ele>1036.5</ele><time>2026-04-01T12:59:22Z</time></trkpt><trkpt lat="45.660013210260445" lon="10.840852439254558"><ele>1035.6666666666667</ele><time>2026-04-01T12:59:24Z</time></trkpt><trkpt lat="45.659944811194464" lon="10.840871643728669"><ele>1034.8333333333335</ele><time>2026-04-01T12:59:25Z</time></trkpt><trkpt lat="45.65985879619023" lon="10.840884534289618"><ele>1034.0</ele><time>2026-04-01T12:59:26Z</time></trkpt><trkpt lat="45.6597836705957" lon="10.840898189882093"><ele>1034.0</ele><time>2026-04-01T12:59:27Z</time></trkpt><trkpt lat="45.659685618104184" lon="10.840860838341595"><ele>1034.0</ele><time>2026-04-01T12:59:29Z</time></trkpt><trkpt lat="45.65959233689984" lon="10.840821252537362"><ele>1034.0</ele><time>2026-04-01T12:59:31Z</time></trkpt><trkpt lat="45.659533323654856" lon="10.84075059800347"><ele>1034.0</ele><time>2026-04-01T12:59:34Z</time></trkpt><trkpt lat="45.65949637915529" lon="10.840628628219264"><ele>1034.0</ele><time>2026-04-01T12:59:39Z</time></trkpt><trkpt lat="45.65941592654202" lon="10.840540395495296"><ele>1031.6000000000001</ele><time>2026-04-01T12:59:41Z</time></trkpt><trkpt lat="45.65931604702944" lon="10.840442303210091"><ele>1029.2</ele><time>2026-04-01T12:59:43Z</time></trkpt><trkpt lat="45.659212216911506" lon="10.840381495425072"><ele>1026.8000000000002</ele><time>2026-04-01T12:59:45Z</time></trkpt><trkpt lat="45.659163985804" lon="10.84030366358362"><ele>1024.4</ele><time>2026-04-01T12:59:46Z</time></trkpt><trkpt lat="45.65910719128178" lon="10.840199526304966"><ele>1022.0</ele><time>2026-04-01T12:59:47Z</time></trkpt><trkpt lat="45.659041197382386" lon="10.840104276916113"><ele>1022.0000000000001</ele><time>2026-04-01T12:59:48Z</time></trkpt><trkpt lat="45.65895408573785" lon="10.840012971318005"><ele>1022.0</ele><time>2026-04-01T12:59:49Z</time></trkpt><trkpt lat="45.6588811199878" lon="10.839934368914479"><ele>1022.0</ele><time>2026-04-01T12:59:50Z</time></trkpt><trkpt lat="45.65878882815463" lon="10.839870425911096"><ele>1022.0</ele><time>2026-04-01T12:59:51Z</time></trkpt><trkpt lat="45.65873471950086" lon="10.839791335685025"><ele>1022.0000000000001</ele><time>2026-04-01T12:59:52Z</time></trkpt><trkpt lat="45.658683269485444" lon="10.839730735108175"><ele>1022.0</ele><time>2026-04-01T12:59:53Z</time></trkpt><trkpt lat="45.65858306058428" lon="10.839626645948549"><ele>1021.1428571428571</ele><time>2026-04-01T12:59:55Z</time></trkpt><trkpt lat="45.658519389075124" lon="10.83955406682546"><ele>1020.2857142857142</ele><time>2026-04-01T12:59:56Z</time></trkpt><trkpt lat="45.65843451558081" lon="10.839519406694638"><ele>1019.4285714285714</ele><time>2026-04-01T12:59:57Z</time></trkpt><trkpt lat="45.658367756207454" lon="10.839456007465571"><ele>1018.5714285714286</ele><time>2026-04-01T12:59:58Z</time></trkpt><trkpt lat="45.65831794861293" lon="10.839400229371732"><ele>1017.7142857142857</ele><time>2026-04-01T12:59:59Z</time></trkpt><trkpt lat="45.65824949654197" lon="10.839373170985212"><ele>1016.8571428571429</ele><time>2026-04-01T13:00:00Z</time></trkpt><trkpt lat="45.658194363200955" lon="10.839324166264387"><ele>1016.0</ele><time>2026-04-01T13:00:01Z</time></trkpt><trkpt lat="45.65811109620475" lon="10.839265500992305"><ele>1016.0000000000001</ele><time>2026-04-01T13:00:03Z</time></trkpt><trkpt lat="45.65802208729305" lon="10.839283322109015"><ele>1016.0</ele><time>2026-04-01T13:00:04Z</time></trkpt><trkpt lat="45.65793839488478" lon="10.839289635913293"><ele>1016.0</ele><time>2026-04-01T13:00:05Z</time></trkpt><trkpt lat="45.65785369541908" lon="10.839264778562766"><ele>1016.0</ele><time>2026-04-01T13:00:05.999Z</time></trkpt><trkpt lat="45.65777326272839" lon="10.839242304896672"><ele>1016.0000000000001</ele><time>2026-04-01T13:00:06.999Z</time></trkpt><trkpt lat="45.65770998510248" lon="10.839232354596325"><ele>1016.0</ele><time>2026-04-01T13:00:07.999Z</time></trkpt><trkpt lat="45.65764014941603" lon="10.839198513375434"><ele>1012.5999999999999</ele><time>2026-04-01T13:00:08.999Z</time></trkpt><trkpt lat="45.657588365047246" lon="10.839130686054263"><ele>1009.1999999999999</ele><time>2026-04-01T13:00:13.999Z</time></trkpt><trkpt lat="45.65748395358438" lon="10.839104529952483"><ele>1005.8000000000001</ele><time>2026-04-01T13:00:16.999Z</time></trkpt><trkpt lat="45.657401300983494" lon="10.839092471781491"><ele>1002.4000000000001</ele><time>2026-04-01T13:00:18.999Z</time></trkpt><trkpt lat="45.65730007800139" lon="10.839047529185903"><ele>999.0</ele><time>2026-04-01T13:00:20.999Z</time></trkpt><trkpt lat="45.65719592358405" lon="10.83901769945373"><ele>999.0</ele><time>2026-04-01T13:00:22.999Z</time></trkpt><trkpt lat="45.65710558976867" lon="10.83899892111919"><ele>999.0</ele><time>2026-04-01T13:00:24.999Z</time></trkpt><trkpt lat="45.657035057761206" lon="10.838907557813165"><ele>999.0</ele><time>2026-04-01T13:00:26.999Z</time></trkpt><trkpt lat="45.656969386482324" lon="10.838892617503372"><ele>999.0</ele><time>2026-04-01T13:00:27.999Z</time></trkpt><trkpt lat="45.656888619222" lon="10.838837955798725"><ele>999.0</ele><time>2026-04-01T13:00:29.999Z</time></trkpt><trkpt lat="45.65682486544506" lon="10.838769215452206"><ele>999.0</ele><time>2026-04-01T13:00:31.999Z</time></trkpt><trkpt lat="45.65677998647467" lon="10.838704462093244"><ele>999.4000000000001</ele><time>2026-04-01T13:00:33.999Z</time></trkpt><trkpt lat="45.65670138569239" lon="10.838616354251153"><ele>999.8000000000001</ele><time>2026-04-01T13:00:35.999Z</time></trkpt><trkpt lat="45.65664529440784" lon="10.83852436374039"><ele>1000.1999999999999</ele><time>2026-04-01T13:00:37.999Z</time></trkpt><trkpt lat="45.6565267736607" lon="10.83846336840097"><ele>1000.5999999999999</ele><time>2026-04-01T13:00:39.999Z</time></trkpt><trkpt lat="45.65645482872497" lon="10.838436417364973"><ele>1001.0</ele><time>2026-04-01T13:00:40.999Z</time></trkpt><trkpt lat="45.65638683205928" lon="10.838380753803062"><ele>1001.0000000000001</ele><time>2026-04-01T13:00:41.999Z</time></trkpt><trkpt lat="45.65631173377196" lon="10.838323152686062"><ele>1001.0</ele><time>2026-04-01T13:00:42.999Z</time></trkpt><trkpt lat="45.65625329690442" lon="10.838278593405825"><ele>1001.0</ele><time>2026-04-01T13:00:43.999Z</time></trkpt><trkpt lat="45.65618084437957" lon="10.838207278849081"><ele>1001.0</ele><time>2026-04-01T13:00:44.999Z</time></trkpt><trkpt lat="45.65611010684455" lon="10.838146163023023"><ele>1001.0000000000001</ele><time>2026-04-01T13:00:45.999Z</time></trkpt><trkpt lat="45.65605951957753" lon="10.838083759472553"><ele>1001.0</ele><time>2026-04-01T13:00:46.999Z</time></trkpt><trkpt lat="45.655997322633496" lon="10.83803916885265"><ele>1000.0000000000001</ele><time>2026-04-01T13:00:47.999Z</time></trkpt><trkpt lat="45.65593932123583" lon="10.837971482056892"><ele>999.0</ele><time>2026-04-01T13:00:48.999Z</time></trkpt><trkpt lat="45.655878178551276" lon="10.83790701210477"><ele>998.0</ele><time>2026-04-01T13:00:49.999Z</time></trkpt><trkpt lat="45.65579496657252" lon="10.837782513084147"><ele>997.0</ele><time>2026-04-01T13:00:51.999Z</time></trkpt><trkpt lat="45.65573376227376" lon="10.837724188529455"><ele>996.0000000000001</ele><time>2026-04-01T13:00:53.999Z</time></trkpt><trkpt lat="45.65566477685085" lon="10.837662591729694"><ele>995.0</ele><time>2026-04-01T13:01:01.999Z</time></trkpt><trkpt lat="45.655593162733936" lon="10.837609153358224"><ele>995.0</ele><time>2026-04-01T13:01:05.999Z</time></trkpt><trkpt lat="45.65554828694221" lon="10.837536220534915"><ele>995.0</ele><time>2026-04-01T13:01:19Z</time></trkpt><trkpt lat="45.655533231122405" lon="10.837445866767123"><ele>995.0</ele><time>2026-04-01T13:01:23Z</time></trkpt><trkpt lat="45.6554718459764" lon="10.837382534979039"><ele>995.0</ele><time>2026-04-01T13:01:27Z</time></trkpt><trkpt lat="45.65540340985846" lon="10.837411870353778"><ele>995.0</ele><time>2026-04-01T13:01:32Z</time></trkpt><trkpt lat="45.65533981466002" lon="10.837408903940126"><ele>995.0</ele><time>2026-04-01T13:01:37Z</time></trkpt><trkpt lat="45.655271922510416" lon="10.837419411286026"><ele>995.0</ele><time>2026-04-01T13:01:58Z</time></trkpt><trkpt lat="45.655192946407766" lon="10.837401238407782"><ele>988.2</ele><time>2026-04-01T13:02:01Z</time></trkpt><trkpt lat="45.65512859733748" lon="10.837354270604557"><ele>981.4</ele><time>2026-04-01T13:02:03Z</time></trkpt><trkpt lat="45.65503764420767" lon="10.837284474632124"><ele>974.5999999999999</ele><time>2026-04-01T13:02:04.999Z</time></trkpt><trkpt lat="45.6549389613202" lon="10.837212303009219"><ele>967.8</ele><time>2026-04-01T13:02:06.999Z</time></trkpt><trkpt lat="45.654882601352206" lon="10.837142632497219"><ele>961.0</ele><time>2026-04-01T13:02:09.999Z</time></trkpt><trkpt lat="45.65479114282299" lon="10.837105827739407"><ele>961.0</ele><time>2026-04-01T13:02:11.999Z</time></trkpt><trkpt lat="45.65472102537244" lon="10.8370394203138"><ele>961.0</ele><time>2026-04-01T13:02:13.999Z</time></trkpt><trkpt lat="45.654632149686186" lon="10.836926564429469"><ele>961.0</ele><time>2026-04-01T13:02:15.999Z</time></trkpt><trkpt lat="45.6545400742257" lon="10.83679435857937"><ele>961.0</ele><time>2026-04-01T13:02:17.999Z</time></trkpt><trkpt lat="45.65443785418413" lon="10.836711596041896"><ele>958.6666666666666</ele><time>2026-04-01T13:02:19.999Z</time></trkpt><trkpt lat="45.65438105464935" lon="10.836666563278268"><ele>956.3333333333333</ele><time>2026-04-01T13:02:20.999Z</time></trkpt><trkpt lat="45.65428718223706" lon="10.836598820397976"><ele>954.0</ele><time>2026-04-01T13:02:23.999Z</time></trkpt><trkpt lat="45.65423865852521" lon="10.83651020310789"><ele>951.6666666666667</ele><time>2026-04-01T13:02:25.999Z</time></trkpt><trkpt lat="45.654157725199006" lon="10.83645000096744"><ele>949.3333333333334</ele><time>2026-04-01T13:02:27.999Z</time></trkpt><trkpt lat="45.65418754898432" lon="10.836541873136161"><ele>947.0</ele><time>2026-04-01T13:03:09.999Z</time></trkpt><trkpt lat="45.654249796632044" lon="10.836590258386696"><ele>947.0000000000001</ele><time>2026-04-01T13:03:27Z</time></trkpt><trkpt lat="45.65427728134336" lon="10.836508073869028"><ele>947.0</ele><time>2026-04-01T13:03:36Z</time></trkpt><trkpt lat="45.65427276239961" lon="10.83637685436327"><ele>947.0</ele><time>2026-04-01T13:03:38Z</time></trkpt><trkpt lat="45.6542441365167" lon="10.836229238994296"><ele>947.0</ele><time>2026-04-01T13:03:40Z</time></trkpt><trkpt lat="45.65425914234972" lon="10.836101905145327"><ele>947.0000000000001</ele><time>2026-04-01T13:03:43Z</time></trkpt><trkpt lat="45.65424760522775" lon="10.836001897017779"><ele>947.0</ele><time>2026-04-01T13:03:52Z</time></trkpt><trkpt lat="45.65429037483669" lon="10.835934256068029"><ele>947.0000000000001</ele><time>2026-04-01T13:03:55Z</time></trkpt><trkpt lat="45.654228758932064" lon="10.835954916953453"><ele>947.0</ele><time>2026-04-01T13:05:04.999Z</time></trkpt><trkpt lat="45.65419532814987" lon="10.836033025589092"><ele>947.0</ele><time>2026-04-01T13:06:12Z</time></trkpt><trkpt lat="45.65419086857007" lon="10.836220054409507"><ele>947.0</ele><time>2026-04-01T13:09:54Z</time></trkpt><trkpt lat="45.654227695456754" lon="10.83629796134746"><ele>947.0000000000001</ele><time>2026-04-01T13:10:22Z</time></trkpt><trkpt lat="45.65424941288461" lon="10.836421801294302"><ele>947.0</ele><time>2026-04-01T13:10:31Z</time></trkpt><trkpt lat="45.65425300675567" lon="10.836525364076108"><ele>947.0000000000001</ele><time>2026-04-01T13:10:32.999Z</time></trkpt><trkpt lat="45.65414783804075" lon="10.836490994307173"><ele>947.0</ele><time>2026-04-01T13:10:39.999Z</time></trkpt><trkpt lat="45.654098098641896" lon="10.836416687078744"><ele>947.0</ele><time>2026-04-01T13:10:42.999Z</time></trkpt><trkpt lat="45.65403959742742" lon="10.836376066087267"><ele>947.0</ele><time>2026-04-01T13:11:08.999Z</time></trkpt><trkpt lat="45.653988099648686" lon="10.836313284799742"><ele>947.0000000000001</ele><time>2026-04-01T13:11:17.999Z</time></trkpt><trkpt lat="45.65390614374575" lon="10.836244254441656"><ele>947.0</ele><time>2026-04-01T13:17:45.999Z</time></trkpt><trkpt lat="45.65383530876647" lon="10.836113575594334"><ele>947.0</ele><time>2026-04-01T13:18:34Z</time></trkpt><trkpt lat="45.65375330180742" lon="10.836017339465931"><ele>947.0</ele><time>2026-04-01T13:18:45Z</time></trkpt><trkpt lat="45.65370384703945" lon="10.835909453224955"><ele>947.0</ele><time>2026-04-01T13:18:47Z</time></trkpt><trkpt lat="45.65361173939095" lon="10.835819170311241"><ele>947.0</ele><time>2026-04-01T13:18:49Z</time></trkpt><trkpt lat="45.65355336465248" lon="10.835764130108814"><ele>947.0</ele><time>2026-04-01T13:18:50Z</time></trkpt><trkpt lat="45.653451842235526" lon="10.835652211828473"><ele>944.1666666666667</ele><time>2026-04-01T13:18:52Z</time></trkpt><trkpt lat="45.65342128272674" lon="10.83555886009317"><ele>941.3333333333334</ele><time>2026-04-01T13:18:52.999Z</time></trkpt><trkpt lat="45.65337746776544" lon="10.835487864581827"><ele>938.5</ele><time>2026-04-01T13:18:53.999Z</time></trkpt><trkpt lat="45.653305309023764" lon="10.835373023484555"><ele>935.6666666666667</ele><time>2026-04-01T13:18:55.999Z</time></trkpt><trkpt lat="45.65324678794079" lon="10.835330849595424"><ele>932.8333333333334</ele><time>2026-04-01T13:18:57.999Z</time></trkpt><trkpt lat="45.653204268485084" lon="10.835184896514873"><ele>930.0</ele><time>2026-04-01T13:18:59.999Z</time></trkpt><trkpt lat="45.65317771823657" lon="10.835038181145164"><ele>930.0</ele><time>2026-04-01T13:19:01.999Z</time></trkpt><trkpt lat="45.65312234504913" lon="10.834945291089019"><ele>930.0</ele><time>2026-04-01T13:19:02.999Z</time></trkpt><trkpt lat="45.65307517558956" lon="10.834840972205786"><ele>930.0</ele><time>2026-04-01T13:19:04.999Z</time></trkpt><trkpt lat="45.65297288950104" lon="10.8348034985421"><ele>930.0</ele><time>2026-04-01T13:19:06.999Z</time></trkpt><trkpt lat="45.65287928920817" lon="10.834802661647439"><ele>930.0</ele><time>2026-04-01T13:19:09.999Z</time></trkpt><trkpt lat="45.65281606015632" lon="10.834751864486059"><ele>930.0</ele><time>2026-04-01T13:19:12.999Z</time></trkpt><trkpt lat="45.652715323623745" lon="10.834658168674883"><ele>925.5</ele><time>2026-04-01T13:19:14.999Z</time></trkpt><trkpt lat="45.65265422145258" lon="10.834558721693103"><ele>921.0</ele><time>2026-04-01T13:19:16.999Z</time></trkpt><trkpt lat="45.65259833605907" lon="10.83448329041382"><ele>916.5</ele><time>2026-04-01T13:19:18.999Z</time></trkpt><trkpt lat="45.652543981682875" lon="10.834389066838273"><ele>912.0</ele><time>2026-04-01T13:19:21.999Z</time></trkpt><trkpt lat="45.65247609215499" lon="10.834375548457832"><ele>907.5</ele><time>2026-04-01T13:19:23.999Z</time></trkpt><trkpt lat="45.65240897487412" lon="10.83426079461291"><ele>903.0</ele><time>2026-04-01T13:19:25.999Z</time></trkpt><trkpt lat="45.652308834430684" lon="10.834185142714787"><ele>903.0</ele><time>2026-04-01T13:19:27.999Z</time></trkpt><trkpt lat="45.65225243784833" lon="10.834120753748945"><ele>903.0</ele><time>2026-04-01T13:19:28.999Z</time></trkpt><trkpt lat="45.652235991969455" lon="10.834033037356537"><ele>903.0</ele><time>2026-04-01T13:19:29.999Z</time></trkpt><trkpt lat="45.65216191799494" lon="10.833969734257447"><ele>903.0</ele><time>2026-04-01T13:19:32.999Z</time></trkpt><trkpt lat="45.652092830302834" lon="10.834010687011414"><ele>903.0</ele><time>2026-04-01T13:19:33.999Z</time></trkpt><trkpt lat="45.65203486439062" lon="10.834064588966294"><ele>903.0</ele><time>2026-04-01T13:19:34.999Z</time></trkpt><trkpt lat="45.65196710716579" lon="10.834115786076975"><ele>903.0</ele><time>2026-04-01T13:19:35.999Z</time></trkpt><trkpt lat="45.65191613313587" lon="10.834253058603135"><ele>895.6666666666666</ele><time>2026-04-01T13:19:37.999Z</time></trkpt><trkpt lat="45.65191999226727" lon="10.834357499509965"><ele>888.3333333333333</ele><time>2026-04-01T13:19:38.999Z</time></trkpt><trkpt lat="45.651911718562694" lon="10.834452915523947"><ele>881.0</ele><time>2026-04-01T13:19:39.999Z</time></trkpt><trkpt lat="45.65190020416723" lon="10.834558680834657"><ele>873.6666666666666</ele><time>2026-04-01T13:19:40.999Z</time></trkpt><trkpt lat="45.651892515825274" lon="10.834670564447801"><ele>866.3333333333333</ele><time>2026-04-01T13:19:41.999Z</time></trkpt><trkpt lat="45.651882461284124" lon="10.83478668163082"><ele>859.0</ele><time>2026-04-01T13:19:42.999Z</time></trkpt><trkpt lat="45.651878173503434" lon="10.83490358175187"><ele>859.0</ele><time>2026-04-01T13:19:43.999Z</time></trkpt><trkpt lat="45.651860905332654" lon="10.835061463904273"><ele>859.0000000000001</ele><time>2026-04-01T13:19:44.999Z</time></trkpt><trkpt lat="45.65180483916907" lon="10.835192015982784"><ele>859.0000000000001</ele><time>2026-04-01T13:19:45.999Z</time></trkpt><trkpt lat="45.65173740207348" lon="10.835303467926359"><ele>859.0</ele><time>2026-04-01T13:19:46.999Z</time></trkpt><trkpt lat="45.65168699055456" lon="10.835367993661578"><ele>859.0</ele><time>2026-04-01T13:19:47.999Z</time></trkpt><trkpt lat="45.651626059093765" lon="10.83542702598142"><ele>855.3333333333333</ele><time>2026-04-01T13:19:48.999Z</time></trkpt><trkpt lat="45.651561897669204" lon="10.835457763726742"><ele>851.6666666666666</ele><time>2026-04-01T13:19:49.999Z</time></trkpt><trkpt lat="45.65148519029936" lon="10.835444129150792"><ele>848.0</ele><time>2026-04-01T13:19:50.999Z</time></trkpt><trkpt lat="45.65141067349837" lon="10.835398034020606"><ele>844.3333333333333</ele><time>2026-04-01T13:19:51.999Z</time></trkpt><trkpt lat="45.65132210150068" lon="10.83533505187386"><ele>840.6666666666666</ele><time>2026-04-01T13:19:52.999Z</time></trkpt><trkpt lat="45.6512297693499" lon="10.835292480187526"><ele>837.0</ele><time>2026-04-01T13:19:53.999Z</time></trkpt><trkpt lat="45.651133301324926" lon="10.835236842887374"><ele>839.0</ele><time>2026-04-01T13:19:54.999Z</time></trkpt><trkpt lat="45.65103213676646" lon="10.835195207393825"><ele>841.0</ele><time>2026-04-01T13:19:55.999Z</time></trkpt><trkpt lat="45.650927371122336" lon="10.835156220114314"><ele>843.0</ele><time>2026-04-01T13:19:56.999Z</time></trkpt><trkpt lat="45.650821015581414" lon="10.83510746914624"><ele>845.0</ele><time>2026-04-01T13:19:57.999Z</time></trkpt><trkpt lat="45.650735888325364" lon="10.835073703424353"><ele>847.0</ele><time>2026-04-01T13:19:58.999Z</time></trkpt><trkpt lat="45.650641275171665" lon="10.835080180487727"><ele>847.0</ele><time>2026-04-01T13:19:59.999Z</time></trkpt><trkpt lat="45.65054415842195" lon="10.835116846871902"><ele>847.0</ele><time>2026-04-01T13:20:00.999Z</time></trkpt><trkpt lat="45.650454386412044" lon="10.835160934176738"><ele>847.0</ele><time>2026-04-01T13:20:01.999Z</time></trkpt><trkpt lat="45.65033592376567" lon="10.835225053402104"><ele>847.0</ele><time>2026-04-01T13:20:02.999Z</time></trkpt><trkpt lat="45.65022396309412" lon="10.83529802139157"><ele>847.0</ele><time>2026-04-01T13:20:03.998Z</time></trkpt><trkpt lat="45.650133696189044" lon="10.83536934545289"><ele>841.8</ele><time>2026-04-01T13:20:04.998Z</time></trkpt><trkpt lat="45.65003646301465" lon="10.835429103592096"><ele>836.6</ele><time>2026-04-01T13:20:05.998Z</time></trkpt><trkpt lat="45.649934697938605" lon="10.835425813193178"><ele>831.4</ele><time>2026-04-01T13:20:06.998Z</time></trkpt><trkpt lat="45.649827282363944" lon="10.835403123050353"><ele>826.1999999999999</ele><time>2026-04-01T13:20:07.998Z</time></trkpt><trkpt lat="45.649709444816025" lon="10.835346073108687"><ele>821.0</ele><time>2026-04-01T13:20:08.998Z</time></trkpt><trkpt lat="45.64959420528462" lon="10.83525708611825"><ele>821.0</ele><time>2026-04-01T13:20:09.998Z</time></trkpt><trkpt lat="45.64948688862378" lon="10.835176113105367"><ele>821.0</ele><time>2026-04-01T13:20:11Z</time></trkpt><trkpt lat="45.64938398036022" lon="10.835121919464944"><ele>821.0</ele><time>2026-04-01T13:20:12Z</time></trkpt><trkpt lat="45.649296033707216" lon="10.835060713609"><ele>821.0</ele><time>2026-04-01T13:20:13Z</time></trkpt><trkpt lat="45.64921412373022" lon="10.834965902179594"><ele>821.0</ele><time>2026-04-01T13:20:14Z</time></trkpt><trkpt lat="45.64915230567549" lon="10.834864353547447"><ele>821.75</ele><time>2026-04-01T13:20:15Z</time></trkpt><trkpt lat="45.64908197535574" lon="10.834739938816071"><ele>822.5</ele><time>2026-04-01T13:20:16Z</time></trkpt><trkpt lat="45.64902314042583" lon="10.834591932435728"><ele>823.25</ele><time>2026-04-01T13:20:17Z</time></trkpt><trkpt lat="45.64896916851564" lon="10.834428801329835"><ele>824.0</ele><time>2026-04-01T13:20:18Z</time></trkpt><trkpt lat="45.648927783216905" lon="10.834281614645574"><ele>826.6</ele><time>2026-04-01T13:20:19Z</time></trkpt><trkpt lat="45.648865474128286" lon="10.834177919378128"><ele>829.2</ele><time>2026-04-01T13:20:20Z</time></trkpt><trkpt lat="45.64878073591236" lon="10.834117935191893"><ele>831.8000000000001</ele><time>2026-04-01T13:20:21Z</time></trkpt><trkpt lat="45.64869406848237" lon="10.834057044021783"><ele>834.4000000000001</ele><time>2026-04-01T13:20:22Z</time></trkpt><trkpt lat="45.6486246617462" lon="10.833975374166455"><ele>837.0</ele><time>2026-04-01T13:20:23Z</time></trkpt><trkpt lat="45.6485583696932" lon="10.833866878244823"><ele>834.8</ele><time>2026-04-01T13:20:24Z</time></trkpt><trkpt lat="45.64849930040585" lon="10.83376097637435"><ele>832.6</ele><time>2026-04-01T13:20:25Z</time></trkpt><trkpt lat="45.6484389912876" lon="10.833652179939895"><ele>830.4</ele><time>2026-04-01T13:20:26Z</time></trkpt><trkpt lat="45.64837829170911" lon="10.833552405592089"><ele>828.1999999999999</ele><time>2026-04-01T13:20:27Z</time></trkpt><trkpt lat="45.64832850531628" lon="10.833473447645664"><ele>826.0</ele><time>2026-04-01T13:20:28Z</time></trkpt><trkpt lat="45.648264845369745" lon="10.833348335187585"><ele>825.9999999999999</ele><time>2026-04-01T13:20:30Z</time></trkpt><trkpt lat="45.64818030301731" lon="10.833262329464537"><ele>826.0</ele><time>2026-04-01T13:20:32Z</time></trkpt><trkpt lat="45.64806848402484" lon="10.83322783696247"><ele>826.0</ele><time>2026-04-01T13:20:34Z</time></trkpt><trkpt lat="45.647998926342396" lon="10.833227981088221"><ele>826.0</ele><time>2026-04-01T13:20:35Z</time></trkpt><trkpt lat="45.647920345532256" lon="10.833243108248812"><ele>825.9999999999999</ele><time>2026-04-01T13:20:36Z</time></trkpt><trkpt lat="45.64783990902038" lon="10.833262018593038"><ele>826.0</ele><time>2026-04-01T13:20:37Z</time></trkpt><trkpt lat="45.64776811635928" lon="10.833262200276495"><ele>823.8333333333333</ele><time>2026-04-01T13:20:38Z</time></trkpt><trkpt lat="45.64769209763521" lon="10.833259157300581"><ele>821.6666666666666</ele><time>2026-04-01T13:20:39Z</time></trkpt><trkpt lat="45.64762105298585" lon="10.833269509346291"><ele>819.5</ele><time>2026-04-01T13:20:40Z</time></trkpt><trkpt lat="45.64754813997481" lon="10.833290367986761"><ele>817.3333333333333</ele><time>2026-04-01T13:20:41Z</time></trkpt><trkpt lat="45.64745034043801" lon="10.833277445486091"><ele>815.1666666666666</ele><time>2026-04-01T13:20:43Z</time></trkpt><trkpt lat="45.64741806273222" lon="10.833181413211259"><ele>813.0</ele><time>2026-04-01T13:20:59.999Z</time></trkpt><trkpt lat="45.64747148220957" lon="10.833077059323308"><ele>813.0</ele><time>2026-04-01T13:21:03.999Z</time></trkpt><trkpt lat="45.64757576193034" lon="10.833030826398634"><ele>813.0</ele><time>2026-04-01T13:21:05.999Z</time></trkpt><trkpt lat="45.64766731005643" lon="10.832972181482683"><ele>813.0</ele><time>2026-04-01T13:21:07.999Z</time></trkpt><trkpt lat="45.64773975680158" lon="10.832916407170158"><ele>813.0</ele><time>2026-04-01T13:21:10.999Z</time></trkpt><trkpt lat="45.64770061785248" lon="10.832840861532823"><ele>813.0</ele><time>2026-04-01T13:21:16.999Z</time></trkpt><trkpt lat="45.647627619546576" lon="10.832900099393822"><ele>813.0</ele><time>2026-04-01T13:23:24.999Z</time></trkpt><trkpt lat="45.64751928026" lon="10.833023820208725"><ele>813.0</ele><time>2026-04-01T13:23:26.999Z</time></trkpt><trkpt lat="45.64742637423227" lon="10.833084472387844"><ele>813.0</ele><time>2026-04-01T13:23:27.999Z</time></trkpt><trkpt lat="45.64731461692271" lon="10.833072754861156"><ele>813.0</ele><time>2026-04-01T13:23:28.999Z</time></trkpt><trkpt lat="45.647227537399026" lon="10.833125179174539"><ele>813.0</ele><time>2026-04-01T13:23:29.999Z</time></trkpt><trkpt lat="45.64714044458737" lon="10.833173216510867"><ele>813.0</ele><time>2026-04-01T13:23:30.999Z</time></trkpt><trkpt lat="45.647055027558544" lon="10.833215111829372"><ele>813.0</ele><time>2026-04-01T13:23:31.999Z</time></trkpt><trkpt lat="45.64698305811913" lon="10.833242597431925"><ele>813.0</ele><time>2026-04-01T13:23:32.999Z</time></trkpt><trkpt lat="45.646913270310684" lon="10.83323385511917"><ele>813.0</ele><time>2026-04-01T13:23:33.999Z</time></trkpt><trkpt lat="45.646812391615335" lon="10.833218826649887"><ele>813.0</ele><time>2026-04-01T13:23:34.999Z</time></trkpt><trkpt lat="45.64670151193526" lon="10.833215761292404"><ele>813.0</ele><time>2026-04-01T13:23:35.999Z</time></trkpt><trkpt lat="45.646602267756485" lon="10.833191720395842"><ele>811.5</ele><time>2026-04-01T13:23:36.999Z</time></trkpt><trkpt lat="45.646520839659786" lon="10.833168305829059"><ele>810.0</ele><time>2026-04-01T13:23:37.999Z</time></trkpt><trkpt lat="45.646442687545296" lon="10.833117001971935"><ele>808.5</ele><time>2026-04-01T13:23:38.999Z</time></trkpt><trkpt lat="45.646363282378225" lon="10.833079257648548"><ele>807.0</ele><time>2026-04-01T13:23:39.999Z</time></trkpt><trkpt lat="45.64627865592626" lon="10.833044933627908"><ele>805.5</ele><time>2026-04-01T13:23:40.999Z</time></trkpt><trkpt lat="45.646199946075946" lon="10.83297432951098"><ele>804.0</ele><time>2026-04-01T13:23:41.999Z</time></trkpt><trkpt lat="45.64611567675525" lon="10.832883392667586"><ele>801.0</ele><time>2026-04-01T13:23:42.999Z</time></trkpt><trkpt lat="45.646021731185165" lon="10.832822528668439"><ele>798.0</ele><time>2026-04-01T13:23:43.999Z</time></trkpt><trkpt lat="45.64592006096944" lon="10.832778143445045"><ele>795.0</ele><time>2026-04-01T13:23:44.999Z</time></trkpt><trkpt lat="45.645823011798534" lon="10.83274431148301"><ele>792.0</ele><time>2026-04-01T13:23:45.999Z</time></trkpt><trkpt lat="45.64572074617397" lon="10.832737400562973"><ele>789.0</ele><time>2026-04-01T13:23:46.999Z</time></trkpt><trkpt lat="45.64561820237238" lon="10.83270344324705"><ele>789.0</ele><time>2026-04-01T13:23:47.999Z</time></trkpt><trkpt lat="45.645522466699866" lon="10.832648267975584"><ele>789.0</ele><time>2026-04-01T13:23:48.999Z</time></trkpt><trkpt lat="45.64542883314364" lon="10.83260864174178"><ele>789.0</ele><time>2026-04-01T13:23:49.999Z</time></trkpt><trkpt lat="45.645337017205065" lon="10.832570161725046"><ele>789.0</ele><time>2026-04-01T13:23:50.999Z</time></trkpt><trkpt lat="45.64523930681702" lon="10.832546493855082"><ele>789.0</ele><time>2026-04-01T13:23:51.999Z</time></trkpt><trkpt lat="45.64514291618611" lon="10.83249571107267"><ele>790.3333333333334</ele><time>2026-04-01T13:23:52.999Z</time></trkpt><trkpt lat="45.6450519208499" lon="10.83248558147865"><ele>791.6666666666667</ele><time>2026-04-01T13:23:53.999Z</time></trkpt><trkpt lat="45.644967002494234" lon="10.832487030412949"><ele>793.0</ele><time>2026-04-01T13:23:54.999Z</time></trkpt><trkpt lat="45.64488634169873" lon="10.832455745380791"><ele>794.3333333333334</ele><time>2026-04-01T13:23:55.999Z</time></trkpt><trkpt lat="45.64481408716473" lon="10.832441149001806"><ele>795.6666666666667</ele><time>2026-04-01T13:23:56.999Z</time></trkpt><trkpt lat="45.644738643613145" lon="10.832425908400156"><ele>797.0</ele><time>2026-04-01T13:23:57.999Z</time></trkpt><trkpt lat="45.64464055820752" lon="10.832514492605561"><ele>797.0000000000001</ele><time>2026-04-01T13:23:58.999Z</time></trkpt><trkpt lat="45.644557633707606" lon="10.832526069698257"><ele>797.0</ele><time>2026-04-01T13:23:59.999Z</time></trkpt><trkpt lat="45.64448955466766" lon="10.83253090827662"><ele>797.0</ele><time>2026-04-01T13:24:00.999Z</time></trkpt><trkpt lat="45.644379249604036" lon="10.832554002180657"><ele>797.0</ele><time>2026-04-01T13:24:02.999Z</time></trkpt><trkpt lat="45.644308196727685" lon="10.832593190010448"><ele>797.0000000000001</ele><time>2026-04-01T13:24:04.999Z</time></trkpt><trkpt lat="45.64435935921683" lon="10.832661925619428"><ele>797.0</ele><time>2026-04-01T13:24:08.999Z</time></trkpt><trkpt lat="45.64449505442516" lon="10.832627248423925"><ele>797.0</ele><time>2026-04-01T13:24:10.999Z</time></trkpt><trkpt lat="45.64458516090119" lon="10.83262487566114"><ele>797.0</ele><time>2026-04-01T13:24:11.999Z</time></trkpt><trkpt lat="45.64467902546025" lon="10.832630599547011"><ele>797.0</ele><time>2026-04-01T13:24:12.999Z</time></trkpt><trkpt lat="45.64477774650418" lon="10.83265915997257"><ele>797.0</ele><time>2026-04-01T13:24:13.999Z</time></trkpt><trkpt lat="45.644893919242065" lon="10.832667681198929"><ele>797.0</ele><time>2026-04-01T13:24:14.999Z</time></trkpt><trkpt lat="45.64503371184448" lon="10.83269354070256"><ele>795.0</ele><time>2026-04-01T13:24:15.999Z</time></trkpt><trkpt lat="45.6451657683249" lon="10.832759134196397"><ele>793.0</ele><time>2026-04-01T13:24:16.999Z</time></trkpt><trkpt lat="45.645281771394174" lon="10.83282295871038"><ele>791.0</ele><time>2026-04-01T13:24:17.999Z</time></trkpt><trkpt lat="45.645387882760666" lon="10.832863147184167"><ele>789.0</ele><time>2026-04-01T13:24:18.999Z</time></trkpt><trkpt lat="45.64549861712647" lon="10.832919796454346"><ele>789.0</ele><time>2026-04-01T13:24:19.998Z</time></trkpt><trkpt lat="45.645616090774254" lon="10.83295305467392"><ele>789.0</ele><time>2026-04-01T13:24:20.998Z</time></trkpt><trkpt lat="45.64572620646073" lon="10.832990757226403"><ele>789.0</ele><time>2026-04-01T13:24:21.998Z</time></trkpt><trkpt lat="45.64581916234563" lon="10.833067270194226"><ele>789.0</ele><time>2026-04-01T13:24:23Z</time></trkpt><trkpt lat="45.645923376245015" lon="10.833124841121252"><ele>789.0</ele><time>2026-04-01T13:24:24Z</time></trkpt><trkpt lat="45.646015974521" lon="10.83324366992151"><ele>789.0</ele><time>2026-04-01T13:24:25Z</time></trkpt><trkpt lat="45.64611573676478" lon="10.83335138510251"><ele>789.0</ele><time>2026-04-01T13:24:26Z</time></trkpt><trkpt lat="45.646224375565744" lon="10.833424080168163"><ele>789.0</ele><time>2026-04-01T13:24:27Z</time></trkpt><trkpt lat="45.64632349340614" lon="10.83351233550784"><ele>786.8000000000001</ele><time>2026-04-01T13:24:28Z</time></trkpt><trkpt lat="45.646431320849" lon="10.833597259956683"><ele>784.6</ele><time>2026-04-01T13:24:29Z</time></trkpt><trkpt lat="45.64651466591514" lon="10.833720343930677"><ele>782.4</ele><time>2026-04-01T13:24:30Z</time></trkpt><trkpt lat="45.64660055053408" lon="10.833776775331186"><ele>780.2</ele><time>2026-04-01T13:24:31Z</time></trkpt><trkpt lat="45.64667049108356" lon="10.833824755609253"><ele>778.0</ele><time>2026-04-01T13:24:32Z</time></trkpt><trkpt lat="45.64676601462634" lon="10.833858936641175"><ele>778.0</ele><time>2026-04-01T13:24:33Z</time></trkpt><trkpt lat="45.6468756875238" lon="10.833918045123541"><ele>778.0</ele><time>2026-04-01T13:24:34Z</time></trkpt><trkpt lat="45.64699523718066" lon="10.834001801445982"><ele>778.0</ele><time>2026-04-01T13:24:35Z</time></trkpt><trkpt lat="45.64710753382015" lon="10.83409162585926"><ele>778.0</ele><time>2026-04-01T13:24:36Z</time></trkpt><trkpt lat="45.64721961959305" lon="10.834154982800772"><ele>776.25</ele><time>2026-04-01T13:24:37Z</time></trkpt><trkpt lat="45.64732773635845" lon="10.834229582874071"><ele>774.5</ele><time>2026-04-01T13:24:38Z</time></trkpt><trkpt lat="45.64743165911164" lon="10.834318158052621"><ele>772.75</ele><time>2026-04-01T13:24:39Z</time></trkpt><trkpt lat="45.6475312571562" lon="10.834417032667071"><ele>771.0</ele><time>2026-04-01T13:24:40Z</time></trkpt><trkpt lat="45.64760890339004" lon="10.834518505607322"><ele>771.0</ele><time>2026-04-01T13:24:41Z</time></trkpt><trkpt lat="45.64769047862968" lon="10.834605593850826"><ele>771.0</ele><time>2026-04-01T13:24:42Z</time></trkpt><trkpt lat="45.64777013720117" lon="10.834687299137352"><ele>771.0</ele><time>2026-04-01T13:24:43Z</time></trkpt><trkpt lat="45.64785325560233" lon="10.83476085576502"><ele>771.0</ele><time>2026-04-01T13:24:44Z</time></trkpt><trkpt lat="45.64793216782323" lon="10.834833580720716"><ele>771.0</ele><time>2026-04-01T13:24:45Z</time></trkpt><trkpt lat="45.64799224285159" lon="10.834928811689053"><ele>774.5999999999999</ele><time>2026-04-01T13:24:46Z</time></trkpt><trkpt lat="45.64802018892061" lon="10.835037678413453"><ele>778.2</ele><time>2026-04-01T13:24:47Z</time></trkpt><trkpt lat="45.64796509853014" lon="10.835169802066746"><ele>781.8</ele><time>2026-04-01T13:24:48Z</time></trkpt><trkpt lat="45.64796405184905" lon="10.835314865687256"><ele>785.4000000000001</ele><time>2026-04-01T13:24:49Z</time></trkpt><trkpt lat="45.64794202819203" lon="10.835458069500847"><ele>789.0</ele><time>2026-04-01T13:24:50Z</time></trkpt><trkpt lat="45.64791787352293" lon="10.83559829715655"><ele>789.0</ele><time>2026-04-01T13:24:51Z</time></trkpt><trkpt lat="45.64790742943663" lon="10.835738505665113"><ele>789.0</ele><time>2026-04-01T13:24:52Z</time></trkpt><trkpt lat="45.64791016244563" lon="10.835875851389073"><ele>789.0</ele><time>2026-04-01T13:24:53Z</time></trkpt><trkpt lat="45.64793643102062" lon="10.83602845396907"><ele>789.0</ele><time>2026-04-01T13:24:54Z</time></trkpt><trkpt lat="45.647964925263494" lon="10.83615570343441"><ele>789.0</ele><time>2026-04-01T13:24:55Z</time></trkpt><trkpt lat="45.647997365274" lon="10.836280773010275"><ele>787.6666666666666</ele><time>2026-04-01T13:24:56Z</time></trkpt><trkpt lat="45.64804129379254" lon="10.836388005638433"><ele>786.3333333333333</ele><time>2026-04-01T13:24:57Z</time></trkpt><trkpt lat="45.648063758483005" lon="10.836504913422125"><ele>785.0</ele><time>2026-04-01T13:24:58Z</time></trkpt><trkpt lat="45.6480657266892" lon="10.836601035174347"><ele>783.6666666666666</ele><time>2026-04-01T13:24:59Z</time></trkpt><trkpt lat="45.64802269788368" lon="10.836742338041141"><ele>782.3333333333333</ele><time>2026-04-01T13:25:01Z</time></trkpt><trkpt lat="45.647989782198806" lon="10.836874416698771"><ele>781.0</ele><time>2026-04-01T13:25:03Z</time></trkpt><trkpt lat="45.647978654768444" lon="10.836982954415225"><ele>778.9999999999999</ele><time>2026-04-01T13:25:05Z</time></trkpt><trkpt lat="45.647955956143285" lon="10.837103447147049"><ele>777.0</ele><time>2026-04-01T13:25:07Z</time></trkpt><trkpt lat="45.64792980887635" lon="10.8372125401165"><ele>775.0</ele><time>2026-04-01T13:25:09Z</time></trkpt><trkpt lat="45.64798998054762" lon="10.837323326217671"><ele>773.0</ele><time>2026-04-01T13:25:10Z</time></trkpt><trkpt lat="45.64796818943857" lon="10.837414053447617"><ele>770.9999999999999</ele><time>2026-04-01T13:25:12Z</time></trkpt><trkpt lat="45.64794064504483" lon="10.837496616517116"><ele>769.0</ele><time>2026-04-01T13:25:12.999Z</time></trkpt><trkpt lat="45.64787168560525" lon="10.837551533476407"><ele>768.9999999999999</ele><time>2026-04-01T13:25:13.999Z</time></trkpt><trkpt lat="45.6478095939159" lon="10.837632216261119"><ele>769.0</ele><time>2026-04-01T13:25:14.999Z</time></trkpt><trkpt lat="45.6477511019686" lon="10.837710879807005"><ele>769.0</ele><time>2026-04-01T13:25:15.999Z</time></trkpt><trkpt lat="45.64768860095253" lon="10.837799066984806"><ele>769.0</ele><time>2026-04-01T13:25:16.999Z</time></trkpt><trkpt lat="45.647632064709285" lon="10.837869787915661"><ele>768.9999999999999</ele><time>2026-04-01T13:25:17.999Z</time></trkpt><trkpt lat="45.64754220353438" lon="10.837972708594577"><ele>769.0</ele><time>2026-04-01T13:25:19.999Z</time></trkpt><trkpt lat="45.64746588940971" lon="10.837942967786764"><ele>765.4000000000001</ele><time>2026-04-01T13:25:21.999Z</time></trkpt><trkpt lat="45.647459631710795" lon="10.838179882201691"><ele>761.8</ele><time>2026-04-01T13:25:29.999Z</time></trkpt><trkpt lat="45.6473930143612" lon="10.838219292339163"><ele>758.2</ele><time>2026-04-01T13:25:35.999Z</time></trkpt><trkpt lat="45.64729881891478" lon="10.838190635046525"><ele>754.5999999999999</ele><time>2026-04-01T13:25:37.999Z</time></trkpt><trkpt lat="45.647231564660764" lon="10.838207594128262"><ele>751.0</ele><time>2026-04-01T13:25:48.999Z</time></trkpt><trkpt lat="45.647137875871955" lon="10.838232573949961"><ele>751.0</ele><time>2026-04-01T13:25:54.999Z</time></trkpt><trkpt lat="45.64707513405951" lon="10.83825934524307"><ele>751.0</ele><time>2026-04-01T13:25:55.999Z</time></trkpt><trkpt lat="45.64697990620074" lon="10.83829634769195"><ele>751.0</ele><time>2026-04-01T13:25:57.999Z</time></trkpt><trkpt lat="45.64690315440633" lon="10.83828874313753"><ele>751.0</ele><time>2026-04-01T13:25:59.999Z</time></trkpt><trkpt lat="45.64681397584758" lon="10.838326678907398"><ele>751.0</ele><time>2026-04-01T13:26:01.999Z</time></trkpt><trkpt lat="45.646740074007184" lon="10.838341511202316"><ele>751.0</ele><time>2026-04-01T13:26:03.999Z</time></trkpt><trkpt lat="45.646674965313274" lon="10.838380958006477"><ele>749.4</ele><time>2026-04-01T13:26:05.999Z</time></trkpt><trkpt lat="45.646582293191095" lon="10.838423220334116"><ele>747.8</ele><time>2026-04-01T13:26:07.999Z</time></trkpt><trkpt lat="45.64647641091584" lon="10.838478822243237"><ele>746.1999999999999</ele><time>2026-04-01T13:26:09.999Z</time></trkpt><trkpt lat="45.64635962556069" lon="10.838526727213534"><ele>744.5999999999999</ele><time>2026-04-01T13:26:11.999Z</time></trkpt><trkpt lat="45.64630023284865" lon="10.838567846691204"><ele>743.0</ele><time>2026-04-01T13:26:12.999Z</time></trkpt><trkpt lat="45.64623912642895" lon="10.83860568293293"><ele>738.0</ele><time>2026-04-01T13:26:13.999Z</time></trkpt><trkpt lat="45.64612540616037" lon="10.838692980011338"><ele>733.0</ele><time>2026-04-01T13:26:15.999Z</time></trkpt><trkpt lat="45.646022176820246" lon="10.838766218801561"><ele>728.0</ele><time>2026-04-01T13:26:17.999Z</time></trkpt><trkpt lat="45.645920408108694" lon="10.8388338900472"><ele>723.0</ele><time>2026-04-01T13:26:19.999Z</time></trkpt><trkpt lat="45.645873321027324" lon="10.838934859450225"><ele>718.0</ele><time>2026-04-01T13:26:21.998Z</time></trkpt><trkpt lat="45.64578849445349" lon="10.83901028427782"><ele>718.0</ele><time>2026-04-01T13:26:23.998Z</time></trkpt><trkpt lat="45.64567378668167" lon="10.839015100706025"><ele>718.0</ele><time>2026-04-01T13:26:25.998Z</time></trkpt><trkpt lat="45.645675082029136" lon="10.839115795775218"><ele>718.0</ele><time>2026-04-01T13:26:29Z</time></trkpt><trkpt lat="45.645666761058955" lon="10.839213487924688"><ele>718.0</ele><time>2026-04-01T13:26:31Z</time></trkpt><trkpt lat="45.64557688840465" lon="10.83918168162429"><ele>718.0</ele><time>2026-04-01T13:26:33Z</time></trkpt><trkpt lat="45.645519270813146" lon="10.839079370713817"><ele>718.0</ele><time>2026-04-01T13:26:35Z</time></trkpt><trkpt lat="45.645479623538655" lon="10.838911216210352"><ele>718.0</ele><time>2026-04-01T13:26:37Z</time></trkpt><trkpt lat="45.645365637774056" lon="10.838819277633615"><ele>718.0</ele><time>2026-04-01T13:26:39Z</time></trkpt><trkpt lat="45.645300393060076" lon="10.838750552763202"><ele>718.0</ele><time>2026-04-01T13:26:40Z</time></trkpt><trkpt lat="45.645245946858395" lon="10.838680597583942"><ele>718.0</ele><time>2026-04-01T13:26:41Z</time></trkpt><trkpt lat="45.6451932753903" lon="10.838611631122484"><ele>718.0</ele><time>2026-04-01T13:26:42Z</time></trkpt><trkpt lat="45.64513099945681" lon="10.838536174979575"><ele>718.0</ele><time>2026-04-01T13:26:44Z</time></trkpt><trkpt lat="45.64511163994111" lon="10.838688860716577"><ele>714.0</ele><time>2026-04-01T13:26:49Z</time></trkpt><trkpt lat="45.64513875472487" lon="10.838819935768214"><ele>710.0</ele><time>2026-04-01T13:26:51Z</time></trkpt><trkpt lat="45.64514686828135" lon="10.838941263896599"><ele>706.0</ele><time>2026-04-01T13:26:54Z</time></trkpt><trkpt lat="45.64515530756494" lon="10.839062874255948"><ele>702.0</ele><time>2026-04-01T13:26:56Z</time></trkpt><trkpt lat="45.645195456453564" lon="10.83924106218083"><ele>698.0</ele><time>2026-04-01T13:26:58Z</time></trkpt><trkpt lat="45.64522168243141" lon="10.839326254838888"><ele>697.5999999999999</ele><time>2026-04-01T13:26:59Z</time></trkpt><trkpt lat="45.64525523615383" lon="10.839411194053264"><ele>697.1999999999999</ele><time>2026-04-01T13:27:00Z</time></trkpt><trkpt lat="45.64530798360755" lon="10.839553112916112"><ele>696.8</ele><time>2026-04-01T13:27:02Z</time></trkpt><trkpt lat="45.64541102815028" lon="10.839647999837533"><ele>696.4</ele><time>2026-04-01T13:27:04Z</time></trkpt><trkpt lat="45.645470280540636" lon="10.839693814081816"><ele>696.0</ele><time>2026-04-01T13:27:05Z</time></trkpt><trkpt lat="45.64558015918069" lon="10.839766497339047"><ele>696.0</ele><time>2026-04-01T13:27:07Z</time></trkpt><trkpt lat="45.64564565135246" lon="10.839790650131812"><ele>696.0</ele><time>2026-04-01T13:27:08Z</time></trkpt><trkpt lat="45.64573234946086" lon="10.83980573612123"><ele>696.0</ele><time>2026-04-01T13:27:09Z</time></trkpt><trkpt lat="45.6458266696701" lon="10.839819559661107"><ele>696.0</ele><time>2026-04-01T13:27:10Z</time></trkpt><trkpt lat="45.645920394305094" lon="10.839824226887758"><ele>696.0</ele><time>2026-04-01T13:27:11Z</time></trkpt><trkpt lat="45.645993090162065" lon="10.839832590730312"><ele>696.0</ele><time>2026-04-01T13:27:12Z</time></trkpt><trkpt lat="45.64606871732321" lon="10.839856664961234"><ele>696.3333333333334</ele><time>2026-04-01T13:27:16Z</time></trkpt><trkpt lat="45.646143146210626" lon="10.839877488186593"><ele>696.6666666666666</ele><time>2026-04-01T13:27:19.999Z</time></trkpt><trkpt lat="45.646203575650894" lon="10.839950185104703"><ele>697.0</ele><time>2026-04-01T13:27:24.999Z</time></trkpt><trkpt lat="45.646244873828564" lon="10.840048656082962"><ele>697.3333333333333</ele><time>2026-04-01T13:27:27.999Z</time></trkpt><trkpt lat="45.646293676557406" lon="10.840136346413246"><ele>697.6666666666666</ele><time>2026-04-01T13:27:31.999Z</time></trkpt><trkpt lat="45.64634182267148" lon="10.840213328951185"><ele>698.0</ele><time>2026-04-01T13:27:36.999Z</time></trkpt><trkpt lat="45.6463445872301" lon="10.840320157664149"><ele>696.1428571428571</ele><time>2026-04-01T13:27:40.999Z</time></trkpt><trkpt lat="45.64632930518997" lon="10.84042281947919"><ele>694.2857142857142</ele><time>2026-04-01T13:27:45.999Z</time></trkpt><trkpt lat="45.64635682871995" lon="10.840519535520556"><ele>692.4285714285713</ele><time>2026-04-01T13:27:50.999Z</time></trkpt><trkpt lat="45.64637558923487" lon="10.840605625461816"><ele>690.5714285714286</ele><time>2026-04-01T13:27:54.999Z</time></trkpt><trkpt lat="45.64634491827956" lon="10.840707365777913"><ele>688.7142857142858</ele><time>2026-04-01T13:27:57.999Z</time></trkpt><trkpt lat="45.64628256305731" lon="10.84074227343583"><ele>686.8571428571428</ele><time>2026-04-01T13:28:33.998Z</time></trkpt><trkpt lat="45.646207112847954" lon="10.840754940427042"><ele>685.0</ele><time>2026-04-01T13:28:37Z</time></trkpt><trkpt lat="45.64614385274794" lon="10.84080952192682"><ele>683.5714285714286</ele><time>2026-04-01T13:28:40Z</time></trkpt><trkpt lat="45.64608402657281" lon="10.840842651128208"><ele>682.1428571428572</ele><time>2026-04-01T13:28:51Z</time></trkpt><trkpt lat="45.64598611608791" lon="10.840883660283481"><ele>680.7142857142858</ele><time>2026-04-01T13:28:53Z</time></trkpt><trkpt lat="45.64592558591332" lon="10.84091136741644"><ele>679.2857142857142</ele><time>2026-04-01T13:28:54Z</time></trkpt><trkpt lat="45.64585571694317" lon="10.840934257140063"><ele>677.8571428571429</ele><time>2026-04-01T13:28:55Z</time></trkpt><trkpt lat="45.64579253013923" lon="10.840978647477183"><ele>676.4285714285714</ele><time>2026-04-01T13:28:56Z</time></trkpt><trkpt lat="45.64572291729323" lon="10.841018563504386"><ele>675.0</ele><time>2026-04-01T13:28:57Z</time></trkpt><trkpt lat="45.645668415098974" lon="10.841096048545811"><ele>674.2</ele><time>2026-04-01T13:28:58Z</time></trkpt><trkpt lat="45.645624770878406" lon="10.841195845750311"><ele>673.4</ele><time>2026-04-01T13:28:59Z</time></trkpt><trkpt lat="45.64555600644772" lon="10.841274464602805"><ele>672.5999999999999</ele><time>2026-04-01T13:29:00Z</time></trkpt><trkpt lat="45.64549745905927" lon="10.841332773810208"><ele>671.8</ele><time>2026-04-01T13:29:01Z</time></trkpt><trkpt lat="45.64542705778387" lon="10.841384475167432"><ele>671.0</ele><time>2026-04-01T13:29:02Z</time></trkpt><trkpt lat="45.64529106356906" lon="10.84145273112545"><ele>669.0</ele><time>2026-04-01T13:29:04Z</time></trkpt><trkpt lat="45.64516141905442" lon="10.841470929657945"><ele>667.0</ele><time>2026-04-01T13:29:06Z</time></trkpt><trkpt lat="45.64509094659433" lon="10.841491961226387"><ele>665.0</ele><time>2026-04-01T13:29:07Z</time></trkpt><trkpt lat="45.64501637026664" lon="10.84149022226909"><ele>663.0</ele><time>2026-04-01T13:29:08Z</time></trkpt><trkpt lat="45.644922445075295" lon="10.841491688977044"><ele>661.0</ele><time>2026-04-01T13:29:09Z</time></trkpt><trkpt lat="45.64484106764418" lon="10.84150002004566"><ele>661.0</ele><time>2026-04-01T13:29:10Z</time></trkpt><trkpt lat="45.644763208358675" lon="10.841501811331474"><ele>661.0</ele><time>2026-04-01T13:29:11Z</time></trkpt><trkpt lat="45.644680673976275" lon="10.841499748438014"><ele>661.0</ele><time>2026-04-01T13:29:12Z</time></trkpt><trkpt lat="45.64458800380686" lon="10.841502822640516"><ele>661.0</ele><time>2026-04-01T13:29:13Z</time></trkpt><trkpt lat="45.64452194304076" lon="10.841484247798377"><ele>661.0</ele><time>2026-04-01T13:29:14Z</time></trkpt><trkpt lat="45.64442198382838" lon="10.84146564294611"><ele>661.0</ele><time>2026-04-01T13:29:15Z</time></trkpt><trkpt lat="45.64432156688061" lon="10.841444693589125"><ele>660.5</ele><time>2026-04-01T13:29:16Z</time></trkpt><trkpt lat="45.644240792033685" lon="10.841443572899827"><ele>660.0</ele><time>2026-04-01T13:29:17Z</time></trkpt><trkpt lat="45.64410874834064" lon="10.84136390387546"><ele>659.5</ele><time>2026-04-01T13:29:18.999Z</time></trkpt><trkpt lat="45.644045326527625" lon="10.841296664369269"><ele>659.0</ele><time>2026-04-01T13:29:19.999Z</time></trkpt><trkpt lat="45.64398347823981" lon="10.841261510019393"><ele>658.5</ele><time>2026-04-01T13:29:20.999Z</time></trkpt><trkpt lat="45.64391614860097" lon="10.841245921039622"><ele>658.0</ele><time>2026-04-01T13:29:21.999Z</time></trkpt><trkpt lat="45.64382490295966" lon="10.841251586440292"><ele>658.0</ele><time>2026-04-01T13:29:22.999Z</time></trkpt><trkpt lat="45.6437641854048" lon="10.841275406602326"><ele>658.0</ele><time>2026-04-01T13:29:23.999Z</time></trkpt><trkpt lat="45.643696203602424" lon="10.841287761675861"><ele>658.0</ele><time>2026-04-01T13:29:24.999Z</time></trkpt><trkpt lat="45.64362151273043" lon="10.841240518879031"><ele>658.0</ele><time>2026-04-01T13:29:25.999Z</time></trkpt><trkpt lat="45.643559018925885" lon="10.841159690049555"><ele>658.0</ele><time>2026-04-01T13:29:26.999Z</time></trkpt><trkpt lat="45.64351042636092" lon="10.841097950553353"><ele>658.0</ele><time>2026-04-01T13:29:27.999Z</time></trkpt><trkpt lat="45.64343981055647" lon="10.841052725438523"><ele>658.0</ele><time>2026-04-01T13:29:30.999Z</time></trkpt><trkpt lat="45.64336253955483" lon="10.840981314097284"><ele>655.3333333333334</ele><time>2026-04-01T13:29:33.999Z</time></trkpt><trkpt lat="45.643263195404074" lon="10.840907781795394"><ele>652.6666666666667</ele><time>2026-04-01T13:29:35.999Z</time></trkpt><trkpt lat="45.64319175020813" lon="10.84086832688361"><ele>650.0</ele><time>2026-04-01T13:29:36.999Z</time></trkpt><trkpt lat="45.643114684338386" lon="10.840823407835702"><ele>647.3333333333334</ele><time>2026-04-01T13:29:37.999Z</time></trkpt><trkpt lat="45.64304563065297" lon="10.840790280947752"><ele>644.6666666666666</ele><time>2026-04-01T13:29:38.999Z</time></trkpt><trkpt lat="45.64296325136665" lon="10.840755358217702"><ele>642.0</ele><time>2026-04-01T13:29:39.999Z</time></trkpt><trkpt lat="45.642849896622" lon="10.840746793470291"><ele>645.2</ele><time>2026-04-01T13:29:41.999Z</time></trkpt><trkpt lat="45.642793733249825" lon="10.840701591655451"><ele>648.4000000000001</ele><time>2026-04-01T13:29:42.999Z</time></trkpt><trkpt lat="45.64268710004345" lon="10.840635378033083"><ele>651.5999999999999</ele><time>2026-04-01T13:29:43.999Z</time></trkpt><trkpt lat="45.642612054405845" lon="10.84055489448892"><ele>654.8</ele><time>2026-04-01T13:29:44.999Z</time></trkpt><trkpt lat="45.64255097033524" lon="10.840499349665109"><ele>658.0</ele><time>2026-04-01T13:29:45.999Z</time></trkpt><trkpt lat="45.64243051302941" lon="10.840431362804354"><ele>658.0</ele><time>2026-04-01T13:29:47.999Z</time></trkpt><trkpt lat="45.64234098400454" lon="10.840352707893484"><ele>658.0</ele><time>2026-04-01T13:29:48.999Z</time></trkpt><trkpt lat="45.64226769658002" lon="10.840309577967714"><ele>658.0</ele><time>2026-04-01T13:29:49.999Z</time></trkpt><trkpt lat="45.64216873278527" lon="10.840310399850017"><ele>658.0</ele><time>2026-04-01T13:29:50.999Z</time></trkpt><trkpt lat="45.642090404086886" lon="10.840329985746239"><ele>658.0</ele><time>2026-04-01T13:29:51.999Z</time></trkpt><trkpt lat="45.642011527539246" lon="10.840375760885122"><ele>658.0</ele><time>2026-04-01T13:29:52.999Z</time></trkpt><trkpt lat="45.64193624357261" lon="10.840466212106927"><ele>658.0</ele><time>2026-04-01T13:29:54.999Z</time></trkpt><trkpt lat="45.64199078556747" lon="10.840568043619188"><ele>658.0</ele><time>2026-04-01T13:29:57.999Z</time></trkpt><trkpt lat="45.64202325890589" lon="10.84064808704562"><ele>658.0</ele><time>2026-04-01T13:29:59.999Z</time></trkpt><trkpt lat="45.64204918795955" lon="10.840842553805263"><ele>658.0</ele><time>2026-04-01T13:30:01.999Z</time></trkpt><trkpt lat="45.64209632936448" lon="10.840987761279264"><ele>658.0</ele><time>2026-04-01T13:30:03.999Z</time></trkpt><trkpt lat="45.64213778558353" lon="10.841067512611804"><ele>660.3333333333334</ele><time>2026-04-01T13:30:04.999Z</time></trkpt><trkpt lat="45.64219677686295" lon="10.841178314611009"><ele>662.6666666666667</ele><time>2026-04-01T13:30:05.999Z</time></trkpt><trkpt lat="45.64224866776518" lon="10.841265524038564"><ele>665.0</ele><time>2026-04-01T13:30:06.999Z</time></trkpt><trkpt lat="45.64227967512163" lon="10.841411838249202"><ele>667.3333333333334</ele><time>2026-04-01T13:30:08.999Z</time></trkpt><trkpt lat="45.64230485785683" lon="10.841525879666378"><ele>669.6666666666666</ele><time>2026-04-01T13:30:09.999Z</time></trkpt><trkpt lat="45.64233351415887" lon="10.841617223853849"><ele>672.0</ele><time>2026-04-01T13:30:10.999Z</time></trkpt><trkpt lat="45.64236520767047" lon="10.841696381024226"><ele>672.0</ele><time>2026-04-01T13:30:12.999Z</time></trkpt><trkpt lat="45.642315048591236" lon="10.841783671994865"><ele>672.0</ele><time>2026-04-01T13:30:15.999Z</time></trkpt><trkpt lat="45.642286273887926" lon="10.841883179559932"><ele>672.0</ele><time>2026-04-01T13:30:17.999Z</time></trkpt><trkpt lat="45.64220270166946" lon="10.841860788670356"><ele>672.0</ele><time>2026-04-01T13:30:20.999Z</time></trkpt><trkpt lat="45.64213199153347" lon="10.841805242145021"><ele>672.0</ele><time>2026-04-01T13:30:22.999Z</time></trkpt><trkpt lat="45.64204962280252" lon="10.841764433730521"><ele>672.0</ele><time>2026-04-01T13:30:24.998Z</time></trkpt><trkpt lat="45.6419671671242" lon="10.841736687683474"><ele>671.3333333333334</ele><time>2026-04-01T13:30:25.998Z</time></trkpt><trkpt lat="45.6418868965332" lon="10.841716626684248"><ele>670.6666666666666</ele><time>2026-04-01T13:30:26.998Z</time></trkpt><trkpt lat="45.6418064192002" lon="10.84170352535005"><ele>670.0</ele><time>2026-04-01T13:30:27.998Z</time></trkpt><trkpt lat="45.64171579949347" lon="10.841680641403054"><ele>669.3333333333333</ele><time>2026-04-01T13:30:28.998Z</time></trkpt><trkpt lat="45.641636386335854" lon="10.841661929413215"><ele>668.6666666666666</ele><time>2026-04-01T13:30:29.998Z</time></trkpt><trkpt lat="45.641567635703396" lon="10.841651229142629"><ele>668.0</ele><time>2026-04-01T13:30:30.998Z</time></trkpt><trkpt lat="45.64142862585302" lon="10.84167891307653"><ele>668.0</ele><time>2026-04-01T13:30:32.998Z</time></trkpt><trkpt lat="45.641333892519015" lon="10.8417018542691"><ele>668.0</ele><time>2026-04-01T13:30:33.998Z</time></trkpt><trkpt lat="45.6412535445666" lon="10.841760353562176"><ele>668.0</ele><time>2026-04-01T13:30:34.998Z</time></trkpt><trkpt lat="45.64119847717441" lon="10.841818464066723"><ele>668.0</ele><time>2026-04-01T13:30:35.998Z</time></trkpt><trkpt lat="45.64112961439631" lon="10.841879216888898"><ele>668.0</ele><time>2026-04-01T13:30:37.998Z</time></trkpt><trkpt lat="45.64104343110793" lon="10.841900463220126"><ele>668.0</ele><time>2026-04-01T13:31:00Z</time></trkpt><trkpt lat="45.64095727994527" lon="10.841840129911933"><ele>667.4</ele><time>2026-04-01T13:31:02Z</time></trkpt><trkpt lat="45.64086342900131" lon="10.84177634170737"><ele>666.8</ele><time>2026-04-01T13:31:04Z</time></trkpt><trkpt lat="45.64074387585495" lon="10.841742516700121"><ele>666.2</ele><time>2026-04-01T13:31:06Z</time></trkpt><trkpt lat="45.64066783217926" lon="10.84173568670112"><ele>665.6</ele><time>2026-04-01T13:31:07Z</time></trkpt><trkpt lat="45.64055355498491" lon="10.84163101159617"><ele>665.0</ele><time>2026-04-01T13:31:09Z</time></trkpt><trkpt lat="45.64047162943099" lon="10.841589735465528"><ele>665.0</ele><time>2026-04-01T13:31:11Z</time></trkpt><trkpt lat="45.64042004274208" lon="10.84170967381427"><ele>665.0</ele><time>2026-04-01T13:31:14Z</time></trkpt><trkpt lat="45.6403781229395" lon="10.84185334911904"><ele>665.0</ele><time>2026-04-01T13:31:16Z</time></trkpt><trkpt lat="45.640375127460246" lon="10.841965160016992"><ele>665.0</ele><time>2026-04-01T13:31:18Z</time></trkpt><trkpt lat="45.640334036847946" lon="10.842129431815174"><ele>665.0</ele><time>2026-04-01T13:31:20Z</time></trkpt><trkpt lat="45.640312408258744" lon="10.8422621467336"><ele>668.8</ele><time>2026-04-01T13:31:22Z</time></trkpt><trkpt lat="45.640304594813564" lon="10.84242905318819"><ele>672.6</ele><time>2026-04-01T13:31:24Z</time></trkpt><trkpt lat="45.640326325234966" lon="10.842524153766394"><ele>676.4000000000001</ele><time>2026-04-01T13:31:26Z</time></trkpt><trkpt lat="45.64041376400216" lon="10.842641069462568"><ele>680.2</ele><time>2026-04-01T13:31:27.999Z</time></trkpt><trkpt lat="45.64043158570986" lon="10.842752598793355"><ele>684.0</ele><time>2026-04-01T13:31:29.999Z</time></trkpt><trkpt lat="45.640469352370864" lon="10.842931840047564"><ele>686.6666666666666</ele><time>2026-04-01T13:31:31.999Z</time></trkpt><trkpt lat="45.64053909853371" lon="10.843063467324855"><ele>689.3333333333334</ele><time>2026-04-01T13:31:33.999Z</time></trkpt><trkpt lat="45.64059211295583" lon="10.843166614545058"><ele>692.0</ele><time>2026-04-01T13:31:35.999Z</time></trkpt><trkpt lat="45.64065448462553" lon="10.843259605531717"><ele>694.6666666666667</ele><time>2026-04-01T13:31:37.999Z</time></trkpt><trkpt lat="45.64068654490734" lon="10.843352775492873"><ele>697.3333333333334</ele><time>2026-04-01T13:31:39.999Z</time></trkpt><trkpt lat="45.64061533011059" lon="10.843340672631294"><ele>700.0</ele><time>2026-04-01T13:31:41.999Z</time></trkpt><trkpt lat="45.640533645836626" lon="10.843274323775303"><ele>700.0</ele><time>2026-04-01T13:31:43.999Z</time></trkpt><trkpt lat="45.640457140482994" lon="10.843282296409127"><ele>700.0</ele><time>2026-04-01T13:31:45.999Z</time></trkpt><trkpt lat="45.64035282758873" lon="10.84327524766131"><ele>700.0</ele><time>2026-04-01T13:31:48.999Z</time></trkpt><trkpt lat="45.64025587135956" lon="10.84321864905465"><ele>700.0</ele><time>2026-04-01T13:31:50.999Z</time></trkpt><trkpt lat="45.64015788099213" lon="10.843213791363993"><ele>700.0</ele><time>2026-04-01T13:31:53.999Z</time></trkpt><trkpt lat="45.64008792347742" lon="10.843267352639137"><ele>699.5</ele><time>2026-04-01T13:31:55.999Z</time></trkpt><trkpt lat="45.640031418946556" lon="10.843350767233607"><ele>699.0</ele><time>2026-04-01T13:31:57.999Z</time></trkpt><trkpt lat="45.63997934518015" lon="10.84343038318759"><ele>698.5</ele><time>2026-04-01T13:32:01.999Z</time></trkpt><trkpt lat="45.63996196983547" lon="10.84356578824916"><ele>698.0</ele><time>2026-04-01T13:32:03.999Z</time></trkpt><trkpt lat="45.6399064024303" lon="10.84369530357776"><ele>697.5</ele><time>2026-04-01T13:32:05.999Z</time></trkpt><trkpt lat="45.639888004547224" lon="10.843814600853095"><ele>697.0</ele><time>2026-04-01T13:32:07.999Z</time></trkpt><trkpt lat="45.63989350644128" lon="10.843952565474334"><ele>701.0</ele><time>2026-04-01T13:32:09.999Z</time></trkpt><trkpt lat="45.639859585440846" lon="10.844103094615496"><ele>705.0</ele><time>2026-04-01T13:32:11.999Z</time></trkpt><trkpt lat="45.639789370826456" lon="10.844231854693508"><ele>709.0</ele><time>2026-04-01T13:32:13.999Z</time></trkpt><trkpt lat="45.63964049998836" lon="10.8442461086956"><ele>713.0</ele><time>2026-04-01T13:32:15.999Z</time></trkpt><trkpt lat="45.63956629531591" lon="10.84441850680796"><ele>713.0</ele><time>2026-04-01T13:32:18.999Z</time></trkpt><trkpt lat="45.639445143607546" lon="10.844501899889448"><ele>713.0</ele><time>2026-04-01T13:32:31.999Z</time></trkpt><trkpt lat="45.639569966696214" lon="10.844428901301281"><ele>713.0</ele><time>2026-04-01T13:32:38.998Z</time></trkpt><trkpt lat="45.63960980029737" lon="10.844323829459572"><ele>713.0</ele><time>2026-04-01T13:32:40.998Z</time></trkpt><trkpt lat="45.639552343933566" lon="10.844264526803448"><ele>713.0</ele><time>2026-04-01T13:32:41.998Z</time></trkpt><trkpt lat="45.639524488971716" lon="10.844408171972704"><ele>713.0</ele><time>2026-04-01T13:32:42.998Z</time></trkpt><trkpt lat="45.639464950473375" lon="10.844443441694757"><ele>713.0</ele><time>2026-04-01T13:32:43.998Z</time></trkpt><trkpt lat="45.63938193300964" lon="10.844478499243989"><ele>713.0</ele><time>2026-04-01T13:32:44.998Z</time></trkpt><trkpt lat="45.63928758311146" lon="10.844515554722955"><ele>713.0</ele><time>2026-04-01T13:32:46Z</time></trkpt><trkpt lat="45.63920059322849" lon="10.844544064678344"><ele>713.0</ele><time>2026-04-01T13:32:47Z</time></trkpt><trkpt lat="45.638980928928675" lon="10.844113825234258"><ele>711.6666666666666</ele><time>2026-04-01T13:32:48Z</time></trkpt><trkpt lat="45.638894920274424" lon="10.844093991704074"><ele>710.3333333333333</ele><time>2026-04-01T13:32:49Z</time></trkpt><trkpt lat="45.63882252246298" lon="10.844072307492254"><ele>709.0</ele><time>2026-04-01T13:32:50Z</time></trkpt><trkpt lat="45.63874578449914" lon="10.844049266611577"><ele>707.6666666666666</ele><time>2026-04-01T13:32:51Z</time></trkpt><trkpt lat="45.63866528027252" lon="10.844021060637628"><ele>706.3333333333334</ele><time>2026-04-01T13:32:52Z</time></trkpt><trkpt lat="45.63858591664523" lon="10.843986706832457"><ele>705.0</ele><time>2026-04-01T13:32:53Z</time></trkpt><trkpt lat="45.63849941395345" lon="10.843957626000407"><ele>703.5</ele><time>2026-04-01T13:32:54Z</time></trkpt><trkpt lat="45.638420393849756" lon="10.843925277112845"><ele>702.0</ele><time>2026-04-01T13:32:55Z</time></trkpt><trkpt lat="45.63834216970579" lon="10.843906063120427"><ele>700.5</ele><time>2026-04-01T13:32:56Z</time></trkpt><trkpt lat="45.63826777616692" lon="10.843889768520526"><ele>699.0</ele><time>2026-04-01T13:32:57Z</time></trkpt><trkpt lat="45.63819035884725" lon="10.843872499888565"><ele>697.5</ele><time>2026-04-01T13:32:58Z</time></trkpt><trkpt lat="45.638116754019826" lon="10.843846379830762"><ele>696.0</ele><time>2026-04-01T13:32:59Z</time></trkpt><trkpt lat="45.638032839290624" lon="10.843820031925574"><ele>696.0</ele><time>2026-04-01T13:33:00Z</time></trkpt><trkpt lat="45.637945739294494" lon="10.843782177268816"><ele>696.0</ele><time>2026-04-01T13:33:01Z</time></trkpt><trkpt lat="45.6378463936246" lon="10.843721845234159"><ele>696.0</ele><time>2026-04-01T13:33:02Z</time></trkpt><trkpt lat="45.63774316218454" lon="10.843650858116924"><ele>696.0</ele><time>2026-04-01T13:33:03Z</time></trkpt><trkpt lat="45.63764015999182" lon="10.843577284556977"><ele>696.0</ele><time>2026-04-01T13:33:04Z</time></trkpt><trkpt lat="45.63754555485783" lon="10.843480899258067"><ele>693.1999999999999</ele><time>2026-04-01T13:33:05Z</time></trkpt><trkpt lat="45.637451859098135" lon="10.843407361467872"><ele>690.4</ele><time>2026-04-01T13:33:06Z</time></trkpt><trkpt lat="45.63735766516623" lon="10.843333432684295"><ele>687.6</ele><time>2026-04-01T13:33:07Z</time></trkpt><trkpt lat="45.637245268937306" lon="10.843328490756075"><ele>684.8</ele><time>2026-04-01T13:33:08Z</time></trkpt><trkpt lat="45.637141787058574" lon="10.843311812097715"><ele>682.0</ele><time>2026-04-01T13:33:09Z</time></trkpt><trkpt lat="45.637055872323806" lon="10.843277036731195"><ele>682.0</ele><time>2026-04-01T13:33:10Z</time></trkpt><trkpt lat="45.63697992085302" lon="10.843222163900807"><ele>682.0</ele><time>2026-04-01T13:33:11Z</time></trkpt><trkpt lat="45.63690717379245" lon="10.843159459614242"><ele>682.0</ele><time>2026-04-01T13:33:12Z</time></trkpt><trkpt lat="45.63683105674067" lon="10.843091597418542"><ele>682.0</ele><time>2026-04-01T13:33:13Z</time></trkpt><trkpt lat="45.636760896981215" lon="10.843034283950788"><ele>682.0</ele><time>2026-04-01T13:33:14Z</time></trkpt><trkpt lat="45.63664212054432" lon="10.842935408902882"><ele>681.0</ele><time>2026-04-01T13:33:16Z</time></trkpt><trkpt lat="45.636585622768365" lon="10.842888398339026"><ele>680.0</ele><time>2026-04-01T13:33:17Z</time></trkpt><trkpt lat="45.63651423508689" lon="10.842842610623586"><ele>679.0</ele><time>2026-04-01T13:33:19Z</time></trkpt><trkpt lat="45.636433134233094" lon="10.842810670104257"><ele>678.0</ele><time>2026-04-01T13:33:22Z</time></trkpt><trkpt lat="45.63640757672214" lon="10.842895203832258"><ele>677.0</ele><time>2026-04-01T13:33:36.999Z</time></trkpt><trkpt lat="45.63635102132957" lon="10.843000722855452"><ele>676.0</ele><time>2026-04-01T13:33:40.999Z</time></trkpt><trkpt lat="45.63630641883659" lon="10.843091604419065"><ele>676.0</ele><time>2026-04-01T13:33:42.999Z</time></trkpt><trkpt lat="45.636206205221136" lon="10.84315432212643"><ele>676.0</ele><time>2026-04-01T13:33:44.999Z</time></trkpt><trkpt lat="45.636126721138986" lon="10.843071274219037"><ele>676.0</ele><time>2026-04-01T13:33:46.999Z</time></trkpt><trkpt lat="45.636067479859676" lon="10.842994271868811"><ele>676.0</ele><time>2026-04-01T13:33:47.999Z</time></trkpt><trkpt lat="45.63600264674259" lon="10.84294118739165"><ele>676.0</ele><time>2026-04-01T13:33:48.999Z</time></trkpt><trkpt lat="45.63591941675725" lon="10.842800038344663"><ele>674.5</ele><time>2026-04-01T13:33:50.999Z</time></trkpt><trkpt lat="45.63586918596544" lon="10.842729336311471"><ele>673.0</ele><time>2026-04-01T13:33:52.999Z</time></trkpt><trkpt lat="45.63577975298551" lon="10.842734827847778"><ele>671.5</ele><time>2026-04-01T13:33:54.999Z</time></trkpt><trkpt lat="45.63568914359912" lon="10.842664745855263"><ele>670.0</ele><time>2026-04-01T13:33:56.999Z</time></trkpt><trkpt lat="45.635631048883035" lon="10.842598307523037"><ele>668.5</ele><time>2026-04-01T13:33:58.999Z</time></trkpt><trkpt lat="45.63555372848176" lon="10.842590143314638"><ele>667.0</ele><time>2026-04-01T13:34:04.999Z</time></trkpt><trkpt lat="45.635514089752924" lon="10.842516473724633"><ele>667.0</ele><time>2026-04-01T13:34:07.999Z</time></trkpt><trkpt lat="45.63546212329233" lon="10.842444579485601"><ele>667.0</ele><time>2026-04-01T13:34:14.999Z</time></trkpt><trkpt lat="45.63538249287052" lon="10.842482979653962"><ele>667.0</ele><time>2026-04-01T13:34:18.999Z</time></trkpt><trkpt lat="45.63530153781637" lon="10.842478264912007"><ele>667.0</ele><time>2026-04-01T13:34:20.999Z</time></trkpt><trkpt lat="45.635247477001435" lon="10.842547937907154"><ele>667.0</ele><time>2026-04-01T13:34:22.999Z</time></trkpt><trkpt lat="45.63518118403779" lon="10.842651934884334"><ele>667.0</ele><time>2026-04-01T13:34:24.999Z</time></trkpt><trkpt lat="45.63521879041022" lon="10.842809618997798"><ele>663.0</ele><time>2026-04-01T13:34:27.999Z</time></trkpt><trkpt lat="45.63522726840237" lon="10.842937576028405"><ele>659.0</ele><time>2026-04-01T13:34:29.999Z</time></trkpt><trkpt lat="45.635248620438325" lon="10.843029462446124"><ele>655.0</ele><time>2026-04-01T13:34:31.999Z</time></trkpt><trkpt lat="45.63525278243005" lon="10.843154050077976"><ele>651.0</ele><time>2026-04-01T13:34:33.999Z</time></trkpt><trkpt lat="45.635303590358106" lon="10.843258357156499"><ele>647.0</ele><time>2026-04-01T13:34:35.999Z</time></trkpt><trkpt lat="45.63523250715698" lon="10.843267244685201"><ele>643.0</ele><time>2026-04-01T13:34:41.998Z</time></trkpt><trkpt lat="45.63516629856885" lon="10.843281292034696"><ele>643.0</ele><time>2026-04-01T13:34:45.998Z</time></trkpt><trkpt lat="45.635105224137455" lon="10.843257290782827"><ele>643.0</ele><time>2026-04-01T13:34:47.998Z</time></trkpt><trkpt lat="45.635034619358116" lon="10.843277044577153"><ele>643.0</ele><time>2026-04-01T13:34:50.998Z</time></trkpt><trkpt lat="45.63496020815958" lon="10.843354013509776"><ele>643.0</ele><time>2026-04-01T13:34:54Z</time></trkpt><trkpt lat="45.63489024525312" lon="10.843368947613616"><ele>643.0</ele><time>2026-04-01T13:34:56Z</time></trkpt><trkpt lat="45.63478419856877" lon="10.843330360446464"><ele>643.0</ele><time>2026-04-01T13:34:59Z</time></trkpt><trkpt lat="45.63471327892543" lon="10.843338208740263"><ele>643.0</ele><time>2026-04-01T13:35:01Z</time></trkpt><trkpt lat="45.63464618323827" lon="10.843348950322317"><ele>643.0</ele><time>2026-04-01T13:35:03Z</time></trkpt><trkpt lat="45.634580483503285" lon="10.843315329991782"><ele>643.0</ele><time>2026-04-01T13:35:06Z</time></trkpt><trkpt lat="45.63451060518502" lon="10.843278944622393"><ele>643.0</ele><time>2026-04-01T13:35:10Z</time></trkpt><trkpt lat="45.634442486870974" lon="10.843315179193493"><ele>643.0</ele><time>2026-04-01T13:35:17Z</time></trkpt><trkpt lat="45.634400095237304" lon="10.843382739462406"><ele>643.0</ele><time>2026-04-01T13:35:19Z</time></trkpt><trkpt lat="45.63437535448523" lon="10.843477137373629"><ele>643.0</ele><time>2026-04-01T13:35:24Z</time></trkpt><trkpt lat="45.634308475450226" lon="10.843535286522979"><ele>639.6666666666667</ele><time>2026-04-01T13:35:29Z</time></trkpt><trkpt lat="45.634235543538296" lon="10.843540263466188"><ele>636.3333333333334</ele><time>2026-04-01T13:35:50.999Z</time></trkpt><trkpt lat="45.63414690382962" lon="10.843565364602"><ele>633.0</ele><time>2026-04-01T13:37:48.999Z</time></trkpt><trkpt lat="45.634065726208746" lon="10.84358215028742"><ele>629.6666666666666</ele><time>2026-04-01T13:37:58.999Z</time></trkpt><trkpt lat="45.63400115306623" lon="10.843508161312807"><ele>626.3333333333333</ele><time>2026-04-01T13:38:02.999Z</time></trkpt><trkpt lat="45.63391740713627" lon="10.84351995880329"><ele>623.0</ele><time>2026-04-01T13:38:04.999Z</time></trkpt><trkpt lat="45.63384829485241" lon="10.843521284728139"><ele>623.0</ele><time>2026-04-01T13:38:05.999Z</time></trkpt><trkpt lat="45.63378518091097" lon="10.84352394346263"><ele>623.0</ele><time>2026-04-01T13:38:06.999Z</time></trkpt><trkpt lat="45.63371047866923" lon="10.843533885490343"><ele>623.0</ele><time>2026-04-01T13:38:07.999Z</time></trkpt><trkpt lat="45.6336488839162" lon="10.84351080576769"><ele>623.0</ele><time>2026-04-01T13:38:08.999Z</time></trkpt><trkpt lat="45.63358182142187" lon="10.84354939006159"><ele>623.0</ele><time>2026-04-01T13:38:09.999Z</time></trkpt><trkpt lat="45.633501793943005" lon="10.843543524036102"><ele>623.0</ele><time>2026-04-01T13:38:11.999Z</time></trkpt><trkpt lat="45.633370615986685" lon="10.843519574205988"><ele>623.8333333333333</ele><time>2026-04-01T13:38:13.999Z</time></trkpt><trkpt lat="45.63328792446721" lon="10.843532059497349"><ele>624.6666666666666</ele><time>2026-04-01T13:38:14.999Z</time></trkpt><trkpt lat="45.6332049548042" lon="10.843532216171791"><ele>625.5</ele><time>2026-04-01T13:38:15.999Z</time></trkpt><trkpt lat="45.633126619564706" lon="10.843554436665467"><ele>626.3333333333334</ele><time>2026-04-01T13:38:16.999Z</time></trkpt><trkpt lat="45.633043047574496" lon="10.843593657467764"><ele>627.1666666666667</ele><time>2026-04-01T13:38:17.999Z</time></trkpt><trkpt lat="45.632971775178184" lon="10.843632120495164"><ele>628.0</ele><time>2026-04-01T13:38:18.999Z</time></trkpt><trkpt lat="45.632863231357476" lon="10.843601952184068"><ele>628.6666666666667</ele><time>2026-04-01T13:38:20.999Z</time></trkpt><trkpt lat="45.63280146337671" lon="10.843532620835461"><ele>629.3333333333334</ele><time>2026-04-01T13:38:21.999Z</time></trkpt><trkpt lat="45.63275313899469" lon="10.843467812303416"><ele>630.0</ele><time>2026-04-01T13:38:22.999Z</time></trkpt><trkpt lat="45.63267617266398" lon="10.843446232154871"><ele>630.6666666666666</ele><time>2026-04-01T13:38:23.999Z</time></trkpt><trkpt lat="45.63259358164259" lon="10.843439344204842"><ele>631.3333333333333</ele><time>2026-04-01T13:38:24.999Z</time></trkpt><trkpt lat="45.63249387866364" lon="10.843381005091084"><ele>632.0</ele><time>2026-04-01T13:38:25.999Z</time></trkpt><trkpt lat="45.632416194662504" lon="10.843357013881352"><ele>629.6666666666666</ele><time>2026-04-01T13:38:26.999Z</time></trkpt><trkpt lat="45.632314729277894" lon="10.843331144168419"><ele>627.3333333333333</ele><time>2026-04-01T13:38:27.999Z</time></trkpt><trkpt lat="45.6322313433993" lon="10.843285855340124"><ele>625.0</ele><time>2026-04-01T13:38:28.999Z</time></trkpt><trkpt lat="45.63213222024363" lon="10.84325134379853"><ele>622.6666666666666</ele><time>2026-04-01T13:38:29.999Z</time></trkpt><trkpt lat="45.63206581853768" lon="10.843249520773107"><ele>620.3333333333334</ele><time>2026-04-01T13:38:30.999Z</time></trkpt><trkpt lat="45.63198446808931" lon="10.843245490003804"><ele>618.0</ele><time>2026-04-01T13:38:31.999Z</time></trkpt><trkpt lat="45.63190359206169" lon="10.843231162600372"><ele>618.0</ele><time>2026-04-01T13:38:32.999Z</time></trkpt><trkpt lat="45.63180792178337" lon="10.843202940043414"><ele>618.0</ele><time>2026-04-01T13:38:33.999Z</time></trkpt><trkpt lat="45.631722020027766" lon="10.843184191602752"><ele>618.0</ele><time>2026-04-01T13:38:34.999Z</time></trkpt><trkpt lat="45.631641389805026" lon="10.84315952483438"><ele>618.0</ele><time>2026-04-01T13:38:35.999Z</time></trkpt><trkpt lat="45.63156868070091" lon="10.843107836559431"><ele>618.0</ele><time>2026-04-01T13:38:36.999Z</time></trkpt><trkpt lat="45.63148523452148" lon="10.843049982233795"><ele>618.0</ele><time>2026-04-01T13:38:37.999Z</time></trkpt><trkpt lat="45.63139580119084" lon="10.842994762517066"><ele>618.0</ele><time>2026-04-01T13:38:38.999Z</time></trkpt><trkpt lat="45.631310230302525" lon="10.842937971024636"><ele>618.0</ele><time>2026-04-01T13:38:39.999Z</time></trkpt><trkpt lat="45.63123597555298" lon="10.84288266320617"><ele>618.0</ele><time>2026-04-01T13:38:40.999Z</time></trkpt><trkpt lat="45.63115710183775" lon="10.842801748590132"><ele>618.0</ele><time>2026-04-01T13:38:41.999Z</time></trkpt><trkpt lat="45.6310706395776" lon="10.842723048148278"><ele>618.0</ele><time>2026-04-01T13:38:42.999Z</time></trkpt><trkpt lat="45.63098436110124" lon="10.84265584418149"><ele>616.4</ele><time>2026-04-01T13:38:43.999Z</time></trkpt><trkpt lat="45.63091875226627" lon="10.842592010979015"><ele>614.8</ele><time>2026-04-01T13:38:44.999Z</time></trkpt><trkpt lat="45.63086252373821" lon="10.84251852634821"><ele>613.2</ele><time>2026-04-01T13:38:45.999Z</time></trkpt><trkpt lat="45.63080345248241" lon="10.842435511273932"><ele>611.6</ele><time>2026-04-01T13:38:46.999Z</time></trkpt><trkpt lat="45.63072033299557" lon="10.842360537816608"><ele>610.0</ele><time>2026-04-01T13:38:47.999Z</time></trkpt><trkpt lat="45.63061159623209" lon="10.842289501308482"><ele>610.0</ele><time>2026-04-01T13:38:48.999Z</time></trkpt><trkpt lat="45.6305170596976" lon="10.842232428125048"><ele>610.0</ele><time>2026-04-01T13:38:49.998Z</time></trkpt><trkpt lat="45.63043220964421" lon="10.842191316004799"><ele>610.0</ele><time>2026-04-01T13:38:50.998Z</time></trkpt><trkpt lat="45.63034964802035" lon="10.84215104139625"><ele>610.0</ele><time>2026-04-01T13:38:51.998Z</time></trkpt><trkpt lat="45.63026915191471" lon="10.842120866519744"><ele>610.0</ele><time>2026-04-01T13:38:52.998Z</time></trkpt><trkpt lat="45.63020025901896" lon="10.842126126090893"><ele>610.0</ele><time>2026-04-01T13:38:53.998Z</time></trkpt><trkpt lat="45.63011237970153" lon="10.842166544125767"><ele>609.4</ele><time>2026-04-01T13:38:55.998Z</time></trkpt><trkpt lat="45.630053889740914" lon="10.842103265979175"><ele>608.8</ele><time>2026-04-01T13:38:57.998Z</time></trkpt><trkpt lat="45.629972032584895" lon="10.842007133177306"><ele>608.2</ele><time>2026-04-01T13:38:59.998Z</time></trkpt><trkpt lat="45.629930951986005" lon="10.841861192703092"><ele>607.6</ele><time>2026-04-01T13:39:01.998Z</time></trkpt><trkpt lat="45.629855810922145" lon="10.841746333777238"><ele>607.0</ele><time>2026-04-01T13:39:04Z</time></trkpt><trkpt lat="45.62979355783654" lon="10.841726693210406"><ele>605.3333333333334</ele><time>2026-04-01T13:39:05Z</time></trkpt><trkpt lat="45.62972176208304" lon="10.841700180533927"><ele>603.6666666666667</ele><time>2026-04-01T13:39:06Z</time></trkpt><trkpt lat="45.6296628746051" lon="10.841657870107369"><ele>602.0</ele><time>2026-04-01T13:39:07Z</time></trkpt><trkpt lat="45.62959978584783" lon="10.841591837060292"><ele>600.3333333333334</ele><time>2026-04-01T13:39:08Z</time></trkpt><trkpt lat="45.62954288764371" lon="10.841532548244153"><ele>598.6666666666666</ele><time>2026-04-01T13:39:09Z</time></trkpt><trkpt lat="45.62948319389479" lon="10.841380362197865"><ele>597.0</ele><time>2026-04-01T13:39:11Z</time></trkpt><trkpt lat="45.62942686691904" lon="10.841241376785774"><ele>595.0</ele><time>2026-04-01T13:39:13Z</time></trkpt><trkpt lat="45.62937043454041" lon="10.841117101140384"><ele>593.0</ele><time>2026-04-01T13:39:15Z</time></trkpt><trkpt lat="45.62928055769648" lon="10.841121721023315"><ele>591.0</ele><time>2026-04-01T13:39:17Z</time></trkpt><trkpt lat="45.629190717645066" lon="10.841237933978102"><ele>589.0</ele><time>2026-04-01T13:39:19Z</time></trkpt><trkpt lat="45.629178019849014" lon="10.841344824939949"><ele>587.0</ele><time>2026-04-01T13:39:20Z</time></trkpt><trkpt lat="45.62915905869761" lon="10.841467542332481"><ele>587.0</ele><time>2026-04-01T13:39:21Z</time></trkpt><trkpt lat="45.62915013859782" lon="10.841571004718041"><ele>587.0</ele><time>2026-04-01T13:39:22Z</time></trkpt><trkpt lat="45.629180865108346" lon="10.841701803464842"><ele>587.0</ele><time>2026-04-01T13:39:24Z</time></trkpt><trkpt lat="45.629196942232156" lon="10.84179361099513"><ele>587.0</ele><time>2026-04-01T13:39:26Z</time></trkpt><trkpt lat="45.62911543418753" lon="10.84183147955606"><ele>587.0</ele><time>2026-04-01T13:39:27Z</time></trkpt><trkpt lat="45.62904752388201" lon="10.841849636545124"><ele>587.0</ele><time>2026-04-01T13:39:28Z</time></trkpt><trkpt lat="45.62896485826514" lon="10.841835161175071"><ele>587.0</ele><time>2026-04-01T13:39:29Z</time></trkpt><trkpt lat="45.6289003636385" lon="10.841787556652319"><ele>587.0</ele><time>2026-04-01T13:39:30Z</time></trkpt><trkpt lat="45.628829564138556" lon="10.841733520424498"><ele>587.0</ele><time>2026-04-01T13:39:31Z</time></trkpt><trkpt lat="45.62876348344668" lon="10.841673986656067"><ele>587.0</ele><time>2026-04-01T13:39:32Z</time></trkpt><trkpt lat="45.62872854093843" lon="10.841597024392227"><ele>587.0</ele><time>2026-04-01T13:39:33Z</time></trkpt><trkpt lat="45.62867377774881" lon="10.841541670803577"><ele>587.0</ele><time>2026-04-01T13:39:34Z</time></trkpt><trkpt lat="45.6286030761834" lon="10.84144477256036"><ele>587.6</ele><time>2026-04-01T13:39:36Z</time></trkpt><trkpt lat="45.62856351418391" lon="10.84137314848738"><ele>588.2</ele><time>2026-04-01T13:39:37Z</time></trkpt><trkpt lat="45.628494580962794" lon="10.84130052146852"><ele>588.8</ele><time>2026-04-01T13:39:38Z</time></trkpt><trkpt lat="45.628406585906546" lon="10.84115236307807"><ele>589.4</ele><time>2026-04-01T13:39:40Z</time></trkpt><trkpt lat="45.62835826906254" lon="10.841086395759818"><ele>590.0</ele><time>2026-04-01T13:39:41Z</time></trkpt><trkpt lat="45.62827524146164" lon="10.840995429966673"><ele>585.4</ele><time>2026-04-01T13:39:43Z</time></trkpt><trkpt lat="45.62819912685135" lon="10.840837275179345"><ele>580.8</ele><time>2026-04-01T13:39:45Z</time></trkpt><trkpt lat="45.62815239383948" lon="10.840728707626486"><ele>576.2</ele><time>2026-04-01T13:39:46Z</time></trkpt><trkpt lat="45.628111555780215" lon="10.840635704840754"><ele>571.6</ele><time>2026-04-01T13:39:47Z</time></trkpt><trkpt lat="45.62807523845624" lon="10.84052450277181"><ele>567.0</ele><time>2026-04-01T13:39:49Z</time></trkpt><trkpt lat="45.62806010232576" lon="10.840397691608638"><ele>567.0</ele><time>2026-04-01T13:39:50.999Z</time></trkpt><trkpt lat="45.627993594700385" lon="10.840284186980673"><ele>567.0</ele><time>2026-04-01T13:39:52.999Z</time></trkpt><trkpt lat="45.62801122146372" lon="10.840180062194715"><ele>567.0</ele><time>2026-04-01T13:39:53.999Z</time></trkpt><trkpt lat="45.62800901370089" lon="10.840054013957525"><ele>567.0</ele><time>2026-04-01T13:39:54.999Z</time></trkpt><trkpt lat="45.62799441515639" lon="10.83994772608002"><ele>567.0</ele><time>2026-04-01T13:39:55.999Z</time></trkpt><trkpt lat="45.62800545458031" lon="10.839789306220032"><ele>563.0</ele><time>2026-04-01T13:39:57.999Z</time></trkpt><trkpt lat="45.62800463156265" lon="10.839632112306784"><ele>559.0</ele><time>2026-04-01T13:39:59.999Z</time></trkpt><trkpt lat="45.6279834880081" lon="10.839479404396325"><ele>555.0</ele><time>2026-04-01T13:40:01.999Z</time></trkpt><trkpt lat="45.62802018334302" lon="10.839345205514393"><ele>551.0</ele><time>2026-04-01T13:40:03.999Z</time></trkpt><trkpt lat="45.628034180003546" lon="10.839197968398638"><ele>547.0</ele><time>2026-04-01T13:40:05.999Z</time></trkpt><trkpt lat="45.6280436287458" lon="10.839106915329985"><ele>544.0</ele><time>2026-04-01T13:40:06.999Z</time></trkpt><trkpt lat="45.62806038830637" lon="10.839016953563437"><ele>541.0</ele><time>2026-04-01T13:40:07.999Z</time></trkpt><trkpt lat="45.62808084485015" lon="10.838920036451727"><ele>538.0</ele><time>2026-04-01T13:40:08.999Z</time></trkpt><trkpt lat="45.62810846745772" lon="10.838835696343063"><ele>535.0</ele><time>2026-04-01T13:40:09.999Z</time></trkpt><trkpt lat="45.628156440134546" lon="10.838758970198299"><ele>532.0</ele><time>2026-04-01T13:40:11.999Z</time></trkpt><trkpt lat="45.62822147803133" lon="10.83866073532749"><ele>529.0</ele><time>2026-04-01T13:40:14.999Z</time></trkpt><trkpt lat="45.62821276728804" lon="10.83853379948713"><ele>526.0</ele><time>2026-04-01T13:40:17.999Z</time></trkpt><trkpt lat="45.62819256113417" lon="10.838419566733736"><ele>523.0</ele><time>2026-04-01T13:40:19.999Z</time></trkpt><trkpt lat="45.62810796940481" lon="10.83835796877706"><ele>520.0</ele><time>2026-04-01T13:40:21.999Z</time></trkpt><trkpt lat="45.62802903209475" lon="10.838272592446081"><ele>517.0</ele><time>2026-04-01T13:40:23.999Z</time></trkpt><trkpt lat="45.62799573027006" lon="10.838165702231274"><ele>514.0</ele><time>2026-04-01T13:40:25.999Z</time></trkpt><trkpt lat="45.628053571376306" lon="10.838079226636655"><ele>511.0</ele><time>2026-04-01T13:40:27.999Z</time></trkpt><trkpt lat="45.62812456219011" lon="10.838012210776869"><ele>511.00000000000006</ele><time>2026-04-01T13:40:29.999Z</time></trkpt><trkpt lat="45.62816840135264" lon="10.837940667421666"><ele>511.0</ele><time>2026-04-01T13:40:30.999Z</time></trkpt><trkpt lat="45.628197701636566" lon="10.83783038663376"><ele>511.0</ele><time>2026-04-01T13:40:32.999Z</time></trkpt><trkpt lat="45.62827446069166" lon="10.837828129495254"><ele>511.0</ele><time>2026-04-01T13:40:35.999Z</time></trkpt><trkpt lat="45.62833054213631" lon="10.837870202769365"><ele>511.00000000000006</ele><time>2026-04-01T13:40:37.999Z</time></trkpt><trkpt lat="45.628394298800295" lon="10.837917586114196"><ele>511.0</ele><time>2026-04-01T13:40:39.999Z</time></trkpt><trkpt lat="45.62848000397683" lon="10.838056069546974"><ele>511.00000000000006</ele><time>2026-04-01T13:40:41.999Z</time></trkpt><trkpt lat="45.62850979120418" lon="10.838174768231253"><ele>511.0</ele><time>2026-04-01T13:40:42.999Z</time></trkpt><trkpt lat="45.62853946009113" lon="10.838289080487057"><ele>511.0</ele><time>2026-04-01T13:40:43.999Z</time></trkpt><trkpt lat="45.62857482738876" lon="10.838381905344928"><ele>511.0</ele><time>2026-04-01T13:40:44.999Z</time></trkpt><trkpt lat="45.62861298200761" lon="10.838510319764454"><ele>511.00000000000006</ele><time>2026-04-01T13:40:46.999Z</time></trkpt><trkpt lat="45.62860302650999" lon="10.83860166875717"><ele>511.0</ele><time>2026-04-01T13:40:48.999Z</time></trkpt><trkpt lat="45.62869046189572" lon="10.838568686509994"><ele>515.25</ele><time>2026-04-01T13:40:51.999Z</time></trkpt><trkpt lat="45.62884703864012" lon="10.83857623690567"><ele>519.5</ele><time>2026-04-01T13:40:54.999Z</time></trkpt><trkpt lat="45.62894927643363" lon="10.838557678088822"><ele>523.75</ele><time>2026-04-01T13:40:55.999Z</time></trkpt><trkpt lat="45.62905577666753" lon="10.838540579892006"><ele>528.0</ele><time>2026-04-01T13:40:56.999Z</time></trkpt><trkpt lat="45.62914257891097" lon="10.838559585094046"><ele>528.0</ele><time>2026-04-01T13:40:57.999Z</time></trkpt><trkpt lat="45.62921366016309" lon="10.838568867381714"><ele>528.0</ele><time>2026-04-01T13:40:58.998Z</time></trkpt><trkpt lat="45.629300871846326" lon="10.838614020142192"><ele>528.0</ele><time>2026-04-01T13:40:59.998Z</time></trkpt><trkpt lat="45.62938055408559" lon="10.838659695207213"><ele>528.0</ele><time>2026-04-01T13:41:00.998Z</time></trkpt><trkpt lat="45.62945733807604" lon="10.838713376924467"><ele>528.0</ele><time>2026-04-01T13:41:01.998Z</time></trkpt><trkpt lat="45.62953373381118" lon="10.838786707406069"><ele>528.0</ele><time>2026-04-01T13:41:02.998Z</time></trkpt><trkpt lat="45.62958644841932" lon="10.838855932890143"><ele>526.8333333333334</ele><time>2026-04-01T13:41:03.998Z</time></trkpt><trkpt lat="45.62965104266724" lon="10.83886719145888"><ele>525.6666666666666</ele><time>2026-04-01T13:41:04.998Z</time></trkpt><trkpt lat="45.629732722821565" lon="10.838850098496568"><ele>524.5</ele><time>2026-04-01T13:41:05.998Z</time></trkpt><trkpt lat="45.62981578083672" lon="10.838846902964637"><ele>523.3333333333333</ele><time>2026-04-01T13:41:06.998Z</time></trkpt><trkpt lat="45.62989013658577" lon="10.838870750352166"><ele>522.1666666666666</ele><time>2026-04-01T13:41:07.998Z</time></trkpt><trkpt lat="45.62994538083569" lon="10.838926467695714"><ele>521.0</ele><time>2026-04-01T13:41:08.998Z</time></trkpt><trkpt lat="45.630017093921886" lon="10.838997906353733"><ele>521.0</ele><time>2026-04-01T13:41:10Z</time></trkpt><trkpt lat="45.63010215677284" lon="10.839059939305365"><ele>521.0</ele><time>2026-04-01T13:41:11Z</time></trkpt><trkpt lat="45.630170335731414" lon="10.83915383878281"><ele>521.0</ele><time>2026-04-01T13:41:13Z</time></trkpt><trkpt lat="45.63019431060943" lon="10.839052748041452"><ele>521.0</ele><time>2026-04-01T13:41:17Z</time></trkpt><trkpt lat="45.63017273268758" lon="10.83895289745283"><ele>521.0</ele><time>2026-04-01T13:41:19Z</time></trkpt><trkpt lat="45.63009199943944" lon="10.83886287938294"><ele>521.0</ele><time>2026-04-01T13:41:20Z</time></trkpt><trkpt lat="45.630027770084745" lon="10.83877835932173"><ele>521.0</ele><time>2026-04-01T13:41:21Z</time></trkpt><trkpt lat="45.629967665328785" lon="10.83871022598958"><ele>521.0</ele><time>2026-04-01T13:41:22Z</time></trkpt><trkpt lat="45.629904949530655" lon="10.838626410085212"><ele>521.0</ele><time>2026-04-01T13:41:23Z</time></trkpt><trkpt lat="45.62982481946183" lon="10.838559633179754"><ele>521.0</ele><time>2026-04-01T13:41:24Z</time></trkpt><trkpt lat="45.62976061352617" lon="10.838499700154268"><ele>521.0</ele><time>2026-04-01T13:41:25Z</time></trkpt><trkpt lat="45.62968107705003" lon="10.83841856894494"><ele>521.0</ele><time>2026-04-01T13:41:26Z</time></trkpt><trkpt lat="45.62962546952306" lon="10.838356386243808"><ele>517.0</ele><time>2026-04-01T13:41:27Z</time></trkpt><trkpt lat="45.62955195792095" lon="10.838335182035692"><ele>513.0</ele><time>2026-04-01T13:41:28Z</time></trkpt><trkpt lat="45.62946505828514" lon="10.838312459154178"><ele>509.0</ele><time>2026-04-01T13:41:29Z</time></trkpt><trkpt lat="45.629386386650665" lon="10.838287868264386"><ele>505.0</ele><time>2026-04-01T13:41:30Z</time></trkpt><trkpt lat="45.62931445432796" lon="10.838257801093842"><ele>500.99999999999994</ele><time>2026-04-01T13:41:31Z</time></trkpt><trkpt lat="45.62920397172075" lon="10.838238397870159"><ele>497.0</ele><time>2026-04-01T13:41:33Z</time></trkpt><trkpt lat="45.629136658095256" lon="10.838216734882522"><ele>496.8333333333333</ele><time>2026-04-01T13:41:35Z</time></trkpt><trkpt lat="45.629084463694326" lon="10.838151231623426"><ele>496.66666666666663</ele><time>2026-04-01T13:41:37Z</time></trkpt><trkpt lat="45.629003691196054" lon="10.838135805773833"><ele>496.5</ele><time>2026-04-01T13:41:38Z</time></trkpt><trkpt lat="45.62891978217313" lon="10.838119838494462"><ele>496.33333333333337</ele><time>2026-04-01T13:41:39Z</time></trkpt><trkpt lat="45.62891268192795" lon="10.838028464040686"><ele>496.1666666666667</ele><time>2026-04-01T13:41:41Z</time></trkpt><trkpt lat="45.62886583183816" lon="10.837896342682969"><ele>496.0</ele><time>2026-04-01T13:41:44Z</time></trkpt><trkpt lat="45.62882208399415" lon="10.837821723284526"><ele>496.00000000000006</ele><time>2026-04-01T13:41:46Z</time></trkpt><trkpt lat="45.62875137847841" lon="10.837707706965135"><ele>496.0</ele><time>2026-04-01T13:41:48Z</time></trkpt><trkpt lat="45.62870901599146" lon="10.837610678319466"><ele>496.0</ele><time>2026-04-01T13:41:51Z</time></trkpt><trkpt lat="45.628676076129324" lon="10.837518489894881"><ele>496.0</ele><time>2026-04-01T13:41:52Z</time></trkpt><trkpt lat="45.62866973683486" lon="10.837415056648984"><ele>496.00000000000006</ele><time>2026-04-01T13:41:55Z</time></trkpt><trkpt lat="45.62863682274248" lon="10.837326830102647"><ele>496.0</ele><time>2026-04-01T13:41:56.999Z</time></trkpt><trkpt lat="45.62859858754134" lon="10.837238088731704"><ele>495.4</ele><time>2026-04-01T13:41:59.999Z</time></trkpt><trkpt lat="45.62854984525975" lon="10.837170257509216"><ele>494.8</ele><time>2026-04-01T13:42:00.999Z</time></trkpt><trkpt lat="45.62846718537995" lon="10.837107760116027"><ele>494.19999999999993</ele><time>2026-04-01T13:42:03.999Z</time></trkpt><trkpt lat="45.62843460151521" lon="10.837022137128198"><ele>493.59999999999997</ele><time>2026-04-01T13:42:05.999Z</time></trkpt><trkpt lat="45.628373595155345" lon="10.836964158547996"><ele>493.0</ele><time>2026-04-01T13:42:08.999Z</time></trkpt><trkpt lat="45.628223438880354" lon="10.836743810007194"><ele>486.0</ele><time>2026-04-01T13:42:09.999Z</time></trkpt><trkpt lat="45.62811700818946" lon="10.836705459375564"><ele>479.0</ele><time>2026-04-01T13:42:11.999Z</time></trkpt><trkpt lat="45.628057554937136" lon="10.83665494313289"><ele>472.0</ele><time>2026-04-01T13:42:13.999Z</time></trkpt><trkpt lat="45.627776938191964" lon="10.8365109354372"><ele>472.00000000000006</ele><time>2026-04-01T13:42:14.999Z</time></trkpt><trkpt lat="45.6276735825308" lon="10.836452366944657"><ele>472.0</ele><time>2026-04-01T13:42:16.999Z</time></trkpt><trkpt lat="45.62760589569288" lon="10.8364593214457"><ele>472.0</ele><time>2026-04-01T13:42:17.999Z</time></trkpt><trkpt lat="45.627526298390066" lon="10.836498881720303"><ele>472.0</ele><time>2026-04-01T13:42:19.999Z</time></trkpt><trkpt lat="45.62747807224089" lon="10.836412376645857"><ele>472.00000000000006</ele><time>2026-04-01T13:42:22.999Z</time></trkpt><trkpt lat="45.627408753162506" lon="10.836366565564267"><ele>472.0</ele><time>2026-04-01T13:42:24.999Z</time></trkpt><trkpt lat="45.62733715196463" lon="10.836326449751171"><ele>472.00000000000006</ele><time>2026-04-01T13:42:28.999Z</time></trkpt><trkpt lat="45.627259298422715" lon="10.836367160635897"><ele>472.0</ele><time>2026-04-01T13:42:30.999Z</time></trkpt><trkpt lat="45.62721747852273" lon="10.836458164357026"><ele>472.0</ele><time>2026-04-01T13:42:32.999Z</time></trkpt><trkpt lat="45.627239976517835" lon="10.836590341131348"><ele>472.0</ele><time>2026-04-01T13:42:34.999Z</time></trkpt><trkpt lat="45.62715945226891" lon="10.836607629911008"><ele>472.00000000000006</ele><time>2026-04-01T13:42:36.999Z</time></trkpt><trkpt lat="45.62711473793369" lon="10.836499004002597"><ele>472.0</ele><time>2026-04-01T13:42:40.999Z</time></trkpt><trkpt lat="45.62706586485467" lon="10.83641195389122"><ele>472.00000000000006</ele><time>2026-04-01T13:42:42.999Z</time></trkpt><trkpt lat="45.62701113146882" lon="10.836331437253763"><ele>472.0</ele><time>2026-04-01T13:42:44.999Z</time></trkpt><trkpt lat="45.62703915352989" lon="10.836247748982101"><ele>472.0</ele><time>2026-04-01T13:42:46.999Z</time></trkpt><trkpt lat="45.62704624223545" lon="10.83615440533475"><ele>472.0</ele><time>2026-04-01T13:42:49.999Z</time></trkpt><trkpt lat="45.62698008428077" lon="10.83608446126219"><ele>472.00000000000006</ele><time>2026-04-01T13:42:51.999Z</time></trkpt><trkpt lat="45.62692224834867" lon="10.835965576401716"><ele>472.0</ele><time>2026-04-01T13:42:55.999Z</time></trkpt><trkpt lat="45.626854017331134" lon="10.83588441956893"><ele>467.20000000000005</ele><time>2026-04-01T13:42:58.999Z</time></trkpt><trkpt lat="45.62682466029665" lon="10.835776792945937"><ele>462.40000000000003</ele><time>2026-04-01T13:43:00.999Z</time></trkpt><trkpt lat="45.62678253499799" lon="10.835655245056843"><ele>457.59999999999997</ele><time>2026-04-01T13:43:03.998Z</time></trkpt><trkpt lat="45.62673915977398" lon="10.835528205375676"><ele>452.79999999999995</ele><time>2026-04-01T13:43:51Z</time></trkpt><trkpt lat="45.62672291247376" lon="10.835418702263905"><ele>448.0</ele><time>2026-04-01T13:43:53Z</time></trkpt><trkpt lat="45.62663419554382" lon="10.835353304630422"><ele>448.0</ele><time>2026-04-01T13:43:55Z</time></trkpt><trkpt lat="45.62654496983608" lon="10.835287352253127"><ele>447.99999999999994</ele><time>2026-04-01T13:43:57Z</time></trkpt><trkpt lat="45.62644712393769" lon="10.835255767246036"><ele>447.99999999999994</ele><time>2026-04-01T13:43:59Z</time></trkpt><trkpt lat="45.62633002264783" lon="10.83525561282264"><ele>448.0</ele><time>2026-04-01T13:44:01Z</time></trkpt><trkpt lat="45.62622844308333" lon="10.835196711643588"><ele>448.0</ele><time>2026-04-01T13:44:02.999Z</time></trkpt><trkpt lat="45.62611578960195" lon="10.835140220550317"><ele>448.33333333333337</ele><time>2026-04-01T13:44:04.999Z</time></trkpt><trkpt lat="45.62603459049159" lon="10.835110627130653"><ele>448.6666666666667</ele><time>2026-04-01T13:44:06.999Z</time></trkpt><trkpt lat="45.625898360144085" lon="10.835090106173622"><ele>449.0</ele><time>2026-04-01T13:44:09.999Z</time></trkpt><trkpt lat="45.62580942564905" lon="10.835113340933363"><ele>449.33333333333337</ele><time>2026-04-01T13:44:10.999Z</time></trkpt><trkpt lat="45.625752834699966" lon="10.835160096019942"><ele>449.6666666666667</ele><time>2026-04-01T13:44:11.999Z</time></trkpt><trkpt lat="45.62568304193188" lon="10.83518214753069"><ele>450.0</ele><time>2026-04-01T13:44:16.999Z</time></trkpt><trkpt lat="45.62559866676023" lon="10.835207018837009"><ele>450.0</ele><time>2026-04-01T13:44:19.999Z</time></trkpt><trkpt lat="45.62551021985239" lon="10.835241130462627"><ele>450.0</ele><time>2026-04-01T13:44:22.999Z</time></trkpt><trkpt lat="45.625433777742785" lon="10.835268340593483"><ele>450.0</ele><time>2026-04-01T13:44:24.999Z</time></trkpt><trkpt lat="45.62534425007506" lon="10.835205190164675"><ele>450.0</ele><time>2026-04-01T13:44:27.999Z</time></trkpt><trkpt lat="45.62529682878451" lon="10.83514095580363"><ele>450.0</ele><time>2026-04-01T13:44:29.999Z</time></trkpt><trkpt lat="45.62524110394381" lon="10.835060202972498"><ele>450.0</ele><time>2026-04-01T13:44:31.999Z</time></trkpt><trkpt lat="45.62515638774613" lon="10.835062872300881"><ele>445.0</ele><time>2026-04-01T13:44:34.999Z</time></trkpt><trkpt lat="45.625072159999874" lon="10.834996549583542"><ele>440.0</ele><time>2026-04-01T13:44:37.999Z</time></trkpt><trkpt lat="45.62500297272395" lon="10.834959495995001"><ele>435.0</ele><time>2026-04-01T13:44:39.999Z</time></trkpt><trkpt lat="45.62490505812894" lon="10.834941500623861"><ele>430.0</ele><time>2026-04-01T13:44:40.999Z</time></trkpt><trkpt lat="45.62483413000808" lon="10.834948577502077"><ele>425.0</ele><time>2026-04-01T13:44:42.999Z</time></trkpt><trkpt lat="45.62477858114963" lon="10.83503348085865"><ele>420.0</ele><time>2026-04-01T13:44:45.999Z</time></trkpt><trkpt lat="45.624708707887955" lon="10.835004937153867"><ele>420.0</ele><time>2026-04-01T13:44:47.999Z</time></trkpt><trkpt lat="45.62463169497774" lon="10.835002484127797"><ele>420.0</ele><time>2026-04-01T13:44:49.999Z</time></trkpt><trkpt lat="45.624562689898156" lon="10.834951953988199"><ele>420.0</ele><time>2026-04-01T13:44:51.999Z</time></trkpt><trkpt lat="45.62448001103806" lon="10.834915152010192"><ele>420.0</ele><time>2026-04-01T13:44:54.999Z</time></trkpt><trkpt lat="45.624384397826546" lon="10.834895943785627"><ele>420.0</ele><time>2026-04-01T13:44:57.999Z</time></trkpt><trkpt lat="45.62429195262603" lon="10.83486029743707"><ele>420.0</ele><time>2026-04-01T13:45:00.999Z</time></trkpt><trkpt lat="45.62429588968626" lon="10.834742170277618"><ele>419.57142857142856</ele><time>2026-04-01T13:45:06.999Z</time></trkpt><trkpt lat="45.62421388985523" lon="10.834749206271638"><ele>419.1428571428571</ele><time>2026-04-01T13:45:10.998Z</time></trkpt><trkpt lat="45.62414955321669" lon="10.83476594863413"><ele>418.7142857142857</ele><time>2026-04-01T13:45:13.998Z</time></trkpt><trkpt lat="45.62408374246534" lon="10.834786193639506"><ele>418.2857142857143</ele><time>2026-04-01T13:45:16.998Z</time></trkpt><trkpt lat="45.6240197206567" lon="10.8348114062847"><ele>417.85714285714283</ele><time>2026-04-01T13:45:20.998Z</time></trkpt><trkpt lat="45.62393446060582" lon="10.83480084450583"><ele>417.42857142857144</ele><time>2026-04-01T13:45:25Z</time></trkpt><trkpt lat="45.623894424890935" lon="10.83471669317945"><ele>417.0</ele><time>2026-04-01T13:45:28Z</time></trkpt><trkpt lat="45.623843866431535" lon="10.834607594555822"><ele>417.0</ele><time>2026-04-01T13:45:31Z</time></trkpt><trkpt lat="45.62381013016083" lon="10.834506459095818"><ele>417.0</ele><time>2026-04-01T13:45:33Z</time></trkpt><trkpt lat="45.623712813393965" lon="10.834386129171369"><ele>417.0</ele><time>2026-04-01T13:45:35Z</time></trkpt><trkpt lat="45.623573918645896" lon="10.834304339002246"><ele>417.0</ele><time>2026-04-01T13:45:37Z</time></trkpt><trkpt lat="45.62349647306206" lon="10.834289762119816"><ele>417.0</ele><time>2026-04-01T13:45:38Z</time></trkpt><trkpt lat="45.623405072079926" lon="10.834262513498574"><ele>413.3333333333333</ele><time>2026-04-01T13:45:39Z</time></trkpt><trkpt lat="45.623325359722024" lon="10.834224876673934"><ele>409.66666666666663</ele><time>2026-04-01T13:45:40Z</time></trkpt><trkpt lat="45.62321732728886" lon="10.834174611813435"><ele>406.0</ele><time>2026-04-01T13:45:41Z</time></trkpt><trkpt lat="45.6231561106402" lon="10.83415064521973"><ele>402.3333333333333</ele><time>2026-04-01T13:45:42Z</time></trkpt><trkpt lat="45.62308145753798" lon="10.834115224772308"><ele>398.66666666666663</ele><time>2026-04-01T13:45:44Z</time></trkpt><trkpt lat="45.62301356788175" lon="10.834110947723273"><ele>395.0</ele><time>2026-04-01T13:45:46Z</time></trkpt><trkpt lat="45.622943233300155" lon="10.834118619715078"><ele>394.99999999999994</ele><time>2026-04-01T13:45:48Z</time></trkpt><trkpt lat="45.62291254558179" lon="10.834034461424002"><ele>395.0</ele><time>2026-04-01T13:45:50Z</time></trkpt><trkpt lat="45.62289039546883" lon="10.833940887606731"><ele>395.0</ele><time>2026-04-01T13:45:52Z</time></trkpt><trkpt lat="45.622875890098896" lon="10.833828219710334"><ele>395.0</ele><time>2026-04-01T13:45:55Z</time></trkpt><trkpt lat="45.62285885376739" lon="10.833674648209252"><ele>394.99999999999994</ele><time>2026-04-01T13:45:57Z</time></trkpt><trkpt lat="45.62283544140125" lon="10.833565796073053"><ele>395.0</ele><time>2026-04-01T13:45:58Z</time></trkpt><trkpt lat="45.62284323721169" lon="10.833467997815909"><ele>392.8</ele><time>2026-04-01T13:45:59Z</time></trkpt><trkpt lat="45.6228331094233" lon="10.833376663037175"><ele>390.6</ele><time>2026-04-01T13:46:00Z</time></trkpt><trkpt lat="45.62282016050504" lon="10.833276478828834"><ele>388.4</ele><time>2026-04-01T13:46:01Z</time></trkpt><trkpt lat="45.62272711575444" lon="10.833192174273377"><ele>386.2</ele><time>2026-04-01T13:46:03Z</time></trkpt><trkpt lat="45.62264075954243" lon="10.833076066711058"><ele>384.0</ele><time>2026-04-01T13:46:05Z</time></trkpt><trkpt lat="45.62252156114786" lon="10.833041676809474"><ele>384.0</ele><time>2026-04-01T13:46:07Z</time></trkpt><trkpt lat="45.62244100578188" lon="10.832989831847154"><ele>384.0</ele><time>2026-04-01T13:46:08Z</time></trkpt><trkpt lat="45.62236962858602" lon="10.832907827915827"><ele>384.0</ele><time>2026-04-01T13:46:08.999Z</time></trkpt><trkpt lat="45.622279078156204" lon="10.832900911363083"><ele>384.0</ele><time>2026-04-01T13:46:09.999Z</time></trkpt><trkpt lat="45.62215504909318" lon="10.832853325001285"><ele>384.0</ele><time>2026-04-01T13:46:11.999Z</time></trkpt><trkpt lat="45.622077670176765" lon="10.832822912253299"><ele>384.0</ele><time>2026-04-01T13:46:12.999Z</time></trkpt><trkpt lat="45.62201077149532" lon="10.832774545218115"><ele>384.0</ele><time>2026-04-01T13:46:13.999Z</time></trkpt><trkpt lat="45.62192677227591" lon="10.832714021190899"><ele>384.0</ele><time>2026-04-01T13:46:14.999Z</time></trkpt><trkpt lat="45.62183064271022" lon="10.832671497487764"><ele>384.0</ele><time>2026-04-01T13:46:15.999Z</time></trkpt><trkpt lat="45.62175083033767" lon="10.832659905288562"><ele>384.0</ele><time>2026-04-01T13:46:16.999Z</time></trkpt><trkpt lat="45.62165851162921" lon="10.832639729158723"><ele>384.0</ele><time>2026-04-01T13:46:17.999Z</time></trkpt><trkpt lat="45.621565824564385" lon="10.832614217764803"><ele>382.0</ele><time>2026-04-01T13:46:18.999Z</time></trkpt><trkpt lat="45.62147852528415" lon="10.832586155984249"><ele>380.0</ele><time>2026-04-01T13:46:19.999Z</time></trkpt><trkpt lat="45.62139532774137" lon="10.832522081210776"><ele>378.0</ele><time>2026-04-01T13:46:20.999Z</time></trkpt><trkpt lat="45.62133391948752" lon="10.8324758309821"><ele>376.0</ele><time>2026-04-01T13:46:21.999Z</time></trkpt><trkpt lat="45.621256667018855" lon="10.832451674609842"><ele>374.0</ele><time>2026-04-01T13:46:22.999Z</time></trkpt><trkpt lat="45.621186985434406" lon="10.832471072068659"><ele>372.0</ele><time>2026-04-01T13:46:23.999Z</time></trkpt><trkpt lat="45.62104360035204" lon="10.83233788839067"><ele>372.0</ele><time>2026-04-01T13:46:25.999Z</time></trkpt><trkpt lat="45.62100506135072" lon="10.83225713560912"><ele>372.0</ele><time>2026-04-01T13:46:26.999Z</time></trkpt><trkpt lat="45.62090639813056" lon="10.832128532573225"><ele>372.0</ele><time>2026-04-01T13:46:28.999Z</time></trkpt><trkpt lat="45.62083309137636" lon="10.832090487675403"><ele>372.0</ele><time>2026-04-01T13:46:29.999Z</time></trkpt><trkpt lat="45.62071819286198" lon="10.832047151278182"><ele>372.0</ele><time>2026-04-01T13:46:30.999Z</time></trkpt><trkpt lat="45.620631920355365" lon="10.83202381241193"><ele>372.0</ele><time>2026-04-01T13:46:31.999Z</time></trkpt><trkpt lat="45.62055666878636" lon="10.831995034535064"><ele>372.0</ele><time>2026-04-01T13:46:32.999Z</time></trkpt><trkpt lat="45.620473842016196" lon="10.831980891502976"><ele>372.0</ele><time>2026-04-01T13:46:33.999Z</time></trkpt><trkpt lat="45.62038342903287" lon="10.831960109504458"><ele>372.0</ele><time>2026-04-01T13:46:34.999Z</time></trkpt><trkpt lat="45.620298694037466" lon="10.831932582574602"><ele>372.0</ele><time>2026-04-01T13:46:35.999Z</time></trkpt><trkpt lat="45.62020951799928" lon="10.83192772138206"><ele>372.0</ele><time>2026-04-01T13:46:36.999Z</time></trkpt><trkpt lat="45.62010700383547" lon="10.831938439892264"><ele>373.1666666666667</ele><time>2026-04-01T13:46:38.999Z</time></trkpt><trkpt lat="45.62004154172246" lon="10.83188335758195"><ele>374.3333333333333</ele><time>2026-04-01T13:46:40.999Z</time></trkpt><trkpt lat="45.62007435128779" lon="10.831730076625128"><ele>375.5</ele><time>2026-04-01T13:46:42.999Z</time></trkpt><trkpt lat="45.62007442457306" lon="10.831605866067775"><ele>376.66666666666663</ele><time>2026-04-01T13:46:44.999Z</time></trkpt><trkpt lat="45.62002659536323" lon="10.831517805453172"><ele>377.8333333333333</ele><time>2026-04-01T13:46:46.999Z</time></trkpt><trkpt lat="45.61999161247784" lon="10.831439058497715"><ele>379.0</ele><time>2026-04-01T13:46:48.999Z</time></trkpt><trkpt lat="45.61989752749927" lon="10.831332672064292"><ele>374.0</ele><time>2026-04-01T13:46:50.999Z</time></trkpt><trkpt lat="45.619818774070055" lon="10.831268065509022"><ele>369.0</ele><time>2026-04-01T13:46:51.999Z</time></trkpt><trkpt lat="45.61973261593319" lon="10.831189704361163"><ele>364.0</ele><time>2026-04-01T13:46:52.999Z</time></trkpt><trkpt lat="45.61965345453601" lon="10.831122442420059"><ele>359.0</ele><time>2026-04-01T13:46:53.999Z</time></trkpt><trkpt lat="45.61956923433974" lon="10.831034608713459"><ele>354.0</ele><time>2026-04-01T13:46:54.999Z</time></trkpt><trkpt lat="45.61951543458989" lon="10.830949936103378"><ele>350.4</ele><time>2026-04-01T13:46:55.999Z</time></trkpt><trkpt lat="45.61944841741681" lon="10.830880618476588"><ele>346.79999999999995</ele><time>2026-04-01T13:46:56.999Z</time></trkpt><trkpt lat="45.61930932613211" lon="10.830816240782292"><ele>343.20000000000005</ele><time>2026-04-01T13:46:58.999Z</time></trkpt><trkpt lat="45.61916739908898" lon="10.830822425253468"><ele>339.6</ele><time>2026-04-01T13:47:00.999Z</time></trkpt><trkpt lat="45.619104018996346" lon="10.830864601120382"><ele>336.0</ele><time>2026-04-01T13:47:01.999Z</time></trkpt><trkpt lat="45.61901945158911" lon="10.830933644270177"><ele>336.0</ele><time>2026-04-01T13:47:03.999Z</time></trkpt><trkpt lat="45.6189376061961" lon="10.830880901382184"><ele>336.0</ele><time>2026-04-01T13:47:05.999Z</time></trkpt><trkpt lat="45.618913730274095" lon="10.83068904285472"><ele>336.0</ele><time>2026-04-01T13:47:07.999Z</time></trkpt><trkpt lat="45.61891856460525" lon="10.830592576429648"><ele>336.0</ele><time>2026-04-01T13:47:08.999Z</time></trkpt><trkpt lat="45.61889582181147" lon="10.830475179498915"><ele>336.0</ele><time>2026-04-01T13:47:10.999Z</time></trkpt><trkpt lat="45.61887519741439" lon="10.830386567010466"><ele>336.0</ele><time>2026-04-01T13:47:12.999Z</time></trkpt><trkpt lat="45.61882139191707" lon="10.83027155135994"><ele>336.0</ele><time>2026-04-01T13:47:14.999Z</time></trkpt><trkpt lat="45.618773391523035" lon="10.830204985251447"><ele>336.0</ele><time>2026-04-01T13:47:15.999Z</time></trkpt><trkpt lat="45.6187058796809" lon="10.8301633636338"><ele>336.0</ele><time>2026-04-01T13:47:16.999Z</time></trkpt><trkpt lat="45.618612043999306" lon="10.830075904560095"><ele>336.0</ele><time>2026-04-01T13:47:18.998Z</time></trkpt><trkpt lat="45.61851366107415" lon="10.830001485208419"><ele>336.0</ele><time>2026-04-01T13:47:20.998Z</time></trkpt><trkpt lat="45.61845495506114" lon="10.829948174259146"><ele>336.0</ele><time>2026-04-01T13:47:21.998Z</time></trkpt><trkpt lat="45.61839999329793" lon="10.829900101153969"><ele>335.1666666666667</ele><time>2026-04-01T13:47:22.998Z</time></trkpt><trkpt lat="45.61834095711999" lon="10.829820464908703"><ele>334.3333333333333</ele><time>2026-04-01T13:47:24.998Z</time></trkpt><trkpt lat="45.61825259433124" lon="10.829733567412989"><ele>333.5</ele><time>2026-04-01T13:47:26.998Z</time></trkpt><trkpt lat="45.61820200884606" lon="10.829672428523573"><ele>332.66666666666663</ele><time>2026-04-01T13:47:28Z</time></trkpt><trkpt lat="45.618138926563255" lon="10.829628765459622"><ele>331.8333333333333</ele><time>2026-04-01T13:47:29Z</time></trkpt><trkpt lat="45.618072553812226" lon="10.829576198782052"><ele>331.0</ele><time>2026-04-01T13:47:30Z</time></trkpt><trkpt lat="45.617962873599765" lon="10.829538032003045"><ele>331.0</ele><time>2026-04-01T13:47:31Z</time></trkpt><trkpt lat="45.61786544535214" lon="10.82949966870258"><ele>331.0</ele><time>2026-04-01T13:47:32Z</time></trkpt><trkpt lat="45.6177947128878" lon="10.82944368003333"><ele>331.0</ele><time>2026-04-01T13:47:33Z</time></trkpt><trkpt lat="45.61772984618585" lon="10.829379672425693"><ele>331.0</ele><time>2026-04-01T13:47:34Z</time></trkpt><trkpt lat="45.61762434918625" lon="10.829333387985868"><ele>331.0</ele><time>2026-04-01T13:47:36Z</time></trkpt><trkpt lat="45.61750595567109" lon="10.829335384104514"><ele>328.75</ele><time>2026-04-01T13:47:38Z</time></trkpt><trkpt lat="45.61739041092749" lon="10.829273839656716"><ele>326.5</ele><time>2026-04-01T13:47:40Z</time></trkpt><trkpt lat="45.61738496431723" lon="10.82907653468551"><ele>324.25</ele><time>2026-04-01T13:47:41Z</time></trkpt><trkpt lat="45.617293970319764" lon="10.829020558569162"><ele>322.0</ele><time>2026-04-01T13:47:43Z</time></trkpt><trkpt lat="45.617199981128074" lon="10.828951475496874"><ele>322.0</ele><time>2026-04-01T13:47:45Z</time></trkpt><trkpt lat="45.617135349049356" lon="10.828903970199582"><ele>322.0</ele><time>2026-04-01T13:47:47Z</time></trkpt><trkpt lat="45.617068499584974" lon="10.828865713937311"><ele>322.0</ele><time>2026-04-01T13:47:50Z</time></trkpt><trkpt lat="45.6169360507455" lon="10.828883600595328"><ele>322.0</ele><time>2026-04-01T13:47:52Z</time></trkpt><trkpt lat="45.61685350255664" lon="10.82885536228794"><ele>322.0</ele><time>2026-04-01T13:47:54Z</time></trkpt><trkpt lat="45.61677484508301" lon="10.828851187196188"><ele>322.0</ele><time>2026-04-01T13:49:02.999Z</time></trkpt><trkpt lat="45.61665719950074" lon="10.82886156371996"><ele>321.0</ele><time>2026-04-01T13:49:04.999Z</time></trkpt><trkpt lat="45.61654045772124" lon="10.828928069584308"><ele>320.0</ele><time>2026-04-01T13:49:06.999Z</time></trkpt><trkpt lat="45.616463272659814" lon="10.829005490227981"><ele>319.0</ele><time>2026-04-01T13:49:07.999Z</time></trkpt><trkpt lat="45.616397154520925" lon="10.829090750965372"><ele>318.0</ele><time>2026-04-01T13:49:08.999Z</time></trkpt><trkpt lat="45.61632611297731" lon="10.829189124782408"><ele>317.0</ele><time>2026-04-01T13:49:09.999Z</time></trkpt><trkpt lat="45.616277678777415" lon="10.829280744167965"><ele>318.0</ele><time>2026-04-01T13:49:10.999Z</time></trkpt><trkpt lat="45.61621985253109" lon="10.829405055494085"><ele>319.0</ele><time>2026-04-01T13:49:12.999Z</time></trkpt><trkpt lat="45.61618486749176" lon="10.829493281789242"><ele>320.0</ele><time>2026-04-01T13:49:15.999Z</time></trkpt><trkpt lat="45.6161511597091" lon="10.829575589509007"><ele>321.0</ele><time>2026-04-01T13:49:19.999Z</time></trkpt><trkpt lat="45.61604626105533" lon="10.829511719882197"><ele>322.0</ele><time>2026-04-01T13:49:24.998Z</time></trkpt><trkpt lat="45.615960427212805" lon="10.829425520611245"><ele>322.0</ele><time>2026-04-01T13:49:26.998Z</time></trkpt><trkpt lat="45.61589970007862" lon="10.829361914482888"><ele>322.0</ele><time>2026-04-01T13:49:27.998Z</time></trkpt><trkpt lat="45.615823445272575" lon="10.829244587625807"><ele>322.0</ele><time>2026-04-01T13:49:28.998Z</time></trkpt><trkpt lat="45.61577386596837" lon="10.829094531176311"><ele>322.0</ele><time>2026-04-01T13:49:29.998Z</time></trkpt><trkpt lat="45.61571423318218" lon="10.828985451369837"><ele>322.0</ele><time>2026-04-01T13:49:30.998Z</time></trkpt><trkpt lat="45.615660167032004" lon="10.828885022348276"><ele>321.0</ele><time>2026-04-01T13:49:31.998Z</time></trkpt><trkpt lat="45.61561976522166" lon="10.828786203320004"><ele>320.0</ele><time>2026-04-01T13:49:32.998Z</time></trkpt><trkpt lat="45.61557620795181" lon="10.828686130169404"><ele>319.0</ele><time>2026-04-01T13:49:34Z</time></trkpt><trkpt lat="45.61553046781843" lon="10.828602096859491"><ele>318.0</ele><time>2026-04-01T13:49:35Z</time></trkpt><trkpt lat="45.61547001488691" lon="10.828499451927042"><ele>317.0</ele><time>2026-04-01T13:49:36Z</time></trkpt><trkpt lat="45.61540449279338" lon="10.828368981950833"><ele>316.0</ele><time>2026-04-01T13:49:37Z</time></trkpt><trkpt lat="45.615351877402595" lon="10.8282395500738"><ele>316.0</ele><time>2026-04-01T13:49:38Z</time></trkpt><trkpt lat="45.61530295649781" lon="10.8281219948344"><ele>316.0</ele><time>2026-04-01T13:49:39Z</time></trkpt><trkpt lat="45.61525263976324" lon="10.828016439306138"><ele>316.0</ele><time>2026-04-01T13:49:40Z</time></trkpt><trkpt lat="45.61520592274104" lon="10.827898738605866"><ele>316.0</ele><time>2026-04-01T13:49:41Z</time></trkpt><trkpt lat="45.61515719032715" lon="10.827758740210449"><ele>316.0</ele><time>2026-04-01T13:49:42Z</time></trkpt><trkpt lat="45.615113005330436" lon="10.827639782237535"><ele>315.0</ele><time>2026-04-01T13:49:43Z</time></trkpt><trkpt lat="45.615061355658234" lon="10.827528528703612"><ele>314.0</ele><time>2026-04-01T13:49:44Z</time></trkpt><trkpt lat="45.61500152783265" lon="10.827407553615267"><ele>313.0</ele><time>2026-04-01T13:49:45Z</time></trkpt><trkpt lat="45.61493052298354" lon="10.827266771725014"><ele>312.0</ele><time>2026-04-01T13:49:46Z</time></trkpt><trkpt lat="45.61484448178137" lon="10.82712854193507"><ele>311.0</ele><time>2026-04-01T13:49:47Z</time></trkpt><trkpt lat="45.61476629956405" lon="10.826992895093248"><ele>311.0</ele><time>2026-04-01T13:49:48Z</time></trkpt><trkpt lat="45.614691580584854" lon="10.826874554464524"><ele>311.0</ele><time>2026-04-01T13:49:49Z</time></trkpt><trkpt lat="45.61462584428656" lon="10.82677919812438"><ele>311.0</ele><time>2026-04-01T13:49:50Z</time></trkpt><trkpt lat="45.614559989738176" lon="10.826687456406786"><ele>311.0</ele><time>2026-04-01T13:49:51Z</time></trkpt><trkpt lat="45.614497237345155" lon="10.826610312807125"><ele>311.0</ele><time>2026-04-01T13:49:52Z</time></trkpt><trkpt lat="45.614426303539865" lon="10.826530676251576"><ele>311.8</ele><time>2026-04-01T13:49:53Z</time></trkpt><trkpt lat="45.61433414589802" lon="10.826440234720833"><ele>312.6</ele><time>2026-04-01T13:49:54Z</time></trkpt><trkpt lat="45.61424138965029" lon="10.82634903743543"><ele>313.4</ele><time>2026-04-01T13:49:55Z</time></trkpt><trkpt lat="45.614156608854316" lon="10.826278294817088"><ele>314.2</ele><time>2026-04-01T13:49:56Z</time></trkpt><trkpt lat="45.6140718797823" lon="10.826212245244488"><ele>315.0</ele><time>2026-04-01T13:49:57Z</time></trkpt><trkpt lat="45.61397529374623" lon="10.826127628064999"><ele>315.0</ele><time>2026-04-01T13:49:58Z</time></trkpt><trkpt lat="45.61386440688503" lon="10.82603969002714"><ele>315.0</ele><time>2026-04-01T13:49:59Z</time></trkpt><trkpt lat="45.61375055632647" lon="10.82596053708021"><ele>315.0</ele><time>2026-04-01T13:50:00Z</time></trkpt><trkpt lat="45.61365166825868" lon="10.82588773880147"><ele>315.0</ele><time>2026-04-01T13:50:01Z</time></trkpt><trkpt lat="45.61355915085155" lon="10.825814205709868"><ele>313.5</ele><time>2026-04-01T13:50:02Z</time></trkpt><trkpt lat="45.61345409453218" lon="10.825763409815819"><ele>312.0</ele><time>2026-04-01T13:50:03Z</time></trkpt><trkpt lat="45.613332656301836" lon="10.825738164469618"><ele>310.5</ele><time>2026-04-01T13:50:04Z</time></trkpt><trkpt lat="45.61322480180828" lon="10.825731439601899"><ele>309.0</ele><time>2026-04-01T13:50:05Z</time></trkpt><trkpt lat="45.61311618932604" lon="10.825717791845232"><ele>309.0</ele><time>2026-04-01T13:50:06Z</time></trkpt><trkpt lat="45.61301032340359" lon="10.825704078362545"><ele>309.0</ele><time>2026-04-01T13:50:07Z</time></trkpt><trkpt lat="45.612912055978455" lon="10.825687044294066"><ele>309.0</ele><time>2026-04-01T13:50:08Z</time></trkpt><trkpt lat="45.612817925943595" lon="10.825658069750112"><ele>309.0</ele><time>2026-04-01T13:50:09Z</time></trkpt><trkpt lat="45.612712764411356" lon="10.825619933764841"><ele>309.0</ele><time>2026-04-01T13:50:10Z</time></trkpt><trkpt lat="45.61259392542222" lon="10.825576096593602"><ele>308.8</ele><time>2026-04-01T13:50:11Z</time></trkpt><trkpt lat="45.612473331788586" lon="10.825542190623935"><ele>308.59999999999997</ele><time>2026-04-01T13:50:12Z</time></trkpt><trkpt lat="45.612369934159055" lon="10.825503906581545"><ele>308.4</ele><time>2026-04-01T13:50:13Z</time></trkpt><trkpt lat="45.6122795630123" lon="10.825464232536083"><ele>308.2</ele><time>2026-04-01T13:50:14Z</time></trkpt><trkpt lat="45.612192596170885" lon="10.82542167976647"><ele>308.0</ele><time>2026-04-01T13:50:15Z</time></trkpt><trkpt lat="45.6121045436317" lon="10.825384838293994"><ele>308.0</ele><time>2026-04-01T13:50:16Z</time></trkpt><trkpt lat="45.6120147951626" lon="10.82535060701248"><ele>308.0</ele><time>2026-04-01T13:50:17Z</time></trkpt><trkpt lat="45.61192990836009" lon="10.82532061659438"><ele>308.0</ele><time>2026-04-01T13:50:18Z</time></trkpt><trkpt lat="45.6118558000551" lon="10.825295016379616"><ele>308.0</ele><time>2026-04-01T13:50:19Z</time></trkpt><trkpt lat="45.6117937966312" lon="10.825272862179693"><ele>308.0</ele><time>2026-04-01T13:50:20Z</time></trkpt><trkpt lat="45.61169030741262" lon="10.825300042692165"><ele>308.0</ele><time>2026-04-01T13:50:22Z</time></trkpt><trkpt lat="45.611606285362896" lon="10.825459627361836"><ele>307.6666666666667</ele><time>2026-04-01T13:50:24Z</time></trkpt><trkpt lat="45.611580033576814" lon="10.825579465589643"><ele>307.33333333333337</ele><time>2026-04-01T13:50:24.999Z</time></trkpt><trkpt lat="45.61152505078658" lon="10.825671990732765"><ele>307.0</ele><time>2026-04-01T13:50:25.999Z</time></trkpt><trkpt lat="45.611457878785714" lon="10.825774177394582"><ele>306.6666666666667</ele><time>2026-04-01T13:50:26.999Z</time></trkpt><trkpt lat="45.611402570494526" lon="10.82584266482881"><ele>306.3333333333333</ele><time>2026-04-01T13:50:27.999Z</time></trkpt><trkpt lat="45.61135560706379" lon="10.825921222144395"><ele>306.0</ele><time>2026-04-01T13:50:28.999Z</time></trkpt><trkpt lat="45.611298198263064" lon="10.825975648722041"><ele>306.1666666666667</ele><time>2026-04-01T13:50:29.999Z</time></trkpt><trkpt lat="45.61120740320341" lon="10.825988119229029"><ele>306.3333333333333</ele><time>2026-04-01T13:50:33.999Z</time></trkpt><trkpt lat="45.61108595294718" lon="10.82604825838721"><ele>306.5</ele><time>2026-04-01T13:50:35.999Z</time></trkpt><trkpt lat="45.61100110818045" lon="10.826064016640611"><ele>306.66666666666663</ele><time>2026-04-01T13:50:36.999Z</time></trkpt><trkpt lat="45.61093534171873" lon="10.826066780743302"><ele>306.8333333333333</ele><time>2026-04-01T13:50:37.999Z</time></trkpt><trkpt lat="45.61087311797783" lon="10.826099891083112"><ele>307.0</ele><time>2026-04-01T13:50:38.999Z</time></trkpt><trkpt lat="45.61075576912643" lon="10.826124144829578"><ele>307.0</ele><time>2026-04-01T13:50:40.999Z</time></trkpt><trkpt lat="45.61065679240745" lon="10.826216045768037"><ele>307.0</ele><time>2026-04-01T13:50:42.999Z</time></trkpt><trkpt lat="45.610557606277766" lon="10.82624329689595"><ele>307.0</ele><time>2026-04-01T13:50:44.999Z</time></trkpt><trkpt lat="45.610465939607465" lon="10.826328951467737"><ele>307.0</ele><time>2026-04-01T13:50:46.999Z</time></trkpt><trkpt lat="45.61039902118848" lon="10.826375410558592"><ele>307.0</ele><time>2026-04-01T13:50:48.999Z</time></trkpt><trkpt lat="45.6103213521578" lon="10.826509285011912"><ele>308.5</ele><time>2026-04-01T13:50:50.999Z</time></trkpt><trkpt lat="45.610278359698434" lon="10.82658496624782"><ele>310.0</ele><time>2026-04-01T13:50:51.999Z</time></trkpt><trkpt lat="45.61022923944824" lon="10.826666026409194"><ele>311.5</ele><time>2026-04-01T13:50:52.999Z</time></trkpt><trkpt lat="45.61019688361632" lon="10.826753067318403"><ele>313.0</ele><time>2026-04-01T13:50:53.999Z</time></trkpt><trkpt lat="45.61012943484699" lon="10.826887151641031"><ele>314.5</ele><time>2026-04-01T13:50:55.999Z</time></trkpt><trkpt lat="45.610083613384255" lon="10.826960994737462"><ele>316.0</ele><time>2026-04-01T13:50:56.999Z</time></trkpt><trkpt lat="45.61003760688428" lon="10.827050523736052"><ele>316.0</ele><time>2026-04-01T13:50:57.999Z</time></trkpt><trkpt lat="45.60996566911221" lon="10.827151879136531"><ele>316.0</ele><time>2026-04-01T13:50:58.999Z</time></trkpt><trkpt lat="45.609889655093724" lon="10.827208460748961"><ele>316.0</ele><time>2026-04-01T13:50:59.999Z</time></trkpt><trkpt lat="45.60980559445268" lon="10.827254465744563"><ele>316.0</ele><time>2026-04-01T13:51:00.999Z</time></trkpt><trkpt lat="45.60971547530455" lon="10.82730106548104"><ele>316.0</ele><time>2026-04-01T13:51:01.999Z</time></trkpt><trkpt lat="45.609641392771266" lon="10.827348803322414"><ele>316.0</ele><time>2026-04-01T13:51:02.999Z</time></trkpt><trkpt lat="45.60950630692285" lon="10.827338024750546"><ele>316.0</ele><time>2026-04-01T13:51:04.999Z</time></trkpt><trkpt lat="45.60942166122669" lon="10.827297373358027"><ele>316.0</ele><time>2026-04-01T13:51:05.999Z</time></trkpt><trkpt lat="45.60934152733125" lon="10.827243907122492"><ele>316.0</ele><time>2026-04-01T13:51:06.999Z</time></trkpt><trkpt lat="45.609247012896546" lon="10.827200032532422"><ele>316.0</ele><time>2026-04-01T13:51:07.999Z</time></trkpt><trkpt lat="45.609148708593935" lon="10.827170912324334"><ele>318.0</ele><time>2026-04-01T13:51:08.999Z</time></trkpt><trkpt lat="45.60907163036612" lon="10.827158226947372"><ele>320.0</ele><time>2026-04-01T13:51:09.999Z</time></trkpt><trkpt lat="45.6089928817225" lon="10.82716006614888"><ele>322.0</ele><time>2026-04-01T13:51:10.999Z</time></trkpt><trkpt lat="45.60890188268245" lon="10.827151779236182"><ele>324.0</ele><time>2026-04-01T13:51:11.999Z</time></trkpt><trkpt lat="45.608824939663066" lon="10.827144241465989"><ele>326.0</ele><time>2026-04-01T13:51:12.999Z</time></trkpt><trkpt lat="45.608705631946236" lon="10.827144034080076"><ele>328.0</ele><time>2026-04-01T13:51:14.999Z</time></trkpt><trkpt lat="45.608601485142636" lon="10.82713787924034"><ele>329.16666666666663</ele><time>2026-04-01T13:51:16.999Z</time></trkpt><trkpt lat="45.60853529276989" lon="10.827137154493373"><ele>330.3333333333333</ele><time>2026-04-01T13:51:18.999Z</time></trkpt><trkpt lat="45.608469772532594" lon="10.827111194179018"><ele>331.5</ele><time>2026-04-01T13:51:33.998Z</time></trkpt><trkpt lat="45.60836379913955" lon="10.827086690164553"><ele>332.6666666666667</ele><time>2026-04-01T13:51:40Z</time></trkpt><trkpt lat="45.608261624117674" lon="10.827150674468763"><ele>333.83333333333337</ele><time>2026-04-01T13:51:42Z</time></trkpt><trkpt lat="45.60819857768623" lon="10.827153474761003"><ele>335.0</ele><time>2026-04-01T13:51:44Z</time></trkpt><trkpt lat="45.608105876983835" lon="10.827146521169725"><ele>335.0</ele><time>2026-04-01T13:52:06Z</time></trkpt><trkpt lat="45.60803329158761" lon="10.827123010101253"><ele>335.0</ele><time>2026-04-01T13:52:07Z</time></trkpt><trkpt lat="45.607945850099924" lon="10.827092674182168"><ele>335.0</ele><time>2026-04-01T13:52:08Z</time></trkpt><trkpt lat="45.60785906822332" lon="10.827065020917551"><ele>335.0</ele><time>2026-04-01T13:52:09Z</time></trkpt><trkpt lat="45.60775192133464" lon="10.827041826200185"><ele>335.0</ele><time>2026-04-01T13:52:10Z</time></trkpt><trkpt lat="45.60763634703509" lon="10.827021789305393"><ele>335.4</ele><time>2026-04-01T13:52:11Z</time></trkpt><trkpt lat="45.607527661649655" lon="10.827016000060434"><ele>335.8</ele><time>2026-04-01T13:52:12Z</time></trkpt><trkpt lat="45.60742780209069" lon="10.827003063464408"><ele>336.20000000000005</ele><time>2026-04-01T13:52:13Z</time></trkpt><trkpt lat="45.607327228783156" lon="10.826975070572455"><ele>336.6</ele><time>2026-04-01T13:52:14Z</time></trkpt><trkpt lat="45.607232229610275" lon="10.826919936771947"><ele>337.0</ele><time>2026-04-01T13:52:15Z</time></trkpt><trkpt lat="45.60713582320879" lon="10.826854700518895"><ele>334.5</ele><time>2026-04-01T13:52:16Z</time></trkpt><trkpt lat="45.60702541751357" lon="10.82678386243404"><ele>332.0</ele><time>2026-04-01T13:52:17Z</time></trkpt><trkpt lat="45.606908210044374" lon="10.826722339874083"><ele>329.5</ele><time>2026-04-01T13:52:18Z</time></trkpt><trkpt lat="45.60679532153899" lon="10.826660456523529"><ele>327.0</ele><time>2026-04-01T13:52:19Z</time></trkpt><trkpt lat="45.60668480468528" lon="10.826593965169502"><ele>326.6</ele><time>2026-04-01T13:52:20Z</time></trkpt><trkpt lat="45.606575019370474" lon="10.826535885588182"><ele>326.20000000000005</ele><time>2026-04-01T13:52:21Z</time></trkpt><trkpt lat="45.60648517071751" lon="10.826487908791227"><ele>325.8</ele><time>2026-04-01T13:52:22Z</time></trkpt><trkpt lat="45.60639207058924" lon="10.826439142541098"><ele>325.4</ele><time>2026-04-01T13:52:23Z</time></trkpt><trkpt lat="45.60628594764004" lon="10.82638777583773"><ele>325.0</ele><time>2026-04-01T13:52:24Z</time></trkpt><trkpt lat="45.60617072813411" lon="10.826330510032085"><ele>324.2</ele><time>2026-04-01T13:52:25Z</time></trkpt><trkpt lat="45.606047738620646" lon="10.826275939473268"><ele>323.4</ele><time>2026-04-01T13:52:26Z</time></trkpt><trkpt lat="45.60593542302751" lon="10.826219218393344"><ele>322.6</ele><time>2026-04-01T13:52:27Z</time></trkpt><trkpt lat="45.6058548954539" lon="10.826149884431787"><ele>321.8</ele><time>2026-04-01T13:52:27.999Z</time></trkpt><trkpt lat="45.60579104697625" lon="10.826076263333649"><ele>321.0</ele><time>2026-04-01T13:52:28.999Z</time></trkpt><trkpt lat="45.60572379812598" lon="10.826018848801466"><ele>321.0</ele><time>2026-04-01T13:52:29.999Z</time></trkpt><trkpt lat="45.605649090100755" lon="10.826001799977298"><ele>321.0</ele><time>2026-04-01T13:52:30.999Z</time></trkpt><trkpt lat="45.605544691914766" lon="10.825985173276816"><ele>321.0</ele><time>2026-04-01T13:52:31.999Z</time></trkpt><trkpt lat="45.605437897504395" lon="10.825999373667157"><ele>321.0</ele><time>2026-04-01T13:52:32.999Z</time></trkpt><trkpt lat="45.605339206415934" lon="10.826034028457704"><ele>321.0</ele><time>2026-04-01T13:52:33.999Z</time></trkpt><trkpt lat="45.60524734338782" lon="10.826127916616057"><ele>319.5</ele><time>2026-04-01T13:52:34.999Z</time></trkpt><trkpt lat="45.6051682863345" lon="10.826266767290594"><ele>318.0</ele><time>2026-04-01T13:52:35.999Z</time></trkpt><trkpt lat="45.60511170852649" lon="10.826364653630952"><ele>316.5</ele><time>2026-04-01T13:52:36.999Z</time></trkpt><trkpt lat="45.60506201586297" lon="10.826433638217537"><ele>315.0</ele><time>2026-04-01T13:52:37.999Z</time></trkpt><trkpt lat="45.60499673525025" lon="10.826453797133201"><ele>313.5</ele><time>2026-04-01T13:52:38.999Z</time></trkpt><trkpt lat="45.604927870607014" lon="10.826441565439103"><ele>312.0</ele><time>2026-04-01T13:52:39.999Z</time></trkpt><trkpt lat="45.6048321271552" lon="10.826452971673087"><ele>312.0</ele><time>2026-04-01T13:52:40.999Z</time></trkpt><trkpt lat="45.60473316968344" lon="10.826488446329439"><ele>312.0</ele><time>2026-04-01T13:52:41.999Z</time></trkpt><trkpt lat="45.60465949499833" lon="10.826568150692754"><ele>312.0</ele><time>2026-04-01T13:52:42.999Z</time></trkpt><trkpt lat="45.6046003948354" lon="10.826658134598347"><ele>312.0</ele><time>2026-04-01T13:52:43.999Z</time></trkpt><trkpt lat="45.60454862450126" lon="10.826747226078531"><ele>312.0</ele><time>2026-04-01T13:52:44.999Z</time></trkpt><trkpt lat="45.604484378234964" lon="10.826839710941107"><ele>312.6</ele><time>2026-04-01T13:52:45.999Z</time></trkpt><trkpt lat="45.60440857135626" lon="10.8269384273145"><ele>313.2</ele><time>2026-04-01T13:52:46.999Z</time></trkpt><trkpt lat="45.60432642534935" lon="10.827035695493663"><ele>313.8</ele><time>2026-04-01T13:52:47.999Z</time></trkpt><trkpt lat="45.604259981979226" lon="10.82712923520574"><ele>314.4</ele><time>2026-04-01T13:52:48.999Z</time></trkpt><trkpt lat="45.6041783991342" lon="10.827165658039481"><ele>315.0</ele><time>2026-04-01T13:52:49.999Z</time></trkpt><trkpt lat="45.60410488953619" lon="10.827181171162358"><ele>315.0</ele><time>2026-04-01T13:52:50.999Z</time></trkpt><trkpt lat="45.60402713325066" lon="10.827203224031205"><ele>315.0</ele><time>2026-04-01T13:52:51.999Z</time></trkpt><trkpt lat="45.60394607491314" lon="10.827224163734433"><ele>315.0</ele><time>2026-04-01T13:52:52.999Z</time></trkpt><trkpt lat="45.60385511655149" lon="10.82723191132865"><ele>315.0</ele><time>2026-04-01T13:52:53.999Z</time></trkpt><trkpt lat="45.603758255489424" lon="10.82722730714434"><ele>315.0</ele><time>2026-04-01T13:52:54.999Z</time></trkpt><trkpt lat="45.603660565337535" lon="10.827188448215319"><ele>315.2</ele><time>2026-04-01T13:52:55.999Z</time></trkpt><trkpt lat="45.6035478995096" lon="10.82713232535552"><ele>315.4</ele><time>2026-04-01T13:52:56.999Z</time></trkpt><trkpt lat="45.603436618180055" lon="10.827064518772652"><ele>315.6</ele><time>2026-04-01T13:52:57.999Z</time></trkpt><trkpt lat="45.603341995401514" lon="10.827017001466734"><ele>315.8</ele><time>2026-04-01T13:52:58.999Z</time></trkpt><trkpt lat="45.60324171871367" lon="10.826990665431508"><ele>316.0</ele><time>2026-04-01T13:52:59.999Z</time></trkpt><trkpt lat="45.60315744135001" lon="10.82691469956609"><ele>316.0</ele><time>2026-04-01T13:53:00.999Z</time></trkpt><trkpt lat="45.603065775766844" lon="10.826815970734028"><ele>316.0</ele><time>2026-04-01T13:53:01.999Z</time></trkpt><trkpt lat="45.60298796193999" lon="10.826687498827228"><ele>316.0</ele><time>2026-04-01T13:53:03.999Z</time></trkpt><trkpt lat="45.60291609913245" lon="10.826576761287603"><ele>316.0</ele><time>2026-04-01T13:53:05.999Z</time></trkpt><trkpt lat="45.602814085681736" lon="10.826574204566358"><ele>316.0</ele><time>2026-04-01T13:53:06.999Z</time></trkpt><trkpt lat="45.60274822699942" lon="10.826492402146016"><ele>314.0</ele><time>2026-04-01T13:53:07.999Z</time></trkpt><trkpt lat="45.60268983272949" lon="10.826410054280716"><ele>312.0</ele><time>2026-04-01T13:53:08.999Z</time></trkpt><trkpt lat="45.602617726076694" lon="10.826314649677624"><ele>310.0</ele><time>2026-04-01T13:53:09.999Z</time></trkpt><trkpt lat="45.60254369353746" lon="10.82620390516585"><ele>308.0</ele><time>2026-04-01T13:53:10.999Z</time></trkpt><trkpt lat="45.602475446930285" lon="10.826085493688606"><ele>306.0</ele><time>2026-04-01T13:53:11.999Z</time></trkpt><trkpt lat="45.60240225019014" lon="10.82597189168895"><ele>304.6</ele><time>2026-04-01T13:53:12.999Z</time></trkpt><trkpt lat="45.60232256616697" lon="10.825869802651196"><ele>303.20000000000005</ele><time>2026-04-01T13:53:13.999Z</time></trkpt><trkpt lat="45.6022464535814" lon="10.825778411302519"><ele>301.79999999999995</ele><time>2026-04-01T13:53:14.999Z</time></trkpt><trkpt lat="45.60217681910252" lon="10.825694118842879"><ele>300.4</ele><time>2026-04-01T13:53:15.999Z</time></trkpt><trkpt lat="45.60210752302669" lon="10.825602092148932"><ele>299.0</ele><time>2026-04-01T13:53:16.999Z</time></trkpt><trkpt lat="45.60203492769165" lon="10.825481046367132"><ele>298.25</ele><time>2026-04-01T13:53:17.999Z</time></trkpt><trkpt lat="45.60196097315224" lon="10.825351673239776"><ele>297.5</ele><time>2026-04-01T13:53:18.999Z</time></trkpt><trkpt lat="45.601879479052926" lon="10.825218802734112"><ele>296.75</ele><time>2026-04-01T13:53:19.999Z</time></trkpt><trkpt lat="45.60179988526115" lon="10.825089823723088"><ele>296.0</ele><time>2026-04-01T13:53:20.999Z</time></trkpt><trkpt lat="45.60172162810074" lon="10.82498365963265"><ele>296.0</ele><time>2026-04-01T13:53:21.999Z</time></trkpt><trkpt lat="45.60164643174014" lon="10.824874285539169"><ele>296.0</ele><time>2026-04-01T13:53:22.999Z</time></trkpt><trkpt lat="45.60156863385327" lon="10.824767879895187"><ele>296.0</ele><time>2026-04-01T13:53:23.999Z</time></trkpt><trkpt lat="45.601494433009435" lon="10.824664105986228"><ele>296.0</ele><time>2026-04-01T13:53:24.999Z</time></trkpt><trkpt lat="45.60142180886456" lon="10.824564952798504"><ele>296.0</ele><time>2026-04-01T13:53:25.999Z</time></trkpt><trkpt lat="45.60133973293531" lon="10.82447695250078"><ele>296.0</ele><time>2026-04-01T13:53:26.999Z</time></trkpt><trkpt lat="45.60125710206737" lon="10.824415511374383"><ele>296.0</ele><time>2026-04-01T13:53:27.999Z</time></trkpt><trkpt lat="45.60116904403265" lon="10.824361751416589"><ele>296.0</ele><time>2026-04-01T13:53:28.999Z</time></trkpt><trkpt lat="45.6010831740112" lon="10.824302228967397"><ele>296.0</ele><time>2026-04-01T13:53:29.999Z</time></trkpt><trkpt lat="45.60098795170735" lon="10.824250034333252"><ele>296.0</ele><time>2026-04-01T13:53:30.999Z</time></trkpt><trkpt lat="45.600874270204365" lon="10.82417384303891"><ele>294.75</ele><time>2026-04-01T13:53:31.999Z</time></trkpt><trkpt lat="45.60074681517876" lon="10.82409790337704"><ele>293.5</ele><time>2026-04-01T13:53:32.999Z</time></trkpt><trkpt lat="45.60063086380066" lon="10.824026908954691"><ele>292.25</ele><time>2026-04-01T13:53:33.999Z</time></trkpt><trkpt lat="45.60052595380749" lon="10.823962001945633"><ele>291.0</ele><time>2026-04-01T13:53:34.999Z</time></trkpt><trkpt lat="45.60042603440708" lon="10.823877342595601"><ele>291.5</ele><time>2026-04-01T13:53:35.999Z</time></trkpt><trkpt lat="45.600321981842214" lon="10.823805883174005"><ele>292.0</ele><time>2026-04-01T13:53:36.998Z</time></trkpt><trkpt lat="45.60021292155334" lon="10.823750348989941"><ele>292.5</ele><time>2026-04-01T13:53:37.998Z</time></trkpt><trkpt lat="45.60010551683755" lon="10.823682518660734"><ele>293.0</ele><time>2026-04-01T13:53:38.998Z</time></trkpt><trkpt lat="45.60000038116001" lon="10.823624916595666"><ele>293.0</ele><time>2026-04-01T13:53:39.998Z</time></trkpt><trkpt lat="45.599909636381994" lon="10.823566166247089"><ele>293.0</ele><time>2026-04-01T13:53:40.998Z</time></trkpt><trkpt lat="45.5998200409184" lon="10.823502179484187"><ele>293.0</ele><time>2026-04-01T13:53:41.998Z</time></trkpt><trkpt lat="45.599733520847" lon="10.82344601677448"><ele>293.0</ele><time>2026-04-01T13:53:42.998Z</time></trkpt><trkpt lat="45.59966014609954" lon="10.823382426035627"><ele>293.0</ele><time>2026-04-01T13:53:43.998Z</time></trkpt><trkpt lat="45.59959427499454" lon="10.823295563773202"><ele>291.6</ele><time>2026-04-01T13:53:44.998Z</time></trkpt><trkpt lat="45.59951505390557" lon="10.82328654226557"><ele>290.20000000000005</ele><time>2026-04-01T13:53:46Z</time></trkpt><trkpt lat="45.599430601144135" lon="10.823242338710005"><ele>288.8</ele><time>2026-04-01T13:53:47Z</time></trkpt><trkpt lat="45.599329898593226" lon="10.82322196495431"><ele>287.40000000000003</ele><time>2026-04-01T13:53:48Z</time></trkpt><trkpt lat="45.59920498467054" lon="10.823195443879252"><ele>286.0</ele><time>2026-04-01T13:53:49Z</time></trkpt><trkpt lat="45.59909242975797" lon="10.823171546803419"><ele>286.0</ele><time>2026-04-01T13:53:50Z</time></trkpt><trkpt lat="45.5989983006461" lon="10.823149199698403"><ele>286.0</ele><time>2026-04-01T13:53:51Z</time></trkpt><trkpt lat="45.59889680342653" lon="10.823120372904414"><ele>286.0</ele><time>2026-04-01T13:53:52Z</time></trkpt><trkpt lat="45.59878362731997" lon="10.823104692835695"><ele>286.0</ele><time>2026-04-01T13:53:53Z</time></trkpt><trkpt lat="45.59867829005749" lon="10.82306720364817"><ele>286.0</ele><time>2026-04-01T13:53:54Z</time></trkpt><trkpt lat="45.59859477169867" lon="10.823007437174653"><ele>286.6</ele><time>2026-04-01T13:53:55Z</time></trkpt><trkpt lat="45.59850056884527" lon="10.82296755761185"><ele>287.20000000000005</ele><time>2026-04-01T13:53:56Z</time></trkpt><trkpt lat="45.598389018109906" lon="10.822948882433295"><ele>287.79999999999995</ele><time>2026-04-01T13:53:57Z</time></trkpt><trkpt lat="45.59827955991158" lon="10.822918446040164"><ele>288.4</ele><time>2026-04-01T13:53:58Z</time></trkpt><trkpt lat="45.59817083343129" lon="10.822897778060808"><ele>289.0</ele><time>2026-04-01T13:53:59Z</time></trkpt><trkpt lat="45.59805419618968" lon="10.822882544355515"><ele>289.0</ele><time>2026-04-01T13:54:00Z</time></trkpt><trkpt lat="45.59794871943565" lon="10.822844507379068"><ele>289.0</ele><time>2026-04-01T13:54:01Z</time></trkpt><trkpt lat="45.59783547662352" lon="10.822850857543571"><ele>289.0</ele><time>2026-04-01T13:54:02Z</time></trkpt><trkpt lat="45.59771749641285" lon="10.822808770261013"><ele>289.0</ele><time>2026-04-01T13:54:03Z</time></trkpt><trkpt lat="45.59760797047303" lon="10.822731840901717"><ele>287.8</ele><time>2026-04-01T13:54:04Z</time></trkpt><trkpt lat="45.597491001591166" lon="10.822674221342055"><ele>286.59999999999997</ele><time>2026-04-01T13:54:05Z</time></trkpt><trkpt lat="45.597383689914075" lon="10.82262473734013"><ele>285.4</ele><time>2026-04-01T13:54:06Z</time></trkpt><trkpt lat="45.59727850208476" lon="10.822597879235856"><ele>284.2</ele><time>2026-04-01T13:54:07Z</time></trkpt><trkpt lat="45.59718016617771" lon="10.822560306236443"><ele>283.0</ele><time>2026-04-01T13:54:08Z</time></trkpt><trkpt lat="45.59709029219393" lon="10.822479440687799"><ele>281.0</ele><time>2026-04-01T13:54:09Z</time></trkpt><trkpt lat="45.59700666561476" lon="10.822419474593955"><ele>279.0</ele><time>2026-04-01T13:54:10Z</time></trkpt><trkpt lat="45.59693372682957" lon="10.822296814360294"><ele>277.0</ele><time>2026-04-01T13:54:11Z</time></trkpt><trkpt lat="45.59689080917386" lon="10.822194240908754"><ele>275.0</ele><time>2026-04-01T13:54:12Z</time></trkpt><trkpt lat="45.59684498965289" lon="10.822121363857738"><ele>273.0</ele><time>2026-04-01T13:54:13Z</time></trkpt><trkpt lat="45.59679347262963" lon="10.822013792577334"><ele>273.0</ele><time>2026-04-01T13:54:16Z</time></trkpt><trkpt lat="45.59675336005133" lon="10.82183624007437"><ele>273.0</ele><time>2026-04-01T13:54:20Z</time></trkpt><trkpt lat="45.59668016721925" lon="10.821799577523942"><ele>273.0</ele><time>2026-04-01T13:54:22Z</time></trkpt><trkpt lat="45.59660853482643" lon="10.821745128099645"><ele>273.0</ele><time>2026-04-01T13:54:24Z</time></trkpt><trkpt lat="45.596501706222526" lon="10.821675345141267"><ele>273.0</ele><time>2026-04-01T13:54:25Z</time></trkpt><trkpt lat="45.59641528599981" lon="10.8216657444174"><ele>272.25</ele><time>2026-04-01T13:54:26Z</time></trkpt><trkpt lat="45.59634292023929" lon="10.82166099879361"><ele>271.5</ele><time>2026-04-01T13:54:27Z</time></trkpt><trkpt lat="45.59623075610417" lon="10.821607728975247"><ele>270.75</ele><time>2026-04-01T13:54:29Z</time></trkpt><trkpt lat="45.596078606156595" lon="10.82153010709518"><ele>270.0</ele><time>2026-04-01T13:54:31Z</time></trkpt><trkpt lat="45.595979407686485" lon="10.821494265841707"><ele>268.5</ele><time>2026-04-01T13:54:32Z</time></trkpt><trkpt lat="45.59588035719826" lon="10.821479134768909"><ele>267.0</ele><time>2026-04-01T13:54:32.999Z</time></trkpt><trkpt lat="45.59552354785881" lon="10.822004600341904"><ele>267.0</ele><time>2026-04-01T13:54:34.999Z</time></trkpt><trkpt lat="45.5954220747855" lon="10.821985540637833"><ele>267.0</ele><time>2026-04-01T13:54:35.999Z</time></trkpt><trkpt lat="45.59532733412593" lon="10.821994112361182"><ele>267.0</ele><time>2026-04-01T13:54:36.999Z</time></trkpt><trkpt lat="45.59525658887683" lon="10.82203230447592"><ele>267.0</ele><time>2026-04-01T13:54:37.999Z</time></trkpt><trkpt lat="45.59517127682805" lon="10.822061758708402"><ele>267.0</ele><time>2026-04-01T13:54:38.999Z</time></trkpt><trkpt lat="45.595083090825035" lon="10.822093156691498"><ele>264.8</ele><time>2026-04-01T13:54:39.999Z</time></trkpt><trkpt lat="45.59500029507505" lon="10.822105635788041"><ele>262.6</ele><time>2026-04-01T13:54:40.999Z</time></trkpt><trkpt lat="45.59491460411792" lon="10.822095902189083"><ele>260.40000000000003</ele><time>2026-04-01T13:54:41.999Z</time></trkpt><trkpt lat="45.5948100319539" lon="10.822060889098566"><ele>258.2</ele><time>2026-04-01T13:54:42.999Z</time></trkpt><trkpt lat="45.5946963079223" lon="10.82201830817635"><ele>256.0</ele><time>2026-04-01T13:54:43.999Z</time></trkpt><trkpt lat="45.59457480519422" lon="10.821985634124525"><ele>254.20000000000002</ele><time>2026-04-01T13:54:44.999Z</time></trkpt><trkpt lat="45.5944686045653" lon="10.821966780531973"><ele>252.40000000000003</ele><time>2026-04-01T13:54:45.999Z</time></trkpt><trkpt lat="45.59436915644065" lon="10.82197191623561"><ele>250.6</ele><time>2026-04-01T13:54:46.999Z</time></trkpt><trkpt lat="45.594265992300656" lon="10.821984112399354"><ele>248.8</ele><time>2026-04-01T13:54:47.999Z</time></trkpt><trkpt lat="45.59416214752744" lon="10.821999352993702"><ele>247.0</ele><time>2026-04-01T13:54:48.999Z</time></trkpt><trkpt lat="45.59405659909878" lon="10.82202804845708"><ele>247.0</ele><time>2026-04-01T13:54:49.999Z</time></trkpt><trkpt lat="45.5939547707958" lon="10.822050080316238"><ele>247.0</ele><time>2026-04-01T13:54:50.999Z</time></trkpt><trkpt lat="45.59384886475371" lon="10.822076731946673"><ele>247.0</ele><time>2026-04-01T13:54:51.999Z</time></trkpt><trkpt lat="45.59375881287085" lon="10.822090045085208"><ele>247.0</ele><time>2026-04-01T13:54:52.999Z</time></trkpt><trkpt lat="45.59367583883528" lon="10.822100167094169"><ele>247.0</ele><time>2026-04-01T13:54:53.999Z</time></trkpt><trkpt lat="45.59360652838169" lon="10.82212612647789"><ele>246.0</ele><time>2026-04-01T13:54:54.999Z</time></trkpt><trkpt lat="45.59353494703972" lon="10.822149649352962"><ele>245.0</ele><time>2026-04-01T13:54:55.999Z</time></trkpt><trkpt lat="45.59346756252856" lon="10.822160512114552"><ele>244.0</ele><time>2026-04-01T13:54:56.999Z</time></trkpt><trkpt lat="45.593331944520884" lon="10.822140269589744"><ele>243.0</ele><time>2026-04-01T13:54:58.999Z</time></trkpt><trkpt lat="45.59323403600203" lon="10.822118735138371"><ele>242.0</ele><time>2026-04-01T13:54:59.999Z</time></trkpt><trkpt lat="45.59312854488683" lon="10.822103487350455"><ele>242.0</ele><time>2026-04-01T13:55:00.999Z</time></trkpt><trkpt lat="45.59302035316273" lon="10.822103786948553"><ele>242.0</ele><time>2026-04-01T13:55:01.999Z</time></trkpt><trkpt lat="45.59291459706756" lon="10.822114033607619"><ele>242.0</ele><time>2026-04-01T13:55:02.999Z</time></trkpt><trkpt lat="45.59279952627003" lon="10.822137051904635"><ele>242.0</ele><time>2026-04-01T13:55:03.999Z</time></trkpt><trkpt lat="45.59269573828788" lon="10.822178532437174"><ele>242.0</ele><time>2026-04-01T13:55:04.999Z</time></trkpt><trkpt lat="45.59262016594435" lon="10.822203643523446"><ele>242.0</ele><time>2026-04-01T13:55:05.999Z</time></trkpt><trkpt lat="45.59253927772744" lon="10.822227705538594"><ele>242.0</ele><time>2026-04-01T13:55:07.999Z</time></trkpt><trkpt lat="45.59246664176908" lon="10.822212819973657"><ele>242.0</ele><time>2026-04-01T13:55:09.999Z</time></trkpt><trkpt lat="45.59234229043104" lon="10.822149138041805"><ele>242.0</ele><time>2026-04-01T13:55:11.999Z</time></trkpt><trkpt lat="45.59224929230011" lon="10.822140123470696"><ele>242.0</ele><time>2026-04-01T13:55:12.999Z</time></trkpt><trkpt lat="45.59214357238381" lon="10.822137656562395"><ele>242.0</ele><time>2026-04-01T13:55:13.999Z</time></trkpt><trkpt lat="45.5920303396414" lon="10.822139967241288"><ele>242.0</ele><time>2026-04-01T13:55:14.999Z</time></trkpt><trkpt lat="45.59190778496843" lon="10.822126214461372"><ele>242.0</ele><time>2026-04-01T13:55:15.999Z</time></trkpt><trkpt lat="45.59178814227765" lon="10.822107866070176"><ele>242.0</ele><time>2026-04-01T13:55:16.999Z</time></trkpt><trkpt lat="45.59170038940514" lon="10.822103156372934"><ele>242.0</ele><time>2026-04-01T13:55:17.999Z</time></trkpt><trkpt lat="45.591620814858764" lon="10.822120373578288"><ele>241.66666666666669</ele><time>2026-04-01T13:55:18.999Z</time></trkpt><trkpt lat="45.591539091956676" lon="10.822144545628717"><ele>241.33333333333334</ele><time>2026-04-01T13:55:19.999Z</time></trkpt><trkpt lat="45.59146135011557" lon="10.822153927596169"><ele>241.0</ele><time>2026-04-01T13:55:20.999Z</time></trkpt><trkpt lat="45.59138881759209" lon="10.822144854149471"><ele>240.66666666666669</ele><time>2026-04-01T13:55:21.999Z</time></trkpt><trkpt lat="45.59130998971119" lon="10.822121012756671"><ele>240.33333333333334</ele><time>2026-04-01T13:55:22.999Z</time></trkpt><trkpt lat="45.591217230856536" lon="10.82206954809919"><ele>240.0</ele><time>2026-04-01T13:55:23.999Z</time></trkpt><trkpt lat="45.59111332870761" lon="10.822007081516892"><ele>239.75</ele><time>2026-04-01T13:55:24.999Z</time></trkpt><trkpt lat="45.59100661914458" lon="10.821966322906736"><ele>239.5</ele><time>2026-04-01T13:55:25.999Z</time></trkpt><trkpt lat="45.590885704983144" lon="10.821922914106079"><ele>239.25</ele><time>2026-04-01T13:55:26.999Z</time></trkpt><trkpt lat="45.59077442725566" lon="10.821872134100289"><ele>239.0</ele><time>2026-04-01T13:55:27.999Z</time></trkpt><trkpt lat="45.590658682587666" lon="10.821819075136366"><ele>236.2</ele><time>2026-04-01T13:55:28.999Z</time></trkpt><trkpt lat="45.590546161180406" lon="10.821777551931723"><ele>233.39999999999998</ele><time>2026-04-01T13:55:29.999Z</time></trkpt><trkpt lat="45.59043792458264" lon="10.821721413056487"><ele>230.6</ele><time>2026-04-01T13:55:30.999Z</time></trkpt><trkpt lat="45.590331775610956" lon="10.821684595316684"><ele>227.8</ele><time>2026-04-01T13:55:31.999Z</time></trkpt><trkpt lat="45.590235427171564" lon="10.821652124112944"><ele>225.0</ele><time>2026-04-01T13:55:32.999Z</time></trkpt><trkpt lat="45.590142903652485" lon="10.821620941965762"><ele>224.8</ele><time>2026-04-01T13:55:33.999Z</time></trkpt><trkpt lat="45.590056552178986" lon="10.821590798700171"><ele>224.6</ele><time>2026-04-01T13:55:34.999Z</time></trkpt><trkpt lat="45.5899731974953" lon="10.82155907960284"><ele>224.39999999999998</ele><time>2026-04-01T13:55:35.999Z</time></trkpt><trkpt lat="45.58988232200236" lon="10.821518856478418"><ele>224.2</ele><time>2026-04-01T13:55:36.999Z</time></trkpt><trkpt lat="45.58977739985322" lon="10.821517592489794"><ele>224.0</ele><time>2026-04-01T13:55:37.999Z</time></trkpt><trkpt lat="45.58967282616829" lon="10.821517592486176"><ele>224.0</ele><time>2026-04-01T13:55:38.999Z</time></trkpt><trkpt lat="45.58956483116116" lon="10.821532594046612"><ele>223.99999999999997</ele><time>2026-04-01T13:55:39.999Z</time></trkpt><trkpt lat="45.58947302537404" lon="10.821590630427842"><ele>223.99999999999997</ele><time>2026-04-01T13:55:40.999Z</time></trkpt><trkpt lat="45.58937887667177" lon="10.821619664129113"><ele>224.0</ele><time>2026-04-01T13:55:41.998Z</time></trkpt><trkpt lat="45.58928739971297" lon="10.821581262194826"><ele>224.0</ele><time>2026-04-01T13:55:42.998Z</time></trkpt><trkpt lat="45.5891963802795" lon="10.821602131171105"><ele>223.6</ele><time>2026-04-01T13:55:43.998Z</time></trkpt><trkpt lat="45.589104491694926" lon="10.82163561458106"><ele>223.2</ele><time>2026-04-01T13:55:44.998Z</time></trkpt><trkpt lat="45.58901404818425" lon="10.821691037621852"><ele>222.79999999999998</ele><time>2026-04-01T13:55:45.998Z</time></trkpt><trkpt lat="45.588917489085105" lon="10.821723833915335"><ele>222.39999999999998</ele><time>2026-04-01T13:55:46.998Z</time></trkpt><trkpt lat="45.58882386901032" lon="10.821742712980218"><ele>222.0</ele><time>2026-04-01T13:55:47.998Z</time></trkpt><trkpt lat="45.58873568667222" lon="10.821760731923524"><ele>221.33333333333334</ele><time>2026-04-01T13:55:48.998Z</time></trkpt><trkpt lat="45.58864239871466" lon="10.821770587329695"><ele>220.66666666666669</ele><time>2026-04-01T13:55:49.998Z</time></trkpt><trkpt lat="45.588564963072365" lon="10.821746852588081"><ele>220.0</ele><time>2026-04-01T13:55:50.998Z</time></trkpt><trkpt lat="45.588479655737714" lon="10.821731898752462"><ele>219.33333333333334</ele><time>2026-04-01T13:55:52Z</time></trkpt><trkpt lat="45.58838882714337" lon="10.821715600105875"><ele>218.66666666666669</ele><time>2026-04-01T13:55:53Z</time></trkpt><trkpt lat="45.58829560254136" lon="10.821698159277895"><ele>218.0</ele><time>2026-04-01T13:55:54Z</time></trkpt><trkpt lat="45.5882002259919" lon="10.821697661036803"><ele>218.0</ele><time>2026-04-01T13:55:55Z</time></trkpt><trkpt lat="45.58811323265526" lon="10.821664634490404"><ele>218.0</ele><time>2026-04-01T13:55:56Z</time></trkpt><trkpt lat="45.5880165620543" lon="10.821646500389672"><ele>218.0</ele><time>2026-04-01T13:55:57Z</time></trkpt><trkpt lat="45.58791173678391" lon="10.821618490371966"><ele>218.0</ele><time>2026-04-01T13:55:58Z</time></trkpt><trkpt lat="45.587812781106074" lon="10.821590870063241"><ele>218.0</ele><time>2026-04-01T13:55:59Z</time></trkpt><trkpt lat="45.58770181799893" lon="10.821569644073799"><ele>217.4</ele><time>2026-04-01T13:56:00Z</time></trkpt><trkpt lat="45.58760825943248" lon="10.821547568150788"><ele>216.8</ele><time>2026-04-01T13:56:01Z</time></trkpt><trkpt lat="45.587509970119896" lon="10.821548472140972"><ele>216.2</ele><time>2026-04-01T13:56:02Z</time></trkpt><trkpt lat="45.587419898906" lon="10.82152965178695"><ele>215.6</ele><time>2026-04-01T13:56:03Z</time></trkpt><trkpt lat="45.587354828807925" lon="10.821517985020115"><ele>215.0</ele><time>2026-04-01T13:56:04Z</time></trkpt><trkpt lat="45.58733743815691" lon="10.821346118811805"><ele>215.0</ele><time>2026-04-01T13:56:08Z</time></trkpt><trkpt lat="45.58730120894042" lon="10.821199699774636"><ele>215.0</ele><time>2026-04-01T13:56:10Z</time></trkpt><trkpt lat="45.587196928542006" lon="10.821157639853082"><ele>215.0</ele><time>2026-04-01T13:56:12Z</time></trkpt><trkpt lat="45.58710947785196" lon="10.821096888210107"><ele>215.0</ele><time>2026-04-01T13:56:13Z</time></trkpt><trkpt lat="45.58702395033986" lon="10.821045225479294"><ele>215.0</ele><time>2026-04-01T13:56:14Z</time></trkpt><trkpt lat="45.58693534073632" lon="10.820984996264361"><ele>212.50000000000003</ele><time>2026-04-01T13:56:15Z</time></trkpt><trkpt lat="45.58686104501144" lon="10.820930996128025"><ele>210.0</ele><time>2026-04-01T13:56:16Z</time></trkpt><trkpt lat="45.586801280169375" lon="10.820880805937001"><ele>207.5</ele><time>2026-04-01T13:56:17Z</time></trkpt><trkpt lat="45.58676245282295" lon="10.820799119155215"><ele>205.0</ele><time>2026-04-01T13:56:19Z</time></trkpt><trkpt lat="45.586673271648834" lon="10.820720919905083"><ele>202.50000000000003</ele><time>2026-04-01T13:56:24Z</time></trkpt><trkpt lat="45.58666741580002" lon="10.820627990113206"><ele>200.0</ele><time>2026-04-01T13:56:26Z</time></trkpt><trkpt lat="45.58658038933556" lon="10.820633120386933"><ele>200.0</ele><time>2026-04-01T13:56:28Z</time></trkpt><trkpt lat="45.58645220483606" lon="10.820818933362428"><ele>200.0</ele><time>2026-04-01T13:56:29Z</time></trkpt><trkpt lat="45.58635814781697" lon="10.820849493544811"><ele>200.0</ele><time>2026-04-01T13:56:31Z</time></trkpt><trkpt lat="45.58630957649871" lon="10.820966806958891"><ele>200.0</ele><time>2026-04-01T13:56:34Z</time></trkpt><trkpt lat="45.58626385266707" lon="10.821033962026656"><ele>200.0</ele><time>2026-04-01T13:56:36Z</time></trkpt><trkpt lat="45.586204240381704" lon="10.821098146340033"><ele>198.71428571428572</ele><time>2026-04-01T13:56:38Z</time></trkpt><trkpt lat="45.58614684009925" lon="10.821153409514665"><ele>197.42857142857144</ele><time>2026-04-01T13:56:42Z</time></trkpt><trkpt lat="45.58608185841763" lon="10.821179826885336"><ele>196.14285714285717</ele><time>2026-04-01T13:56:46.999Z</time></trkpt><trkpt lat="45.586031759093565" lon="10.82111678128768"><ele>194.85714285714286</ele><time>2026-04-01T13:56:49.999Z</time></trkpt><trkpt lat="45.585994856358816" lon="10.821026032634078"><ele>193.57142857142856</ele><time>2026-04-01T13:56:55.999Z</time></trkpt><trkpt lat="45.58596598994197" lon="10.82093681724994"><ele>192.2857142857143</ele><time>2026-04-01T13:57:01.999Z</time></trkpt><trkpt lat="45.58591157575602" lon="10.820869493522009"><ele>191.0</ele><time>2026-04-01T13:57:04.999Z</time></trkpt><trkpt lat="45.58583340512089" lon="10.820813371799247"><ele>189.66666666666666</ele><time>2026-04-01T13:57:07.999Z</time></trkpt><trkpt lat="45.58575803227115" lon="10.820773093782616"><ele>188.33333333333331</ele><time>2026-04-01T13:57:10.999Z</time></trkpt><trkpt lat="45.58569862793735" lon="10.82072357791037"><ele>187.0</ele><time>2026-04-01T13:57:13.999Z</time></trkpt><trkpt lat="45.58562776903937" lon="10.820686772972419"><ele>185.66666666666666</ele><time>2026-04-01T13:57:17.999Z</time></trkpt><trkpt lat="45.58553901306504" lon="10.820705009434874"><ele>184.33333333333334</ele><time>2026-04-01T13:57:21.999Z</time></trkpt><trkpt lat="45.58546628846677" lon="10.820780315220999"><ele>183.0</ele><time>2026-04-01T13:57:24.999Z</time></trkpt><trkpt lat="45.585402263172874" lon="10.820812638734294"><ele>180.71428571428572</ele><time>2026-04-01T13:57:26.999Z</time></trkpt><trkpt lat="45.58534247802506" lon="10.820844452326794"><ele>178.42857142857144</ele><time>2026-04-01T13:57:29.999Z</time></trkpt><trkpt lat="45.58527381333907" lon="10.820901311126384"><ele>176.14285714285714</ele><time>2026-04-01T13:57:31.999Z</time></trkpt><trkpt lat="45.58520526676226" lon="10.820930626949428"><ele>173.85714285714286</ele><time>2026-04-01T13:57:35.999Z</time></trkpt><trkpt lat="45.585145958542874" lon="10.820996199969391"><ele>171.57142857142858</ele><time>2026-04-01T13:57:38.999Z</time></trkpt><trkpt lat="45.58508609796234" lon="10.821075345458276"><ele>169.28571428571428</ele><time>2026-04-01T13:57:41.999Z</time></trkpt><trkpt lat="45.58502363724852" lon="10.821105685279509"><ele>167.0</ele><time>2026-04-01T13:57:43.999Z</time></trkpt><trkpt lat="45.58490805775489" lon="10.821090563697975"><ele>166.0</ele><time>2026-04-01T13:57:45.999Z</time></trkpt><trkpt lat="45.58480471941936" lon="10.821082843972794"><ele>165.0</ele><time>2026-04-01T13:57:46.999Z</time></trkpt><trkpt lat="45.58471489535324" lon="10.821087152859763"><ele>164.0</ele><time>2026-04-01T13:57:47.999Z</time></trkpt><trkpt lat="45.58462177979613" lon="10.821075392640902"><ele>163.0</ele><time>2026-04-01T13:57:48.999Z</time></trkpt><trkpt lat="45.58454059162178" lon="10.821115492432154"><ele>162.0</ele><time>2026-04-01T13:57:49.999Z</time></trkpt><trkpt lat="45.584463745293334" lon="10.821106384801784"><ele>159.83333333333334</ele><time>2026-04-01T13:57:50.999Z</time></trkpt><trkpt lat="45.5844016191168" lon="10.821072317850197"><ele>157.66666666666666</ele><time>2026-04-01T13:57:51.999Z</time></trkpt><trkpt lat="45.58435819758491" lon="10.820993301972555"><ele>155.5</ele><time>2026-04-01T13:57:52.998Z</time></trkpt><trkpt lat="45.58432174554641" lon="10.82089664971428"><ele>153.33333333333331</ele><time>2026-04-01T13:57:53.998Z</time></trkpt><trkpt lat="45.58428427802311" lon="10.820789036663028"><ele>151.16666666666666</ele><time>2026-04-01T13:57:54.998Z</time></trkpt><trkpt lat="45.58424628589982" lon="10.82068342388455"><ele>149.0</ele><time>2026-04-01T13:57:55.998Z</time></trkpt><trkpt lat="45.58420871404097" lon="10.820561998427081"><ele>149.0</ele><time>2026-04-01T13:57:58Z</time></trkpt><trkpt lat="45.58418850473538" lon="10.820435561215328"><ele>149.0</ele><time>2026-04-01T13:58:03Z</time></trkpt><trkpt lat="45.58413003455335" lon="10.820356709138112"><ele>149.0</ele><time>2026-04-01T13:58:35Z</time></trkpt><trkpt lat="45.58407573394232" lon="10.82030619760854"><ele>149.0</ele><time>2026-04-01T13:58:36Z</time></trkpt><trkpt lat="45.584014494213456" lon="10.820227017876809"><ele>149.0</ele><time>2026-04-01T13:58:37Z</time></trkpt><trkpt lat="45.583952733654506" lon="10.820116702173586"><ele>149.0</ele><time>2026-04-01T13:58:38Z</time></trkpt><trkpt lat="45.58389656427672" lon="10.81999169640542"><ele>151.4</ele><time>2026-04-01T13:58:39Z</time></trkpt><trkpt lat="45.58384235947341" lon="10.819861084591546"><ele>153.8</ele><time>2026-04-01T13:58:40Z</time></trkpt><trkpt lat="45.58379162728652" lon="10.819741130833371"><ele>156.20000000000002</ele><time>2026-04-01T13:58:41Z</time></trkpt><trkpt lat="45.583748572416454" lon="10.819605800354754"><ele>158.60000000000002</ele><time>2026-04-01T13:58:42Z</time></trkpt><trkpt lat="45.58371645968986" lon="10.819445979998667"><ele>161.0</ele><time>2026-04-01T13:58:43Z</time></trkpt><trkpt lat="45.58369850582795" lon="10.819287193047401"><ele>161.8</ele><time>2026-04-01T13:58:44Z</time></trkpt><trkpt lat="45.58368472043828" lon="10.819143724872626"><ele>162.60000000000002</ele><time>2026-04-01T13:58:45Z</time></trkpt><trkpt lat="45.58367268171868" lon="10.819005955330384"><ele>163.4</ele><time>2026-04-01T13:58:45.999Z</time></trkpt><trkpt lat="45.583666153461834" lon="10.818871918201516"><ele>164.2</ele><time>2026-04-01T13:58:46.999Z</time></trkpt><trkpt lat="45.583641232449004" lon="10.818742977086384"><ele>165.0</ele><time>2026-04-01T13:58:47.999Z</time></trkpt><trkpt lat="45.583605291630676" lon="10.818617785035636"><ele>161.2</ele><time>2026-04-01T13:58:48.999Z</time></trkpt><trkpt lat="45.58354428568207" lon="10.818521887934043"><ele>157.4</ele><time>2026-04-01T13:58:49.999Z</time></trkpt><trkpt lat="45.58346098065001" lon="10.81846721199426"><ele>153.6</ele><time>2026-04-01T13:58:50.999Z</time></trkpt><trkpt lat="45.583365359011154" lon="10.818476558720684"><ele>149.8</ele><time>2026-04-01T13:58:51.999Z</time></trkpt><trkpt lat="45.58328716928478" lon="10.818504129371117"><ele>146.0</ele><time>2026-04-01T13:58:52.999Z</time></trkpt><trkpt lat="45.58322495278048" lon="10.818617067125183"><ele>146.0</ele><time>2026-04-01T13:58:53.999Z</time></trkpt><trkpt lat="45.583221297214635" lon="10.818759928090618"><ele>146.0</ele><time>2026-04-01T13:58:54.999Z</time></trkpt><trkpt lat="45.583237202063835" lon="10.81888822088426"><ele>146.0</ele><time>2026-04-01T13:58:55.999Z</time></trkpt><trkpt lat="45.58326923247677" lon="10.819041177820708"><ele>146.0</ele><time>2026-04-01T13:58:56.999Z</time></trkpt><trkpt lat="45.58330127842858" lon="10.819189853409608"><ele>146.0</ele><time>2026-04-01T13:58:57.999Z</time></trkpt><trkpt lat="45.583291617931486" lon="10.819326005188524"><ele>144.6</ele><time>2026-04-01T13:58:58.999Z</time></trkpt><trkpt lat="45.583285779959894" lon="10.819471027953586"><ele>143.2</ele><time>2026-04-01T13:58:59.999Z</time></trkpt><trkpt lat="45.5832566822024" lon="10.819637479184262"><ele>141.8</ele><time>2026-04-01T13:59:00.999Z</time></trkpt><trkpt lat="45.5832095116151" lon="10.819797037365872"><ele>140.4</ele><time>2026-04-01T13:59:01.999Z</time></trkpt><trkpt lat="45.583136429738246" lon="10.81990511066699"><ele>139.0</ele><time>2026-04-01T13:59:02.999Z</time></trkpt><trkpt lat="45.58306027994666" lon="10.820018740777128"><ele>139.0</ele><time>2026-04-01T13:59:03.999Z</time></trkpt><trkpt lat="45.58298860658355" lon="10.820123325029922"><ele>139.0</ele><time>2026-04-01T13:59:04.999Z</time></trkpt><trkpt lat="45.58293019838611" lon="10.820247232705361"><ele>139.0</ele><time>2026-04-01T13:59:05.999Z</time></trkpt><trkpt lat="45.58289703756788" lon="10.820349783694281"><ele>139.0</ele><time>2026-04-01T13:59:06.999Z</time></trkpt><trkpt lat="45.58289169099586" lon="10.820455606066876"><ele>139.0</ele><time>2026-04-01T13:59:07.999Z</time></trkpt><trkpt lat="45.58286508155599" lon="10.820540697014962"><ele>139.0</ele><time>2026-04-01T13:59:08.999Z</time></trkpt><trkpt lat="45.5828511966621" lon="10.820642015876583"><ele>137.6</ele><time>2026-04-01T13:59:10.999Z</time></trkpt><trkpt lat="45.582783898695446" lon="10.820523417451327"><ele>136.2</ele><time>2026-04-01T13:59:14.999Z</time></trkpt><trkpt lat="45.58276175491562" lon="10.820398599010689"><ele>134.79999999999998</ele><time>2026-04-01T13:59:15.999Z</time></trkpt><trkpt lat="45.582713643883665" lon="10.820267321593592"><ele>133.4</ele><time>2026-04-01T13:59:16.999Z</time></trkpt><trkpt lat="45.58270172492522" lon="10.820134532972041"><ele>132.0</ele><time>2026-04-01T13:59:17.999Z</time></trkpt><trkpt lat="45.58269154019075" lon="10.82002258917421"><ele>132.0</ele><time>2026-04-01T13:59:18.999Z</time></trkpt><trkpt lat="45.58267488548323" lon="10.8198685540923"><ele>132.0</ele><time>2026-04-01T13:59:20.999Z</time></trkpt><trkpt lat="45.582579366202225" lon="10.819851235246297"><ele>132.0</ele><time>2026-04-01T13:59:22.999Z</time></trkpt><trkpt lat="45.582517220675015" lon="10.81987026995468"><ele>132.0</ele><time>2026-04-01T13:59:23.999Z</time></trkpt><trkpt lat="45.58244214813025" lon="10.81989994165004"><ele>132.0</ele><time>2026-04-01T13:59:24.999Z</time></trkpt><trkpt lat="45.58237300929763" lon="10.819918570248804"><ele>132.0</ele><time>2026-04-01T13:59:25.999Z</time></trkpt><trkpt lat="45.582296189233155" lon="10.819911330223073"><ele>132.0</ele><time>2026-04-01T13:59:26.999Z</time></trkpt><trkpt lat="45.58220534077066" lon="10.819886522731478"><ele>132.0</ele><time>2026-04-01T13:59:27.999Z</time></trkpt><trkpt lat="45.58213319724434" lon="10.819870310886017"><ele>132.0</ele><time>2026-04-01T13:59:28.999Z</time></trkpt><trkpt lat="45.5820396494004" lon="10.819849289149104"><ele>132.0</ele><time>2026-04-01T13:59:29.999Z</time></trkpt><trkpt lat="45.58193310347633" lon="10.819995163710491"><ele>132.0</ele><time>2026-04-01T13:59:30.999Z</time></trkpt><trkpt lat="45.581854425694104" lon="10.820034304168635"><ele>130.83333333333334</ele><time>2026-04-01T13:59:31.999Z</time></trkpt><trkpt lat="45.58177618194955" lon="10.820076863136093"><ele>129.66666666666666</ele><time>2026-04-01T13:59:32.999Z</time></trkpt><trkpt lat="45.581709911797695" lon="10.820132252468184"><ele>128.5</ele><time>2026-04-01T13:59:33.999Z</time></trkpt><trkpt lat="45.5816505602511" lon="10.820196185097897"><ele>127.33333333333333</ele><time>2026-04-01T13:59:34.999Z</time></trkpt><trkpt lat="45.5815994621934" lon="10.820265423291817"><ele>126.16666666666666</ele><time>2026-04-01T13:59:35.999Z</time></trkpt><trkpt lat="45.58150886994259" lon="10.820411285645656"><ele>125.0</ele><time>2026-04-01T13:59:37.999Z</time></trkpt><trkpt lat="45.581455147136424" lon="10.820472433490997"><ele>124.99999999999999</ele><time>2026-04-01T13:59:38.999Z</time></trkpt><trkpt lat="45.58139347017743" lon="10.820530348195826"><ele>125.0</ele><time>2026-04-01T13:59:39.999Z</time></trkpt><trkpt lat="45.58131969542094" lon="10.82057543933706"><ele>125.0</ele><time>2026-04-01T13:59:40.999Z</time></trkpt><trkpt lat="45.58124021998084" lon="10.82060784764254"><ele>125.0</ele><time>2026-04-01T13:59:41.999Z</time></trkpt><trkpt lat="45.581158702966555" lon="10.820618546815728"><ele>124.99999999999999</ele><time>2026-04-01T13:59:42.999Z</time></trkpt><trkpt lat="45.5810851113775" lon="10.82060605059752"><ele>125.0</ele><time>2026-04-01T13:59:43.999Z</time></trkpt><trkpt lat="45.58101929036168" lon="10.820581783755593"><ele>124.16666666666666</ele><time>2026-04-01T13:59:44.999Z</time></trkpt><trkpt lat="45.58094971168641" lon="10.820538364299209"><ele>123.33333333333333</ele><time>2026-04-01T13:59:45.999Z</time></trkpt><trkpt lat="45.58088086131978" lon="10.820532593769446"><ele>122.5</ele><time>2026-04-01T13:59:46.999Z</time></trkpt><trkpt lat="45.58081615357194" lon="10.820549910795682"><ele>121.66666666666666</ele><time>2026-04-01T13:59:47.999Z</time></trkpt><trkpt lat="45.58073249458611" lon="10.820571787068518"><ele>120.83333333333333</ele><time>2026-04-01T13:59:48.999Z</time></trkpt><trkpt lat="45.58066926422885" lon="10.820624169192635"><ele>120.0</ele><time>2026-04-01T13:59:49.999Z</time></trkpt><trkpt lat="45.580597474398346" lon="10.820690718043092"><ele>120.0</ele><time>2026-04-01T13:59:50.999Z</time></trkpt><trkpt lat="45.58052325832946" lon="10.820763339621038"><ele>120.0</ele><time>2026-04-01T13:59:51.999Z</time></trkpt><trkpt lat="45.58045317235848" lon="10.820815257513432"><ele>120.0</ele><time>2026-04-01T13:59:52.999Z</time></trkpt><trkpt lat="45.580387046362254" lon="10.82086017802551"><ele>120.0</ele><time>2026-04-01T13:59:53.999Z</time></trkpt><trkpt lat="45.580304655564646" lon="10.820921310308183"><ele>120.0</ele><time>2026-04-01T13:59:54.998Z</time></trkpt><trkpt lat="45.580231682691725" lon="10.820980048036265"><ele>120.0</ele><time>2026-04-01T13:59:55.998Z</time></trkpt><trkpt lat="45.5801111716818" lon="10.821030729430008"><ele>118.0</ele><time>2026-04-01T13:59:57.998Z</time></trkpt><trkpt lat="45.58002585478786" lon="10.820939866539954"><ele>116.0</ele><time>2026-04-01T13:59:59.998Z</time></trkpt><trkpt lat="45.57994084499262" lon="10.82095066007326"><ele>114.0</ele><time>2026-04-01T14:00:01.998Z</time></trkpt><trkpt lat="45.579829035345654" lon="10.82101076310363"><ele>112.0</ele><time>2026-04-01T14:00:04Z</time></trkpt><trkpt lat="45.57977426040928" lon="10.821095724686238"><ele>110.0</ele><time>2026-04-01T14:00:06Z</time></trkpt><trkpt lat="45.579684761975635" lon="10.821088540947546"><ele>110.0</ele><time>2026-04-01T14:00:09Z</time></trkpt><trkpt lat="45.57959638709581" lon="10.820961710540548"><ele>110.0</ele><time>2026-04-01T14:00:11Z</time></trkpt><trkpt lat="45.57956036154957" lon="10.820846042251903"><ele>110.0</ele><time>2026-04-01T14:00:12Z</time></trkpt><trkpt lat="45.579521690869726" lon="10.820759746224326"><ele>110.0</ele><time>2026-04-01T14:00:13Z</time></trkpt><trkpt lat="45.5794401837043" lon="10.82068828419615"><ele>110.0</ele><time>2026-04-01T14:00:15Z</time></trkpt><trkpt lat="45.579335229186675" lon="10.82088979611383"><ele>109.16666666666666</ele><time>2026-04-01T14:00:18Z</time></trkpt><trkpt lat="45.5793022188875" lon="10.820977806749024"><ele>108.33333333333333</ele><time>2026-04-01T14:00:19Z</time></trkpt><trkpt lat="45.57926070670222" lon="10.821051820475466"><ele>107.5</ele><time>2026-04-01T14:00:20Z</time></trkpt><trkpt lat="45.57920466260657" lon="10.821110850498497"><ele>106.66666666666666</ele><time>2026-04-01T14:00:21Z</time></trkpt><trkpt lat="45.57912336749174" lon="10.82114963211907"><ele>105.83333333333333</ele><time>2026-04-01T14:00:22Z</time></trkpt><trkpt lat="45.57902596179038" lon="10.821182770718634"><ele>105.0</ele><time>2026-04-01T14:00:23Z</time></trkpt><trkpt lat="45.57892207465131" lon="10.821199281329386"><ele>103.5</ele><time>2026-04-01T14:00:24Z</time></trkpt><trkpt lat="45.57881236455672" lon="10.82120536435661"><ele>102.0</ele><time>2026-04-01T14:00:25Z</time></trkpt><trkpt lat="45.57868727656143" lon="10.821199750530118"><ele>100.5</ele><time>2026-04-01T14:00:26Z</time></trkpt><trkpt lat="45.57856497228719" lon="10.821182184983405"><ele>99.0</ele><time>2026-04-01T14:00:27Z</time></trkpt><trkpt lat="45.57843685999734" lon="10.821148738365471"><ele>98.4</ele><time>2026-04-01T14:00:28Z</time></trkpt><trkpt lat="45.57832340260914" lon="10.821111230724933"><ele>97.80000000000001</ele><time>2026-04-01T14:00:29Z</time></trkpt><trkpt lat="45.57822084099708" lon="10.821074315865083"><ele>97.19999999999999</ele><time>2026-04-01T14:00:30Z</time></trkpt><trkpt lat="45.57812650418094" lon="10.821041969405565"><ele>96.6</ele><time>2026-04-01T14:00:31Z</time></trkpt><trkpt lat="45.578058208432005" lon="10.821020161327533"><ele>96.0</ele><time>2026-04-01T14:00:32Z</time></trkpt><trkpt lat="45.577990624510974" lon="10.820996380823908"><ele>96.42857142857142</ele><time>2026-04-01T14:00:33Z</time></trkpt><trkpt lat="45.57791073276651" lon="10.820977821378488"><ele>96.85714285714286</ele><time>2026-04-01T14:00:34Z</time></trkpt><trkpt lat="45.577837583787634" lon="10.82096645418291"><ele>97.28571428571428</ele><time>2026-04-01T14:00:35Z</time></trkpt><trkpt lat="45.57776072372235" lon="10.820957271479436"><ele>97.71428571428571</ele><time>2026-04-01T14:00:36Z</time></trkpt><trkpt lat="45.57767826128517" lon="10.820951115742933"><ele>98.14285714285714</ele><time>2026-04-01T14:00:37Z</time></trkpt><trkpt lat="45.57760811552526" lon="10.820957507883392"><ele>98.57142857142857</ele><time>2026-04-01T14:00:38Z</time></trkpt><trkpt lat="45.57754513161107" lon="10.820958680568083"><ele>99.0</ele><time>2026-04-01T14:00:39Z</time></trkpt><trkpt lat="45.57742168882767" lon="10.820921622196678"><ele>99.0</ele><time>2026-04-01T14:00:41Z</time></trkpt><trkpt lat="45.57734478455049" lon="10.820892829763185"><ele>99.0</ele><time>2026-04-01T14:00:42Z</time></trkpt><trkpt lat="45.57726346175467" lon="10.820866973849329"><ele>99.0</ele><time>2026-04-01T14:00:43Z</time></trkpt><trkpt lat="45.577165696318055" lon="10.820839928262668"><ele>99.0</ele><time>2026-04-01T14:00:44Z</time></trkpt><trkpt lat="45.57705599571645" lon="10.820810774187212"><ele>99.0</ele><time>2026-04-01T14:00:45Z</time></trkpt><trkpt lat="45.57692525139741" lon="10.82078071967875"><ele>99.2</ele><time>2026-04-01T14:00:46Z</time></trkpt><trkpt lat="45.576795992306195" lon="10.820747740321838"><ele>99.4</ele><time>2026-04-01T14:00:47Z</time></trkpt><trkpt lat="45.576701716206124" lon="10.82071769806782"><ele>99.6</ele><time>2026-04-01T14:00:48Z</time></trkpt><trkpt lat="45.57661948708385" lon="10.82070171421861"><ele>99.8</ele><time>2026-04-01T14:00:49Z</time></trkpt><trkpt lat="45.576543166432884" lon="10.820682468184103"><ele>100.0</ele><time>2026-04-01T14:00:50Z</time></trkpt><trkpt lat="45.576452104155855" lon="10.820651763337198"><ele>100.00000000000001</ele><time>2026-04-01T14:00:50.999Z</time></trkpt><trkpt lat="45.576358092836166" lon="10.820627202857162"><ele>100.0</ele><time>2026-04-01T14:00:51.999Z</time></trkpt><trkpt lat="45.57628775522714" lon="10.8206089481105"><ele>100.0</ele><time>2026-04-01T14:00:52.999Z</time></trkpt><trkpt lat="45.576222480549234" lon="10.820590230333488"><ele>100.0</ele><time>2026-04-01T14:00:53.999Z</time></trkpt><trkpt lat="45.5761380653271" lon="10.820561349802492"><ele>100.00000000000001</ele><time>2026-04-01T14:00:54.999Z</time></trkpt><trkpt lat="45.57604541372649" lon="10.820530275301612"><ele>100.0</ele><time>2026-04-01T14:00:55.999Z</time></trkpt><trkpt lat="45.5759545798113" lon="10.820500889796257"><ele>99.0</ele><time>2026-04-01T14:00:56.999Z</time></trkpt><trkpt lat="45.5758816535054" lon="10.820483695400812"><ele>98.0</ele><time>2026-04-01T14:00:57.999Z</time></trkpt><trkpt lat="45.57581474291108" lon="10.820466727197612"><ele>97.0</ele><time>2026-04-01T14:00:58.999Z</time></trkpt><trkpt lat="45.57569797429932" lon="10.820427587625925"><ele>96.0</ele><time>2026-04-01T14:01:00.999Z</time></trkpt><trkpt lat="45.57557528160422" lon="10.820437057202728"><ele>95.0</ele><time>2026-04-01T14:01:02.999Z</time></trkpt><trkpt lat="45.5754759629523" lon="10.820468400136276"><ele>95.0</ele><time>2026-04-01T14:01:04.999Z</time></trkpt><trkpt lat="45.575371633741725" lon="10.820426920619104"><ele>95.0</ele><time>2026-04-01T14:01:06.999Z</time></trkpt><trkpt lat="45.57530765502674" lon="10.820431218275242"><ele>95.0</ele><time>2026-04-01T14:01:07.999Z</time></trkpt><trkpt lat="45.57520407089941" lon="10.820464953933293"><ele>95.0</ele><time>2026-04-01T14:01:09.999Z</time></trkpt><trkpt lat="45.575128027894465" lon="10.820426523250202"><ele>95.0</ele><time>2026-04-01T14:01:11.999Z</time></trkpt><trkpt lat="45.5750408158888" lon="10.820314338153821"><ele>94.4</ele><time>2026-04-01T14:01:13.999Z</time></trkpt><trkpt lat="45.574997762247214" lon="10.820169907712962"><ele>93.8</ele><time>2026-04-01T14:01:15.999Z</time></trkpt><trkpt lat="45.574928245889936" lon="10.820094230691677"><ele>93.19999999999999</ele><time>2026-04-01T14:01:17.999Z</time></trkpt><trkpt lat="45.574828232286" lon="10.820137324706133"><ele>92.6</ele><time>2026-04-01T14:01:19.999Z</time></trkpt><trkpt lat="45.57475599368629" lon="10.820159773193147"><ele>92.0</ele><time>2026-04-01T14:01:20.999Z</time></trkpt><trkpt lat="45.57468725838982" lon="10.82021258867394"><ele>92.0</ele><time>2026-04-01T14:01:21.999Z</time></trkpt><trkpt lat="45.57461449305041" lon="10.820190404959789"><ele>92.0</ele><time>2026-04-01T14:01:23.999Z</time></trkpt><trkpt lat="45.57454963253656" lon="10.82014099184277"><ele>92.0</ele><time>2026-04-01T14:01:25.999Z</time></trkpt><trkpt lat="45.57445318135044" lon="10.820159734211465"><ele>92.0</ele><time>2026-04-01T14:01:27.999Z</time></trkpt><trkpt lat="45.574376414013344" lon="10.820111927523246"><ele>92.0</ele><time>2026-04-01T14:01:29.999Z</time></trkpt><trkpt lat="45.5743063570416" lon="10.820072103968533"><ele>92.0</ele><time>2026-04-01T14:01:31.999Z</time></trkpt><trkpt lat="45.57424567042142" lon="10.820016357536318"><ele>92.33333333333334</ele><time>2026-04-01T14:01:33.999Z</time></trkpt><trkpt lat="45.57414161869353" lon="10.819932889242972"><ele>92.66666666666667</ele><time>2026-04-01T14:01:35.999Z</time></trkpt><trkpt lat="45.57407980370412" lon="10.81987767166505"><ele>93.0</ele><time>2026-04-01T14:01:37.999Z</time></trkpt><trkpt lat="45.57398866670709" lon="10.81986058865975"><ele>93.33333333333333</ele><time>2026-04-01T14:01:39.999Z</time></trkpt><trkpt lat="45.57392729642932" lon="10.819832371428298"><ele>93.66666666666666</ele><time>2026-04-01T14:01:42.999Z</time></trkpt><trkpt lat="45.5738423514458" lon="10.819802058027621"><ele>94.0</ele><time>2026-04-01T14:01:45.999Z</time></trkpt><trkpt lat="45.57377512279333" lon="10.819804773500492"><ele>94.0</ele><time>2026-04-01T14:01:47.999Z</time></trkpt><trkpt lat="45.57369785749467" lon="10.819800808162684"><ele>94.0</ele><time>2026-04-01T14:01:49.999Z</time></trkpt><trkpt lat="45.57361300796546" lon="10.819766867076162"><ele>94.0</ele><time>2026-04-01T14:01:51.999Z</time></trkpt><trkpt lat="45.57355466469659" lon="10.81968959076414"><ele>94.0</ele><time>2026-04-01T14:01:53.999Z</time></trkpt><trkpt lat="45.57350265446036" lon="10.819618034937344"><ele>94.0</ele><time>2026-04-01T14:01:55.999Z</time></trkpt><trkpt lat="45.57342505371717" lon="10.819583047962288"><ele>94.0</ele><time>2026-04-01T14:01:58.999Z</time></trkpt><trkpt lat="45.573370920555305" lon="10.819500627230562"><ele>94.28571428571428</ele><time>2026-04-01T14:02:04.998Z</time></trkpt><trkpt lat="45.57329926957566" lon="10.81954280869682"><ele>94.57142857142857</ele><time>2026-04-01T14:02:10Z</time></trkpt><trkpt lat="45.57323224243523" lon="10.81955427366644"><ele>94.85714285714286</ele><time>2026-04-01T14:02:13Z</time></trkpt><trkpt lat="45.573195859035344" lon="10.819472359722777"><ele>95.14285714285714</ele><time>2026-04-01T14:02:19Z</time></trkpt><trkpt lat="45.57318838143682" lon="10.819381780534162"><ele>95.42857142857143</ele><time>2026-04-01T14:02:22Z</time></trkpt><trkpt lat="45.57315508189863" lon="10.819292618299503"><ele>95.71428571428571</ele><time>2026-04-01T14:02:31Z</time></trkpt><trkpt lat="45.573169701131135" lon="10.819165843985301"><ele>96.0</ele><time>2026-04-01T14:02:37Z</time></trkpt><trkpt lat="45.573136560459496" lon="10.819083502946901"><ele>96.33333333333333</ele><time>2026-04-01T14:02:44Z</time></trkpt><trkpt lat="45.573060591266675" lon="10.819096172716023"><ele>96.66666666666666</ele><time>2026-04-01T14:02:49Z</time></trkpt><trkpt lat="45.57297997157484" lon="10.81913390946849"><ele>97.0</ele><time>2026-04-01T14:02:51Z</time></trkpt><trkpt lat="45.57290934263262" lon="10.819116100793158"><ele>97.33333333333333</ele><time>2026-04-01T14:02:53Z</time></trkpt><trkpt lat="45.57284449587098" lon="10.81909495287984"><ele>97.66666666666666</ele><time>2026-04-01T14:02:56Z</time></trkpt><trkpt lat="45.572773626418034" lon="10.81905802778305"><ele>98.0</ele><time>2026-04-01T14:02:59Z</time></trkpt><trkpt lat="45.572698559807584" lon="10.81902066650822"><ele>97.99999999999999</ele><time>2026-04-01T14:03:02.999Z</time></trkpt><trkpt lat="45.57276956147791" lon="10.819050399519227"><ele>98.0</ele><time>2026-04-01T14:03:37.999Z</time></trkpt><trkpt lat="45.57283756199636" lon="10.819050350113498"><ele>98.0</ele><time>2026-04-01T14:03:41.999Z</time></trkpt><trkpt lat="45.572879780559965" lon="10.818967028483547"><ele>98.0</ele><time>2026-04-01T14:03:44.999Z</time></trkpt><trkpt lat="45.572845154826624" lon="10.81887044741032"><ele>97.99999999999999</ele><time>2026-04-01T14:03:49.999Z</time></trkpt><trkpt lat="45.57276449163194" lon="10.818813347765243"><ele>98.0</ele><time>2026-04-01T14:03:52.999Z</time></trkpt><trkpt lat="45.572694918209265" lon="10.81876143548381"><ele>98.0</ele><time>2026-04-01T14:03:54.999Z</time></trkpt><trkpt lat="45.57264029903721" lon="10.818696573572213"><ele>98.0</ele><time>2026-04-01T14:03:56.999Z</time></trkpt><trkpt lat="45.57261821260279" lon="10.818579634840738"><ele>98.0</ele><time>2026-04-01T14:04:00.999Z</time></trkpt><trkpt lat="45.57250215345977" lon="10.818532079738015"><ele>98.0</ele><time>2026-04-01T14:04:10.998Z</time></trkpt><trkpt lat="45.572407758226284" lon="10.818508491768279"><ele>98.0</ele><time>2026-04-01T14:04:12.998Z</time></trkpt><trkpt lat="45.57231812730783" lon="10.818524747577959"><ele>98.0</ele><time>2026-04-01T14:04:15Z</time></trkpt><trkpt lat="45.57218875878451" lon="10.81852174353426"><ele>98.0</ele><time>2026-04-01T14:04:17Z</time></trkpt><trkpt lat="45.57207196653366" lon="10.818541155601425"><ele>98.0</ele><time>2026-04-01T14:04:19Z</time></trkpt><trkpt lat="45.57196793862614" lon="10.818514637381597"><ele>98.0</ele><time>2026-04-01T14:04:21Z</time></trkpt><trkpt lat="45.571906889860244" lon="10.818483997848881"><ele>98.0</ele><time>2026-04-01T14:04:22Z</time></trkpt><trkpt lat="45.571854106000416" lon="10.818398611935962"><ele>99.80000000000001</ele><time>2026-04-01T14:04:24Z</time></trkpt><trkpt lat="45.57180096514797" lon="10.818344981346192"><ele>101.6</ele><time>2026-04-01T14:04:28Z</time></trkpt><trkpt lat="45.571724349946585" lon="10.818444007112994"><ele>103.39999999999999</ele><time>2026-04-01T14:04:30Z</time></trkpt><trkpt lat="45.57157216920818" lon="10.818392361291936"><ele>105.19999999999999</ele><time>2026-04-01T14:04:32Z</time></trkpt><trkpt lat="45.57147256611626" lon="10.818384701725407"><ele>107.0</ele><time>2026-04-01T14:04:33Z</time></trkpt><trkpt lat="45.571371181291184" lon="10.81836904470425"><ele>107.0</ele><time>2026-04-01T14:04:34Z</time></trkpt><trkpt lat="45.571281617442374" lon="10.818354820836904"><ele>106.99999999999999</ele><time>2026-04-01T14:04:35Z</time></trkpt><trkpt lat="45.57119378312803" lon="10.81832008794086"><ele>106.99999999999999</ele><time>2026-04-01T14:04:36Z</time></trkpt><trkpt lat="45.57112192688862" lon="10.818278448678322"><ele>107.0</ele><time>2026-04-01T14:04:37Z</time></trkpt><trkpt lat="45.5710079110308" lon="10.818221228206028"><ele>107.0</ele><time>2026-04-01T14:04:39Z</time></trkpt><trkpt lat="45.57092963343505" lon="10.81812386303713"><ele>106.66666666666666</ele><time>2026-04-01T14:04:41Z</time></trkpt><trkpt lat="45.57086123793815" lon="10.818068813729074"><ele>106.33333333333333</ele><time>2026-04-01T14:04:42Z</time></trkpt><trkpt lat="45.570747964457816" lon="10.818011184361751"><ele>106.0</ele><time>2026-04-01T14:04:43Z</time></trkpt><trkpt lat="45.570665614075715" lon="10.817953787028925"><ele>105.66666666666666</ele><time>2026-04-01T14:04:44Z</time></trkpt><trkpt lat="45.57060740844816" lon="10.817897076461698"><ele>105.33333333333333</ele><time>2026-04-01T14:04:45Z</time></trkpt><trkpt lat="45.570555533200526" lon="10.817836764817246"><ele>105.0</ele><time>2026-04-01T14:04:46Z</time></trkpt><trkpt lat="45.57052157545104" lon="10.817696816331049"><ele>106.16666666666667</ele><time>2026-04-01T14:04:48Z</time></trkpt><trkpt lat="45.57053410345628" lon="10.817593758281472"><ele>107.33333333333334</ele><time>2026-04-01T14:04:49Z</time></trkpt><trkpt lat="45.57056086858289" lon="10.817494686712617"><ele>108.5</ele><time>2026-04-01T14:04:50Z</time></trkpt><trkpt lat="45.570589076471094" lon="10.817375755842308"><ele>109.66666666666667</ele><time>2026-04-01T14:04:51Z</time></trkpt><trkpt lat="45.570629557037314" lon="10.81724935930292"><ele>110.83333333333334</ele><time>2026-04-01T14:04:52Z</time></trkpt><trkpt lat="45.57066896048458" lon="10.817134946144659"><ele>112.0</ele><time>2026-04-01T14:04:53Z</time></trkpt><trkpt lat="45.57068560114466" lon="10.817025123461434"><ele>112.0</ele><time>2026-04-01T14:04:54Z</time></trkpt><trkpt lat="45.57068864349108" lon="10.816882216424037"><ele>111.99999999999999</ele><time>2026-04-01T14:04:56Z</time></trkpt><trkpt lat="45.57069693497102" lon="10.816787804645104"><ele>111.99999999999999</ele><time>2026-04-01T14:04:58Z</time></trkpt><trkpt lat="45.570694165988115" lon="10.8166271019984"><ele>112.0</ele><time>2026-04-01T14:05:00Z</time></trkpt><trkpt lat="45.57067373940126" lon="10.816508891226556"><ele>112.0</ele><time>2026-04-01T14:05:02Z</time></trkpt><trkpt lat="45.57058353314896" lon="10.816460099046617"><ele>113.33333333333334</ele><time>2026-04-01T14:05:04Z</time></trkpt><trkpt lat="45.57051679665152" lon="10.81643372467532"><ele>114.66666666666667</ele><time>2026-04-01T14:05:05Z</time></trkpt><trkpt lat="45.57045478200873" lon="10.81640926713921"><ele>116.0</ele><time>2026-04-01T14:05:06Z</time></trkpt><trkpt lat="45.570342074654604" lon="10.816336053303376"><ele>117.33333333333334</ele><time>2026-04-01T14:05:07.999Z</time></trkpt><trkpt lat="45.57036575917678" lon="10.816235833131769"><ele>118.66666666666667</ele><time>2026-04-01T14:05:12.999Z</time></trkpt><trkpt lat="45.57046745210444" lon="10.816168591162779"><ele>120.0</ele><time>2026-04-01T14:05:14.999Z</time></trkpt><trkpt lat="45.570517678734845" lon="10.816038458661287"><ele>122.16666666666667</ele><time>2026-04-01T14:05:16.999Z</time></trkpt><trkpt lat="45.57054978460198" lon="10.815939310014416"><ele>124.33333333333334</ele><time>2026-04-01T14:05:17.999Z</time></trkpt><trkpt lat="45.570595948699406" lon="10.81585409557875"><ele>126.5</ele><time>2026-04-01T14:05:18.999Z</time></trkpt><trkpt lat="45.57067245114194" lon="10.815797415181674"><ele>128.66666666666669</ele><time>2026-04-01T14:05:19.999Z</time></trkpt><trkpt lat="45.57076282073283" lon="10.815755186306081"><ele>130.83333333333334</ele><time>2026-04-01T14:05:20.999Z</time></trkpt><trkpt lat="45.570850192972834" lon="10.815722527268322"><ele>133.0</ele><time>2026-04-01T14:05:21.999Z</time></trkpt><trkpt lat="45.57092863605151" lon="10.81569307439927"><ele>133.0</ele><time>2026-04-01T14:05:22.999Z</time></trkpt><trkpt lat="45.57100291292908" lon="10.815634919442106"><ele>133.0</ele><time>2026-04-01T14:05:23.999Z</time></trkpt><trkpt lat="45.57105228044308" lon="10.815548250927616"><ele>133.0</ele><time>2026-04-01T14:05:24.999Z</time></trkpt><trkpt lat="45.57104750365636" lon="10.81545812542523"><ele>133.0</ele><time>2026-04-01T14:05:25.999Z</time></trkpt><trkpt lat="45.57101969379237" lon="10.815356294390769"><ele>133.0</ele><time>2026-04-01T14:05:26.999Z</time></trkpt><trkpt lat="45.57096145002554" lon="10.81528280767078"><ele>133.0</ele><time>2026-04-01T14:05:27.999Z</time></trkpt><trkpt lat="45.57091144967013" lon="10.815206783650236"><ele>133.83333333333334</ele><time>2026-04-01T14:05:28.999Z</time></trkpt><trkpt lat="45.570881157153075" lon="10.815117443231436"><ele>134.66666666666669</ele><time>2026-04-01T14:05:29.999Z</time></trkpt><trkpt lat="45.57092956339147" lon="10.814958690682884"><ele>135.5</ele><time>2026-04-01T14:05:31.999Z</time></trkpt><trkpt lat="45.570986860979396" lon="10.814902345361034"><ele>136.33333333333334</ele><time>2026-04-01T14:05:32.999Z</time></trkpt><trkpt lat="45.571076311565385" lon="10.814892426619501"><ele>137.16666666666666</ele><time>2026-04-01T14:05:33.999Z</time></trkpt><trkpt lat="45.57117384703934" lon="10.814888693181743"><ele>138.0</ele><time>2026-04-01T14:05:34.999Z</time></trkpt><trkpt lat="45.57128246325837" lon="10.814855303142142"><ele>138.6</ele><time>2026-04-01T14:05:35.999Z</time></trkpt><trkpt lat="45.571393181643664" lon="10.814824070660658"><ele>139.20000000000002</ele><time>2026-04-01T14:05:36.999Z</time></trkpt><trkpt lat="45.57149221327018" lon="10.814787964334574"><ele>139.8</ele><time>2026-04-01T14:05:37.999Z</time></trkpt><trkpt lat="45.57157513976179" lon="10.814723044723536"><ele>140.4</ele><time>2026-04-01T14:05:38.999Z</time></trkpt><trkpt lat="45.57164048681493" lon="10.81461220551078"><ele>141.0</ele><time>2026-04-01T14:05:39.999Z</time></trkpt><trkpt lat="45.571678326786014" lon="10.814465946277007"><ele>142.75</ele><time>2026-04-01T14:05:40.999Z</time></trkpt><trkpt lat="45.57170276444363" lon="10.814285778618006"><ele>144.5</ele><time>2026-04-01T14:05:41.999Z</time></trkpt><trkpt lat="45.571725425543974" lon="10.814115063985398"><ele>146.25</ele><time>2026-04-01T14:05:42.999Z</time></trkpt><trkpt lat="45.571748828305665" lon="10.813944647273008"><ele>148.0</ele><time>2026-04-01T14:05:43.999Z</time></trkpt><trkpt lat="45.57177762034888" lon="10.81380247447731"><ele>148.0</ele><time>2026-04-01T14:05:44.999Z</time></trkpt><trkpt lat="45.57180295777295" lon="10.813672936112084"><ele>148.0</ele><time>2026-04-01T14:05:45.999Z</time></trkpt><trkpt lat="45.57181851266732" lon="10.81354279501265"><ele>148.0</ele><time>2026-04-01T14:05:46.999Z</time></trkpt><trkpt lat="45.571824480261576" lon="10.813412701065934"><ele>148.0</ele><time>2026-04-01T14:05:47.999Z</time></trkpt><trkpt lat="45.57182549840723" lon="10.813312771670269"><ele>148.0</ele><time>2026-04-01T14:05:48.999Z</time></trkpt><trkpt lat="45.571834463081" lon="10.813181046063034"><ele>148.0</ele><time>2026-04-01T14:05:50.999Z</time></trkpt><trkpt lat="45.571714890907884" lon="10.813123114523494"><ele>151.8</ele><time>2026-04-01T14:05:53.999Z</time></trkpt><trkpt lat="45.57164455035118" lon="10.813163730698228"><ele>155.60000000000002</ele><time>2026-04-01T14:05:54.999Z</time></trkpt><trkpt lat="45.57155958012879" lon="10.81322708277796"><ele>159.39999999999998</ele><time>2026-04-01T14:05:55.999Z</time></trkpt><trkpt lat="45.57147723505505" lon="10.813300876298683"><ele>163.2</ele><time>2026-04-01T14:05:56.999Z</time></trkpt><trkpt lat="45.57138805191293" lon="10.813370175037766"><ele>167.0</ele><time>2026-04-01T14:05:57.999Z</time></trkpt><trkpt lat="45.57131392035709" lon="10.813422608433148"><ele>167.0</ele><time>2026-04-01T14:05:58.999Z</time></trkpt><trkpt lat="45.57121928771281" lon="10.813481430460497"><ele>167.0</ele><time>2026-04-01T14:06:00.999Z</time></trkpt><trkpt lat="45.57109845318988" lon="10.813538284207842"><ele>167.0</ele><time>2026-04-01T14:06:02.999Z</time></trkpt><trkpt lat="45.571028494035026" lon="10.81353849126608"><ele>167.0</ele><time>2026-04-01T14:06:03.999Z</time></trkpt><trkpt lat="45.57093093493615" lon="10.813454717077699"><ele>167.0</ele><time>2026-04-01T14:06:05.999Z</time></trkpt><trkpt lat="45.57090398755145" lon="10.813343402393635"><ele>168.33333333333331</ele><time>2026-04-01T14:06:06.999Z</time></trkpt><trkpt lat="45.570878174254595" lon="10.813250902616824"><ele>169.66666666666666</ele><time>2026-04-01T14:06:07.999Z</time></trkpt><trkpt lat="45.5708480551867" lon="10.813133700095346"><ele>171.0</ele><time>2026-04-01T14:06:08.999Z</time></trkpt><trkpt lat="45.57080940360839" lon="10.813038196767325"><ele>172.33333333333334</ele><time>2026-04-01T14:06:09.999Z</time></trkpt><trkpt lat="45.57078018420744" lon="10.812935019019173"><ele>173.66666666666669</ele><time>2026-04-01T14:06:10.999Z</time></trkpt><trkpt lat="45.57074644790552" lon="10.81282407713614"><ele>175.0</ele><time>2026-04-01T14:06:11.999Z</time></trkpt><trkpt lat="45.57067210427131" lon="10.812701283712672"><ele>175.0</ele><time>2026-04-01T14:06:13.999Z</time></trkpt><trkpt lat="45.5705288897141" lon="10.812691799712585"><ele>175.0</ele><time>2026-04-01T14:06:15.999Z</time></trkpt><trkpt lat="45.57045166982488" lon="10.812704092027113"><ele>175.0</ele><time>2026-04-01T14:06:16.999Z</time></trkpt><trkpt lat="45.570361607214" lon="10.812687230623268"><ele>175.0</ele><time>2026-04-01T14:06:17.998Z</time></trkpt><trkpt lat="45.570270153789394" lon="10.8126764433654"><ele>175.0</ele><time>2026-04-01T14:06:18.998Z</time></trkpt><trkpt lat="45.570190893826094" lon="10.812612620896244"><ele>177.0</ele><time>2026-04-01T14:06:19.998Z</time></trkpt><trkpt lat="45.57010670350161" lon="10.812584086889368"><ele>179.0</ele><time>2026-04-01T14:06:21Z</time></trkpt><trkpt lat="45.57002895397935" lon="10.812582796218786"><ele>181.0</ele><time>2026-04-01T14:06:22Z</time></trkpt><trkpt lat="45.56995876772465" lon="10.812554308342223"><ele>183.0</ele><time>2026-04-01T14:06:23Z</time></trkpt><trkpt lat="45.56988752718167" lon="10.812539308912019"><ele>185.0</ele><time>2026-04-01T14:06:24Z</time></trkpt><trkpt lat="45.56980684596184" lon="10.81249307356613"><ele>187.0</ele><time>2026-04-01T14:06:26Z</time></trkpt><trkpt lat="45.56988649838528" lon="10.812493837432406"><ele>187.0</ele><time>2026-04-01T14:06:30Z</time></trkpt><trkpt lat="45.569990948098564" lon="10.812401340372492"><ele>187.0</ele><time>2026-04-01T14:06:31Z</time></trkpt><trkpt lat="45.570061452788714" lon="10.81238919724214"><ele>187.0</ele><time>2026-04-01T14:06:32Z</time></trkpt><trkpt lat="45.570128748352154" lon="10.812384787540418"><ele>187.0</ele><time>2026-04-01T14:06:33Z</time></trkpt><trkpt lat="45.57020144567348" lon="10.812402830946546"><ele>187.0</ele><time>2026-04-01T14:06:34Z</time></trkpt><trkpt lat="45.570296095566825" lon="10.812389220899997"><ele>187.0</ele><time>2026-04-01T14:06:36Z</time></trkpt><trkpt lat="45.57035495945904" lon="10.812355831310098"><ele>187.0</ele><time>2026-04-01T14:06:38Z</time></trkpt><trkpt lat="45.570418952983694" lon="10.812336775553627"><ele>187.0</ele><time>2026-04-01T14:06:42Z</time></trkpt><trkpt lat="45.57035414336523" lon="10.81235607432267"><ele>187.0</ele><time>2026-04-01T14:09:06Z</time></trkpt><trkpt lat="45.57026859599124" lon="10.812370242451427"><ele>187.0</ele><time>2026-04-01T14:09:08Z</time></trkpt><trkpt lat="45.57013520205253" lon="10.812381706996987"><ele>187.0</ele><time>2026-04-01T14:09:10Z</time></trkpt><trkpt lat="45.56999710261006" lon="10.812384055598347"><ele>187.0</ele><time>2026-04-01T14:09:11Z</time></trkpt><trkpt lat="45.569904324042" lon="10.812383326938523"><ele>187.0</ele><time>2026-04-01T14:09:12Z</time></trkpt><trkpt lat="45.56982018189533" lon="10.81239041658899"><ele>187.0</ele><time>2026-04-01T14:09:13Z</time></trkpt><trkpt lat="45.56973326298604" lon="10.812407338308143"><ele>187.0</ele><time>2026-04-01T14:09:14Z</time></trkpt><trkpt lat="45.5696580269344" lon="10.812418765432675"><ele>187.0</ele><time>2026-04-01T14:09:15Z</time></trkpt><trkpt lat="45.569587108288" lon="10.8124186887846"><ele>187.0</ele><time>2026-04-01T14:09:15.999Z</time></trkpt><trkpt lat="45.569514423085266" lon="10.812421386267397"><ele>187.42857142857142</ele><time>2026-04-01T14:09:16.999Z</time></trkpt><trkpt lat="45.56943968500906" lon="10.812418984704387"><ele>187.85714285714286</ele><time>2026-04-01T14:09:17.999Z</time></trkpt><trkpt lat="45.569372428000335" lon="10.81240574275016"><ele>188.28571428571428</ele><time>2026-04-01T14:09:18.999Z</time></trkpt><trkpt lat="45.56931090226" lon="10.812380794936125"><ele>188.71428571428572</ele><time>2026-04-01T14:09:19.999Z</time></trkpt><trkpt lat="45.56924578949484" lon="10.812344000070315"><ele>189.14285714285717</ele><time>2026-04-01T14:09:20.999Z</time></trkpt><trkpt lat="45.569175097389106" lon="10.812296795961966"><ele>189.57142857142858</ele><time>2026-04-01T14:09:21.999Z</time></trkpt><trkpt lat="45.569104927321824" lon="10.812239033807245"><ele>190.0</ele><time>2026-04-01T14:09:22.999Z</time></trkpt><trkpt lat="45.569037435061674" lon="10.81218524613533"><ele>190.0</ele><time>2026-04-01T14:09:23.999Z</time></trkpt><trkpt lat="45.56896610196801" lon="10.81213739817879"><ele>190.0</ele><time>2026-04-01T14:09:24.999Z</time></trkpt><trkpt lat="45.568891851987644" lon="10.81208000884486"><ele>190.0</ele><time>2026-04-01T14:09:25.999Z</time></trkpt><trkpt lat="45.568815566569704" lon="10.812014362900474"><ele>190.0</ele><time>2026-04-01T14:09:26.999Z</time></trkpt><trkpt lat="45.568739117258815" lon="10.811940364794072"><ele>190.0</ele><time>2026-04-01T14:09:27.999Z</time></trkpt><trkpt lat="45.568655288926415" lon="10.811858561657447"><ele>190.0</ele><time>2026-04-01T14:09:28.999Z</time></trkpt><trkpt lat="45.5685927649986" lon="10.811807343563041"><ele>190.4</ele><time>2026-04-01T14:09:29.999Z</time></trkpt><trkpt lat="45.56848438508962" lon="10.811710951918865"><ele>190.8</ele><time>2026-04-01T14:09:31.999Z</time></trkpt><trkpt lat="45.56842144776194" lon="10.811648882140464"><ele>191.2</ele><time>2026-04-01T14:09:32.999Z</time></trkpt><trkpt lat="45.56835551022838" lon="10.811590190855242"><ele>191.6</ele><time>2026-04-01T14:09:33.999Z</time></trkpt><trkpt lat="45.56828427415469" lon="10.811504376452495"><ele>192.0</ele><time>2026-04-01T14:09:34.999Z</time></trkpt><trkpt lat="45.56818543327601" lon="10.81142639657598"><ele>192.0</ele><time>2026-04-01T14:09:35.999Z</time></trkpt><trkpt lat="45.56806128161692" lon="10.811329897163818"><ele>192.0</ele><time>2026-04-01T14:09:36.999Z</time></trkpt><trkpt lat="45.56792975122628" lon="10.811227662522876"><ele>192.0</ele><time>2026-04-01T14:09:37.999Z</time></trkpt><trkpt lat="45.56780466375798" lon="10.811138701216688"><ele>192.0</ele><time>2026-04-01T14:09:38.999Z</time></trkpt><trkpt lat="45.56771296358855" lon="10.8110358985016"><ele>192.39999999999998</ele><time>2026-04-01T14:09:39.999Z</time></trkpt><trkpt lat="45.56762935635019" lon="10.810916678415973"><ele>192.79999999999998</ele><time>2026-04-01T14:09:40.999Z</time></trkpt><trkpt lat="45.56757272893699" lon="10.810791012394768"><ele>193.2</ele><time>2026-04-01T14:09:41.999Z</time></trkpt><trkpt lat="45.567540700854295" lon="10.81067675346603"><ele>193.6</ele><time>2026-04-01T14:09:42.999Z</time></trkpt><trkpt lat="45.56750163995432" lon="10.81055674313786"><ele>194.0</ele><time>2026-04-01T14:09:44.999Z</time></trkpt><trkpt lat="45.56755008150049" lon="10.81048744413257"><ele>194.0</ele><time>2026-04-01T14:09:46.999Z</time></trkpt><trkpt lat="45.5676089788068" lon="10.810370604270757"><ele>194.0</ele><time>2026-04-01T14:09:49.999Z</time></trkpt><trkpt lat="45.56774386526278" lon="10.810261534229557"><ele>194.0</ele><time>2026-04-01T14:09:51.999Z</time></trkpt><trkpt lat="45.56784366565463" lon="10.81021460365427"><ele>194.0</ele><time>2026-04-01T14:09:52.999Z</time></trkpt><trkpt lat="45.56794448588619" lon="10.810181133428118"><ele>192.75</ele><time>2026-04-01T14:09:53.999Z</time></trkpt><trkpt lat="45.568052693430296" lon="10.810194113118675"><ele>191.5</ele><time>2026-04-01T14:09:54.999Z</time></trkpt><trkpt lat="45.56817042057697" lon="10.810260691312513"><ele>190.25</ele><time>2026-04-01T14:09:55.999Z</time></trkpt><trkpt lat="45.56830175366547" lon="10.810346499742183"><ele>189.0</ele><time>2026-04-01T14:09:56.999Z</time></trkpt><trkpt lat="45.568442157893145" lon="10.810446363171717"><ele>189.0</ele><time>2026-04-01T14:09:57.999Z</time></trkpt><trkpt lat="45.56857888383505" lon="10.810528283678707"><ele>189.0</ele><time>2026-04-01T14:09:58.999Z</time></trkpt><trkpt lat="45.56870109104717" lon="10.810603639818966"><ele>189.0</ele><time>2026-04-01T14:09:59.999Z</time></trkpt><trkpt lat="45.56883598166226" lon="10.810686539752643"><ele>189.0</ele><time>2026-04-01T14:10:00.999Z</time></trkpt><trkpt lat="45.5689665586828" lon="10.810759023354468"><ele>189.0</ele><time>2026-04-01T14:10:01.999Z</time></trkpt><trkpt lat="45.56909341508845" lon="10.81080513946261"><ele>189.0</ele><time>2026-04-01T14:10:02.999Z</time></trkpt><trkpt lat="45.56922127886647" lon="10.810831448581837"><ele>189.0</ele><time>2026-04-01T14:10:03.999Z</time></trkpt><trkpt lat="45.56936661494151" lon="10.810832103159845"><ele>189.0</ele><time>2026-04-01T14:10:04.999Z</time></trkpt><trkpt lat="45.56952942685975" lon="10.810811969550217"><ele>189.5</ele><time>2026-04-01T14:10:05.999Z</time></trkpt><trkpt lat="45.56968666378305" lon="10.81079182564381"><ele>190.0</ele><time>2026-04-01T14:10:06.999Z</time></trkpt><trkpt lat="45.56982249915322" lon="10.810781046018233"><ele>190.5</ele><time>2026-04-01T14:10:07.999Z</time></trkpt><trkpt lat="45.569940204814074" lon="10.810776791525607"><ele>191.0</ele><time>2026-04-01T14:10:08.999Z</time></trkpt><trkpt lat="45.57003675669719" lon="10.81077084059074"><ele>191.0</ele><time>2026-04-01T14:10:09.999Z</time></trkpt><trkpt lat="45.57012139360856" lon="10.810728888360138"><ele>191.0</ele><time>2026-04-01T14:10:10.999Z</time></trkpt><trkpt lat="45.570204428119055" lon="10.810644222874837"><ele>191.0</ele><time>2026-04-01T14:10:11.999Z</time></trkpt><trkpt lat="45.57029980649357" lon="10.810512110490356"><ele>191.0</ele><time>2026-04-01T14:10:12.999Z</time></trkpt><trkpt lat="45.57038062611592" lon="10.810386983474695"><ele>191.0</ele><time>2026-04-01T14:10:13.999Z</time></trkpt><trkpt lat="45.57044211376379" lon="10.810288972767797"><ele>191.25</ele><time>2026-04-01T14:10:14.999Z</time></trkpt><trkpt lat="45.57049029145054" lon="10.810221878635241"><ele>191.5</ele><time>2026-04-01T14:10:15.999Z</time></trkpt><trkpt lat="45.57056316449793" lon="10.81015420199781"><ele>191.75</ele><time>2026-04-01T14:10:17.999Z</time></trkpt><trkpt lat="45.57048984072899" lon="10.809869727033423"><ele>192.0</ele><time>2026-04-01T14:10:20.999Z</time></trkpt><trkpt lat="45.57055926235351" lon="10.809804359000996"><ele>192.0</ele><time>2026-04-01T14:10:22.999Z</time></trkpt><trkpt lat="45.57050902448935" lon="10.809725149075707"><ele>192.0</ele><time>2026-04-01T14:10:24.998Z</time></trkpt><trkpt lat="45.57045914952641" lon="10.809818790722849"><ele>192.0</ele><time>2026-04-01T14:10:26.998Z</time></trkpt></trkseg></trk></gpx>